<?xml version="1.0" encoding="UTF-8" standalone="no" ?>
<gpx xmlns="http://www.topografix.com/GPX/1/1" xmlns:xsi="http://www.w3.org/2001/XMLSchema-instance" xsi:schemaLocation="http://www.topografix.com/GPX/1/1 http://www.topografix.com/GPX/1/1/gpx.xsd" version="1.1" creator="VisuGPX - https://www.visugpx.com">
  <metadata>
    <name>MN Vincennes Modérée J2</name>
    <desc><![CDATA[Marche Nordique dans le bois de Vincennes, à allure modérée, avec Jean.]]></desc>
  </metadata>
  <trk>
    <name><![CDATA[15 mai 2014]]></name>
    <cmt><![CDATA[09:36:48]]></cmt>
    <desc><![CDATA[comment ...]]></desc>
    <trkseg>
      <trkpt lat="48.83975" lon="2.43656">
        <ele>51</ele>
        <time>2014-05-15T09:36:49Z</time>
      </trkpt>
      <trkpt lat="48.83975" lon="2.43656">
        <ele>51</ele>
        <time>2014-05-15T09:36:50Z</time>
      </trkpt>
      <trkpt lat="48.83975" lon="2.43656">
        <ele>51</ele>
        <time>2014-05-15T09:36:51Z</time>
      </trkpt>
      <trkpt lat="48.83975" lon="2.43656">
        <ele>51</ele>
        <time>2014-05-15T09:36:52Z</time>
      </trkpt>
      <trkpt lat="48.83975" lon="2.43656">
        <ele>51</ele>
        <time>2014-05-15T09:36:53Z</time>
      </trkpt>
      <trkpt lat="48.83975" lon="2.43656">
        <ele>51</ele>
        <time>2014-05-15T09:36:54Z</time>
      </trkpt>
      <trkpt lat="48.83975" lon="2.43657">
        <ele>51</ele>
        <time>2014-05-15T09:36:55Z</time>
      </trkpt>
      <trkpt lat="48.83975" lon="2.43658">
        <ele>51</ele>
        <time>2014-05-15T09:36:56Z</time>
      </trkpt>
      <trkpt lat="48.83976" lon="2.43659">
        <ele>52</ele>
        <time>2014-05-15T09:36:57Z</time>
      </trkpt>
      <trkpt lat="48.83976" lon="2.4366">
        <ele>53</ele>
        <time>2014-05-15T09:36:58Z</time>
      </trkpt>
      <trkpt lat="48.83977" lon="2.4366">
        <ele>52</ele>
        <time>2014-05-15T09:36:59Z</time>
      </trkpt>
      <trkpt lat="48.83978" lon="2.4366">
        <ele>54</ele>
        <time>2014-05-15T09:37:00Z</time>
      </trkpt>
      <trkpt lat="48.83978" lon="2.43661">
        <ele>54</ele>
        <time>2014-05-15T09:37:01Z</time>
      </trkpt>
      <trkpt lat="48.83978" lon="2.43662">
        <ele>55</ele>
        <time>2014-05-15T09:37:02Z</time>
      </trkpt>
      <trkpt lat="48.83979" lon="2.43662">
        <ele>55</ele>
        <time>2014-05-15T09:37:03Z</time>
      </trkpt>
      <trkpt lat="48.83979" lon="2.43661">
        <ele>55</ele>
        <time>2014-05-15T09:37:04Z</time>
      </trkpt>
      <trkpt lat="48.83979" lon="2.43661">
        <ele>55</ele>
        <time>2014-05-15T09:37:05Z</time>
      </trkpt>
      <trkpt lat="48.83979" lon="2.43662">
        <ele>55</ele>
        <time>2014-05-15T09:37:06Z</time>
      </trkpt>
      <trkpt lat="48.83979" lon="2.43662">
        <ele>55</ele>
        <time>2014-05-15T09:37:07Z</time>
      </trkpt>
      <trkpt lat="48.83979" lon="2.43662">
        <ele>55</ele>
        <time>2014-05-15T09:37:08Z</time>
      </trkpt>
      <trkpt lat="48.83979" lon="2.43662">
        <ele>55</ele>
        <time>2014-05-15T09:37:09Z</time>
      </trkpt>
      <trkpt lat="48.83979" lon="2.43662">
        <ele>55</ele>
        <time>2014-05-15T09:37:10Z</time>
      </trkpt>
      <trkpt lat="48.83979" lon="2.43662">
        <ele>55</ele>
        <time>2014-05-15T09:37:11Z</time>
      </trkpt>
      <trkpt lat="48.83979" lon="2.43662">
        <ele>55</ele>
        <time>2014-05-15T09:37:12Z</time>
      </trkpt>
      <trkpt lat="48.83979" lon="2.43662">
        <ele>55</ele>
        <time>2014-05-15T09:37:13Z</time>
      </trkpt>
      <trkpt lat="48.83979" lon="2.43662">
        <ele>55</ele>
        <time>2014-05-15T09:37:14Z</time>
      </trkpt>
      <trkpt lat="48.83979" lon="2.43662">
        <ele>55</ele>
        <time>2014-05-15T09:37:15Z</time>
      </trkpt>
      <trkpt lat="48.83979" lon="2.43662">
        <ele>56</ele>
        <time>2014-05-15T09:37:16Z</time>
      </trkpt>
      <trkpt lat="48.83979" lon="2.43662">
        <ele>56</ele>
        <time>2014-05-15T09:37:17Z</time>
      </trkpt>
      <trkpt lat="48.83979" lon="2.43663">
        <ele>56</ele>
        <time>2014-05-15T09:37:18Z</time>
      </trkpt>
      <trkpt lat="48.83979" lon="2.43663">
        <ele>56</ele>
        <time>2014-05-15T09:37:19Z</time>
      </trkpt>
      <trkpt lat="48.83979" lon="2.43663">
        <ele>55</ele>
        <time>2014-05-15T09:37:20Z</time>
      </trkpt>
      <trkpt lat="48.83979" lon="2.43663">
        <ele>55</ele>
        <time>2014-05-15T09:37:21Z</time>
      </trkpt>
      <trkpt lat="48.83979" lon="2.43663">
        <ele>55</ele>
        <time>2014-05-15T09:37:22Z</time>
      </trkpt>
      <trkpt lat="48.83979" lon="2.43662">
        <ele>54</ele>
        <time>2014-05-15T09:37:23Z</time>
      </trkpt>
      <trkpt lat="48.83979" lon="2.43662">
        <ele>54</ele>
        <time>2014-05-15T09:37:24Z</time>
      </trkpt>
      <trkpt lat="48.83979" lon="2.43662">
        <ele>53</ele>
        <time>2014-05-15T09:37:25Z</time>
      </trkpt>
      <trkpt lat="48.8398" lon="2.43662">
        <ele>54</ele>
        <time>2014-05-15T09:37:26Z</time>
      </trkpt>
      <trkpt lat="48.8398" lon="2.43662">
        <ele>54</ele>
        <time>2014-05-15T09:37:27Z</time>
      </trkpt>
      <trkpt lat="48.8398" lon="2.43662">
        <ele>54</ele>
        <time>2014-05-15T09:37:28Z</time>
      </trkpt>
      <trkpt lat="48.8398" lon="2.43662">
        <ele>55</ele>
        <time>2014-05-15T09:37:29Z</time>
      </trkpt>
      <trkpt lat="48.8398" lon="2.43662">
        <ele>55</ele>
        <time>2014-05-15T09:37:30Z</time>
      </trkpt>
      <trkpt lat="48.8398" lon="2.43662">
        <ele>55</ele>
        <time>2014-05-15T09:37:31Z</time>
      </trkpt>
      <trkpt lat="48.83979" lon="2.43662">
        <ele>54</ele>
        <time>2014-05-15T09:37:32Z</time>
      </trkpt>
      <trkpt lat="48.83979" lon="2.43662">
        <ele>54</ele>
        <time>2014-05-15T09:37:33Z</time>
      </trkpt>
      <trkpt lat="48.83979" lon="2.43663">
        <ele>54</ele>
        <time>2014-05-15T09:37:34Z</time>
      </trkpt>
      <trkpt lat="48.83979" lon="2.43663">
        <ele>54</ele>
        <time>2014-05-15T09:37:35Z</time>
      </trkpt>
      <trkpt lat="48.83979" lon="2.43663">
        <ele>54</ele>
        <time>2014-05-15T09:37:36Z</time>
      </trkpt>
      <trkpt lat="48.83979" lon="2.43663">
        <ele>54</ele>
        <time>2014-05-15T09:37:37Z</time>
      </trkpt>
      <trkpt lat="48.83979" lon="2.43663">
        <ele>54</ele>
        <time>2014-05-15T09:37:38Z</time>
      </trkpt>
      <trkpt lat="48.83979" lon="2.43663">
        <ele>54</ele>
        <time>2014-05-15T09:37:39Z</time>
      </trkpt>
      <trkpt lat="48.83979" lon="2.43663">
        <ele>54</ele>
        <time>2014-05-15T09:37:40Z</time>
      </trkpt>
      <trkpt lat="48.83979" lon="2.43663">
        <ele>54</ele>
        <time>2014-05-15T09:37:41Z</time>
      </trkpt>
      <trkpt lat="48.83979" lon="2.43663">
        <ele>54</ele>
        <time>2014-05-15T09:37:42Z</time>
      </trkpt>
      <trkpt lat="48.83979" lon="2.43663">
        <ele>54</ele>
        <time>2014-05-15T09:37:43Z</time>
      </trkpt>
      <trkpt lat="48.83979" lon="2.43663">
        <ele>54</ele>
        <time>2014-05-15T09:37:44Z</time>
      </trkpt>
      <trkpt lat="48.83979" lon="2.43663">
        <ele>54</ele>
        <time>2014-05-15T09:37:45Z</time>
      </trkpt>
      <trkpt lat="48.83979" lon="2.43663">
        <ele>54</ele>
        <time>2014-05-15T09:37:46Z</time>
      </trkpt>
      <trkpt lat="48.83979" lon="2.43663">
        <ele>54</ele>
        <time>2014-05-15T09:37:47Z</time>
      </trkpt>
      <trkpt lat="48.83979" lon="2.43663">
        <ele>54</ele>
        <time>2014-05-15T09:37:48Z</time>
      </trkpt>
      <trkpt lat="48.83979" lon="2.43663">
        <ele>54</ele>
        <time>2014-05-15T09:37:49Z</time>
      </trkpt>
      <trkpt lat="48.83979" lon="2.43663">
        <ele>54</ele>
        <time>2014-05-15T09:37:50Z</time>
      </trkpt>
      <trkpt lat="48.83979" lon="2.43663">
        <ele>54</ele>
        <time>2014-05-15T09:37:51Z</time>
      </trkpt>
      <trkpt lat="48.83979" lon="2.43663">
        <ele>54</ele>
        <time>2014-05-15T09:37:52Z</time>
      </trkpt>
      <trkpt lat="48.83979" lon="2.43663">
        <ele>54</ele>
        <time>2014-05-15T09:37:53Z</time>
      </trkpt>
      <trkpt lat="48.83979" lon="2.43663">
        <ele>54</ele>
        <time>2014-05-15T09:37:54Z</time>
      </trkpt>
      <trkpt lat="48.83979" lon="2.43663">
        <ele>54</ele>
        <time>2014-05-15T09:37:55Z</time>
      </trkpt>
      <trkpt lat="48.83979" lon="2.43663">
        <ele>54</ele>
        <time>2014-05-15T09:37:56Z</time>
      </trkpt>
      <trkpt lat="48.83979" lon="2.43663">
        <ele>54</ele>
        <time>2014-05-15T09:37:57Z</time>
      </trkpt>
      <trkpt lat="48.83979" lon="2.43663">
        <ele>54</ele>
        <time>2014-05-15T09:37:58Z</time>
      </trkpt>
      <trkpt lat="48.83979" lon="2.43663">
        <ele>54</ele>
        <time>2014-05-15T09:37:59Z</time>
      </trkpt>
      <trkpt lat="48.83979" lon="2.43663">
        <ele>54</ele>
        <time>2014-05-15T09:38:00Z</time>
      </trkpt>
      <trkpt lat="48.83979" lon="2.43663">
        <ele>54</ele>
        <time>2014-05-15T09:38:01Z</time>
      </trkpt>
      <trkpt lat="48.83979" lon="2.43663">
        <ele>54</ele>
        <time>2014-05-15T09:38:02Z</time>
      </trkpt>
      <trkpt lat="48.83979" lon="2.43663">
        <ele>54</ele>
        <time>2014-05-15T09:38:03Z</time>
      </trkpt>
      <trkpt lat="48.83979" lon="2.43663">
        <ele>54</ele>
        <time>2014-05-15T09:38:04Z</time>
      </trkpt>
      <trkpt lat="48.83979" lon="2.43663">
        <ele>54</ele>
        <time>2014-05-15T09:38:05Z</time>
      </trkpt>
      <trkpt lat="48.83979" lon="2.43663">
        <ele>54</ele>
        <time>2014-05-15T09:38:06Z</time>
      </trkpt>
      <trkpt lat="48.83979" lon="2.43663">
        <ele>54</ele>
        <time>2014-05-15T09:38:07Z</time>
      </trkpt>
      <trkpt lat="48.83979" lon="2.43663">
        <ele>54</ele>
        <time>2014-05-15T09:38:08Z</time>
      </trkpt>
      <trkpt lat="48.83979" lon="2.43663">
        <ele>54</ele>
        <time>2014-05-15T09:38:09Z</time>
      </trkpt>
      <trkpt lat="48.83979" lon="2.43663">
        <ele>54</ele>
        <time>2014-05-15T09:38:10Z</time>
      </trkpt>
      <trkpt lat="48.83979" lon="2.43663">
        <ele>54</ele>
        <time>2014-05-15T09:38:11Z</time>
      </trkpt>
      <trkpt lat="48.83979" lon="2.43663">
        <ele>54</ele>
        <time>2014-05-15T09:38:12Z</time>
      </trkpt>
      <trkpt lat="48.83979" lon="2.43663">
        <ele>54</ele>
        <time>2014-05-15T09:38:13Z</time>
      </trkpt>
      <trkpt lat="48.83979" lon="2.43663">
        <ele>54</ele>
        <time>2014-05-15T09:38:14Z</time>
      </trkpt>
      <trkpt lat="48.83979" lon="2.43663">
        <ele>54</ele>
        <time>2014-05-15T09:38:15Z</time>
      </trkpt>
      <trkpt lat="48.83979" lon="2.43663">
        <ele>54</ele>
        <time>2014-05-15T09:38:16Z</time>
      </trkpt>
      <trkpt lat="48.83979" lon="2.43663">
        <ele>54</ele>
        <time>2014-05-15T09:38:17Z</time>
      </trkpt>
      <trkpt lat="48.83979" lon="2.43663">
        <ele>54</ele>
        <time>2014-05-15T09:38:18Z</time>
      </trkpt>
      <trkpt lat="48.83979" lon="2.43663">
        <ele>54</ele>
        <time>2014-05-15T09:38:19Z</time>
      </trkpt>
      <trkpt lat="48.83979" lon="2.43663">
        <ele>53</ele>
        <time>2014-05-15T09:38:20Z</time>
      </trkpt>
      <trkpt lat="48.8398" lon="2.43663">
        <ele>53</ele>
        <time>2014-05-15T09:38:21Z</time>
      </trkpt>
      <trkpt lat="48.8398" lon="2.43663">
        <ele>54</ele>
        <time>2014-05-15T09:38:22Z</time>
      </trkpt>
      <trkpt lat="48.8398" lon="2.43663">
        <ele>54</ele>
        <time>2014-05-15T09:38:23Z</time>
      </trkpt>
      <trkpt lat="48.83981" lon="2.43662">
        <ele>54</ele>
        <time>2014-05-15T09:38:24Z</time>
      </trkpt>
      <trkpt lat="48.83981" lon="2.43662">
        <ele>54</ele>
        <time>2014-05-15T09:38:25Z</time>
      </trkpt>
      <trkpt lat="48.83981" lon="2.43661">
        <ele>54</ele>
        <time>2014-05-15T09:38:26Z</time>
      </trkpt>
      <trkpt lat="48.83981" lon="2.43661">
        <ele>53</ele>
        <time>2014-05-15T09:38:27Z</time>
      </trkpt>
      <trkpt lat="48.83981" lon="2.43661">
        <ele>53</ele>
        <time>2014-05-15T09:38:28Z</time>
      </trkpt>
      <trkpt lat="48.83981" lon="2.43661">
        <ele>53</ele>
        <time>2014-05-15T09:38:29Z</time>
      </trkpt>
      <trkpt lat="48.83981" lon="2.43661">
        <ele>52</ele>
        <time>2014-05-15T09:38:30Z</time>
      </trkpt>
      <trkpt lat="48.83981" lon="2.43661">
        <ele>51</ele>
        <time>2014-05-15T09:38:31Z</time>
      </trkpt>
      <trkpt lat="48.83981" lon="2.4366">
        <ele>51</ele>
        <time>2014-05-15T09:38:32Z</time>
      </trkpt>
      <trkpt lat="48.8398" lon="2.4366">
        <ele>51</ele>
        <time>2014-05-15T09:38:33Z</time>
      </trkpt>
      <trkpt lat="48.8398" lon="2.4366">
        <ele>50</ele>
        <time>2014-05-15T09:38:34Z</time>
      </trkpt>
      <trkpt lat="48.8398" lon="2.4366">
        <ele>50</ele>
        <time>2014-05-15T09:38:35Z</time>
      </trkpt>
      <trkpt lat="48.8398" lon="2.4366">
        <ele>49</ele>
        <time>2014-05-15T09:38:36Z</time>
      </trkpt>
      <trkpt lat="48.8398" lon="2.4366">
        <ele>49</ele>
        <time>2014-05-15T09:38:37Z</time>
      </trkpt>
      <trkpt lat="48.8398" lon="2.4366">
        <ele>49</ele>
        <time>2014-05-15T09:38:38Z</time>
      </trkpt>
      <trkpt lat="48.8398" lon="2.4366">
        <ele>49</ele>
        <time>2014-05-15T09:38:39Z</time>
      </trkpt>
      <trkpt lat="48.8398" lon="2.4366">
        <ele>49</ele>
        <time>2014-05-15T09:38:40Z</time>
      </trkpt>
      <trkpt lat="48.8398" lon="2.4366">
        <ele>49</ele>
        <time>2014-05-15T09:38:41Z</time>
      </trkpt>
      <trkpt lat="48.8398" lon="2.4366">
        <ele>49</ele>
        <time>2014-05-15T09:38:42Z</time>
      </trkpt>
      <trkpt lat="48.8398" lon="2.4366">
        <ele>49</ele>
        <time>2014-05-15T09:38:43Z</time>
      </trkpt>
      <trkpt lat="48.8398" lon="2.4366">
        <ele>49</ele>
        <time>2014-05-15T09:38:44Z</time>
      </trkpt>
      <trkpt lat="48.8398" lon="2.4366">
        <ele>49</ele>
        <time>2014-05-15T09:38:45Z</time>
      </trkpt>
      <trkpt lat="48.8398" lon="2.4366">
        <ele>49</ele>
        <time>2014-05-15T09:38:46Z</time>
      </trkpt>
      <trkpt lat="48.8398" lon="2.4366">
        <ele>49</ele>
        <time>2014-05-15T09:38:47Z</time>
      </trkpt>
      <trkpt lat="48.8398" lon="2.4366">
        <ele>49</ele>
        <time>2014-05-15T09:38:48Z</time>
      </trkpt>
      <trkpt lat="48.8398" lon="2.4366">
        <ele>49</ele>
        <time>2014-05-15T09:38:49Z</time>
      </trkpt>
      <trkpt lat="48.8398" lon="2.4366">
        <ele>49</ele>
        <time>2014-05-15T09:38:50Z</time>
      </trkpt>
      <trkpt lat="48.8398" lon="2.4366">
        <ele>49</ele>
        <time>2014-05-15T09:38:51Z</time>
      </trkpt>
      <trkpt lat="48.8398" lon="2.4366">
        <ele>49</ele>
        <time>2014-05-15T09:38:52Z</time>
      </trkpt>
      <trkpt lat="48.8398" lon="2.4366">
        <ele>49</ele>
        <time>2014-05-15T09:38:53Z</time>
      </trkpt>
      <trkpt lat="48.8398" lon="2.4366">
        <ele>49</ele>
        <time>2014-05-15T09:38:54Z</time>
      </trkpt>
      <trkpt lat="48.8398" lon="2.4366">
        <ele>49</ele>
        <time>2014-05-15T09:38:55Z</time>
      </trkpt>
      <trkpt lat="48.8398" lon="2.4366">
        <ele>49</ele>
        <time>2014-05-15T09:38:56Z</time>
      </trkpt>
      <trkpt lat="48.8398" lon="2.43659">
        <ele>50</ele>
        <time>2014-05-15T09:38:57Z</time>
      </trkpt>
      <trkpt lat="48.8398" lon="2.43659">
        <ele>50</ele>
        <time>2014-05-15T09:38:58Z</time>
      </trkpt>
      <trkpt lat="48.8398" lon="2.43658">
        <ele>49</ele>
        <time>2014-05-15T09:38:59Z</time>
      </trkpt>
      <trkpt lat="48.8398" lon="2.43658">
        <ele>49</ele>
        <time>2014-05-15T09:39:00Z</time>
      </trkpt>
      <trkpt lat="48.8398" lon="2.43657">
        <ele>49</ele>
        <time>2014-05-15T09:39:01Z</time>
      </trkpt>
      <trkpt lat="48.8398" lon="2.43657">
        <ele>49</ele>
        <time>2014-05-15T09:39:02Z</time>
      </trkpt>
      <trkpt lat="48.83979" lon="2.43656">
        <ele>49</ele>
        <time>2014-05-15T09:39:03Z</time>
      </trkpt>
      <trkpt lat="48.83979" lon="2.43655">
        <ele>50</ele>
        <time>2014-05-15T09:39:04Z</time>
      </trkpt>
      <trkpt lat="48.83979" lon="2.43654">
        <ele>49</ele>
        <time>2014-05-15T09:39:05Z</time>
      </trkpt>
      <trkpt lat="48.83979" lon="2.43653">
        <ele>49</ele>
        <time>2014-05-15T09:39:06Z</time>
      </trkpt>
      <trkpt lat="48.8398" lon="2.43653">
        <ele>49</ele>
        <time>2014-05-15T09:39:07Z</time>
      </trkpt>
      <trkpt lat="48.8398" lon="2.43652">
        <ele>48</ele>
        <time>2014-05-15T09:39:08Z</time>
      </trkpt>
      <trkpt lat="48.83981" lon="2.43651">
        <ele>48</ele>
        <time>2014-05-15T09:39:09Z</time>
      </trkpt>
      <trkpt lat="48.83981" lon="2.43651">
        <ele>49</ele>
        <time>2014-05-15T09:39:10Z</time>
      </trkpt>
      <trkpt lat="48.83982" lon="2.4365">
        <ele>49</ele>
        <time>2014-05-15T09:39:11Z</time>
      </trkpt>
      <trkpt lat="48.83982" lon="2.4365">
        <ele>48</ele>
        <time>2014-05-15T09:39:12Z</time>
      </trkpt>
      <trkpt lat="48.83982" lon="2.43651">
        <ele>48</ele>
        <time>2014-05-15T09:39:13Z</time>
      </trkpt>
      <trkpt lat="48.83982" lon="2.43651">
        <ele>48</ele>
        <time>2014-05-15T09:39:14Z</time>
      </trkpt>
      <trkpt lat="48.83982" lon="2.43651">
        <ele>48</ele>
        <time>2014-05-15T09:39:15Z</time>
      </trkpt>
      <trkpt lat="48.83982" lon="2.43651">
        <ele>48</ele>
        <time>2014-05-15T09:39:16Z</time>
      </trkpt>
      <trkpt lat="48.83982" lon="2.43651">
        <ele>48</ele>
        <time>2014-05-15T09:39:17Z</time>
      </trkpt>
      <trkpt lat="48.83981" lon="2.43651">
        <ele>48</ele>
        <time>2014-05-15T09:39:18Z</time>
      </trkpt>
      <trkpt lat="48.83981" lon="2.43651">
        <ele>48</ele>
        <time>2014-05-15T09:39:19Z</time>
      </trkpt>
      <trkpt lat="48.83981" lon="2.43651">
        <ele>48</ele>
        <time>2014-05-15T09:39:20Z</time>
      </trkpt>
      <trkpt lat="48.83981" lon="2.4365">
        <ele>48</ele>
        <time>2014-05-15T09:39:21Z</time>
      </trkpt>
      <trkpt lat="48.83981" lon="2.4365">
        <ele>48</ele>
        <time>2014-05-15T09:39:22Z</time>
      </trkpt>
      <trkpt lat="48.83981" lon="2.4365">
        <ele>48</ele>
        <time>2014-05-15T09:39:23Z</time>
      </trkpt>
      <trkpt lat="48.83981" lon="2.4365">
        <ele>48</ele>
        <time>2014-05-15T09:39:24Z</time>
      </trkpt>
      <trkpt lat="48.83981" lon="2.4365">
        <ele>48</ele>
        <time>2014-05-15T09:39:25Z</time>
      </trkpt>
      <trkpt lat="48.83981" lon="2.4365">
        <ele>48</ele>
        <time>2014-05-15T09:39:26Z</time>
      </trkpt>
      <trkpt lat="48.83981" lon="2.4365">
        <ele>48</ele>
        <time>2014-05-15T09:39:27Z</time>
      </trkpt>
      <trkpt lat="48.83981" lon="2.4365">
        <ele>48</ele>
        <time>2014-05-15T09:39:28Z</time>
      </trkpt>
      <trkpt lat="48.83981" lon="2.4365">
        <ele>48</ele>
        <time>2014-05-15T09:39:29Z</time>
      </trkpt>
      <trkpt lat="48.83981" lon="2.4365">
        <ele>48</ele>
        <time>2014-05-15T09:39:30Z</time>
      </trkpt>
      <trkpt lat="48.83981" lon="2.4365">
        <ele>48</ele>
        <time>2014-05-15T09:39:31Z</time>
      </trkpt>
      <trkpt lat="48.83981" lon="2.4365">
        <ele>48</ele>
        <time>2014-05-15T09:39:32Z</time>
      </trkpt>
      <trkpt lat="48.83981" lon="2.4365">
        <ele>48</ele>
        <time>2014-05-15T09:39:33Z</time>
      </trkpt>
      <trkpt lat="48.83981" lon="2.4365">
        <ele>48</ele>
        <time>2014-05-15T09:39:34Z</time>
      </trkpt>
      <trkpt lat="48.83981" lon="2.4365">
        <ele>48</ele>
        <time>2014-05-15T09:39:35Z</time>
      </trkpt>
      <trkpt lat="48.83982" lon="2.4365">
        <ele>48</ele>
        <time>2014-05-15T09:39:36Z</time>
      </trkpt>
      <trkpt lat="48.83982" lon="2.4365">
        <ele>49</ele>
        <time>2014-05-15T09:39:37Z</time>
      </trkpt>
      <trkpt lat="48.83982" lon="2.4365">
        <ele>49</ele>
        <time>2014-05-15T09:39:38Z</time>
      </trkpt>
      <trkpt lat="48.83982" lon="2.4365">
        <ele>49</ele>
        <time>2014-05-15T09:39:39Z</time>
      </trkpt>
      <trkpt lat="48.83982" lon="2.4365">
        <ele>50</ele>
        <time>2014-05-15T09:39:40Z</time>
      </trkpt>
      <trkpt lat="48.83982" lon="2.4365">
        <ele>50</ele>
        <time>2014-05-15T09:39:41Z</time>
      </trkpt>
      <trkpt lat="48.83982" lon="2.4365">
        <ele>50</ele>
        <time>2014-05-15T09:39:42Z</time>
      </trkpt>
      <trkpt lat="48.83982" lon="2.4365">
        <ele>49</ele>
        <time>2014-05-15T09:39:43Z</time>
      </trkpt>
      <trkpt lat="48.83982" lon="2.4365">
        <ele>49</ele>
        <time>2014-05-15T09:39:44Z</time>
      </trkpt>
      <trkpt lat="48.83982" lon="2.4365">
        <ele>49</ele>
        <time>2014-05-15T09:39:45Z</time>
      </trkpt>
      <trkpt lat="48.83982" lon="2.4365">
        <ele>49</ele>
        <time>2014-05-15T09:39:46Z</time>
      </trkpt>
      <trkpt lat="48.83982" lon="2.4365">
        <ele>49</ele>
        <time>2014-05-15T09:39:47Z</time>
      </trkpt>
      <trkpt lat="48.83982" lon="2.4365">
        <ele>49</ele>
        <time>2014-05-15T09:39:48Z</time>
      </trkpt>
      <trkpt lat="48.83982" lon="2.4365">
        <ele>49</ele>
        <time>2014-05-15T09:39:49Z</time>
      </trkpt>
      <trkpt lat="48.83982" lon="2.4365">
        <ele>49</ele>
        <time>2014-05-15T09:39:50Z</time>
      </trkpt>
      <trkpt lat="48.83982" lon="2.4365">
        <ele>49</ele>
        <time>2014-05-15T09:39:51Z</time>
      </trkpt>
      <trkpt lat="48.83982" lon="2.4365">
        <ele>49</ele>
        <time>2014-05-15T09:39:52Z</time>
      </trkpt>
      <trkpt lat="48.83982" lon="2.4365">
        <ele>49</ele>
        <time>2014-05-15T09:39:53Z</time>
      </trkpt>
      <trkpt lat="48.83982" lon="2.4365">
        <ele>49</ele>
        <time>2014-05-15T09:39:54Z</time>
      </trkpt>
      <trkpt lat="48.83982" lon="2.4365">
        <ele>49</ele>
        <time>2014-05-15T09:39:55Z</time>
      </trkpt>
      <trkpt lat="48.83982" lon="2.4365">
        <ele>49</ele>
        <time>2014-05-15T09:39:56Z</time>
      </trkpt>
      <trkpt lat="48.83982" lon="2.4365">
        <ele>49</ele>
        <time>2014-05-15T09:39:57Z</time>
      </trkpt>
      <trkpt lat="48.83982" lon="2.4365">
        <ele>49</ele>
        <time>2014-05-15T09:39:58Z</time>
      </trkpt>
      <trkpt lat="48.83982" lon="2.4365">
        <ele>49</ele>
        <time>2014-05-15T09:39:59Z</time>
      </trkpt>
      <trkpt lat="48.83982" lon="2.4365">
        <ele>49</ele>
        <time>2014-05-15T09:40:00Z</time>
      </trkpt>
      <trkpt lat="48.83982" lon="2.4365">
        <ele>49</ele>
        <time>2014-05-15T09:40:01Z</time>
      </trkpt>
      <trkpt lat="48.83982" lon="2.4365">
        <ele>49</ele>
        <time>2014-05-15T09:40:02Z</time>
      </trkpt>
      <trkpt lat="48.83982" lon="2.4365">
        <ele>49</ele>
        <time>2014-05-15T09:40:03Z</time>
      </trkpt>
      <trkpt lat="48.83981" lon="2.4365">
        <ele>49</ele>
        <time>2014-05-15T09:40:04Z</time>
      </trkpt>
      <trkpt lat="48.83981" lon="2.4365">
        <ele>49</ele>
        <time>2014-05-15T09:40:05Z</time>
      </trkpt>
      <trkpt lat="48.83981" lon="2.4365">
        <ele>49</ele>
        <time>2014-05-15T09:40:06Z</time>
      </trkpt>
      <trkpt lat="48.83981" lon="2.4365">
        <ele>49</ele>
        <time>2014-05-15T09:40:07Z</time>
      </trkpt>
      <trkpt lat="48.83981" lon="2.4365">
        <ele>49</ele>
        <time>2014-05-15T09:40:08Z</time>
      </trkpt>
      <trkpt lat="48.83981" lon="2.4365">
        <ele>49</ele>
        <time>2014-05-15T09:40:09Z</time>
      </trkpt>
      <trkpt lat="48.83981" lon="2.4365">
        <ele>49</ele>
        <time>2014-05-15T09:40:10Z</time>
      </trkpt>
      <trkpt lat="48.83981" lon="2.4365">
        <ele>49</ele>
        <time>2014-05-15T09:40:11Z</time>
      </trkpt>
      <trkpt lat="48.83981" lon="2.4365">
        <ele>49</ele>
        <time>2014-05-15T09:40:12Z</time>
      </trkpt>
      <trkpt lat="48.83981" lon="2.4365">
        <ele>49</ele>
        <time>2014-05-15T09:40:13Z</time>
      </trkpt>
      <trkpt lat="48.83981" lon="2.4365">
        <ele>49</ele>
        <time>2014-05-15T09:40:14Z</time>
      </trkpt>
      <trkpt lat="48.83981" lon="2.4365">
        <ele>49</ele>
        <time>2014-05-15T09:40:15Z</time>
      </trkpt>
      <trkpt lat="48.83981" lon="2.4365">
        <ele>49</ele>
        <time>2014-05-15T09:40:16Z</time>
      </trkpt>
      <trkpt lat="48.83981" lon="2.4365">
        <ele>49</ele>
        <time>2014-05-15T09:40:17Z</time>
      </trkpt>
      <trkpt lat="48.83981" lon="2.4365">
        <ele>49</ele>
        <time>2014-05-15T09:40:18Z</time>
      </trkpt>
      <trkpt lat="48.83981" lon="2.4365">
        <ele>49</ele>
        <time>2014-05-15T09:40:19Z</time>
      </trkpt>
      <trkpt lat="48.83981" lon="2.4365">
        <ele>49</ele>
        <time>2014-05-15T09:40:20Z</time>
      </trkpt>
      <trkpt lat="48.83981" lon="2.4365">
        <ele>49</ele>
        <time>2014-05-15T09:40:21Z</time>
      </trkpt>
      <trkpt lat="48.83981" lon="2.4365">
        <ele>49</ele>
        <time>2014-05-15T09:40:22Z</time>
      </trkpt>
      <trkpt lat="48.83981" lon="2.4365">
        <ele>49</ele>
        <time>2014-05-15T09:40:23Z</time>
      </trkpt>
      <trkpt lat="48.83981" lon="2.4365">
        <ele>49</ele>
        <time>2014-05-15T09:40:24Z</time>
      </trkpt>
      <trkpt lat="48.83981" lon="2.4365">
        <ele>49</ele>
        <time>2014-05-15T09:40:25Z</time>
      </trkpt>
      <trkpt lat="48.83982" lon="2.43649">
        <ele>50</ele>
        <time>2014-05-15T09:40:26Z</time>
      </trkpt>
      <trkpt lat="48.83982" lon="2.43649">
        <ele>50</ele>
        <time>2014-05-15T09:40:27Z</time>
      </trkpt>
      <trkpt lat="48.83983" lon="2.43648">
        <ele>49</ele>
        <time>2014-05-15T09:40:28Z</time>
      </trkpt>
      <trkpt lat="48.83983" lon="2.43648">
        <ele>49</ele>
        <time>2014-05-15T09:40:29Z</time>
      </trkpt>
      <trkpt lat="48.83983" lon="2.43648">
        <ele>49</ele>
        <time>2014-05-15T09:40:30Z</time>
      </trkpt>
      <trkpt lat="48.83983" lon="2.43648">
        <ele>49</ele>
        <time>2014-05-15T09:40:31Z</time>
      </trkpt>
      <trkpt lat="48.83983" lon="2.43649">
        <ele>50</ele>
        <time>2014-05-15T09:40:32Z</time>
      </trkpt>
      <trkpt lat="48.83982" lon="2.43649">
        <ele>49</ele>
        <time>2014-05-15T09:40:33Z</time>
      </trkpt>
      <trkpt lat="48.83982" lon="2.43649">
        <ele>49</ele>
        <time>2014-05-15T09:40:34Z</time>
      </trkpt>
      <trkpt lat="48.83982" lon="2.43649">
        <ele>49</ele>
        <time>2014-05-15T09:40:35Z</time>
      </trkpt>
      <trkpt lat="48.83982" lon="2.43649">
        <ele>49</ele>
        <time>2014-05-15T09:40:36Z</time>
      </trkpt>
      <trkpt lat="48.83981" lon="2.43649">
        <ele>49</ele>
        <time>2014-05-15T09:40:37Z</time>
      </trkpt>
      <trkpt lat="48.83981" lon="2.43649">
        <ele>48</ele>
        <time>2014-05-15T09:40:38Z</time>
      </trkpt>
      <trkpt lat="48.83982" lon="2.43649">
        <ele>47</ele>
        <time>2014-05-15T09:40:39Z</time>
      </trkpt>
      <trkpt lat="48.83982" lon="2.4365">
        <ele>47</ele>
        <time>2014-05-15T09:40:40Z</time>
      </trkpt>
      <trkpt lat="48.83982" lon="2.4365">
        <ele>47</ele>
        <time>2014-05-15T09:40:41Z</time>
      </trkpt>
      <trkpt lat="48.83982" lon="2.4365">
        <ele>47</ele>
        <time>2014-05-15T09:40:42Z</time>
      </trkpt>
      <trkpt lat="48.83983" lon="2.4365">
        <ele>47</ele>
        <time>2014-05-15T09:40:43Z</time>
      </trkpt>
      <trkpt lat="48.83983" lon="2.4365">
        <ele>47</ele>
        <time>2014-05-15T09:40:44Z</time>
      </trkpt>
      <trkpt lat="48.83983" lon="2.4365">
        <ele>47</ele>
        <time>2014-05-15T09:40:45Z</time>
      </trkpt>
      <trkpt lat="48.83983" lon="2.4365">
        <ele>47</ele>
        <time>2014-05-15T09:40:46Z</time>
      </trkpt>
      <trkpt lat="48.83983" lon="2.4365">
        <ele>47</ele>
        <time>2014-05-15T09:40:47Z</time>
      </trkpt>
      <trkpt lat="48.83983" lon="2.4365">
        <ele>47</ele>
        <time>2014-05-15T09:40:48Z</time>
      </trkpt>
      <trkpt lat="48.83983" lon="2.4365">
        <ele>47</ele>
        <time>2014-05-15T09:40:49Z</time>
      </trkpt>
      <trkpt lat="48.83983" lon="2.4365">
        <ele>47</ele>
        <time>2014-05-15T09:40:50Z</time>
      </trkpt>
      <trkpt lat="48.83983" lon="2.4365">
        <ele>47</ele>
        <time>2014-05-15T09:40:51Z</time>
      </trkpt>
      <trkpt lat="48.83983" lon="2.4365">
        <ele>47</ele>
        <time>2014-05-15T09:40:52Z</time>
      </trkpt>
      <trkpt lat="48.83983" lon="2.4365">
        <ele>47</ele>
        <time>2014-05-15T09:40:53Z</time>
      </trkpt>
      <trkpt lat="48.83983" lon="2.4365">
        <ele>47</ele>
        <time>2014-05-15T09:40:54Z</time>
      </trkpt>
      <trkpt lat="48.83983" lon="2.4365">
        <ele>47</ele>
        <time>2014-05-15T09:40:55Z</time>
      </trkpt>
      <trkpt lat="48.83983" lon="2.4365">
        <ele>47</ele>
        <time>2014-05-15T09:40:56Z</time>
      </trkpt>
      <trkpt lat="48.83983" lon="2.4365">
        <ele>47</ele>
        <time>2014-05-15T09:40:57Z</time>
      </trkpt>
      <trkpt lat="48.83983" lon="2.4365">
        <ele>47</ele>
        <time>2014-05-15T09:40:58Z</time>
      </trkpt>
      <trkpt lat="48.83983" lon="2.4365">
        <ele>47</ele>
        <time>2014-05-15T09:40:59Z</time>
      </trkpt>
      <trkpt lat="48.83983" lon="2.4365">
        <ele>47</ele>
        <time>2014-05-15T09:41:00Z</time>
      </trkpt>
      <trkpt lat="48.83983" lon="2.4365">
        <ele>47</ele>
        <time>2014-05-15T09:41:01Z</time>
      </trkpt>
      <trkpt lat="48.83983" lon="2.4365">
        <ele>47</ele>
        <time>2014-05-15T09:41:02Z</time>
      </trkpt>
      <trkpt lat="48.83983" lon="2.4365">
        <ele>47</ele>
        <time>2014-05-15T09:41:03Z</time>
      </trkpt>
      <trkpt lat="48.83983" lon="2.4365">
        <ele>47</ele>
        <time>2014-05-15T09:41:04Z</time>
      </trkpt>
      <trkpt lat="48.83983" lon="2.4365">
        <ele>47</ele>
        <time>2014-05-15T09:41:05Z</time>
      </trkpt>
      <trkpt lat="48.83983" lon="2.4365">
        <ele>47</ele>
        <time>2014-05-15T09:41:06Z</time>
      </trkpt>
      <trkpt lat="48.83983" lon="2.4365">
        <ele>47</ele>
        <time>2014-05-15T09:41:07Z</time>
      </trkpt>
      <trkpt lat="48.83983" lon="2.4365">
        <ele>47</ele>
        <time>2014-05-15T09:41:08Z</time>
      </trkpt>
      <trkpt lat="48.83983" lon="2.4365">
        <ele>47</ele>
        <time>2014-05-15T09:41:09Z</time>
      </trkpt>
      <trkpt lat="48.83983" lon="2.4365">
        <ele>48</ele>
        <time>2014-05-15T09:41:10Z</time>
      </trkpt>
      <trkpt lat="48.83983" lon="2.4365">
        <ele>48</ele>
        <time>2014-05-15T09:41:11Z</time>
      </trkpt>
      <trkpt lat="48.83983" lon="2.4365">
        <ele>48</ele>
        <time>2014-05-15T09:41:12Z</time>
      </trkpt>
      <trkpt lat="48.83983" lon="2.4365">
        <ele>48</ele>
        <time>2014-05-15T09:41:13Z</time>
      </trkpt>
      <trkpt lat="48.83983" lon="2.4365">
        <ele>48</ele>
        <time>2014-05-15T09:41:14Z</time>
      </trkpt>
      <trkpt lat="48.83983" lon="2.4365">
        <ele>48</ele>
        <time>2014-05-15T09:41:15Z</time>
      </trkpt>
      <trkpt lat="48.83983" lon="2.4365">
        <ele>48</ele>
        <time>2014-05-15T09:41:16Z</time>
      </trkpt>
      <trkpt lat="48.83983" lon="2.4365">
        <ele>48</ele>
        <time>2014-05-15T09:41:17Z</time>
      </trkpt>
      <trkpt lat="48.83983" lon="2.4365">
        <ele>48</ele>
        <time>2014-05-15T09:41:18Z</time>
      </trkpt>
      <trkpt lat="48.83983" lon="2.4365">
        <ele>48</ele>
        <time>2014-05-15T09:41:19Z</time>
      </trkpt>
      <trkpt lat="48.83983" lon="2.4365">
        <ele>48</ele>
        <time>2014-05-15T09:41:20Z</time>
      </trkpt>
      <trkpt lat="48.83983" lon="2.4365">
        <ele>48</ele>
        <time>2014-05-15T09:41:21Z</time>
      </trkpt>
      <trkpt lat="48.83983" lon="2.4365">
        <ele>48</ele>
        <time>2014-05-15T09:41:22Z</time>
      </trkpt>
      <trkpt lat="48.83983" lon="2.4365">
        <ele>48</ele>
        <time>2014-05-15T09:41:23Z</time>
      </trkpt>
      <trkpt lat="48.83983" lon="2.4365">
        <ele>48</ele>
        <time>2014-05-15T09:41:24Z</time>
      </trkpt>
      <trkpt lat="48.83983" lon="2.4365">
        <ele>48</ele>
        <time>2014-05-15T09:41:25Z</time>
      </trkpt>
      <trkpt lat="48.83983" lon="2.4365">
        <ele>48</ele>
        <time>2014-05-15T09:41:26Z</time>
      </trkpt>
      <trkpt lat="48.83983" lon="2.4365">
        <ele>48</ele>
        <time>2014-05-15T09:41:27Z</time>
      </trkpt>
      <trkpt lat="48.83983" lon="2.4365">
        <ele>48</ele>
        <time>2014-05-15T09:41:28Z</time>
      </trkpt>
      <trkpt lat="48.83983" lon="2.4365">
        <ele>48</ele>
        <time>2014-05-15T09:41:29Z</time>
      </trkpt>
      <trkpt lat="48.83983" lon="2.4365">
        <ele>48</ele>
        <time>2014-05-15T09:41:30Z</time>
      </trkpt>
      <trkpt lat="48.83983" lon="2.4365">
        <ele>48</ele>
        <time>2014-05-15T09:41:31Z</time>
      </trkpt>
      <trkpt lat="48.83983" lon="2.4365">
        <ele>48</ele>
        <time>2014-05-15T09:41:32Z</time>
      </trkpt>
      <trkpt lat="48.83983" lon="2.4365">
        <ele>48</ele>
        <time>2014-05-15T09:41:33Z</time>
      </trkpt>
      <trkpt lat="48.83983" lon="2.4365">
        <ele>48</ele>
        <time>2014-05-15T09:41:34Z</time>
      </trkpt>
      <trkpt lat="48.83983" lon="2.4365">
        <ele>48</ele>
        <time>2014-05-15T09:41:35Z</time>
      </trkpt>
      <trkpt lat="48.83983" lon="2.4365">
        <ele>48</ele>
        <time>2014-05-15T09:41:36Z</time>
      </trkpt>
      <trkpt lat="48.83983" lon="2.4365">
        <ele>48</ele>
        <time>2014-05-15T09:41:37Z</time>
      </trkpt>
      <trkpt lat="48.83983" lon="2.4365">
        <ele>48</ele>
        <time>2014-05-15T09:41:38Z</time>
      </trkpt>
      <trkpt lat="48.83983" lon="2.4365">
        <ele>48</ele>
        <time>2014-05-15T09:41:39Z</time>
      </trkpt>
      <trkpt lat="48.83983" lon="2.4365">
        <ele>48</ele>
        <time>2014-05-15T09:41:40Z</time>
      </trkpt>
      <trkpt lat="48.83983" lon="2.4365">
        <ele>48</ele>
        <time>2014-05-15T09:41:41Z</time>
      </trkpt>
      <trkpt lat="48.83983" lon="2.4365">
        <ele>48</ele>
        <time>2014-05-15T09:41:42Z</time>
      </trkpt>
      <trkpt lat="48.83983" lon="2.4365">
        <ele>48</ele>
        <time>2014-05-15T09:41:43Z</time>
      </trkpt>
      <trkpt lat="48.83983" lon="2.4365">
        <ele>48</ele>
        <time>2014-05-15T09:41:44Z</time>
      </trkpt>
      <trkpt lat="48.83983" lon="2.4365">
        <ele>48</ele>
        <time>2014-05-15T09:41:45Z</time>
      </trkpt>
      <trkpt lat="48.83983" lon="2.4365">
        <ele>48</ele>
        <time>2014-05-15T09:41:46Z</time>
      </trkpt>
      <trkpt lat="48.83983" lon="2.4365">
        <ele>48</ele>
        <time>2014-05-15T09:41:47Z</time>
      </trkpt>
      <trkpt lat="48.83983" lon="2.4365">
        <ele>48</ele>
        <time>2014-05-15T09:41:48Z</time>
      </trkpt>
      <trkpt lat="48.83983" lon="2.4365">
        <ele>48</ele>
        <time>2014-05-15T09:41:49Z</time>
      </trkpt>
      <trkpt lat="48.83983" lon="2.4365">
        <ele>47</ele>
        <time>2014-05-15T09:41:50Z</time>
      </trkpt>
      <trkpt lat="48.83983" lon="2.4365">
        <ele>47</ele>
        <time>2014-05-15T09:41:51Z</time>
      </trkpt>
      <trkpt lat="48.83983" lon="2.4365">
        <ele>47</ele>
        <time>2014-05-15T09:41:52Z</time>
      </trkpt>
      <trkpt lat="48.83983" lon="2.4365">
        <ele>47</ele>
        <time>2014-05-15T09:41:53Z</time>
      </trkpt>
      <trkpt lat="48.83983" lon="2.4365">
        <ele>47</ele>
        <time>2014-05-15T09:41:54Z</time>
      </trkpt>
      <trkpt lat="48.83983" lon="2.43649">
        <ele>46</ele>
        <time>2014-05-15T09:41:55Z</time>
      </trkpt>
      <trkpt lat="48.83983" lon="2.43649">
        <ele>46</ele>
        <time>2014-05-15T09:41:56Z</time>
      </trkpt>
      <trkpt lat="48.83982" lon="2.43648">
        <ele>46</ele>
        <time>2014-05-15T09:41:57Z</time>
      </trkpt>
      <trkpt lat="48.83982" lon="2.43648">
        <ele>45</ele>
        <time>2014-05-15T09:41:58Z</time>
      </trkpt>
      <trkpt lat="48.83982" lon="2.43647">
        <ele>45</ele>
        <time>2014-05-15T09:41:59Z</time>
      </trkpt>
      <trkpt lat="48.83981" lon="2.43647">
        <ele>45</ele>
        <time>2014-05-15T09:42:00Z</time>
      </trkpt>
      <trkpt lat="48.83981" lon="2.43646">
        <ele>47</ele>
        <time>2014-05-15T09:42:01Z</time>
      </trkpt>
      <trkpt lat="48.8398" lon="2.43645">
        <ele>47</ele>
        <time>2014-05-15T09:42:02Z</time>
      </trkpt>
      <trkpt lat="48.83979" lon="2.43644">
        <ele>47</ele>
        <time>2014-05-15T09:42:03Z</time>
      </trkpt>
      <trkpt lat="48.83978" lon="2.43643">
        <ele>47</ele>
        <time>2014-05-15T09:42:04Z</time>
      </trkpt>
      <trkpt lat="48.83976" lon="2.43642">
        <ele>47</ele>
        <time>2014-05-15T09:42:05Z</time>
      </trkpt>
      <trkpt lat="48.83974" lon="2.43641">
        <ele>47</ele>
        <time>2014-05-15T09:42:06Z</time>
      </trkpt>
      <trkpt lat="48.83973" lon="2.4364">
        <ele>47</ele>
        <time>2014-05-15T09:42:07Z</time>
      </trkpt>
      <trkpt lat="48.83971" lon="2.43638">
        <ele>48</ele>
        <time>2014-05-15T09:42:08Z</time>
      </trkpt>
      <trkpt lat="48.8397" lon="2.43637">
        <ele>47</ele>
        <time>2014-05-15T09:42:09Z</time>
      </trkpt>
      <trkpt lat="48.83968" lon="2.43635">
        <ele>47</ele>
        <time>2014-05-15T09:42:10Z</time>
      </trkpt>
      <trkpt lat="48.83967" lon="2.43634">
        <ele>47</ele>
        <time>2014-05-15T09:42:11Z</time>
      </trkpt>
      <trkpt lat="48.83966" lon="2.43632">
        <ele>47</ele>
        <time>2014-05-15T09:42:12Z</time>
      </trkpt>
      <trkpt lat="48.83964" lon="2.43631">
        <ele>47</ele>
        <time>2014-05-15T09:42:13Z</time>
      </trkpt>
      <trkpt lat="48.83963" lon="2.43629">
        <ele>47</ele>
        <time>2014-05-15T09:42:14Z</time>
      </trkpt>
      <trkpt lat="48.83962" lon="2.43628">
        <ele>47</ele>
        <time>2014-05-15T09:42:15Z</time>
      </trkpt>
      <trkpt lat="48.8396" lon="2.43626">
        <ele>47</ele>
        <time>2014-05-15T09:42:16Z</time>
      </trkpt>
      <trkpt lat="48.83959" lon="2.43624">
        <ele>47</ele>
        <time>2014-05-15T09:42:17Z</time>
      </trkpt>
      <trkpt lat="48.83958" lon="2.43622">
        <ele>48</ele>
        <time>2014-05-15T09:42:18Z</time>
      </trkpt>
      <trkpt lat="48.83957" lon="2.4362">
        <ele>48</ele>
        <time>2014-05-15T09:42:19Z</time>
      </trkpt>
      <trkpt lat="48.83955" lon="2.43617">
        <ele>49</ele>
        <time>2014-05-15T09:42:20Z</time>
      </trkpt>
      <trkpt lat="48.83954" lon="2.43615">
        <ele>48</ele>
        <time>2014-05-15T09:42:21Z</time>
      </trkpt>
      <trkpt lat="48.83953" lon="2.43613">
        <ele>48</ele>
        <time>2014-05-15T09:42:22Z</time>
      </trkpt>
      <trkpt lat="48.83952" lon="2.4361">
        <ele>48</ele>
        <time>2014-05-15T09:42:23Z</time>
      </trkpt>
      <trkpt lat="48.83952" lon="2.43608">
        <ele>48</ele>
        <time>2014-05-15T09:42:24Z</time>
      </trkpt>
      <trkpt lat="48.83951" lon="2.43605">
        <ele>48</ele>
        <time>2014-05-15T09:42:25Z</time>
      </trkpt>
      <trkpt lat="48.8395" lon="2.43603">
        <ele>48</ele>
        <time>2014-05-15T09:42:26Z</time>
      </trkpt>
      <trkpt lat="48.8395" lon="2.436">
        <ele>48</ele>
        <time>2014-05-15T09:42:27Z</time>
      </trkpt>
      <trkpt lat="48.83949" lon="2.43598">
        <ele>48</ele>
        <time>2014-05-15T09:42:28Z</time>
      </trkpt>
      <trkpt lat="48.83949" lon="2.43596">
        <ele>48</ele>
        <time>2014-05-15T09:42:29Z</time>
      </trkpt>
      <trkpt lat="48.83949" lon="2.43593">
        <ele>48</ele>
        <time>2014-05-15T09:42:30Z</time>
      </trkpt>
      <trkpt lat="48.83949" lon="2.43591">
        <ele>47</ele>
        <time>2014-05-15T09:42:31Z</time>
      </trkpt>
      <trkpt lat="48.83949" lon="2.43589">
        <ele>47</ele>
        <time>2014-05-15T09:42:32Z</time>
      </trkpt>
      <trkpt lat="48.83949" lon="2.43587">
        <ele>48</ele>
        <time>2014-05-15T09:42:33Z</time>
      </trkpt>
      <trkpt lat="48.83949" lon="2.43585">
        <ele>48</ele>
        <time>2014-05-15T09:42:34Z</time>
      </trkpt>
      <trkpt lat="48.83949" lon="2.43582">
        <ele>49</ele>
        <time>2014-05-15T09:42:35Z</time>
      </trkpt>
      <trkpt lat="48.83949" lon="2.4358">
        <ele>49</ele>
        <time>2014-05-15T09:42:36Z</time>
      </trkpt>
      <trkpt lat="48.8395" lon="2.43577">
        <ele>50</ele>
        <time>2014-05-15T09:42:37Z</time>
      </trkpt>
      <trkpt lat="48.83951" lon="2.43575">
        <ele>50</ele>
        <time>2014-05-15T09:42:38Z</time>
      </trkpt>
      <trkpt lat="48.83951" lon="2.43573">
        <ele>50</ele>
        <time>2014-05-15T09:42:39Z</time>
      </trkpt>
      <trkpt lat="48.83952" lon="2.43571">
        <ele>49</ele>
        <time>2014-05-15T09:42:40Z</time>
      </trkpt>
      <trkpt lat="48.83953" lon="2.43569">
        <ele>49</ele>
        <time>2014-05-15T09:42:41Z</time>
      </trkpt>
      <trkpt lat="48.83953" lon="2.43567">
        <ele>49</ele>
        <time>2014-05-15T09:42:42Z</time>
      </trkpt>
      <trkpt lat="48.83954" lon="2.43564">
        <ele>49</ele>
        <time>2014-05-15T09:42:43Z</time>
      </trkpt>
      <trkpt lat="48.83954" lon="2.43563">
        <ele>50</ele>
        <time>2014-05-15T09:42:44Z</time>
      </trkpt>
      <trkpt lat="48.83954" lon="2.4356">
        <ele>50</ele>
        <time>2014-05-15T09:42:45Z</time>
      </trkpt>
      <trkpt lat="48.83954" lon="2.43559">
        <ele>50</ele>
        <time>2014-05-15T09:42:46Z</time>
      </trkpt>
      <trkpt lat="48.83955" lon="2.43557">
        <ele>50</ele>
        <time>2014-05-15T09:42:47Z</time>
      </trkpt>
      <trkpt lat="48.83955" lon="2.43554">
        <ele>51</ele>
        <time>2014-05-15T09:42:48Z</time>
      </trkpt>
      <trkpt lat="48.83954" lon="2.43552">
        <ele>50</ele>
        <time>2014-05-15T09:42:49Z</time>
      </trkpt>
      <trkpt lat="48.83954" lon="2.4355">
        <ele>50</ele>
        <time>2014-05-15T09:42:50Z</time>
      </trkpt>
      <trkpt lat="48.83954" lon="2.43548">
        <ele>50</ele>
        <time>2014-05-15T09:42:51Z</time>
      </trkpt>
      <trkpt lat="48.83954" lon="2.43546">
        <ele>49</ele>
        <time>2014-05-15T09:42:52Z</time>
      </trkpt>
      <trkpt lat="48.83954" lon="2.43544">
        <ele>49</ele>
        <time>2014-05-15T09:42:53Z</time>
      </trkpt>
      <trkpt lat="48.83955" lon="2.43542">
        <ele>49</ele>
        <time>2014-05-15T09:42:54Z</time>
      </trkpt>
      <trkpt lat="48.83955" lon="2.4354">
        <ele>49</ele>
        <time>2014-05-15T09:42:55Z</time>
      </trkpt>
      <trkpt lat="48.83955" lon="2.43538">
        <ele>49</ele>
        <time>2014-05-15T09:42:56Z</time>
      </trkpt>
      <trkpt lat="48.83955" lon="2.43536">
        <ele>50</ele>
        <time>2014-05-15T09:42:57Z</time>
      </trkpt>
      <trkpt lat="48.83955" lon="2.43534">
        <ele>49</ele>
        <time>2014-05-15T09:42:58Z</time>
      </trkpt>
      <trkpt lat="48.83955" lon="2.43532">
        <ele>49</ele>
        <time>2014-05-15T09:42:59Z</time>
      </trkpt>
      <trkpt lat="48.83956" lon="2.43529">
        <ele>50</ele>
        <time>2014-05-15T09:43:00Z</time>
      </trkpt>
      <trkpt lat="48.83956" lon="2.43527">
        <ele>50</ele>
        <time>2014-05-15T09:43:01Z</time>
      </trkpt>
      <trkpt lat="48.83956" lon="2.43524">
        <ele>51</ele>
        <time>2014-05-15T09:43:02Z</time>
      </trkpt>
      <trkpt lat="48.83956" lon="2.43521">
        <ele>51</ele>
        <time>2014-05-15T09:43:03Z</time>
      </trkpt>
      <trkpt lat="48.83956" lon="2.43518">
        <ele>50</ele>
        <time>2014-05-15T09:43:04Z</time>
      </trkpt>
      <trkpt lat="48.83956" lon="2.43516">
        <ele>51</ele>
        <time>2014-05-15T09:43:05Z</time>
      </trkpt>
      <trkpt lat="48.83957" lon="2.43513">
        <ele>51</ele>
        <time>2014-05-15T09:43:06Z</time>
      </trkpt>
      <trkpt lat="48.83957" lon="2.43511">
        <ele>50</ele>
        <time>2014-05-15T09:43:07Z</time>
      </trkpt>
      <trkpt lat="48.83957" lon="2.43508">
        <ele>51</ele>
        <time>2014-05-15T09:43:08Z</time>
      </trkpt>
      <trkpt lat="48.83957" lon="2.43506">
        <ele>51</ele>
        <time>2014-05-15T09:43:09Z</time>
      </trkpt>
      <trkpt lat="48.83957" lon="2.43503">
        <ele>52</ele>
        <time>2014-05-15T09:43:10Z</time>
      </trkpt>
      <trkpt lat="48.83957" lon="2.43501">
        <ele>52</ele>
        <time>2014-05-15T09:43:11Z</time>
      </trkpt>
      <trkpt lat="48.83957" lon="2.43498">
        <ele>52</ele>
        <time>2014-05-15T09:43:12Z</time>
      </trkpt>
      <trkpt lat="48.83957" lon="2.43496">
        <ele>47</ele>
        <time>2014-05-15T09:43:13Z</time>
      </trkpt>
      <trkpt lat="48.83957" lon="2.43494">
        <ele>47</ele>
        <time>2014-05-15T09:43:14Z</time>
      </trkpt>
      <trkpt lat="48.83958" lon="2.43491">
        <ele>47</ele>
        <time>2014-05-15T09:43:15Z</time>
      </trkpt>
      <trkpt lat="48.83958" lon="2.43489">
        <ele>47</ele>
        <time>2014-05-15T09:43:16Z</time>
      </trkpt>
      <trkpt lat="48.83958" lon="2.43487">
        <ele>48</ele>
        <time>2014-05-15T09:43:17Z</time>
      </trkpt>
      <trkpt lat="48.83958" lon="2.43485">
        <ele>47</ele>
        <time>2014-05-15T09:43:18Z</time>
      </trkpt>
      <trkpt lat="48.83958" lon="2.43483">
        <ele>48</ele>
        <time>2014-05-15T09:43:19Z</time>
      </trkpt>
      <trkpt lat="48.83958" lon="2.43481">
        <ele>48</ele>
        <time>2014-05-15T09:43:20Z</time>
      </trkpt>
      <trkpt lat="48.83958" lon="2.43479">
        <ele>48</ele>
        <time>2014-05-15T09:43:21Z</time>
      </trkpt>
      <trkpt lat="48.83958" lon="2.43477">
        <ele>50</ele>
        <time>2014-05-15T09:43:22Z</time>
      </trkpt>
      <trkpt lat="48.83958" lon="2.43475">
        <ele>48</ele>
        <time>2014-05-15T09:43:23Z</time>
      </trkpt>
      <trkpt lat="48.83959" lon="2.43473">
        <ele>48</ele>
        <time>2014-05-15T09:43:24Z</time>
      </trkpt>
      <trkpt lat="48.83959" lon="2.43471">
        <ele>48</ele>
        <time>2014-05-15T09:43:25Z</time>
      </trkpt>
      <trkpt lat="48.8396" lon="2.43469">
        <ele>48</ele>
        <time>2014-05-15T09:43:26Z</time>
      </trkpt>
      <trkpt lat="48.83962" lon="2.43468">
        <ele>49</ele>
        <time>2014-05-15T09:43:27Z</time>
      </trkpt>
      <trkpt lat="48.83962" lon="2.43466">
        <ele>50</ele>
        <time>2014-05-15T09:43:28Z</time>
      </trkpt>
      <trkpt lat="48.83963" lon="2.43464">
        <ele>50</ele>
        <time>2014-05-15T09:43:29Z</time>
      </trkpt>
      <trkpt lat="48.83963" lon="2.43462">
        <ele>50</ele>
        <time>2014-05-15T09:43:30Z</time>
      </trkpt>
      <trkpt lat="48.83964" lon="2.4346">
        <ele>50</ele>
        <time>2014-05-15T09:43:31Z</time>
      </trkpt>
      <trkpt lat="48.83966" lon="2.4346">
        <ele>48</ele>
        <time>2014-05-15T09:43:32Z</time>
      </trkpt>
      <trkpt lat="48.83968" lon="2.43459">
        <ele>47</ele>
        <time>2014-05-15T09:43:33Z</time>
      </trkpt>
      <trkpt lat="48.83969" lon="2.43457">
        <ele>47</ele>
        <time>2014-05-15T09:43:34Z</time>
      </trkpt>
      <trkpt lat="48.83971" lon="2.43456">
        <ele>47</ele>
        <time>2014-05-15T09:43:35Z</time>
      </trkpt>
      <trkpt lat="48.83972" lon="2.43455">
        <ele>48</ele>
        <time>2014-05-15T09:43:36Z</time>
      </trkpt>
      <trkpt lat="48.83974" lon="2.43453">
        <ele>47</ele>
        <time>2014-05-15T09:43:37Z</time>
      </trkpt>
      <trkpt lat="48.83976" lon="2.43452">
        <ele>47</ele>
        <time>2014-05-15T09:43:38Z</time>
      </trkpt>
      <trkpt lat="48.83978" lon="2.43451">
        <ele>47</ele>
        <time>2014-05-15T09:43:39Z</time>
      </trkpt>
      <trkpt lat="48.83979" lon="2.43449">
        <ele>47</ele>
        <time>2014-05-15T09:43:40Z</time>
      </trkpt>
      <trkpt lat="48.83981" lon="2.43448">
        <ele>48</ele>
        <time>2014-05-15T09:43:41Z</time>
      </trkpt>
      <trkpt lat="48.83982" lon="2.43447">
        <ele>47</ele>
        <time>2014-05-15T09:43:42Z</time>
      </trkpt>
      <trkpt lat="48.83984" lon="2.43446">
        <ele>47</ele>
        <time>2014-05-15T09:43:43Z</time>
      </trkpt>
      <trkpt lat="48.83986" lon="2.43445">
        <ele>47</ele>
        <time>2014-05-15T09:43:44Z</time>
      </trkpt>
      <trkpt lat="48.83987" lon="2.43443">
        <ele>47</ele>
        <time>2014-05-15T09:43:45Z</time>
      </trkpt>
      <trkpt lat="48.83989" lon="2.43442">
        <ele>46</ele>
        <time>2014-05-15T09:43:46Z</time>
      </trkpt>
      <trkpt lat="48.83991" lon="2.43441">
        <ele>47</ele>
        <time>2014-05-15T09:43:47Z</time>
      </trkpt>
      <trkpt lat="48.83992" lon="2.4344">
        <ele>48</ele>
        <time>2014-05-15T09:43:48Z</time>
      </trkpt>
      <trkpt lat="48.83994" lon="2.43439">
        <ele>49</ele>
        <time>2014-05-15T09:43:49Z</time>
      </trkpt>
      <trkpt lat="48.83995" lon="2.43438">
        <ele>49</ele>
        <time>2014-05-15T09:43:50Z</time>
      </trkpt>
      <trkpt lat="48.83997" lon="2.43436">
        <ele>50</ele>
        <time>2014-05-15T09:43:51Z</time>
      </trkpt>
      <trkpt lat="48.83998" lon="2.43435">
        <ele>51</ele>
        <time>2014-05-15T09:43:52Z</time>
      </trkpt>
      <trkpt lat="48.84" lon="2.43434">
        <ele>51</ele>
        <time>2014-05-15T09:43:53Z</time>
      </trkpt>
      <trkpt lat="48.84001" lon="2.43433">
        <ele>51</ele>
        <time>2014-05-15T09:43:54Z</time>
      </trkpt>
      <trkpt lat="48.84002" lon="2.43431">
        <ele>51</ele>
        <time>2014-05-15T09:43:55Z</time>
      </trkpt>
      <trkpt lat="48.84003" lon="2.4343">
        <ele>52</ele>
        <time>2014-05-15T09:43:56Z</time>
      </trkpt>
      <trkpt lat="48.84004" lon="2.43429">
        <ele>51</ele>
        <time>2014-05-15T09:43:57Z</time>
      </trkpt>
      <trkpt lat="48.84005" lon="2.43427">
        <ele>50</ele>
        <time>2014-05-15T09:43:58Z</time>
      </trkpt>
      <trkpt lat="48.84005" lon="2.43426">
        <ele>50</ele>
        <time>2014-05-15T09:43:59Z</time>
      </trkpt>
      <trkpt lat="48.84005" lon="2.43425">
        <ele>50</ele>
        <time>2014-05-15T09:44:00Z</time>
      </trkpt>
      <trkpt lat="48.84006" lon="2.43424">
        <ele>50</ele>
        <time>2014-05-15T09:44:01Z</time>
      </trkpt>
      <trkpt lat="48.84006" lon="2.43423">
        <ele>50</ele>
        <time>2014-05-15T09:44:02Z</time>
      </trkpt>
      <trkpt lat="48.84007" lon="2.43421">
        <ele>50</ele>
        <time>2014-05-15T09:44:03Z</time>
      </trkpt>
      <trkpt lat="48.84007" lon="2.4342">
        <ele>50</ele>
        <time>2014-05-15T09:44:04Z</time>
      </trkpt>
      <trkpt lat="48.84007" lon="2.43418">
        <ele>50</ele>
        <time>2014-05-15T09:44:05Z</time>
      </trkpt>
      <trkpt lat="48.84006" lon="2.43417">
        <ele>50</ele>
        <time>2014-05-15T09:44:06Z</time>
      </trkpt>
      <trkpt lat="48.84006" lon="2.43415">
        <ele>50</ele>
        <time>2014-05-15T09:44:07Z</time>
      </trkpt>
      <trkpt lat="48.84005" lon="2.43413">
        <ele>49</ele>
        <time>2014-05-15T09:44:08Z</time>
      </trkpt>
      <trkpt lat="48.84005" lon="2.43411">
        <ele>49</ele>
        <time>2014-05-15T09:44:09Z</time>
      </trkpt>
      <trkpt lat="48.84004" lon="2.4341">
        <ele>48</ele>
        <time>2014-05-15T09:44:10Z</time>
      </trkpt>
      <trkpt lat="48.84004" lon="2.43408">
        <ele>48</ele>
        <time>2014-05-15T09:44:11Z</time>
      </trkpt>
      <trkpt lat="48.84003" lon="2.43406">
        <ele>47</ele>
        <time>2014-05-15T09:44:12Z</time>
      </trkpt>
      <trkpt lat="48.84003" lon="2.43404">
        <ele>46</ele>
        <time>2014-05-15T09:44:13Z</time>
      </trkpt>
      <trkpt lat="48.84002" lon="2.43402">
        <ele>47</ele>
        <time>2014-05-15T09:44:14Z</time>
      </trkpt>
      <trkpt lat="48.84002" lon="2.43401">
        <ele>47</ele>
        <time>2014-05-15T09:44:15Z</time>
      </trkpt>
      <trkpt lat="48.84001" lon="2.43399">
        <ele>48</ele>
        <time>2014-05-15T09:44:16Z</time>
      </trkpt>
      <trkpt lat="48.84001" lon="2.43397">
        <ele>48</ele>
        <time>2014-05-15T09:44:17Z</time>
      </trkpt>
      <trkpt lat="48.84001" lon="2.43395">
        <ele>48</ele>
        <time>2014-05-15T09:44:18Z</time>
      </trkpt>
      <trkpt lat="48.84" lon="2.43393">
        <ele>47</ele>
        <time>2014-05-15T09:44:19Z</time>
      </trkpt>
      <trkpt lat="48.84" lon="2.43391">
        <ele>47</ele>
        <time>2014-05-15T09:44:20Z</time>
      </trkpt>
      <trkpt lat="48.83999" lon="2.43389">
        <ele>47</ele>
        <time>2014-05-15T09:44:21Z</time>
      </trkpt>
      <trkpt lat="48.83999" lon="2.43388">
        <ele>47</ele>
        <time>2014-05-15T09:44:22Z</time>
      </trkpt>
      <trkpt lat="48.83998" lon="2.43386">
        <ele>47</ele>
        <time>2014-05-15T09:44:23Z</time>
      </trkpt>
      <trkpt lat="48.83998" lon="2.43384">
        <ele>47</ele>
        <time>2014-05-15T09:44:24Z</time>
      </trkpt>
      <trkpt lat="48.83998" lon="2.43382">
        <ele>46</ele>
        <time>2014-05-15T09:44:25Z</time>
      </trkpt>
      <trkpt lat="48.83998" lon="2.4338">
        <ele>46</ele>
        <time>2014-05-15T09:44:26Z</time>
      </trkpt>
      <trkpt lat="48.83998" lon="2.43378">
        <ele>46</ele>
        <time>2014-05-15T09:44:27Z</time>
      </trkpt>
      <trkpt lat="48.83997" lon="2.43376">
        <ele>46</ele>
        <time>2014-05-15T09:44:28Z</time>
      </trkpt>
      <trkpt lat="48.83997" lon="2.43374">
        <ele>45</ele>
        <time>2014-05-15T09:44:29Z</time>
      </trkpt>
      <trkpt lat="48.83997" lon="2.43372">
        <ele>45</ele>
        <time>2014-05-15T09:44:30Z</time>
      </trkpt>
      <trkpt lat="48.83997" lon="2.4337">
        <ele>44</ele>
        <time>2014-05-15T09:44:31Z</time>
      </trkpt>
      <trkpt lat="48.83997" lon="2.43368">
        <ele>43</ele>
        <time>2014-05-15T09:44:32Z</time>
      </trkpt>
      <trkpt lat="48.83997" lon="2.43366">
        <ele>44</ele>
        <time>2014-05-15T09:44:33Z</time>
      </trkpt>
      <trkpt lat="48.83997" lon="2.43364">
        <ele>46</ele>
        <time>2014-05-15T09:44:34Z</time>
      </trkpt>
      <trkpt lat="48.83997" lon="2.43361">
        <ele>47</ele>
        <time>2014-05-15T09:44:35Z</time>
      </trkpt>
      <trkpt lat="48.83997" lon="2.43359">
        <ele>46</ele>
        <time>2014-05-15T09:44:36Z</time>
      </trkpt>
      <trkpt lat="48.83997" lon="2.43356">
        <ele>46</ele>
        <time>2014-05-15T09:44:37Z</time>
      </trkpt>
      <trkpt lat="48.83997" lon="2.43355">
        <ele>46</ele>
        <time>2014-05-15T09:44:38Z</time>
      </trkpt>
      <trkpt lat="48.83997" lon="2.43353">
        <ele>46</ele>
        <time>2014-05-15T09:44:39Z</time>
      </trkpt>
      <trkpt lat="48.83997" lon="2.43351">
        <ele>45</ele>
        <time>2014-05-15T09:44:40Z</time>
      </trkpt>
      <trkpt lat="48.83997" lon="2.43349">
        <ele>45</ele>
        <time>2014-05-15T09:44:41Z</time>
      </trkpt>
      <trkpt lat="48.83997" lon="2.43347">
        <ele>45</ele>
        <time>2014-05-15T09:44:42Z</time>
      </trkpt>
      <trkpt lat="48.83997" lon="2.43345">
        <ele>46</ele>
        <time>2014-05-15T09:44:43Z</time>
      </trkpt>
      <trkpt lat="48.83997" lon="2.43343">
        <ele>45</ele>
        <time>2014-05-15T09:44:44Z</time>
      </trkpt>
      <trkpt lat="48.83997" lon="2.43341">
        <ele>45</ele>
        <time>2014-05-15T09:44:45Z</time>
      </trkpt>
      <trkpt lat="48.83997" lon="2.43339">
        <ele>45</ele>
        <time>2014-05-15T09:44:46Z</time>
      </trkpt>
      <trkpt lat="48.83998" lon="2.43338">
        <ele>44</ele>
        <time>2014-05-15T09:44:47Z</time>
      </trkpt>
      <trkpt lat="48.83998" lon="2.43336">
        <ele>44</ele>
        <time>2014-05-15T09:44:48Z</time>
      </trkpt>
      <trkpt lat="48.83998" lon="2.43334">
        <ele>45</ele>
        <time>2014-05-15T09:44:49Z</time>
      </trkpt>
      <trkpt lat="48.83997" lon="2.43332">
        <ele>44</ele>
        <time>2014-05-15T09:44:50Z</time>
      </trkpt>
      <trkpt lat="48.83997" lon="2.4333">
        <ele>44</ele>
        <time>2014-05-15T09:44:51Z</time>
      </trkpt>
      <trkpt lat="48.83997" lon="2.43328">
        <ele>44</ele>
        <time>2014-05-15T09:44:52Z</time>
      </trkpt>
      <trkpt lat="48.83997" lon="2.43326">
        <ele>45</ele>
        <time>2014-05-15T09:44:53Z</time>
      </trkpt>
      <trkpt lat="48.83998" lon="2.43324">
        <ele>45</ele>
        <time>2014-05-15T09:44:54Z</time>
      </trkpt>
      <trkpt lat="48.83998" lon="2.43322">
        <ele>44</ele>
        <time>2014-05-15T09:44:55Z</time>
      </trkpt>
      <trkpt lat="48.83998" lon="2.4332">
        <ele>45</ele>
        <time>2014-05-15T09:44:56Z</time>
      </trkpt>
      <trkpt lat="48.83998" lon="2.43319">
        <ele>45</ele>
        <time>2014-05-15T09:44:57Z</time>
      </trkpt>
      <trkpt lat="48.83998" lon="2.43317">
        <ele>44</ele>
        <time>2014-05-15T09:44:58Z</time>
      </trkpt>
      <trkpt lat="48.83998" lon="2.43315">
        <ele>44</ele>
        <time>2014-05-15T09:44:59Z</time>
      </trkpt>
      <trkpt lat="48.83998" lon="2.43313">
        <ele>44</ele>
        <time>2014-05-15T09:45:00Z</time>
      </trkpt>
      <trkpt lat="48.83998" lon="2.4331">
        <ele>44</ele>
        <time>2014-05-15T09:45:01Z</time>
      </trkpt>
      <trkpt lat="48.83998" lon="2.43308">
        <ele>43</ele>
        <time>2014-05-15T09:45:02Z</time>
      </trkpt>
      <trkpt lat="48.83998" lon="2.43307">
        <ele>43</ele>
        <time>2014-05-15T09:45:03Z</time>
      </trkpt>
      <trkpt lat="48.83998" lon="2.43305">
        <ele>42</ele>
        <time>2014-05-15T09:45:04Z</time>
      </trkpt>
      <trkpt lat="48.83998" lon="2.43304">
        <ele>42</ele>
        <time>2014-05-15T09:45:05Z</time>
      </trkpt>
      <trkpt lat="48.83998" lon="2.43302">
        <ele>42</ele>
        <time>2014-05-15T09:45:06Z</time>
      </trkpt>
      <trkpt lat="48.83998" lon="2.433">
        <ele>42</ele>
        <time>2014-05-15T09:45:07Z</time>
      </trkpt>
      <trkpt lat="48.83998" lon="2.43299">
        <ele>41</ele>
        <time>2014-05-15T09:45:08Z</time>
      </trkpt>
      <trkpt lat="48.83997" lon="2.43297">
        <ele>42</ele>
        <time>2014-05-15T09:45:09Z</time>
      </trkpt>
      <trkpt lat="48.83997" lon="2.43295">
        <ele>42</ele>
        <time>2014-05-15T09:45:10Z</time>
      </trkpt>
      <trkpt lat="48.83997" lon="2.43293">
        <ele>40</ele>
        <time>2014-05-15T09:45:11Z</time>
      </trkpt>
      <trkpt lat="48.83997" lon="2.43292">
        <ele>38</ele>
        <time>2014-05-15T09:45:12Z</time>
      </trkpt>
      <trkpt lat="48.83996" lon="2.4329">
        <ele>38</ele>
        <time>2014-05-15T09:45:13Z</time>
      </trkpt>
      <trkpt lat="48.83996" lon="2.43288">
        <ele>38</ele>
        <time>2014-05-15T09:45:14Z</time>
      </trkpt>
      <trkpt lat="48.83995" lon="2.43287">
        <ele>37</ele>
        <time>2014-05-15T09:45:15Z</time>
      </trkpt>
      <trkpt lat="48.83994" lon="2.43285">
        <ele>37</ele>
        <time>2014-05-15T09:45:16Z</time>
      </trkpt>
      <trkpt lat="48.83994" lon="2.43284">
        <ele>36</ele>
        <time>2014-05-15T09:45:17Z</time>
      </trkpt>
      <trkpt lat="48.83993" lon="2.43283">
        <ele>36</ele>
        <time>2014-05-15T09:45:18Z</time>
      </trkpt>
      <trkpt lat="48.83992" lon="2.43281">
        <ele>36</ele>
        <time>2014-05-15T09:45:19Z</time>
      </trkpt>
      <trkpt lat="48.83991" lon="2.4328">
        <ele>36</ele>
        <time>2014-05-15T09:45:20Z</time>
      </trkpt>
      <trkpt lat="48.8399" lon="2.43279">
        <ele>36</ele>
        <time>2014-05-15T09:45:21Z</time>
      </trkpt>
      <trkpt lat="48.83989" lon="2.43278">
        <ele>36</ele>
        <time>2014-05-15T09:45:22Z</time>
      </trkpt>
      <trkpt lat="48.83989" lon="2.43276">
        <ele>36</ele>
        <time>2014-05-15T09:45:23Z</time>
      </trkpt>
      <trkpt lat="48.83988" lon="2.43274">
        <ele>36</ele>
        <time>2014-05-15T09:45:24Z</time>
      </trkpt>
      <trkpt lat="48.83988" lon="2.43273">
        <ele>36</ele>
        <time>2014-05-15T09:45:25Z</time>
      </trkpt>
      <trkpt lat="48.83988" lon="2.43271">
        <ele>37</ele>
        <time>2014-05-15T09:45:26Z</time>
      </trkpt>
      <trkpt lat="48.83988" lon="2.43268">
        <ele>38</ele>
        <time>2014-05-15T09:45:27Z</time>
      </trkpt>
      <trkpt lat="48.83989" lon="2.43266">
        <ele>40</ele>
        <time>2014-05-15T09:45:28Z</time>
      </trkpt>
      <trkpt lat="48.83989" lon="2.43265">
        <ele>40</ele>
        <time>2014-05-15T09:45:29Z</time>
      </trkpt>
      <trkpt lat="48.8399" lon="2.43262">
        <ele>42</ele>
        <time>2014-05-15T09:45:30Z</time>
      </trkpt>
      <trkpt lat="48.8399" lon="2.43261">
        <ele>42</ele>
        <time>2014-05-15T09:45:31Z</time>
      </trkpt>
      <trkpt lat="48.83991" lon="2.43258">
        <ele>43</ele>
        <time>2014-05-15T09:45:32Z</time>
      </trkpt>
      <trkpt lat="48.83991" lon="2.43256">
        <ele>44</ele>
        <time>2014-05-15T09:45:33Z</time>
      </trkpt>
      <trkpt lat="48.83992" lon="2.43254">
        <ele>43</ele>
        <time>2014-05-15T09:45:34Z</time>
      </trkpt>
      <trkpt lat="48.83992" lon="2.43253">
        <ele>45</ele>
        <time>2014-05-15T09:45:35Z</time>
      </trkpt>
      <trkpt lat="48.83993" lon="2.43251">
        <ele>45</ele>
        <time>2014-05-15T09:45:36Z</time>
      </trkpt>
      <trkpt lat="48.83992" lon="2.43251">
        <ele>41</ele>
        <time>2014-05-15T09:45:37Z</time>
      </trkpt>
      <trkpt lat="48.83992" lon="2.43251">
        <ele>41</ele>
        <time>2014-05-15T09:45:38Z</time>
      </trkpt>
      <trkpt lat="48.83992" lon="2.43251">
        <ele>41</ele>
        <time>2014-05-15T09:45:39Z</time>
      </trkpt>
      <trkpt lat="48.83992" lon="2.43251">
        <ele>40</ele>
        <time>2014-05-15T09:45:40Z</time>
      </trkpt>
      <trkpt lat="48.83992" lon="2.43251">
        <ele>40</ele>
        <time>2014-05-15T09:45:41Z</time>
      </trkpt>
      <trkpt lat="48.83991" lon="2.43251">
        <ele>40</ele>
        <time>2014-05-15T09:45:42Z</time>
      </trkpt>
      <trkpt lat="48.83991" lon="2.43251">
        <ele>41</ele>
        <time>2014-05-15T09:45:43Z</time>
      </trkpt>
      <trkpt lat="48.83992" lon="2.43251">
        <ele>42</ele>
        <time>2014-05-15T09:45:44Z</time>
      </trkpt>
      <trkpt lat="48.83992" lon="2.43251">
        <ele>39</ele>
        <time>2014-05-15T09:45:45Z</time>
      </trkpt>
      <trkpt lat="48.83992" lon="2.43251">
        <ele>39</ele>
        <time>2014-05-15T09:45:46Z</time>
      </trkpt>
      <trkpt lat="48.83992" lon="2.4325">
        <ele>39</ele>
        <time>2014-05-15T09:45:47Z</time>
      </trkpt>
      <trkpt lat="48.83992" lon="2.4325">
        <ele>39</ele>
        <time>2014-05-15T09:45:48Z</time>
      </trkpt>
      <trkpt lat="48.83992" lon="2.43249">
        <ele>38</ele>
        <time>2014-05-15T09:45:49Z</time>
      </trkpt>
      <trkpt lat="48.83992" lon="2.43248">
        <ele>38</ele>
        <time>2014-05-15T09:45:50Z</time>
      </trkpt>
      <trkpt lat="48.83992" lon="2.43247">
        <ele>38</ele>
        <time>2014-05-15T09:45:51Z</time>
      </trkpt>
      <trkpt lat="48.83992" lon="2.43246">
        <ele>38</ele>
        <time>2014-05-15T09:45:52Z</time>
      </trkpt>
      <trkpt lat="48.83991" lon="2.43245">
        <ele>39</ele>
        <time>2014-05-15T09:45:53Z</time>
      </trkpt>
      <trkpt lat="48.83991" lon="2.43245">
        <ele>39</ele>
        <time>2014-05-15T09:45:54Z</time>
      </trkpt>
      <trkpt lat="48.83991" lon="2.43244">
        <ele>39</ele>
        <time>2014-05-15T09:45:55Z</time>
      </trkpt>
      <trkpt lat="48.83991" lon="2.43244">
        <ele>39</ele>
        <time>2014-05-15T09:45:56Z</time>
      </trkpt>
      <trkpt lat="48.83991" lon="2.43244">
        <ele>39</ele>
        <time>2014-05-15T09:45:57Z</time>
      </trkpt>
      <trkpt lat="48.8399" lon="2.43244">
        <ele>38</ele>
        <time>2014-05-15T09:45:58Z</time>
      </trkpt>
      <trkpt lat="48.83991" lon="2.43243">
        <ele>38</ele>
        <time>2014-05-15T09:45:59Z</time>
      </trkpt>
      <trkpt lat="48.83991" lon="2.43243">
        <ele>38</ele>
        <time>2014-05-15T09:46:00Z</time>
      </trkpt>
      <trkpt lat="48.83991" lon="2.43243">
        <ele>39</ele>
        <time>2014-05-15T09:46:01Z</time>
      </trkpt>
      <trkpt lat="48.83991" lon="2.43243">
        <ele>39</ele>
        <time>2014-05-15T09:46:02Z</time>
      </trkpt>
      <trkpt lat="48.83991" lon="2.43243">
        <ele>38</ele>
        <time>2014-05-15T09:46:03Z</time>
      </trkpt>
      <trkpt lat="48.83991" lon="2.43243">
        <ele>38</ele>
        <time>2014-05-15T09:46:04Z</time>
      </trkpt>
      <trkpt lat="48.83992" lon="2.43243">
        <ele>39</ele>
        <time>2014-05-15T09:46:05Z</time>
      </trkpt>
      <trkpt lat="48.83992" lon="2.43242">
        <ele>39</ele>
        <time>2014-05-15T09:46:06Z</time>
      </trkpt>
      <trkpt lat="48.83992" lon="2.43242">
        <ele>39</ele>
        <time>2014-05-15T09:46:07Z</time>
      </trkpt>
      <trkpt lat="48.83993" lon="2.43242">
        <ele>39</ele>
        <time>2014-05-15T09:46:08Z</time>
      </trkpt>
      <trkpt lat="48.83993" lon="2.43241">
        <ele>39</ele>
        <time>2014-05-15T09:46:09Z</time>
      </trkpt>
      <trkpt lat="48.83993" lon="2.4324">
        <ele>39</ele>
        <time>2014-05-15T09:46:10Z</time>
      </trkpt>
      <trkpt lat="48.83994" lon="2.43239">
        <ele>39</ele>
        <time>2014-05-15T09:46:11Z</time>
      </trkpt>
      <trkpt lat="48.83994" lon="2.43238">
        <ele>39</ele>
        <time>2014-05-15T09:46:12Z</time>
      </trkpt>
      <trkpt lat="48.83994" lon="2.43237">
        <ele>39</ele>
        <time>2014-05-15T09:46:13Z</time>
      </trkpt>
      <trkpt lat="48.83994" lon="2.43235">
        <ele>39</ele>
        <time>2014-05-15T09:46:14Z</time>
      </trkpt>
      <trkpt lat="48.83996" lon="2.43234">
        <ele>38</ele>
        <time>2014-05-15T09:46:15Z</time>
      </trkpt>
      <trkpt lat="48.83997" lon="2.43234">
        <ele>38</ele>
        <time>2014-05-15T09:46:16Z</time>
      </trkpt>
      <trkpt lat="48.84" lon="2.43234">
        <ele>39</ele>
        <time>2014-05-15T09:46:17Z</time>
      </trkpt>
      <trkpt lat="48.84001" lon="2.43234">
        <ele>39</ele>
        <time>2014-05-15T09:46:18Z</time>
      </trkpt>
      <trkpt lat="48.84004" lon="2.43234">
        <ele>38</ele>
        <time>2014-05-15T09:46:19Z</time>
      </trkpt>
      <trkpt lat="48.84005" lon="2.43234">
        <ele>38</ele>
        <time>2014-05-15T09:46:20Z</time>
      </trkpt>
      <trkpt lat="48.84007" lon="2.43234">
        <ele>38</ele>
        <time>2014-05-15T09:46:21Z</time>
      </trkpt>
      <trkpt lat="48.84008" lon="2.43233">
        <ele>38</ele>
        <time>2014-05-15T09:46:22Z</time>
      </trkpt>
      <trkpt lat="48.8401" lon="2.43231">
        <ele>37</ele>
        <time>2014-05-15T09:46:23Z</time>
      </trkpt>
      <trkpt lat="48.8401" lon="2.4323">
        <ele>37</ele>
        <time>2014-05-15T09:46:24Z</time>
      </trkpt>
      <trkpt lat="48.84012" lon="2.43228">
        <ele>38</ele>
        <time>2014-05-15T09:46:25Z</time>
      </trkpt>
      <trkpt lat="48.84014" lon="2.43226">
        <ele>38</ele>
        <time>2014-05-15T09:46:26Z</time>
      </trkpt>
      <trkpt lat="48.84015" lon="2.43224">
        <ele>39</ele>
        <time>2014-05-15T09:46:27Z</time>
      </trkpt>
      <trkpt lat="48.84016" lon="2.43222">
        <ele>38</ele>
        <time>2014-05-15T09:46:28Z</time>
      </trkpt>
      <trkpt lat="48.84016" lon="2.43221">
        <ele>38</ele>
        <time>2014-05-15T09:46:29Z</time>
      </trkpt>
      <trkpt lat="48.84017" lon="2.43218">
        <ele>38</ele>
        <time>2014-05-15T09:46:30Z</time>
      </trkpt>
      <trkpt lat="48.84017" lon="2.43215">
        <ele>38</ele>
        <time>2014-05-15T09:46:31Z</time>
      </trkpt>
      <trkpt lat="48.84018" lon="2.43213">
        <ele>38</ele>
        <time>2014-05-15T09:46:32Z</time>
      </trkpt>
      <trkpt lat="48.84018" lon="2.43212">
        <ele>38</ele>
        <time>2014-05-15T09:46:33Z</time>
      </trkpt>
      <trkpt lat="48.84019" lon="2.43209">
        <ele>40</ele>
        <time>2014-05-15T09:46:34Z</time>
      </trkpt>
      <trkpt lat="48.8402" lon="2.43208">
        <ele>40</ele>
        <time>2014-05-15T09:46:35Z</time>
      </trkpt>
      <trkpt lat="48.84021" lon="2.43206">
        <ele>40</ele>
        <time>2014-05-15T09:46:36Z</time>
      </trkpt>
      <trkpt lat="48.84022" lon="2.43204">
        <ele>40</ele>
        <time>2014-05-15T09:46:37Z</time>
      </trkpt>
      <trkpt lat="48.84023" lon="2.43203">
        <ele>42</ele>
        <time>2014-05-15T09:46:38Z</time>
      </trkpt>
      <trkpt lat="48.84025" lon="2.43202">
        <ele>42</ele>
        <time>2014-05-15T09:46:39Z</time>
      </trkpt>
      <trkpt lat="48.84026" lon="2.43201">
        <ele>41</ele>
        <time>2014-05-15T09:46:40Z</time>
      </trkpt>
      <trkpt lat="48.84027" lon="2.432">
        <ele>42</ele>
        <time>2014-05-15T09:46:41Z</time>
      </trkpt>
      <trkpt lat="48.84028" lon="2.43199">
        <ele>42</ele>
        <time>2014-05-15T09:46:42Z</time>
      </trkpt>
      <trkpt lat="48.8403" lon="2.43197">
        <ele>39</ele>
        <time>2014-05-15T09:46:43Z</time>
      </trkpt>
      <trkpt lat="48.84031" lon="2.43195">
        <ele>39</ele>
        <time>2014-05-15T09:46:44Z</time>
      </trkpt>
      <trkpt lat="48.84032" lon="2.43194">
        <ele>41</ele>
        <time>2014-05-15T09:46:45Z</time>
      </trkpt>
      <trkpt lat="48.84033" lon="2.43192">
        <ele>41</ele>
        <time>2014-05-15T09:46:46Z</time>
      </trkpt>
      <trkpt lat="48.84034" lon="2.43191">
        <ele>41</ele>
        <time>2014-05-15T09:46:47Z</time>
      </trkpt>
      <trkpt lat="48.84035" lon="2.4319">
        <ele>46</ele>
        <time>2014-05-15T09:46:48Z</time>
      </trkpt>
      <trkpt lat="48.84036" lon="2.43188">
        <ele>47</ele>
        <time>2014-05-15T09:46:49Z</time>
      </trkpt>
      <trkpt lat="48.84037" lon="2.43187">
        <ele>46</ele>
        <time>2014-05-15T09:46:50Z</time>
      </trkpt>
      <trkpt lat="48.84037" lon="2.43185">
        <ele>46</ele>
        <time>2014-05-15T09:46:51Z</time>
      </trkpt>
      <trkpt lat="48.84038" lon="2.43183">
        <ele>45</ele>
        <time>2014-05-15T09:46:52Z</time>
      </trkpt>
      <trkpt lat="48.84038" lon="2.43181">
        <ele>44</ele>
        <time>2014-05-15T09:46:53Z</time>
      </trkpt>
      <trkpt lat="48.84039" lon="2.4318">
        <ele>44</ele>
        <time>2014-05-15T09:46:54Z</time>
      </trkpt>
      <trkpt lat="48.84039" lon="2.43177">
        <ele>45</ele>
        <time>2014-05-15T09:46:55Z</time>
      </trkpt>
      <trkpt lat="48.84039" lon="2.43175">
        <ele>44</ele>
        <time>2014-05-15T09:46:56Z</time>
      </trkpt>
      <trkpt lat="48.84039" lon="2.43173">
        <ele>44</ele>
        <time>2014-05-15T09:46:57Z</time>
      </trkpt>
      <trkpt lat="48.8404" lon="2.43171">
        <ele>42</ele>
        <time>2014-05-15T09:46:58Z</time>
      </trkpt>
      <trkpt lat="48.8404" lon="2.43168">
        <ele>42</ele>
        <time>2014-05-15T09:46:59Z</time>
      </trkpt>
      <trkpt lat="48.8404" lon="2.43167">
        <ele>42</ele>
        <time>2014-05-15T09:47:00Z</time>
      </trkpt>
      <trkpt lat="48.8404" lon="2.43164">
        <ele>43</ele>
        <time>2014-05-15T09:47:01Z</time>
      </trkpt>
      <trkpt lat="48.8404" lon="2.43162">
        <ele>43</ele>
        <time>2014-05-15T09:47:02Z</time>
      </trkpt>
      <trkpt lat="48.8404" lon="2.43159">
        <ele>43</ele>
        <time>2014-05-15T09:47:03Z</time>
      </trkpt>
      <trkpt lat="48.8404" lon="2.43157">
        <ele>43</ele>
        <time>2014-05-15T09:47:04Z</time>
      </trkpt>
      <trkpt lat="48.8404" lon="2.43154">
        <ele>43</ele>
        <time>2014-05-15T09:47:05Z</time>
      </trkpt>
      <trkpt lat="48.8404" lon="2.43153">
        <ele>43</ele>
        <time>2014-05-15T09:47:06Z</time>
      </trkpt>
      <trkpt lat="48.8404" lon="2.4315">
        <ele>43</ele>
        <time>2014-05-15T09:47:07Z</time>
      </trkpt>
      <trkpt lat="48.8404" lon="2.43148">
        <ele>43</ele>
        <time>2014-05-15T09:47:08Z</time>
      </trkpt>
      <trkpt lat="48.8404" lon="2.43146">
        <ele>43</ele>
        <time>2014-05-15T09:47:09Z</time>
      </trkpt>
      <trkpt lat="48.8404" lon="2.43144">
        <ele>43</ele>
        <time>2014-05-15T09:47:10Z</time>
      </trkpt>
      <trkpt lat="48.8404" lon="2.43142">
        <ele>43</ele>
        <time>2014-05-15T09:47:11Z</time>
      </trkpt>
      <trkpt lat="48.8404" lon="2.4314">
        <ele>43</ele>
        <time>2014-05-15T09:47:12Z</time>
      </trkpt>
      <trkpt lat="48.8404" lon="2.43139">
        <ele>42</ele>
        <time>2014-05-15T09:47:13Z</time>
      </trkpt>
      <trkpt lat="48.8404" lon="2.43137">
        <ele>42</ele>
        <time>2014-05-15T09:47:14Z</time>
      </trkpt>
      <trkpt lat="48.84039" lon="2.43136">
        <ele>42</ele>
        <time>2014-05-15T09:47:15Z</time>
      </trkpt>
      <trkpt lat="48.84039" lon="2.43135">
        <ele>42</ele>
        <time>2014-05-15T09:47:16Z</time>
      </trkpt>
      <trkpt lat="48.84039" lon="2.43134">
        <ele>42</ele>
        <time>2014-05-15T09:47:17Z</time>
      </trkpt>
      <trkpt lat="48.84039" lon="2.43132">
        <ele>42</ele>
        <time>2014-05-15T09:47:18Z</time>
      </trkpt>
      <trkpt lat="48.84039" lon="2.43131">
        <ele>42</ele>
        <time>2014-05-15T09:47:19Z</time>
      </trkpt>
      <trkpt lat="48.84039" lon="2.43129">
        <ele>43</ele>
        <time>2014-05-15T09:47:20Z</time>
      </trkpt>
      <trkpt lat="48.8404" lon="2.43128">
        <ele>42</ele>
        <time>2014-05-15T09:47:21Z</time>
      </trkpt>
      <trkpt lat="48.8404" lon="2.43126">
        <ele>43</ele>
        <time>2014-05-15T09:47:22Z</time>
      </trkpt>
      <trkpt lat="48.8404" lon="2.43125">
        <ele>43</ele>
        <time>2014-05-15T09:47:23Z</time>
      </trkpt>
      <trkpt lat="48.8404" lon="2.43123">
        <ele>43</ele>
        <time>2014-05-15T09:47:24Z</time>
      </trkpt>
      <trkpt lat="48.8404" lon="2.43121">
        <ele>43</ele>
        <time>2014-05-15T09:47:25Z</time>
      </trkpt>
      <trkpt lat="48.8404" lon="2.43119">
        <ele>43</ele>
        <time>2014-05-15T09:47:26Z</time>
      </trkpt>
      <trkpt lat="48.8404" lon="2.43118">
        <ele>43</ele>
        <time>2014-05-15T09:47:27Z</time>
      </trkpt>
      <trkpt lat="48.8404" lon="2.43116">
        <ele>44</ele>
        <time>2014-05-15T09:47:28Z</time>
      </trkpt>
      <trkpt lat="48.8404" lon="2.43114">
        <ele>43</ele>
        <time>2014-05-15T09:47:29Z</time>
      </trkpt>
      <trkpt lat="48.8404" lon="2.43112">
        <ele>43</ele>
        <time>2014-05-15T09:47:30Z</time>
      </trkpt>
      <trkpt lat="48.8404" lon="2.43111">
        <ele>43</ele>
        <time>2014-05-15T09:47:31Z</time>
      </trkpt>
      <trkpt lat="48.84042" lon="2.4311">
        <ele>43</ele>
        <time>2014-05-15T09:47:32Z</time>
      </trkpt>
      <trkpt lat="48.84042" lon="2.43108">
        <ele>43</ele>
        <time>2014-05-15T09:47:33Z</time>
      </trkpt>
      <trkpt lat="48.84043" lon="2.43107">
        <ele>43</ele>
        <time>2014-05-15T09:47:34Z</time>
      </trkpt>
      <trkpt lat="48.84044" lon="2.43105">
        <ele>43</ele>
        <time>2014-05-15T09:47:35Z</time>
      </trkpt>
      <trkpt lat="48.84043" lon="2.43103">
        <ele>44</ele>
        <time>2014-05-15T09:47:36Z</time>
      </trkpt>
      <trkpt lat="48.84043" lon="2.43101">
        <ele>44</ele>
        <time>2014-05-15T09:47:37Z</time>
      </trkpt>
      <trkpt lat="48.84043" lon="2.43099">
        <ele>44</ele>
        <time>2014-05-15T09:47:38Z</time>
      </trkpt>
      <trkpt lat="48.84043" lon="2.43097">
        <ele>43</ele>
        <time>2014-05-15T09:47:39Z</time>
      </trkpt>
      <trkpt lat="48.84043" lon="2.43095">
        <ele>43</ele>
        <time>2014-05-15T09:47:40Z</time>
      </trkpt>
      <trkpt lat="48.84043" lon="2.43092">
        <ele>41</ele>
        <time>2014-05-15T09:47:41Z</time>
      </trkpt>
      <trkpt lat="48.84043" lon="2.43088">
        <ele>41</ele>
        <time>2014-05-15T09:47:42Z</time>
      </trkpt>
      <trkpt lat="48.84043" lon="2.43085">
        <ele>37</ele>
        <time>2014-05-15T09:47:43Z</time>
      </trkpt>
      <trkpt lat="48.84043" lon="2.43082">
        <ele>36</ele>
        <time>2014-05-15T09:47:44Z</time>
      </trkpt>
      <trkpt lat="48.84044" lon="2.4308">
        <ele>36</ele>
        <time>2014-05-15T09:47:45Z</time>
      </trkpt>
      <trkpt lat="48.84044" lon="2.43077">
        <ele>37</ele>
        <time>2014-05-15T09:47:46Z</time>
      </trkpt>
      <trkpt lat="48.84044" lon="2.43075">
        <ele>37</ele>
        <time>2014-05-15T09:47:47Z</time>
      </trkpt>
      <trkpt lat="48.84044" lon="2.43071">
        <ele>37</ele>
        <time>2014-05-15T09:47:48Z</time>
      </trkpt>
      <trkpt lat="48.84044" lon="2.43068">
        <ele>37</ele>
        <time>2014-05-15T09:47:49Z</time>
      </trkpt>
      <trkpt lat="48.84044" lon="2.43066">
        <ele>36</ele>
        <time>2014-05-15T09:47:50Z</time>
      </trkpt>
      <trkpt lat="48.84044" lon="2.43064">
        <ele>35</ele>
        <time>2014-05-15T09:47:51Z</time>
      </trkpt>
      <trkpt lat="48.84045" lon="2.43061">
        <ele>35</ele>
        <time>2014-05-15T09:47:52Z</time>
      </trkpt>
      <trkpt lat="48.84045" lon="2.43059">
        <ele>36</ele>
        <time>2014-05-15T09:47:53Z</time>
      </trkpt>
      <trkpt lat="48.84046" lon="2.43057">
        <ele>35</ele>
        <time>2014-05-15T09:47:54Z</time>
      </trkpt>
      <trkpt lat="48.84046" lon="2.43054">
        <ele>36</ele>
        <time>2014-05-15T09:47:55Z</time>
      </trkpt>
      <trkpt lat="48.84046" lon="2.43052">
        <ele>36</ele>
        <time>2014-05-15T09:47:56Z</time>
      </trkpt>
      <trkpt lat="48.84046" lon="2.43051">
        <ele>35</ele>
        <time>2014-05-15T09:47:57Z</time>
      </trkpt>
      <trkpt lat="48.84046" lon="2.43049">
        <ele>35</ele>
        <time>2014-05-15T09:47:58Z</time>
      </trkpt>
      <trkpt lat="48.84046" lon="2.43047">
        <ele>33</ele>
        <time>2014-05-15T09:47:59Z</time>
      </trkpt>
      <trkpt lat="48.84046" lon="2.43046">
        <ele>31</ele>
        <time>2014-05-15T09:48:00Z</time>
      </trkpt>
      <trkpt lat="48.84046" lon="2.43044">
        <ele>32</ele>
        <time>2014-05-15T09:48:01Z</time>
      </trkpt>
      <trkpt lat="48.84046" lon="2.43042">
        <ele>32</ele>
        <time>2014-05-15T09:48:02Z</time>
      </trkpt>
      <trkpt lat="48.84046" lon="2.43041">
        <ele>32</ele>
        <time>2014-05-15T09:48:03Z</time>
      </trkpt>
      <trkpt lat="48.84046" lon="2.43039">
        <ele>32</ele>
        <time>2014-05-15T09:48:04Z</time>
      </trkpt>
      <trkpt lat="48.84046" lon="2.43037">
        <ele>32</ele>
        <time>2014-05-15T09:48:05Z</time>
      </trkpt>
      <trkpt lat="48.84047" lon="2.43034">
        <ele>36</ele>
        <time>2014-05-15T09:48:06Z</time>
      </trkpt>
      <trkpt lat="48.84047" lon="2.43033">
        <ele>36</ele>
        <time>2014-05-15T09:48:07Z</time>
      </trkpt>
      <trkpt lat="48.84047" lon="2.4303">
        <ele>33</ele>
        <time>2014-05-15T09:48:08Z</time>
      </trkpt>
      <trkpt lat="48.84047" lon="2.43029">
        <ele>33</ele>
        <time>2014-05-15T09:48:09Z</time>
      </trkpt>
      <trkpt lat="48.84047" lon="2.43027">
        <ele>32</ele>
        <time>2014-05-15T09:48:10Z</time>
      </trkpt>
      <trkpt lat="48.84048" lon="2.43026">
        <ele>34</ele>
        <time>2014-05-15T09:48:11Z</time>
      </trkpt>
      <trkpt lat="48.84048" lon="2.43025">
        <ele>35</ele>
        <time>2014-05-15T09:48:12Z</time>
      </trkpt>
      <trkpt lat="48.84049" lon="2.43023">
        <ele>34</ele>
        <time>2014-05-15T09:48:13Z</time>
      </trkpt>
      <trkpt lat="48.84049" lon="2.43022">
        <ele>33</ele>
        <time>2014-05-15T09:48:14Z</time>
      </trkpt>
      <trkpt lat="48.8405" lon="2.4302">
        <ele>32</ele>
        <time>2014-05-15T09:48:15Z</time>
      </trkpt>
      <trkpt lat="48.8405" lon="2.43017">
        <ele>34</ele>
        <time>2014-05-15T09:48:16Z</time>
      </trkpt>
      <trkpt lat="48.84051" lon="2.43015">
        <ele>34</ele>
        <time>2014-05-15T09:48:17Z</time>
      </trkpt>
      <trkpt lat="48.84051" lon="2.43011">
        <ele>34</ele>
        <time>2014-05-15T09:48:18Z</time>
      </trkpt>
      <trkpt lat="48.84051" lon="2.43007">
        <ele>34</ele>
        <time>2014-05-15T09:48:19Z</time>
      </trkpt>
      <trkpt lat="48.84051" lon="2.43004">
        <ele>35</ele>
        <time>2014-05-15T09:48:20Z</time>
      </trkpt>
      <trkpt lat="48.84051" lon="2.43">
        <ele>36</ele>
        <time>2014-05-15T09:48:21Z</time>
      </trkpt>
      <trkpt lat="48.84052" lon="2.42997">
        <ele>36</ele>
        <time>2014-05-15T09:48:22Z</time>
      </trkpt>
      <trkpt lat="48.84052" lon="2.42994">
        <ele>36</ele>
        <time>2014-05-15T09:48:23Z</time>
      </trkpt>
      <trkpt lat="48.84052" lon="2.42991">
        <ele>35</ele>
        <time>2014-05-15T09:48:24Z</time>
      </trkpt>
      <trkpt lat="48.84052" lon="2.42988">
        <ele>34</ele>
        <time>2014-05-15T09:48:25Z</time>
      </trkpt>
      <trkpt lat="48.84052" lon="2.42985">
        <ele>36</ele>
        <time>2014-05-15T09:48:26Z</time>
      </trkpt>
      <trkpt lat="48.84053" lon="2.42982">
        <ele>36</ele>
        <time>2014-05-15T09:48:27Z</time>
      </trkpt>
      <trkpt lat="48.84053" lon="2.4298">
        <ele>36</ele>
        <time>2014-05-15T09:48:28Z</time>
      </trkpt>
      <trkpt lat="48.84052" lon="2.42977">
        <ele>36</ele>
        <time>2014-05-15T09:48:29Z</time>
      </trkpt>
      <trkpt lat="48.84053" lon="2.42975">
        <ele>36</ele>
        <time>2014-05-15T09:48:30Z</time>
      </trkpt>
      <trkpt lat="48.84053" lon="2.42973">
        <ele>36</ele>
        <time>2014-05-15T09:48:31Z</time>
      </trkpt>
      <trkpt lat="48.84053" lon="2.4297">
        <ele>35</ele>
        <time>2014-05-15T09:48:32Z</time>
      </trkpt>
      <trkpt lat="48.84053" lon="2.42968">
        <ele>36</ele>
        <time>2014-05-15T09:48:33Z</time>
      </trkpt>
      <trkpt lat="48.84053" lon="2.42966">
        <ele>35</ele>
        <time>2014-05-15T09:48:34Z</time>
      </trkpt>
      <trkpt lat="48.84054" lon="2.42963">
        <ele>36</ele>
        <time>2014-05-15T09:48:35Z</time>
      </trkpt>
      <trkpt lat="48.84054" lon="2.4296">
        <ele>37</ele>
        <time>2014-05-15T09:48:36Z</time>
      </trkpt>
      <trkpt lat="48.84054" lon="2.42957">
        <ele>37</ele>
        <time>2014-05-15T09:48:37Z</time>
      </trkpt>
      <trkpt lat="48.84055" lon="2.42954">
        <ele>36</ele>
        <time>2014-05-15T09:48:38Z</time>
      </trkpt>
      <trkpt lat="48.84055" lon="2.42952">
        <ele>36</ele>
        <time>2014-05-15T09:48:39Z</time>
      </trkpt>
      <trkpt lat="48.84055" lon="2.4295">
        <ele>37</ele>
        <time>2014-05-15T09:48:40Z</time>
      </trkpt>
      <trkpt lat="48.84056" lon="2.42947">
        <ele>37</ele>
        <time>2014-05-15T09:48:41Z</time>
      </trkpt>
      <trkpt lat="48.84056" lon="2.42945">
        <ele>37</ele>
        <time>2014-05-15T09:48:42Z</time>
      </trkpt>
      <trkpt lat="48.84055" lon="2.42943">
        <ele>36</ele>
        <time>2014-05-15T09:48:43Z</time>
      </trkpt>
      <trkpt lat="48.84055" lon="2.42941">
        <ele>36</ele>
        <time>2014-05-15T09:48:44Z</time>
      </trkpt>
      <trkpt lat="48.84056" lon="2.42939">
        <ele>34</ele>
        <time>2014-05-15T09:48:45Z</time>
      </trkpt>
      <trkpt lat="48.84056" lon="2.42938">
        <ele>32</ele>
        <time>2014-05-15T09:48:46Z</time>
      </trkpt>
      <trkpt lat="48.84056" lon="2.42936">
        <ele>33</ele>
        <time>2014-05-15T09:48:47Z</time>
      </trkpt>
      <trkpt lat="48.84056" lon="2.42934">
        <ele>32</ele>
        <time>2014-05-15T09:48:48Z</time>
      </trkpt>
      <trkpt lat="48.84056" lon="2.42932">
        <ele>32</ele>
        <time>2014-05-15T09:48:49Z</time>
      </trkpt>
      <trkpt lat="48.84057" lon="2.42931">
        <ele>31</ele>
        <time>2014-05-15T09:48:50Z</time>
      </trkpt>
      <trkpt lat="48.84057" lon="2.42929">
        <ele>31</ele>
        <time>2014-05-15T09:48:51Z</time>
      </trkpt>
      <trkpt lat="48.84057" lon="2.42927">
        <ele>32</ele>
        <time>2014-05-15T09:48:52Z</time>
      </trkpt>
      <trkpt lat="48.84058" lon="2.42926">
        <ele>33</ele>
        <time>2014-05-15T09:48:53Z</time>
      </trkpt>
      <trkpt lat="48.84058" lon="2.42924">
        <ele>32</ele>
        <time>2014-05-15T09:48:54Z</time>
      </trkpt>
      <trkpt lat="48.84058" lon="2.42922">
        <ele>33</ele>
        <time>2014-05-15T09:48:55Z</time>
      </trkpt>
      <trkpt lat="48.84058" lon="2.4292">
        <ele>34</ele>
        <time>2014-05-15T09:48:56Z</time>
      </trkpt>
      <trkpt lat="48.84059" lon="2.42918">
        <ele>34</ele>
        <time>2014-05-15T09:48:57Z</time>
      </trkpt>
      <trkpt lat="48.84059" lon="2.42915">
        <ele>35</ele>
        <time>2014-05-15T09:48:58Z</time>
      </trkpt>
      <trkpt lat="48.84059" lon="2.42912">
        <ele>35</ele>
        <time>2014-05-15T09:48:59Z</time>
      </trkpt>
      <trkpt lat="48.84059" lon="2.42909">
        <ele>34</ele>
        <time>2014-05-15T09:49:00Z</time>
      </trkpt>
      <trkpt lat="48.8406" lon="2.42907">
        <ele>34</ele>
        <time>2014-05-15T09:49:01Z</time>
      </trkpt>
      <trkpt lat="48.8406" lon="2.42904">
        <ele>36</ele>
        <time>2014-05-15T09:49:02Z</time>
      </trkpt>
      <trkpt lat="48.8406" lon="2.42901">
        <ele>37</ele>
        <time>2014-05-15T09:49:03Z</time>
      </trkpt>
      <trkpt lat="48.84061" lon="2.42898">
        <ele>38</ele>
        <time>2014-05-15T09:49:04Z</time>
      </trkpt>
      <trkpt lat="48.84061" lon="2.42896">
        <ele>38</ele>
        <time>2014-05-15T09:49:05Z</time>
      </trkpt>
      <trkpt lat="48.84062" lon="2.42894">
        <ele>37</ele>
        <time>2014-05-15T09:49:06Z</time>
      </trkpt>
      <trkpt lat="48.84062" lon="2.42892">
        <ele>39</ele>
        <time>2014-05-15T09:49:07Z</time>
      </trkpt>
      <trkpt lat="48.84062" lon="2.4289">
        <ele>38</ele>
        <time>2014-05-15T09:49:08Z</time>
      </trkpt>
      <trkpt lat="48.84063" lon="2.42888">
        <ele>38</ele>
        <time>2014-05-15T09:49:09Z</time>
      </trkpt>
      <trkpt lat="48.84063" lon="2.42885">
        <ele>38</ele>
        <time>2014-05-15T09:49:10Z</time>
      </trkpt>
      <trkpt lat="48.84063" lon="2.42883">
        <ele>39</ele>
        <time>2014-05-15T09:49:11Z</time>
      </trkpt>
      <trkpt lat="48.84062" lon="2.42881">
        <ele>38</ele>
        <time>2014-05-15T09:49:12Z</time>
      </trkpt>
      <trkpt lat="48.84062" lon="2.42878">
        <ele>37</ele>
        <time>2014-05-15T09:49:13Z</time>
      </trkpt>
      <trkpt lat="48.84062" lon="2.42876">
        <ele>37</ele>
        <time>2014-05-15T09:49:14Z</time>
      </trkpt>
      <trkpt lat="48.84062" lon="2.42874">
        <ele>37</ele>
        <time>2014-05-15T09:49:15Z</time>
      </trkpt>
      <trkpt lat="48.84062" lon="2.42871">
        <ele>37</ele>
        <time>2014-05-15T09:49:16Z</time>
      </trkpt>
      <trkpt lat="48.84063" lon="2.42868">
        <ele>38</ele>
        <time>2014-05-15T09:49:17Z</time>
      </trkpt>
      <trkpt lat="48.84063" lon="2.42865">
        <ele>40</ele>
        <time>2014-05-15T09:49:18Z</time>
      </trkpt>
      <trkpt lat="48.84063" lon="2.42863">
        <ele>38</ele>
        <time>2014-05-15T09:49:19Z</time>
      </trkpt>
      <trkpt lat="48.84064" lon="2.4286">
        <ele>39</ele>
        <time>2014-05-15T09:49:20Z</time>
      </trkpt>
      <trkpt lat="48.84064" lon="2.42858">
        <ele>40</ele>
        <time>2014-05-15T09:49:21Z</time>
      </trkpt>
      <trkpt lat="48.84063" lon="2.42856">
        <ele>39</ele>
        <time>2014-05-15T09:49:22Z</time>
      </trkpt>
      <trkpt lat="48.84063" lon="2.42853">
        <ele>37</ele>
        <time>2014-05-15T09:49:23Z</time>
      </trkpt>
      <trkpt lat="48.84063" lon="2.42851">
        <ele>38</ele>
        <time>2014-05-15T09:49:24Z</time>
      </trkpt>
      <trkpt lat="48.84063" lon="2.42849">
        <ele>38</ele>
        <time>2014-05-15T09:49:25Z</time>
      </trkpt>
      <trkpt lat="48.84063" lon="2.42847">
        <ele>38</ele>
        <time>2014-05-15T09:49:26Z</time>
      </trkpt>
      <trkpt lat="48.84063" lon="2.42844">
        <ele>38</ele>
        <time>2014-05-15T09:49:27Z</time>
      </trkpt>
      <trkpt lat="48.84063" lon="2.42842">
        <ele>36</ele>
        <time>2014-05-15T09:49:28Z</time>
      </trkpt>
      <trkpt lat="48.84064" lon="2.42841">
        <ele>34</ele>
        <time>2014-05-15T09:49:29Z</time>
      </trkpt>
      <trkpt lat="48.84064" lon="2.4284">
        <ele>33</ele>
        <time>2014-05-15T09:49:30Z</time>
      </trkpt>
      <trkpt lat="48.84064" lon="2.42839">
        <ele>31</ele>
        <time>2014-05-15T09:49:31Z</time>
      </trkpt>
      <trkpt lat="48.84065" lon="2.42838">
        <ele>32</ele>
        <time>2014-05-15T09:49:32Z</time>
      </trkpt>
      <trkpt lat="48.84065" lon="2.42836">
        <ele>31</ele>
        <time>2014-05-15T09:49:33Z</time>
      </trkpt>
      <trkpt lat="48.84065" lon="2.42834">
        <ele>31</ele>
        <time>2014-05-15T09:49:34Z</time>
      </trkpt>
      <trkpt lat="48.84065" lon="2.42832">
        <ele>32</ele>
        <time>2014-05-15T09:49:35Z</time>
      </trkpt>
      <trkpt lat="48.84065" lon="2.4283">
        <ele>31</ele>
        <time>2014-05-15T09:49:36Z</time>
      </trkpt>
      <trkpt lat="48.84065" lon="2.42829">
        <ele>31</ele>
        <time>2014-05-15T09:49:37Z</time>
      </trkpt>
      <trkpt lat="48.84066" lon="2.42826">
        <ele>32</ele>
        <time>2014-05-15T09:49:38Z</time>
      </trkpt>
      <trkpt lat="48.84066" lon="2.42824">
        <ele>34</ele>
        <time>2014-05-15T09:49:39Z</time>
      </trkpt>
      <trkpt lat="48.84066" lon="2.42822">
        <ele>33</ele>
        <time>2014-05-15T09:49:40Z</time>
      </trkpt>
      <trkpt lat="48.84066" lon="2.4282">
        <ele>33</ele>
        <time>2014-05-15T09:49:41Z</time>
      </trkpt>
      <trkpt lat="48.84067" lon="2.42818">
        <ele>32</ele>
        <time>2014-05-15T09:49:42Z</time>
      </trkpt>
      <trkpt lat="48.84067" lon="2.42816">
        <ele>32</ele>
        <time>2014-05-15T09:49:43Z</time>
      </trkpt>
      <trkpt lat="48.84067" lon="2.42814">
        <ele>31</ele>
        <time>2014-05-15T09:49:44Z</time>
      </trkpt>
      <trkpt lat="48.84067" lon="2.42812">
        <ele>30</ele>
        <time>2014-05-15T09:49:45Z</time>
      </trkpt>
      <trkpt lat="48.84067" lon="2.4281">
        <ele>29</ele>
        <time>2014-05-15T09:49:46Z</time>
      </trkpt>
      <trkpt lat="48.84067" lon="2.42808">
        <ele>29</ele>
        <time>2014-05-15T09:49:47Z</time>
      </trkpt>
      <trkpt lat="48.84066" lon="2.42806">
        <ele>29</ele>
        <time>2014-05-15T09:49:48Z</time>
      </trkpt>
      <trkpt lat="48.84066" lon="2.42805">
        <ele>27</ele>
        <time>2014-05-15T09:49:49Z</time>
      </trkpt>
      <trkpt lat="48.84067" lon="2.42804">
        <ele>26</ele>
        <time>2014-05-15T09:49:50Z</time>
      </trkpt>
      <trkpt lat="48.84068" lon="2.42804">
        <ele>26</ele>
        <time>2014-05-15T09:49:51Z</time>
      </trkpt>
      <trkpt lat="48.84068" lon="2.42803">
        <ele>25</ele>
        <time>2014-05-15T09:49:52Z</time>
      </trkpt>
      <trkpt lat="48.84069" lon="2.42802">
        <ele>25</ele>
        <time>2014-05-15T09:49:53Z</time>
      </trkpt>
      <trkpt lat="48.84069" lon="2.42801">
        <ele>25</ele>
        <time>2014-05-15T09:49:54Z</time>
      </trkpt>
      <trkpt lat="48.8407" lon="2.428">
        <ele>23</ele>
        <time>2014-05-15T09:49:55Z</time>
      </trkpt>
      <trkpt lat="48.84071" lon="2.42799">
        <ele>22</ele>
        <time>2014-05-15T09:49:56Z</time>
      </trkpt>
      <trkpt lat="48.84071" lon="2.42799">
        <ele>22</ele>
        <time>2014-05-15T09:49:57Z</time>
      </trkpt>
      <trkpt lat="48.84072" lon="2.42799">
        <ele>23</ele>
        <time>2014-05-15T09:49:58Z</time>
      </trkpt>
      <trkpt lat="48.84071" lon="2.42798">
        <ele>24</ele>
        <time>2014-05-15T09:49:59Z</time>
      </trkpt>
      <trkpt lat="48.84071" lon="2.42798">
        <ele>24</ele>
        <time>2014-05-15T09:50:00Z</time>
      </trkpt>
      <trkpt lat="48.8407" lon="2.42797">
        <ele>25</ele>
        <time>2014-05-15T09:50:01Z</time>
      </trkpt>
      <trkpt lat="48.8407" lon="2.42797">
        <ele>25</ele>
        <time>2014-05-15T09:50:02Z</time>
      </trkpt>
      <trkpt lat="48.8407" lon="2.42797">
        <ele>26</ele>
        <time>2014-05-15T09:50:03Z</time>
      </trkpt>
      <trkpt lat="48.8407" lon="2.42796">
        <ele>26</ele>
        <time>2014-05-15T09:50:04Z</time>
      </trkpt>
      <trkpt lat="48.8407" lon="2.42796">
        <ele>26</ele>
        <time>2014-05-15T09:50:05Z</time>
      </trkpt>
      <trkpt lat="48.8407" lon="2.42796">
        <ele>26</ele>
        <time>2014-05-15T09:50:06Z</time>
      </trkpt>
      <trkpt lat="48.84069" lon="2.42796">
        <ele>26</ele>
        <time>2014-05-15T09:50:07Z</time>
      </trkpt>
      <trkpt lat="48.84069" lon="2.42796">
        <ele>26</ele>
        <time>2014-05-15T09:50:08Z</time>
      </trkpt>
      <trkpt lat="48.84069" lon="2.42796">
        <ele>26</ele>
        <time>2014-05-15T09:50:09Z</time>
      </trkpt>
      <trkpt lat="48.84068" lon="2.42795">
        <ele>26</ele>
        <time>2014-05-15T09:50:10Z</time>
      </trkpt>
      <trkpt lat="48.84068" lon="2.42795">
        <ele>26</ele>
        <time>2014-05-15T09:50:11Z</time>
      </trkpt>
      <trkpt lat="48.84068" lon="2.42795">
        <ele>26</ele>
        <time>2014-05-15T09:50:12Z</time>
      </trkpt>
      <trkpt lat="48.84068" lon="2.42795">
        <ele>26</ele>
        <time>2014-05-15T09:50:13Z</time>
      </trkpt>
      <trkpt lat="48.84068" lon="2.42794">
        <ele>26</ele>
        <time>2014-05-15T09:50:14Z</time>
      </trkpt>
      <trkpt lat="48.84068" lon="2.42793">
        <ele>26</ele>
        <time>2014-05-15T09:50:15Z</time>
      </trkpt>
      <trkpt lat="48.84067" lon="2.42792">
        <ele>27</ele>
        <time>2014-05-15T09:50:16Z</time>
      </trkpt>
      <trkpt lat="48.84067" lon="2.4279">
        <ele>27</ele>
        <time>2014-05-15T09:50:17Z</time>
      </trkpt>
      <trkpt lat="48.84067" lon="2.42789">
        <ele>27</ele>
        <time>2014-05-15T09:50:18Z</time>
      </trkpt>
      <trkpt lat="48.84067" lon="2.42787">
        <ele>26</ele>
        <time>2014-05-15T09:50:19Z</time>
      </trkpt>
      <trkpt lat="48.84066" lon="2.42786">
        <ele>24</ele>
        <time>2014-05-15T09:50:20Z</time>
      </trkpt>
      <trkpt lat="48.84065" lon="2.42786">
        <ele>24</ele>
        <time>2014-05-15T09:50:21Z</time>
      </trkpt>
      <trkpt lat="48.84064" lon="2.42786">
        <ele>24</ele>
        <time>2014-05-15T09:50:22Z</time>
      </trkpt>
      <trkpt lat="48.84063" lon="2.42786">
        <ele>23</ele>
        <time>2014-05-15T09:50:23Z</time>
      </trkpt>
      <trkpt lat="48.84062" lon="2.42785">
        <ele>30</ele>
        <time>2014-05-15T09:50:24Z</time>
      </trkpt>
      <trkpt lat="48.84061" lon="2.42784">
        <ele>29</ele>
        <time>2014-05-15T09:50:25Z</time>
      </trkpt>
      <trkpt lat="48.8406" lon="2.42783">
        <ele>29</ele>
        <time>2014-05-15T09:50:26Z</time>
      </trkpt>
      <trkpt lat="48.84058" lon="2.42781">
        <ele>30</ele>
        <time>2014-05-15T09:50:27Z</time>
      </trkpt>
      <trkpt lat="48.84057" lon="2.42779">
        <ele>29</ele>
        <time>2014-05-15T09:50:28Z</time>
      </trkpt>
      <trkpt lat="48.84056" lon="2.42778">
        <ele>29</ele>
        <time>2014-05-15T09:50:29Z</time>
      </trkpt>
      <trkpt lat="48.84054" lon="2.42777">
        <ele>29</ele>
        <time>2014-05-15T09:50:30Z</time>
      </trkpt>
      <trkpt lat="48.84053" lon="2.42776">
        <ele>30</ele>
        <time>2014-05-15T09:50:31Z</time>
      </trkpt>
      <trkpt lat="48.84052" lon="2.42776">
        <ele>30</ele>
        <time>2014-05-15T09:50:32Z</time>
      </trkpt>
      <trkpt lat="48.84051" lon="2.42774">
        <ele>31</ele>
        <time>2014-05-15T09:50:33Z</time>
      </trkpt>
      <trkpt lat="48.8405" lon="2.42773">
        <ele>31</ele>
        <time>2014-05-15T09:50:34Z</time>
      </trkpt>
      <trkpt lat="48.84049" lon="2.42772">
        <ele>31</ele>
        <time>2014-05-15T09:50:35Z</time>
      </trkpt>
      <trkpt lat="48.84049" lon="2.4277">
        <ele>31</ele>
        <time>2014-05-15T09:50:36Z</time>
      </trkpt>
      <trkpt lat="48.84048" lon="2.42769">
        <ele>31</ele>
        <time>2014-05-15T09:50:37Z</time>
      </trkpt>
      <trkpt lat="48.84047" lon="2.42768">
        <ele>30</ele>
        <time>2014-05-15T09:50:38Z</time>
      </trkpt>
      <trkpt lat="48.84046" lon="2.42767">
        <ele>30</ele>
        <time>2014-05-15T09:50:39Z</time>
      </trkpt>
      <trkpt lat="48.84045" lon="2.42766">
        <ele>30</ele>
        <time>2014-05-15T09:50:40Z</time>
      </trkpt>
      <trkpt lat="48.84045" lon="2.42766">
        <ele>29</ele>
        <time>2014-05-15T09:50:41Z</time>
      </trkpt>
      <trkpt lat="48.84044" lon="2.42764">
        <ele>30</ele>
        <time>2014-05-15T09:50:42Z</time>
      </trkpt>
      <trkpt lat="48.84043" lon="2.42763">
        <ele>29</ele>
        <time>2014-05-15T09:50:43Z</time>
      </trkpt>
      <trkpt lat="48.84042" lon="2.42762">
        <ele>29</ele>
        <time>2014-05-15T09:50:44Z</time>
      </trkpt>
      <trkpt lat="48.84041" lon="2.4276">
        <ele>29</ele>
        <time>2014-05-15T09:50:45Z</time>
      </trkpt>
      <trkpt lat="48.8404" lon="2.42758">
        <ele>30</ele>
        <time>2014-05-15T09:50:46Z</time>
      </trkpt>
      <trkpt lat="48.84039" lon="2.42756">
        <ele>29</ele>
        <time>2014-05-15T09:50:47Z</time>
      </trkpt>
      <trkpt lat="48.84038" lon="2.42755">
        <ele>29</ele>
        <time>2014-05-15T09:50:48Z</time>
      </trkpt>
      <trkpt lat="48.84038" lon="2.42753">
        <ele>29</ele>
        <time>2014-05-15T09:50:49Z</time>
      </trkpt>
      <trkpt lat="48.84037" lon="2.42752">
        <ele>30</ele>
        <time>2014-05-15T09:50:50Z</time>
      </trkpt>
      <trkpt lat="48.84036" lon="2.4275">
        <ele>31</ele>
        <time>2014-05-15T09:50:51Z</time>
      </trkpt>
      <trkpt lat="48.84035" lon="2.42748">
        <ele>31</ele>
        <time>2014-05-15T09:50:52Z</time>
      </trkpt>
      <trkpt lat="48.84035" lon="2.42747">
        <ele>31</ele>
        <time>2014-05-15T09:50:53Z</time>
      </trkpt>
      <trkpt lat="48.84034" lon="2.42745">
        <ele>31</ele>
        <time>2014-05-15T09:50:54Z</time>
      </trkpt>
      <trkpt lat="48.84034" lon="2.42743">
        <ele>32</ele>
        <time>2014-05-15T09:50:55Z</time>
      </trkpt>
      <trkpt lat="48.84033" lon="2.42741">
        <ele>32</ele>
        <time>2014-05-15T09:50:56Z</time>
      </trkpt>
      <trkpt lat="48.84032" lon="2.42739">
        <ele>31</ele>
        <time>2014-05-15T09:50:57Z</time>
      </trkpt>
      <trkpt lat="48.84032" lon="2.42737">
        <ele>31</ele>
        <time>2014-05-15T09:50:58Z</time>
      </trkpt>
      <trkpt lat="48.84031" lon="2.42735">
        <ele>30</ele>
        <time>2014-05-15T09:50:59Z</time>
      </trkpt>
      <trkpt lat="48.8403" lon="2.42733">
        <ele>32</ele>
        <time>2014-05-15T09:51:00Z</time>
      </trkpt>
      <trkpt lat="48.84029" lon="2.4273">
        <ele>31</ele>
        <time>2014-05-15T09:51:01Z</time>
      </trkpt>
      <trkpt lat="48.84027" lon="2.42728">
        <ele>32</ele>
        <time>2014-05-15T09:51:02Z</time>
      </trkpt>
      <trkpt lat="48.84027" lon="2.42726">
        <ele>31</ele>
        <time>2014-05-15T09:51:03Z</time>
      </trkpt>
      <trkpt lat="48.84027" lon="2.42725">
        <ele>31</ele>
        <time>2014-05-15T09:51:04Z</time>
      </trkpt>
      <trkpt lat="48.84027" lon="2.42723">
        <ele>30</ele>
        <time>2014-05-15T09:51:05Z</time>
      </trkpt>
      <trkpt lat="48.84027" lon="2.42722">
        <ele>30</ele>
        <time>2014-05-15T09:51:06Z</time>
      </trkpt>
      <trkpt lat="48.84026" lon="2.4272">
        <ele>30</ele>
        <time>2014-05-15T09:51:07Z</time>
      </trkpt>
      <trkpt lat="48.84026" lon="2.42719">
        <ele>30</ele>
        <time>2014-05-15T09:51:08Z</time>
      </trkpt>
      <trkpt lat="48.84026" lon="2.42717">
        <ele>30</ele>
        <time>2014-05-15T09:51:09Z</time>
      </trkpt>
      <trkpt lat="48.84025" lon="2.42715">
        <ele>30</ele>
        <time>2014-05-15T09:51:10Z</time>
      </trkpt>
      <trkpt lat="48.84025" lon="2.42714">
        <ele>30</ele>
        <time>2014-05-15T09:51:11Z</time>
      </trkpt>
      <trkpt lat="48.84025" lon="2.42712">
        <ele>27</ele>
        <time>2014-05-15T09:51:12Z</time>
      </trkpt>
      <trkpt lat="48.84025" lon="2.4271">
        <ele>27</ele>
        <time>2014-05-15T09:51:13Z</time>
      </trkpt>
      <trkpt lat="48.84025" lon="2.42709">
        <ele>27</ele>
        <time>2014-05-15T09:51:14Z</time>
      </trkpt>
      <trkpt lat="48.84025" lon="2.42707">
        <ele>27</ele>
        <time>2014-05-15T09:51:15Z</time>
      </trkpt>
      <trkpt lat="48.84025" lon="2.42706">
        <ele>26</ele>
        <time>2014-05-15T09:51:16Z</time>
      </trkpt>
      <trkpt lat="48.84025" lon="2.42704">
        <ele>25</ele>
        <time>2014-05-15T09:51:17Z</time>
      </trkpt>
      <trkpt lat="48.84024" lon="2.42703">
        <ele>26</ele>
        <time>2014-05-15T09:51:18Z</time>
      </trkpt>
      <trkpt lat="48.84024" lon="2.42701">
        <ele>27</ele>
        <time>2014-05-15T09:51:19Z</time>
      </trkpt>
      <trkpt lat="48.84025" lon="2.42699">
        <ele>25</ele>
        <time>2014-05-15T09:51:20Z</time>
      </trkpt>
      <trkpt lat="48.84025" lon="2.42698">
        <ele>26</ele>
        <time>2014-05-15T09:51:21Z</time>
      </trkpt>
      <trkpt lat="48.84025" lon="2.42696">
        <ele>26</ele>
        <time>2014-05-15T09:51:22Z</time>
      </trkpt>
      <trkpt lat="48.84024" lon="2.42694">
        <ele>27</ele>
        <time>2014-05-15T09:51:23Z</time>
      </trkpt>
      <trkpt lat="48.84024" lon="2.42691">
        <ele>28</ele>
        <time>2014-05-15T09:51:24Z</time>
      </trkpt>
      <trkpt lat="48.84024" lon="2.42689">
        <ele>27</ele>
        <time>2014-05-15T09:51:25Z</time>
      </trkpt>
      <trkpt lat="48.84024" lon="2.42687">
        <ele>26</ele>
        <time>2014-05-15T09:51:26Z</time>
      </trkpt>
      <trkpt lat="48.84023" lon="2.42685">
        <ele>26</ele>
        <time>2014-05-15T09:51:27Z</time>
      </trkpt>
      <trkpt lat="48.84023" lon="2.42683">
        <ele>25</ele>
        <time>2014-05-15T09:51:28Z</time>
      </trkpt>
      <trkpt lat="48.84022" lon="2.42681">
        <ele>26</ele>
        <time>2014-05-15T09:51:29Z</time>
      </trkpt>
      <trkpt lat="48.84022" lon="2.42679">
        <ele>26</ele>
        <time>2014-05-15T09:51:30Z</time>
      </trkpt>
      <trkpt lat="48.84022" lon="2.42677">
        <ele>26</ele>
        <time>2014-05-15T09:51:31Z</time>
      </trkpt>
      <trkpt lat="48.84021" lon="2.42675">
        <ele>25</ele>
        <time>2014-05-15T09:51:32Z</time>
      </trkpt>
      <trkpt lat="48.84021" lon="2.42673">
        <ele>25</ele>
        <time>2014-05-15T09:51:33Z</time>
      </trkpt>
      <trkpt lat="48.84021" lon="2.42671">
        <ele>26</ele>
        <time>2014-05-15T09:51:34Z</time>
      </trkpt>
      <trkpt lat="48.84021" lon="2.42668">
        <ele>28</ele>
        <time>2014-05-15T09:51:35Z</time>
      </trkpt>
      <trkpt lat="48.8402" lon="2.42666">
        <ele>29</ele>
        <time>2014-05-15T09:51:36Z</time>
      </trkpt>
      <trkpt lat="48.8402" lon="2.42664">
        <ele>28</ele>
        <time>2014-05-15T09:51:37Z</time>
      </trkpt>
      <trkpt lat="48.84019" lon="2.42662">
        <ele>29</ele>
        <time>2014-05-15T09:51:38Z</time>
      </trkpt>
      <trkpt lat="48.84019" lon="2.42659">
        <ele>30</ele>
        <time>2014-05-15T09:51:39Z</time>
      </trkpt>
      <trkpt lat="48.84018" lon="2.42657">
        <ele>30</ele>
        <time>2014-05-15T09:51:40Z</time>
      </trkpt>
      <trkpt lat="48.84018" lon="2.42655">
        <ele>30</ele>
        <time>2014-05-15T09:51:41Z</time>
      </trkpt>
      <trkpt lat="48.84017" lon="2.42652">
        <ele>30</ele>
        <time>2014-05-15T09:51:42Z</time>
      </trkpt>
      <trkpt lat="48.84016" lon="2.4265">
        <ele>30</ele>
        <time>2014-05-15T09:51:43Z</time>
      </trkpt>
      <trkpt lat="48.84016" lon="2.42648">
        <ele>30</ele>
        <time>2014-05-15T09:51:44Z</time>
      </trkpt>
      <trkpt lat="48.84015" lon="2.42645">
        <ele>31</ele>
        <time>2014-05-15T09:51:45Z</time>
      </trkpt>
      <trkpt lat="48.84015" lon="2.42643">
        <ele>31</ele>
        <time>2014-05-15T09:51:46Z</time>
      </trkpt>
      <trkpt lat="48.84014" lon="2.42641">
        <ele>31</ele>
        <time>2014-05-15T09:51:47Z</time>
      </trkpt>
      <trkpt lat="48.84013" lon="2.42639">
        <ele>30</ele>
        <time>2014-05-15T09:51:48Z</time>
      </trkpt>
      <trkpt lat="48.84013" lon="2.42637">
        <ele>31</ele>
        <time>2014-05-15T09:51:49Z</time>
      </trkpt>
      <trkpt lat="48.84012" lon="2.42634">
        <ele>31</ele>
        <time>2014-05-15T09:51:50Z</time>
      </trkpt>
      <trkpt lat="48.84012" lon="2.42633">
        <ele>29</ele>
        <time>2014-05-15T09:51:51Z</time>
      </trkpt>
      <trkpt lat="48.84012" lon="2.42632">
        <ele>28</ele>
        <time>2014-05-15T09:51:52Z</time>
      </trkpt>
      <trkpt lat="48.84012" lon="2.42632">
        <ele>28</ele>
        <time>2014-05-15T09:51:53Z</time>
      </trkpt>
      <trkpt lat="48.84012" lon="2.42631">
        <ele>28</ele>
        <time>2014-05-15T09:51:54Z</time>
      </trkpt>
      <trkpt lat="48.84012" lon="2.42631">
        <ele>28</ele>
        <time>2014-05-15T09:51:55Z</time>
      </trkpt>
      <trkpt lat="48.84012" lon="2.42631">
        <ele>29</ele>
        <time>2014-05-15T09:51:56Z</time>
      </trkpt>
      <trkpt lat="48.84012" lon="2.42631">
        <ele>29</ele>
        <time>2014-05-15T09:51:57Z</time>
      </trkpt>
      <trkpt lat="48.84012" lon="2.4263">
        <ele>29</ele>
        <time>2014-05-15T09:51:58Z</time>
      </trkpt>
      <trkpt lat="48.84011" lon="2.42629">
        <ele>27</ele>
        <time>2014-05-15T09:51:59Z</time>
      </trkpt>
      <trkpt lat="48.84011" lon="2.42627">
        <ele>29</ele>
        <time>2014-05-15T09:52:00Z</time>
      </trkpt>
      <trkpt lat="48.8401" lon="2.42625">
        <ele>28</ele>
        <time>2014-05-15T09:52:01Z</time>
      </trkpt>
      <trkpt lat="48.84009" lon="2.42623">
        <ele>29</ele>
        <time>2014-05-15T09:52:02Z</time>
      </trkpt>
      <trkpt lat="48.84009" lon="2.4262">
        <ele>29</ele>
        <time>2014-05-15T09:52:03Z</time>
      </trkpt>
      <trkpt lat="48.84008" lon="2.42618">
        <ele>29</ele>
        <time>2014-05-15T09:52:04Z</time>
      </trkpt>
      <trkpt lat="48.84008" lon="2.42615">
        <ele>28</ele>
        <time>2014-05-15T09:52:05Z</time>
      </trkpt>
      <trkpt lat="48.84007" lon="2.42613">
        <ele>28</ele>
        <time>2014-05-15T09:52:06Z</time>
      </trkpt>
      <trkpt lat="48.84007" lon="2.42611">
        <ele>25</ele>
        <time>2014-05-15T09:52:07Z</time>
      </trkpt>
      <trkpt lat="48.84006" lon="2.42609">
        <ele>25</ele>
        <time>2014-05-15T09:52:08Z</time>
      </trkpt>
      <trkpt lat="48.84006" lon="2.42607">
        <ele>25</ele>
        <time>2014-05-15T09:52:09Z</time>
      </trkpt>
      <trkpt lat="48.84006" lon="2.42605">
        <ele>27</ele>
        <time>2014-05-15T09:52:10Z</time>
      </trkpt>
      <trkpt lat="48.84006" lon="2.42603">
        <ele>26</ele>
        <time>2014-05-15T09:52:11Z</time>
      </trkpt>
      <trkpt lat="48.84006" lon="2.42601">
        <ele>25</ele>
        <time>2014-05-15T09:52:12Z</time>
      </trkpt>
      <trkpt lat="48.84006" lon="2.426">
        <ele>26</ele>
        <time>2014-05-15T09:52:13Z</time>
      </trkpt>
      <trkpt lat="48.84006" lon="2.42598">
        <ele>25</ele>
        <time>2014-05-15T09:52:14Z</time>
      </trkpt>
      <trkpt lat="48.84005" lon="2.42596">
        <ele>24</ele>
        <time>2014-05-15T09:52:15Z</time>
      </trkpt>
      <trkpt lat="48.84005" lon="2.42594">
        <ele>24</ele>
        <time>2014-05-15T09:52:16Z</time>
      </trkpt>
      <trkpt lat="48.84005" lon="2.42593">
        <ele>23</ele>
        <time>2014-05-15T09:52:17Z</time>
      </trkpt>
      <trkpt lat="48.84005" lon="2.42591">
        <ele>23</ele>
        <time>2014-05-15T09:52:18Z</time>
      </trkpt>
      <trkpt lat="48.84005" lon="2.42589">
        <ele>23</ele>
        <time>2014-05-15T09:52:19Z</time>
      </trkpt>
      <trkpt lat="48.84004" lon="2.42587">
        <ele>24</ele>
        <time>2014-05-15T09:52:20Z</time>
      </trkpt>
      <trkpt lat="48.84004" lon="2.42584">
        <ele>25</ele>
        <time>2014-05-15T09:52:21Z</time>
      </trkpt>
      <trkpt lat="48.84003" lon="2.42582">
        <ele>26</ele>
        <time>2014-05-15T09:52:22Z</time>
      </trkpt>
      <trkpt lat="48.84003" lon="2.4258">
        <ele>26</ele>
        <time>2014-05-15T09:52:23Z</time>
      </trkpt>
      <trkpt lat="48.84003" lon="2.42578">
        <ele>25</ele>
        <time>2014-05-15T09:52:24Z</time>
      </trkpt>
      <trkpt lat="48.84003" lon="2.42576">
        <ele>26</ele>
        <time>2014-05-15T09:52:25Z</time>
      </trkpt>
      <trkpt lat="48.84003" lon="2.42574">
        <ele>28</ele>
        <time>2014-05-15T09:52:26Z</time>
      </trkpt>
      <trkpt lat="48.84002" lon="2.42572">
        <ele>29</ele>
        <time>2014-05-15T09:52:27Z</time>
      </trkpt>
      <trkpt lat="48.84002" lon="2.4257">
        <ele>31</ele>
        <time>2014-05-15T09:52:28Z</time>
      </trkpt>
      <trkpt lat="48.84001" lon="2.42568">
        <ele>31</ele>
        <time>2014-05-15T09:52:29Z</time>
      </trkpt>
      <trkpt lat="48.84001" lon="2.42566">
        <ele>31</ele>
        <time>2014-05-15T09:52:30Z</time>
      </trkpt>
      <trkpt lat="48.84001" lon="2.42564">
        <ele>32</ele>
        <time>2014-05-15T09:52:31Z</time>
      </trkpt>
      <trkpt lat="48.84001" lon="2.42562">
        <ele>32</ele>
        <time>2014-05-15T09:52:32Z</time>
      </trkpt>
      <trkpt lat="48.84001" lon="2.4256">
        <ele>31</ele>
        <time>2014-05-15T09:52:33Z</time>
      </trkpt>
      <trkpt lat="48.84" lon="2.42558">
        <ele>32</ele>
        <time>2014-05-15T09:52:34Z</time>
      </trkpt>
      <trkpt lat="48.84" lon="2.42556">
        <ele>34</ele>
        <time>2014-05-15T09:52:35Z</time>
      </trkpt>
      <trkpt lat="48.83999" lon="2.42554">
        <ele>34</ele>
        <time>2014-05-15T09:52:36Z</time>
      </trkpt>
      <trkpt lat="48.83999" lon="2.42552">
        <ele>33</ele>
        <time>2014-05-15T09:52:37Z</time>
      </trkpt>
      <trkpt lat="48.83998" lon="2.4255">
        <ele>33</ele>
        <time>2014-05-15T09:52:38Z</time>
      </trkpt>
      <trkpt lat="48.83998" lon="2.42548">
        <ele>32</ele>
        <time>2014-05-15T09:52:39Z</time>
      </trkpt>
      <trkpt lat="48.83998" lon="2.42546">
        <ele>30</ele>
        <time>2014-05-15T09:52:40Z</time>
      </trkpt>
      <trkpt lat="48.83997" lon="2.42544">
        <ele>30</ele>
        <time>2014-05-15T09:52:41Z</time>
      </trkpt>
      <trkpt lat="48.83997" lon="2.42542">
        <ele>31</ele>
        <time>2014-05-15T09:52:42Z</time>
      </trkpt>
      <trkpt lat="48.83996" lon="2.4254">
        <ele>31</ele>
        <time>2014-05-15T09:52:43Z</time>
      </trkpt>
      <trkpt lat="48.83996" lon="2.42538">
        <ele>31</ele>
        <time>2014-05-15T09:52:44Z</time>
      </trkpt>
      <trkpt lat="48.83997" lon="2.42536">
        <ele>32</ele>
        <time>2014-05-15T09:52:45Z</time>
      </trkpt>
      <trkpt lat="48.83997" lon="2.42535">
        <ele>31</ele>
        <time>2014-05-15T09:52:46Z</time>
      </trkpt>
      <trkpt lat="48.83996" lon="2.42533">
        <ele>31</ele>
        <time>2014-05-15T09:52:47Z</time>
      </trkpt>
      <trkpt lat="48.83996" lon="2.42531">
        <ele>31</ele>
        <time>2014-05-15T09:52:48Z</time>
      </trkpt>
      <trkpt lat="48.83995" lon="2.42529">
        <ele>30</ele>
        <time>2014-05-15T09:52:49Z</time>
      </trkpt>
      <trkpt lat="48.83995" lon="2.42528">
        <ele>29</ele>
        <time>2014-05-15T09:52:50Z</time>
      </trkpt>
      <trkpt lat="48.83994" lon="2.42526">
        <ele>29</ele>
        <time>2014-05-15T09:52:51Z</time>
      </trkpt>
      <trkpt lat="48.83993" lon="2.42525">
        <ele>29</ele>
        <time>2014-05-15T09:52:52Z</time>
      </trkpt>
      <trkpt lat="48.83992" lon="2.42524">
        <ele>29</ele>
        <time>2014-05-15T09:52:53Z</time>
      </trkpt>
      <trkpt lat="48.83992" lon="2.42523">
        <ele>30</ele>
        <time>2014-05-15T09:52:54Z</time>
      </trkpt>
      <trkpt lat="48.83991" lon="2.42521">
        <ele>31</ele>
        <time>2014-05-15T09:52:55Z</time>
      </trkpt>
      <trkpt lat="48.83989" lon="2.42519">
        <ele>31</ele>
        <time>2014-05-15T09:52:56Z</time>
      </trkpt>
      <trkpt lat="48.83988" lon="2.42518">
        <ele>31</ele>
        <time>2014-05-15T09:52:57Z</time>
      </trkpt>
      <trkpt lat="48.83987" lon="2.42516">
        <ele>32</ele>
        <time>2014-05-15T09:52:58Z</time>
      </trkpt>
      <trkpt lat="48.83985" lon="2.42515">
        <ele>32</ele>
        <time>2014-05-15T09:52:59Z</time>
      </trkpt>
      <trkpt lat="48.83984" lon="2.42513">
        <ele>33</ele>
        <time>2014-05-15T09:53:00Z</time>
      </trkpt>
      <trkpt lat="48.83983" lon="2.42512">
        <ele>34</ele>
        <time>2014-05-15T09:53:01Z</time>
      </trkpt>
      <trkpt lat="48.83981" lon="2.42511">
        <ele>34</ele>
        <time>2014-05-15T09:53:02Z</time>
      </trkpt>
      <trkpt lat="48.8398" lon="2.4251">
        <ele>35</ele>
        <time>2014-05-15T09:53:03Z</time>
      </trkpt>
      <trkpt lat="48.83979" lon="2.42508">
        <ele>35</ele>
        <time>2014-05-15T09:53:04Z</time>
      </trkpt>
      <trkpt lat="48.83978" lon="2.42507">
        <ele>36</ele>
        <time>2014-05-15T09:53:05Z</time>
      </trkpt>
      <trkpt lat="48.83977" lon="2.42506">
        <ele>37</ele>
        <time>2014-05-15T09:53:06Z</time>
      </trkpt>
      <trkpt lat="48.83976" lon="2.42505">
        <ele>37</ele>
        <time>2014-05-15T09:53:07Z</time>
      </trkpt>
      <trkpt lat="48.83975" lon="2.42504">
        <ele>37</ele>
        <time>2014-05-15T09:53:08Z</time>
      </trkpt>
      <trkpt lat="48.83974" lon="2.42503">
        <ele>38</ele>
        <time>2014-05-15T09:53:09Z</time>
      </trkpt>
      <trkpt lat="48.83972" lon="2.42502">
        <ele>38</ele>
        <time>2014-05-15T09:53:10Z</time>
      </trkpt>
      <trkpt lat="48.83971" lon="2.42501">
        <ele>37</ele>
        <time>2014-05-15T09:53:11Z</time>
      </trkpt>
      <trkpt lat="48.8397" lon="2.425">
        <ele>38</ele>
        <time>2014-05-15T09:53:12Z</time>
      </trkpt>
      <trkpt lat="48.83969" lon="2.42499">
        <ele>39</ele>
        <time>2014-05-15T09:53:13Z</time>
      </trkpt>
      <trkpt lat="48.83967" lon="2.42498">
        <ele>40</ele>
        <time>2014-05-15T09:53:14Z</time>
      </trkpt>
      <trkpt lat="48.83966" lon="2.42497">
        <ele>41</ele>
        <time>2014-05-15T09:53:15Z</time>
      </trkpt>
      <trkpt lat="48.83964" lon="2.42495">
        <ele>44</ele>
        <time>2014-05-15T09:53:16Z</time>
      </trkpt>
      <trkpt lat="48.83962" lon="2.42495">
        <ele>43</ele>
        <time>2014-05-15T09:53:17Z</time>
      </trkpt>
      <trkpt lat="48.83961" lon="2.42494">
        <ele>43</ele>
        <time>2014-05-15T09:53:18Z</time>
      </trkpt>
      <trkpt lat="48.83959" lon="2.42494">
        <ele>43</ele>
        <time>2014-05-15T09:53:19Z</time>
      </trkpt>
      <trkpt lat="48.83958" lon="2.42494">
        <ele>43</ele>
        <time>2014-05-15T09:53:20Z</time>
      </trkpt>
      <trkpt lat="48.83957" lon="2.42493">
        <ele>43</ele>
        <time>2014-05-15T09:53:21Z</time>
      </trkpt>
      <trkpt lat="48.83956" lon="2.42492">
        <ele>43</ele>
        <time>2014-05-15T09:53:22Z</time>
      </trkpt>
      <trkpt lat="48.83955" lon="2.42491">
        <ele>42</ele>
        <time>2014-05-15T09:53:23Z</time>
      </trkpt>
      <trkpt lat="48.83953" lon="2.4249">
        <ele>43</ele>
        <time>2014-05-15T09:53:24Z</time>
      </trkpt>
      <trkpt lat="48.83952" lon="2.42489">
        <ele>42</ele>
        <time>2014-05-15T09:53:25Z</time>
      </trkpt>
      <trkpt lat="48.8395" lon="2.42489">
        <ele>42</ele>
        <time>2014-05-15T09:53:26Z</time>
      </trkpt>
      <trkpt lat="48.83949" lon="2.42488">
        <ele>41</ele>
        <time>2014-05-15T09:53:27Z</time>
      </trkpt>
      <trkpt lat="48.83948" lon="2.42488">
        <ele>42</ele>
        <time>2014-05-15T09:53:28Z</time>
      </trkpt>
      <trkpt lat="48.83947" lon="2.42487">
        <ele>41</ele>
        <time>2014-05-15T09:53:29Z</time>
      </trkpt>
      <trkpt lat="48.83945" lon="2.42488">
        <ele>41</ele>
        <time>2014-05-15T09:53:30Z</time>
      </trkpt>
      <trkpt lat="48.83944" lon="2.42488">
        <ele>41</ele>
        <time>2014-05-15T09:53:31Z</time>
      </trkpt>
      <trkpt lat="48.83943" lon="2.42488">
        <ele>41</ele>
        <time>2014-05-15T09:53:32Z</time>
      </trkpt>
      <trkpt lat="48.83941" lon="2.42488">
        <ele>42</ele>
        <time>2014-05-15T09:53:33Z</time>
      </trkpt>
      <trkpt lat="48.8394" lon="2.42488">
        <ele>42</ele>
        <time>2014-05-15T09:53:34Z</time>
      </trkpt>
      <trkpt lat="48.83939" lon="2.42488">
        <ele>42</ele>
        <time>2014-05-15T09:53:35Z</time>
      </trkpt>
      <trkpt lat="48.83937" lon="2.42488">
        <ele>41</ele>
        <time>2014-05-15T09:53:36Z</time>
      </trkpt>
      <trkpt lat="48.83936" lon="2.42489">
        <ele>41</ele>
        <time>2014-05-15T09:53:37Z</time>
      </trkpt>
      <trkpt lat="48.83935" lon="2.4249">
        <ele>41</ele>
        <time>2014-05-15T09:53:38Z</time>
      </trkpt>
      <trkpt lat="48.83934" lon="2.4249">
        <ele>42</ele>
        <time>2014-05-15T09:53:39Z</time>
      </trkpt>
      <trkpt lat="48.83933" lon="2.42491">
        <ele>42</ele>
        <time>2014-05-15T09:53:40Z</time>
      </trkpt>
      <trkpt lat="48.83932" lon="2.42491">
        <ele>41</ele>
        <time>2014-05-15T09:53:41Z</time>
      </trkpt>
      <trkpt lat="48.83931" lon="2.42491">
        <ele>41</ele>
        <time>2014-05-15T09:53:42Z</time>
      </trkpt>
      <trkpt lat="48.8393" lon="2.42491">
        <ele>41</ele>
        <time>2014-05-15T09:53:43Z</time>
      </trkpt>
      <trkpt lat="48.83928" lon="2.42491">
        <ele>42</ele>
        <time>2014-05-15T09:53:44Z</time>
      </trkpt>
      <trkpt lat="48.83927" lon="2.42491">
        <ele>42</ele>
        <time>2014-05-15T09:53:45Z</time>
      </trkpt>
      <trkpt lat="48.83925" lon="2.42491">
        <ele>42</ele>
        <time>2014-05-15T09:53:46Z</time>
      </trkpt>
      <trkpt lat="48.83924" lon="2.42491">
        <ele>41</ele>
        <time>2014-05-15T09:53:47Z</time>
      </trkpt>
      <trkpt lat="48.83923" lon="2.4249">
        <ele>41</ele>
        <time>2014-05-15T09:53:48Z</time>
      </trkpt>
      <trkpt lat="48.83921" lon="2.4249">
        <ele>41</ele>
        <time>2014-05-15T09:53:49Z</time>
      </trkpt>
      <trkpt lat="48.8392" lon="2.42489">
        <ele>40</ele>
        <time>2014-05-15T09:53:50Z</time>
      </trkpt>
      <trkpt lat="48.83918" lon="2.42489">
        <ele>41</ele>
        <time>2014-05-15T09:53:51Z</time>
      </trkpt>
      <trkpt lat="48.83917" lon="2.42489">
        <ele>40</ele>
        <time>2014-05-15T09:53:52Z</time>
      </trkpt>
      <trkpt lat="48.83915" lon="2.4249">
        <ele>41</ele>
        <time>2014-05-15T09:53:53Z</time>
      </trkpt>
      <trkpt lat="48.83914" lon="2.4249">
        <ele>41</ele>
        <time>2014-05-15T09:53:54Z</time>
      </trkpt>
      <trkpt lat="48.83913" lon="2.4249">
        <ele>40</ele>
        <time>2014-05-15T09:53:55Z</time>
      </trkpt>
      <trkpt lat="48.83912" lon="2.4249">
        <ele>40</ele>
        <time>2014-05-15T09:53:56Z</time>
      </trkpt>
      <trkpt lat="48.83911" lon="2.4249">
        <ele>39</ele>
        <time>2014-05-15T09:53:57Z</time>
      </trkpt>
      <trkpt lat="48.83909" lon="2.4249">
        <ele>40</ele>
        <time>2014-05-15T09:53:58Z</time>
      </trkpt>
      <trkpt lat="48.83908" lon="2.4249">
        <ele>40</ele>
        <time>2014-05-15T09:53:59Z</time>
      </trkpt>
      <trkpt lat="48.83906" lon="2.42489">
        <ele>41</ele>
        <time>2014-05-15T09:54:00Z</time>
      </trkpt>
      <trkpt lat="48.83904" lon="2.4249">
        <ele>42</ele>
        <time>2014-05-15T09:54:01Z</time>
      </trkpt>
      <trkpt lat="48.83902" lon="2.4249">
        <ele>42</ele>
        <time>2014-05-15T09:54:02Z</time>
      </trkpt>
      <trkpt lat="48.83901" lon="2.4249">
        <ele>43</ele>
        <time>2014-05-15T09:54:03Z</time>
      </trkpt>
      <trkpt lat="48.83898" lon="2.4249">
        <ele>43</ele>
        <time>2014-05-15T09:54:04Z</time>
      </trkpt>
      <trkpt lat="48.83896" lon="2.4249">
        <ele>43</ele>
        <time>2014-05-15T09:54:05Z</time>
      </trkpt>
      <trkpt lat="48.83895" lon="2.42489">
        <ele>43</ele>
        <time>2014-05-15T09:54:06Z</time>
      </trkpt>
      <trkpt lat="48.83893" lon="2.42489">
        <ele>43</ele>
        <time>2014-05-15T09:54:07Z</time>
      </trkpt>
      <trkpt lat="48.83891" lon="2.4249">
        <ele>43</ele>
        <time>2014-05-15T09:54:08Z</time>
      </trkpt>
      <trkpt lat="48.8389" lon="2.4249">
        <ele>43</ele>
        <time>2014-05-15T09:54:09Z</time>
      </trkpt>
      <trkpt lat="48.83889" lon="2.4249">
        <ele>44</ele>
        <time>2014-05-15T09:54:10Z</time>
      </trkpt>
      <trkpt lat="48.83886" lon="2.4249">
        <ele>43</ele>
        <time>2014-05-15T09:54:11Z</time>
      </trkpt>
      <trkpt lat="48.83885" lon="2.4249">
        <ele>42</ele>
        <time>2014-05-15T09:54:12Z</time>
      </trkpt>
      <trkpt lat="48.83883" lon="2.4249">
        <ele>43</ele>
        <time>2014-05-15T09:54:13Z</time>
      </trkpt>
      <trkpt lat="48.83881" lon="2.42491">
        <ele>42</ele>
        <time>2014-05-15T09:54:14Z</time>
      </trkpt>
      <trkpt lat="48.83879" lon="2.42492">
        <ele>42</ele>
        <time>2014-05-15T09:54:15Z</time>
      </trkpt>
      <trkpt lat="48.83878" lon="2.42493">
        <ele>42</ele>
        <time>2014-05-15T09:54:16Z</time>
      </trkpt>
      <trkpt lat="48.83873" lon="2.42493">
        <ele>42</ele>
        <time>2014-05-15T09:54:17Z</time>
      </trkpt>
      <trkpt lat="48.83872" lon="2.42493">
        <ele>42</ele>
        <time>2014-05-15T09:54:18Z</time>
      </trkpt>
      <trkpt lat="48.83872" lon="2.42492">
        <ele>42</ele>
        <time>2014-05-15T09:54:19Z</time>
      </trkpt>
      <trkpt lat="48.83871" lon="2.42492">
        <ele>42</ele>
        <time>2014-05-15T09:54:20Z</time>
      </trkpt>
      <trkpt lat="48.83871" lon="2.42492">
        <ele>42</ele>
        <time>2014-05-15T09:54:21Z</time>
      </trkpt>
      <trkpt lat="48.83871" lon="2.42492">
        <ele>42</ele>
        <time>2014-05-15T09:54:22Z</time>
      </trkpt>
      <trkpt lat="48.8387" lon="2.42492">
        <ele>42</ele>
        <time>2014-05-15T09:54:23Z</time>
      </trkpt>
      <trkpt lat="48.8387" lon="2.42492">
        <ele>42</ele>
        <time>2014-05-15T09:54:24Z</time>
      </trkpt>
      <trkpt lat="48.83869" lon="2.42492">
        <ele>43</ele>
        <time>2014-05-15T09:54:25Z</time>
      </trkpt>
      <trkpt lat="48.83867" lon="2.42492">
        <ele>43</ele>
        <time>2014-05-15T09:54:26Z</time>
      </trkpt>
      <trkpt lat="48.83866" lon="2.42492">
        <ele>44</ele>
        <time>2014-05-15T09:54:27Z</time>
      </trkpt>
      <trkpt lat="48.83864" lon="2.42493">
        <ele>44</ele>
        <time>2014-05-15T09:54:28Z</time>
      </trkpt>
      <trkpt lat="48.83863" lon="2.42493">
        <ele>43</ele>
        <time>2014-05-15T09:54:29Z</time>
      </trkpt>
      <trkpt lat="48.83861" lon="2.42494">
        <ele>44</ele>
        <time>2014-05-15T09:54:30Z</time>
      </trkpt>
      <trkpt lat="48.8386" lon="2.42495">
        <ele>44</ele>
        <time>2014-05-15T09:54:31Z</time>
      </trkpt>
      <trkpt lat="48.83859" lon="2.42496">
        <ele>44</ele>
        <time>2014-05-15T09:54:32Z</time>
      </trkpt>
      <trkpt lat="48.83858" lon="2.42498">
        <ele>44</ele>
        <time>2014-05-15T09:54:33Z</time>
      </trkpt>
      <trkpt lat="48.83857" lon="2.42499">
        <ele>43</ele>
        <time>2014-05-15T09:54:34Z</time>
      </trkpt>
      <trkpt lat="48.83857" lon="2.42501">
        <ele>43</ele>
        <time>2014-05-15T09:54:35Z</time>
      </trkpt>
      <trkpt lat="48.83855" lon="2.42502">
        <ele>43</ele>
        <time>2014-05-15T09:54:36Z</time>
      </trkpt>
      <trkpt lat="48.83854" lon="2.42503">
        <ele>43</ele>
        <time>2014-05-15T09:54:37Z</time>
      </trkpt>
      <trkpt lat="48.83852" lon="2.42504">
        <ele>44</ele>
        <time>2014-05-15T09:54:38Z</time>
      </trkpt>
      <trkpt lat="48.8385" lon="2.42505">
        <ele>44</ele>
        <time>2014-05-15T09:54:39Z</time>
      </trkpt>
      <trkpt lat="48.83849" lon="2.42506">
        <ele>44</ele>
        <time>2014-05-15T09:54:40Z</time>
      </trkpt>
      <trkpt lat="48.83848" lon="2.42506">
        <ele>43</ele>
        <time>2014-05-15T09:54:41Z</time>
      </trkpt>
      <trkpt lat="48.83846" lon="2.42507">
        <ele>42</ele>
        <time>2014-05-15T09:54:42Z</time>
      </trkpt>
      <trkpt lat="48.83845" lon="2.42505">
        <ele>42</ele>
        <time>2014-05-15T09:54:43Z</time>
      </trkpt>
      <trkpt lat="48.83844" lon="2.42503">
        <ele>41</ele>
        <time>2014-05-15T09:54:44Z</time>
      </trkpt>
      <trkpt lat="48.83844" lon="2.42502">
        <ele>42</ele>
        <time>2014-05-15T09:54:45Z</time>
      </trkpt>
      <trkpt lat="48.83844" lon="2.425">
        <ele>42</ele>
        <time>2014-05-15T09:54:46Z</time>
      </trkpt>
      <trkpt lat="48.83843" lon="2.42498">
        <ele>43</ele>
        <time>2014-05-15T09:54:47Z</time>
      </trkpt>
      <trkpt lat="48.83843" lon="2.42497">
        <ele>43</ele>
        <time>2014-05-15T09:54:48Z</time>
      </trkpt>
      <trkpt lat="48.83842" lon="2.42496">
        <ele>42</ele>
        <time>2014-05-15T09:54:49Z</time>
      </trkpt>
      <trkpt lat="48.83841" lon="2.42494">
        <ele>42</ele>
        <time>2014-05-15T09:54:50Z</time>
      </trkpt>
      <trkpt lat="48.83841" lon="2.42493">
        <ele>42</ele>
        <time>2014-05-15T09:54:51Z</time>
      </trkpt>
      <trkpt lat="48.8384" lon="2.42491">
        <ele>42</ele>
        <time>2014-05-15T09:54:52Z</time>
      </trkpt>
      <trkpt lat="48.8384" lon="2.42488">
        <ele>43</ele>
        <time>2014-05-15T09:54:53Z</time>
      </trkpt>
      <trkpt lat="48.83839" lon="2.42486">
        <ele>43</ele>
        <time>2014-05-15T09:54:54Z</time>
      </trkpt>
      <trkpt lat="48.83839" lon="2.42484">
        <ele>43</ele>
        <time>2014-05-15T09:54:55Z</time>
      </trkpt>
      <trkpt lat="48.83838" lon="2.42482">
        <ele>43</ele>
        <time>2014-05-15T09:54:56Z</time>
      </trkpt>
      <trkpt lat="48.83837" lon="2.4248">
        <ele>43</ele>
        <time>2014-05-15T09:54:57Z</time>
      </trkpt>
      <trkpt lat="48.83836" lon="2.42479">
        <ele>42</ele>
        <time>2014-05-15T09:54:58Z</time>
      </trkpt>
      <trkpt lat="48.83835" lon="2.42477">
        <ele>43</ele>
        <time>2014-05-15T09:54:59Z</time>
      </trkpt>
      <trkpt lat="48.83834" lon="2.42474">
        <ele>43</ele>
        <time>2014-05-15T09:55:00Z</time>
      </trkpt>
      <trkpt lat="48.83834" lon="2.42472">
        <ele>43</ele>
        <time>2014-05-15T09:55:01Z</time>
      </trkpt>
      <trkpt lat="48.83833" lon="2.42469">
        <ele>43</ele>
        <time>2014-05-15T09:55:02Z</time>
      </trkpt>
      <trkpt lat="48.83833" lon="2.42468">
        <ele>43</ele>
        <time>2014-05-15T09:55:03Z</time>
      </trkpt>
      <trkpt lat="48.83832" lon="2.42465">
        <ele>43</ele>
        <time>2014-05-15T09:55:04Z</time>
      </trkpt>
      <trkpt lat="48.83831" lon="2.42463">
        <ele>44</ele>
        <time>2014-05-15T09:55:05Z</time>
      </trkpt>
      <trkpt lat="48.83829" lon="2.42461">
        <ele>43</ele>
        <time>2014-05-15T09:55:06Z</time>
      </trkpt>
      <trkpt lat="48.83828" lon="2.4246">
        <ele>43</ele>
        <time>2014-05-15T09:55:07Z</time>
      </trkpt>
      <trkpt lat="48.83826" lon="2.42457">
        <ele>43</ele>
        <time>2014-05-15T09:55:08Z</time>
      </trkpt>
      <trkpt lat="48.83825" lon="2.42455">
        <ele>44</ele>
        <time>2014-05-15T09:55:09Z</time>
      </trkpt>
      <trkpt lat="48.83824" lon="2.42454">
        <ele>44</ele>
        <time>2014-05-15T09:55:10Z</time>
      </trkpt>
      <trkpt lat="48.83822" lon="2.42451">
        <ele>43</ele>
        <time>2014-05-15T09:55:11Z</time>
      </trkpt>
      <trkpt lat="48.83822" lon="2.4245">
        <ele>43</ele>
        <time>2014-05-15T09:55:12Z</time>
      </trkpt>
      <trkpt lat="48.8382" lon="2.42447">
        <ele>43</ele>
        <time>2014-05-15T09:55:13Z</time>
      </trkpt>
      <trkpt lat="48.8382" lon="2.42445">
        <ele>43</ele>
        <time>2014-05-15T09:55:14Z</time>
      </trkpt>
      <trkpt lat="48.83819" lon="2.42444">
        <ele>42</ele>
        <time>2014-05-15T09:55:15Z</time>
      </trkpt>
      <trkpt lat="48.83819" lon="2.42442">
        <ele>42</ele>
        <time>2014-05-15T09:55:16Z</time>
      </trkpt>
      <trkpt lat="48.83819" lon="2.42441">
        <ele>41</ele>
        <time>2014-05-15T09:55:17Z</time>
      </trkpt>
      <trkpt lat="48.83819" lon="2.4244">
        <ele>42</ele>
        <time>2014-05-15T09:55:18Z</time>
      </trkpt>
      <trkpt lat="48.83819" lon="2.42439">
        <ele>42</ele>
        <time>2014-05-15T09:55:19Z</time>
      </trkpt>
      <trkpt lat="48.83819" lon="2.42437">
        <ele>42</ele>
        <time>2014-05-15T09:55:20Z</time>
      </trkpt>
      <trkpt lat="48.83818" lon="2.42436">
        <ele>42</ele>
        <time>2014-05-15T09:55:21Z</time>
      </trkpt>
      <trkpt lat="48.83818" lon="2.42435">
        <ele>42</ele>
        <time>2014-05-15T09:55:22Z</time>
      </trkpt>
      <trkpt lat="48.83817" lon="2.42433">
        <ele>42</ele>
        <time>2014-05-15T09:55:23Z</time>
      </trkpt>
      <trkpt lat="48.83817" lon="2.42431">
        <ele>42</ele>
        <time>2014-05-15T09:55:24Z</time>
      </trkpt>
      <trkpt lat="48.83816" lon="2.4243">
        <ele>41</ele>
        <time>2014-05-15T09:55:25Z</time>
      </trkpt>
      <trkpt lat="48.83817" lon="2.42428">
        <ele>41</ele>
        <time>2014-05-15T09:55:26Z</time>
      </trkpt>
      <trkpt lat="48.83817" lon="2.42426">
        <ele>41</ele>
        <time>2014-05-15T09:55:27Z</time>
      </trkpt>
      <trkpt lat="48.83816" lon="2.42424">
        <ele>41</ele>
        <time>2014-05-15T09:55:28Z</time>
      </trkpt>
      <trkpt lat="48.83816" lon="2.42422">
        <ele>41</ele>
        <time>2014-05-15T09:55:29Z</time>
      </trkpt>
      <trkpt lat="48.83815" lon="2.4242">
        <ele>41</ele>
        <time>2014-05-15T09:55:30Z</time>
      </trkpt>
      <trkpt lat="48.83815" lon="2.42418">
        <ele>40</ele>
        <time>2014-05-15T09:55:31Z</time>
      </trkpt>
      <trkpt lat="48.83815" lon="2.42416">
        <ele>40</ele>
        <time>2014-05-15T09:55:32Z</time>
      </trkpt>
      <trkpt lat="48.83815" lon="2.42415">
        <ele>40</ele>
        <time>2014-05-15T09:55:33Z</time>
      </trkpt>
      <trkpt lat="48.83814" lon="2.42414">
        <ele>40</ele>
        <time>2014-05-15T09:55:34Z</time>
      </trkpt>
      <trkpt lat="48.83814" lon="2.42413">
        <ele>40</ele>
        <time>2014-05-15T09:55:35Z</time>
      </trkpt>
      <trkpt lat="48.83813" lon="2.42411">
        <ele>40</ele>
        <time>2014-05-15T09:55:36Z</time>
      </trkpt>
      <trkpt lat="48.83812" lon="2.4241">
        <ele>40</ele>
        <time>2014-05-15T09:55:37Z</time>
      </trkpt>
      <trkpt lat="48.83811" lon="2.42408">
        <ele>41</ele>
        <time>2014-05-15T09:55:38Z</time>
      </trkpt>
      <trkpt lat="48.8381" lon="2.42406">
        <ele>41</ele>
        <time>2014-05-15T09:55:39Z</time>
      </trkpt>
      <trkpt lat="48.83809" lon="2.42405">
        <ele>43</ele>
        <time>2014-05-15T09:55:40Z</time>
      </trkpt>
      <trkpt lat="48.83808" lon="2.42401">
        <ele>42</ele>
        <time>2014-05-15T09:55:41Z</time>
      </trkpt>
      <trkpt lat="48.83807" lon="2.424">
        <ele>42</ele>
        <time>2014-05-15T09:55:42Z</time>
      </trkpt>
      <trkpt lat="48.83806" lon="2.42397">
        <ele>42</ele>
        <time>2014-05-15T09:55:43Z</time>
      </trkpt>
      <trkpt lat="48.83805" lon="2.42395">
        <ele>42</ele>
        <time>2014-05-15T09:55:44Z</time>
      </trkpt>
      <trkpt lat="48.83804" lon="2.42393">
        <ele>42</ele>
        <time>2014-05-15T09:55:45Z</time>
      </trkpt>
      <trkpt lat="48.83804" lon="2.4239">
        <ele>43</ele>
        <time>2014-05-15T09:55:46Z</time>
      </trkpt>
      <trkpt lat="48.83803" lon="2.42389">
        <ele>42</ele>
        <time>2014-05-15T09:55:47Z</time>
      </trkpt>
      <trkpt lat="48.83802" lon="2.42386">
        <ele>43</ele>
        <time>2014-05-15T09:55:48Z</time>
      </trkpt>
      <trkpt lat="48.83801" lon="2.42384">
        <ele>43</ele>
        <time>2014-05-15T09:55:49Z</time>
      </trkpt>
      <trkpt lat="48.83801" lon="2.42381">
        <ele>43</ele>
        <time>2014-05-15T09:55:50Z</time>
      </trkpt>
      <trkpt lat="48.838" lon="2.4238">
        <ele>43</ele>
        <time>2014-05-15T09:55:51Z</time>
      </trkpt>
      <trkpt lat="48.838" lon="2.42377">
        <ele>44</ele>
        <time>2014-05-15T09:55:52Z</time>
      </trkpt>
      <trkpt lat="48.838" lon="2.42376">
        <ele>43</ele>
        <time>2014-05-15T09:55:53Z</time>
      </trkpt>
      <trkpt lat="48.838" lon="2.42374">
        <ele>43</ele>
        <time>2014-05-15T09:55:54Z</time>
      </trkpt>
      <trkpt lat="48.838" lon="2.42373">
        <ele>43</ele>
        <time>2014-05-15T09:55:55Z</time>
      </trkpt>
      <trkpt lat="48.83799" lon="2.42371">
        <ele>44</ele>
        <time>2014-05-15T09:55:56Z</time>
      </trkpt>
      <trkpt lat="48.83798" lon="2.4237">
        <ele>44</ele>
        <time>2014-05-15T09:55:57Z</time>
      </trkpt>
      <trkpt lat="48.83797" lon="2.42369">
        <ele>43</ele>
        <time>2014-05-15T09:55:58Z</time>
      </trkpt>
      <trkpt lat="48.83797" lon="2.42367">
        <ele>43</ele>
        <time>2014-05-15T09:55:59Z</time>
      </trkpt>
      <trkpt lat="48.83797" lon="2.42366">
        <ele>44</ele>
        <time>2014-05-15T09:56:00Z</time>
      </trkpt>
      <trkpt lat="48.83797" lon="2.42364">
        <ele>44</ele>
        <time>2014-05-15T09:56:01Z</time>
      </trkpt>
      <trkpt lat="48.83796" lon="2.42363">
        <ele>44</ele>
        <time>2014-05-15T09:56:02Z</time>
      </trkpt>
      <trkpt lat="48.83795" lon="2.42361">
        <ele>44</ele>
        <time>2014-05-15T09:56:03Z</time>
      </trkpt>
      <trkpt lat="48.83794" lon="2.4236">
        <ele>45</ele>
        <time>2014-05-15T09:56:04Z</time>
      </trkpt>
      <trkpt lat="48.83793" lon="2.42358">
        <ele>45</ele>
        <time>2014-05-15T09:56:05Z</time>
      </trkpt>
      <trkpt lat="48.83792" lon="2.42356">
        <ele>45</ele>
        <time>2014-05-15T09:56:06Z</time>
      </trkpt>
      <trkpt lat="48.83792" lon="2.42355">
        <ele>45</ele>
        <time>2014-05-15T09:56:07Z</time>
      </trkpt>
      <trkpt lat="48.83791" lon="2.42353">
        <ele>44</ele>
        <time>2014-05-15T09:56:08Z</time>
      </trkpt>
      <trkpt lat="48.8379" lon="2.42352">
        <ele>43</ele>
        <time>2014-05-15T09:56:09Z</time>
      </trkpt>
      <trkpt lat="48.83789" lon="2.4235">
        <ele>43</ele>
        <time>2014-05-15T09:56:10Z</time>
      </trkpt>
      <trkpt lat="48.83789" lon="2.42349">
        <ele>42</ele>
        <time>2014-05-15T09:56:11Z</time>
      </trkpt>
      <trkpt lat="48.8379" lon="2.42348">
        <ele>43</ele>
        <time>2014-05-15T09:56:12Z</time>
      </trkpt>
      <trkpt lat="48.83791" lon="2.42348">
        <ele>42</ele>
        <time>2014-05-15T09:56:13Z</time>
      </trkpt>
      <trkpt lat="48.83792" lon="2.42347">
        <ele>42</ele>
        <time>2014-05-15T09:56:14Z</time>
      </trkpt>
      <trkpt lat="48.83793" lon="2.42347">
        <ele>42</ele>
        <time>2014-05-15T09:56:15Z</time>
      </trkpt>
      <trkpt lat="48.83794" lon="2.42345">
        <ele>40</ele>
        <time>2014-05-15T09:56:16Z</time>
      </trkpt>
      <trkpt lat="48.83794" lon="2.42346">
        <ele>39</ele>
        <time>2014-05-15T09:56:17Z</time>
      </trkpt>
      <trkpt lat="48.83795" lon="2.42346">
        <ele>38</ele>
        <time>2014-05-15T09:56:18Z</time>
      </trkpt>
      <trkpt lat="48.83796" lon="2.42346">
        <ele>38</ele>
        <time>2014-05-15T09:56:19Z</time>
      </trkpt>
      <trkpt lat="48.83796" lon="2.42345">
        <ele>38</ele>
        <time>2014-05-15T09:56:20Z</time>
      </trkpt>
      <trkpt lat="48.83796" lon="2.42345">
        <ele>38</ele>
        <time>2014-05-15T09:56:21Z</time>
      </trkpt>
      <trkpt lat="48.83797" lon="2.42345">
        <ele>38</ele>
        <time>2014-05-15T09:56:22Z</time>
      </trkpt>
      <trkpt lat="48.83797" lon="2.42345">
        <ele>38</ele>
        <time>2014-05-15T09:56:23Z</time>
      </trkpt>
      <trkpt lat="48.83797" lon="2.42345">
        <ele>39</ele>
        <time>2014-05-15T09:56:24Z</time>
      </trkpt>
      <trkpt lat="48.83798" lon="2.42344">
        <ele>39</ele>
        <time>2014-05-15T09:56:25Z</time>
      </trkpt>
      <trkpt lat="48.83798" lon="2.42344">
        <ele>39</ele>
        <time>2014-05-15T09:56:26Z</time>
      </trkpt>
      <trkpt lat="48.83798" lon="2.42344">
        <ele>39</ele>
        <time>2014-05-15T09:56:27Z</time>
      </trkpt>
      <trkpt lat="48.83799" lon="2.42344">
        <ele>39</ele>
        <time>2014-05-15T09:56:28Z</time>
      </trkpt>
      <trkpt lat="48.83799" lon="2.42344">
        <ele>39</ele>
        <time>2014-05-15T09:56:29Z</time>
      </trkpt>
      <trkpt lat="48.83799" lon="2.42344">
        <ele>40</ele>
        <time>2014-05-15T09:56:30Z</time>
      </trkpt>
      <trkpt lat="48.83799" lon="2.42344">
        <ele>40</ele>
        <time>2014-05-15T09:56:31Z</time>
      </trkpt>
      <trkpt lat="48.83799" lon="2.42344">
        <ele>39</ele>
        <time>2014-05-15T09:56:32Z</time>
      </trkpt>
      <trkpt lat="48.83799" lon="2.42344">
        <ele>40</ele>
        <time>2014-05-15T09:56:33Z</time>
      </trkpt>
      <trkpt lat="48.83799" lon="2.42344">
        <ele>40</ele>
        <time>2014-05-15T09:56:34Z</time>
      </trkpt>
      <trkpt lat="48.83799" lon="2.42344">
        <ele>40</ele>
        <time>2014-05-15T09:56:35Z</time>
      </trkpt>
      <trkpt lat="48.83799" lon="2.42344">
        <ele>40</ele>
        <time>2014-05-15T09:56:36Z</time>
      </trkpt>
      <trkpt lat="48.83799" lon="2.42344">
        <ele>39</ele>
        <time>2014-05-15T09:56:37Z</time>
      </trkpt>
      <trkpt lat="48.83799" lon="2.42344">
        <ele>38</ele>
        <time>2014-05-15T09:56:38Z</time>
      </trkpt>
      <trkpt lat="48.838" lon="2.42343">
        <ele>38</ele>
        <time>2014-05-15T09:56:39Z</time>
      </trkpt>
      <trkpt lat="48.838" lon="2.42343">
        <ele>39</ele>
        <time>2014-05-15T09:56:40Z</time>
      </trkpt>
      <trkpt lat="48.838" lon="2.42342">
        <ele>39</ele>
        <time>2014-05-15T09:56:41Z</time>
      </trkpt>
      <trkpt lat="48.83801" lon="2.42343">
        <ele>37</ele>
        <time>2014-05-15T09:56:42Z</time>
      </trkpt>
      <trkpt lat="48.83803" lon="2.42342">
        <ele>36</ele>
        <time>2014-05-15T09:56:43Z</time>
      </trkpt>
      <trkpt lat="48.83805" lon="2.42342">
        <ele>34</ele>
        <time>2014-05-15T09:56:44Z</time>
      </trkpt>
      <trkpt lat="48.83806" lon="2.42341">
        <ele>32</ele>
        <time>2014-05-15T09:56:45Z</time>
      </trkpt>
      <trkpt lat="48.83809" lon="2.4234">
        <ele>32</ele>
        <time>2014-05-15T09:56:46Z</time>
      </trkpt>
      <trkpt lat="48.83811" lon="2.42339">
        <ele>32</ele>
        <time>2014-05-15T09:56:47Z</time>
      </trkpt>
      <trkpt lat="48.83813" lon="2.42338">
        <ele>31</ele>
        <time>2014-05-15T09:56:48Z</time>
      </trkpt>
      <trkpt lat="48.83815" lon="2.42338">
        <ele>30</ele>
        <time>2014-05-15T09:56:49Z</time>
      </trkpt>
      <trkpt lat="48.83817" lon="2.42337">
        <ele>29</ele>
        <time>2014-05-15T09:56:50Z</time>
      </trkpt>
      <trkpt lat="48.83819" lon="2.42337">
        <ele>29</ele>
        <time>2014-05-15T09:56:51Z</time>
      </trkpt>
      <trkpt lat="48.83822" lon="2.42336">
        <ele>31</ele>
        <time>2014-05-15T09:56:52Z</time>
      </trkpt>
      <trkpt lat="48.83825" lon="2.42335">
        <ele>32</ele>
        <time>2014-05-15T09:56:53Z</time>
      </trkpt>
      <trkpt lat="48.83828" lon="2.42334">
        <ele>34</ele>
        <time>2014-05-15T09:56:54Z</time>
      </trkpt>
      <trkpt lat="48.83831" lon="2.42334">
        <ele>33</ele>
        <time>2014-05-15T09:56:55Z</time>
      </trkpt>
      <trkpt lat="48.83834" lon="2.42333">
        <ele>34</ele>
        <time>2014-05-15T09:56:56Z</time>
      </trkpt>
      <trkpt lat="48.83836" lon="2.42332">
        <ele>33</ele>
        <time>2014-05-15T09:56:57Z</time>
      </trkpt>
      <trkpt lat="48.83839" lon="2.42331">
        <ele>33</ele>
        <time>2014-05-15T09:56:58Z</time>
      </trkpt>
      <trkpt lat="48.83841" lon="2.4233">
        <ele>33</ele>
        <time>2014-05-15T09:56:59Z</time>
      </trkpt>
      <trkpt lat="48.83843" lon="2.4233">
        <ele>33</ele>
        <time>2014-05-15T09:57:00Z</time>
      </trkpt>
      <trkpt lat="48.83846" lon="2.42329">
        <ele>33</ele>
        <time>2014-05-15T09:57:01Z</time>
      </trkpt>
      <trkpt lat="48.83848" lon="2.42329">
        <ele>33</ele>
        <time>2014-05-15T09:57:02Z</time>
      </trkpt>
      <trkpt lat="48.8385" lon="2.42328">
        <ele>34</ele>
        <time>2014-05-15T09:57:03Z</time>
      </trkpt>
      <trkpt lat="48.83852" lon="2.42327">
        <ele>35</ele>
        <time>2014-05-15T09:57:04Z</time>
      </trkpt>
      <trkpt lat="48.83854" lon="2.42327">
        <ele>35</ele>
        <time>2014-05-15T09:57:05Z</time>
      </trkpt>
      <trkpt lat="48.83856" lon="2.42326">
        <ele>36</ele>
        <time>2014-05-15T09:57:06Z</time>
      </trkpt>
      <trkpt lat="48.83858" lon="2.42326">
        <ele>36</ele>
        <time>2014-05-15T09:57:07Z</time>
      </trkpt>
      <trkpt lat="48.8386" lon="2.42325">
        <ele>37</ele>
        <time>2014-05-15T09:57:08Z</time>
      </trkpt>
      <trkpt lat="48.83862" lon="2.42325">
        <ele>38</ele>
        <time>2014-05-15T09:57:09Z</time>
      </trkpt>
      <trkpt lat="48.83864" lon="2.42325">
        <ele>39</ele>
        <time>2014-05-15T09:57:10Z</time>
      </trkpt>
      <trkpt lat="48.83865" lon="2.42324">
        <ele>39</ele>
        <time>2014-05-15T09:57:11Z</time>
      </trkpt>
      <trkpt lat="48.83867" lon="2.42324">
        <ele>37</ele>
        <time>2014-05-15T09:57:12Z</time>
      </trkpt>
      <trkpt lat="48.83868" lon="2.42323">
        <ele>38</ele>
        <time>2014-05-15T09:57:13Z</time>
      </trkpt>
      <trkpt lat="48.83869" lon="2.42321">
        <ele>38</ele>
        <time>2014-05-15T09:57:14Z</time>
      </trkpt>
      <trkpt lat="48.8387" lon="2.42321">
        <ele>38</ele>
        <time>2014-05-15T09:57:15Z</time>
      </trkpt>
      <trkpt lat="48.83871" lon="2.4232">
        <ele>36</ele>
        <time>2014-05-15T09:57:16Z</time>
      </trkpt>
      <trkpt lat="48.83872" lon="2.42319">
        <ele>36</ele>
        <time>2014-05-15T09:57:17Z</time>
      </trkpt>
      <trkpt lat="48.83874" lon="2.42319">
        <ele>37</ele>
        <time>2014-05-15T09:57:18Z</time>
      </trkpt>
      <trkpt lat="48.83876" lon="2.42318">
        <ele>37</ele>
        <time>2014-05-15T09:57:19Z</time>
      </trkpt>
      <trkpt lat="48.83877" lon="2.42318">
        <ele>37</ele>
        <time>2014-05-15T09:57:20Z</time>
      </trkpt>
      <trkpt lat="48.83879" lon="2.42317">
        <ele>38</ele>
        <time>2014-05-15T09:57:21Z</time>
      </trkpt>
      <trkpt lat="48.83881" lon="2.42316">
        <ele>38</ele>
        <time>2014-05-15T09:57:22Z</time>
      </trkpt>
      <trkpt lat="48.83884" lon="2.42315">
        <ele>38</ele>
        <time>2014-05-15T09:57:23Z</time>
      </trkpt>
      <trkpt lat="48.83886" lon="2.42314">
        <ele>39</ele>
        <time>2014-05-15T09:57:24Z</time>
      </trkpt>
      <trkpt lat="48.83888" lon="2.42314">
        <ele>39</ele>
        <time>2014-05-15T09:57:25Z</time>
      </trkpt>
      <trkpt lat="48.8389" lon="2.42313">
        <ele>39</ele>
        <time>2014-05-15T09:57:26Z</time>
      </trkpt>
      <trkpt lat="48.83891" lon="2.42312">
        <ele>39</ele>
        <time>2014-05-15T09:57:27Z</time>
      </trkpt>
      <trkpt lat="48.83892" lon="2.42311">
        <ele>39</ele>
        <time>2014-05-15T09:57:28Z</time>
      </trkpt>
      <trkpt lat="48.83893" lon="2.4231">
        <ele>40</ele>
        <time>2014-05-15T09:57:29Z</time>
      </trkpt>
      <trkpt lat="48.83893" lon="2.42308">
        <ele>40</ele>
        <time>2014-05-15T09:57:30Z</time>
      </trkpt>
      <trkpt lat="48.83894" lon="2.42307">
        <ele>40</ele>
        <time>2014-05-15T09:57:31Z</time>
      </trkpt>
      <trkpt lat="48.83894" lon="2.42306">
        <ele>39</ele>
        <time>2014-05-15T09:57:32Z</time>
      </trkpt>
      <trkpt lat="48.83895" lon="2.42304">
        <ele>39</ele>
        <time>2014-05-15T09:57:33Z</time>
      </trkpt>
      <trkpt lat="48.83895" lon="2.42303">
        <ele>40</ele>
        <time>2014-05-15T09:57:34Z</time>
      </trkpt>
      <trkpt lat="48.83895" lon="2.42301">
        <ele>40</ele>
        <time>2014-05-15T09:57:35Z</time>
      </trkpt>
      <trkpt lat="48.83895" lon="2.42299">
        <ele>41</ele>
        <time>2014-05-15T09:57:36Z</time>
      </trkpt>
      <trkpt lat="48.83895" lon="2.42297">
        <ele>42</ele>
        <time>2014-05-15T09:57:37Z</time>
      </trkpt>
      <trkpt lat="48.83895" lon="2.42295">
        <ele>40</ele>
        <time>2014-05-15T09:57:38Z</time>
      </trkpt>
      <trkpt lat="48.83894" lon="2.42294">
        <ele>39</ele>
        <time>2014-05-15T09:57:39Z</time>
      </trkpt>
      <trkpt lat="48.83894" lon="2.42291">
        <ele>39</ele>
        <time>2014-05-15T09:57:40Z</time>
      </trkpt>
      <trkpt lat="48.83893" lon="2.4229">
        <ele>38</ele>
        <time>2014-05-15T09:57:41Z</time>
      </trkpt>
      <trkpt lat="48.83894" lon="2.42288">
        <ele>38</ele>
        <time>2014-05-15T09:57:42Z</time>
      </trkpt>
      <trkpt lat="48.83894" lon="2.42288">
        <ele>39</ele>
        <time>2014-05-15T09:57:43Z</time>
      </trkpt>
      <trkpt lat="48.83896" lon="2.42287">
        <ele>39</ele>
        <time>2014-05-15T09:57:44Z</time>
      </trkpt>
      <trkpt lat="48.83897" lon="2.42287">
        <ele>41</ele>
        <time>2014-05-15T09:57:45Z</time>
      </trkpt>
      <trkpt lat="48.83898" lon="2.42287">
        <ele>40</ele>
        <time>2014-05-15T09:57:46Z</time>
      </trkpt>
      <trkpt lat="48.839" lon="2.42287">
        <ele>41</ele>
        <time>2014-05-15T09:57:47Z</time>
      </trkpt>
      <trkpt lat="48.83901" lon="2.42288">
        <ele>41</ele>
        <time>2014-05-15T09:57:48Z</time>
      </trkpt>
      <trkpt lat="48.83902" lon="2.42288">
        <ele>41</ele>
        <time>2014-05-15T09:57:49Z</time>
      </trkpt>
      <trkpt lat="48.83903" lon="2.42289">
        <ele>41</ele>
        <time>2014-05-15T09:57:50Z</time>
      </trkpt>
      <trkpt lat="48.83905" lon="2.4229">
        <ele>42</ele>
        <time>2014-05-15T09:57:51Z</time>
      </trkpt>
      <trkpt lat="48.83906" lon="2.42291">
        <ele>42</ele>
        <time>2014-05-15T09:57:52Z</time>
      </trkpt>
      <trkpt lat="48.83907" lon="2.42291">
        <ele>42</ele>
        <time>2014-05-15T09:57:53Z</time>
      </trkpt>
      <trkpt lat="48.83908" lon="2.42292">
        <ele>41</ele>
        <time>2014-05-15T09:57:54Z</time>
      </trkpt>
      <trkpt lat="48.8391" lon="2.42293">
        <ele>42</ele>
        <time>2014-05-15T09:57:55Z</time>
      </trkpt>
      <trkpt lat="48.83911" lon="2.42293">
        <ele>42</ele>
        <time>2014-05-15T09:57:56Z</time>
      </trkpt>
      <trkpt lat="48.83912" lon="2.42295">
        <ele>43</ele>
        <time>2014-05-15T09:57:57Z</time>
      </trkpt>
      <trkpt lat="48.83913" lon="2.42296">
        <ele>42</ele>
        <time>2014-05-15T09:57:58Z</time>
      </trkpt>
      <trkpt lat="48.83914" lon="2.42296">
        <ele>43</ele>
        <time>2014-05-15T09:57:59Z</time>
      </trkpt>
      <trkpt lat="48.83916" lon="2.42297">
        <ele>42</ele>
        <time>2014-05-15T09:58:00Z</time>
      </trkpt>
      <trkpt lat="48.83917" lon="2.42297">
        <ele>42</ele>
        <time>2014-05-15T09:58:01Z</time>
      </trkpt>
      <trkpt lat="48.83918" lon="2.42298">
        <ele>41</ele>
        <time>2014-05-15T09:58:02Z</time>
      </trkpt>
      <trkpt lat="48.83919" lon="2.42298">
        <ele>41</ele>
        <time>2014-05-15T09:58:03Z</time>
      </trkpt>
      <trkpt lat="48.83921" lon="2.42298">
        <ele>41</ele>
        <time>2014-05-15T09:58:04Z</time>
      </trkpt>
      <trkpt lat="48.83922" lon="2.42298">
        <ele>40</ele>
        <time>2014-05-15T09:58:05Z</time>
      </trkpt>
      <trkpt lat="48.83923" lon="2.42298">
        <ele>41</ele>
        <time>2014-05-15T09:58:06Z</time>
      </trkpt>
      <trkpt lat="48.83924" lon="2.42298">
        <ele>42</ele>
        <time>2014-05-15T09:58:07Z</time>
      </trkpt>
      <trkpt lat="48.83925" lon="2.42298">
        <ele>42</ele>
        <time>2014-05-15T09:58:08Z</time>
      </trkpt>
      <trkpt lat="48.83926" lon="2.42297">
        <ele>42</ele>
        <time>2014-05-15T09:58:09Z</time>
      </trkpt>
      <trkpt lat="48.83928" lon="2.42297">
        <ele>41</ele>
        <time>2014-05-15T09:58:10Z</time>
      </trkpt>
      <trkpt lat="48.83929" lon="2.42297">
        <ele>41</ele>
        <time>2014-05-15T09:58:11Z</time>
      </trkpt>
      <trkpt lat="48.83931" lon="2.42297">
        <ele>41</ele>
        <time>2014-05-15T09:58:12Z</time>
      </trkpt>
      <trkpt lat="48.83932" lon="2.42297">
        <ele>42</ele>
        <time>2014-05-15T09:58:13Z</time>
      </trkpt>
      <trkpt lat="48.83933" lon="2.42298">
        <ele>43</ele>
        <time>2014-05-15T09:58:14Z</time>
      </trkpt>
      <trkpt lat="48.83934" lon="2.42298">
        <ele>42</ele>
        <time>2014-05-15T09:58:15Z</time>
      </trkpt>
      <trkpt lat="48.83935" lon="2.42298">
        <ele>42</ele>
        <time>2014-05-15T09:58:16Z</time>
      </trkpt>
      <trkpt lat="48.83935" lon="2.42299">
        <ele>43</ele>
        <time>2014-05-15T09:58:17Z</time>
      </trkpt>
      <trkpt lat="48.83936" lon="2.42299">
        <ele>43</ele>
        <time>2014-05-15T09:58:18Z</time>
      </trkpt>
      <trkpt lat="48.83937" lon="2.42299">
        <ele>43</ele>
        <time>2014-05-15T09:58:19Z</time>
      </trkpt>
      <trkpt lat="48.83938" lon="2.42299">
        <ele>43</ele>
        <time>2014-05-15T09:58:20Z</time>
      </trkpt>
      <trkpt lat="48.83939" lon="2.42299">
        <ele>43</ele>
        <time>2014-05-15T09:58:21Z</time>
      </trkpt>
      <trkpt lat="48.8394" lon="2.42299">
        <ele>42</ele>
        <time>2014-05-15T09:58:22Z</time>
      </trkpt>
      <trkpt lat="48.83941" lon="2.42299">
        <ele>41</ele>
        <time>2014-05-15T09:58:23Z</time>
      </trkpt>
      <trkpt lat="48.83943" lon="2.42299">
        <ele>41</ele>
        <time>2014-05-15T09:58:24Z</time>
      </trkpt>
      <trkpt lat="48.83944" lon="2.42299">
        <ele>41</ele>
        <time>2014-05-15T09:58:25Z</time>
      </trkpt>
      <trkpt lat="48.83945" lon="2.42299">
        <ele>41</ele>
        <time>2014-05-15T09:58:26Z</time>
      </trkpt>
      <trkpt lat="48.83946" lon="2.42298">
        <ele>41</ele>
        <time>2014-05-15T09:58:27Z</time>
      </trkpt>
      <trkpt lat="48.83948" lon="2.42298">
        <ele>41</ele>
        <time>2014-05-15T09:58:28Z</time>
      </trkpt>
      <trkpt lat="48.83949" lon="2.42298">
        <ele>41</ele>
        <time>2014-05-15T09:58:29Z</time>
      </trkpt>
      <trkpt lat="48.83951" lon="2.42298">
        <ele>41</ele>
        <time>2014-05-15T09:58:30Z</time>
      </trkpt>
      <trkpt lat="48.83952" lon="2.42297">
        <ele>42</ele>
        <time>2014-05-15T09:58:31Z</time>
      </trkpt>
      <trkpt lat="48.83953" lon="2.42297">
        <ele>42</ele>
        <time>2014-05-15T09:58:32Z</time>
      </trkpt>
      <trkpt lat="48.83954" lon="2.42297">
        <ele>42</ele>
        <time>2014-05-15T09:58:33Z</time>
      </trkpt>
      <trkpt lat="48.83955" lon="2.42297">
        <ele>42</ele>
        <time>2014-05-15T09:58:34Z</time>
      </trkpt>
      <trkpt lat="48.83956" lon="2.42297">
        <ele>43</ele>
        <time>2014-05-15T09:58:35Z</time>
      </trkpt>
      <trkpt lat="48.83957" lon="2.42297">
        <ele>44</ele>
        <time>2014-05-15T09:58:36Z</time>
      </trkpt>
      <trkpt lat="48.83959" lon="2.42298">
        <ele>45</ele>
        <time>2014-05-15T09:58:37Z</time>
      </trkpt>
      <trkpt lat="48.8396" lon="2.42298">
        <ele>45</ele>
        <time>2014-05-15T09:58:38Z</time>
      </trkpt>
      <trkpt lat="48.83962" lon="2.42298">
        <ele>44</ele>
        <time>2014-05-15T09:58:39Z</time>
      </trkpt>
      <trkpt lat="48.83963" lon="2.42298">
        <ele>45</ele>
        <time>2014-05-15T09:58:40Z</time>
      </trkpt>
      <trkpt lat="48.83964" lon="2.42299">
        <ele>46</ele>
        <time>2014-05-15T09:58:41Z</time>
      </trkpt>
      <trkpt lat="48.83965" lon="2.42299">
        <ele>47</ele>
        <time>2014-05-15T09:58:42Z</time>
      </trkpt>
      <trkpt lat="48.83965" lon="2.42299">
        <ele>47</ele>
        <time>2014-05-15T09:58:43Z</time>
      </trkpt>
      <trkpt lat="48.83965" lon="2.42299">
        <ele>47</ele>
        <time>2014-05-15T09:58:44Z</time>
      </trkpt>
      <trkpt lat="48.83965" lon="2.42299">
        <ele>48</ele>
        <time>2014-05-15T09:58:45Z</time>
      </trkpt>
      <trkpt lat="48.83965" lon="2.42299">
        <ele>48</ele>
        <time>2014-05-15T09:58:46Z</time>
      </trkpt>
      <trkpt lat="48.83966" lon="2.42299">
        <ele>48</ele>
        <time>2014-05-15T09:58:47Z</time>
      </trkpt>
      <trkpt lat="48.83966" lon="2.423">
        <ele>49</ele>
        <time>2014-05-15T09:58:48Z</time>
      </trkpt>
      <trkpt lat="48.83967" lon="2.42301">
        <ele>49</ele>
        <time>2014-05-15T09:58:49Z</time>
      </trkpt>
      <trkpt lat="48.83967" lon="2.42302">
        <ele>49</ele>
        <time>2014-05-15T09:58:50Z</time>
      </trkpt>
      <trkpt lat="48.83969" lon="2.42303">
        <ele>49</ele>
        <time>2014-05-15T09:58:51Z</time>
      </trkpt>
      <trkpt lat="48.83971" lon="2.42303">
        <ele>49</ele>
        <time>2014-05-15T09:58:52Z</time>
      </trkpt>
      <trkpt lat="48.83971" lon="2.42304">
        <ele>49</ele>
        <time>2014-05-15T09:58:53Z</time>
      </trkpt>
      <trkpt lat="48.83974" lon="2.42304">
        <ele>48</ele>
        <time>2014-05-15T09:58:54Z</time>
      </trkpt>
      <trkpt lat="48.83975" lon="2.42305">
        <ele>48</ele>
        <time>2014-05-15T09:58:55Z</time>
      </trkpt>
      <trkpt lat="48.83976" lon="2.42305">
        <ele>49</ele>
        <time>2014-05-15T09:58:56Z</time>
      </trkpt>
      <trkpt lat="48.83977" lon="2.42306">
        <ele>50</ele>
        <time>2014-05-15T09:58:57Z</time>
      </trkpt>
      <trkpt lat="48.83977" lon="2.42307">
        <ele>49</ele>
        <time>2014-05-15T09:58:58Z</time>
      </trkpt>
      <trkpt lat="48.83979" lon="2.42308">
        <ele>46</ele>
        <time>2014-05-15T09:58:59Z</time>
      </trkpt>
      <trkpt lat="48.83981" lon="2.42308">
        <ele>47</ele>
        <time>2014-05-15T09:59:00Z</time>
      </trkpt>
      <trkpt lat="48.83983" lon="2.42309">
        <ele>47</ele>
        <time>2014-05-15T09:59:01Z</time>
      </trkpt>
      <trkpt lat="48.83984" lon="2.4231">
        <ele>48</ele>
        <time>2014-05-15T09:59:02Z</time>
      </trkpt>
      <trkpt lat="48.83986" lon="2.4231">
        <ele>49</ele>
        <time>2014-05-15T09:59:03Z</time>
      </trkpt>
      <trkpt lat="48.83988" lon="2.4231">
        <ele>50</ele>
        <time>2014-05-15T09:59:04Z</time>
      </trkpt>
      <trkpt lat="48.8399" lon="2.4231">
        <ele>43</ele>
        <time>2014-05-15T09:59:05Z</time>
      </trkpt>
      <trkpt lat="48.83991" lon="2.4231">
        <ele>43</ele>
        <time>2014-05-15T09:59:06Z</time>
      </trkpt>
      <trkpt lat="48.83993" lon="2.42311">
        <ele>43</ele>
        <time>2014-05-15T09:59:07Z</time>
      </trkpt>
      <trkpt lat="48.83994" lon="2.42311">
        <ele>43</ele>
        <time>2014-05-15T09:59:08Z</time>
      </trkpt>
      <trkpt lat="48.83997" lon="2.42312">
        <ele>44</ele>
        <time>2014-05-15T09:59:09Z</time>
      </trkpt>
      <trkpt lat="48.83999" lon="2.42312">
        <ele>43</ele>
        <time>2014-05-15T09:59:10Z</time>
      </trkpt>
      <trkpt lat="48.84001" lon="2.42313">
        <ele>46</ele>
        <time>2014-05-15T09:59:11Z</time>
      </trkpt>
      <trkpt lat="48.84002" lon="2.42313">
        <ele>44</ele>
        <time>2014-05-15T09:59:12Z</time>
      </trkpt>
      <trkpt lat="48.84003" lon="2.42313">
        <ele>44</ele>
        <time>2014-05-15T09:59:13Z</time>
      </trkpt>
      <trkpt lat="48.84005" lon="2.42313">
        <ele>43</ele>
        <time>2014-05-15T09:59:14Z</time>
      </trkpt>
      <trkpt lat="48.84007" lon="2.42313">
        <ele>42</ele>
        <time>2014-05-15T09:59:15Z</time>
      </trkpt>
      <trkpt lat="48.84008" lon="2.42313">
        <ele>43</ele>
        <time>2014-05-15T09:59:16Z</time>
      </trkpt>
      <trkpt lat="48.84009" lon="2.42313">
        <ele>42</ele>
        <time>2014-05-15T09:59:17Z</time>
      </trkpt>
      <trkpt lat="48.8401" lon="2.42313">
        <ele>42</ele>
        <time>2014-05-15T09:59:18Z</time>
      </trkpt>
      <trkpt lat="48.84012" lon="2.42314">
        <ele>42</ele>
        <time>2014-05-15T09:59:19Z</time>
      </trkpt>
      <trkpt lat="48.84013" lon="2.42314">
        <ele>42</ele>
        <time>2014-05-15T09:59:20Z</time>
      </trkpt>
      <trkpt lat="48.84014" lon="2.42314">
        <ele>42</ele>
        <time>2014-05-15T09:59:21Z</time>
      </trkpt>
      <trkpt lat="48.84015" lon="2.42313">
        <ele>43</ele>
        <time>2014-05-15T09:59:22Z</time>
      </trkpt>
      <trkpt lat="48.84015" lon="2.42313">
        <ele>44</ele>
        <time>2014-05-15T09:59:23Z</time>
      </trkpt>
      <trkpt lat="48.84016" lon="2.42312">
        <ele>45</ele>
        <time>2014-05-15T09:59:24Z</time>
      </trkpt>
      <trkpt lat="48.84017" lon="2.42312">
        <ele>46</ele>
        <time>2014-05-15T09:59:25Z</time>
      </trkpt>
      <trkpt lat="48.84017" lon="2.42313">
        <ele>46</ele>
        <time>2014-05-15T09:59:26Z</time>
      </trkpt>
      <trkpt lat="48.84017" lon="2.42313">
        <ele>46</ele>
        <time>2014-05-15T09:59:27Z</time>
      </trkpt>
      <trkpt lat="48.84018" lon="2.42313">
        <ele>47</ele>
        <time>2014-05-15T09:59:28Z</time>
      </trkpt>
      <trkpt lat="48.84018" lon="2.42313">
        <ele>47</ele>
        <time>2014-05-15T09:59:29Z</time>
      </trkpt>
      <trkpt lat="48.84019" lon="2.42313">
        <ele>47</ele>
        <time>2014-05-15T09:59:30Z</time>
      </trkpt>
      <trkpt lat="48.8402" lon="2.42313">
        <ele>47</ele>
        <time>2014-05-15T09:59:31Z</time>
      </trkpt>
      <trkpt lat="48.84022" lon="2.42312">
        <ele>46</ele>
        <time>2014-05-15T09:59:32Z</time>
      </trkpt>
      <trkpt lat="48.84023" lon="2.42312">
        <ele>46</ele>
        <time>2014-05-15T09:59:33Z</time>
      </trkpt>
      <trkpt lat="48.84025" lon="2.42312">
        <ele>46</ele>
        <time>2014-05-15T09:59:34Z</time>
      </trkpt>
      <trkpt lat="48.84026" lon="2.42312">
        <ele>46</ele>
        <time>2014-05-15T09:59:35Z</time>
      </trkpt>
      <trkpt lat="48.84027" lon="2.42313">
        <ele>46</ele>
        <time>2014-05-15T09:59:36Z</time>
      </trkpt>
      <trkpt lat="48.8403" lon="2.42313">
        <ele>44</ele>
        <time>2014-05-15T09:59:37Z</time>
      </trkpt>
      <trkpt lat="48.84032" lon="2.42313">
        <ele>44</ele>
        <time>2014-05-15T09:59:38Z</time>
      </trkpt>
      <trkpt lat="48.84035" lon="2.42313">
        <ele>44</ele>
        <time>2014-05-15T09:59:39Z</time>
      </trkpt>
      <trkpt lat="48.84037" lon="2.42313">
        <ele>43</ele>
        <time>2014-05-15T09:59:40Z</time>
      </trkpt>
      <trkpt lat="48.84039" lon="2.42313">
        <ele>43</ele>
        <time>2014-05-15T09:59:41Z</time>
      </trkpt>
      <trkpt lat="48.84041" lon="2.42313">
        <ele>43</ele>
        <time>2014-05-15T09:59:42Z</time>
      </trkpt>
      <trkpt lat="48.84042" lon="2.42313">
        <ele>45</ele>
        <time>2014-05-15T09:59:43Z</time>
      </trkpt>
      <trkpt lat="48.84043" lon="2.42313">
        <ele>44</ele>
        <time>2014-05-15T09:59:44Z</time>
      </trkpt>
      <trkpt lat="48.84045" lon="2.42313">
        <ele>45</ele>
        <time>2014-05-15T09:59:45Z</time>
      </trkpt>
      <trkpt lat="48.84046" lon="2.42313">
        <ele>45</ele>
        <time>2014-05-15T09:59:46Z</time>
      </trkpt>
      <trkpt lat="48.84047" lon="2.42313">
        <ele>44</ele>
        <time>2014-05-15T09:59:47Z</time>
      </trkpt>
      <trkpt lat="48.84049" lon="2.42314">
        <ele>43</ele>
        <time>2014-05-15T09:59:48Z</time>
      </trkpt>
      <trkpt lat="48.84052" lon="2.42314">
        <ele>44</ele>
        <time>2014-05-15T09:59:49Z</time>
      </trkpt>
      <trkpt lat="48.84054" lon="2.42314">
        <ele>43</ele>
        <time>2014-05-15T09:59:50Z</time>
      </trkpt>
      <trkpt lat="48.84055" lon="2.42314">
        <ele>43</ele>
        <time>2014-05-15T09:59:51Z</time>
      </trkpt>
      <trkpt lat="48.84057" lon="2.42315">
        <ele>41</ele>
        <time>2014-05-15T09:59:52Z</time>
      </trkpt>
      <trkpt lat="48.84059" lon="2.42315">
        <ele>41</ele>
        <time>2014-05-15T09:59:53Z</time>
      </trkpt>
      <trkpt lat="48.8406" lon="2.42315">
        <ele>40</ele>
        <time>2014-05-15T09:59:54Z</time>
      </trkpt>
      <trkpt lat="48.84062" lon="2.42315">
        <ele>40</ele>
        <time>2014-05-15T09:59:55Z</time>
      </trkpt>
      <trkpt lat="48.84063" lon="2.42315">
        <ele>41</ele>
        <time>2014-05-15T09:59:56Z</time>
      </trkpt>
      <trkpt lat="48.84064" lon="2.42315">
        <ele>40</ele>
        <time>2014-05-15T09:59:57Z</time>
      </trkpt>
      <trkpt lat="48.84065" lon="2.42315">
        <ele>41</ele>
        <time>2014-05-15T09:59:58Z</time>
      </trkpt>
      <trkpt lat="48.84067" lon="2.42315">
        <ele>40</ele>
        <time>2014-05-15T09:59:59Z</time>
      </trkpt>
      <trkpt lat="48.84068" lon="2.42314">
        <ele>38</ele>
        <time>2014-05-15T10:00:00Z</time>
      </trkpt>
      <trkpt lat="48.8407" lon="2.42313">
        <ele>37</ele>
        <time>2014-05-15T10:00:01Z</time>
      </trkpt>
      <trkpt lat="48.84071" lon="2.42312">
        <ele>37</ele>
        <time>2014-05-15T10:00:02Z</time>
      </trkpt>
      <trkpt lat="48.84072" lon="2.42312">
        <ele>36</ele>
        <time>2014-05-15T10:00:03Z</time>
      </trkpt>
      <trkpt lat="48.84072" lon="2.42312">
        <ele>35</ele>
        <time>2014-05-15T10:00:04Z</time>
      </trkpt>
      <trkpt lat="48.84073" lon="2.42311">
        <ele>36</ele>
        <time>2014-05-15T10:00:05Z</time>
      </trkpt>
      <trkpt lat="48.84074" lon="2.42311">
        <ele>37</ele>
        <time>2014-05-15T10:00:06Z</time>
      </trkpt>
      <trkpt lat="48.84076" lon="2.42311">
        <ele>38</ele>
        <time>2014-05-15T10:00:07Z</time>
      </trkpt>
      <trkpt lat="48.84077" lon="2.4231">
        <ele>37</ele>
        <time>2014-05-15T10:00:08Z</time>
      </trkpt>
      <trkpt lat="48.84078" lon="2.4231">
        <ele>36</ele>
        <time>2014-05-15T10:00:09Z</time>
      </trkpt>
      <trkpt lat="48.84079" lon="2.42311">
        <ele>38</ele>
        <time>2014-05-15T10:00:10Z</time>
      </trkpt>
      <trkpt lat="48.8408" lon="2.42311">
        <ele>37</ele>
        <time>2014-05-15T10:00:11Z</time>
      </trkpt>
      <trkpt lat="48.84082" lon="2.42311">
        <ele>36</ele>
        <time>2014-05-15T10:00:12Z</time>
      </trkpt>
      <trkpt lat="48.84083" lon="2.42311">
        <ele>37</ele>
        <time>2014-05-15T10:00:13Z</time>
      </trkpt>
      <trkpt lat="48.84085" lon="2.42311">
        <ele>38</ele>
        <time>2014-05-15T10:00:14Z</time>
      </trkpt>
      <trkpt lat="48.84086" lon="2.42311">
        <ele>40</ele>
        <time>2014-05-15T10:00:15Z</time>
      </trkpt>
      <trkpt lat="48.84088" lon="2.42311">
        <ele>40</ele>
        <time>2014-05-15T10:00:16Z</time>
      </trkpt>
      <trkpt lat="48.84089" lon="2.4231">
        <ele>40</ele>
        <time>2014-05-15T10:00:17Z</time>
      </trkpt>
      <trkpt lat="48.84091" lon="2.4231">
        <ele>40</ele>
        <time>2014-05-15T10:00:18Z</time>
      </trkpt>
      <trkpt lat="48.84092" lon="2.4231">
        <ele>41</ele>
        <time>2014-05-15T10:00:19Z</time>
      </trkpt>
      <trkpt lat="48.84093" lon="2.4231">
        <ele>40</ele>
        <time>2014-05-15T10:00:20Z</time>
      </trkpt>
      <trkpt lat="48.84094" lon="2.4231">
        <ele>41</ele>
        <time>2014-05-15T10:00:21Z</time>
      </trkpt>
      <trkpt lat="48.84095" lon="2.4231">
        <ele>42</ele>
        <time>2014-05-15T10:00:22Z</time>
      </trkpt>
      <trkpt lat="48.84096" lon="2.42311">
        <ele>42</ele>
        <time>2014-05-15T10:00:23Z</time>
      </trkpt>
      <trkpt lat="48.84098" lon="2.42311">
        <ele>42</ele>
        <time>2014-05-15T10:00:24Z</time>
      </trkpt>
      <trkpt lat="48.84099" lon="2.42311">
        <ele>41</ele>
        <time>2014-05-15T10:00:25Z</time>
      </trkpt>
      <trkpt lat="48.841" lon="2.42312">
        <ele>41</ele>
        <time>2014-05-15T10:00:26Z</time>
      </trkpt>
      <trkpt lat="48.84101" lon="2.42312">
        <ele>41</ele>
        <time>2014-05-15T10:00:27Z</time>
      </trkpt>
      <trkpt lat="48.84101" lon="2.42312">
        <ele>41</ele>
        <time>2014-05-15T10:00:28Z</time>
      </trkpt>
      <trkpt lat="48.84102" lon="2.42312">
        <ele>40</ele>
        <time>2014-05-15T10:00:29Z</time>
      </trkpt>
      <trkpt lat="48.84103" lon="2.42313">
        <ele>40</ele>
        <time>2014-05-15T10:00:30Z</time>
      </trkpt>
      <trkpt lat="48.84104" lon="2.42315">
        <ele>40</ele>
        <time>2014-05-15T10:00:31Z</time>
      </trkpt>
      <trkpt lat="48.84104" lon="2.42316">
        <ele>40</ele>
        <time>2014-05-15T10:00:32Z</time>
      </trkpt>
      <trkpt lat="48.84104" lon="2.42318">
        <ele>41</ele>
        <time>2014-05-15T10:00:33Z</time>
      </trkpt>
      <trkpt lat="48.84105" lon="2.4232">
        <ele>41</ele>
        <time>2014-05-15T10:00:34Z</time>
      </trkpt>
      <trkpt lat="48.84105" lon="2.42322">
        <ele>41</ele>
        <time>2014-05-15T10:00:35Z</time>
      </trkpt>
      <trkpt lat="48.84105" lon="2.42323">
        <ele>41</ele>
        <time>2014-05-15T10:00:36Z</time>
      </trkpt>
      <trkpt lat="48.84105" lon="2.42325">
        <ele>40</ele>
        <time>2014-05-15T10:00:37Z</time>
      </trkpt>
      <trkpt lat="48.84105" lon="2.42326">
        <ele>40</ele>
        <time>2014-05-15T10:00:38Z</time>
      </trkpt>
      <trkpt lat="48.84105" lon="2.42328">
        <ele>41</ele>
        <time>2014-05-15T10:00:39Z</time>
      </trkpt>
      <trkpt lat="48.84105" lon="2.4233">
        <ele>40</ele>
        <time>2014-05-15T10:00:40Z</time>
      </trkpt>
      <trkpt lat="48.84106" lon="2.42332">
        <ele>40</ele>
        <time>2014-05-15T10:00:41Z</time>
      </trkpt>
      <trkpt lat="48.84106" lon="2.42334">
        <ele>40</ele>
        <time>2014-05-15T10:00:42Z</time>
      </trkpt>
      <trkpt lat="48.84107" lon="2.42335">
        <ele>41</ele>
        <time>2014-05-15T10:00:43Z</time>
      </trkpt>
      <trkpt lat="48.84108" lon="2.42336">
        <ele>42</ele>
        <time>2014-05-15T10:00:44Z</time>
      </trkpt>
      <trkpt lat="48.84108" lon="2.42338">
        <ele>42</ele>
        <time>2014-05-15T10:00:45Z</time>
      </trkpt>
      <trkpt lat="48.84109" lon="2.4234">
        <ele>43</ele>
        <time>2014-05-15T10:00:46Z</time>
      </trkpt>
      <trkpt lat="48.84109" lon="2.42342">
        <ele>43</ele>
        <time>2014-05-15T10:00:47Z</time>
      </trkpt>
      <trkpt lat="48.84109" lon="2.42344">
        <ele>43</ele>
        <time>2014-05-15T10:00:48Z</time>
      </trkpt>
      <trkpt lat="48.84109" lon="2.42346">
        <ele>43</ele>
        <time>2014-05-15T10:00:49Z</time>
      </trkpt>
      <trkpt lat="48.84109" lon="2.42348">
        <ele>44</ele>
        <time>2014-05-15T10:00:50Z</time>
      </trkpt>
      <trkpt lat="48.84109" lon="2.4235">
        <ele>43</ele>
        <time>2014-05-15T10:00:51Z</time>
      </trkpt>
      <trkpt lat="48.84109" lon="2.42352">
        <ele>41</ele>
        <time>2014-05-15T10:00:52Z</time>
      </trkpt>
      <trkpt lat="48.84109" lon="2.42353">
        <ele>41</ele>
        <time>2014-05-15T10:00:53Z</time>
      </trkpt>
      <trkpt lat="48.84108" lon="2.42355">
        <ele>42</ele>
        <time>2014-05-15T10:00:54Z</time>
      </trkpt>
      <trkpt lat="48.84108" lon="2.42357">
        <ele>43</ele>
        <time>2014-05-15T10:00:55Z</time>
      </trkpt>
      <trkpt lat="48.84107" lon="2.42361">
        <ele>43</ele>
        <time>2014-05-15T10:00:56Z</time>
      </trkpt>
      <trkpt lat="48.84106" lon="2.42362">
        <ele>43</ele>
        <time>2014-05-15T10:00:57Z</time>
      </trkpt>
      <trkpt lat="48.84106" lon="2.42364">
        <ele>42</ele>
        <time>2014-05-15T10:00:58Z</time>
      </trkpt>
      <trkpt lat="48.84106" lon="2.42365">
        <ele>42</ele>
        <time>2014-05-15T10:00:59Z</time>
      </trkpt>
      <trkpt lat="48.84105" lon="2.42367">
        <ele>42</ele>
        <time>2014-05-15T10:01:00Z</time>
      </trkpt>
      <trkpt lat="48.84105" lon="2.42368">
        <ele>42</ele>
        <time>2014-05-15T10:01:01Z</time>
      </trkpt>
      <trkpt lat="48.84105" lon="2.4237">
        <ele>42</ele>
        <time>2014-05-15T10:01:02Z</time>
      </trkpt>
      <trkpt lat="48.84105" lon="2.42371">
        <ele>42</ele>
        <time>2014-05-15T10:01:03Z</time>
      </trkpt>
      <trkpt lat="48.84105" lon="2.42373">
        <ele>42</ele>
        <time>2014-05-15T10:01:04Z</time>
      </trkpt>
      <trkpt lat="48.84105" lon="2.42374">
        <ele>42</ele>
        <time>2014-05-15T10:01:05Z</time>
      </trkpt>
      <trkpt lat="48.84105" lon="2.42376">
        <ele>41</ele>
        <time>2014-05-15T10:01:06Z</time>
      </trkpt>
      <trkpt lat="48.84104" lon="2.42378">
        <ele>39</ele>
        <time>2014-05-15T10:01:07Z</time>
      </trkpt>
      <trkpt lat="48.84104" lon="2.42379">
        <ele>39</ele>
        <time>2014-05-15T10:01:08Z</time>
      </trkpt>
      <trkpt lat="48.84104" lon="2.42381">
        <ele>39</ele>
        <time>2014-05-15T10:01:09Z</time>
      </trkpt>
      <trkpt lat="48.84104" lon="2.42382">
        <ele>39</ele>
        <time>2014-05-15T10:01:10Z</time>
      </trkpt>
      <trkpt lat="48.84104" lon="2.42384">
        <ele>38</ele>
        <time>2014-05-15T10:01:11Z</time>
      </trkpt>
      <trkpt lat="48.84103" lon="2.42386">
        <ele>39</ele>
        <time>2014-05-15T10:01:12Z</time>
      </trkpt>
      <trkpt lat="48.84102" lon="2.42387">
        <ele>39</ele>
        <time>2014-05-15T10:01:13Z</time>
      </trkpt>
      <trkpt lat="48.84102" lon="2.42389">
        <ele>39</ele>
        <time>2014-05-15T10:01:14Z</time>
      </trkpt>
      <trkpt lat="48.84101" lon="2.42391">
        <ele>39</ele>
        <time>2014-05-15T10:01:15Z</time>
      </trkpt>
      <trkpt lat="48.84101" lon="2.42393">
        <ele>39</ele>
        <time>2014-05-15T10:01:16Z</time>
      </trkpt>
      <trkpt lat="48.841" lon="2.42396">
        <ele>39</ele>
        <time>2014-05-15T10:01:17Z</time>
      </trkpt>
      <trkpt lat="48.84099" lon="2.42399">
        <ele>38</ele>
        <time>2014-05-15T10:01:18Z</time>
      </trkpt>
      <trkpt lat="48.84098" lon="2.42401">
        <ele>35</ele>
        <time>2014-05-15T10:01:19Z</time>
      </trkpt>
      <trkpt lat="48.84098" lon="2.42403">
        <ele>34</ele>
        <time>2014-05-15T10:01:20Z</time>
      </trkpt>
      <trkpt lat="48.84097" lon="2.42404">
        <ele>35</ele>
        <time>2014-05-15T10:01:21Z</time>
      </trkpt>
      <trkpt lat="48.84097" lon="2.42407">
        <ele>35</ele>
        <time>2014-05-15T10:01:22Z</time>
      </trkpt>
      <trkpt lat="48.84096" lon="2.42409">
        <ele>35</ele>
        <time>2014-05-15T10:01:23Z</time>
      </trkpt>
      <trkpt lat="48.84095" lon="2.42411">
        <ele>34</ele>
        <time>2014-05-15T10:01:24Z</time>
      </trkpt>
      <trkpt lat="48.84094" lon="2.42413">
        <ele>34</ele>
        <time>2014-05-15T10:01:25Z</time>
      </trkpt>
      <trkpt lat="48.84093" lon="2.42415">
        <ele>34</ele>
        <time>2014-05-15T10:01:26Z</time>
      </trkpt>
      <trkpt lat="48.84092" lon="2.42418">
        <ele>35</ele>
        <time>2014-05-15T10:01:27Z</time>
      </trkpt>
      <trkpt lat="48.84091" lon="2.4242">
        <ele>34</ele>
        <time>2014-05-15T10:01:28Z</time>
      </trkpt>
      <trkpt lat="48.8409" lon="2.42423">
        <ele>34</ele>
        <time>2014-05-15T10:01:29Z</time>
      </trkpt>
      <trkpt lat="48.84089" lon="2.42426">
        <ele>35</ele>
        <time>2014-05-15T10:01:30Z</time>
      </trkpt>
      <trkpt lat="48.84089" lon="2.42428">
        <ele>35</ele>
        <time>2014-05-15T10:01:31Z</time>
      </trkpt>
      <trkpt lat="48.84088" lon="2.4243">
        <ele>35</ele>
        <time>2014-05-15T10:01:32Z</time>
      </trkpt>
      <trkpt lat="48.84087" lon="2.42433">
        <ele>35</ele>
        <time>2014-05-15T10:01:33Z</time>
      </trkpt>
      <trkpt lat="48.84087" lon="2.42435">
        <ele>34</ele>
        <time>2014-05-15T10:01:34Z</time>
      </trkpt>
      <trkpt lat="48.84086" lon="2.42437">
        <ele>37</ele>
        <time>2014-05-15T10:01:35Z</time>
      </trkpt>
      <trkpt lat="48.84085" lon="2.4244">
        <ele>39</ele>
        <time>2014-05-15T10:01:36Z</time>
      </trkpt>
      <trkpt lat="48.84084" lon="2.42443">
        <ele>40</ele>
        <time>2014-05-15T10:01:37Z</time>
      </trkpt>
      <trkpt lat="48.84084" lon="2.42446">
        <ele>39</ele>
        <time>2014-05-15T10:01:38Z</time>
      </trkpt>
      <trkpt lat="48.84083" lon="2.42448">
        <ele>40</ele>
        <time>2014-05-15T10:01:39Z</time>
      </trkpt>
      <trkpt lat="48.84083" lon="2.4245">
        <ele>39</ele>
        <time>2014-05-15T10:01:40Z</time>
      </trkpt>
      <trkpt lat="48.84083" lon="2.42453">
        <ele>38</ele>
        <time>2014-05-15T10:01:41Z</time>
      </trkpt>
      <trkpt lat="48.84083" lon="2.42454">
        <ele>39</ele>
        <time>2014-05-15T10:01:42Z</time>
      </trkpt>
      <trkpt lat="48.84084" lon="2.42455">
        <ele>39</ele>
        <time>2014-05-15T10:01:43Z</time>
      </trkpt>
      <trkpt lat="48.84085" lon="2.42454">
        <ele>39</ele>
        <time>2014-05-15T10:01:44Z</time>
      </trkpt>
      <trkpt lat="48.84086" lon="2.42454">
        <ele>40</ele>
        <time>2014-05-15T10:01:45Z</time>
      </trkpt>
      <trkpt lat="48.84087" lon="2.42453">
        <ele>39</ele>
        <time>2014-05-15T10:01:46Z</time>
      </trkpt>
      <trkpt lat="48.84088" lon="2.42452">
        <ele>40</ele>
        <time>2014-05-15T10:01:47Z</time>
      </trkpt>
      <trkpt lat="48.84089" lon="2.42451">
        <ele>39</ele>
        <time>2014-05-15T10:01:48Z</time>
      </trkpt>
      <trkpt lat="48.84091" lon="2.4245">
        <ele>38</ele>
        <time>2014-05-15T10:01:49Z</time>
      </trkpt>
      <trkpt lat="48.84092" lon="2.42448">
        <ele>38</ele>
        <time>2014-05-15T10:01:50Z</time>
      </trkpt>
      <trkpt lat="48.84093" lon="2.42447">
        <ele>39</ele>
        <time>2014-05-15T10:01:51Z</time>
      </trkpt>
      <trkpt lat="48.84094" lon="2.42446">
        <ele>37</ele>
        <time>2014-05-15T10:01:52Z</time>
      </trkpt>
      <trkpt lat="48.84095" lon="2.42444">
        <ele>37</ele>
        <time>2014-05-15T10:01:53Z</time>
      </trkpt>
      <trkpt lat="48.84096" lon="2.42443">
        <ele>37</ele>
        <time>2014-05-15T10:01:54Z</time>
      </trkpt>
      <trkpt lat="48.84096" lon="2.42441">
        <ele>36</ele>
        <time>2014-05-15T10:01:55Z</time>
      </trkpt>
      <trkpt lat="48.84097" lon="2.4244">
        <ele>37</ele>
        <time>2014-05-15T10:01:56Z</time>
      </trkpt>
      <trkpt lat="48.84098" lon="2.42439">
        <ele>36</ele>
        <time>2014-05-15T10:01:57Z</time>
      </trkpt>
      <trkpt lat="48.84099" lon="2.42437">
        <ele>36</ele>
        <time>2014-05-15T10:01:58Z</time>
      </trkpt>
      <trkpt lat="48.841" lon="2.42436">
        <ele>36</ele>
        <time>2014-05-15T10:01:59Z</time>
      </trkpt>
      <trkpt lat="48.84101" lon="2.42435">
        <ele>36</ele>
        <time>2014-05-15T10:02:00Z</time>
      </trkpt>
      <trkpt lat="48.84102" lon="2.42433">
        <ele>36</ele>
        <time>2014-05-15T10:02:01Z</time>
      </trkpt>
      <trkpt lat="48.84103" lon="2.42432">
        <ele>35</ele>
        <time>2014-05-15T10:02:02Z</time>
      </trkpt>
      <trkpt lat="48.84103" lon="2.4243">
        <ele>35</ele>
        <time>2014-05-15T10:02:03Z</time>
      </trkpt>
      <trkpt lat="48.84104" lon="2.42429">
        <ele>35</ele>
        <time>2014-05-15T10:02:04Z</time>
      </trkpt>
      <trkpt lat="48.84105" lon="2.42427">
        <ele>35</ele>
        <time>2014-05-15T10:02:05Z</time>
      </trkpt>
      <trkpt lat="48.84107" lon="2.42426">
        <ele>34</ele>
        <time>2014-05-15T10:02:06Z</time>
      </trkpt>
      <trkpt lat="48.84108" lon="2.42425">
        <ele>34</ele>
        <time>2014-05-15T10:02:07Z</time>
      </trkpt>
      <trkpt lat="48.84109" lon="2.42424">
        <ele>35</ele>
        <time>2014-05-15T10:02:08Z</time>
      </trkpt>
      <trkpt lat="48.84111" lon="2.42423">
        <ele>34</ele>
        <time>2014-05-15T10:02:09Z</time>
      </trkpt>
      <trkpt lat="48.84112" lon="2.42422">
        <ele>34</ele>
        <time>2014-05-15T10:02:10Z</time>
      </trkpt>
      <trkpt lat="48.84113" lon="2.42421">
        <ele>35</ele>
        <time>2014-05-15T10:02:11Z</time>
      </trkpt>
      <trkpt lat="48.84115" lon="2.4242">
        <ele>36</ele>
        <time>2014-05-15T10:02:12Z</time>
      </trkpt>
      <trkpt lat="48.84116" lon="2.42419">
        <ele>37</ele>
        <time>2014-05-15T10:02:13Z</time>
      </trkpt>
      <trkpt lat="48.84117" lon="2.42418">
        <ele>37</ele>
        <time>2014-05-15T10:02:14Z</time>
      </trkpt>
      <trkpt lat="48.84118" lon="2.42417">
        <ele>38</ele>
        <time>2014-05-15T10:02:15Z</time>
      </trkpt>
      <trkpt lat="48.84119" lon="2.42416">
        <ele>37</ele>
        <time>2014-05-15T10:02:16Z</time>
      </trkpt>
      <trkpt lat="48.84121" lon="2.42415">
        <ele>37</ele>
        <time>2014-05-15T10:02:17Z</time>
      </trkpt>
      <trkpt lat="48.84122" lon="2.42414">
        <ele>37</ele>
        <time>2014-05-15T10:02:18Z</time>
      </trkpt>
      <trkpt lat="48.84123" lon="2.42413">
        <ele>37</ele>
        <time>2014-05-15T10:02:19Z</time>
      </trkpt>
      <trkpt lat="48.84124" lon="2.42413">
        <ele>37</ele>
        <time>2014-05-15T10:02:20Z</time>
      </trkpt>
      <trkpt lat="48.84125" lon="2.42412">
        <ele>37</ele>
        <time>2014-05-15T10:02:21Z</time>
      </trkpt>
      <trkpt lat="48.84127" lon="2.42411">
        <ele>39</ele>
        <time>2014-05-15T10:02:22Z</time>
      </trkpt>
      <trkpt lat="48.84128" lon="2.42411">
        <ele>41</ele>
        <time>2014-05-15T10:02:23Z</time>
      </trkpt>
      <trkpt lat="48.8413" lon="2.4241">
        <ele>39</ele>
        <time>2014-05-15T10:02:24Z</time>
      </trkpt>
      <trkpt lat="48.84131" lon="2.4241">
        <ele>39</ele>
        <time>2014-05-15T10:02:25Z</time>
      </trkpt>
      <trkpt lat="48.84132" lon="2.42409">
        <ele>37</ele>
        <time>2014-05-15T10:02:26Z</time>
      </trkpt>
      <trkpt lat="48.84133" lon="2.42409">
        <ele>36</ele>
        <time>2014-05-15T10:02:27Z</time>
      </trkpt>
      <trkpt lat="48.84133" lon="2.42408">
        <ele>35</ele>
        <time>2014-05-15T10:02:28Z</time>
      </trkpt>
      <trkpt lat="48.84133" lon="2.42409">
        <ele>35</ele>
        <time>2014-05-15T10:02:29Z</time>
      </trkpt>
      <trkpt lat="48.84134" lon="2.42409">
        <ele>34</ele>
        <time>2014-05-15T10:02:30Z</time>
      </trkpt>
      <trkpt lat="48.84134" lon="2.42409">
        <ele>35</ele>
        <time>2014-05-15T10:02:31Z</time>
      </trkpt>
      <trkpt lat="48.84135" lon="2.42409">
        <ele>36</ele>
        <time>2014-05-15T10:02:32Z</time>
      </trkpt>
      <trkpt lat="48.84136" lon="2.42409">
        <ele>36</ele>
        <time>2014-05-15T10:02:33Z</time>
      </trkpt>
      <trkpt lat="48.84136" lon="2.4241">
        <ele>37</ele>
        <time>2014-05-15T10:02:34Z</time>
      </trkpt>
      <trkpt lat="48.84137" lon="2.4241">
        <ele>38</ele>
        <time>2014-05-15T10:02:35Z</time>
      </trkpt>
      <trkpt lat="48.84137" lon="2.4241">
        <ele>38</ele>
        <time>2014-05-15T10:02:36Z</time>
      </trkpt>
      <trkpt lat="48.84137" lon="2.4241">
        <ele>38</ele>
        <time>2014-05-15T10:02:37Z</time>
      </trkpt>
      <trkpt lat="48.84138" lon="2.4241">
        <ele>38</ele>
        <time>2014-05-15T10:02:38Z</time>
      </trkpt>
      <trkpt lat="48.84138" lon="2.42409">
        <ele>38</ele>
        <time>2014-05-15T10:02:39Z</time>
      </trkpt>
      <trkpt lat="48.84138" lon="2.42409">
        <ele>38</ele>
        <time>2014-05-15T10:02:40Z</time>
      </trkpt>
      <trkpt lat="48.84138" lon="2.42409">
        <ele>37</ele>
        <time>2014-05-15T10:02:41Z</time>
      </trkpt>
      <trkpt lat="48.84139" lon="2.42409">
        <ele>37</ele>
        <time>2014-05-15T10:02:42Z</time>
      </trkpt>
      <trkpt lat="48.84139" lon="2.42408">
        <ele>36</ele>
        <time>2014-05-15T10:02:43Z</time>
      </trkpt>
      <trkpt lat="48.84139" lon="2.42407">
        <ele>36</ele>
        <time>2014-05-15T10:02:44Z</time>
      </trkpt>
      <trkpt lat="48.8414" lon="2.42407">
        <ele>36</ele>
        <time>2014-05-15T10:02:45Z</time>
      </trkpt>
      <trkpt lat="48.8414" lon="2.42406">
        <ele>36</ele>
        <time>2014-05-15T10:02:46Z</time>
      </trkpt>
      <trkpt lat="48.84141" lon="2.42405">
        <ele>35</ele>
        <time>2014-05-15T10:02:47Z</time>
      </trkpt>
      <trkpt lat="48.84142" lon="2.42404">
        <ele>35</ele>
        <time>2014-05-15T10:02:48Z</time>
      </trkpt>
      <trkpt lat="48.84143" lon="2.42404">
        <ele>35</ele>
        <time>2014-05-15T10:02:49Z</time>
      </trkpt>
      <trkpt lat="48.84144" lon="2.42403">
        <ele>36</ele>
        <time>2014-05-15T10:02:50Z</time>
      </trkpt>
      <trkpt lat="48.84145" lon="2.42403">
        <ele>36</ele>
        <time>2014-05-15T10:02:51Z</time>
      </trkpt>
      <trkpt lat="48.84146" lon="2.42402">
        <ele>36</ele>
        <time>2014-05-15T10:02:52Z</time>
      </trkpt>
      <trkpt lat="48.84147" lon="2.42401">
        <ele>36</ele>
        <time>2014-05-15T10:02:53Z</time>
      </trkpt>
      <trkpt lat="48.84148" lon="2.424">
        <ele>37</ele>
        <time>2014-05-15T10:02:54Z</time>
      </trkpt>
      <trkpt lat="48.84149" lon="2.424">
        <ele>36</ele>
        <time>2014-05-15T10:02:55Z</time>
      </trkpt>
      <trkpt lat="48.8415" lon="2.42399">
        <ele>35</ele>
        <time>2014-05-15T10:02:56Z</time>
      </trkpt>
      <trkpt lat="48.84151" lon="2.42398">
        <ele>36</ele>
        <time>2014-05-15T10:02:57Z</time>
      </trkpt>
      <trkpt lat="48.84151" lon="2.42397">
        <ele>35</ele>
        <time>2014-05-15T10:02:58Z</time>
      </trkpt>
      <trkpt lat="48.84152" lon="2.42396">
        <ele>33</ele>
        <time>2014-05-15T10:02:59Z</time>
      </trkpt>
      <trkpt lat="48.84153" lon="2.42395">
        <ele>33</ele>
        <time>2014-05-15T10:03:00Z</time>
      </trkpt>
      <trkpt lat="48.84153" lon="2.42394">
        <ele>33</ele>
        <time>2014-05-15T10:03:01Z</time>
      </trkpt>
      <trkpt lat="48.84154" lon="2.42393">
        <ele>34</ele>
        <time>2014-05-15T10:03:02Z</time>
      </trkpt>
      <trkpt lat="48.84155" lon="2.42392">
        <ele>34</ele>
        <time>2014-05-15T10:03:03Z</time>
      </trkpt>
      <trkpt lat="48.84156" lon="2.42391">
        <ele>33</ele>
        <time>2014-05-15T10:03:04Z</time>
      </trkpt>
      <trkpt lat="48.84156" lon="2.4239">
        <ele>32</ele>
        <time>2014-05-15T10:03:05Z</time>
      </trkpt>
      <trkpt lat="48.84157" lon="2.42389">
        <ele>32</ele>
        <time>2014-05-15T10:03:06Z</time>
      </trkpt>
      <trkpt lat="48.84157" lon="2.42388">
        <ele>33</ele>
        <time>2014-05-15T10:03:07Z</time>
      </trkpt>
      <trkpt lat="48.84157" lon="2.42387">
        <ele>33</ele>
        <time>2014-05-15T10:03:08Z</time>
      </trkpt>
      <trkpt lat="48.84158" lon="2.42386">
        <ele>33</ele>
        <time>2014-05-15T10:03:09Z</time>
      </trkpt>
      <trkpt lat="48.84158" lon="2.42385">
        <ele>32</ele>
        <time>2014-05-15T10:03:10Z</time>
      </trkpt>
      <trkpt lat="48.84159" lon="2.42384">
        <ele>31</ele>
        <time>2014-05-15T10:03:11Z</time>
      </trkpt>
      <trkpt lat="48.8416" lon="2.42383">
        <ele>32</ele>
        <time>2014-05-15T10:03:12Z</time>
      </trkpt>
      <trkpt lat="48.8416" lon="2.42381">
        <ele>32</ele>
        <time>2014-05-15T10:03:13Z</time>
      </trkpt>
      <trkpt lat="48.84161" lon="2.4238">
        <ele>32</ele>
        <time>2014-05-15T10:03:14Z</time>
      </trkpt>
      <trkpt lat="48.84162" lon="2.42379">
        <ele>32</ele>
        <time>2014-05-15T10:03:15Z</time>
      </trkpt>
      <trkpt lat="48.84163" lon="2.42379">
        <ele>32</ele>
        <time>2014-05-15T10:03:16Z</time>
      </trkpt>
      <trkpt lat="48.84165" lon="2.42377">
        <ele>33</ele>
        <time>2014-05-15T10:03:17Z</time>
      </trkpt>
      <trkpt lat="48.84166" lon="2.42377">
        <ele>33</ele>
        <time>2014-05-15T10:03:18Z</time>
      </trkpt>
      <trkpt lat="48.84167" lon="2.42376">
        <ele>33</ele>
        <time>2014-05-15T10:03:19Z</time>
      </trkpt>
      <trkpt lat="48.84167" lon="2.42376">
        <ele>34</ele>
        <time>2014-05-15T10:03:20Z</time>
      </trkpt>
      <trkpt lat="48.84168" lon="2.42375">
        <ele>34</ele>
        <time>2014-05-15T10:03:21Z</time>
      </trkpt>
      <trkpt lat="48.84168" lon="2.42374">
        <ele>34</ele>
        <time>2014-05-15T10:03:22Z</time>
      </trkpt>
      <trkpt lat="48.84168" lon="2.42372">
        <ele>34</ele>
        <time>2014-05-15T10:03:23Z</time>
      </trkpt>
      <trkpt lat="48.84169" lon="2.4237">
        <ele>34</ele>
        <time>2014-05-15T10:03:24Z</time>
      </trkpt>
      <trkpt lat="48.84169" lon="2.42368">
        <ele>33</ele>
        <time>2014-05-15T10:03:25Z</time>
      </trkpt>
      <trkpt lat="48.84169" lon="2.42366">
        <ele>33</ele>
        <time>2014-05-15T10:03:26Z</time>
      </trkpt>
      <trkpt lat="48.84169" lon="2.42364">
        <ele>32</ele>
        <time>2014-05-15T10:03:27Z</time>
      </trkpt>
      <trkpt lat="48.84168" lon="2.42363">
        <ele>32</ele>
        <time>2014-05-15T10:03:28Z</time>
      </trkpt>
      <trkpt lat="48.84168" lon="2.42361">
        <ele>31</ele>
        <time>2014-05-15T10:03:29Z</time>
      </trkpt>
      <trkpt lat="48.84167" lon="2.42359">
        <ele>31</ele>
        <time>2014-05-15T10:03:30Z</time>
      </trkpt>
      <trkpt lat="48.84167" lon="2.42358">
        <ele>31</ele>
        <time>2014-05-15T10:03:31Z</time>
      </trkpt>
      <trkpt lat="48.84167" lon="2.42356">
        <ele>33</ele>
        <time>2014-05-15T10:03:32Z</time>
      </trkpt>
      <trkpt lat="48.84167" lon="2.42354">
        <ele>33</ele>
        <time>2014-05-15T10:03:33Z</time>
      </trkpt>
      <trkpt lat="48.84166" lon="2.42352">
        <ele>33</ele>
        <time>2014-05-15T10:03:34Z</time>
      </trkpt>
      <trkpt lat="48.84166" lon="2.4235">
        <ele>34</ele>
        <time>2014-05-15T10:03:35Z</time>
      </trkpt>
      <trkpt lat="48.84166" lon="2.42348">
        <ele>33</ele>
        <time>2014-05-15T10:03:36Z</time>
      </trkpt>
      <trkpt lat="48.84165" lon="2.42346">
        <ele>35</ele>
        <time>2014-05-15T10:03:37Z</time>
      </trkpt>
      <trkpt lat="48.84165" lon="2.42344">
        <ele>35</ele>
        <time>2014-05-15T10:03:38Z</time>
      </trkpt>
      <trkpt lat="48.84165" lon="2.42342">
        <ele>35</ele>
        <time>2014-05-15T10:03:39Z</time>
      </trkpt>
      <trkpt lat="48.84164" lon="2.4234">
        <ele>36</ele>
        <time>2014-05-15T10:03:40Z</time>
      </trkpt>
      <trkpt lat="48.84163" lon="2.42337">
        <ele>36</ele>
        <time>2014-05-15T10:03:41Z</time>
      </trkpt>
      <trkpt lat="48.84163" lon="2.42335">
        <ele>35</ele>
        <time>2014-05-15T10:03:42Z</time>
      </trkpt>
      <trkpt lat="48.84163" lon="2.42334">
        <ele>36</ele>
        <time>2014-05-15T10:03:43Z</time>
      </trkpt>
      <trkpt lat="48.84162" lon="2.42332">
        <ele>35</ele>
        <time>2014-05-15T10:03:44Z</time>
      </trkpt>
      <trkpt lat="48.84161" lon="2.4233">
        <ele>36</ele>
        <time>2014-05-15T10:03:45Z</time>
      </trkpt>
      <trkpt lat="48.84161" lon="2.42328">
        <ele>35</ele>
        <time>2014-05-15T10:03:46Z</time>
      </trkpt>
      <trkpt lat="48.8416" lon="2.42327">
        <ele>35</ele>
        <time>2014-05-15T10:03:47Z</time>
      </trkpt>
      <trkpt lat="48.8416" lon="2.42325">
        <ele>34</ele>
        <time>2014-05-15T10:03:48Z</time>
      </trkpt>
      <trkpt lat="48.8416" lon="2.42323">
        <ele>33</ele>
        <time>2014-05-15T10:03:49Z</time>
      </trkpt>
      <trkpt lat="48.84159" lon="2.42321">
        <ele>34</ele>
        <time>2014-05-15T10:03:50Z</time>
      </trkpt>
      <trkpt lat="48.84159" lon="2.4232">
        <ele>34</ele>
        <time>2014-05-15T10:03:51Z</time>
      </trkpt>
      <trkpt lat="48.84159" lon="2.42318">
        <ele>35</ele>
        <time>2014-05-15T10:03:52Z</time>
      </trkpt>
      <trkpt lat="48.84159" lon="2.42316">
        <ele>35</ele>
        <time>2014-05-15T10:03:53Z</time>
      </trkpt>
      <trkpt lat="48.84159" lon="2.42314">
        <ele>35</ele>
        <time>2014-05-15T10:03:54Z</time>
      </trkpt>
      <trkpt lat="48.84158" lon="2.42312">
        <ele>36</ele>
        <time>2014-05-15T10:03:55Z</time>
      </trkpt>
      <trkpt lat="48.84158" lon="2.4231">
        <ele>36</ele>
        <time>2014-05-15T10:03:56Z</time>
      </trkpt>
      <trkpt lat="48.84158" lon="2.42308">
        <ele>36</ele>
        <time>2014-05-15T10:03:57Z</time>
      </trkpt>
      <trkpt lat="48.84158" lon="2.42306">
        <ele>36</ele>
        <time>2014-05-15T10:03:58Z</time>
      </trkpt>
      <trkpt lat="48.84157" lon="2.42305">
        <ele>35</ele>
        <time>2014-05-15T10:03:59Z</time>
      </trkpt>
      <trkpt lat="48.84157" lon="2.42302">
        <ele>36</ele>
        <time>2014-05-15T10:04:00Z</time>
      </trkpt>
      <trkpt lat="48.84156" lon="2.42301">
        <ele>34</ele>
        <time>2014-05-15T10:04:01Z</time>
      </trkpt>
      <trkpt lat="48.84156" lon="2.42299">
        <ele>33</ele>
        <time>2014-05-15T10:04:02Z</time>
      </trkpt>
      <trkpt lat="48.84156" lon="2.42297">
        <ele>33</ele>
        <time>2014-05-15T10:04:03Z</time>
      </trkpt>
      <trkpt lat="48.84156" lon="2.42295">
        <ele>32</ele>
        <time>2014-05-15T10:04:04Z</time>
      </trkpt>
      <trkpt lat="48.84155" lon="2.42293">
        <ele>32</ele>
        <time>2014-05-15T10:04:05Z</time>
      </trkpt>
      <trkpt lat="48.84155" lon="2.42291">
        <ele>32</ele>
        <time>2014-05-15T10:04:06Z</time>
      </trkpt>
      <trkpt lat="48.84155" lon="2.42289">
        <ele>33</ele>
        <time>2014-05-15T10:04:07Z</time>
      </trkpt>
      <trkpt lat="48.84154" lon="2.42287">
        <ele>32</ele>
        <time>2014-05-15T10:04:08Z</time>
      </trkpt>
      <trkpt lat="48.84154" lon="2.42285">
        <ele>32</ele>
        <time>2014-05-15T10:04:09Z</time>
      </trkpt>
      <trkpt lat="48.84154" lon="2.42283">
        <ele>31</ele>
        <time>2014-05-15T10:04:10Z</time>
      </trkpt>
      <trkpt lat="48.84154" lon="2.42282">
        <ele>30</ele>
        <time>2014-05-15T10:04:11Z</time>
      </trkpt>
      <trkpt lat="48.84154" lon="2.4228">
        <ele>30</ele>
        <time>2014-05-15T10:04:12Z</time>
      </trkpt>
      <trkpt lat="48.84154" lon="2.42278">
        <ele>29</ele>
        <time>2014-05-15T10:04:13Z</time>
      </trkpt>
      <trkpt lat="48.84154" lon="2.42277">
        <ele>28</ele>
        <time>2014-05-15T10:04:14Z</time>
      </trkpt>
      <trkpt lat="48.84154" lon="2.42275">
        <ele>28</ele>
        <time>2014-05-15T10:04:15Z</time>
      </trkpt>
      <trkpt lat="48.84154" lon="2.42274">
        <ele>27</ele>
        <time>2014-05-15T10:04:16Z</time>
      </trkpt>
      <trkpt lat="48.84154" lon="2.42273">
        <ele>26</ele>
        <time>2014-05-15T10:04:17Z</time>
      </trkpt>
      <trkpt lat="48.84153" lon="2.42271">
        <ele>26</ele>
        <time>2014-05-15T10:04:18Z</time>
      </trkpt>
      <trkpt lat="48.84153" lon="2.4227">
        <ele>26</ele>
        <time>2014-05-15T10:04:19Z</time>
      </trkpt>
      <trkpt lat="48.84153" lon="2.42268">
        <ele>26</ele>
        <time>2014-05-15T10:04:20Z</time>
      </trkpt>
      <trkpt lat="48.84153" lon="2.42267">
        <ele>27</ele>
        <time>2014-05-15T10:04:21Z</time>
      </trkpt>
      <trkpt lat="48.84153" lon="2.42265">
        <ele>27</ele>
        <time>2014-05-15T10:04:22Z</time>
      </trkpt>
      <trkpt lat="48.84153" lon="2.42263">
        <ele>27</ele>
        <time>2014-05-15T10:04:23Z</time>
      </trkpt>
      <trkpt lat="48.84153" lon="2.42261">
        <ele>28</ele>
        <time>2014-05-15T10:04:24Z</time>
      </trkpt>
      <trkpt lat="48.84152" lon="2.42259">
        <ele>28</ele>
        <time>2014-05-15T10:04:25Z</time>
      </trkpt>
      <trkpt lat="48.84152" lon="2.42257">
        <ele>28</ele>
        <time>2014-05-15T10:04:26Z</time>
      </trkpt>
      <trkpt lat="48.84151" lon="2.42255">
        <ele>29</ele>
        <time>2014-05-15T10:04:27Z</time>
      </trkpt>
      <trkpt lat="48.84151" lon="2.42254">
        <ele>28</ele>
        <time>2014-05-15T10:04:28Z</time>
      </trkpt>
      <trkpt lat="48.8415" lon="2.42252">
        <ele>29</ele>
        <time>2014-05-15T10:04:29Z</time>
      </trkpt>
      <trkpt lat="48.8415" lon="2.4225">
        <ele>30</ele>
        <time>2014-05-15T10:04:30Z</time>
      </trkpt>
      <trkpt lat="48.8415" lon="2.42248">
        <ele>30</ele>
        <time>2014-05-15T10:04:31Z</time>
      </trkpt>
      <trkpt lat="48.84149" lon="2.42246">
        <ele>30</ele>
        <time>2014-05-15T10:04:32Z</time>
      </trkpt>
      <trkpt lat="48.84149" lon="2.42243">
        <ele>31</ele>
        <time>2014-05-15T10:04:33Z</time>
      </trkpt>
      <trkpt lat="48.84148" lon="2.42241">
        <ele>32</ele>
        <time>2014-05-15T10:04:34Z</time>
      </trkpt>
      <trkpt lat="48.84148" lon="2.42238">
        <ele>32</ele>
        <time>2014-05-15T10:04:35Z</time>
      </trkpt>
      <trkpt lat="48.84148" lon="2.42236">
        <ele>31</ele>
        <time>2014-05-15T10:04:36Z</time>
      </trkpt>
      <trkpt lat="48.84147" lon="2.42234">
        <ele>31</ele>
        <time>2014-05-15T10:04:37Z</time>
      </trkpt>
      <trkpt lat="48.84147" lon="2.42232">
        <ele>31</ele>
        <time>2014-05-15T10:04:38Z</time>
      </trkpt>
      <trkpt lat="48.84146" lon="2.4223">
        <ele>31</ele>
        <time>2014-05-15T10:04:39Z</time>
      </trkpt>
      <trkpt lat="48.84146" lon="2.42228">
        <ele>31</ele>
        <time>2014-05-15T10:04:40Z</time>
      </trkpt>
      <trkpt lat="48.84146" lon="2.42226">
        <ele>31</ele>
        <time>2014-05-15T10:04:41Z</time>
      </trkpt>
      <trkpt lat="48.84145" lon="2.42224">
        <ele>31</ele>
        <time>2014-05-15T10:04:42Z</time>
      </trkpt>
      <trkpt lat="48.84145" lon="2.42222">
        <ele>31</ele>
        <time>2014-05-15T10:04:43Z</time>
      </trkpt>
      <trkpt lat="48.84145" lon="2.4222">
        <ele>32</ele>
        <time>2014-05-15T10:04:44Z</time>
      </trkpt>
      <trkpt lat="48.84145" lon="2.42219">
        <ele>28</ele>
        <time>2014-05-15T10:04:45Z</time>
      </trkpt>
      <trkpt lat="48.84145" lon="2.42217">
        <ele>28</ele>
        <time>2014-05-15T10:04:46Z</time>
      </trkpt>
      <trkpt lat="48.84145" lon="2.42216">
        <ele>29</ele>
        <time>2014-05-15T10:04:47Z</time>
      </trkpt>
      <trkpt lat="48.84144" lon="2.42215">
        <ele>28</ele>
        <time>2014-05-15T10:04:48Z</time>
      </trkpt>
      <trkpt lat="48.84144" lon="2.42213">
        <ele>31</ele>
        <time>2014-05-15T10:04:49Z</time>
      </trkpt>
      <trkpt lat="48.84143" lon="2.42211">
        <ele>29</ele>
        <time>2014-05-15T10:04:50Z</time>
      </trkpt>
      <trkpt lat="48.84143" lon="2.42209">
        <ele>30</ele>
        <time>2014-05-15T10:04:51Z</time>
      </trkpt>
      <trkpt lat="48.84143" lon="2.42207">
        <ele>31</ele>
        <time>2014-05-15T10:04:52Z</time>
      </trkpt>
      <trkpt lat="48.84142" lon="2.42206">
        <ele>31</ele>
        <time>2014-05-15T10:04:53Z</time>
      </trkpt>
      <trkpt lat="48.84142" lon="2.42204">
        <ele>32</ele>
        <time>2014-05-15T10:04:54Z</time>
      </trkpt>
      <trkpt lat="48.84142" lon="2.42202">
        <ele>32</ele>
        <time>2014-05-15T10:04:55Z</time>
      </trkpt>
      <trkpt lat="48.84141" lon="2.422">
        <ele>34</ele>
        <time>2014-05-15T10:04:56Z</time>
      </trkpt>
      <trkpt lat="48.84141" lon="2.42198">
        <ele>34</ele>
        <time>2014-05-15T10:04:57Z</time>
      </trkpt>
      <trkpt lat="48.8414" lon="2.42196">
        <ele>34</ele>
        <time>2014-05-15T10:04:58Z</time>
      </trkpt>
      <trkpt lat="48.8414" lon="2.42195">
        <ele>33</ele>
        <time>2014-05-15T10:04:59Z</time>
      </trkpt>
      <trkpt lat="48.84139" lon="2.42193">
        <ele>34</ele>
        <time>2014-05-15T10:05:00Z</time>
      </trkpt>
      <trkpt lat="48.84139" lon="2.42191">
        <ele>33</ele>
        <time>2014-05-15T10:05:01Z</time>
      </trkpt>
      <trkpt lat="48.84138" lon="2.42189">
        <ele>34</ele>
        <time>2014-05-15T10:05:02Z</time>
      </trkpt>
      <trkpt lat="48.84137" lon="2.42188">
        <ele>32</ele>
        <time>2014-05-15T10:05:03Z</time>
      </trkpt>
      <trkpt lat="48.84137" lon="2.42186">
        <ele>32</ele>
        <time>2014-05-15T10:05:04Z</time>
      </trkpt>
      <trkpt lat="48.84137" lon="2.42184">
        <ele>32</ele>
        <time>2014-05-15T10:05:05Z</time>
      </trkpt>
      <trkpt lat="48.84137" lon="2.42182">
        <ele>32</ele>
        <time>2014-05-15T10:05:06Z</time>
      </trkpt>
      <trkpt lat="48.84137" lon="2.4218">
        <ele>33</ele>
        <time>2014-05-15T10:05:07Z</time>
      </trkpt>
      <trkpt lat="48.84137" lon="2.42178">
        <ele>33</ele>
        <time>2014-05-15T10:05:08Z</time>
      </trkpt>
      <trkpt lat="48.84137" lon="2.42176">
        <ele>34</ele>
        <time>2014-05-15T10:05:09Z</time>
      </trkpt>
      <trkpt lat="48.84137" lon="2.42174">
        <ele>32</ele>
        <time>2014-05-15T10:05:10Z</time>
      </trkpt>
      <trkpt lat="48.84137" lon="2.42172">
        <ele>32</ele>
        <time>2014-05-15T10:05:11Z</time>
      </trkpt>
      <trkpt lat="48.84137" lon="2.4217">
        <ele>32</ele>
        <time>2014-05-15T10:05:12Z</time>
      </trkpt>
      <trkpt lat="48.84137" lon="2.42167">
        <ele>33</ele>
        <time>2014-05-15T10:05:13Z</time>
      </trkpt>
      <trkpt lat="48.84137" lon="2.42165">
        <ele>33</ele>
        <time>2014-05-15T10:05:14Z</time>
      </trkpt>
      <trkpt lat="48.84137" lon="2.42163">
        <ele>34</ele>
        <time>2014-05-15T10:05:15Z</time>
      </trkpt>
      <trkpt lat="48.84136" lon="2.4216">
        <ele>35</ele>
        <time>2014-05-15T10:05:16Z</time>
      </trkpt>
      <trkpt lat="48.84136" lon="2.42158">
        <ele>35</ele>
        <time>2014-05-15T10:05:17Z</time>
      </trkpt>
      <trkpt lat="48.84137" lon="2.42156">
        <ele>36</ele>
        <time>2014-05-15T10:05:18Z</time>
      </trkpt>
      <trkpt lat="48.84137" lon="2.42154">
        <ele>36</ele>
        <time>2014-05-15T10:05:19Z</time>
      </trkpt>
      <trkpt lat="48.84136" lon="2.42152">
        <ele>36</ele>
        <time>2014-05-15T10:05:20Z</time>
      </trkpt>
      <trkpt lat="48.84136" lon="2.4215">
        <ele>36</ele>
        <time>2014-05-15T10:05:21Z</time>
      </trkpt>
      <trkpt lat="48.84135" lon="2.42147">
        <ele>37</ele>
        <time>2014-05-15T10:05:22Z</time>
      </trkpt>
      <trkpt lat="48.84135" lon="2.42145">
        <ele>37</ele>
        <time>2014-05-15T10:05:23Z</time>
      </trkpt>
      <trkpt lat="48.84135" lon="2.42143">
        <ele>37</ele>
        <time>2014-05-15T10:05:24Z</time>
      </trkpt>
      <trkpt lat="48.84135" lon="2.42141">
        <ele>38</ele>
        <time>2014-05-15T10:05:25Z</time>
      </trkpt>
      <trkpt lat="48.84134" lon="2.42139">
        <ele>38</ele>
        <time>2014-05-15T10:05:26Z</time>
      </trkpt>
      <trkpt lat="48.84134" lon="2.42136">
        <ele>38</ele>
        <time>2014-05-15T10:05:27Z</time>
      </trkpt>
      <trkpt lat="48.84133" lon="2.42134">
        <ele>38</ele>
        <time>2014-05-15T10:05:28Z</time>
      </trkpt>
      <trkpt lat="48.84133" lon="2.42132">
        <ele>38</ele>
        <time>2014-05-15T10:05:29Z</time>
      </trkpt>
      <trkpt lat="48.84133" lon="2.4213">
        <ele>38</ele>
        <time>2014-05-15T10:05:30Z</time>
      </trkpt>
      <trkpt lat="48.84133" lon="2.42128">
        <ele>38</ele>
        <time>2014-05-15T10:05:31Z</time>
      </trkpt>
      <trkpt lat="48.84133" lon="2.42126">
        <ele>38</ele>
        <time>2014-05-15T10:05:32Z</time>
      </trkpt>
      <trkpt lat="48.84134" lon="2.42125">
        <ele>38</ele>
        <time>2014-05-15T10:05:33Z</time>
      </trkpt>
      <trkpt lat="48.84134" lon="2.42123">
        <ele>37</ele>
        <time>2014-05-15T10:05:34Z</time>
      </trkpt>
      <trkpt lat="48.84134" lon="2.42121">
        <ele>38</ele>
        <time>2014-05-15T10:05:35Z</time>
      </trkpt>
      <trkpt lat="48.84135" lon="2.4212">
        <ele>38</ele>
        <time>2014-05-15T10:05:36Z</time>
      </trkpt>
      <trkpt lat="48.84135" lon="2.42118">
        <ele>38</ele>
        <time>2014-05-15T10:05:37Z</time>
      </trkpt>
      <trkpt lat="48.84134" lon="2.42116">
        <ele>38</ele>
        <time>2014-05-15T10:05:38Z</time>
      </trkpt>
      <trkpt lat="48.84134" lon="2.42114">
        <ele>38</ele>
        <time>2014-05-15T10:05:39Z</time>
      </trkpt>
      <trkpt lat="48.84134" lon="2.42113">
        <ele>38</ele>
        <time>2014-05-15T10:05:40Z</time>
      </trkpt>
      <trkpt lat="48.84134" lon="2.42112">
        <ele>39</ele>
        <time>2014-05-15T10:05:41Z</time>
      </trkpt>
      <trkpt lat="48.84134" lon="2.42111">
        <ele>39</ele>
        <time>2014-05-15T10:05:42Z</time>
      </trkpt>
      <trkpt lat="48.84133" lon="2.4211">
        <ele>39</ele>
        <time>2014-05-15T10:05:43Z</time>
      </trkpt>
      <trkpt lat="48.84133" lon="2.42108">
        <ele>40</ele>
        <time>2014-05-15T10:05:44Z</time>
      </trkpt>
      <trkpt lat="48.84133" lon="2.42107">
        <ele>40</ele>
        <time>2014-05-15T10:05:45Z</time>
      </trkpt>
      <trkpt lat="48.84133" lon="2.42106">
        <ele>41</ele>
        <time>2014-05-15T10:05:46Z</time>
      </trkpt>
      <trkpt lat="48.84133" lon="2.42104">
        <ele>40</ele>
        <time>2014-05-15T10:05:47Z</time>
      </trkpt>
      <trkpt lat="48.84133" lon="2.42103">
        <ele>40</ele>
        <time>2014-05-15T10:05:48Z</time>
      </trkpt>
      <trkpt lat="48.84134" lon="2.42101">
        <ele>41</ele>
        <time>2014-05-15T10:05:49Z</time>
      </trkpt>
      <trkpt lat="48.84134" lon="2.421">
        <ele>40</ele>
        <time>2014-05-15T10:05:50Z</time>
      </trkpt>
      <trkpt lat="48.84134" lon="2.42098">
        <ele>39</ele>
        <time>2014-05-15T10:05:51Z</time>
      </trkpt>
      <trkpt lat="48.84134" lon="2.42096">
        <ele>38</ele>
        <time>2014-05-15T10:05:52Z</time>
      </trkpt>
      <trkpt lat="48.84134" lon="2.42094">
        <ele>37</ele>
        <time>2014-05-15T10:05:53Z</time>
      </trkpt>
      <trkpt lat="48.84134" lon="2.42093">
        <ele>36</ele>
        <time>2014-05-15T10:05:54Z</time>
      </trkpt>
      <trkpt lat="48.84135" lon="2.42091">
        <ele>34</ele>
        <time>2014-05-15T10:05:55Z</time>
      </trkpt>
      <trkpt lat="48.84135" lon="2.4209">
        <ele>35</ele>
        <time>2014-05-15T10:05:56Z</time>
      </trkpt>
      <trkpt lat="48.84136" lon="2.42088">
        <ele>35</ele>
        <time>2014-05-15T10:05:57Z</time>
      </trkpt>
      <trkpt lat="48.84136" lon="2.42087">
        <ele>34</ele>
        <time>2014-05-15T10:05:58Z</time>
      </trkpt>
      <trkpt lat="48.84136" lon="2.42085">
        <ele>34</ele>
        <time>2014-05-15T10:05:59Z</time>
      </trkpt>
      <trkpt lat="48.84137" lon="2.42083">
        <ele>35</ele>
        <time>2014-05-15T10:06:00Z</time>
      </trkpt>
      <trkpt lat="48.84138" lon="2.42081">
        <ele>34</ele>
        <time>2014-05-15T10:06:01Z</time>
      </trkpt>
      <trkpt lat="48.84138" lon="2.4208">
        <ele>34</ele>
        <time>2014-05-15T10:06:02Z</time>
      </trkpt>
      <trkpt lat="48.84139" lon="2.42078">
        <ele>34</ele>
        <time>2014-05-15T10:06:03Z</time>
      </trkpt>
      <trkpt lat="48.84139" lon="2.42076">
        <ele>34</ele>
        <time>2014-05-15T10:06:04Z</time>
      </trkpt>
      <trkpt lat="48.8414" lon="2.42075">
        <ele>34</ele>
        <time>2014-05-15T10:06:05Z</time>
      </trkpt>
      <trkpt lat="48.84141" lon="2.42073">
        <ele>34</ele>
        <time>2014-05-15T10:06:06Z</time>
      </trkpt>
      <trkpt lat="48.84142" lon="2.42071">
        <ele>34</ele>
        <time>2014-05-15T10:06:07Z</time>
      </trkpt>
      <trkpt lat="48.84143" lon="2.4207">
        <ele>34</ele>
        <time>2014-05-15T10:06:08Z</time>
      </trkpt>
      <trkpt lat="48.84144" lon="2.42068">
        <ele>34</ele>
        <time>2014-05-15T10:06:09Z</time>
      </trkpt>
      <trkpt lat="48.84145" lon="2.42067">
        <ele>34</ele>
        <time>2014-05-15T10:06:10Z</time>
      </trkpt>
      <trkpt lat="48.84146" lon="2.42065">
        <ele>35</ele>
        <time>2014-05-15T10:06:11Z</time>
      </trkpt>
      <trkpt lat="48.84147" lon="2.42063">
        <ele>35</ele>
        <time>2014-05-15T10:06:12Z</time>
      </trkpt>
      <trkpt lat="48.84148" lon="2.42062">
        <ele>36</ele>
        <time>2014-05-15T10:06:13Z</time>
      </trkpt>
      <trkpt lat="48.84149" lon="2.4206">
        <ele>36</ele>
        <time>2014-05-15T10:06:14Z</time>
      </trkpt>
      <trkpt lat="48.8415" lon="2.42058">
        <ele>36</ele>
        <time>2014-05-15T10:06:15Z</time>
      </trkpt>
      <trkpt lat="48.84151" lon="2.42057">
        <ele>36</ele>
        <time>2014-05-15T10:06:16Z</time>
      </trkpt>
      <trkpt lat="48.84152" lon="2.42056">
        <ele>36</ele>
        <time>2014-05-15T10:06:17Z</time>
      </trkpt>
      <trkpt lat="48.84154" lon="2.42054">
        <ele>38</ele>
        <time>2014-05-15T10:06:18Z</time>
      </trkpt>
      <trkpt lat="48.84155" lon="2.42052">
        <ele>38</ele>
        <time>2014-05-15T10:06:19Z</time>
      </trkpt>
      <trkpt lat="48.84156" lon="2.42051">
        <ele>38</ele>
        <time>2014-05-15T10:06:20Z</time>
      </trkpt>
      <trkpt lat="48.84157" lon="2.42049">
        <ele>38</ele>
        <time>2014-05-15T10:06:21Z</time>
      </trkpt>
      <trkpt lat="48.84158" lon="2.42047">
        <ele>38</ele>
        <time>2014-05-15T10:06:22Z</time>
      </trkpt>
      <trkpt lat="48.84159" lon="2.42045">
        <ele>38</ele>
        <time>2014-05-15T10:06:23Z</time>
      </trkpt>
      <trkpt lat="48.84161" lon="2.42044">
        <ele>38</ele>
        <time>2014-05-15T10:06:24Z</time>
      </trkpt>
      <trkpt lat="48.84162" lon="2.42042">
        <ele>37</ele>
        <time>2014-05-15T10:06:25Z</time>
      </trkpt>
      <trkpt lat="48.84164" lon="2.42041">
        <ele>37</ele>
        <time>2014-05-15T10:06:26Z</time>
      </trkpt>
      <trkpt lat="48.84165" lon="2.4204">
        <ele>38</ele>
        <time>2014-05-15T10:06:27Z</time>
      </trkpt>
      <trkpt lat="48.84166" lon="2.42039">
        <ele>38</ele>
        <time>2014-05-15T10:06:28Z</time>
      </trkpt>
      <trkpt lat="48.84167" lon="2.42038">
        <ele>37</ele>
        <time>2014-05-15T10:06:29Z</time>
      </trkpt>
      <trkpt lat="48.84168" lon="2.42037">
        <ele>38</ele>
        <time>2014-05-15T10:06:30Z</time>
      </trkpt>
      <trkpt lat="48.8417" lon="2.42035">
        <ele>38</ele>
        <time>2014-05-15T10:06:31Z</time>
      </trkpt>
      <trkpt lat="48.84171" lon="2.42034">
        <ele>39</ele>
        <time>2014-05-15T10:06:32Z</time>
      </trkpt>
      <trkpt lat="48.84172" lon="2.42033">
        <ele>39</ele>
        <time>2014-05-15T10:06:33Z</time>
      </trkpt>
      <trkpt lat="48.84174" lon="2.42031">
        <ele>39</ele>
        <time>2014-05-15T10:06:34Z</time>
      </trkpt>
      <trkpt lat="48.84175" lon="2.4203">
        <ele>38</ele>
        <time>2014-05-15T10:06:35Z</time>
      </trkpt>
      <trkpt lat="48.84176" lon="2.42029">
        <ele>37</ele>
        <time>2014-05-15T10:06:36Z</time>
      </trkpt>
      <trkpt lat="48.84177" lon="2.42028">
        <ele>37</ele>
        <time>2014-05-15T10:06:37Z</time>
      </trkpt>
      <trkpt lat="48.84178" lon="2.42027">
        <ele>35</ele>
        <time>2014-05-15T10:06:38Z</time>
      </trkpt>
      <trkpt lat="48.84178" lon="2.42025">
        <ele>34</ele>
        <time>2014-05-15T10:06:39Z</time>
      </trkpt>
      <trkpt lat="48.84179" lon="2.42024">
        <ele>35</ele>
        <time>2014-05-15T10:06:40Z</time>
      </trkpt>
      <trkpt lat="48.8418" lon="2.42023">
        <ele>34</ele>
        <time>2014-05-15T10:06:41Z</time>
      </trkpt>
      <trkpt lat="48.84181" lon="2.42022">
        <ele>33</ele>
        <time>2014-05-15T10:06:42Z</time>
      </trkpt>
      <trkpt lat="48.84182" lon="2.42022">
        <ele>34</ele>
        <time>2014-05-15T10:06:43Z</time>
      </trkpt>
      <trkpt lat="48.84183" lon="2.42021">
        <ele>35</ele>
        <time>2014-05-15T10:06:44Z</time>
      </trkpt>
      <trkpt lat="48.84185" lon="2.4202">
        <ele>35</ele>
        <time>2014-05-15T10:06:45Z</time>
      </trkpt>
      <trkpt lat="48.84186" lon="2.42019">
        <ele>35</ele>
        <time>2014-05-15T10:06:46Z</time>
      </trkpt>
      <trkpt lat="48.84187" lon="2.42018">
        <ele>36</ele>
        <time>2014-05-15T10:06:47Z</time>
      </trkpt>
      <trkpt lat="48.84189" lon="2.42017">
        <ele>36</ele>
        <time>2014-05-15T10:06:48Z</time>
      </trkpt>
      <trkpt lat="48.8419" lon="2.42016">
        <ele>37</ele>
        <time>2014-05-15T10:06:49Z</time>
      </trkpt>
      <trkpt lat="48.84191" lon="2.42015">
        <ele>37</ele>
        <time>2014-05-15T10:06:50Z</time>
      </trkpt>
      <trkpt lat="48.84192" lon="2.42013">
        <ele>36</ele>
        <time>2014-05-15T10:06:51Z</time>
      </trkpt>
      <trkpt lat="48.84194" lon="2.42012">
        <ele>36</ele>
        <time>2014-05-15T10:06:52Z</time>
      </trkpt>
      <trkpt lat="48.84195" lon="2.42011">
        <ele>37</ele>
        <time>2014-05-15T10:06:53Z</time>
      </trkpt>
      <trkpt lat="48.84196" lon="2.42009">
        <ele>38</ele>
        <time>2014-05-15T10:06:54Z</time>
      </trkpt>
      <trkpt lat="48.84197" lon="2.42008">
        <ele>36</ele>
        <time>2014-05-15T10:06:55Z</time>
      </trkpt>
      <trkpt lat="48.84198" lon="2.42006">
        <ele>36</ele>
        <time>2014-05-15T10:06:56Z</time>
      </trkpt>
      <trkpt lat="48.84199" lon="2.42005">
        <ele>35</ele>
        <time>2014-05-15T10:06:57Z</time>
      </trkpt>
      <trkpt lat="48.842" lon="2.42004">
        <ele>34</ele>
        <time>2014-05-15T10:06:58Z</time>
      </trkpt>
      <trkpt lat="48.84201" lon="2.42003">
        <ele>35</ele>
        <time>2014-05-15T10:06:59Z</time>
      </trkpt>
      <trkpt lat="48.84202" lon="2.42002">
        <ele>35</ele>
        <time>2014-05-15T10:07:00Z</time>
      </trkpt>
      <trkpt lat="48.84203" lon="2.42001">
        <ele>35</ele>
        <time>2014-05-15T10:07:01Z</time>
      </trkpt>
      <trkpt lat="48.84204" lon="2.42">
        <ele>35</ele>
        <time>2014-05-15T10:07:02Z</time>
      </trkpt>
      <trkpt lat="48.84204" lon="2.41999">
        <ele>35</ele>
        <time>2014-05-15T10:07:03Z</time>
      </trkpt>
      <trkpt lat="48.84205" lon="2.41998">
        <ele>35</ele>
        <time>2014-05-15T10:07:04Z</time>
      </trkpt>
      <trkpt lat="48.84205" lon="2.41997">
        <ele>35</ele>
        <time>2014-05-15T10:07:05Z</time>
      </trkpt>
      <trkpt lat="48.84206" lon="2.41997">
        <ele>35</ele>
        <time>2014-05-15T10:07:06Z</time>
      </trkpt>
      <trkpt lat="48.84207" lon="2.41997">
        <ele>35</ele>
        <time>2014-05-15T10:07:07Z</time>
      </trkpt>
      <trkpt lat="48.84208" lon="2.41996">
        <ele>35</ele>
        <time>2014-05-15T10:07:08Z</time>
      </trkpt>
      <trkpt lat="48.84209" lon="2.41995">
        <ele>34</ele>
        <time>2014-05-15T10:07:09Z</time>
      </trkpt>
      <trkpt lat="48.8421" lon="2.41995">
        <ele>35</ele>
        <time>2014-05-15T10:07:10Z</time>
      </trkpt>
      <trkpt lat="48.84212" lon="2.41995">
        <ele>35</ele>
        <time>2014-05-15T10:07:11Z</time>
      </trkpt>
      <trkpt lat="48.84213" lon="2.41995">
        <ele>36</ele>
        <time>2014-05-15T10:07:12Z</time>
      </trkpt>
      <trkpt lat="48.84214" lon="2.41995">
        <ele>37</ele>
        <time>2014-05-15T10:07:13Z</time>
      </trkpt>
      <trkpt lat="48.84215" lon="2.41996">
        <ele>36</ele>
        <time>2014-05-15T10:07:14Z</time>
      </trkpt>
      <trkpt lat="48.84216" lon="2.41996">
        <ele>34</ele>
        <time>2014-05-15T10:07:15Z</time>
      </trkpt>
      <trkpt lat="48.84217" lon="2.41996">
        <ele>35</ele>
        <time>2014-05-15T10:07:16Z</time>
      </trkpt>
      <trkpt lat="48.84218" lon="2.41996">
        <ele>35</ele>
        <time>2014-05-15T10:07:17Z</time>
      </trkpt>
      <trkpt lat="48.8422" lon="2.41997">
        <ele>35</ele>
        <time>2014-05-15T10:07:18Z</time>
      </trkpt>
      <trkpt lat="48.84221" lon="2.41997">
        <ele>34</ele>
        <time>2014-05-15T10:07:19Z</time>
      </trkpt>
      <trkpt lat="48.84222" lon="2.41998">
        <ele>34</ele>
        <time>2014-05-15T10:07:20Z</time>
      </trkpt>
      <trkpt lat="48.84223" lon="2.41999">
        <ele>34</ele>
        <time>2014-05-15T10:07:21Z</time>
      </trkpt>
      <trkpt lat="48.84224" lon="2.42">
        <ele>34</ele>
        <time>2014-05-15T10:07:22Z</time>
      </trkpt>
      <trkpt lat="48.84225" lon="2.42001">
        <ele>33</ele>
        <time>2014-05-15T10:07:23Z</time>
      </trkpt>
      <trkpt lat="48.84226" lon="2.42002">
        <ele>33</ele>
        <time>2014-05-15T10:07:24Z</time>
      </trkpt>
      <trkpt lat="48.84226" lon="2.42003">
        <ele>32</ele>
        <time>2014-05-15T10:07:25Z</time>
      </trkpt>
      <trkpt lat="48.84227" lon="2.42004">
        <ele>32</ele>
        <time>2014-05-15T10:07:26Z</time>
      </trkpt>
      <trkpt lat="48.84228" lon="2.42005">
        <ele>32</ele>
        <time>2014-05-15T10:07:27Z</time>
      </trkpt>
      <trkpt lat="48.84229" lon="2.42006">
        <ele>32</ele>
        <time>2014-05-15T10:07:28Z</time>
      </trkpt>
      <trkpt lat="48.8423" lon="2.42007">
        <ele>31</ele>
        <time>2014-05-15T10:07:29Z</time>
      </trkpt>
      <trkpt lat="48.84231" lon="2.42009">
        <ele>30</ele>
        <time>2014-05-15T10:07:30Z</time>
      </trkpt>
      <trkpt lat="48.84232" lon="2.4201">
        <ele>30</ele>
        <time>2014-05-15T10:07:31Z</time>
      </trkpt>
      <trkpt lat="48.84233" lon="2.42011">
        <ele>30</ele>
        <time>2014-05-15T10:07:32Z</time>
      </trkpt>
      <trkpt lat="48.84233" lon="2.42013">
        <ele>30</ele>
        <time>2014-05-15T10:07:33Z</time>
      </trkpt>
      <trkpt lat="48.84234" lon="2.42015">
        <ele>30</ele>
        <time>2014-05-15T10:07:34Z</time>
      </trkpt>
      <trkpt lat="48.84235" lon="2.42016">
        <ele>29</ele>
        <time>2014-05-15T10:07:35Z</time>
      </trkpt>
      <trkpt lat="48.84236" lon="2.42017">
        <ele>28</ele>
        <time>2014-05-15T10:07:36Z</time>
      </trkpt>
      <trkpt lat="48.84236" lon="2.42018">
        <ele>29</ele>
        <time>2014-05-15T10:07:37Z</time>
      </trkpt>
      <trkpt lat="48.84236" lon="2.42019">
        <ele>29</ele>
        <time>2014-05-15T10:07:38Z</time>
      </trkpt>
      <trkpt lat="48.84236" lon="2.42021">
        <ele>30</ele>
        <time>2014-05-15T10:07:39Z</time>
      </trkpt>
      <trkpt lat="48.84236" lon="2.42023">
        <ele>30</ele>
        <time>2014-05-15T10:07:40Z</time>
      </trkpt>
      <trkpt lat="48.84236" lon="2.42025">
        <ele>29</ele>
        <time>2014-05-15T10:07:41Z</time>
      </trkpt>
      <trkpt lat="48.84236" lon="2.42027">
        <ele>29</ele>
        <time>2014-05-15T10:07:42Z</time>
      </trkpt>
      <trkpt lat="48.84236" lon="2.42028">
        <ele>28</ele>
        <time>2014-05-15T10:07:43Z</time>
      </trkpt>
      <trkpt lat="48.84236" lon="2.4203">
        <ele>28</ele>
        <time>2014-05-15T10:07:44Z</time>
      </trkpt>
      <trkpt lat="48.84237" lon="2.42032">
        <ele>28</ele>
        <time>2014-05-15T10:07:45Z</time>
      </trkpt>
      <trkpt lat="48.84237" lon="2.42034">
        <ele>27</ele>
        <time>2014-05-15T10:07:46Z</time>
      </trkpt>
      <trkpt lat="48.84237" lon="2.42035">
        <ele>27</ele>
        <time>2014-05-15T10:07:47Z</time>
      </trkpt>
      <trkpt lat="48.84237" lon="2.42037">
        <ele>27</ele>
        <time>2014-05-15T10:07:48Z</time>
      </trkpt>
      <trkpt lat="48.84237" lon="2.42039">
        <ele>27</ele>
        <time>2014-05-15T10:07:49Z</time>
      </trkpt>
      <trkpt lat="48.84237" lon="2.42042">
        <ele>28</ele>
        <time>2014-05-15T10:07:50Z</time>
      </trkpt>
      <trkpt lat="48.84236" lon="2.42044">
        <ele>28</ele>
        <time>2014-05-15T10:07:51Z</time>
      </trkpt>
      <trkpt lat="48.84236" lon="2.42045">
        <ele>27</ele>
        <time>2014-05-15T10:07:52Z</time>
      </trkpt>
      <trkpt lat="48.84236" lon="2.42049">
        <ele>34</ele>
        <time>2014-05-15T10:07:53Z</time>
      </trkpt>
      <trkpt lat="48.84236" lon="2.42052">
        <ele>34</ele>
        <time>2014-05-15T10:07:54Z</time>
      </trkpt>
      <trkpt lat="48.84235" lon="2.42055">
        <ele>34</ele>
        <time>2014-05-15T10:07:55Z</time>
      </trkpt>
      <trkpt lat="48.84235" lon="2.42058">
        <ele>32</ele>
        <time>2014-05-15T10:07:56Z</time>
      </trkpt>
      <trkpt lat="48.84235" lon="2.42062">
        <ele>32</ele>
        <time>2014-05-15T10:07:57Z</time>
      </trkpt>
      <trkpt lat="48.84234" lon="2.42066">
        <ele>32</ele>
        <time>2014-05-15T10:07:58Z</time>
      </trkpt>
      <trkpt lat="48.84234" lon="2.42068">
        <ele>32</ele>
        <time>2014-05-15T10:07:59Z</time>
      </trkpt>
      <trkpt lat="48.84234" lon="2.42069">
        <ele>32</ele>
        <time>2014-05-15T10:08:00Z</time>
      </trkpt>
      <trkpt lat="48.84233" lon="2.42071">
        <ele>32</ele>
        <time>2014-05-15T10:08:01Z</time>
      </trkpt>
      <trkpt lat="48.84233" lon="2.42073">
        <ele>32</ele>
        <time>2014-05-15T10:08:02Z</time>
      </trkpt>
      <trkpt lat="48.84232" lon="2.42075">
        <ele>32</ele>
        <time>2014-05-15T10:08:03Z</time>
      </trkpt>
      <trkpt lat="48.84232" lon="2.42078">
        <ele>32</ele>
        <time>2014-05-15T10:08:04Z</time>
      </trkpt>
      <trkpt lat="48.84232" lon="2.42079">
        <ele>31</ele>
        <time>2014-05-15T10:08:05Z</time>
      </trkpt>
      <trkpt lat="48.84232" lon="2.42082">
        <ele>31</ele>
        <time>2014-05-15T10:08:06Z</time>
      </trkpt>
      <trkpt lat="48.84232" lon="2.42084">
        <ele>31</ele>
        <time>2014-05-15T10:08:07Z</time>
      </trkpt>
      <trkpt lat="48.84233" lon="2.42086">
        <ele>31</ele>
        <time>2014-05-15T10:08:08Z</time>
      </trkpt>
      <trkpt lat="48.84234" lon="2.42087">
        <ele>31</ele>
        <time>2014-05-15T10:08:09Z</time>
      </trkpt>
      <trkpt lat="48.84235" lon="2.42088">
        <ele>31</ele>
        <time>2014-05-15T10:08:10Z</time>
      </trkpt>
      <trkpt lat="48.84235" lon="2.4209">
        <ele>30</ele>
        <time>2014-05-15T10:08:11Z</time>
      </trkpt>
      <trkpt lat="48.84235" lon="2.42092">
        <ele>31</ele>
        <time>2014-05-15T10:08:12Z</time>
      </trkpt>
      <trkpt lat="48.84235" lon="2.42094">
        <ele>31</ele>
        <time>2014-05-15T10:08:13Z</time>
      </trkpt>
      <trkpt lat="48.84236" lon="2.42095">
        <ele>30</ele>
        <time>2014-05-15T10:08:14Z</time>
      </trkpt>
      <trkpt lat="48.84236" lon="2.42096">
        <ele>31</ele>
        <time>2014-05-15T10:08:15Z</time>
      </trkpt>
      <trkpt lat="48.84237" lon="2.42097">
        <ele>31</ele>
        <time>2014-05-15T10:08:16Z</time>
      </trkpt>
      <trkpt lat="48.84237" lon="2.42098">
        <ele>31</ele>
        <time>2014-05-15T10:08:17Z</time>
      </trkpt>
      <trkpt lat="48.84237" lon="2.42101">
        <ele>32</ele>
        <time>2014-05-15T10:08:18Z</time>
      </trkpt>
      <trkpt lat="48.84237" lon="2.42102">
        <ele>32</ele>
        <time>2014-05-15T10:08:19Z</time>
      </trkpt>
      <trkpt lat="48.84238" lon="2.42104">
        <ele>32</ele>
        <time>2014-05-15T10:08:20Z</time>
      </trkpt>
      <trkpt lat="48.84238" lon="2.42106">
        <ele>32</ele>
        <time>2014-05-15T10:08:21Z</time>
      </trkpt>
      <trkpt lat="48.84238" lon="2.42109">
        <ele>32</ele>
        <time>2014-05-15T10:08:22Z</time>
      </trkpt>
      <trkpt lat="48.84238" lon="2.42111">
        <ele>32</ele>
        <time>2014-05-15T10:08:23Z</time>
      </trkpt>
      <trkpt lat="48.84239" lon="2.42112">
        <ele>32</ele>
        <time>2014-05-15T10:08:24Z</time>
      </trkpt>
      <trkpt lat="48.84239" lon="2.42114">
        <ele>32</ele>
        <time>2014-05-15T10:08:25Z</time>
      </trkpt>
      <trkpt lat="48.84239" lon="2.42116">
        <ele>32</ele>
        <time>2014-05-15T10:08:26Z</time>
      </trkpt>
      <trkpt lat="48.84239" lon="2.42118">
        <ele>32</ele>
        <time>2014-05-15T10:08:27Z</time>
      </trkpt>
      <trkpt lat="48.84239" lon="2.4212">
        <ele>32</ele>
        <time>2014-05-15T10:08:28Z</time>
      </trkpt>
      <trkpt lat="48.84239" lon="2.42122">
        <ele>31</ele>
        <time>2014-05-15T10:08:29Z</time>
      </trkpt>
      <trkpt lat="48.84239" lon="2.42124">
        <ele>30</ele>
        <time>2014-05-15T10:08:30Z</time>
      </trkpt>
      <trkpt lat="48.84239" lon="2.42126">
        <ele>31</ele>
        <time>2014-05-15T10:08:31Z</time>
      </trkpt>
      <trkpt lat="48.84238" lon="2.42128">
        <ele>31</ele>
        <time>2014-05-15T10:08:32Z</time>
      </trkpt>
      <trkpt lat="48.84238" lon="2.4213">
        <ele>31</ele>
        <time>2014-05-15T10:08:33Z</time>
      </trkpt>
      <trkpt lat="48.84237" lon="2.42133">
        <ele>33</ele>
        <time>2014-05-15T10:08:34Z</time>
      </trkpt>
      <trkpt lat="48.84237" lon="2.42134">
        <ele>33</ele>
        <time>2014-05-15T10:08:35Z</time>
      </trkpt>
      <trkpt lat="48.84236" lon="2.42137">
        <ele>32</ele>
        <time>2014-05-15T10:08:36Z</time>
      </trkpt>
      <trkpt lat="48.84235" lon="2.42139">
        <ele>32</ele>
        <time>2014-05-15T10:08:37Z</time>
      </trkpt>
      <trkpt lat="48.84235" lon="2.42141">
        <ele>32</ele>
        <time>2014-05-15T10:08:38Z</time>
      </trkpt>
      <trkpt lat="48.84235" lon="2.42141">
        <ele>32</ele>
        <time>2014-05-15T10:08:39Z</time>
      </trkpt>
      <trkpt lat="48.84234" lon="2.42145">
        <ele>34</ele>
        <time>2014-05-15T10:08:40Z</time>
      </trkpt>
      <trkpt lat="48.84234" lon="2.42147">
        <ele>35</ele>
        <time>2014-05-15T10:08:41Z</time>
      </trkpt>
      <trkpt lat="48.84233" lon="2.42152">
        <ele>34</ele>
        <time>2014-05-15T10:08:42Z</time>
      </trkpt>
      <trkpt lat="48.84233" lon="2.42154">
        <ele>34</ele>
        <time>2014-05-15T10:08:43Z</time>
      </trkpt>
      <trkpt lat="48.84233" lon="2.42156">
        <ele>33</ele>
        <time>2014-05-15T10:08:44Z</time>
      </trkpt>
      <trkpt lat="48.84232" lon="2.42159">
        <ele>33</ele>
        <time>2014-05-15T10:08:45Z</time>
      </trkpt>
      <trkpt lat="48.84232" lon="2.42161">
        <ele>33</ele>
        <time>2014-05-15T10:08:46Z</time>
      </trkpt>
      <trkpt lat="48.84231" lon="2.42164">
        <ele>34</ele>
        <time>2014-05-15T10:08:47Z</time>
      </trkpt>
      <trkpt lat="48.84231" lon="2.42165">
        <ele>34</ele>
        <time>2014-05-15T10:08:48Z</time>
      </trkpt>
      <trkpt lat="48.8423" lon="2.42169">
        <ele>34</ele>
        <time>2014-05-15T10:08:49Z</time>
      </trkpt>
      <trkpt lat="48.8423" lon="2.42171">
        <ele>34</ele>
        <time>2014-05-15T10:08:50Z</time>
      </trkpt>
      <trkpt lat="48.8423" lon="2.42172">
        <ele>32</ele>
        <time>2014-05-15T10:08:51Z</time>
      </trkpt>
      <trkpt lat="48.84229" lon="2.42173">
        <ele>33</ele>
        <time>2014-05-15T10:08:52Z</time>
      </trkpt>
      <trkpt lat="48.84229" lon="2.42175">
        <ele>34</ele>
        <time>2014-05-15T10:08:53Z</time>
      </trkpt>
      <trkpt lat="48.84229" lon="2.42176">
        <ele>34</ele>
        <time>2014-05-15T10:08:54Z</time>
      </trkpt>
      <trkpt lat="48.84228" lon="2.42178">
        <ele>34</ele>
        <time>2014-05-15T10:08:55Z</time>
      </trkpt>
      <trkpt lat="48.84228" lon="2.4218">
        <ele>34</ele>
        <time>2014-05-15T10:08:56Z</time>
      </trkpt>
      <trkpt lat="48.84227" lon="2.42182">
        <ele>34</ele>
        <time>2014-05-15T10:08:57Z</time>
      </trkpt>
      <trkpt lat="48.84227" lon="2.42184">
        <ele>33</ele>
        <time>2014-05-15T10:08:58Z</time>
      </trkpt>
      <trkpt lat="48.84227" lon="2.42185">
        <ele>33</ele>
        <time>2014-05-15T10:08:59Z</time>
      </trkpt>
      <trkpt lat="48.84226" lon="2.42187">
        <ele>32</ele>
        <time>2014-05-15T10:09:00Z</time>
      </trkpt>
      <trkpt lat="48.84226" lon="2.42189">
        <ele>33</ele>
        <time>2014-05-15T10:09:01Z</time>
      </trkpt>
      <trkpt lat="48.84226" lon="2.42191">
        <ele>33</ele>
        <time>2014-05-15T10:09:02Z</time>
      </trkpt>
      <trkpt lat="48.84226" lon="2.42193">
        <ele>33</ele>
        <time>2014-05-15T10:09:03Z</time>
      </trkpt>
      <trkpt lat="48.84226" lon="2.42195">
        <ele>32</ele>
        <time>2014-05-15T10:09:04Z</time>
      </trkpt>
      <trkpt lat="48.84225" lon="2.422">
        <ele>37</ele>
        <time>2014-05-15T10:09:05Z</time>
      </trkpt>
      <trkpt lat="48.84225" lon="2.42205">
        <ele>39</ele>
        <time>2014-05-15T10:09:06Z</time>
      </trkpt>
      <trkpt lat="48.84224" lon="2.4221">
        <ele>40</ele>
        <time>2014-05-15T10:09:07Z</time>
      </trkpt>
      <trkpt lat="48.84224" lon="2.42215">
        <ele>41</ele>
        <time>2014-05-15T10:09:08Z</time>
      </trkpt>
      <trkpt lat="48.84223" lon="2.4222">
        <ele>40</ele>
        <time>2014-05-15T10:09:09Z</time>
      </trkpt>
      <trkpt lat="48.84223" lon="2.42224">
        <ele>39</ele>
        <time>2014-05-15T10:09:10Z</time>
      </trkpt>
      <trkpt lat="48.84223" lon="2.42227">
        <ele>39</ele>
        <time>2014-05-15T10:09:11Z</time>
      </trkpt>
      <trkpt lat="48.84223" lon="2.42231">
        <ele>38</ele>
        <time>2014-05-15T10:09:12Z</time>
      </trkpt>
      <trkpt lat="48.84223" lon="2.42233">
        <ele>37</ele>
        <time>2014-05-15T10:09:13Z</time>
      </trkpt>
      <trkpt lat="48.84222" lon="2.42237">
        <ele>38</ele>
        <time>2014-05-15T10:09:14Z</time>
      </trkpt>
      <trkpt lat="48.84222" lon="2.4224">
        <ele>38</ele>
        <time>2014-05-15T10:09:15Z</time>
      </trkpt>
      <trkpt lat="48.84222" lon="2.42243">
        <ele>37</ele>
        <time>2014-05-15T10:09:16Z</time>
      </trkpt>
      <trkpt lat="48.84222" lon="2.42245">
        <ele>38</ele>
        <time>2014-05-15T10:09:17Z</time>
      </trkpt>
      <trkpt lat="48.84222" lon="2.42249">
        <ele>37</ele>
        <time>2014-05-15T10:09:18Z</time>
      </trkpt>
      <trkpt lat="48.84223" lon="2.42251">
        <ele>36</ele>
        <time>2014-05-15T10:09:19Z</time>
      </trkpt>
      <trkpt lat="48.84223" lon="2.42252">
        <ele>36</ele>
        <time>2014-05-15T10:09:20Z</time>
      </trkpt>
      <trkpt lat="48.84224" lon="2.42254">
        <ele>36</ele>
        <time>2014-05-15T10:09:21Z</time>
      </trkpt>
      <trkpt lat="48.84224" lon="2.42255">
        <ele>35</ele>
        <time>2014-05-15T10:09:22Z</time>
      </trkpt>
      <trkpt lat="48.84224" lon="2.42256">
        <ele>35</ele>
        <time>2014-05-15T10:09:23Z</time>
      </trkpt>
      <trkpt lat="48.84224" lon="2.42257">
        <ele>34</ele>
        <time>2014-05-15T10:09:24Z</time>
      </trkpt>
      <trkpt lat="48.84224" lon="2.42259">
        <ele>34</ele>
        <time>2014-05-15T10:09:25Z</time>
      </trkpt>
      <trkpt lat="48.84224" lon="2.42257">
        <ele>35</ele>
        <time>2014-05-15T10:09:26Z</time>
      </trkpt>
      <trkpt lat="48.84224" lon="2.42257">
        <ele>35</ele>
        <time>2014-05-15T10:09:27Z</time>
      </trkpt>
      <trkpt lat="48.84224" lon="2.42258">
        <ele>34</ele>
        <time>2014-05-15T10:09:28Z</time>
      </trkpt>
      <trkpt lat="48.84224" lon="2.4226">
        <ele>34</ele>
        <time>2014-05-15T10:09:29Z</time>
      </trkpt>
      <trkpt lat="48.84224" lon="2.42261">
        <ele>34</ele>
        <time>2014-05-15T10:09:30Z</time>
      </trkpt>
      <trkpt lat="48.84224" lon="2.42263">
        <ele>33</ele>
        <time>2014-05-15T10:09:31Z</time>
      </trkpt>
      <trkpt lat="48.84224" lon="2.42266">
        <ele>33</ele>
        <time>2014-05-15T10:09:32Z</time>
      </trkpt>
      <trkpt lat="48.84224" lon="2.42268">
        <ele>33</ele>
        <time>2014-05-15T10:09:33Z</time>
      </trkpt>
      <trkpt lat="48.84224" lon="2.4227">
        <ele>33</ele>
        <time>2014-05-15T10:09:34Z</time>
      </trkpt>
      <trkpt lat="48.84224" lon="2.42272">
        <ele>32</ele>
        <time>2014-05-15T10:09:35Z</time>
      </trkpt>
      <trkpt lat="48.84224" lon="2.42274">
        <ele>32</ele>
        <time>2014-05-15T10:09:36Z</time>
      </trkpt>
      <trkpt lat="48.84224" lon="2.42276">
        <ele>32</ele>
        <time>2014-05-15T10:09:37Z</time>
      </trkpt>
      <trkpt lat="48.84224" lon="2.42278">
        <ele>30</ele>
        <time>2014-05-15T10:09:38Z</time>
      </trkpt>
      <trkpt lat="48.84225" lon="2.4228">
        <ele>31</ele>
        <time>2014-05-15T10:09:39Z</time>
      </trkpt>
      <trkpt lat="48.84225" lon="2.42283">
        <ele>31</ele>
        <time>2014-05-15T10:09:40Z</time>
      </trkpt>
      <trkpt lat="48.84225" lon="2.42287">
        <ele>30</ele>
        <time>2014-05-15T10:09:41Z</time>
      </trkpt>
      <trkpt lat="48.84225" lon="2.4229">
        <ele>30</ele>
        <time>2014-05-15T10:09:42Z</time>
      </trkpt>
      <trkpt lat="48.84225" lon="2.42293">
        <ele>30</ele>
        <time>2014-05-15T10:09:43Z</time>
      </trkpt>
      <trkpt lat="48.84225" lon="2.42295">
        <ele>30</ele>
        <time>2014-05-15T10:09:44Z</time>
      </trkpt>
      <trkpt lat="48.84225" lon="2.42298">
        <ele>30</ele>
        <time>2014-05-15T10:09:45Z</time>
      </trkpt>
      <trkpt lat="48.84225" lon="2.423">
        <ele>31</ele>
        <time>2014-05-15T10:09:46Z</time>
      </trkpt>
      <trkpt lat="48.84225" lon="2.42303">
        <ele>31</ele>
        <time>2014-05-15T10:09:47Z</time>
      </trkpt>
      <trkpt lat="48.84224" lon="2.42306">
        <ele>31</ele>
        <time>2014-05-15T10:09:48Z</time>
      </trkpt>
      <trkpt lat="48.84224" lon="2.4231">
        <ele>32</ele>
        <time>2014-05-15T10:09:49Z</time>
      </trkpt>
      <trkpt lat="48.84224" lon="2.42313">
        <ele>34</ele>
        <time>2014-05-15T10:09:50Z</time>
      </trkpt>
      <trkpt lat="48.84224" lon="2.42315">
        <ele>33</ele>
        <time>2014-05-15T10:09:51Z</time>
      </trkpt>
      <trkpt lat="48.84223" lon="2.42317">
        <ele>34</ele>
        <time>2014-05-15T10:09:52Z</time>
      </trkpt>
      <trkpt lat="48.84223" lon="2.4232">
        <ele>34</ele>
        <time>2014-05-15T10:09:53Z</time>
      </trkpt>
      <trkpt lat="48.84222" lon="2.42322">
        <ele>34</ele>
        <time>2014-05-15T10:09:54Z</time>
      </trkpt>
      <trkpt lat="48.84221" lon="2.42324">
        <ele>35</ele>
        <time>2014-05-15T10:09:55Z</time>
      </trkpt>
      <trkpt lat="48.8422" lon="2.42326">
        <ele>35</ele>
        <time>2014-05-15T10:09:56Z</time>
      </trkpt>
      <trkpt lat="48.8422" lon="2.42329">
        <ele>37</ele>
        <time>2014-05-15T10:09:57Z</time>
      </trkpt>
      <trkpt lat="48.84219" lon="2.4233">
        <ele>37</ele>
        <time>2014-05-15T10:09:58Z</time>
      </trkpt>
      <trkpt lat="48.84219" lon="2.42332">
        <ele>37</ele>
        <time>2014-05-15T10:09:59Z</time>
      </trkpt>
      <trkpt lat="48.84218" lon="2.42334">
        <ele>38</ele>
        <time>2014-05-15T10:10:00Z</time>
      </trkpt>
      <trkpt lat="48.84218" lon="2.42336">
        <ele>37</ele>
        <time>2014-05-15T10:10:01Z</time>
      </trkpt>
      <trkpt lat="48.84218" lon="2.42338">
        <ele>37</ele>
        <time>2014-05-15T10:10:02Z</time>
      </trkpt>
      <trkpt lat="48.84217" lon="2.42339">
        <ele>38</ele>
        <time>2014-05-15T10:10:03Z</time>
      </trkpt>
      <trkpt lat="48.84217" lon="2.42341">
        <ele>38</ele>
        <time>2014-05-15T10:10:04Z</time>
      </trkpt>
      <trkpt lat="48.84216" lon="2.42343">
        <ele>40</ele>
        <time>2014-05-15T10:10:05Z</time>
      </trkpt>
      <trkpt lat="48.84215" lon="2.42345">
        <ele>39</ele>
        <time>2014-05-15T10:10:06Z</time>
      </trkpt>
      <trkpt lat="48.84214" lon="2.42347">
        <ele>38</ele>
        <time>2014-05-15T10:10:07Z</time>
      </trkpt>
      <trkpt lat="48.84214" lon="2.42348">
        <ele>38</ele>
        <time>2014-05-15T10:10:08Z</time>
      </trkpt>
      <trkpt lat="48.84213" lon="2.4235">
        <ele>39</ele>
        <time>2014-05-15T10:10:09Z</time>
      </trkpt>
      <trkpt lat="48.84212" lon="2.42351">
        <ele>39</ele>
        <time>2014-05-15T10:10:10Z</time>
      </trkpt>
      <trkpt lat="48.84211" lon="2.42352">
        <ele>39</ele>
        <time>2014-05-15T10:10:11Z</time>
      </trkpt>
      <trkpt lat="48.8421" lon="2.42354">
        <ele>38</ele>
        <time>2014-05-15T10:10:12Z</time>
      </trkpt>
      <trkpt lat="48.8421" lon="2.42355">
        <ele>40</ele>
        <time>2014-05-15T10:10:13Z</time>
      </trkpt>
      <trkpt lat="48.8421" lon="2.42357">
        <ele>34</ele>
        <time>2014-05-15T10:10:14Z</time>
      </trkpt>
      <trkpt lat="48.8421" lon="2.42358">
        <ele>33</ele>
        <time>2014-05-15T10:10:15Z</time>
      </trkpt>
      <trkpt lat="48.84209" lon="2.4236">
        <ele>34</ele>
        <time>2014-05-15T10:10:16Z</time>
      </trkpt>
      <trkpt lat="48.84209" lon="2.42362">
        <ele>34</ele>
        <time>2014-05-15T10:10:17Z</time>
      </trkpt>
      <trkpt lat="48.84208" lon="2.42363">
        <ele>34</ele>
        <time>2014-05-15T10:10:18Z</time>
      </trkpt>
      <trkpt lat="48.84207" lon="2.42365">
        <ele>34</ele>
        <time>2014-05-15T10:10:19Z</time>
      </trkpt>
      <trkpt lat="48.84207" lon="2.42366">
        <ele>34</ele>
        <time>2014-05-15T10:10:20Z</time>
      </trkpt>
      <trkpt lat="48.84206" lon="2.42366">
        <ele>33</ele>
        <time>2014-05-15T10:10:21Z</time>
      </trkpt>
      <trkpt lat="48.84206" lon="2.42366">
        <ele>33</ele>
        <time>2014-05-15T10:10:22Z</time>
      </trkpt>
      <trkpt lat="48.84206" lon="2.42367">
        <ele>33</ele>
        <time>2014-05-15T10:10:23Z</time>
      </trkpt>
      <trkpt lat="48.84206" lon="2.42367">
        <ele>33</ele>
        <time>2014-05-15T10:10:24Z</time>
      </trkpt>
      <trkpt lat="48.84204" lon="2.42368">
        <ele>33</ele>
        <time>2014-05-15T10:10:25Z</time>
      </trkpt>
      <trkpt lat="48.84204" lon="2.42369">
        <ele>33</ele>
        <time>2014-05-15T10:10:26Z</time>
      </trkpt>
      <trkpt lat="48.84202" lon="2.4237">
        <ele>34</ele>
        <time>2014-05-15T10:10:27Z</time>
      </trkpt>
      <trkpt lat="48.842" lon="2.42371">
        <ele>33</ele>
        <time>2014-05-15T10:10:28Z</time>
      </trkpt>
      <trkpt lat="48.84199" lon="2.42372">
        <ele>33</ele>
        <time>2014-05-15T10:10:29Z</time>
      </trkpt>
      <trkpt lat="48.84196" lon="2.42373">
        <ele>33</ele>
        <time>2014-05-15T10:10:30Z</time>
      </trkpt>
      <trkpt lat="48.84194" lon="2.42373">
        <ele>33</ele>
        <time>2014-05-15T10:10:31Z</time>
      </trkpt>
      <trkpt lat="48.84192" lon="2.42374">
        <ele>33</ele>
        <time>2014-05-15T10:10:32Z</time>
      </trkpt>
      <trkpt lat="48.84191" lon="2.42374">
        <ele>33</ele>
        <time>2014-05-15T10:10:33Z</time>
      </trkpt>
      <trkpt lat="48.84189" lon="2.42374">
        <ele>33</ele>
        <time>2014-05-15T10:10:34Z</time>
      </trkpt>
      <trkpt lat="48.84187" lon="2.42375">
        <ele>33</ele>
        <time>2014-05-15T10:10:35Z</time>
      </trkpt>
      <trkpt lat="48.84186" lon="2.42376">
        <ele>33</ele>
        <time>2014-05-15T10:10:36Z</time>
      </trkpt>
      <trkpt lat="48.84184" lon="2.42376">
        <ele>32</ele>
        <time>2014-05-15T10:10:37Z</time>
      </trkpt>
      <trkpt lat="48.84182" lon="2.42377">
        <ele>32</ele>
        <time>2014-05-15T10:10:38Z</time>
      </trkpt>
      <trkpt lat="48.84181" lon="2.42377">
        <ele>32</ele>
        <time>2014-05-15T10:10:39Z</time>
      </trkpt>
      <trkpt lat="48.84178" lon="2.42377">
        <ele>32</ele>
        <time>2014-05-15T10:10:40Z</time>
      </trkpt>
      <trkpt lat="48.84177" lon="2.42377">
        <ele>32</ele>
        <time>2014-05-15T10:10:41Z</time>
      </trkpt>
      <trkpt lat="48.84175" lon="2.42377">
        <ele>32</ele>
        <time>2014-05-15T10:10:42Z</time>
      </trkpt>
      <trkpt lat="48.84173" lon="2.42376">
        <ele>32</ele>
        <time>2014-05-15T10:10:43Z</time>
      </trkpt>
      <trkpt lat="48.84172" lon="2.42376">
        <ele>32</ele>
        <time>2014-05-15T10:10:44Z</time>
      </trkpt>
      <trkpt lat="48.8417" lon="2.42375">
        <ele>32</ele>
        <time>2014-05-15T10:10:45Z</time>
      </trkpt>
      <trkpt lat="48.84169" lon="2.42375">
        <ele>33</ele>
        <time>2014-05-15T10:10:46Z</time>
      </trkpt>
      <trkpt lat="48.84168" lon="2.42372">
        <ele>32</ele>
        <time>2014-05-15T10:10:47Z</time>
      </trkpt>
      <trkpt lat="48.84168" lon="2.42371">
        <ele>32</ele>
        <time>2014-05-15T10:10:48Z</time>
      </trkpt>
      <trkpt lat="48.84168" lon="2.42371">
        <ele>32</ele>
        <time>2014-05-15T10:10:49Z</time>
      </trkpt>
      <trkpt lat="48.84168" lon="2.4237">
        <ele>43</ele>
        <time>2014-05-15T10:10:50Z</time>
      </trkpt>
      <trkpt lat="48.84168" lon="2.42369">
        <ele>43</ele>
        <time>2014-05-15T10:10:51Z</time>
      </trkpt>
      <trkpt lat="48.84169" lon="2.42369">
        <ele>43</ele>
        <time>2014-05-15T10:10:52Z</time>
      </trkpt>
      <trkpt lat="48.84169" lon="2.42369">
        <ele>43</ele>
        <time>2014-05-15T10:10:53Z</time>
      </trkpt>
      <trkpt lat="48.8417" lon="2.4237">
        <ele>43</ele>
        <time>2014-05-15T10:10:54Z</time>
      </trkpt>
      <trkpt lat="48.8417" lon="2.4237">
        <ele>43</ele>
        <time>2014-05-15T10:10:55Z</time>
      </trkpt>
      <trkpt lat="48.8417" lon="2.4237">
        <ele>43</ele>
        <time>2014-05-15T10:10:56Z</time>
      </trkpt>
      <trkpt lat="48.8417" lon="2.4237">
        <ele>43</ele>
        <time>2014-05-15T10:10:57Z</time>
      </trkpt>
      <trkpt lat="48.8417" lon="2.42371">
        <ele>42</ele>
        <time>2014-05-15T10:10:58Z</time>
      </trkpt>
      <trkpt lat="48.8417" lon="2.42371">
        <ele>42</ele>
        <time>2014-05-15T10:10:59Z</time>
      </trkpt>
      <trkpt lat="48.8417" lon="2.42371">
        <ele>41</ele>
        <time>2014-05-15T10:11:00Z</time>
      </trkpt>
      <trkpt lat="48.8417" lon="2.42371">
        <ele>40</ele>
        <time>2014-05-15T10:11:01Z</time>
      </trkpt>
      <trkpt lat="48.8417" lon="2.42371">
        <ele>40</ele>
        <time>2014-05-15T10:11:02Z</time>
      </trkpt>
      <trkpt lat="48.84171" lon="2.42371">
        <ele>40</ele>
        <time>2014-05-15T10:11:03Z</time>
      </trkpt>
      <trkpt lat="48.84171" lon="2.42371">
        <ele>39</ele>
        <time>2014-05-15T10:11:04Z</time>
      </trkpt>
      <trkpt lat="48.84171" lon="2.42371">
        <ele>39</ele>
        <time>2014-05-15T10:11:05Z</time>
      </trkpt>
      <trkpt lat="48.84171" lon="2.42371">
        <ele>39</ele>
        <time>2014-05-15T10:11:06Z</time>
      </trkpt>
      <trkpt lat="48.84171" lon="2.42371">
        <ele>39</ele>
        <time>2014-05-15T10:11:07Z</time>
      </trkpt>
      <trkpt lat="48.84171" lon="2.42372">
        <ele>38</ele>
        <time>2014-05-15T10:11:08Z</time>
      </trkpt>
      <trkpt lat="48.84171" lon="2.42372">
        <ele>38</ele>
        <time>2014-05-15T10:11:09Z</time>
      </trkpt>
      <trkpt lat="48.84171" lon="2.42372">
        <ele>38</ele>
        <time>2014-05-15T10:11:10Z</time>
      </trkpt>
      <trkpt lat="48.84171" lon="2.42372">
        <ele>38</ele>
        <time>2014-05-15T10:11:11Z</time>
      </trkpt>
      <trkpt lat="48.84171" lon="2.42371">
        <ele>38</ele>
        <time>2014-05-15T10:11:12Z</time>
      </trkpt>
      <trkpt lat="48.84171" lon="2.42371">
        <ele>38</ele>
        <time>2014-05-15T10:11:13Z</time>
      </trkpt>
      <trkpt lat="48.84171" lon="2.42371">
        <ele>38</ele>
        <time>2014-05-15T10:11:14Z</time>
      </trkpt>
      <trkpt lat="48.84171" lon="2.42371">
        <ele>38</ele>
        <time>2014-05-15T10:11:15Z</time>
      </trkpt>
      <trkpt lat="48.84171" lon="2.42371">
        <ele>38</ele>
        <time>2014-05-15T10:11:16Z</time>
      </trkpt>
      <trkpt lat="48.84171" lon="2.42371">
        <ele>38</ele>
        <time>2014-05-15T10:11:17Z</time>
      </trkpt>
      <trkpt lat="48.84171" lon="2.42371">
        <ele>38</ele>
        <time>2014-05-15T10:11:18Z</time>
      </trkpt>
      <trkpt lat="48.84171" lon="2.42371">
        <ele>38</ele>
        <time>2014-05-15T10:11:19Z</time>
      </trkpt>
      <trkpt lat="48.84171" lon="2.42371">
        <ele>38</ele>
        <time>2014-05-15T10:11:20Z</time>
      </trkpt>
      <trkpt lat="48.84171" lon="2.42371">
        <ele>38</ele>
        <time>2014-05-15T10:11:21Z</time>
      </trkpt>
      <trkpt lat="48.84171" lon="2.42371">
        <ele>38</ele>
        <time>2014-05-15T10:11:22Z</time>
      </trkpt>
      <trkpt lat="48.84171" lon="2.42371">
        <ele>38</ele>
        <time>2014-05-15T10:11:23Z</time>
      </trkpt>
      <trkpt lat="48.8417" lon="2.42371">
        <ele>38</ele>
        <time>2014-05-15T10:11:24Z</time>
      </trkpt>
      <trkpt lat="48.8417" lon="2.42371">
        <ele>38</ele>
        <time>2014-05-15T10:11:25Z</time>
      </trkpt>
      <trkpt lat="48.8417" lon="2.42371">
        <ele>38</ele>
        <time>2014-05-15T10:11:26Z</time>
      </trkpt>
      <trkpt lat="48.8417" lon="2.42371">
        <ele>38</ele>
        <time>2014-05-15T10:11:27Z</time>
      </trkpt>
      <trkpt lat="48.8417" lon="2.42371">
        <ele>38</ele>
        <time>2014-05-15T10:11:28Z</time>
      </trkpt>
      <trkpt lat="48.8417" lon="2.42371">
        <ele>38</ele>
        <time>2014-05-15T10:11:29Z</time>
      </trkpt>
      <trkpt lat="48.8417" lon="2.42371">
        <ele>38</ele>
        <time>2014-05-15T10:11:30Z</time>
      </trkpt>
      <trkpt lat="48.8417" lon="2.42371">
        <ele>38</ele>
        <time>2014-05-15T10:11:31Z</time>
      </trkpt>
      <trkpt lat="48.8417" lon="2.42371">
        <ele>38</ele>
        <time>2014-05-15T10:11:32Z</time>
      </trkpt>
      <trkpt lat="48.8417" lon="2.42371">
        <ele>38</ele>
        <time>2014-05-15T10:11:33Z</time>
      </trkpt>
      <trkpt lat="48.8417" lon="2.42371">
        <ele>38</ele>
        <time>2014-05-15T10:11:34Z</time>
      </trkpt>
      <trkpt lat="48.8417" lon="2.42371">
        <ele>38</ele>
        <time>2014-05-15T10:11:35Z</time>
      </trkpt>
      <trkpt lat="48.84169" lon="2.4237">
        <ele>35</ele>
        <time>2014-05-15T10:11:36Z</time>
      </trkpt>
      <trkpt lat="48.84169" lon="2.4237">
        <ele>34</ele>
        <time>2014-05-15T10:11:37Z</time>
      </trkpt>
      <trkpt lat="48.84168" lon="2.42368">
        <ele>35</ele>
        <time>2014-05-15T10:11:38Z</time>
      </trkpt>
      <trkpt lat="48.84167" lon="2.42367">
        <ele>35</ele>
        <time>2014-05-15T10:11:39Z</time>
      </trkpt>
      <trkpt lat="48.84166" lon="2.42366">
        <ele>32</ele>
        <time>2014-05-15T10:11:40Z</time>
      </trkpt>
      <trkpt lat="48.84165" lon="2.42365">
        <ele>31</ele>
        <time>2014-05-15T10:11:41Z</time>
      </trkpt>
      <trkpt lat="48.84164" lon="2.42363">
        <ele>32</ele>
        <time>2014-05-15T10:11:42Z</time>
      </trkpt>
      <trkpt lat="48.84163" lon="2.42362">
        <ele>33</ele>
        <time>2014-05-15T10:11:43Z</time>
      </trkpt>
      <trkpt lat="48.84162" lon="2.42361">
        <ele>32</ele>
        <time>2014-05-15T10:11:44Z</time>
      </trkpt>
      <trkpt lat="48.84162" lon="2.42359">
        <ele>32</ele>
        <time>2014-05-15T10:11:45Z</time>
      </trkpt>
      <trkpt lat="48.84162" lon="2.42358">
        <ele>32</ele>
        <time>2014-05-15T10:11:46Z</time>
      </trkpt>
      <trkpt lat="48.84162" lon="2.42356">
        <ele>31</ele>
        <time>2014-05-15T10:11:47Z</time>
      </trkpt>
      <trkpt lat="48.84161" lon="2.42356">
        <ele>32</ele>
        <time>2014-05-15T10:11:48Z</time>
      </trkpt>
      <trkpt lat="48.8416" lon="2.42354">
        <ele>37</ele>
        <time>2014-05-15T10:11:49Z</time>
      </trkpt>
      <trkpt lat="48.84159" lon="2.42353">
        <ele>36</ele>
        <time>2014-05-15T10:11:50Z</time>
      </trkpt>
      <trkpt lat="48.84158" lon="2.42352">
        <ele>35</ele>
        <time>2014-05-15T10:11:51Z</time>
      </trkpt>
      <trkpt lat="48.84157" lon="2.42351">
        <ele>36</ele>
        <time>2014-05-15T10:11:52Z</time>
      </trkpt>
      <trkpt lat="48.84155" lon="2.4235">
        <ele>36</ele>
        <time>2014-05-15T10:11:53Z</time>
      </trkpt>
      <trkpt lat="48.84154" lon="2.42349">
        <ele>36</ele>
        <time>2014-05-15T10:11:54Z</time>
      </trkpt>
      <trkpt lat="48.84153" lon="2.42347">
        <ele>38</ele>
        <time>2014-05-15T10:11:55Z</time>
      </trkpt>
      <trkpt lat="48.84153" lon="2.42345">
        <ele>39</ele>
        <time>2014-05-15T10:11:56Z</time>
      </trkpt>
      <trkpt lat="48.84153" lon="2.42343">
        <ele>40</ele>
        <time>2014-05-15T10:11:57Z</time>
      </trkpt>
      <trkpt lat="48.84153" lon="2.42341">
        <ele>41</ele>
        <time>2014-05-15T10:11:58Z</time>
      </trkpt>
      <trkpt lat="48.84152" lon="2.42339">
        <ele>41</ele>
        <time>2014-05-15T10:11:59Z</time>
      </trkpt>
      <trkpt lat="48.84152" lon="2.42337">
        <ele>41</ele>
        <time>2014-05-15T10:12:00Z</time>
      </trkpt>
      <trkpt lat="48.84151" lon="2.42335">
        <ele>44</ele>
        <time>2014-05-15T10:12:01Z</time>
      </trkpt>
      <trkpt lat="48.84151" lon="2.42334">
        <ele>42</ele>
        <time>2014-05-15T10:12:02Z</time>
      </trkpt>
      <trkpt lat="48.84151" lon="2.42332">
        <ele>44</ele>
        <time>2014-05-15T10:12:03Z</time>
      </trkpt>
      <trkpt lat="48.84151" lon="2.42331">
        <ele>46</ele>
        <time>2014-05-15T10:12:04Z</time>
      </trkpt>
      <trkpt lat="48.84151" lon="2.42329">
        <ele>46</ele>
        <time>2014-05-15T10:12:05Z</time>
      </trkpt>
      <trkpt lat="48.84152" lon="2.42327">
        <ele>45</ele>
        <time>2014-05-15T10:12:06Z</time>
      </trkpt>
      <trkpt lat="48.84152" lon="2.42326">
        <ele>45</ele>
        <time>2014-05-15T10:12:07Z</time>
      </trkpt>
      <trkpt lat="48.84152" lon="2.42324">
        <ele>46</ele>
        <time>2014-05-15T10:12:08Z</time>
      </trkpt>
      <trkpt lat="48.84151" lon="2.42322">
        <ele>46</ele>
        <time>2014-05-15T10:12:09Z</time>
      </trkpt>
      <trkpt lat="48.84151" lon="2.42321">
        <ele>46</ele>
        <time>2014-05-15T10:12:10Z</time>
      </trkpt>
      <trkpt lat="48.8415" lon="2.4232">
        <ele>46</ele>
        <time>2014-05-15T10:12:11Z</time>
      </trkpt>
      <trkpt lat="48.84149" lon="2.42319">
        <ele>46</ele>
        <time>2014-05-15T10:12:12Z</time>
      </trkpt>
      <trkpt lat="48.84149" lon="2.42317">
        <ele>47</ele>
        <time>2014-05-15T10:12:13Z</time>
      </trkpt>
      <trkpt lat="48.84148" lon="2.42316">
        <ele>47</ele>
        <time>2014-05-15T10:12:14Z</time>
      </trkpt>
      <trkpt lat="48.84148" lon="2.42314">
        <ele>48</ele>
        <time>2014-05-15T10:12:15Z</time>
      </trkpt>
      <trkpt lat="48.84148" lon="2.42313">
        <ele>47</ele>
        <time>2014-05-15T10:12:16Z</time>
      </trkpt>
      <trkpt lat="48.84147" lon="2.42311">
        <ele>48</ele>
        <time>2014-05-15T10:12:17Z</time>
      </trkpt>
      <trkpt lat="48.84146" lon="2.42309">
        <ele>47</ele>
        <time>2014-05-15T10:12:18Z</time>
      </trkpt>
      <trkpt lat="48.84145" lon="2.42307">
        <ele>47</ele>
        <time>2014-05-15T10:12:19Z</time>
      </trkpt>
      <trkpt lat="48.84143" lon="2.42306">
        <ele>45</ele>
        <time>2014-05-15T10:12:20Z</time>
      </trkpt>
      <trkpt lat="48.84141" lon="2.42305">
        <ele>43</ele>
        <time>2014-05-15T10:12:21Z</time>
      </trkpt>
      <trkpt lat="48.8414" lon="2.42304">
        <ele>43</ele>
        <time>2014-05-15T10:12:22Z</time>
      </trkpt>
      <trkpt lat="48.84139" lon="2.42304">
        <ele>44</ele>
        <time>2014-05-15T10:12:23Z</time>
      </trkpt>
      <trkpt lat="48.84137" lon="2.42303">
        <ele>43</ele>
        <time>2014-05-15T10:12:24Z</time>
      </trkpt>
      <trkpt lat="48.84136" lon="2.42304">
        <ele>42</ele>
        <time>2014-05-15T10:12:25Z</time>
      </trkpt>
      <trkpt lat="48.84135" lon="2.42304">
        <ele>41</ele>
        <time>2014-05-15T10:12:26Z</time>
      </trkpt>
      <trkpt lat="48.84134" lon="2.42304">
        <ele>41</ele>
        <time>2014-05-15T10:12:27Z</time>
      </trkpt>
      <trkpt lat="48.84133" lon="2.42305">
        <ele>41</ele>
        <time>2014-05-15T10:12:28Z</time>
      </trkpt>
      <trkpt lat="48.84132" lon="2.42305">
        <ele>41</ele>
        <time>2014-05-15T10:12:29Z</time>
      </trkpt>
      <trkpt lat="48.8413" lon="2.42305">
        <ele>41</ele>
        <time>2014-05-15T10:12:30Z</time>
      </trkpt>
      <trkpt lat="48.84129" lon="2.42306">
        <ele>41</ele>
        <time>2014-05-15T10:12:31Z</time>
      </trkpt>
      <trkpt lat="48.84128" lon="2.42307">
        <ele>39</ele>
        <time>2014-05-15T10:12:32Z</time>
      </trkpt>
      <trkpt lat="48.84126" lon="2.42308">
        <ele>39</ele>
        <time>2014-05-15T10:12:33Z</time>
      </trkpt>
      <trkpt lat="48.84125" lon="2.42309">
        <ele>39</ele>
        <time>2014-05-15T10:12:34Z</time>
      </trkpt>
      <trkpt lat="48.84123" lon="2.4231">
        <ele>39</ele>
        <time>2014-05-15T10:12:35Z</time>
      </trkpt>
      <trkpt lat="48.84122" lon="2.4231">
        <ele>40</ele>
        <time>2014-05-15T10:12:36Z</time>
      </trkpt>
      <trkpt lat="48.8412" lon="2.4231">
        <ele>40</ele>
        <time>2014-05-15T10:12:37Z</time>
      </trkpt>
      <trkpt lat="48.84119" lon="2.4231">
        <ele>40</ele>
        <time>2014-05-15T10:12:38Z</time>
      </trkpt>
      <trkpt lat="48.84117" lon="2.42311">
        <ele>40</ele>
        <time>2014-05-15T10:12:39Z</time>
      </trkpt>
      <trkpt lat="48.84116" lon="2.42311">
        <ele>41</ele>
        <time>2014-05-15T10:12:40Z</time>
      </trkpt>
      <trkpt lat="48.84114" lon="2.42312">
        <ele>40</ele>
        <time>2014-05-15T10:12:41Z</time>
      </trkpt>
      <trkpt lat="48.84113" lon="2.42313">
        <ele>41</ele>
        <time>2014-05-15T10:12:42Z</time>
      </trkpt>
      <trkpt lat="48.84112" lon="2.42315">
        <ele>41</ele>
        <time>2014-05-15T10:12:43Z</time>
      </trkpt>
      <trkpt lat="48.84111" lon="2.42315">
        <ele>41</ele>
        <time>2014-05-15T10:12:44Z</time>
      </trkpt>
      <trkpt lat="48.8411" lon="2.42315">
        <ele>43</ele>
        <time>2014-05-15T10:12:45Z</time>
      </trkpt>
      <trkpt lat="48.84109" lon="2.42315">
        <ele>42</ele>
        <time>2014-05-15T10:12:46Z</time>
      </trkpt>
      <trkpt lat="48.84109" lon="2.42313">
        <ele>43</ele>
        <time>2014-05-15T10:12:47Z</time>
      </trkpt>
      <trkpt lat="48.84109" lon="2.42312">
        <ele>43</ele>
        <time>2014-05-15T10:12:48Z</time>
      </trkpt>
      <trkpt lat="48.84109" lon="2.42311">
        <ele>42</ele>
        <time>2014-05-15T10:12:49Z</time>
      </trkpt>
      <trkpt lat="48.8411" lon="2.42309">
        <ele>41</ele>
        <time>2014-05-15T10:12:50Z</time>
      </trkpt>
      <trkpt lat="48.8411" lon="2.42308">
        <ele>42</ele>
        <time>2014-05-15T10:12:51Z</time>
      </trkpt>
      <trkpt lat="48.84111" lon="2.42307">
        <ele>42</ele>
        <time>2014-05-15T10:12:52Z</time>
      </trkpt>
      <trkpt lat="48.84112" lon="2.42305">
        <ele>41</ele>
        <time>2014-05-15T10:12:53Z</time>
      </trkpt>
      <trkpt lat="48.84112" lon="2.42304">
        <ele>41</ele>
        <time>2014-05-15T10:12:54Z</time>
      </trkpt>
      <trkpt lat="48.84113" lon="2.42302">
        <ele>41</ele>
        <time>2014-05-15T10:12:55Z</time>
      </trkpt>
      <trkpt lat="48.84113" lon="2.423">
        <ele>40</ele>
        <time>2014-05-15T10:12:56Z</time>
      </trkpt>
      <trkpt lat="48.84114" lon="2.42298">
        <ele>40</ele>
        <time>2014-05-15T10:12:57Z</time>
      </trkpt>
      <trkpt lat="48.84114" lon="2.42297">
        <ele>39</ele>
        <time>2014-05-15T10:12:58Z</time>
      </trkpt>
      <trkpt lat="48.84114" lon="2.42295">
        <ele>40</ele>
        <time>2014-05-15T10:12:59Z</time>
      </trkpt>
      <trkpt lat="48.84114" lon="2.42293">
        <ele>39</ele>
        <time>2014-05-15T10:13:00Z</time>
      </trkpt>
      <trkpt lat="48.84114" lon="2.42292">
        <ele>39</ele>
        <time>2014-05-15T10:13:01Z</time>
      </trkpt>
      <trkpt lat="48.84114" lon="2.4229">
        <ele>39</ele>
        <time>2014-05-15T10:13:02Z</time>
      </trkpt>
      <trkpt lat="48.84114" lon="2.42289">
        <ele>39</ele>
        <time>2014-05-15T10:13:03Z</time>
      </trkpt>
      <trkpt lat="48.84114" lon="2.42287">
        <ele>37</ele>
        <time>2014-05-15T10:13:04Z</time>
      </trkpt>
      <trkpt lat="48.84114" lon="2.42286">
        <ele>38</ele>
        <time>2014-05-15T10:13:05Z</time>
      </trkpt>
      <trkpt lat="48.84115" lon="2.42284">
        <ele>38</ele>
        <time>2014-05-15T10:13:06Z</time>
      </trkpt>
      <trkpt lat="48.84115" lon="2.42282">
        <ele>38</ele>
        <time>2014-05-15T10:13:07Z</time>
      </trkpt>
      <trkpt lat="48.84115" lon="2.4228">
        <ele>36</ele>
        <time>2014-05-15T10:13:08Z</time>
      </trkpt>
      <trkpt lat="48.84115" lon="2.42279">
        <ele>38</ele>
        <time>2014-05-15T10:13:09Z</time>
      </trkpt>
      <trkpt lat="48.84115" lon="2.42277">
        <ele>38</ele>
        <time>2014-05-15T10:13:10Z</time>
      </trkpt>
      <trkpt lat="48.84115" lon="2.42275">
        <ele>39</ele>
        <time>2014-05-15T10:13:11Z</time>
      </trkpt>
      <trkpt lat="48.84114" lon="2.42272">
        <ele>39</ele>
        <time>2014-05-15T10:13:12Z</time>
      </trkpt>
      <trkpt lat="48.84113" lon="2.4227">
        <ele>39</ele>
        <time>2014-05-15T10:13:13Z</time>
      </trkpt>
      <trkpt lat="48.84112" lon="2.42269">
        <ele>38</ele>
        <time>2014-05-15T10:13:14Z</time>
      </trkpt>
      <trkpt lat="48.84111" lon="2.42267">
        <ele>38</ele>
        <time>2014-05-15T10:13:15Z</time>
      </trkpt>
      <trkpt lat="48.8411" lon="2.42265">
        <ele>37</ele>
        <time>2014-05-15T10:13:16Z</time>
      </trkpt>
      <trkpt lat="48.84109" lon="2.42262">
        <ele>37</ele>
        <time>2014-05-15T10:13:17Z</time>
      </trkpt>
      <trkpt lat="48.84109" lon="2.4226">
        <ele>37</ele>
        <time>2014-05-15T10:13:18Z</time>
      </trkpt>
      <trkpt lat="48.84108" lon="2.42258">
        <ele>38</ele>
        <time>2014-05-15T10:13:19Z</time>
      </trkpt>
      <trkpt lat="48.84108" lon="2.42255">
        <ele>38</ele>
        <time>2014-05-15T10:13:20Z</time>
      </trkpt>
      <trkpt lat="48.84107" lon="2.42253">
        <ele>38</ele>
        <time>2014-05-15T10:13:21Z</time>
      </trkpt>
      <trkpt lat="48.84106" lon="2.42251">
        <ele>38</ele>
        <time>2014-05-15T10:13:22Z</time>
      </trkpt>
      <trkpt lat="48.84106" lon="2.42248">
        <ele>39</ele>
        <time>2014-05-15T10:13:23Z</time>
      </trkpt>
      <trkpt lat="48.84106" lon="2.42245">
        <ele>39</ele>
        <time>2014-05-15T10:13:24Z</time>
      </trkpt>
      <trkpt lat="48.84106" lon="2.42243">
        <ele>39</ele>
        <time>2014-05-15T10:13:25Z</time>
      </trkpt>
      <trkpt lat="48.84106" lon="2.42241">
        <ele>38</ele>
        <time>2014-05-15T10:13:26Z</time>
      </trkpt>
      <trkpt lat="48.84106" lon="2.42238">
        <ele>38</ele>
        <time>2014-05-15T10:13:27Z</time>
      </trkpt>
      <trkpt lat="48.84106" lon="2.42237">
        <ele>37</ele>
        <time>2014-05-15T10:13:28Z</time>
      </trkpt>
      <trkpt lat="48.84107" lon="2.42235">
        <ele>37</ele>
        <time>2014-05-15T10:13:29Z</time>
      </trkpt>
      <trkpt lat="48.84107" lon="2.42234">
        <ele>36</ele>
        <time>2014-05-15T10:13:30Z</time>
      </trkpt>
      <trkpt lat="48.84107" lon="2.42232">
        <ele>37</ele>
        <time>2014-05-15T10:13:31Z</time>
      </trkpt>
      <trkpt lat="48.84107" lon="2.4223">
        <ele>37</ele>
        <time>2014-05-15T10:13:32Z</time>
      </trkpt>
      <trkpt lat="48.84106" lon="2.42228">
        <ele>37</ele>
        <time>2014-05-15T10:13:33Z</time>
      </trkpt>
      <trkpt lat="48.84106" lon="2.42227">
        <ele>37</ele>
        <time>2014-05-15T10:13:34Z</time>
      </trkpt>
      <trkpt lat="48.84105" lon="2.42225">
        <ele>37</ele>
        <time>2014-05-15T10:13:35Z</time>
      </trkpt>
      <trkpt lat="48.84104" lon="2.42224">
        <ele>38</ele>
        <time>2014-05-15T10:13:36Z</time>
      </trkpt>
      <trkpt lat="48.84103" lon="2.42222">
        <ele>38</ele>
        <time>2014-05-15T10:13:37Z</time>
      </trkpt>
      <trkpt lat="48.84102" lon="2.4222">
        <ele>38</ele>
        <time>2014-05-15T10:13:38Z</time>
      </trkpt>
      <trkpt lat="48.84101" lon="2.42218">
        <ele>38</ele>
        <time>2014-05-15T10:13:39Z</time>
      </trkpt>
      <trkpt lat="48.84101" lon="2.42217">
        <ele>38</ele>
        <time>2014-05-15T10:13:40Z</time>
      </trkpt>
      <trkpt lat="48.841" lon="2.42215">
        <ele>38</ele>
        <time>2014-05-15T10:13:41Z</time>
      </trkpt>
      <trkpt lat="48.841" lon="2.42213">
        <ele>38</ele>
        <time>2014-05-15T10:13:42Z</time>
      </trkpt>
      <trkpt lat="48.84099" lon="2.42211">
        <ele>38</ele>
        <time>2014-05-15T10:13:43Z</time>
      </trkpt>
      <trkpt lat="48.84099" lon="2.4221">
        <ele>37</ele>
        <time>2014-05-15T10:13:44Z</time>
      </trkpt>
      <trkpt lat="48.84099" lon="2.42208">
        <ele>38</ele>
        <time>2014-05-15T10:13:45Z</time>
      </trkpt>
      <trkpt lat="48.84098" lon="2.42207">
        <ele>38</ele>
        <time>2014-05-15T10:13:46Z</time>
      </trkpt>
      <trkpt lat="48.84098" lon="2.42206">
        <ele>38</ele>
        <time>2014-05-15T10:13:47Z</time>
      </trkpt>
      <trkpt lat="48.84097" lon="2.42204">
        <ele>38</ele>
        <time>2014-05-15T10:13:48Z</time>
      </trkpt>
      <trkpt lat="48.84097" lon="2.42202">
        <ele>37</ele>
        <time>2014-05-15T10:13:49Z</time>
      </trkpt>
      <trkpt lat="48.84096" lon="2.42201">
        <ele>37</ele>
        <time>2014-05-15T10:13:50Z</time>
      </trkpt>
      <trkpt lat="48.84095" lon="2.422">
        <ele>36</ele>
        <time>2014-05-15T10:13:51Z</time>
      </trkpt>
      <trkpt lat="48.84095" lon="2.42198">
        <ele>37</ele>
        <time>2014-05-15T10:13:52Z</time>
      </trkpt>
      <trkpt lat="48.84094" lon="2.42197">
        <ele>37</ele>
        <time>2014-05-15T10:13:53Z</time>
      </trkpt>
      <trkpt lat="48.84094" lon="2.42196">
        <ele>36</ele>
        <time>2014-05-15T10:13:54Z</time>
      </trkpt>
      <trkpt lat="48.84094" lon="2.42195">
        <ele>36</ele>
        <time>2014-05-15T10:13:55Z</time>
      </trkpt>
      <trkpt lat="48.84094" lon="2.42194">
        <ele>36</ele>
        <time>2014-05-15T10:13:56Z</time>
      </trkpt>
      <trkpt lat="48.84093" lon="2.42194">
        <ele>35</ele>
        <time>2014-05-15T10:13:57Z</time>
      </trkpt>
      <trkpt lat="48.84093" lon="2.42193">
        <ele>35</ele>
        <time>2014-05-15T10:13:58Z</time>
      </trkpt>
      <trkpt lat="48.84092" lon="2.42193">
        <ele>35</ele>
        <time>2014-05-15T10:13:59Z</time>
      </trkpt>
      <trkpt lat="48.84092" lon="2.42192">
        <ele>35</ele>
        <time>2014-05-15T10:14:00Z</time>
      </trkpt>
      <trkpt lat="48.84091" lon="2.42191">
        <ele>36</ele>
        <time>2014-05-15T10:14:01Z</time>
      </trkpt>
      <trkpt lat="48.8409" lon="2.42191">
        <ele>35</ele>
        <time>2014-05-15T10:14:02Z</time>
      </trkpt>
      <trkpt lat="48.84089" lon="2.4219">
        <ele>36</ele>
        <time>2014-05-15T10:14:03Z</time>
      </trkpt>
      <trkpt lat="48.84089" lon="2.42189">
        <ele>36</ele>
        <time>2014-05-15T10:14:04Z</time>
      </trkpt>
      <trkpt lat="48.84089" lon="2.42189">
        <ele>36</ele>
        <time>2014-05-15T10:14:05Z</time>
      </trkpt>
      <trkpt lat="48.84088" lon="2.42188">
        <ele>36</ele>
        <time>2014-05-15T10:14:06Z</time>
      </trkpt>
      <trkpt lat="48.84088" lon="2.42188">
        <ele>37</ele>
        <time>2014-05-15T10:14:07Z</time>
      </trkpt>
      <trkpt lat="48.84088" lon="2.42188">
        <ele>38</ele>
        <time>2014-05-15T10:14:08Z</time>
      </trkpt>
      <trkpt lat="48.84088" lon="2.42187">
        <ele>38</ele>
        <time>2014-05-15T10:14:09Z</time>
      </trkpt>
      <trkpt lat="48.84087" lon="2.42187">
        <ele>38</ele>
        <time>2014-05-15T10:14:10Z</time>
      </trkpt>
      <trkpt lat="48.84087" lon="2.42187">
        <ele>39</ele>
        <time>2014-05-15T10:14:11Z</time>
      </trkpt>
      <trkpt lat="48.84087" lon="2.42187">
        <ele>38</ele>
        <time>2014-05-15T10:14:12Z</time>
      </trkpt>
      <trkpt lat="48.84087" lon="2.42187">
        <ele>38</ele>
        <time>2014-05-15T10:14:13Z</time>
      </trkpt>
      <trkpt lat="48.84087" lon="2.42187">
        <ele>38</ele>
        <time>2014-05-15T10:14:14Z</time>
      </trkpt>
      <trkpt lat="48.84087" lon="2.42187">
        <ele>38</ele>
        <time>2014-05-15T10:14:15Z</time>
      </trkpt>
      <trkpt lat="48.84087" lon="2.42187">
        <ele>38</ele>
        <time>2014-05-15T10:14:16Z</time>
      </trkpt>
      <trkpt lat="48.84087" lon="2.42187">
        <ele>38</ele>
        <time>2014-05-15T10:14:17Z</time>
      </trkpt>
      <trkpt lat="48.84086" lon="2.42187">
        <ele>39</ele>
        <time>2014-05-15T10:14:18Z</time>
      </trkpt>
      <trkpt lat="48.84086" lon="2.42187">
        <ele>39</ele>
        <time>2014-05-15T10:14:19Z</time>
      </trkpt>
      <trkpt lat="48.84086" lon="2.42187">
        <ele>39</ele>
        <time>2014-05-15T10:14:20Z</time>
      </trkpt>
      <trkpt lat="48.84086" lon="2.42187">
        <ele>39</ele>
        <time>2014-05-15T10:14:21Z</time>
      </trkpt>
      <trkpt lat="48.84087" lon="2.42187">
        <ele>38</ele>
        <time>2014-05-15T10:14:22Z</time>
      </trkpt>
      <trkpt lat="48.84087" lon="2.42187">
        <ele>38</ele>
        <time>2014-05-15T10:14:23Z</time>
      </trkpt>
      <trkpt lat="48.84087" lon="2.42187">
        <ele>38</ele>
        <time>2014-05-15T10:14:24Z</time>
      </trkpt>
      <trkpt lat="48.84087" lon="2.42187">
        <ele>38</ele>
        <time>2014-05-15T10:14:25Z</time>
      </trkpt>
      <trkpt lat="48.84087" lon="2.42187">
        <ele>38</ele>
        <time>2014-05-15T10:14:26Z</time>
      </trkpt>
      <trkpt lat="48.84087" lon="2.42187">
        <ele>38</ele>
        <time>2014-05-15T10:14:27Z</time>
      </trkpt>
      <trkpt lat="48.84087" lon="2.42187">
        <ele>38</ele>
        <time>2014-05-15T10:14:28Z</time>
      </trkpt>
      <trkpt lat="48.84087" lon="2.42187">
        <ele>38</ele>
        <time>2014-05-15T10:14:29Z</time>
      </trkpt>
      <trkpt lat="48.84087" lon="2.42187">
        <ele>38</ele>
        <time>2014-05-15T10:14:30Z</time>
      </trkpt>
      <trkpt lat="48.84087" lon="2.42187">
        <ele>38</ele>
        <time>2014-05-15T10:14:31Z</time>
      </trkpt>
      <trkpt lat="48.84087" lon="2.42187">
        <ele>38</ele>
        <time>2014-05-15T10:14:32Z</time>
      </trkpt>
      <trkpt lat="48.84087" lon="2.42187">
        <ele>38</ele>
        <time>2014-05-15T10:14:33Z</time>
      </trkpt>
      <trkpt lat="48.84087" lon="2.42187">
        <ele>38</ele>
        <time>2014-05-15T10:14:34Z</time>
      </trkpt>
      <trkpt lat="48.84087" lon="2.42188">
        <ele>38</ele>
        <time>2014-05-15T10:14:35Z</time>
      </trkpt>
      <trkpt lat="48.84086" lon="2.42187">
        <ele>39</ele>
        <time>2014-05-15T10:14:36Z</time>
      </trkpt>
      <trkpt lat="48.84086" lon="2.42187">
        <ele>39</ele>
        <time>2014-05-15T10:14:37Z</time>
      </trkpt>
      <trkpt lat="48.84087" lon="2.42186">
        <ele>40</ele>
        <time>2014-05-15T10:14:38Z</time>
      </trkpt>
      <trkpt lat="48.84087" lon="2.42185">
        <ele>40</ele>
        <time>2014-05-15T10:14:39Z</time>
      </trkpt>
      <trkpt lat="48.84087" lon="2.42185">
        <ele>40</ele>
        <time>2014-05-15T10:14:40Z</time>
      </trkpt>
      <trkpt lat="48.84087" lon="2.42184">
        <ele>40</ele>
        <time>2014-05-15T10:14:41Z</time>
      </trkpt>
      <trkpt lat="48.84087" lon="2.42183">
        <ele>40</ele>
        <time>2014-05-15T10:14:42Z</time>
      </trkpt>
      <trkpt lat="48.84087" lon="2.42183">
        <ele>40</ele>
        <time>2014-05-15T10:14:43Z</time>
      </trkpt>
      <trkpt lat="48.84087" lon="2.42183">
        <ele>41</ele>
        <time>2014-05-15T10:14:44Z</time>
      </trkpt>
      <trkpt lat="48.84086" lon="2.42182">
        <ele>41</ele>
        <time>2014-05-15T10:14:45Z</time>
      </trkpt>
      <trkpt lat="48.84086" lon="2.42182">
        <ele>41</ele>
        <time>2014-05-15T10:14:46Z</time>
      </trkpt>
      <trkpt lat="48.84086" lon="2.42182">
        <ele>41</ele>
        <time>2014-05-15T10:14:47Z</time>
      </trkpt>
      <trkpt lat="48.84086" lon="2.42182">
        <ele>41</ele>
        <time>2014-05-15T10:14:48Z</time>
      </trkpt>
      <trkpt lat="48.84086" lon="2.42181">
        <ele>41</ele>
        <time>2014-05-15T10:14:49Z</time>
      </trkpt>
      <trkpt lat="48.84085" lon="2.42181">
        <ele>41</ele>
        <time>2014-05-15T10:14:50Z</time>
      </trkpt>
      <trkpt lat="48.84085" lon="2.42181">
        <ele>41</ele>
        <time>2014-05-15T10:14:51Z</time>
      </trkpt>
      <trkpt lat="48.84085" lon="2.42181">
        <ele>41</ele>
        <time>2014-05-15T10:14:52Z</time>
      </trkpt>
      <trkpt lat="48.84085" lon="2.42181">
        <ele>41</ele>
        <time>2014-05-15T10:14:53Z</time>
      </trkpt>
      <trkpt lat="48.84085" lon="2.42181">
        <ele>41</ele>
        <time>2014-05-15T10:14:54Z</time>
      </trkpt>
      <trkpt lat="48.84085" lon="2.42181">
        <ele>41</ele>
        <time>2014-05-15T10:14:55Z</time>
      </trkpt>
      <trkpt lat="48.84085" lon="2.42181">
        <ele>41</ele>
        <time>2014-05-15T10:14:56Z</time>
      </trkpt>
      <trkpt lat="48.84085" lon="2.42181">
        <ele>41</ele>
        <time>2014-05-15T10:14:57Z</time>
      </trkpt>
      <trkpt lat="48.84085" lon="2.42181">
        <ele>41</ele>
        <time>2014-05-15T10:14:58Z</time>
      </trkpt>
      <trkpt lat="48.84085" lon="2.42181">
        <ele>41</ele>
        <time>2014-05-15T10:14:59Z</time>
      </trkpt>
      <trkpt lat="48.84085" lon="2.42181">
        <ele>41</ele>
        <time>2014-05-15T10:15:00Z</time>
      </trkpt>
      <trkpt lat="48.84085" lon="2.42181">
        <ele>41</ele>
        <time>2014-05-15T10:15:01Z</time>
      </trkpt>
      <trkpt lat="48.84085" lon="2.42181">
        <ele>41</ele>
        <time>2014-05-15T10:15:02Z</time>
      </trkpt>
      <trkpt lat="48.84085" lon="2.42181">
        <ele>41</ele>
        <time>2014-05-15T10:15:03Z</time>
      </trkpt>
      <trkpt lat="48.84085" lon="2.42181">
        <ele>41</ele>
        <time>2014-05-15T10:15:04Z</time>
      </trkpt>
      <trkpt lat="48.84085" lon="2.42181">
        <ele>41</ele>
        <time>2014-05-15T10:15:05Z</time>
      </trkpt>
      <trkpt lat="48.84085" lon="2.42181">
        <ele>41</ele>
        <time>2014-05-15T10:16:01Z</time>
      </trkpt>
      <trkpt lat="48.84085" lon="2.4218">
        <ele>41</ele>
        <time>2014-05-15T10:16:02Z</time>
      </trkpt>
      <trkpt lat="48.84085" lon="2.4218">
        <ele>42</ele>
        <time>2014-05-15T10:16:03Z</time>
      </trkpt>
      <trkpt lat="48.84085" lon="2.4218">
        <ele>42</ele>
        <time>2014-05-15T10:16:04Z</time>
      </trkpt>
      <trkpt lat="48.84085" lon="2.4218">
        <ele>42</ele>
        <time>2014-05-15T10:16:05Z</time>
      </trkpt>
      <trkpt lat="48.84085" lon="2.4218">
        <ele>42</ele>
        <time>2014-05-15T10:16:06Z</time>
      </trkpt>
      <trkpt lat="48.84085" lon="2.4218">
        <ele>42</ele>
        <time>2014-05-15T10:16:07Z</time>
      </trkpt>
      <trkpt lat="48.84085" lon="2.4218">
        <ele>42</ele>
        <time>2014-05-15T10:16:08Z</time>
      </trkpt>
      <trkpt lat="48.84085" lon="2.4218">
        <ele>43</ele>
        <time>2014-05-15T10:16:09Z</time>
      </trkpt>
      <trkpt lat="48.84085" lon="2.4218">
        <ele>43</ele>
        <time>2014-05-15T10:16:10Z</time>
      </trkpt>
      <trkpt lat="48.84085" lon="2.4218">
        <ele>43</ele>
        <time>2014-05-15T10:16:11Z</time>
      </trkpt>
      <trkpt lat="48.84085" lon="2.42179">
        <ele>43</ele>
        <time>2014-05-15T10:16:12Z</time>
      </trkpt>
      <trkpt lat="48.84085" lon="2.42179">
        <ele>43</ele>
        <time>2014-05-15T10:16:13Z</time>
      </trkpt>
      <trkpt lat="48.84085" lon="2.42179">
        <ele>43</ele>
        <time>2014-05-15T10:16:14Z</time>
      </trkpt>
      <trkpt lat="48.84085" lon="2.42179">
        <ele>43</ele>
        <time>2014-05-15T10:16:15Z</time>
      </trkpt>
      <trkpt lat="48.84085" lon="2.42179">
        <ele>43</ele>
        <time>2014-05-15T10:16:16Z</time>
      </trkpt>
      <trkpt lat="48.84085" lon="2.42179">
        <ele>43</ele>
        <time>2014-05-15T10:16:17Z</time>
      </trkpt>
      <trkpt lat="48.84085" lon="2.42179">
        <ele>43</ele>
        <time>2014-05-15T10:16:18Z</time>
      </trkpt>
      <trkpt lat="48.84085" lon="2.42179">
        <ele>43</ele>
        <time>2014-05-15T10:16:19Z</time>
      </trkpt>
      <trkpt lat="48.84085" lon="2.42179">
        <ele>43</ele>
        <time>2014-05-15T10:16:20Z</time>
      </trkpt>
      <trkpt lat="48.84085" lon="2.4218">
        <ele>43</ele>
        <time>2014-05-15T10:16:21Z</time>
      </trkpt>
      <trkpt lat="48.84085" lon="2.4218">
        <ele>43</ele>
        <time>2014-05-15T10:16:22Z</time>
      </trkpt>
      <trkpt lat="48.84085" lon="2.4218">
        <ele>43</ele>
        <time>2014-05-15T10:16:23Z</time>
      </trkpt>
      <trkpt lat="48.84085" lon="2.4218">
        <ele>43</ele>
        <time>2014-05-15T10:16:24Z</time>
      </trkpt>
      <trkpt lat="48.84085" lon="2.4218">
        <ele>43</ele>
        <time>2014-05-15T10:16:25Z</time>
      </trkpt>
      <trkpt lat="48.84085" lon="2.4218">
        <ele>43</ele>
        <time>2014-05-15T10:16:26Z</time>
      </trkpt>
      <trkpt lat="48.84085" lon="2.4218">
        <ele>43</ele>
        <time>2014-05-15T10:16:27Z</time>
      </trkpt>
      <trkpt lat="48.84085" lon="2.4218">
        <ele>43</ele>
        <time>2014-05-15T10:16:28Z</time>
      </trkpt>
      <trkpt lat="48.84085" lon="2.4218">
        <ele>43</ele>
        <time>2014-05-15T10:16:29Z</time>
      </trkpt>
      <trkpt lat="48.84085" lon="2.4218">
        <ele>43</ele>
        <time>2014-05-15T10:16:30Z</time>
      </trkpt>
      <trkpt lat="48.84085" lon="2.4218">
        <ele>43</ele>
        <time>2014-05-15T10:16:31Z</time>
      </trkpt>
      <trkpt lat="48.84085" lon="2.4218">
        <ele>44</ele>
        <time>2014-05-15T10:16:32Z</time>
      </trkpt>
      <trkpt lat="48.84085" lon="2.4218">
        <ele>44</ele>
        <time>2014-05-15T10:16:33Z</time>
      </trkpt>
      <trkpt lat="48.84085" lon="2.4218">
        <ele>44</ele>
        <time>2014-05-15T10:16:34Z</time>
      </trkpt>
      <trkpt lat="48.84085" lon="2.4218">
        <ele>44</ele>
        <time>2014-05-15T10:16:35Z</time>
      </trkpt>
      <trkpt lat="48.84084" lon="2.4218">
        <ele>44</ele>
        <time>2014-05-15T10:16:36Z</time>
      </trkpt>
      <trkpt lat="48.84084" lon="2.4218">
        <ele>43</ele>
        <time>2014-05-15T10:16:37Z</time>
      </trkpt>
      <trkpt lat="48.84084" lon="2.4218">
        <ele>43</ele>
        <time>2014-05-15T10:16:38Z</time>
      </trkpt>
      <trkpt lat="48.84084" lon="2.4218">
        <ele>43</ele>
        <time>2014-05-15T10:16:39Z</time>
      </trkpt>
      <trkpt lat="48.84085" lon="2.4218">
        <ele>42</ele>
        <time>2014-05-15T10:16:40Z</time>
      </trkpt>
      <trkpt lat="48.84085" lon="2.42181">
        <ele>42</ele>
        <time>2014-05-15T10:16:41Z</time>
      </trkpt>
      <trkpt lat="48.84085" lon="2.42181">
        <ele>42</ele>
        <time>2014-05-15T10:16:42Z</time>
      </trkpt>
      <trkpt lat="48.84085" lon="2.42181">
        <ele>42</ele>
        <time>2014-05-15T10:16:43Z</time>
      </trkpt>
      <trkpt lat="48.84085" lon="2.42181">
        <ele>42</ele>
        <time>2014-05-15T10:16:44Z</time>
      </trkpt>
      <trkpt lat="48.84085" lon="2.42181">
        <ele>42</ele>
        <time>2014-05-15T10:16:45Z</time>
      </trkpt>
      <trkpt lat="48.84085" lon="2.42181">
        <ele>42</ele>
        <time>2014-05-15T10:16:46Z</time>
      </trkpt>
      <trkpt lat="48.84085" lon="2.42181">
        <ele>42</ele>
        <time>2014-05-15T10:16:47Z</time>
      </trkpt>
      <trkpt lat="48.84085" lon="2.42181">
        <ele>42</ele>
        <time>2014-05-15T10:16:48Z</time>
      </trkpt>
      <trkpt lat="48.84085" lon="2.42181">
        <ele>42</ele>
        <time>2014-05-15T10:16:49Z</time>
      </trkpt>
      <trkpt lat="48.84085" lon="2.42181">
        <ele>42</ele>
        <time>2014-05-15T10:16:50Z</time>
      </trkpt>
      <trkpt lat="48.84085" lon="2.42181">
        <ele>42</ele>
        <time>2014-05-15T10:16:51Z</time>
      </trkpt>
      <trkpt lat="48.84085" lon="2.42181">
        <ele>42</ele>
        <time>2014-05-15T10:16:52Z</time>
      </trkpt>
      <trkpt lat="48.84085" lon="2.42181">
        <ele>42</ele>
        <time>2014-05-15T10:16:53Z</time>
      </trkpt>
      <trkpt lat="48.84085" lon="2.42181">
        <ele>42</ele>
        <time>2014-05-15T10:16:54Z</time>
      </trkpt>
      <trkpt lat="48.84085" lon="2.42181">
        <ele>42</ele>
        <time>2014-05-15T10:16:55Z</time>
      </trkpt>
      <trkpt lat="48.84085" lon="2.42181">
        <ele>42</ele>
        <time>2014-05-15T10:16:56Z</time>
      </trkpt>
      <trkpt lat="48.84085" lon="2.42181">
        <ele>42</ele>
        <time>2014-05-15T10:16:57Z</time>
      </trkpt>
      <trkpt lat="48.84084" lon="2.42181">
        <ele>42</ele>
        <time>2014-05-15T10:16:58Z</time>
      </trkpt>
      <trkpt lat="48.84083" lon="2.4218">
        <ele>42</ele>
        <time>2014-05-15T10:16:59Z</time>
      </trkpt>
      <trkpt lat="48.84083" lon="2.42179">
        <ele>37</ele>
        <time>2014-05-15T10:17:00Z</time>
      </trkpt>
      <trkpt lat="48.84082" lon="2.42178">
        <ele>38</ele>
        <time>2014-05-15T10:17:01Z</time>
      </trkpt>
      <trkpt lat="48.84082" lon="2.42177">
        <ele>37</ele>
        <time>2014-05-15T10:17:02Z</time>
      </trkpt>
      <trkpt lat="48.84082" lon="2.42175">
        <ele>36</ele>
        <time>2014-05-15T10:17:03Z</time>
      </trkpt>
      <trkpt lat="48.84081" lon="2.42173">
        <ele>37</ele>
        <time>2014-05-15T10:17:04Z</time>
      </trkpt>
      <trkpt lat="48.84081" lon="2.42172">
        <ele>39</ele>
        <time>2014-05-15T10:17:05Z</time>
      </trkpt>
      <trkpt lat="48.84081" lon="2.4217">
        <ele>40</ele>
        <time>2014-05-15T10:17:06Z</time>
      </trkpt>
      <trkpt lat="48.84081" lon="2.42168">
        <ele>40</ele>
        <time>2014-05-15T10:17:07Z</time>
      </trkpt>
      <trkpt lat="48.8408" lon="2.42166">
        <ele>39</ele>
        <time>2014-05-15T10:17:08Z</time>
      </trkpt>
      <trkpt lat="48.84078" lon="2.42163">
        <ele>40</ele>
        <time>2014-05-15T10:17:09Z</time>
      </trkpt>
      <trkpt lat="48.84077" lon="2.42162">
        <ele>39</ele>
        <time>2014-05-15T10:17:10Z</time>
      </trkpt>
      <trkpt lat="48.84077" lon="2.4216">
        <ele>39</ele>
        <time>2014-05-15T10:17:11Z</time>
      </trkpt>
      <trkpt lat="48.84076" lon="2.42158">
        <ele>40</ele>
        <time>2014-05-15T10:17:12Z</time>
      </trkpt>
      <trkpt lat="48.84075" lon="2.42156">
        <ele>40</ele>
        <time>2014-05-15T10:17:13Z</time>
      </trkpt>
      <trkpt lat="48.84074" lon="2.42154">
        <ele>42</ele>
        <time>2014-05-15T10:17:14Z</time>
      </trkpt>
      <trkpt lat="48.84073" lon="2.42152">
        <ele>42</ele>
        <time>2014-05-15T10:17:15Z</time>
      </trkpt>
      <trkpt lat="48.84073" lon="2.42151">
        <ele>40</ele>
        <time>2014-05-15T10:17:16Z</time>
      </trkpt>
      <trkpt lat="48.84073" lon="2.42149">
        <ele>40</ele>
        <time>2014-05-15T10:17:17Z</time>
      </trkpt>
      <trkpt lat="48.84072" lon="2.42149">
        <ele>40</ele>
        <time>2014-05-15T10:17:18Z</time>
      </trkpt>
      <trkpt lat="48.84072" lon="2.42149">
        <ele>40</ele>
        <time>2014-05-15T10:17:19Z</time>
      </trkpt>
      <trkpt lat="48.84072" lon="2.42149">
        <ele>39</ele>
        <time>2014-05-15T10:17:20Z</time>
      </trkpt>
      <trkpt lat="48.84073" lon="2.4215">
        <ele>39</ele>
        <time>2014-05-15T10:17:21Z</time>
      </trkpt>
      <trkpt lat="48.84073" lon="2.4215">
        <ele>39</ele>
        <time>2014-05-15T10:17:22Z</time>
      </trkpt>
      <trkpt lat="48.84073" lon="2.4215">
        <ele>39</ele>
        <time>2014-05-15T10:17:23Z</time>
      </trkpt>
      <trkpt lat="48.84072" lon="2.42151">
        <ele>39</ele>
        <time>2014-05-15T10:17:24Z</time>
      </trkpt>
      <trkpt lat="48.84072" lon="2.42151">
        <ele>39</ele>
        <time>2014-05-15T10:17:25Z</time>
      </trkpt>
      <trkpt lat="48.84072" lon="2.42151">
        <ele>39</ele>
        <time>2014-05-15T10:17:26Z</time>
      </trkpt>
      <trkpt lat="48.84072" lon="2.42152">
        <ele>39</ele>
        <time>2014-05-15T10:17:27Z</time>
      </trkpt>
      <trkpt lat="48.84072" lon="2.42152">
        <ele>39</ele>
        <time>2014-05-15T10:17:28Z</time>
      </trkpt>
      <trkpt lat="48.84072" lon="2.42152">
        <ele>38</ele>
        <time>2014-05-15T10:17:29Z</time>
      </trkpt>
      <trkpt lat="48.84073" lon="2.42153">
        <ele>38</ele>
        <time>2014-05-15T10:17:30Z</time>
      </trkpt>
      <trkpt lat="48.84073" lon="2.42153">
        <ele>39</ele>
        <time>2014-05-15T10:17:31Z</time>
      </trkpt>
      <trkpt lat="48.84073" lon="2.42153">
        <ele>39</ele>
        <time>2014-05-15T10:17:32Z</time>
      </trkpt>
      <trkpt lat="48.84072" lon="2.42153">
        <ele>39</ele>
        <time>2014-05-15T10:17:33Z</time>
      </trkpt>
      <trkpt lat="48.84072" lon="2.42153">
        <ele>39</ele>
        <time>2014-05-15T10:17:34Z</time>
      </trkpt>
      <trkpt lat="48.84072" lon="2.42153">
        <ele>39</ele>
        <time>2014-05-15T10:17:35Z</time>
      </trkpt>
      <trkpt lat="48.84072" lon="2.42153">
        <ele>39</ele>
        <time>2014-05-15T10:17:36Z</time>
      </trkpt>
      <trkpt lat="48.84072" lon="2.42153">
        <ele>39</ele>
        <time>2014-05-15T10:17:37Z</time>
      </trkpt>
      <trkpt lat="48.84072" lon="2.42153">
        <ele>39</ele>
        <time>2014-05-15T10:17:38Z</time>
      </trkpt>
      <trkpt lat="48.84073" lon="2.42153">
        <ele>38</ele>
        <time>2014-05-15T10:17:39Z</time>
      </trkpt>
      <trkpt lat="48.84073" lon="2.42153">
        <ele>39</ele>
        <time>2014-05-15T10:17:40Z</time>
      </trkpt>
      <trkpt lat="48.84074" lon="2.42154">
        <ele>35</ele>
        <time>2014-05-15T10:17:41Z</time>
      </trkpt>
      <trkpt lat="48.84075" lon="2.42155">
        <ele>35</ele>
        <time>2014-05-15T10:17:42Z</time>
      </trkpt>
      <trkpt lat="48.84075" lon="2.42156">
        <ele>37</ele>
        <time>2014-05-15T10:17:43Z</time>
      </trkpt>
      <trkpt lat="48.84076" lon="2.42158">
        <ele>37</ele>
        <time>2014-05-15T10:17:44Z</time>
      </trkpt>
      <trkpt lat="48.84077" lon="2.42159">
        <ele>39</ele>
        <time>2014-05-15T10:17:45Z</time>
      </trkpt>
      <trkpt lat="48.84077" lon="2.4216">
        <ele>38</ele>
        <time>2014-05-15T10:17:46Z</time>
      </trkpt>
      <trkpt lat="48.84078" lon="2.42161">
        <ele>38</ele>
        <time>2014-05-15T10:17:47Z</time>
      </trkpt>
      <trkpt lat="48.84079" lon="2.42163">
        <ele>37</ele>
        <time>2014-05-15T10:17:48Z</time>
      </trkpt>
      <trkpt lat="48.84079" lon="2.42164">
        <ele>37</ele>
        <time>2014-05-15T10:17:49Z</time>
      </trkpt>
      <trkpt lat="48.8408" lon="2.42165">
        <ele>36</ele>
        <time>2014-05-15T10:17:50Z</time>
      </trkpt>
      <trkpt lat="48.8408" lon="2.42165">
        <ele>36</ele>
        <time>2014-05-15T10:17:51Z</time>
      </trkpt>
      <trkpt lat="48.84081" lon="2.42165">
        <ele>35</ele>
        <time>2014-05-15T10:17:52Z</time>
      </trkpt>
      <trkpt lat="48.84081" lon="2.42166">
        <ele>35</ele>
        <time>2014-05-15T10:17:53Z</time>
      </trkpt>
      <trkpt lat="48.84082" lon="2.42166">
        <ele>33</ele>
        <time>2014-05-15T10:17:54Z</time>
      </trkpt>
      <trkpt lat="48.84083" lon="2.42166">
        <ele>31</ele>
        <time>2014-05-15T10:17:55Z</time>
      </trkpt>
      <trkpt lat="48.84083" lon="2.42167">
        <ele>31</ele>
        <time>2014-05-15T10:17:56Z</time>
      </trkpt>
      <trkpt lat="48.84083" lon="2.42168">
        <ele>31</ele>
        <time>2014-05-15T10:17:57Z</time>
      </trkpt>
      <trkpt lat="48.84084" lon="2.42169">
        <ele>31</ele>
        <time>2014-05-15T10:17:58Z</time>
      </trkpt>
      <trkpt lat="48.84085" lon="2.4217">
        <ele>34</ele>
        <time>2014-05-15T10:17:59Z</time>
      </trkpt>
      <trkpt lat="48.84086" lon="2.42171">
        <ele>35</ele>
        <time>2014-05-15T10:18:00Z</time>
      </trkpt>
      <trkpt lat="48.84087" lon="2.42172">
        <ele>36</ele>
        <time>2014-05-15T10:18:01Z</time>
      </trkpt>
      <trkpt lat="48.84087" lon="2.42172">
        <ele>36</ele>
        <time>2014-05-15T10:18:02Z</time>
      </trkpt>
      <trkpt lat="48.84088" lon="2.42172">
        <ele>36</ele>
        <time>2014-05-15T10:18:03Z</time>
      </trkpt>
      <trkpt lat="48.84088" lon="2.42171">
        <ele>37</ele>
        <time>2014-05-15T10:18:04Z</time>
      </trkpt>
      <trkpt lat="48.84088" lon="2.42171">
        <ele>36</ele>
        <time>2014-05-15T10:18:05Z</time>
      </trkpt>
      <trkpt lat="48.84088" lon="2.42171">
        <ele>36</ele>
        <time>2014-05-15T10:18:06Z</time>
      </trkpt>
      <trkpt lat="48.84088" lon="2.42172">
        <ele>36</ele>
        <time>2014-05-15T10:18:07Z</time>
      </trkpt>
      <trkpt lat="48.84088" lon="2.42172">
        <ele>35</ele>
        <time>2014-05-15T10:18:08Z</time>
      </trkpt>
      <trkpt lat="48.84088" lon="2.42172">
        <ele>36</ele>
        <time>2014-05-15T10:18:09Z</time>
      </trkpt>
      <trkpt lat="48.84088" lon="2.42172">
        <ele>36</ele>
        <time>2014-05-15T10:18:10Z</time>
      </trkpt>
      <trkpt lat="48.84088" lon="2.42172">
        <ele>36</ele>
        <time>2014-05-15T10:18:11Z</time>
      </trkpt>
      <trkpt lat="48.84088" lon="2.42172">
        <ele>36</ele>
        <time>2014-05-15T10:18:12Z</time>
      </trkpt>
      <trkpt lat="48.84088" lon="2.42172">
        <ele>36</ele>
        <time>2014-05-15T10:18:13Z</time>
      </trkpt>
      <trkpt lat="48.84088" lon="2.42172">
        <ele>36</ele>
        <time>2014-05-15T10:18:14Z</time>
      </trkpt>
      <trkpt lat="48.84088" lon="2.42172">
        <ele>36</ele>
        <time>2014-05-15T10:18:15Z</time>
      </trkpt>
      <trkpt lat="48.84088" lon="2.42172">
        <ele>37</ele>
        <time>2014-05-15T10:18:16Z</time>
      </trkpt>
      <trkpt lat="48.84089" lon="2.42171">
        <ele>37</ele>
        <time>2014-05-15T10:18:17Z</time>
      </trkpt>
      <trkpt lat="48.84089" lon="2.42171">
        <ele>38</ele>
        <time>2014-05-15T10:18:18Z</time>
      </trkpt>
      <trkpt lat="48.84089" lon="2.42171">
        <ele>38</ele>
        <time>2014-05-15T10:18:19Z</time>
      </trkpt>
      <trkpt lat="48.84089" lon="2.42171">
        <ele>37</ele>
        <time>2014-05-15T10:18:20Z</time>
      </trkpt>
      <trkpt lat="48.84089" lon="2.42171">
        <ele>37</ele>
        <time>2014-05-15T10:18:21Z</time>
      </trkpt>
      <trkpt lat="48.84089" lon="2.42171">
        <ele>37</ele>
        <time>2014-05-15T10:18:22Z</time>
      </trkpt>
      <trkpt lat="48.84089" lon="2.42172">
        <ele>37</ele>
        <time>2014-05-15T10:18:23Z</time>
      </trkpt>
      <trkpt lat="48.84089" lon="2.42172">
        <ele>37</ele>
        <time>2014-05-15T10:18:24Z</time>
      </trkpt>
      <trkpt lat="48.84089" lon="2.42172">
        <ele>37</ele>
        <time>2014-05-15T10:18:25Z</time>
      </trkpt>
      <trkpt lat="48.84089" lon="2.42172">
        <ele>37</ele>
        <time>2014-05-15T10:18:26Z</time>
      </trkpt>
      <trkpt lat="48.84089" lon="2.42172">
        <ele>37</ele>
        <time>2014-05-15T10:18:27Z</time>
      </trkpt>
      <trkpt lat="48.84089" lon="2.42172">
        <ele>37</ele>
        <time>2014-05-15T10:18:28Z</time>
      </trkpt>
      <trkpt lat="48.84089" lon="2.42172">
        <ele>37</ele>
        <time>2014-05-15T10:18:29Z</time>
      </trkpt>
      <trkpt lat="48.84089" lon="2.42172">
        <ele>37</ele>
        <time>2014-05-15T10:18:30Z</time>
      </trkpt>
      <trkpt lat="48.84089" lon="2.42172">
        <ele>37</ele>
        <time>2014-05-15T10:18:31Z</time>
      </trkpt>
      <trkpt lat="48.84089" lon="2.42172">
        <ele>37</ele>
        <time>2014-05-15T10:18:32Z</time>
      </trkpt>
      <trkpt lat="48.84089" lon="2.42172">
        <ele>37</ele>
        <time>2014-05-15T10:18:33Z</time>
      </trkpt>
      <trkpt lat="48.84089" lon="2.42172">
        <ele>37</ele>
        <time>2014-05-15T10:18:34Z</time>
      </trkpt>
      <trkpt lat="48.84089" lon="2.42172">
        <ele>37</ele>
        <time>2014-05-15T10:18:35Z</time>
      </trkpt>
      <trkpt lat="48.84089" lon="2.42172">
        <ele>37</ele>
        <time>2014-05-15T10:18:36Z</time>
      </trkpt>
      <trkpt lat="48.84089" lon="2.42172">
        <ele>37</ele>
        <time>2014-05-15T10:18:37Z</time>
      </trkpt>
      <trkpt lat="48.84089" lon="2.42172">
        <ele>37</ele>
        <time>2014-05-15T10:18:38Z</time>
      </trkpt>
      <trkpt lat="48.84089" lon="2.42172">
        <ele>37</ele>
        <time>2014-05-15T10:18:39Z</time>
      </trkpt>
      <trkpt lat="48.84089" lon="2.42172">
        <ele>37</ele>
        <time>2014-05-15T10:18:40Z</time>
      </trkpt>
      <trkpt lat="48.84089" lon="2.42172">
        <ele>37</ele>
        <time>2014-05-15T10:18:41Z</time>
      </trkpt>
      <trkpt lat="48.84089" lon="2.42172">
        <ele>37</ele>
        <time>2014-05-15T10:18:42Z</time>
      </trkpt>
      <trkpt lat="48.84089" lon="2.42172">
        <ele>37</ele>
        <time>2014-05-15T10:18:43Z</time>
      </trkpt>
      <trkpt lat="48.84089" lon="2.42172">
        <ele>37</ele>
        <time>2014-05-15T10:18:44Z</time>
      </trkpt>
      <trkpt lat="48.84089" lon="2.42172">
        <ele>37</ele>
        <time>2014-05-15T10:18:45Z</time>
      </trkpt>
      <trkpt lat="48.84089" lon="2.42172">
        <ele>37</ele>
        <time>2014-05-15T10:18:46Z</time>
      </trkpt>
      <trkpt lat="48.84089" lon="2.42172">
        <ele>37</ele>
        <time>2014-05-15T10:18:47Z</time>
      </trkpt>
      <trkpt lat="48.84089" lon="2.42172">
        <ele>37</ele>
        <time>2014-05-15T10:18:48Z</time>
      </trkpt>
      <trkpt lat="48.84089" lon="2.42172">
        <ele>37</ele>
        <time>2014-05-15T10:18:49Z</time>
      </trkpt>
      <trkpt lat="48.84089" lon="2.42172">
        <ele>37</ele>
        <time>2014-05-15T10:18:50Z</time>
      </trkpt>
      <trkpt lat="48.84089" lon="2.42172">
        <ele>37</ele>
        <time>2014-05-15T10:18:51Z</time>
      </trkpt>
      <trkpt lat="48.84089" lon="2.42172">
        <ele>37</ele>
        <time>2014-05-15T10:18:52Z</time>
      </trkpt>
      <trkpt lat="48.84089" lon="2.42172">
        <ele>37</ele>
        <time>2014-05-15T10:18:53Z</time>
      </trkpt>
      <trkpt lat="48.84089" lon="2.42172">
        <ele>37</ele>
        <time>2014-05-15T10:18:54Z</time>
      </trkpt>
      <trkpt lat="48.84089" lon="2.42172">
        <ele>37</ele>
        <time>2014-05-15T10:18:55Z</time>
      </trkpt>
      <trkpt lat="48.84089" lon="2.42172">
        <ele>37</ele>
        <time>2014-05-15T10:18:56Z</time>
      </trkpt>
      <trkpt lat="48.84089" lon="2.42172">
        <ele>37</ele>
        <time>2014-05-15T10:18:57Z</time>
      </trkpt>
      <trkpt lat="48.84089" lon="2.42172">
        <ele>37</ele>
        <time>2014-05-15T10:18:58Z</time>
      </trkpt>
      <trkpt lat="48.84089" lon="2.42172">
        <ele>37</ele>
        <time>2014-05-15T10:18:59Z</time>
      </trkpt>
      <trkpt lat="48.84089" lon="2.42172">
        <ele>37</ele>
        <time>2014-05-15T10:19:00Z</time>
      </trkpt>
      <trkpt lat="48.84089" lon="2.42172">
        <ele>37</ele>
        <time>2014-05-15T10:19:01Z</time>
      </trkpt>
      <trkpt lat="48.84089" lon="2.42172">
        <ele>37</ele>
        <time>2014-05-15T10:19:02Z</time>
      </trkpt>
      <trkpt lat="48.84089" lon="2.42172">
        <ele>37</ele>
        <time>2014-05-15T10:19:03Z</time>
      </trkpt>
      <trkpt lat="48.84089" lon="2.42172">
        <ele>37</ele>
        <time>2014-05-15T10:19:04Z</time>
      </trkpt>
      <trkpt lat="48.84089" lon="2.42172">
        <ele>37</ele>
        <time>2014-05-15T10:19:05Z</time>
      </trkpt>
      <trkpt lat="48.84089" lon="2.42172">
        <ele>37</ele>
        <time>2014-05-15T10:19:06Z</time>
      </trkpt>
      <trkpt lat="48.84089" lon="2.42172">
        <ele>37</ele>
        <time>2014-05-15T10:19:07Z</time>
      </trkpt>
      <trkpt lat="48.84089" lon="2.42172">
        <ele>37</ele>
        <time>2014-05-15T10:19:08Z</time>
      </trkpt>
      <trkpt lat="48.84089" lon="2.42172">
        <ele>37</ele>
        <time>2014-05-15T10:19:09Z</time>
      </trkpt>
      <trkpt lat="48.84089" lon="2.42172">
        <ele>37</ele>
        <time>2014-05-15T10:19:10Z</time>
      </trkpt>
      <trkpt lat="48.84089" lon="2.42172">
        <ele>37</ele>
        <time>2014-05-15T10:19:11Z</time>
      </trkpt>
      <trkpt lat="48.84089" lon="2.42172">
        <ele>37</ele>
        <time>2014-05-15T10:19:12Z</time>
      </trkpt>
      <trkpt lat="48.84089" lon="2.42172">
        <ele>37</ele>
        <time>2014-05-15T10:19:13Z</time>
      </trkpt>
      <trkpt lat="48.84089" lon="2.42172">
        <ele>37</ele>
        <time>2014-05-15T10:19:14Z</time>
      </trkpt>
      <trkpt lat="48.84089" lon="2.42172">
        <ele>37</ele>
        <time>2014-05-15T10:19:15Z</time>
      </trkpt>
      <trkpt lat="48.84089" lon="2.42172">
        <ele>37</ele>
        <time>2014-05-15T10:19:16Z</time>
      </trkpt>
      <trkpt lat="48.84089" lon="2.42172">
        <ele>37</ele>
        <time>2014-05-15T10:19:17Z</time>
      </trkpt>
      <trkpt lat="48.84089" lon="2.42172">
        <ele>37</ele>
        <time>2014-05-15T10:19:18Z</time>
      </trkpt>
      <trkpt lat="48.84089" lon="2.42172">
        <ele>38</ele>
        <time>2014-05-15T10:19:19Z</time>
      </trkpt>
      <trkpt lat="48.84089" lon="2.42172">
        <ele>38</ele>
        <time>2014-05-15T10:19:20Z</time>
      </trkpt>
      <trkpt lat="48.84089" lon="2.42172">
        <ele>38</ele>
        <time>2014-05-15T10:19:21Z</time>
      </trkpt>
      <trkpt lat="48.84089" lon="2.42172">
        <ele>38</ele>
        <time>2014-05-15T10:19:22Z</time>
      </trkpt>
      <trkpt lat="48.84089" lon="2.42172">
        <ele>38</ele>
        <time>2014-05-15T10:19:23Z</time>
      </trkpt>
      <trkpt lat="48.84089" lon="2.42172">
        <ele>38</ele>
        <time>2014-05-15T10:19:24Z</time>
      </trkpt>
      <trkpt lat="48.84089" lon="2.42172">
        <ele>37</ele>
        <time>2014-05-15T10:19:25Z</time>
      </trkpt>
      <trkpt lat="48.84089" lon="2.42172">
        <ele>37</ele>
        <time>2014-05-15T10:19:26Z</time>
      </trkpt>
      <trkpt lat="48.84089" lon="2.42172">
        <ele>37</ele>
        <time>2014-05-15T10:19:27Z</time>
      </trkpt>
      <trkpt lat="48.84089" lon="2.42172">
        <ele>38</ele>
        <time>2014-05-15T10:19:28Z</time>
      </trkpt>
      <trkpt lat="48.84089" lon="2.42172">
        <ele>38</ele>
        <time>2014-05-15T10:19:29Z</time>
      </trkpt>
      <trkpt lat="48.84089" lon="2.42172">
        <ele>38</ele>
        <time>2014-05-15T10:19:30Z</time>
      </trkpt>
      <trkpt lat="48.84089" lon="2.42172">
        <ele>38</ele>
        <time>2014-05-15T10:19:31Z</time>
      </trkpt>
      <trkpt lat="48.84089" lon="2.42172">
        <ele>38</ele>
        <time>2014-05-15T10:19:32Z</time>
      </trkpt>
      <trkpt lat="48.84089" lon="2.42172">
        <ele>38</ele>
        <time>2014-05-15T10:19:33Z</time>
      </trkpt>
      <trkpt lat="48.84089" lon="2.42172">
        <ele>38</ele>
        <time>2014-05-15T10:19:34Z</time>
      </trkpt>
      <trkpt lat="48.84089" lon="2.42172">
        <ele>38</ele>
        <time>2014-05-15T10:19:35Z</time>
      </trkpt>
      <trkpt lat="48.84089" lon="2.42172">
        <ele>38</ele>
        <time>2014-05-15T10:19:36Z</time>
      </trkpt>
      <trkpt lat="48.84089" lon="2.42172">
        <ele>38</ele>
        <time>2014-05-15T10:19:37Z</time>
      </trkpt>
      <trkpt lat="48.84089" lon="2.42172">
        <ele>38</ele>
        <time>2014-05-15T10:19:38Z</time>
      </trkpt>
      <trkpt lat="48.84089" lon="2.42172">
        <ele>38</ele>
        <time>2014-05-15T10:19:39Z</time>
      </trkpt>
      <trkpt lat="48.84089" lon="2.42171">
        <ele>38</ele>
        <time>2014-05-15T10:19:40Z</time>
      </trkpt>
      <trkpt lat="48.8409" lon="2.42171">
        <ele>38</ele>
        <time>2014-05-15T10:19:41Z</time>
      </trkpt>
      <trkpt lat="48.8409" lon="2.42171">
        <ele>38</ele>
        <time>2014-05-15T10:19:42Z</time>
      </trkpt>
      <trkpt lat="48.8409" lon="2.42171">
        <ele>38</ele>
        <time>2014-05-15T10:19:43Z</time>
      </trkpt>
      <trkpt lat="48.8409" lon="2.42171">
        <ele>38</ele>
        <time>2014-05-15T10:19:44Z</time>
      </trkpt>
      <trkpt lat="48.8409" lon="2.42171">
        <ele>38</ele>
        <time>2014-05-15T10:19:45Z</time>
      </trkpt>
      <trkpt lat="48.8409" lon="2.42171">
        <ele>38</ele>
        <time>2014-05-15T10:19:46Z</time>
      </trkpt>
      <trkpt lat="48.8409" lon="2.42171">
        <ele>38</ele>
        <time>2014-05-15T10:19:47Z</time>
      </trkpt>
      <trkpt lat="48.8409" lon="2.42171">
        <ele>38</ele>
        <time>2014-05-15T10:19:48Z</time>
      </trkpt>
      <trkpt lat="48.8409" lon="2.42171">
        <ele>38</ele>
        <time>2014-05-15T10:19:49Z</time>
      </trkpt>
      <trkpt lat="48.8409" lon="2.42171">
        <ele>38</ele>
        <time>2014-05-15T10:19:50Z</time>
      </trkpt>
      <trkpt lat="48.8409" lon="2.42171">
        <ele>38</ele>
        <time>2014-05-15T10:19:51Z</time>
      </trkpt>
      <trkpt lat="48.8409" lon="2.42171">
        <ele>38</ele>
        <time>2014-05-15T10:19:52Z</time>
      </trkpt>
      <trkpt lat="48.8409" lon="2.42171">
        <ele>38</ele>
        <time>2014-05-15T10:19:53Z</time>
      </trkpt>
      <trkpt lat="48.8409" lon="2.42171">
        <ele>38</ele>
        <time>2014-05-15T10:19:54Z</time>
      </trkpt>
      <trkpt lat="48.8409" lon="2.42171">
        <ele>38</ele>
        <time>2014-05-15T10:19:55Z</time>
      </trkpt>
      <trkpt lat="48.8409" lon="2.42171">
        <ele>38</ele>
        <time>2014-05-15T10:19:56Z</time>
      </trkpt>
      <trkpt lat="48.8409" lon="2.42171">
        <ele>38</ele>
        <time>2014-05-15T10:19:57Z</time>
      </trkpt>
      <trkpt lat="48.8409" lon="2.42171">
        <ele>38</ele>
        <time>2014-05-15T10:19:58Z</time>
      </trkpt>
      <trkpt lat="48.8409" lon="2.42171">
        <ele>38</ele>
        <time>2014-05-15T10:19:59Z</time>
      </trkpt>
      <trkpt lat="48.8409" lon="2.42171">
        <ele>38</ele>
        <time>2014-05-15T10:20:00Z</time>
      </trkpt>
      <trkpt lat="48.8409" lon="2.42171">
        <ele>38</ele>
        <time>2014-05-15T10:20:01Z</time>
      </trkpt>
      <trkpt lat="48.8409" lon="2.42171">
        <ele>38</ele>
        <time>2014-05-15T10:20:02Z</time>
      </trkpt>
      <trkpt lat="48.8409" lon="2.42171">
        <ele>38</ele>
        <time>2014-05-15T10:20:03Z</time>
      </trkpt>
      <trkpt lat="48.8409" lon="2.42171">
        <ele>38</ele>
        <time>2014-05-15T10:20:04Z</time>
      </trkpt>
      <trkpt lat="48.8409" lon="2.42171">
        <ele>38</ele>
        <time>2014-05-15T10:20:05Z</time>
      </trkpt>
      <trkpt lat="48.8409" lon="2.42171">
        <ele>38</ele>
        <time>2014-05-15T10:20:06Z</time>
      </trkpt>
      <trkpt lat="48.8409" lon="2.42171">
        <ele>38</ele>
        <time>2014-05-15T10:20:07Z</time>
      </trkpt>
      <trkpt lat="48.8409" lon="2.42171">
        <ele>38</ele>
        <time>2014-05-15T10:20:08Z</time>
      </trkpt>
      <trkpt lat="48.8409" lon="2.42171">
        <ele>38</ele>
        <time>2014-05-15T10:20:09Z</time>
      </trkpt>
      <trkpt lat="48.8409" lon="2.42171">
        <ele>38</ele>
        <time>2014-05-15T10:20:10Z</time>
      </trkpt>
      <trkpt lat="48.8409" lon="2.42171">
        <ele>38</ele>
        <time>2014-05-15T10:20:11Z</time>
      </trkpt>
      <trkpt lat="48.8409" lon="2.42171">
        <ele>38</ele>
        <time>2014-05-15T10:20:12Z</time>
      </trkpt>
      <trkpt lat="48.8409" lon="2.42171">
        <ele>38</ele>
        <time>2014-05-15T10:20:13Z</time>
      </trkpt>
      <trkpt lat="48.8409" lon="2.42171">
        <ele>38</ele>
        <time>2014-05-15T10:20:14Z</time>
      </trkpt>
      <trkpt lat="48.8409" lon="2.42171">
        <ele>38</ele>
        <time>2014-05-15T10:20:15Z</time>
      </trkpt>
      <trkpt lat="48.8409" lon="2.42171">
        <ele>38</ele>
        <time>2014-05-15T10:20:16Z</time>
      </trkpt>
      <trkpt lat="48.8409" lon="2.42171">
        <ele>38</ele>
        <time>2014-05-15T10:20:17Z</time>
      </trkpt>
      <trkpt lat="48.8409" lon="2.42171">
        <ele>38</ele>
        <time>2014-05-15T10:20:18Z</time>
      </trkpt>
      <trkpt lat="48.8409" lon="2.42171">
        <ele>38</ele>
        <time>2014-05-15T10:20:19Z</time>
      </trkpt>
      <trkpt lat="48.8409" lon="2.42171">
        <ele>38</ele>
        <time>2014-05-15T10:20:20Z</time>
      </trkpt>
      <trkpt lat="48.8409" lon="2.42171">
        <ele>38</ele>
        <time>2014-05-15T10:20:21Z</time>
      </trkpt>
      <trkpt lat="48.8409" lon="2.42171">
        <ele>38</ele>
        <time>2014-05-15T10:20:22Z</time>
      </trkpt>
      <trkpt lat="48.8409" lon="2.42171">
        <ele>38</ele>
        <time>2014-05-15T10:20:23Z</time>
      </trkpt>
      <trkpt lat="48.8409" lon="2.42171">
        <ele>38</ele>
        <time>2014-05-15T10:20:24Z</time>
      </trkpt>
      <trkpt lat="48.8409" lon="2.42171">
        <ele>38</ele>
        <time>2014-05-15T10:20:25Z</time>
      </trkpt>
      <trkpt lat="48.8409" lon="2.42171">
        <ele>38</ele>
        <time>2014-05-15T10:20:26Z</time>
      </trkpt>
      <trkpt lat="48.8409" lon="2.42171">
        <ele>38</ele>
        <time>2014-05-15T10:20:27Z</time>
      </trkpt>
      <trkpt lat="48.8409" lon="2.42171">
        <ele>38</ele>
        <time>2014-05-15T10:20:28Z</time>
      </trkpt>
      <trkpt lat="48.8409" lon="2.42171">
        <ele>38</ele>
        <time>2014-05-15T10:20:29Z</time>
      </trkpt>
      <trkpt lat="48.8409" lon="2.42171">
        <ele>38</ele>
        <time>2014-05-15T10:20:30Z</time>
      </trkpt>
      <trkpt lat="48.8409" lon="2.42171">
        <ele>38</ele>
        <time>2014-05-15T10:20:31Z</time>
      </trkpt>
      <trkpt lat="48.8409" lon="2.42171">
        <ele>38</ele>
        <time>2014-05-15T10:20:32Z</time>
      </trkpt>
      <trkpt lat="48.8409" lon="2.42171">
        <ele>38</ele>
        <time>2014-05-15T10:20:33Z</time>
      </trkpt>
      <trkpt lat="48.8409" lon="2.42171">
        <ele>38</ele>
        <time>2014-05-15T10:20:34Z</time>
      </trkpt>
      <trkpt lat="48.8409" lon="2.42171">
        <ele>38</ele>
        <time>2014-05-15T10:20:35Z</time>
      </trkpt>
      <trkpt lat="48.8409" lon="2.42171">
        <ele>38</ele>
        <time>2014-05-15T10:20:36Z</time>
      </trkpt>
      <trkpt lat="48.8409" lon="2.42171">
        <ele>38</ele>
        <time>2014-05-15T10:20:37Z</time>
      </trkpt>
      <trkpt lat="48.8409" lon="2.42171">
        <ele>38</ele>
        <time>2014-05-15T10:20:38Z</time>
      </trkpt>
      <trkpt lat="48.8409" lon="2.42171">
        <ele>38</ele>
        <time>2014-05-15T10:20:39Z</time>
      </trkpt>
      <trkpt lat="48.8409" lon="2.42171">
        <ele>38</ele>
        <time>2014-05-15T10:20:40Z</time>
      </trkpt>
      <trkpt lat="48.8409" lon="2.42171">
        <ele>38</ele>
        <time>2014-05-15T10:20:41Z</time>
      </trkpt>
      <trkpt lat="48.8409" lon="2.42171">
        <ele>38</ele>
        <time>2014-05-15T10:20:42Z</time>
      </trkpt>
      <trkpt lat="48.8409" lon="2.42171">
        <ele>38</ele>
        <time>2014-05-15T10:20:43Z</time>
      </trkpt>
      <trkpt lat="48.8409" lon="2.42171">
        <ele>38</ele>
        <time>2014-05-15T10:20:44Z</time>
      </trkpt>
      <trkpt lat="48.8409" lon="2.42171">
        <ele>38</ele>
        <time>2014-05-15T10:20:45Z</time>
      </trkpt>
      <trkpt lat="48.8409" lon="2.42171">
        <ele>38</ele>
        <time>2014-05-15T10:20:46Z</time>
      </trkpt>
      <trkpt lat="48.8409" lon="2.42171">
        <ele>38</ele>
        <time>2014-05-15T10:20:47Z</time>
      </trkpt>
      <trkpt lat="48.8409" lon="2.42171">
        <ele>38</ele>
        <time>2014-05-15T10:20:48Z</time>
      </trkpt>
      <trkpt lat="48.8409" lon="2.42171">
        <ele>38</ele>
        <time>2014-05-15T10:20:49Z</time>
      </trkpt>
      <trkpt lat="48.8409" lon="2.42171">
        <ele>38</ele>
        <time>2014-05-15T10:20:50Z</time>
      </trkpt>
      <trkpt lat="48.8409" lon="2.42171">
        <ele>38</ele>
        <time>2014-05-15T10:20:51Z</time>
      </trkpt>
      <trkpt lat="48.8409" lon="2.42171">
        <ele>38</ele>
        <time>2014-05-15T10:20:52Z</time>
      </trkpt>
      <trkpt lat="48.8409" lon="2.42171">
        <ele>38</ele>
        <time>2014-05-15T10:20:53Z</time>
      </trkpt>
      <trkpt lat="48.8409" lon="2.42171">
        <ele>38</ele>
        <time>2014-05-15T10:20:54Z</time>
      </trkpt>
      <trkpt lat="48.8409" lon="2.42171">
        <ele>38</ele>
        <time>2014-05-15T10:20:55Z</time>
      </trkpt>
      <trkpt lat="48.8409" lon="2.42171">
        <ele>38</ele>
        <time>2014-05-15T10:20:56Z</time>
      </trkpt>
      <trkpt lat="48.8409" lon="2.42171">
        <ele>38</ele>
        <time>2014-05-15T10:20:57Z</time>
      </trkpt>
      <trkpt lat="48.8409" lon="2.42171">
        <ele>38</ele>
        <time>2014-05-15T10:20:58Z</time>
      </trkpt>
      <trkpt lat="48.8409" lon="2.42171">
        <ele>38</ele>
        <time>2014-05-15T10:20:59Z</time>
      </trkpt>
      <trkpt lat="48.8409" lon="2.42171">
        <ele>38</ele>
        <time>2014-05-15T10:21:00Z</time>
      </trkpt>
      <trkpt lat="48.8409" lon="2.42171">
        <ele>38</ele>
        <time>2014-05-15T10:21:01Z</time>
      </trkpt>
      <trkpt lat="48.8409" lon="2.42171">
        <ele>38</ele>
        <time>2014-05-15T10:21:02Z</time>
      </trkpt>
      <trkpt lat="48.8409" lon="2.42171">
        <ele>38</ele>
        <time>2014-05-15T10:21:03Z</time>
      </trkpt>
      <trkpt lat="48.8409" lon="2.42171">
        <ele>38</ele>
        <time>2014-05-15T10:21:04Z</time>
      </trkpt>
      <trkpt lat="48.8409" lon="2.42171">
        <ele>38</ele>
        <time>2014-05-15T10:21:05Z</time>
      </trkpt>
      <trkpt lat="48.8409" lon="2.42171">
        <ele>38</ele>
        <time>2014-05-15T10:21:06Z</time>
      </trkpt>
      <trkpt lat="48.8409" lon="2.42171">
        <ele>38</ele>
        <time>2014-05-15T10:21:07Z</time>
      </trkpt>
      <trkpt lat="48.8409" lon="2.42171">
        <ele>38</ele>
        <time>2014-05-15T10:21:08Z</time>
      </trkpt>
      <trkpt lat="48.8409" lon="2.42171">
        <ele>38</ele>
        <time>2014-05-15T10:21:09Z</time>
      </trkpt>
      <trkpt lat="48.8409" lon="2.42171">
        <ele>38</ele>
        <time>2014-05-15T10:21:10Z</time>
      </trkpt>
      <trkpt lat="48.8409" lon="2.42171">
        <ele>38</ele>
        <time>2014-05-15T10:21:11Z</time>
      </trkpt>
      <trkpt lat="48.8409" lon="2.42171">
        <ele>38</ele>
        <time>2014-05-15T10:21:12Z</time>
      </trkpt>
      <trkpt lat="48.8409" lon="2.42171">
        <ele>38</ele>
        <time>2014-05-15T10:21:13Z</time>
      </trkpt>
      <trkpt lat="48.8409" lon="2.42171">
        <ele>38</ele>
        <time>2014-05-15T10:21:14Z</time>
      </trkpt>
      <trkpt lat="48.8409" lon="2.42171">
        <ele>38</ele>
        <time>2014-05-15T10:21:15Z</time>
      </trkpt>
      <trkpt lat="48.8409" lon="2.42171">
        <ele>38</ele>
        <time>2014-05-15T10:21:16Z</time>
      </trkpt>
      <trkpt lat="48.8409" lon="2.42171">
        <ele>38</ele>
        <time>2014-05-15T10:21:17Z</time>
      </trkpt>
      <trkpt lat="48.8409" lon="2.42171">
        <ele>38</ele>
        <time>2014-05-15T10:21:18Z</time>
      </trkpt>
      <trkpt lat="48.8409" lon="2.42171">
        <ele>38</ele>
        <time>2014-05-15T10:21:19Z</time>
      </trkpt>
      <trkpt lat="48.8409" lon="2.42171">
        <ele>38</ele>
        <time>2014-05-15T10:21:20Z</time>
      </trkpt>
      <trkpt lat="48.8409" lon="2.42171">
        <ele>38</ele>
        <time>2014-05-15T10:21:21Z</time>
      </trkpt>
      <trkpt lat="48.8409" lon="2.42171">
        <ele>38</ele>
        <time>2014-05-15T10:21:22Z</time>
      </trkpt>
      <trkpt lat="48.8409" lon="2.42171">
        <ele>38</ele>
        <time>2014-05-15T10:21:23Z</time>
      </trkpt>
      <trkpt lat="48.8409" lon="2.42171">
        <ele>38</ele>
        <time>2014-05-15T10:21:24Z</time>
      </trkpt>
      <trkpt lat="48.8409" lon="2.42171">
        <ele>38</ele>
        <time>2014-05-15T10:21:25Z</time>
      </trkpt>
      <trkpt lat="48.8409" lon="2.42171">
        <ele>38</ele>
        <time>2014-05-15T10:21:26Z</time>
      </trkpt>
      <trkpt lat="48.8409" lon="2.42171">
        <ele>38</ele>
        <time>2014-05-15T10:21:27Z</time>
      </trkpt>
      <trkpt lat="48.8409" lon="2.42171">
        <ele>38</ele>
        <time>2014-05-15T10:21:28Z</time>
      </trkpt>
      <trkpt lat="48.8409" lon="2.42171">
        <ele>38</ele>
        <time>2014-05-15T10:21:29Z</time>
      </trkpt>
      <trkpt lat="48.8409" lon="2.42171">
        <ele>38</ele>
        <time>2014-05-15T10:21:30Z</time>
      </trkpt>
      <trkpt lat="48.8409" lon="2.42171">
        <ele>38</ele>
        <time>2014-05-15T10:21:31Z</time>
      </trkpt>
      <trkpt lat="48.8409" lon="2.42171">
        <ele>38</ele>
        <time>2014-05-15T10:21:32Z</time>
      </trkpt>
      <trkpt lat="48.8409" lon="2.42171">
        <ele>38</ele>
        <time>2014-05-15T10:21:33Z</time>
      </trkpt>
      <trkpt lat="48.8409" lon="2.42171">
        <ele>38</ele>
        <time>2014-05-15T10:21:34Z</time>
      </trkpt>
      <trkpt lat="48.8409" lon="2.42171">
        <ele>38</ele>
        <time>2014-05-15T10:21:35Z</time>
      </trkpt>
      <trkpt lat="48.8409" lon="2.42171">
        <ele>38</ele>
        <time>2014-05-15T10:21:36Z</time>
      </trkpt>
      <trkpt lat="48.8409" lon="2.42171">
        <ele>38</ele>
        <time>2014-05-15T10:21:37Z</time>
      </trkpt>
      <trkpt lat="48.8409" lon="2.42171">
        <ele>38</ele>
        <time>2014-05-15T10:21:38Z</time>
      </trkpt>
      <trkpt lat="48.8409" lon="2.42171">
        <ele>38</ele>
        <time>2014-05-15T10:21:39Z</time>
      </trkpt>
      <trkpt lat="48.8409" lon="2.42171">
        <ele>38</ele>
        <time>2014-05-15T10:21:40Z</time>
      </trkpt>
      <trkpt lat="48.8409" lon="2.42171">
        <ele>38</ele>
        <time>2014-05-15T10:21:41Z</time>
      </trkpt>
      <trkpt lat="48.8409" lon="2.42171">
        <ele>38</ele>
        <time>2014-05-15T10:21:42Z</time>
      </trkpt>
      <trkpt lat="48.8409" lon="2.42171">
        <ele>38</ele>
        <time>2014-05-15T10:21:43Z</time>
      </trkpt>
      <trkpt lat="48.8409" lon="2.42171">
        <ele>38</ele>
        <time>2014-05-15T10:21:44Z</time>
      </trkpt>
      <trkpt lat="48.8409" lon="2.42171">
        <ele>38</ele>
        <time>2014-05-15T10:21:45Z</time>
      </trkpt>
      <trkpt lat="48.8409" lon="2.42171">
        <ele>38</ele>
        <time>2014-05-15T10:21:46Z</time>
      </trkpt>
      <trkpt lat="48.8409" lon="2.42171">
        <ele>38</ele>
        <time>2014-05-15T10:21:47Z</time>
      </trkpt>
      <trkpt lat="48.8409" lon="2.42171">
        <ele>38</ele>
        <time>2014-05-15T10:21:48Z</time>
      </trkpt>
      <trkpt lat="48.8409" lon="2.42171">
        <ele>38</ele>
        <time>2014-05-15T10:21:49Z</time>
      </trkpt>
      <trkpt lat="48.8409" lon="2.42171">
        <ele>38</ele>
        <time>2014-05-15T10:21:50Z</time>
      </trkpt>
      <trkpt lat="48.8409" lon="2.42171">
        <ele>38</ele>
        <time>2014-05-15T10:21:51Z</time>
      </trkpt>
      <trkpt lat="48.8409" lon="2.42171">
        <ele>38</ele>
        <time>2014-05-15T10:21:52Z</time>
      </trkpt>
      <trkpt lat="48.8409" lon="2.42171">
        <ele>38</ele>
        <time>2014-05-15T10:21:53Z</time>
      </trkpt>
      <trkpt lat="48.8409" lon="2.42171">
        <ele>38</ele>
        <time>2014-05-15T10:21:54Z</time>
      </trkpt>
      <trkpt lat="48.8409" lon="2.42171">
        <ele>38</ele>
        <time>2014-05-15T10:21:55Z</time>
      </trkpt>
      <trkpt lat="48.8409" lon="2.42171">
        <ele>38</ele>
        <time>2014-05-15T10:21:56Z</time>
      </trkpt>
      <trkpt lat="48.8409" lon="2.42171">
        <ele>38</ele>
        <time>2014-05-15T10:21:57Z</time>
      </trkpt>
      <trkpt lat="48.8409" lon="2.42171">
        <ele>38</ele>
        <time>2014-05-15T10:21:58Z</time>
      </trkpt>
      <trkpt lat="48.8409" lon="2.42171">
        <ele>38</ele>
        <time>2014-05-15T10:21:59Z</time>
      </trkpt>
      <trkpt lat="48.8409" lon="2.42171">
        <ele>38</ele>
        <time>2014-05-15T10:22:00Z</time>
      </trkpt>
      <trkpt lat="48.8409" lon="2.42171">
        <ele>38</ele>
        <time>2014-05-15T10:22:01Z</time>
      </trkpt>
      <trkpt lat="48.8409" lon="2.42171">
        <ele>38</ele>
        <time>2014-05-15T10:22:02Z</time>
      </trkpt>
      <trkpt lat="48.8409" lon="2.42171">
        <ele>38</ele>
        <time>2014-05-15T10:22:03Z</time>
      </trkpt>
      <trkpt lat="48.8409" lon="2.42171">
        <ele>38</ele>
        <time>2014-05-15T10:22:04Z</time>
      </trkpt>
      <trkpt lat="48.8409" lon="2.42171">
        <ele>38</ele>
        <time>2014-05-15T10:22:05Z</time>
      </trkpt>
      <trkpt lat="48.8409" lon="2.42171">
        <ele>38</ele>
        <time>2014-05-15T10:22:06Z</time>
      </trkpt>
      <trkpt lat="48.8409" lon="2.42171">
        <ele>38</ele>
        <time>2014-05-15T10:22:07Z</time>
      </trkpt>
      <trkpt lat="48.8409" lon="2.42171">
        <ele>38</ele>
        <time>2014-05-15T10:22:08Z</time>
      </trkpt>
      <trkpt lat="48.8409" lon="2.42171">
        <ele>38</ele>
        <time>2014-05-15T10:22:09Z</time>
      </trkpt>
      <trkpt lat="48.8409" lon="2.42171">
        <ele>38</ele>
        <time>2014-05-15T10:22:10Z</time>
      </trkpt>
      <trkpt lat="48.8409" lon="2.42171">
        <ele>38</ele>
        <time>2014-05-15T10:22:11Z</time>
      </trkpt>
      <trkpt lat="48.8409" lon="2.42171">
        <ele>38</ele>
        <time>2014-05-15T10:22:12Z</time>
      </trkpt>
      <trkpt lat="48.8409" lon="2.42171">
        <ele>38</ele>
        <time>2014-05-15T10:22:13Z</time>
      </trkpt>
      <trkpt lat="48.8409" lon="2.42171">
        <ele>38</ele>
        <time>2014-05-15T10:22:14Z</time>
      </trkpt>
      <trkpt lat="48.8409" lon="2.42171">
        <ele>38</ele>
        <time>2014-05-15T10:22:15Z</time>
      </trkpt>
      <trkpt lat="48.8409" lon="2.42171">
        <ele>38</ele>
        <time>2014-05-15T10:22:16Z</time>
      </trkpt>
      <trkpt lat="48.8409" lon="2.42171">
        <ele>38</ele>
        <time>2014-05-15T10:22:17Z</time>
      </trkpt>
      <trkpt lat="48.8409" lon="2.42171">
        <ele>38</ele>
        <time>2014-05-15T10:22:18Z</time>
      </trkpt>
      <trkpt lat="48.8409" lon="2.42171">
        <ele>38</ele>
        <time>2014-05-15T10:22:19Z</time>
      </trkpt>
      <trkpt lat="48.8409" lon="2.42171">
        <ele>38</ele>
        <time>2014-05-15T10:22:20Z</time>
      </trkpt>
      <trkpt lat="48.8409" lon="2.42171">
        <ele>38</ele>
        <time>2014-05-15T10:22:21Z</time>
      </trkpt>
      <trkpt lat="48.8409" lon="2.42171">
        <ele>38</ele>
        <time>2014-05-15T10:22:22Z</time>
      </trkpt>
      <trkpt lat="48.8409" lon="2.42171">
        <ele>38</ele>
        <time>2014-05-15T10:22:23Z</time>
      </trkpt>
      <trkpt lat="48.8409" lon="2.42171">
        <ele>38</ele>
        <time>2014-05-15T10:22:24Z</time>
      </trkpt>
      <trkpt lat="48.84089" lon="2.42171">
        <ele>38</ele>
        <time>2014-05-15T10:22:25Z</time>
      </trkpt>
      <trkpt lat="48.84089" lon="2.42171">
        <ele>38</ele>
        <time>2014-05-15T10:22:26Z</time>
      </trkpt>
      <trkpt lat="48.84089" lon="2.42171">
        <ele>38</ele>
        <time>2014-05-15T10:22:27Z</time>
      </trkpt>
      <trkpt lat="48.84089" lon="2.42171">
        <ele>38</ele>
        <time>2014-05-15T10:22:28Z</time>
      </trkpt>
      <trkpt lat="48.84089" lon="2.42171">
        <ele>38</ele>
        <time>2014-05-15T10:22:29Z</time>
      </trkpt>
      <trkpt lat="48.84089" lon="2.42171">
        <ele>38</ele>
        <time>2014-05-15T10:22:30Z</time>
      </trkpt>
      <trkpt lat="48.84089" lon="2.42171">
        <ele>38</ele>
        <time>2014-05-15T10:22:31Z</time>
      </trkpt>
      <trkpt lat="48.8409" lon="2.42172">
        <ele>40</ele>
        <time>2014-05-15T10:22:32Z</time>
      </trkpt>
      <trkpt lat="48.84089" lon="2.42172">
        <ele>39</ele>
        <time>2014-05-15T10:22:33Z</time>
      </trkpt>
      <trkpt lat="48.84089" lon="2.42174">
        <ele>38</ele>
        <time>2014-05-15T10:22:34Z</time>
      </trkpt>
      <trkpt lat="48.84089" lon="2.42175">
        <ele>37</ele>
        <time>2014-05-15T10:22:35Z</time>
      </trkpt>
      <trkpt lat="48.84088" lon="2.42175">
        <ele>39</ele>
        <time>2014-05-15T10:22:36Z</time>
      </trkpt>
      <trkpt lat="48.84088" lon="2.42175">
        <ele>39</ele>
        <time>2014-05-15T10:22:37Z</time>
      </trkpt>
      <trkpt lat="48.84088" lon="2.42175">
        <ele>40</ele>
        <time>2014-05-15T10:22:38Z</time>
      </trkpt>
      <trkpt lat="48.84087" lon="2.42175">
        <ele>40</ele>
        <time>2014-05-15T10:22:39Z</time>
      </trkpt>
      <trkpt lat="48.84086" lon="2.42174">
        <ele>41</ele>
        <time>2014-05-15T10:22:40Z</time>
      </trkpt>
      <trkpt lat="48.84086" lon="2.42174">
        <ele>42</ele>
        <time>2014-05-15T10:22:41Z</time>
      </trkpt>
      <trkpt lat="48.84085" lon="2.42174">
        <ele>42</ele>
        <time>2014-05-15T10:22:42Z</time>
      </trkpt>
      <trkpt lat="48.84085" lon="2.42174">
        <ele>41</ele>
        <time>2014-05-15T10:22:43Z</time>
      </trkpt>
      <trkpt lat="48.84085" lon="2.42174">
        <ele>41</ele>
        <time>2014-05-15T10:22:44Z</time>
      </trkpt>
      <trkpt lat="48.84085" lon="2.42174">
        <ele>41</ele>
        <time>2014-05-15T10:22:45Z</time>
      </trkpt>
      <trkpt lat="48.84085" lon="2.42174">
        <ele>41</ele>
        <time>2014-05-15T10:22:46Z</time>
      </trkpt>
      <trkpt lat="48.84085" lon="2.42175">
        <ele>41</ele>
        <time>2014-05-15T10:22:47Z</time>
      </trkpt>
      <trkpt lat="48.84085" lon="2.42175">
        <ele>41</ele>
        <time>2014-05-15T10:22:48Z</time>
      </trkpt>
      <trkpt lat="48.84085" lon="2.42175">
        <ele>41</ele>
        <time>2014-05-15T10:22:49Z</time>
      </trkpt>
      <trkpt lat="48.84085" lon="2.42175">
        <ele>41</ele>
        <time>2014-05-15T10:22:50Z</time>
      </trkpt>
      <trkpt lat="48.84085" lon="2.42175">
        <ele>41</ele>
        <time>2014-05-15T10:22:51Z</time>
      </trkpt>
      <trkpt lat="48.84085" lon="2.42175">
        <ele>41</ele>
        <time>2014-05-15T10:22:52Z</time>
      </trkpt>
      <trkpt lat="48.84085" lon="2.42175">
        <ele>41</ele>
        <time>2014-05-15T10:22:53Z</time>
      </trkpt>
      <trkpt lat="48.84085" lon="2.42175">
        <ele>41</ele>
        <time>2014-05-15T10:22:54Z</time>
      </trkpt>
      <trkpt lat="48.84085" lon="2.42175">
        <ele>41</ele>
        <time>2014-05-15T10:22:55Z</time>
      </trkpt>
      <trkpt lat="48.84085" lon="2.42175">
        <ele>41</ele>
        <time>2014-05-15T10:22:56Z</time>
      </trkpt>
      <trkpt lat="48.84085" lon="2.42175">
        <ele>41</ele>
        <time>2014-05-15T10:22:57Z</time>
      </trkpt>
      <trkpt lat="48.84085" lon="2.42175">
        <ele>41</ele>
        <time>2014-05-15T10:22:58Z</time>
      </trkpt>
      <trkpt lat="48.84085" lon="2.42175">
        <ele>41</ele>
        <time>2014-05-15T10:22:59Z</time>
      </trkpt>
      <trkpt lat="48.84085" lon="2.42175">
        <ele>41</ele>
        <time>2014-05-15T10:23:00Z</time>
      </trkpt>
      <trkpt lat="48.84085" lon="2.42175">
        <ele>41</ele>
        <time>2014-05-15T10:23:01Z</time>
      </trkpt>
      <trkpt lat="48.84085" lon="2.42175">
        <ele>41</ele>
        <time>2014-05-15T10:23:02Z</time>
      </trkpt>
      <trkpt lat="48.84085" lon="2.42175">
        <ele>41</ele>
        <time>2014-05-15T10:23:03Z</time>
      </trkpt>
      <trkpt lat="48.84085" lon="2.42175">
        <ele>41</ele>
        <time>2014-05-15T10:23:04Z</time>
      </trkpt>
      <trkpt lat="48.84085" lon="2.42175">
        <ele>41</ele>
        <time>2014-05-15T10:23:05Z</time>
      </trkpt>
      <trkpt lat="48.84085" lon="2.42175">
        <ele>41</ele>
        <time>2014-05-15T10:23:06Z</time>
      </trkpt>
      <trkpt lat="48.84085" lon="2.42175">
        <ele>41</ele>
        <time>2014-05-15T10:23:07Z</time>
      </trkpt>
      <trkpt lat="48.84085" lon="2.42175">
        <ele>41</ele>
        <time>2014-05-15T10:23:08Z</time>
      </trkpt>
      <trkpt lat="48.84085" lon="2.42175">
        <ele>41</ele>
        <time>2014-05-15T10:23:09Z</time>
      </trkpt>
      <trkpt lat="48.84085" lon="2.42175">
        <ele>41</ele>
        <time>2014-05-15T10:23:10Z</time>
      </trkpt>
      <trkpt lat="48.84085" lon="2.42175">
        <ele>41</ele>
        <time>2014-05-15T10:23:11Z</time>
      </trkpt>
      <trkpt lat="48.84085" lon="2.42175">
        <ele>41</ele>
        <time>2014-05-15T10:23:12Z</time>
      </trkpt>
      <trkpt lat="48.84085" lon="2.42175">
        <ele>41</ele>
        <time>2014-05-15T10:23:13Z</time>
      </trkpt>
      <trkpt lat="48.84085" lon="2.42175">
        <ele>41</ele>
        <time>2014-05-15T10:23:14Z</time>
      </trkpt>
      <trkpt lat="48.84085" lon="2.42175">
        <ele>41</ele>
        <time>2014-05-15T10:23:15Z</time>
      </trkpt>
      <trkpt lat="48.84085" lon="2.42175">
        <ele>41</ele>
        <time>2014-05-15T10:23:16Z</time>
      </trkpt>
      <trkpt lat="48.84085" lon="2.42175">
        <ele>41</ele>
        <time>2014-05-15T10:23:17Z</time>
      </trkpt>
      <trkpt lat="48.84085" lon="2.42175">
        <ele>41</ele>
        <time>2014-05-15T10:23:18Z</time>
      </trkpt>
      <trkpt lat="48.84085" lon="2.42175">
        <ele>41</ele>
        <time>2014-05-15T10:23:19Z</time>
      </trkpt>
      <trkpt lat="48.84085" lon="2.42175">
        <ele>41</ele>
        <time>2014-05-15T10:23:20Z</time>
      </trkpt>
      <trkpt lat="48.84085" lon="2.42175">
        <ele>41</ele>
        <time>2014-05-15T10:23:21Z</time>
      </trkpt>
      <trkpt lat="48.84085" lon="2.42175">
        <ele>41</ele>
        <time>2014-05-15T10:23:22Z</time>
      </trkpt>
      <trkpt lat="48.84085" lon="2.42175">
        <ele>41</ele>
        <time>2014-05-15T10:23:23Z</time>
      </trkpt>
      <trkpt lat="48.84085" lon="2.42175">
        <ele>41</ele>
        <time>2014-05-15T10:23:24Z</time>
      </trkpt>
      <trkpt lat="48.84085" lon="2.42175">
        <ele>41</ele>
        <time>2014-05-15T10:23:25Z</time>
      </trkpt>
      <trkpt lat="48.84085" lon="2.42175">
        <ele>41</ele>
        <time>2014-05-15T10:23:26Z</time>
      </trkpt>
      <trkpt lat="48.84085" lon="2.42175">
        <ele>41</ele>
        <time>2014-05-15T10:23:27Z</time>
      </trkpt>
      <trkpt lat="48.84085" lon="2.42175">
        <ele>41</ele>
        <time>2014-05-15T10:23:28Z</time>
      </trkpt>
      <trkpt lat="48.84085" lon="2.42175">
        <ele>41</ele>
        <time>2014-05-15T10:23:29Z</time>
      </trkpt>
      <trkpt lat="48.84085" lon="2.42175">
        <ele>41</ele>
        <time>2014-05-15T10:23:30Z</time>
      </trkpt>
      <trkpt lat="48.84085" lon="2.42175">
        <ele>41</ele>
        <time>2014-05-15T10:23:31Z</time>
      </trkpt>
      <trkpt lat="48.84085" lon="2.42175">
        <ele>41</ele>
        <time>2014-05-15T10:23:32Z</time>
      </trkpt>
      <trkpt lat="48.84085" lon="2.42175">
        <ele>41</ele>
        <time>2014-05-15T10:23:33Z</time>
      </trkpt>
      <trkpt lat="48.84085" lon="2.42175">
        <ele>41</ele>
        <time>2014-05-15T10:23:34Z</time>
      </trkpt>
      <trkpt lat="48.84085" lon="2.42175">
        <ele>41</ele>
        <time>2014-05-15T10:23:35Z</time>
      </trkpt>
      <trkpt lat="48.84085" lon="2.42175">
        <ele>41</ele>
        <time>2014-05-15T10:23:36Z</time>
      </trkpt>
      <trkpt lat="48.84085" lon="2.42175">
        <ele>41</ele>
        <time>2014-05-15T10:23:37Z</time>
      </trkpt>
      <trkpt lat="48.84085" lon="2.42175">
        <ele>41</ele>
        <time>2014-05-15T10:23:38Z</time>
      </trkpt>
      <trkpt lat="48.84085" lon="2.42175">
        <ele>41</ele>
        <time>2014-05-15T10:23:39Z</time>
      </trkpt>
      <trkpt lat="48.84085" lon="2.42175">
        <ele>41</ele>
        <time>2014-05-15T10:23:40Z</time>
      </trkpt>
      <trkpt lat="48.84085" lon="2.42175">
        <ele>41</ele>
        <time>2014-05-15T10:23:41Z</time>
      </trkpt>
      <trkpt lat="48.84085" lon="2.42175">
        <ele>41</ele>
        <time>2014-05-15T10:23:42Z</time>
      </trkpt>
      <trkpt lat="48.84085" lon="2.42174">
        <ele>41</ele>
        <time>2014-05-15T10:23:43Z</time>
      </trkpt>
      <trkpt lat="48.84085" lon="2.42174">
        <ele>41</ele>
        <time>2014-05-15T10:23:44Z</time>
      </trkpt>
      <trkpt lat="48.84085" lon="2.42174">
        <ele>41</ele>
        <time>2014-05-15T10:23:45Z</time>
      </trkpt>
      <trkpt lat="48.84085" lon="2.42174">
        <ele>41</ele>
        <time>2014-05-15T10:23:46Z</time>
      </trkpt>
      <trkpt lat="48.84085" lon="2.42174">
        <ele>41</ele>
        <time>2014-05-15T10:23:47Z</time>
      </trkpt>
      <trkpt lat="48.84085" lon="2.42174">
        <ele>41</ele>
        <time>2014-05-15T10:23:48Z</time>
      </trkpt>
      <trkpt lat="48.84085" lon="2.42174">
        <ele>41</ele>
        <time>2014-05-15T10:23:49Z</time>
      </trkpt>
      <trkpt lat="48.84085" lon="2.42174">
        <ele>41</ele>
        <time>2014-05-15T10:23:50Z</time>
      </trkpt>
      <trkpt lat="48.84085" lon="2.42174">
        <ele>41</ele>
        <time>2014-05-15T10:23:51Z</time>
      </trkpt>
      <trkpt lat="48.84085" lon="2.42174">
        <ele>41</ele>
        <time>2014-05-15T10:23:52Z</time>
      </trkpt>
      <trkpt lat="48.84085" lon="2.42174">
        <ele>41</ele>
        <time>2014-05-15T10:23:53Z</time>
      </trkpt>
      <trkpt lat="48.84085" lon="2.42174">
        <ele>41</ele>
        <time>2014-05-15T10:23:54Z</time>
      </trkpt>
      <trkpt lat="48.84085" lon="2.42174">
        <ele>41</ele>
        <time>2014-05-15T10:23:55Z</time>
      </trkpt>
      <trkpt lat="48.84085" lon="2.42174">
        <ele>41</ele>
        <time>2014-05-15T10:23:56Z</time>
      </trkpt>
      <trkpt lat="48.84085" lon="2.42174">
        <ele>41</ele>
        <time>2014-05-15T10:23:57Z</time>
      </trkpt>
      <trkpt lat="48.84085" lon="2.42174">
        <ele>41</ele>
        <time>2014-05-15T10:23:58Z</time>
      </trkpt>
      <trkpt lat="48.84085" lon="2.42174">
        <ele>41</ele>
        <time>2014-05-15T10:23:59Z</time>
      </trkpt>
      <trkpt lat="48.84085" lon="2.42174">
        <ele>41</ele>
        <time>2014-05-15T10:24:00Z</time>
      </trkpt>
      <trkpt lat="48.84085" lon="2.42174">
        <ele>41</ele>
        <time>2014-05-15T10:24:01Z</time>
      </trkpt>
      <trkpt lat="48.84085" lon="2.42174">
        <ele>41</ele>
        <time>2014-05-15T10:24:02Z</time>
      </trkpt>
      <trkpt lat="48.84085" lon="2.42174">
        <ele>41</ele>
        <time>2014-05-15T10:24:03Z</time>
      </trkpt>
      <trkpt lat="48.84085" lon="2.42174">
        <ele>41</ele>
        <time>2014-05-15T10:24:04Z</time>
      </trkpt>
      <trkpt lat="48.84085" lon="2.42174">
        <ele>41</ele>
        <time>2014-05-15T10:24:05Z</time>
      </trkpt>
      <trkpt lat="48.84085" lon="2.42174">
        <ele>41</ele>
        <time>2014-05-15T10:24:06Z</time>
      </trkpt>
      <trkpt lat="48.84085" lon="2.42174">
        <ele>42</ele>
        <time>2014-05-15T10:24:07Z</time>
      </trkpt>
      <trkpt lat="48.84085" lon="2.42174">
        <ele>42</ele>
        <time>2014-05-15T10:24:08Z</time>
      </trkpt>
      <trkpt lat="48.84085" lon="2.42174">
        <ele>41</ele>
        <time>2014-05-15T10:24:09Z</time>
      </trkpt>
      <trkpt lat="48.84085" lon="2.42174">
        <ele>41</ele>
        <time>2014-05-15T10:24:10Z</time>
      </trkpt>
      <trkpt lat="48.84085" lon="2.42174">
        <ele>42</ele>
        <time>2014-05-15T10:24:11Z</time>
      </trkpt>
      <trkpt lat="48.84085" lon="2.42174">
        <ele>42</ele>
        <time>2014-05-15T10:24:12Z</time>
      </trkpt>
      <trkpt lat="48.84085" lon="2.42174">
        <ele>42</ele>
        <time>2014-05-15T10:24:13Z</time>
      </trkpt>
      <trkpt lat="48.84085" lon="2.42174">
        <ele>42</ele>
        <time>2014-05-15T10:24:14Z</time>
      </trkpt>
      <trkpt lat="48.84085" lon="2.42174">
        <ele>42</ele>
        <time>2014-05-15T10:24:15Z</time>
      </trkpt>
      <trkpt lat="48.84085" lon="2.42174">
        <ele>42</ele>
        <time>2014-05-15T10:24:16Z</time>
      </trkpt>
      <trkpt lat="48.84085" lon="2.42174">
        <ele>42</ele>
        <time>2014-05-15T10:24:17Z</time>
      </trkpt>
      <trkpt lat="48.84085" lon="2.42174">
        <ele>42</ele>
        <time>2014-05-15T10:24:18Z</time>
      </trkpt>
      <trkpt lat="48.84085" lon="2.42174">
        <ele>42</ele>
        <time>2014-05-15T10:24:19Z</time>
      </trkpt>
      <trkpt lat="48.84085" lon="2.42174">
        <ele>42</ele>
        <time>2014-05-15T10:24:20Z</time>
      </trkpt>
      <trkpt lat="48.84085" lon="2.42174">
        <ele>42</ele>
        <time>2014-05-15T10:24:21Z</time>
      </trkpt>
      <trkpt lat="48.84085" lon="2.42174">
        <ele>42</ele>
        <time>2014-05-15T10:24:22Z</time>
      </trkpt>
      <trkpt lat="48.84085" lon="2.42174">
        <ele>42</ele>
        <time>2014-05-15T10:24:23Z</time>
      </trkpt>
      <trkpt lat="48.84085" lon="2.42174">
        <ele>42</ele>
        <time>2014-05-15T10:24:24Z</time>
      </trkpt>
      <trkpt lat="48.84085" lon="2.42174">
        <ele>42</ele>
        <time>2014-05-15T10:24:25Z</time>
      </trkpt>
      <trkpt lat="48.84085" lon="2.42174">
        <ele>42</ele>
        <time>2014-05-15T10:24:26Z</time>
      </trkpt>
      <trkpt lat="48.84085" lon="2.42174">
        <ele>42</ele>
        <time>2014-05-15T10:24:27Z</time>
      </trkpt>
      <trkpt lat="48.84085" lon="2.42174">
        <ele>42</ele>
        <time>2014-05-15T10:24:28Z</time>
      </trkpt>
      <trkpt lat="48.84084" lon="2.42173">
        <ele>41</ele>
        <time>2014-05-15T10:24:29Z</time>
      </trkpt>
      <trkpt lat="48.84085" lon="2.42173">
        <ele>38</ele>
        <time>2014-05-15T10:24:30Z</time>
      </trkpt>
      <trkpt lat="48.84085" lon="2.42173">
        <ele>38</ele>
        <time>2014-05-15T10:24:31Z</time>
      </trkpt>
      <trkpt lat="48.84084" lon="2.42173">
        <ele>38</ele>
        <time>2014-05-15T10:24:32Z</time>
      </trkpt>
      <trkpt lat="48.84084" lon="2.42173">
        <ele>39</ele>
        <time>2014-05-15T10:24:33Z</time>
      </trkpt>
      <trkpt lat="48.84083" lon="2.42172">
        <ele>41</ele>
        <time>2014-05-15T10:24:34Z</time>
      </trkpt>
      <trkpt lat="48.84082" lon="2.42172">
        <ele>40</ele>
        <time>2014-05-15T10:24:35Z</time>
      </trkpt>
      <trkpt lat="48.84082" lon="2.42171">
        <ele>40</ele>
        <time>2014-05-15T10:24:36Z</time>
      </trkpt>
      <trkpt lat="48.84081" lon="2.4217">
        <ele>40</ele>
        <time>2014-05-15T10:24:37Z</time>
      </trkpt>
      <trkpt lat="48.84081" lon="2.42169">
        <ele>39</ele>
        <time>2014-05-15T10:24:38Z</time>
      </trkpt>
      <trkpt lat="48.84081" lon="2.42169">
        <ele>39</ele>
        <time>2014-05-15T10:24:39Z</time>
      </trkpt>
      <trkpt lat="48.84081" lon="2.42168">
        <ele>39</ele>
        <time>2014-05-15T10:24:40Z</time>
      </trkpt>
      <trkpt lat="48.84079" lon="2.42166">
        <ele>41</ele>
        <time>2014-05-15T10:24:41Z</time>
      </trkpt>
      <trkpt lat="48.84079" lon="2.42165">
        <ele>41</ele>
        <time>2014-05-15T10:24:42Z</time>
      </trkpt>
      <trkpt lat="48.84079" lon="2.42164">
        <ele>38</ele>
        <time>2014-05-15T10:24:43Z</time>
      </trkpt>
      <trkpt lat="48.84078" lon="2.42163">
        <ele>38</ele>
        <time>2014-05-15T10:24:44Z</time>
      </trkpt>
      <trkpt lat="48.84079" lon="2.42162">
        <ele>37</ele>
        <time>2014-05-15T10:24:45Z</time>
      </trkpt>
      <trkpt lat="48.84079" lon="2.42161">
        <ele>37</ele>
        <time>2014-05-15T10:24:46Z</time>
      </trkpt>
      <trkpt lat="48.84079" lon="2.4216">
        <ele>37</ele>
        <time>2014-05-15T10:24:47Z</time>
      </trkpt>
      <trkpt lat="48.84078" lon="2.42158">
        <ele>39</ele>
        <time>2014-05-15T10:24:48Z</time>
      </trkpt>
      <trkpt lat="48.84078" lon="2.42157">
        <ele>39</ele>
        <time>2014-05-15T10:24:49Z</time>
      </trkpt>
      <trkpt lat="48.84077" lon="2.42155">
        <ele>41</ele>
        <time>2014-05-15T10:24:50Z</time>
      </trkpt>
      <trkpt lat="48.84077" lon="2.42154">
        <ele>41</ele>
        <time>2014-05-15T10:24:51Z</time>
      </trkpt>
      <trkpt lat="48.84077" lon="2.42153">
        <ele>42</ele>
        <time>2014-05-15T10:24:52Z</time>
      </trkpt>
      <trkpt lat="48.84077" lon="2.42152">
        <ele>42</ele>
        <time>2014-05-15T10:24:53Z</time>
      </trkpt>
      <trkpt lat="48.84077" lon="2.42151">
        <ele>42</ele>
        <time>2014-05-15T10:24:54Z</time>
      </trkpt>
      <trkpt lat="48.84076" lon="2.42149">
        <ele>42</ele>
        <time>2014-05-15T10:24:55Z</time>
      </trkpt>
      <trkpt lat="48.84076" lon="2.42148">
        <ele>42</ele>
        <time>2014-05-15T10:24:56Z</time>
      </trkpt>
      <trkpt lat="48.84075" lon="2.42146">
        <ele>42</ele>
        <time>2014-05-15T10:24:57Z</time>
      </trkpt>
      <trkpt lat="48.84075" lon="2.42145">
        <ele>41</ele>
        <time>2014-05-15T10:24:58Z</time>
      </trkpt>
      <trkpt lat="48.84073" lon="2.42142">
        <ele>42</ele>
        <time>2014-05-15T10:24:59Z</time>
      </trkpt>
      <trkpt lat="48.84072" lon="2.42138">
        <ele>42</ele>
        <time>2014-05-15T10:25:00Z</time>
      </trkpt>
      <trkpt lat="48.8407" lon="2.42136">
        <ele>42</ele>
        <time>2014-05-15T10:25:01Z</time>
      </trkpt>
      <trkpt lat="48.84069" lon="2.42133">
        <ele>43</ele>
        <time>2014-05-15T10:25:02Z</time>
      </trkpt>
      <trkpt lat="48.84067" lon="2.42131">
        <ele>41</ele>
        <time>2014-05-15T10:25:03Z</time>
      </trkpt>
      <trkpt lat="48.84065" lon="2.4213">
        <ele>40</ele>
        <time>2014-05-15T10:25:04Z</time>
      </trkpt>
      <trkpt lat="48.84063" lon="2.4213">
        <ele>40</ele>
        <time>2014-05-15T10:25:05Z</time>
      </trkpt>
      <trkpt lat="48.84062" lon="2.42132">
        <ele>39</ele>
        <time>2014-05-15T10:25:06Z</time>
      </trkpt>
      <trkpt lat="48.84061" lon="2.42132">
        <ele>38</ele>
        <time>2014-05-15T10:25:07Z</time>
      </trkpt>
      <trkpt lat="48.84061" lon="2.42133">
        <ele>39</ele>
        <time>2014-05-15T10:25:08Z</time>
      </trkpt>
      <trkpt lat="48.8406" lon="2.42133">
        <ele>41</ele>
        <time>2014-05-15T10:25:09Z</time>
      </trkpt>
      <trkpt lat="48.84059" lon="2.42134">
        <ele>43</ele>
        <time>2014-05-15T10:25:10Z</time>
      </trkpt>
      <trkpt lat="48.84058" lon="2.42135">
        <ele>43</ele>
        <time>2014-05-15T10:25:11Z</time>
      </trkpt>
      <trkpt lat="48.84057" lon="2.42135">
        <ele>41</ele>
        <time>2014-05-15T10:25:12Z</time>
      </trkpt>
      <trkpt lat="48.84056" lon="2.42136">
        <ele>42</ele>
        <time>2014-05-15T10:25:13Z</time>
      </trkpt>
      <trkpt lat="48.84055" lon="2.42137">
        <ele>41</ele>
        <time>2014-05-15T10:25:14Z</time>
      </trkpt>
      <trkpt lat="48.84055" lon="2.42138">
        <ele>42</ele>
        <time>2014-05-15T10:25:15Z</time>
      </trkpt>
      <trkpt lat="48.84054" lon="2.4214">
        <ele>42</ele>
        <time>2014-05-15T10:25:16Z</time>
      </trkpt>
      <trkpt lat="48.84054" lon="2.42142">
        <ele>42</ele>
        <time>2014-05-15T10:25:17Z</time>
      </trkpt>
      <trkpt lat="48.84053" lon="2.42143">
        <ele>42</ele>
        <time>2014-05-15T10:25:18Z</time>
      </trkpt>
      <trkpt lat="48.84053" lon="2.42145">
        <ele>41</ele>
        <time>2014-05-15T10:25:19Z</time>
      </trkpt>
      <trkpt lat="48.84052" lon="2.42147">
        <ele>43</ele>
        <time>2014-05-15T10:25:20Z</time>
      </trkpt>
      <trkpt lat="48.84052" lon="2.42148">
        <ele>45</ele>
        <time>2014-05-15T10:25:21Z</time>
      </trkpt>
      <trkpt lat="48.84051" lon="2.4215">
        <ele>47</ele>
        <time>2014-05-15T10:25:22Z</time>
      </trkpt>
      <trkpt lat="48.84051" lon="2.42152">
        <ele>46</ele>
        <time>2014-05-15T10:25:23Z</time>
      </trkpt>
      <trkpt lat="48.8405" lon="2.42154">
        <ele>47</ele>
        <time>2014-05-15T10:25:24Z</time>
      </trkpt>
      <trkpt lat="48.8405" lon="2.42155">
        <ele>46</ele>
        <time>2014-05-15T10:25:25Z</time>
      </trkpt>
      <trkpt lat="48.84049" lon="2.42156">
        <ele>44</ele>
        <time>2014-05-15T10:25:26Z</time>
      </trkpt>
      <trkpt lat="48.84049" lon="2.42158">
        <ele>44</ele>
        <time>2014-05-15T10:25:27Z</time>
      </trkpt>
      <trkpt lat="48.84049" lon="2.42159">
        <ele>45</ele>
        <time>2014-05-15T10:25:28Z</time>
      </trkpt>
      <trkpt lat="48.84048" lon="2.4216">
        <ele>45</ele>
        <time>2014-05-15T10:25:29Z</time>
      </trkpt>
      <trkpt lat="48.84048" lon="2.42161">
        <ele>45</ele>
        <time>2014-05-15T10:25:30Z</time>
      </trkpt>
      <trkpt lat="48.84047" lon="2.42162">
        <ele>45</ele>
        <time>2014-05-15T10:25:31Z</time>
      </trkpt>
      <trkpt lat="48.84046" lon="2.42163">
        <ele>45</ele>
        <time>2014-05-15T10:25:32Z</time>
      </trkpt>
      <trkpt lat="48.84046" lon="2.42164">
        <ele>44</ele>
        <time>2014-05-15T10:25:33Z</time>
      </trkpt>
      <trkpt lat="48.84046" lon="2.42165">
        <ele>43</ele>
        <time>2014-05-15T10:25:34Z</time>
      </trkpt>
      <trkpt lat="48.84045" lon="2.42166">
        <ele>44</ele>
        <time>2014-05-15T10:25:35Z</time>
      </trkpt>
      <trkpt lat="48.84044" lon="2.42167">
        <ele>44</ele>
        <time>2014-05-15T10:25:36Z</time>
      </trkpt>
      <trkpt lat="48.84044" lon="2.42169">
        <ele>45</ele>
        <time>2014-05-15T10:25:37Z</time>
      </trkpt>
      <trkpt lat="48.84043" lon="2.4217">
        <ele>42</ele>
        <time>2014-05-15T10:25:38Z</time>
      </trkpt>
      <trkpt lat="48.84043" lon="2.42172">
        <ele>41</ele>
        <time>2014-05-15T10:25:39Z</time>
      </trkpt>
      <trkpt lat="48.84042" lon="2.42174">
        <ele>41</ele>
        <time>2014-05-15T10:25:40Z</time>
      </trkpt>
      <trkpt lat="48.84042" lon="2.42175">
        <ele>39</ele>
        <time>2014-05-15T10:25:41Z</time>
      </trkpt>
      <trkpt lat="48.84041" lon="2.42176">
        <ele>39</ele>
        <time>2014-05-15T10:25:42Z</time>
      </trkpt>
      <trkpt lat="48.84041" lon="2.42177">
        <ele>39</ele>
        <time>2014-05-15T10:25:43Z</time>
      </trkpt>
      <trkpt lat="48.8404" lon="2.42179">
        <ele>39</ele>
        <time>2014-05-15T10:25:44Z</time>
      </trkpt>
      <trkpt lat="48.84039" lon="2.42181">
        <ele>38</ele>
        <time>2014-05-15T10:25:45Z</time>
      </trkpt>
      <trkpt lat="48.84039" lon="2.42183">
        <ele>40</ele>
        <time>2014-05-15T10:25:46Z</time>
      </trkpt>
      <trkpt lat="48.84038" lon="2.42185">
        <ele>39</ele>
        <time>2014-05-15T10:25:47Z</time>
      </trkpt>
      <trkpt lat="48.84037" lon="2.42186">
        <ele>38</ele>
        <time>2014-05-15T10:25:48Z</time>
      </trkpt>
      <trkpt lat="48.84036" lon="2.42188">
        <ele>37</ele>
        <time>2014-05-15T10:25:49Z</time>
      </trkpt>
      <trkpt lat="48.84035" lon="2.42188">
        <ele>37</ele>
        <time>2014-05-15T10:25:50Z</time>
      </trkpt>
      <trkpt lat="48.84035" lon="2.42188">
        <ele>36</ele>
        <time>2014-05-15T10:25:51Z</time>
      </trkpt>
      <trkpt lat="48.84034" lon="2.42189">
        <ele>36</ele>
        <time>2014-05-15T10:25:52Z</time>
      </trkpt>
      <trkpt lat="48.84033" lon="2.42189">
        <ele>36</ele>
        <time>2014-05-15T10:25:53Z</time>
      </trkpt>
      <trkpt lat="48.84032" lon="2.42191">
        <ele>37</ele>
        <time>2014-05-15T10:25:54Z</time>
      </trkpt>
      <trkpt lat="48.84031" lon="2.42192">
        <ele>37</ele>
        <time>2014-05-15T10:25:55Z</time>
      </trkpt>
      <trkpt lat="48.8403" lon="2.42194">
        <ele>36</ele>
        <time>2014-05-15T10:25:56Z</time>
      </trkpt>
      <trkpt lat="48.8403" lon="2.42195">
        <ele>37</ele>
        <time>2014-05-15T10:25:57Z</time>
      </trkpt>
      <trkpt lat="48.84029" lon="2.42197">
        <ele>37</ele>
        <time>2014-05-15T10:25:58Z</time>
      </trkpt>
      <trkpt lat="48.84028" lon="2.42199">
        <ele>36</ele>
        <time>2014-05-15T10:25:59Z</time>
      </trkpt>
      <trkpt lat="48.84027" lon="2.42201">
        <ele>36</ele>
        <time>2014-05-15T10:26:00Z</time>
      </trkpt>
      <trkpt lat="48.84026" lon="2.42203">
        <ele>36</ele>
        <time>2014-05-15T10:26:01Z</time>
      </trkpt>
      <trkpt lat="48.84025" lon="2.42204">
        <ele>35</ele>
        <time>2014-05-15T10:26:02Z</time>
      </trkpt>
      <trkpt lat="48.84024" lon="2.42206">
        <ele>35</ele>
        <time>2014-05-15T10:26:03Z</time>
      </trkpt>
      <trkpt lat="48.84024" lon="2.42206">
        <ele>35</ele>
        <time>2014-05-15T10:26:04Z</time>
      </trkpt>
      <trkpt lat="48.84023" lon="2.42207">
        <ele>35</ele>
        <time>2014-05-15T10:26:05Z</time>
      </trkpt>
      <trkpt lat="48.84022" lon="2.42208">
        <ele>35</ele>
        <time>2014-05-15T10:26:06Z</time>
      </trkpt>
      <trkpt lat="48.84021" lon="2.4221">
        <ele>36</ele>
        <time>2014-05-15T10:26:07Z</time>
      </trkpt>
      <trkpt lat="48.8402" lon="2.42212">
        <ele>36</ele>
        <time>2014-05-15T10:26:08Z</time>
      </trkpt>
      <trkpt lat="48.84019" lon="2.42213">
        <ele>36</ele>
        <time>2014-05-15T10:26:09Z</time>
      </trkpt>
      <trkpt lat="48.84017" lon="2.42215">
        <ele>37</ele>
        <time>2014-05-15T10:26:10Z</time>
      </trkpt>
      <trkpt lat="48.84016" lon="2.42217">
        <ele>37</ele>
        <time>2014-05-15T10:26:11Z</time>
      </trkpt>
      <trkpt lat="48.84016" lon="2.42219">
        <ele>38</ele>
        <time>2014-05-15T10:26:12Z</time>
      </trkpt>
      <trkpt lat="48.84015" lon="2.42221">
        <ele>36</ele>
        <time>2014-05-15T10:26:13Z</time>
      </trkpt>
      <trkpt lat="48.84014" lon="2.42223">
        <ele>36</ele>
        <time>2014-05-15T10:26:14Z</time>
      </trkpt>
      <trkpt lat="48.84013" lon="2.42224">
        <ele>36</ele>
        <time>2014-05-15T10:26:15Z</time>
      </trkpt>
      <trkpt lat="48.84012" lon="2.42225">
        <ele>36</ele>
        <time>2014-05-15T10:26:16Z</time>
      </trkpt>
      <trkpt lat="48.8401" lon="2.42226">
        <ele>36</ele>
        <time>2014-05-15T10:26:17Z</time>
      </trkpt>
      <trkpt lat="48.84009" lon="2.42227">
        <ele>35</ele>
        <time>2014-05-15T10:26:18Z</time>
      </trkpt>
      <trkpt lat="48.84007" lon="2.42228">
        <ele>35</ele>
        <time>2014-05-15T10:26:19Z</time>
      </trkpt>
      <trkpt lat="48.84006" lon="2.42228">
        <ele>35</ele>
        <time>2014-05-15T10:26:20Z</time>
      </trkpt>
      <trkpt lat="48.84004" lon="2.4223">
        <ele>38</ele>
        <time>2014-05-15T10:26:21Z</time>
      </trkpt>
      <trkpt lat="48.84002" lon="2.42231">
        <ele>39</ele>
        <time>2014-05-15T10:26:22Z</time>
      </trkpt>
      <trkpt lat="48.84001" lon="2.42232">
        <ele>39</ele>
        <time>2014-05-15T10:26:23Z</time>
      </trkpt>
      <trkpt lat="48.83999" lon="2.42233">
        <ele>40</ele>
        <time>2014-05-15T10:26:24Z</time>
      </trkpt>
      <trkpt lat="48.83998" lon="2.42234">
        <ele>42</ele>
        <time>2014-05-15T10:26:25Z</time>
      </trkpt>
      <trkpt lat="48.83996" lon="2.42234">
        <ele>40</ele>
        <time>2014-05-15T10:26:26Z</time>
      </trkpt>
      <trkpt lat="48.83995" lon="2.42235">
        <ele>40</ele>
        <time>2014-05-15T10:26:27Z</time>
      </trkpt>
      <trkpt lat="48.83993" lon="2.42236">
        <ele>41</ele>
        <time>2014-05-15T10:26:28Z</time>
      </trkpt>
      <trkpt lat="48.83992" lon="2.42236">
        <ele>42</ele>
        <time>2014-05-15T10:26:29Z</time>
      </trkpt>
      <trkpt lat="48.8399" lon="2.42237">
        <ele>45</ele>
        <time>2014-05-15T10:26:30Z</time>
      </trkpt>
      <trkpt lat="48.83989" lon="2.42238">
        <ele>44</ele>
        <time>2014-05-15T10:26:31Z</time>
      </trkpt>
      <trkpt lat="48.83988" lon="2.42238">
        <ele>43</ele>
        <time>2014-05-15T10:26:32Z</time>
      </trkpt>
      <trkpt lat="48.83986" lon="2.42238">
        <ele>45</ele>
        <time>2014-05-15T10:26:33Z</time>
      </trkpt>
      <trkpt lat="48.83984" lon="2.42238">
        <ele>45</ele>
        <time>2014-05-15T10:26:34Z</time>
      </trkpt>
      <trkpt lat="48.83983" lon="2.42238">
        <ele>45</ele>
        <time>2014-05-15T10:26:35Z</time>
      </trkpt>
      <trkpt lat="48.83982" lon="2.42237">
        <ele>44</ele>
        <time>2014-05-15T10:26:36Z</time>
      </trkpt>
      <trkpt lat="48.8398" lon="2.42237">
        <ele>45</ele>
        <time>2014-05-15T10:26:37Z</time>
      </trkpt>
      <trkpt lat="48.83979" lon="2.42238">
        <ele>45</ele>
        <time>2014-05-15T10:26:38Z</time>
      </trkpt>
      <trkpt lat="48.83977" lon="2.42239">
        <ele>46</ele>
        <time>2014-05-15T10:26:39Z</time>
      </trkpt>
      <trkpt lat="48.83976" lon="2.4224">
        <ele>46</ele>
        <time>2014-05-15T10:26:40Z</time>
      </trkpt>
      <trkpt lat="48.83974" lon="2.42241">
        <ele>46</ele>
        <time>2014-05-15T10:26:41Z</time>
      </trkpt>
      <trkpt lat="48.83973" lon="2.42242">
        <ele>45</ele>
        <time>2014-05-15T10:26:42Z</time>
      </trkpt>
      <trkpt lat="48.83972" lon="2.42243">
        <ele>45</ele>
        <time>2014-05-15T10:26:43Z</time>
      </trkpt>
      <trkpt lat="48.83971" lon="2.42243">
        <ele>44</ele>
        <time>2014-05-15T10:26:44Z</time>
      </trkpt>
      <trkpt lat="48.83969" lon="2.42243">
        <ele>44</ele>
        <time>2014-05-15T10:26:45Z</time>
      </trkpt>
      <trkpt lat="48.83968" lon="2.42243">
        <ele>43</ele>
        <time>2014-05-15T10:26:46Z</time>
      </trkpt>
      <trkpt lat="48.83966" lon="2.42243">
        <ele>44</ele>
        <time>2014-05-15T10:26:47Z</time>
      </trkpt>
      <trkpt lat="48.83965" lon="2.42243">
        <ele>43</ele>
        <time>2014-05-15T10:26:48Z</time>
      </trkpt>
      <trkpt lat="48.83963" lon="2.42243">
        <ele>44</ele>
        <time>2014-05-15T10:26:49Z</time>
      </trkpt>
      <trkpt lat="48.83962" lon="2.42243">
        <ele>44</ele>
        <time>2014-05-15T10:26:50Z</time>
      </trkpt>
      <trkpt lat="48.83961" lon="2.42244">
        <ele>43</ele>
        <time>2014-05-15T10:26:51Z</time>
      </trkpt>
      <trkpt lat="48.83959" lon="2.42244">
        <ele>44</ele>
        <time>2014-05-15T10:26:52Z</time>
      </trkpt>
      <trkpt lat="48.83958" lon="2.42244">
        <ele>44</ele>
        <time>2014-05-15T10:26:53Z</time>
      </trkpt>
      <trkpt lat="48.83957" lon="2.42244">
        <ele>44</ele>
        <time>2014-05-15T10:26:54Z</time>
      </trkpt>
      <trkpt lat="48.83956" lon="2.42244">
        <ele>44</ele>
        <time>2014-05-15T10:26:55Z</time>
      </trkpt>
      <trkpt lat="48.83955" lon="2.42244">
        <ele>43</ele>
        <time>2014-05-15T10:26:56Z</time>
      </trkpt>
      <trkpt lat="48.83954" lon="2.42244">
        <ele>44</ele>
        <time>2014-05-15T10:26:57Z</time>
      </trkpt>
      <trkpt lat="48.83953" lon="2.42244">
        <ele>44</ele>
        <time>2014-05-15T10:26:58Z</time>
      </trkpt>
      <trkpt lat="48.83952" lon="2.42245">
        <ele>45</ele>
        <time>2014-05-15T10:26:59Z</time>
      </trkpt>
      <trkpt lat="48.83951" lon="2.42246">
        <ele>45</ele>
        <time>2014-05-15T10:27:00Z</time>
      </trkpt>
      <trkpt lat="48.83949" lon="2.42246">
        <ele>45</ele>
        <time>2014-05-15T10:27:01Z</time>
      </trkpt>
      <trkpt lat="48.83948" lon="2.42247">
        <ele>45</ele>
        <time>2014-05-15T10:27:02Z</time>
      </trkpt>
      <trkpt lat="48.83947" lon="2.42247">
        <ele>45</ele>
        <time>2014-05-15T10:27:03Z</time>
      </trkpt>
      <trkpt lat="48.83945" lon="2.42247">
        <ele>45</ele>
        <time>2014-05-15T10:27:04Z</time>
      </trkpt>
      <trkpt lat="48.83944" lon="2.42247">
        <ele>44</ele>
        <time>2014-05-15T10:27:05Z</time>
      </trkpt>
      <trkpt lat="48.83942" lon="2.42247">
        <ele>44</ele>
        <time>2014-05-15T10:27:06Z</time>
      </trkpt>
      <trkpt lat="48.83941" lon="2.42247">
        <ele>44</ele>
        <time>2014-05-15T10:27:07Z</time>
      </trkpt>
      <trkpt lat="48.83939" lon="2.42247">
        <ele>44</ele>
        <time>2014-05-15T10:27:08Z</time>
      </trkpt>
      <trkpt lat="48.83937" lon="2.42247">
        <ele>45</ele>
        <time>2014-05-15T10:27:09Z</time>
      </trkpt>
      <trkpt lat="48.83936" lon="2.42247">
        <ele>43</ele>
        <time>2014-05-15T10:27:10Z</time>
      </trkpt>
      <trkpt lat="48.83934" lon="2.42247">
        <ele>45</ele>
        <time>2014-05-15T10:27:11Z</time>
      </trkpt>
      <trkpt lat="48.83933" lon="2.42248">
        <ele>44</ele>
        <time>2014-05-15T10:27:12Z</time>
      </trkpt>
      <trkpt lat="48.83931" lon="2.42248">
        <ele>43</ele>
        <time>2014-05-15T10:27:13Z</time>
      </trkpt>
      <trkpt lat="48.8393" lon="2.42248">
        <ele>43</ele>
        <time>2014-05-15T10:27:14Z</time>
      </trkpt>
      <trkpt lat="48.83929" lon="2.42248">
        <ele>43</ele>
        <time>2014-05-15T10:27:15Z</time>
      </trkpt>
      <trkpt lat="48.83927" lon="2.42248">
        <ele>42</ele>
        <time>2014-05-15T10:27:16Z</time>
      </trkpt>
      <trkpt lat="48.83926" lon="2.42249">
        <ele>43</ele>
        <time>2014-05-15T10:27:17Z</time>
      </trkpt>
      <trkpt lat="48.83924" lon="2.4225">
        <ele>45</ele>
        <time>2014-05-15T10:27:18Z</time>
      </trkpt>
      <trkpt lat="48.83923" lon="2.42251">
        <ele>45</ele>
        <time>2014-05-15T10:27:19Z</time>
      </trkpt>
      <trkpt lat="48.83921" lon="2.42252">
        <ele>45</ele>
        <time>2014-05-15T10:27:20Z</time>
      </trkpt>
      <trkpt lat="48.8392" lon="2.42253">
        <ele>46</ele>
        <time>2014-05-15T10:27:21Z</time>
      </trkpt>
      <trkpt lat="48.83918" lon="2.42253">
        <ele>45</ele>
        <time>2014-05-15T10:27:22Z</time>
      </trkpt>
      <trkpt lat="48.83917" lon="2.42254">
        <ele>45</ele>
        <time>2014-05-15T10:27:23Z</time>
      </trkpt>
      <trkpt lat="48.83915" lon="2.42253">
        <ele>44</ele>
        <time>2014-05-15T10:27:24Z</time>
      </trkpt>
      <trkpt lat="48.83914" lon="2.42253">
        <ele>46</ele>
        <time>2014-05-15T10:27:25Z</time>
      </trkpt>
      <trkpt lat="48.83912" lon="2.42254">
        <ele>45</ele>
        <time>2014-05-15T10:27:26Z</time>
      </trkpt>
      <trkpt lat="48.83911" lon="2.42255">
        <ele>46</ele>
        <time>2014-05-15T10:27:27Z</time>
      </trkpt>
      <trkpt lat="48.83909" lon="2.42255">
        <ele>46</ele>
        <time>2014-05-15T10:27:28Z</time>
      </trkpt>
      <trkpt lat="48.83908" lon="2.42256">
        <ele>46</ele>
        <time>2014-05-15T10:27:29Z</time>
      </trkpt>
      <trkpt lat="48.83906" lon="2.42257">
        <ele>46</ele>
        <time>2014-05-15T10:27:30Z</time>
      </trkpt>
      <trkpt lat="48.83905" lon="2.42257">
        <ele>46</ele>
        <time>2014-05-15T10:27:31Z</time>
      </trkpt>
      <trkpt lat="48.83903" lon="2.42257">
        <ele>46</ele>
        <time>2014-05-15T10:27:32Z</time>
      </trkpt>
      <trkpt lat="48.83902" lon="2.42256">
        <ele>42</ele>
        <time>2014-05-15T10:27:33Z</time>
      </trkpt>
      <trkpt lat="48.839" lon="2.42256">
        <ele>43</ele>
        <time>2014-05-15T10:27:34Z</time>
      </trkpt>
      <trkpt lat="48.83899" lon="2.42256">
        <ele>43</ele>
        <time>2014-05-15T10:27:35Z</time>
      </trkpt>
      <trkpt lat="48.83898" lon="2.42255">
        <ele>44</ele>
        <time>2014-05-15T10:27:36Z</time>
      </trkpt>
      <trkpt lat="48.83896" lon="2.42255">
        <ele>45</ele>
        <time>2014-05-15T10:27:37Z</time>
      </trkpt>
      <trkpt lat="48.83895" lon="2.42255">
        <ele>42</ele>
        <time>2014-05-15T10:27:38Z</time>
      </trkpt>
      <trkpt lat="48.83893" lon="2.42255">
        <ele>43</ele>
        <time>2014-05-15T10:27:39Z</time>
      </trkpt>
      <trkpt lat="48.83892" lon="2.42256">
        <ele>43</ele>
        <time>2014-05-15T10:27:40Z</time>
      </trkpt>
      <trkpt lat="48.8389" lon="2.42256">
        <ele>41</ele>
        <time>2014-05-15T10:27:41Z</time>
      </trkpt>
      <trkpt lat="48.83889" lon="2.42255">
        <ele>42</ele>
        <time>2014-05-15T10:27:42Z</time>
      </trkpt>
      <trkpt lat="48.83887" lon="2.42255">
        <ele>43</ele>
        <time>2014-05-15T10:27:43Z</time>
      </trkpt>
      <trkpt lat="48.83885" lon="2.42255">
        <ele>43</ele>
        <time>2014-05-15T10:27:44Z</time>
      </trkpt>
      <trkpt lat="48.83884" lon="2.42255">
        <ele>44</ele>
        <time>2014-05-15T10:27:45Z</time>
      </trkpt>
      <trkpt lat="48.83882" lon="2.42256">
        <ele>45</ele>
        <time>2014-05-15T10:27:46Z</time>
      </trkpt>
      <trkpt lat="48.83881" lon="2.42257">
        <ele>45</ele>
        <time>2014-05-15T10:27:47Z</time>
      </trkpt>
      <trkpt lat="48.83879" lon="2.42257">
        <ele>44</ele>
        <time>2014-05-15T10:27:48Z</time>
      </trkpt>
      <trkpt lat="48.83878" lon="2.42258">
        <ele>44</ele>
        <time>2014-05-15T10:27:49Z</time>
      </trkpt>
      <trkpt lat="48.83877" lon="2.42259">
        <ele>44</ele>
        <time>2014-05-15T10:27:50Z</time>
      </trkpt>
      <trkpt lat="48.83876" lon="2.4226">
        <ele>43</ele>
        <time>2014-05-15T10:27:51Z</time>
      </trkpt>
      <trkpt lat="48.83874" lon="2.42261">
        <ele>44</ele>
        <time>2014-05-15T10:27:52Z</time>
      </trkpt>
      <trkpt lat="48.83873" lon="2.42262">
        <ele>46</ele>
        <time>2014-05-15T10:27:53Z</time>
      </trkpt>
      <trkpt lat="48.83872" lon="2.42263">
        <ele>46</ele>
        <time>2014-05-15T10:27:54Z</time>
      </trkpt>
      <trkpt lat="48.8387" lon="2.42264">
        <ele>48</ele>
        <time>2014-05-15T10:27:55Z</time>
      </trkpt>
      <trkpt lat="48.83869" lon="2.42265">
        <ele>49</ele>
        <time>2014-05-15T10:27:56Z</time>
      </trkpt>
      <trkpt lat="48.83867" lon="2.42265">
        <ele>49</ele>
        <time>2014-05-15T10:27:57Z</time>
      </trkpt>
      <trkpt lat="48.83866" lon="2.42266">
        <ele>49</ele>
        <time>2014-05-15T10:27:58Z</time>
      </trkpt>
      <trkpt lat="48.83864" lon="2.42266">
        <ele>46</ele>
        <time>2014-05-15T10:27:59Z</time>
      </trkpt>
      <trkpt lat="48.83863" lon="2.42266">
        <ele>46</ele>
        <time>2014-05-15T10:28:00Z</time>
      </trkpt>
      <trkpt lat="48.83862" lon="2.42266">
        <ele>45</ele>
        <time>2014-05-15T10:28:01Z</time>
      </trkpt>
      <trkpt lat="48.83861" lon="2.42265">
        <ele>45</ele>
        <time>2014-05-15T10:28:02Z</time>
      </trkpt>
      <trkpt lat="48.83859" lon="2.42264">
        <ele>45</ele>
        <time>2014-05-15T10:28:03Z</time>
      </trkpt>
      <trkpt lat="48.83858" lon="2.42264">
        <ele>45</ele>
        <time>2014-05-15T10:28:04Z</time>
      </trkpt>
      <trkpt lat="48.83857" lon="2.42264">
        <ele>45</ele>
        <time>2014-05-15T10:28:05Z</time>
      </trkpt>
      <trkpt lat="48.83856" lon="2.42263">
        <ele>44</ele>
        <time>2014-05-15T10:28:06Z</time>
      </trkpt>
      <trkpt lat="48.83855" lon="2.42263">
        <ele>44</ele>
        <time>2014-05-15T10:28:07Z</time>
      </trkpt>
      <trkpt lat="48.83854" lon="2.42262">
        <ele>45</ele>
        <time>2014-05-15T10:28:08Z</time>
      </trkpt>
      <trkpt lat="48.83853" lon="2.42261">
        <ele>44</ele>
        <time>2014-05-15T10:28:09Z</time>
      </trkpt>
      <trkpt lat="48.83852" lon="2.4226">
        <ele>44</ele>
        <time>2014-05-15T10:28:10Z</time>
      </trkpt>
      <trkpt lat="48.83851" lon="2.42259">
        <ele>44</ele>
        <time>2014-05-15T10:28:11Z</time>
      </trkpt>
      <trkpt lat="48.8385" lon="2.42258">
        <ele>44</ele>
        <time>2014-05-15T10:28:12Z</time>
      </trkpt>
      <trkpt lat="48.83849" lon="2.42257">
        <ele>43</ele>
        <time>2014-05-15T10:28:13Z</time>
      </trkpt>
      <trkpt lat="48.83848" lon="2.42256">
        <ele>43</ele>
        <time>2014-05-15T10:28:14Z</time>
      </trkpt>
      <trkpt lat="48.83847" lon="2.42255">
        <ele>43</ele>
        <time>2014-05-15T10:28:15Z</time>
      </trkpt>
      <trkpt lat="48.83846" lon="2.42254">
        <ele>41</ele>
        <time>2014-05-15T10:28:16Z</time>
      </trkpt>
      <trkpt lat="48.83844" lon="2.42253">
        <ele>41</ele>
        <time>2014-05-15T10:28:17Z</time>
      </trkpt>
      <trkpt lat="48.83843" lon="2.42252">
        <ele>40</ele>
        <time>2014-05-15T10:28:18Z</time>
      </trkpt>
      <trkpt lat="48.83842" lon="2.42251">
        <ele>41</ele>
        <time>2014-05-15T10:28:19Z</time>
      </trkpt>
      <trkpt lat="48.8384" lon="2.4225">
        <ele>41</ele>
        <time>2014-05-15T10:28:20Z</time>
      </trkpt>
      <trkpt lat="48.83838" lon="2.42249">
        <ele>42</ele>
        <time>2014-05-15T10:28:21Z</time>
      </trkpt>
      <trkpt lat="48.83837" lon="2.42248">
        <ele>43</ele>
        <time>2014-05-15T10:28:22Z</time>
      </trkpt>
      <trkpt lat="48.83835" lon="2.42246">
        <ele>43</ele>
        <time>2014-05-15T10:28:23Z</time>
      </trkpt>
      <trkpt lat="48.83833" lon="2.42245">
        <ele>43</ele>
        <time>2014-05-15T10:28:24Z</time>
      </trkpt>
      <trkpt lat="48.83832" lon="2.42245">
        <ele>43</ele>
        <time>2014-05-15T10:28:25Z</time>
      </trkpt>
      <trkpt lat="48.8383" lon="2.42244">
        <ele>43</ele>
        <time>2014-05-15T10:28:26Z</time>
      </trkpt>
      <trkpt lat="48.83829" lon="2.42244">
        <ele>44</ele>
        <time>2014-05-15T10:28:27Z</time>
      </trkpt>
      <trkpt lat="48.83828" lon="2.42243">
        <ele>43</ele>
        <time>2014-05-15T10:28:28Z</time>
      </trkpt>
      <trkpt lat="48.83827" lon="2.42243">
        <ele>43</ele>
        <time>2014-05-15T10:28:29Z</time>
      </trkpt>
      <trkpt lat="48.83826" lon="2.42242">
        <ele>43</ele>
        <time>2014-05-15T10:28:30Z</time>
      </trkpt>
      <trkpt lat="48.83825" lon="2.42241">
        <ele>43</ele>
        <time>2014-05-15T10:28:31Z</time>
      </trkpt>
      <trkpt lat="48.83824" lon="2.42241">
        <ele>43</ele>
        <time>2014-05-15T10:28:32Z</time>
      </trkpt>
      <trkpt lat="48.83823" lon="2.4224">
        <ele>43</ele>
        <time>2014-05-15T10:28:33Z</time>
      </trkpt>
      <trkpt lat="48.83822" lon="2.42239">
        <ele>42</ele>
        <time>2014-05-15T10:28:34Z</time>
      </trkpt>
      <trkpt lat="48.83821" lon="2.42239">
        <ele>42</ele>
        <time>2014-05-15T10:28:35Z</time>
      </trkpt>
      <trkpt lat="48.83819" lon="2.42238">
        <ele>42</ele>
        <time>2014-05-15T10:28:36Z</time>
      </trkpt>
      <trkpt lat="48.83818" lon="2.42237">
        <ele>41</ele>
        <time>2014-05-15T10:28:37Z</time>
      </trkpt>
      <trkpt lat="48.83817" lon="2.42237">
        <ele>43</ele>
        <time>2014-05-15T10:28:38Z</time>
      </trkpt>
      <trkpt lat="48.83816" lon="2.42237">
        <ele>43</ele>
        <time>2014-05-15T10:28:39Z</time>
      </trkpt>
      <trkpt lat="48.83816" lon="2.42237">
        <ele>44</ele>
        <time>2014-05-15T10:28:40Z</time>
      </trkpt>
      <trkpt lat="48.83815" lon="2.42237">
        <ele>44</ele>
        <time>2014-05-15T10:28:41Z</time>
      </trkpt>
      <trkpt lat="48.83815" lon="2.42237">
        <ele>44</ele>
        <time>2014-05-15T10:28:42Z</time>
      </trkpt>
      <trkpt lat="48.83815" lon="2.42237">
        <ele>44</ele>
        <time>2014-05-15T10:28:43Z</time>
      </trkpt>
      <trkpt lat="48.83814" lon="2.42236">
        <ele>44</ele>
        <time>2014-05-15T10:28:44Z</time>
      </trkpt>
      <trkpt lat="48.83813" lon="2.42235">
        <ele>45</ele>
        <time>2014-05-15T10:28:45Z</time>
      </trkpt>
      <trkpt lat="48.83811" lon="2.42234">
        <ele>45</ele>
        <time>2014-05-15T10:28:46Z</time>
      </trkpt>
      <trkpt lat="48.8381" lon="2.42233">
        <ele>45</ele>
        <time>2014-05-15T10:28:47Z</time>
      </trkpt>
      <trkpt lat="48.83809" lon="2.42231">
        <ele>42</ele>
        <time>2014-05-15T10:28:48Z</time>
      </trkpt>
      <trkpt lat="48.83808" lon="2.4223">
        <ele>40</ele>
        <time>2014-05-15T10:28:49Z</time>
      </trkpt>
      <trkpt lat="48.83807" lon="2.42229">
        <ele>40</ele>
        <time>2014-05-15T10:28:50Z</time>
      </trkpt>
      <trkpt lat="48.83806" lon="2.42229">
        <ele>40</ele>
        <time>2014-05-15T10:28:51Z</time>
      </trkpt>
      <trkpt lat="48.83804" lon="2.42228">
        <ele>40</ele>
        <time>2014-05-15T10:28:52Z</time>
      </trkpt>
      <trkpt lat="48.83803" lon="2.42227">
        <ele>40</ele>
        <time>2014-05-15T10:28:53Z</time>
      </trkpt>
      <trkpt lat="48.83802" lon="2.42226">
        <ele>40</ele>
        <time>2014-05-15T10:28:54Z</time>
      </trkpt>
      <trkpt lat="48.83801" lon="2.42225">
        <ele>41</ele>
        <time>2014-05-15T10:28:55Z</time>
      </trkpt>
      <trkpt lat="48.83799" lon="2.42223">
        <ele>42</ele>
        <time>2014-05-15T10:28:56Z</time>
      </trkpt>
      <trkpt lat="48.83797" lon="2.42221">
        <ele>43</ele>
        <time>2014-05-15T10:28:57Z</time>
      </trkpt>
      <trkpt lat="48.83796" lon="2.4222">
        <ele>41</ele>
        <time>2014-05-15T10:28:58Z</time>
      </trkpt>
      <trkpt lat="48.83794" lon="2.42219">
        <ele>42</ele>
        <time>2014-05-15T10:28:59Z</time>
      </trkpt>
      <trkpt lat="48.83793" lon="2.42218">
        <ele>43</ele>
        <time>2014-05-15T10:29:00Z</time>
      </trkpt>
      <trkpt lat="48.83791" lon="2.42216">
        <ele>43</ele>
        <time>2014-05-15T10:29:01Z</time>
      </trkpt>
      <trkpt lat="48.8379" lon="2.42215">
        <ele>44</ele>
        <time>2014-05-15T10:29:02Z</time>
      </trkpt>
      <trkpt lat="48.83789" lon="2.42213">
        <ele>42</ele>
        <time>2014-05-15T10:29:03Z</time>
      </trkpt>
      <trkpt lat="48.83788" lon="2.42211">
        <ele>42</ele>
        <time>2014-05-15T10:29:04Z</time>
      </trkpt>
      <trkpt lat="48.83786" lon="2.42209">
        <ele>43</ele>
        <time>2014-05-15T10:29:05Z</time>
      </trkpt>
      <trkpt lat="48.83785" lon="2.42207">
        <ele>41</ele>
        <time>2014-05-15T10:29:06Z</time>
      </trkpt>
      <trkpt lat="48.83784" lon="2.42206">
        <ele>41</ele>
        <time>2014-05-15T10:29:07Z</time>
      </trkpt>
      <trkpt lat="48.83783" lon="2.42205">
        <ele>40</ele>
        <time>2014-05-15T10:29:08Z</time>
      </trkpt>
      <trkpt lat="48.83782" lon="2.42204">
        <ele>39</ele>
        <time>2014-05-15T10:29:09Z</time>
      </trkpt>
      <trkpt lat="48.83781" lon="2.42202">
        <ele>39</ele>
        <time>2014-05-15T10:29:10Z</time>
      </trkpt>
      <trkpt lat="48.83781" lon="2.422">
        <ele>39</ele>
        <time>2014-05-15T10:29:11Z</time>
      </trkpt>
      <trkpt lat="48.8378" lon="2.42199">
        <ele>41</ele>
        <time>2014-05-15T10:29:12Z</time>
      </trkpt>
      <trkpt lat="48.83779" lon="2.42197">
        <ele>41</ele>
        <time>2014-05-15T10:29:13Z</time>
      </trkpt>
      <trkpt lat="48.83778" lon="2.42196">
        <ele>40</ele>
        <time>2014-05-15T10:29:14Z</time>
      </trkpt>
      <trkpt lat="48.83777" lon="2.42195">
        <ele>40</ele>
        <time>2014-05-15T10:29:15Z</time>
      </trkpt>
      <trkpt lat="48.83776" lon="2.42194">
        <ele>39</ele>
        <time>2014-05-15T10:29:16Z</time>
      </trkpt>
      <trkpt lat="48.83775" lon="2.42193">
        <ele>39</ele>
        <time>2014-05-15T10:29:17Z</time>
      </trkpt>
      <trkpt lat="48.83774" lon="2.42192">
        <ele>40</ele>
        <time>2014-05-15T10:29:18Z</time>
      </trkpt>
      <trkpt lat="48.83773" lon="2.42192">
        <ele>40</ele>
        <time>2014-05-15T10:29:19Z</time>
      </trkpt>
      <trkpt lat="48.83772" lon="2.42191">
        <ele>39</ele>
        <time>2014-05-15T10:29:20Z</time>
      </trkpt>
      <trkpt lat="48.83771" lon="2.4219">
        <ele>41</ele>
        <time>2014-05-15T10:29:21Z</time>
      </trkpt>
      <trkpt lat="48.8377" lon="2.42189">
        <ele>42</ele>
        <time>2014-05-15T10:29:22Z</time>
      </trkpt>
      <trkpt lat="48.83769" lon="2.42188">
        <ele>42</ele>
        <time>2014-05-15T10:29:23Z</time>
      </trkpt>
      <trkpt lat="48.83768" lon="2.42187">
        <ele>42</ele>
        <time>2014-05-15T10:29:24Z</time>
      </trkpt>
      <trkpt lat="48.83767" lon="2.42185">
        <ele>42</ele>
        <time>2014-05-15T10:29:25Z</time>
      </trkpt>
      <trkpt lat="48.83766" lon="2.42184">
        <ele>43</ele>
        <time>2014-05-15T10:29:26Z</time>
      </trkpt>
      <trkpt lat="48.83765" lon="2.42183">
        <ele>43</ele>
        <time>2014-05-15T10:29:27Z</time>
      </trkpt>
      <trkpt lat="48.83763" lon="2.42182">
        <ele>43</ele>
        <time>2014-05-15T10:29:28Z</time>
      </trkpt>
      <trkpt lat="48.83762" lon="2.42182">
        <ele>43</ele>
        <time>2014-05-15T10:29:29Z</time>
      </trkpt>
      <trkpt lat="48.83761" lon="2.42181">
        <ele>44</ele>
        <time>2014-05-15T10:29:30Z</time>
      </trkpt>
      <trkpt lat="48.83761" lon="2.4218">
        <ele>44</ele>
        <time>2014-05-15T10:29:31Z</time>
      </trkpt>
      <trkpt lat="48.83759" lon="2.42179">
        <ele>45</ele>
        <time>2014-05-15T10:29:32Z</time>
      </trkpt>
      <trkpt lat="48.83758" lon="2.42178">
        <ele>44</ele>
        <time>2014-05-15T10:29:33Z</time>
      </trkpt>
      <trkpt lat="48.83756" lon="2.42176">
        <ele>46</ele>
        <time>2014-05-15T10:29:34Z</time>
      </trkpt>
      <trkpt lat="48.83754" lon="2.42174">
        <ele>46</ele>
        <time>2014-05-15T10:29:35Z</time>
      </trkpt>
      <trkpt lat="48.83752" lon="2.42173">
        <ele>45</ele>
        <time>2014-05-15T10:29:36Z</time>
      </trkpt>
      <trkpt lat="48.8375" lon="2.42171">
        <ele>44</ele>
        <time>2014-05-15T10:29:37Z</time>
      </trkpt>
      <trkpt lat="48.83749" lon="2.4217">
        <ele>44</ele>
        <time>2014-05-15T10:29:38Z</time>
      </trkpt>
      <trkpt lat="48.83748" lon="2.42169">
        <ele>45</ele>
        <time>2014-05-15T10:29:39Z</time>
      </trkpt>
      <trkpt lat="48.83746" lon="2.42168">
        <ele>44</ele>
        <time>2014-05-15T10:29:40Z</time>
      </trkpt>
      <trkpt lat="48.83745" lon="2.42167">
        <ele>44</ele>
        <time>2014-05-15T10:29:41Z</time>
      </trkpt>
      <trkpt lat="48.83744" lon="2.42165">
        <ele>44</ele>
        <time>2014-05-15T10:29:42Z</time>
      </trkpt>
      <trkpt lat="48.83743" lon="2.42164">
        <ele>44</ele>
        <time>2014-05-15T10:29:43Z</time>
      </trkpt>
      <trkpt lat="48.83741" lon="2.42163">
        <ele>44</ele>
        <time>2014-05-15T10:29:44Z</time>
      </trkpt>
      <trkpt lat="48.8374" lon="2.42162">
        <ele>44</ele>
        <time>2014-05-15T10:29:45Z</time>
      </trkpt>
      <trkpt lat="48.83739" lon="2.42162">
        <ele>45</ele>
        <time>2014-05-15T10:29:46Z</time>
      </trkpt>
      <trkpt lat="48.83738" lon="2.42161">
        <ele>44</ele>
        <time>2014-05-15T10:29:47Z</time>
      </trkpt>
      <trkpt lat="48.83737" lon="2.4216">
        <ele>43</ele>
        <time>2014-05-15T10:29:48Z</time>
      </trkpt>
      <trkpt lat="48.83736" lon="2.42159">
        <ele>43</ele>
        <time>2014-05-15T10:29:49Z</time>
      </trkpt>
      <trkpt lat="48.83735" lon="2.42158">
        <ele>44</ele>
        <time>2014-05-15T10:29:50Z</time>
      </trkpt>
      <trkpt lat="48.83733" lon="2.42157">
        <ele>45</ele>
        <time>2014-05-15T10:29:51Z</time>
      </trkpt>
      <trkpt lat="48.83732" lon="2.42156">
        <ele>45</ele>
        <time>2014-05-15T10:29:52Z</time>
      </trkpt>
      <trkpt lat="48.8373" lon="2.42156">
        <ele>47</ele>
        <time>2014-05-15T10:29:53Z</time>
      </trkpt>
      <trkpt lat="48.83729" lon="2.42155">
        <ele>46</ele>
        <time>2014-05-15T10:29:54Z</time>
      </trkpt>
      <trkpt lat="48.83728" lon="2.42154">
        <ele>47</ele>
        <time>2014-05-15T10:29:55Z</time>
      </trkpt>
      <trkpt lat="48.83726" lon="2.42154">
        <ele>46</ele>
        <time>2014-05-15T10:29:56Z</time>
      </trkpt>
      <trkpt lat="48.83725" lon="2.42154">
        <ele>44</ele>
        <time>2014-05-15T10:29:57Z</time>
      </trkpt>
      <trkpt lat="48.83724" lon="2.42153">
        <ele>44</ele>
        <time>2014-05-15T10:29:58Z</time>
      </trkpt>
      <trkpt lat="48.83723" lon="2.42154">
        <ele>44</ele>
        <time>2014-05-15T10:29:59Z</time>
      </trkpt>
      <trkpt lat="48.83722" lon="2.42155">
        <ele>45</ele>
        <time>2014-05-15T10:30:00Z</time>
      </trkpt>
      <trkpt lat="48.83721" lon="2.42156">
        <ele>46</ele>
        <time>2014-05-15T10:30:01Z</time>
      </trkpt>
      <trkpt lat="48.8372" lon="2.42157">
        <ele>47</ele>
        <time>2014-05-15T10:30:02Z</time>
      </trkpt>
      <trkpt lat="48.83719" lon="2.42158">
        <ele>48</ele>
        <time>2014-05-15T10:30:03Z</time>
      </trkpt>
      <trkpt lat="48.83717" lon="2.42159">
        <ele>48</ele>
        <time>2014-05-15T10:30:04Z</time>
      </trkpt>
      <trkpt lat="48.83716" lon="2.4216">
        <ele>48</ele>
        <time>2014-05-15T10:30:05Z</time>
      </trkpt>
      <trkpt lat="48.83715" lon="2.42161">
        <ele>47</ele>
        <time>2014-05-15T10:30:06Z</time>
      </trkpt>
      <trkpt lat="48.83714" lon="2.42162">
        <ele>46</ele>
        <time>2014-05-15T10:30:07Z</time>
      </trkpt>
      <trkpt lat="48.83712" lon="2.42163">
        <ele>46</ele>
        <time>2014-05-15T10:30:08Z</time>
      </trkpt>
      <trkpt lat="48.83711" lon="2.42165">
        <ele>45</ele>
        <time>2014-05-15T10:30:09Z</time>
      </trkpt>
      <trkpt lat="48.8371" lon="2.42166">
        <ele>45</ele>
        <time>2014-05-15T10:30:10Z</time>
      </trkpt>
      <trkpt lat="48.83709" lon="2.42167">
        <ele>46</ele>
        <time>2014-05-15T10:30:11Z</time>
      </trkpt>
      <trkpt lat="48.83708" lon="2.42168">
        <ele>46</ele>
        <time>2014-05-15T10:30:12Z</time>
      </trkpt>
      <trkpt lat="48.83706" lon="2.42169">
        <ele>47</ele>
        <time>2014-05-15T10:30:13Z</time>
      </trkpt>
      <trkpt lat="48.83705" lon="2.42169">
        <ele>47</ele>
        <time>2014-05-15T10:30:14Z</time>
      </trkpt>
      <trkpt lat="48.83704" lon="2.4217">
        <ele>46</ele>
        <time>2014-05-15T10:30:15Z</time>
      </trkpt>
      <trkpt lat="48.83703" lon="2.42169">
        <ele>44</ele>
        <time>2014-05-15T10:30:16Z</time>
      </trkpt>
      <trkpt lat="48.83702" lon="2.42169">
        <ele>45</ele>
        <time>2014-05-15T10:30:17Z</time>
      </trkpt>
      <trkpt lat="48.83701" lon="2.42169">
        <ele>44</ele>
        <time>2014-05-15T10:30:18Z</time>
      </trkpt>
      <trkpt lat="48.837" lon="2.4217">
        <ele>43</ele>
        <time>2014-05-15T10:30:19Z</time>
      </trkpt>
      <trkpt lat="48.83699" lon="2.42172">
        <ele>45</ele>
        <time>2014-05-15T10:30:20Z</time>
      </trkpt>
      <trkpt lat="48.83699" lon="2.42173">
        <ele>45</ele>
        <time>2014-05-15T10:30:21Z</time>
      </trkpt>
      <trkpt lat="48.83698" lon="2.42175">
        <ele>46</ele>
        <time>2014-05-15T10:30:22Z</time>
      </trkpt>
      <trkpt lat="48.83696" lon="2.42177">
        <ele>45</ele>
        <time>2014-05-15T10:30:23Z</time>
      </trkpt>
      <trkpt lat="48.83695" lon="2.42178">
        <ele>47</ele>
        <time>2014-05-15T10:30:24Z</time>
      </trkpt>
      <trkpt lat="48.83694" lon="2.42181">
        <ele>48</ele>
        <time>2014-05-15T10:30:25Z</time>
      </trkpt>
      <trkpt lat="48.83693" lon="2.42183">
        <ele>46</ele>
        <time>2014-05-15T10:30:26Z</time>
      </trkpt>
      <trkpt lat="48.83691" lon="2.42184">
        <ele>46</ele>
        <time>2014-05-15T10:30:27Z</time>
      </trkpt>
      <trkpt lat="48.8369" lon="2.42184">
        <ele>44</ele>
        <time>2014-05-15T10:30:28Z</time>
      </trkpt>
      <trkpt lat="48.83688" lon="2.42184">
        <ele>44</ele>
        <time>2014-05-15T10:30:29Z</time>
      </trkpt>
      <trkpt lat="48.83687" lon="2.42185">
        <ele>44</ele>
        <time>2014-05-15T10:30:30Z</time>
      </trkpt>
      <trkpt lat="48.83685" lon="2.42185">
        <ele>46</ele>
        <time>2014-05-15T10:30:31Z</time>
      </trkpt>
      <trkpt lat="48.83684" lon="2.42185">
        <ele>46</ele>
        <time>2014-05-15T10:30:32Z</time>
      </trkpt>
      <trkpt lat="48.83682" lon="2.42185">
        <ele>46</ele>
        <time>2014-05-15T10:30:33Z</time>
      </trkpt>
      <trkpt lat="48.83681" lon="2.42186">
        <ele>45</ele>
        <time>2014-05-15T10:30:34Z</time>
      </trkpt>
      <trkpt lat="48.8368" lon="2.42187">
        <ele>46</ele>
        <time>2014-05-15T10:30:35Z</time>
      </trkpt>
      <trkpt lat="48.83678" lon="2.42189">
        <ele>48</ele>
        <time>2014-05-15T10:30:36Z</time>
      </trkpt>
      <trkpt lat="48.83677" lon="2.42191">
        <ele>45</ele>
        <time>2014-05-15T10:30:37Z</time>
      </trkpt>
      <trkpt lat="48.83676" lon="2.42191">
        <ele>43</ele>
        <time>2014-05-15T10:30:38Z</time>
      </trkpt>
      <trkpt lat="48.83675" lon="2.42192">
        <ele>45</ele>
        <time>2014-05-15T10:30:39Z</time>
      </trkpt>
      <trkpt lat="48.83673" lon="2.42194">
        <ele>44</ele>
        <time>2014-05-15T10:30:40Z</time>
      </trkpt>
      <trkpt lat="48.83672" lon="2.42195">
        <ele>44</ele>
        <time>2014-05-15T10:30:41Z</time>
      </trkpt>
      <trkpt lat="48.83671" lon="2.42196">
        <ele>43</ele>
        <time>2014-05-15T10:30:42Z</time>
      </trkpt>
      <trkpt lat="48.8367" lon="2.42198">
        <ele>43</ele>
        <time>2014-05-15T10:30:43Z</time>
      </trkpt>
      <trkpt lat="48.83669" lon="2.42199">
        <ele>44</ele>
        <time>2014-05-15T10:30:44Z</time>
      </trkpt>
      <trkpt lat="48.83668" lon="2.422">
        <ele>42</ele>
        <time>2014-05-15T10:30:45Z</time>
      </trkpt>
      <trkpt lat="48.83667" lon="2.42201">
        <ele>43</ele>
        <time>2014-05-15T10:30:46Z</time>
      </trkpt>
      <trkpt lat="48.83666" lon="2.42201">
        <ele>43</ele>
        <time>2014-05-15T10:30:47Z</time>
      </trkpt>
      <trkpt lat="48.83664" lon="2.42202">
        <ele>43</ele>
        <time>2014-05-15T10:30:48Z</time>
      </trkpt>
      <trkpt lat="48.83663" lon="2.42203">
        <ele>42</ele>
        <time>2014-05-15T10:30:49Z</time>
      </trkpt>
      <trkpt lat="48.83662" lon="2.42203">
        <ele>42</ele>
        <time>2014-05-15T10:30:50Z</time>
      </trkpt>
      <trkpt lat="48.83661" lon="2.42204">
        <ele>40</ele>
        <time>2014-05-15T10:30:51Z</time>
      </trkpt>
      <trkpt lat="48.83659" lon="2.42204">
        <ele>40</ele>
        <time>2014-05-15T10:30:52Z</time>
      </trkpt>
      <trkpt lat="48.83658" lon="2.42205">
        <ele>41</ele>
        <time>2014-05-15T10:30:53Z</time>
      </trkpt>
      <trkpt lat="48.83656" lon="2.42206">
        <ele>43</ele>
        <time>2014-05-15T10:30:54Z</time>
      </trkpt>
      <trkpt lat="48.83655" lon="2.42206">
        <ele>43</ele>
        <time>2014-05-15T10:30:55Z</time>
      </trkpt>
      <trkpt lat="48.83653" lon="2.42207">
        <ele>41</ele>
        <time>2014-05-15T10:30:56Z</time>
      </trkpt>
      <trkpt lat="48.83652" lon="2.42207">
        <ele>42</ele>
        <time>2014-05-15T10:30:57Z</time>
      </trkpt>
      <trkpt lat="48.8365" lon="2.42208">
        <ele>43</ele>
        <time>2014-05-15T10:30:58Z</time>
      </trkpt>
      <trkpt lat="48.83649" lon="2.42209">
        <ele>44</ele>
        <time>2014-05-15T10:30:59Z</time>
      </trkpt>
      <trkpt lat="48.83647" lon="2.4221">
        <ele>44</ele>
        <time>2014-05-15T10:31:00Z</time>
      </trkpt>
      <trkpt lat="48.83646" lon="2.42211">
        <ele>45</ele>
        <time>2014-05-15T10:31:01Z</time>
      </trkpt>
      <trkpt lat="48.83644" lon="2.42212">
        <ele>45</ele>
        <time>2014-05-15T10:31:02Z</time>
      </trkpt>
      <trkpt lat="48.83643" lon="2.42214">
        <ele>46</ele>
        <time>2014-05-15T10:31:03Z</time>
      </trkpt>
      <trkpt lat="48.83641" lon="2.42214">
        <ele>47</ele>
        <time>2014-05-15T10:31:04Z</time>
      </trkpt>
      <trkpt lat="48.8364" lon="2.42215">
        <ele>47</ele>
        <time>2014-05-15T10:31:05Z</time>
      </trkpt>
      <trkpt lat="48.83638" lon="2.42216">
        <ele>48</ele>
        <time>2014-05-15T10:31:06Z</time>
      </trkpt>
      <trkpt lat="48.83637" lon="2.42217">
        <ele>48</ele>
        <time>2014-05-15T10:31:07Z</time>
      </trkpt>
      <trkpt lat="48.83635" lon="2.42216">
        <ele>49</ele>
        <time>2014-05-15T10:31:08Z</time>
      </trkpt>
      <trkpt lat="48.83634" lon="2.42216">
        <ele>49</ele>
        <time>2014-05-15T10:31:09Z</time>
      </trkpt>
      <trkpt lat="48.83632" lon="2.42215">
        <ele>50</ele>
        <time>2014-05-15T10:31:10Z</time>
      </trkpt>
      <trkpt lat="48.83631" lon="2.42216">
        <ele>50</ele>
        <time>2014-05-15T10:31:11Z</time>
      </trkpt>
      <trkpt lat="48.83629" lon="2.42217">
        <ele>49</ele>
        <time>2014-05-15T10:31:12Z</time>
      </trkpt>
      <trkpt lat="48.83627" lon="2.42217">
        <ele>48</ele>
        <time>2014-05-15T10:31:13Z</time>
      </trkpt>
      <trkpt lat="48.83626" lon="2.42218">
        <ele>48</ele>
        <time>2014-05-15T10:31:14Z</time>
      </trkpt>
      <trkpt lat="48.83624" lon="2.42218">
        <ele>48</ele>
        <time>2014-05-15T10:31:15Z</time>
      </trkpt>
      <trkpt lat="48.83623" lon="2.42217">
        <ele>47</ele>
        <time>2014-05-15T10:31:16Z</time>
      </trkpt>
      <trkpt lat="48.83622" lon="2.42218">
        <ele>48</ele>
        <time>2014-05-15T10:31:17Z</time>
      </trkpt>
      <trkpt lat="48.8362" lon="2.42218">
        <ele>47</ele>
        <time>2014-05-15T10:31:18Z</time>
      </trkpt>
      <trkpt lat="48.83619" lon="2.42219">
        <ele>47</ele>
        <time>2014-05-15T10:31:19Z</time>
      </trkpt>
      <trkpt lat="48.83617" lon="2.42219">
        <ele>48</ele>
        <time>2014-05-15T10:31:20Z</time>
      </trkpt>
      <trkpt lat="48.83616" lon="2.42219">
        <ele>47</ele>
        <time>2014-05-15T10:31:21Z</time>
      </trkpt>
      <trkpt lat="48.83614" lon="2.42219">
        <ele>46</ele>
        <time>2014-05-15T10:31:22Z</time>
      </trkpt>
      <trkpt lat="48.83613" lon="2.42219">
        <ele>46</ele>
        <time>2014-05-15T10:31:23Z</time>
      </trkpt>
      <trkpt lat="48.83612" lon="2.42219">
        <ele>46</ele>
        <time>2014-05-15T10:31:24Z</time>
      </trkpt>
      <trkpt lat="48.8361" lon="2.42219">
        <ele>46</ele>
        <time>2014-05-15T10:31:25Z</time>
      </trkpt>
      <trkpt lat="48.83609" lon="2.42218">
        <ele>45</ele>
        <time>2014-05-15T10:31:26Z</time>
      </trkpt>
      <trkpt lat="48.83608" lon="2.42218">
        <ele>44</ele>
        <time>2014-05-15T10:31:27Z</time>
      </trkpt>
      <trkpt lat="48.83607" lon="2.42218">
        <ele>44</ele>
        <time>2014-05-15T10:31:28Z</time>
      </trkpt>
      <trkpt lat="48.83605" lon="2.42217">
        <ele>45</ele>
        <time>2014-05-15T10:31:29Z</time>
      </trkpt>
      <trkpt lat="48.83604" lon="2.42217">
        <ele>43</ele>
        <time>2014-05-15T10:31:30Z</time>
      </trkpt>
      <trkpt lat="48.83603" lon="2.42217">
        <ele>44</ele>
        <time>2014-05-15T10:31:31Z</time>
      </trkpt>
      <trkpt lat="48.83602" lon="2.42216">
        <ele>43</ele>
        <time>2014-05-15T10:31:32Z</time>
      </trkpt>
      <trkpt lat="48.836" lon="2.42216">
        <ele>43</ele>
        <time>2014-05-15T10:31:33Z</time>
      </trkpt>
      <trkpt lat="48.83599" lon="2.42216">
        <ele>44</ele>
        <time>2014-05-15T10:31:34Z</time>
      </trkpt>
      <trkpt lat="48.83598" lon="2.42216">
        <ele>45</ele>
        <time>2014-05-15T10:31:35Z</time>
      </trkpt>
      <trkpt lat="48.83597" lon="2.42215">
        <ele>44</ele>
        <time>2014-05-15T10:31:36Z</time>
      </trkpt>
      <trkpt lat="48.83596" lon="2.42214">
        <ele>44</ele>
        <time>2014-05-15T10:31:37Z</time>
      </trkpt>
      <trkpt lat="48.83595" lon="2.42213">
        <ele>44</ele>
        <time>2014-05-15T10:31:38Z</time>
      </trkpt>
      <trkpt lat="48.83594" lon="2.42213">
        <ele>45</ele>
        <time>2014-05-15T10:31:39Z</time>
      </trkpt>
      <trkpt lat="48.83595" lon="2.42213">
        <ele>45</ele>
        <time>2014-05-15T10:31:40Z</time>
      </trkpt>
      <trkpt lat="48.83594" lon="2.42214">
        <ele>46</ele>
        <time>2014-05-15T10:31:41Z</time>
      </trkpt>
      <trkpt lat="48.83594" lon="2.42214">
        <ele>46</ele>
        <time>2014-05-15T10:31:42Z</time>
      </trkpt>
      <trkpt lat="48.83594" lon="2.42214">
        <ele>47</ele>
        <time>2014-05-15T10:31:43Z</time>
      </trkpt>
      <trkpt lat="48.83594" lon="2.42213">
        <ele>46</ele>
        <time>2014-05-15T10:31:44Z</time>
      </trkpt>
      <trkpt lat="48.83594" lon="2.42213">
        <ele>47</ele>
        <time>2014-05-15T10:31:45Z</time>
      </trkpt>
      <trkpt lat="48.83594" lon="2.42212">
        <ele>46</ele>
        <time>2014-05-15T10:31:46Z</time>
      </trkpt>
      <trkpt lat="48.83594" lon="2.42212">
        <ele>46</ele>
        <time>2014-05-15T10:31:47Z</time>
      </trkpt>
      <trkpt lat="48.83594" lon="2.42212">
        <ele>46</ele>
        <time>2014-05-15T10:31:48Z</time>
      </trkpt>
      <trkpt lat="48.83594" lon="2.42212">
        <ele>46</ele>
        <time>2014-05-15T10:31:49Z</time>
      </trkpt>
      <trkpt lat="48.83594" lon="2.42212">
        <ele>46</ele>
        <time>2014-05-15T10:31:50Z</time>
      </trkpt>
      <trkpt lat="48.83594" lon="2.42212">
        <ele>46</ele>
        <time>2014-05-15T10:31:51Z</time>
      </trkpt>
      <trkpt lat="48.83593" lon="2.42212">
        <ele>46</ele>
        <time>2014-05-15T10:31:52Z</time>
      </trkpt>
      <trkpt lat="48.83593" lon="2.42212">
        <ele>46</ele>
        <time>2014-05-15T10:31:53Z</time>
      </trkpt>
      <trkpt lat="48.83593" lon="2.42212">
        <ele>46</ele>
        <time>2014-05-15T10:31:54Z</time>
      </trkpt>
      <trkpt lat="48.83593" lon="2.42212">
        <ele>46</ele>
        <time>2014-05-15T10:31:55Z</time>
      </trkpt>
      <trkpt lat="48.83593" lon="2.42212">
        <ele>46</ele>
        <time>2014-05-15T10:31:56Z</time>
      </trkpt>
      <trkpt lat="48.83594" lon="2.42212">
        <ele>46</ele>
        <time>2014-05-15T10:31:57Z</time>
      </trkpt>
      <trkpt lat="48.83594" lon="2.42212">
        <ele>46</ele>
        <time>2014-05-15T10:31:58Z</time>
      </trkpt>
      <trkpt lat="48.83594" lon="2.42212">
        <ele>45</ele>
        <time>2014-05-15T10:31:59Z</time>
      </trkpt>
      <trkpt lat="48.83594" lon="2.42212">
        <ele>45</ele>
        <time>2014-05-15T10:32:00Z</time>
      </trkpt>
      <trkpt lat="48.83594" lon="2.42212">
        <ele>45</ele>
        <time>2014-05-15T10:32:01Z</time>
      </trkpt>
      <trkpt lat="48.83594" lon="2.42212">
        <ele>45</ele>
        <time>2014-05-15T10:32:02Z</time>
      </trkpt>
      <trkpt lat="48.83594" lon="2.42212">
        <ele>45</ele>
        <time>2014-05-15T10:32:03Z</time>
      </trkpt>
      <trkpt lat="48.83594" lon="2.42212">
        <ele>45</ele>
        <time>2014-05-15T10:32:04Z</time>
      </trkpt>
      <trkpt lat="48.83594" lon="2.42212">
        <ele>45</ele>
        <time>2014-05-15T10:32:05Z</time>
      </trkpt>
      <trkpt lat="48.83593" lon="2.42211">
        <ele>46</ele>
        <time>2014-05-15T10:32:06Z</time>
      </trkpt>
      <trkpt lat="48.83592" lon="2.42209">
        <ele>45</ele>
        <time>2014-05-15T10:32:07Z</time>
      </trkpt>
      <trkpt lat="48.83591" lon="2.42208">
        <ele>45</ele>
        <time>2014-05-15T10:32:08Z</time>
      </trkpt>
      <trkpt lat="48.8359" lon="2.42206">
        <ele>46</ele>
        <time>2014-05-15T10:32:09Z</time>
      </trkpt>
      <trkpt lat="48.83589" lon="2.42204">
        <ele>48</ele>
        <time>2014-05-15T10:32:10Z</time>
      </trkpt>
      <trkpt lat="48.83589" lon="2.42203">
        <ele>48</ele>
        <time>2014-05-15T10:32:11Z</time>
      </trkpt>
      <trkpt lat="48.83588" lon="2.42201">
        <ele>49</ele>
        <time>2014-05-15T10:32:12Z</time>
      </trkpt>
      <trkpt lat="48.83587" lon="2.422">
        <ele>50</ele>
        <time>2014-05-15T10:32:13Z</time>
      </trkpt>
      <trkpt lat="48.83586" lon="2.42198">
        <ele>49</ele>
        <time>2014-05-15T10:32:14Z</time>
      </trkpt>
      <trkpt lat="48.83585" lon="2.42197">
        <ele>49</ele>
        <time>2014-05-15T10:32:15Z</time>
      </trkpt>
      <trkpt lat="48.83584" lon="2.42196">
        <ele>47</ele>
        <time>2014-05-15T10:32:16Z</time>
      </trkpt>
      <trkpt lat="48.83583" lon="2.42195">
        <ele>46</ele>
        <time>2014-05-15T10:32:17Z</time>
      </trkpt>
      <trkpt lat="48.83582" lon="2.42195">
        <ele>46</ele>
        <time>2014-05-15T10:32:18Z</time>
      </trkpt>
      <trkpt lat="48.83582" lon="2.42195">
        <ele>46</ele>
        <time>2014-05-15T10:32:19Z</time>
      </trkpt>
      <trkpt lat="48.83581" lon="2.42195">
        <ele>46</ele>
        <time>2014-05-15T10:32:20Z</time>
      </trkpt>
      <trkpt lat="48.8358" lon="2.42195">
        <ele>47</ele>
        <time>2014-05-15T10:32:21Z</time>
      </trkpt>
      <trkpt lat="48.8358" lon="2.42195">
        <ele>47</ele>
        <time>2014-05-15T10:32:22Z</time>
      </trkpt>
      <trkpt lat="48.8358" lon="2.42195">
        <ele>47</ele>
        <time>2014-05-15T10:32:23Z</time>
      </trkpt>
      <trkpt lat="48.83579" lon="2.42195">
        <ele>47</ele>
        <time>2014-05-15T10:32:24Z</time>
      </trkpt>
      <trkpt lat="48.83578" lon="2.42196">
        <ele>49</ele>
        <time>2014-05-15T10:32:25Z</time>
      </trkpt>
      <trkpt lat="48.83577" lon="2.42197">
        <ele>49</ele>
        <time>2014-05-15T10:32:26Z</time>
      </trkpt>
      <trkpt lat="48.83576" lon="2.42197">
        <ele>48</ele>
        <time>2014-05-15T10:32:27Z</time>
      </trkpt>
      <trkpt lat="48.83575" lon="2.42198">
        <ele>48</ele>
        <time>2014-05-15T10:32:28Z</time>
      </trkpt>
      <trkpt lat="48.83574" lon="2.42198">
        <ele>48</ele>
        <time>2014-05-15T10:32:29Z</time>
      </trkpt>
      <trkpt lat="48.83573" lon="2.42199">
        <ele>48</ele>
        <time>2014-05-15T10:32:30Z</time>
      </trkpt>
      <trkpt lat="48.83572" lon="2.422">
        <ele>47</ele>
        <time>2014-05-15T10:32:31Z</time>
      </trkpt>
      <trkpt lat="48.83572" lon="2.42201">
        <ele>46</ele>
        <time>2014-05-15T10:32:32Z</time>
      </trkpt>
      <trkpt lat="48.83571" lon="2.42202">
        <ele>47</ele>
        <time>2014-05-15T10:32:33Z</time>
      </trkpt>
      <trkpt lat="48.8357" lon="2.42204">
        <ele>48</ele>
        <time>2014-05-15T10:32:34Z</time>
      </trkpt>
      <trkpt lat="48.83569" lon="2.42205">
        <ele>47</ele>
        <time>2014-05-15T10:32:35Z</time>
      </trkpt>
      <trkpt lat="48.83568" lon="2.42205">
        <ele>47</ele>
        <time>2014-05-15T10:32:36Z</time>
      </trkpt>
      <trkpt lat="48.83568" lon="2.42206">
        <ele>48</ele>
        <time>2014-05-15T10:32:37Z</time>
      </trkpt>
      <trkpt lat="48.83567" lon="2.42206">
        <ele>50</ele>
        <time>2014-05-15T10:32:38Z</time>
      </trkpt>
      <trkpt lat="48.83566" lon="2.42207">
        <ele>50</ele>
        <time>2014-05-15T10:32:39Z</time>
      </trkpt>
      <trkpt lat="48.83565" lon="2.42208">
        <ele>52</ele>
        <time>2014-05-15T10:32:40Z</time>
      </trkpt>
      <trkpt lat="48.83565" lon="2.42209">
        <ele>51</ele>
        <time>2014-05-15T10:32:41Z</time>
      </trkpt>
      <trkpt lat="48.83565" lon="2.4221">
        <ele>50</ele>
        <time>2014-05-15T10:32:42Z</time>
      </trkpt>
      <trkpt lat="48.83565" lon="2.42211">
        <ele>50</ele>
        <time>2014-05-15T10:32:43Z</time>
      </trkpt>
      <trkpt lat="48.83565" lon="2.42212">
        <ele>50</ele>
        <time>2014-05-15T10:32:44Z</time>
      </trkpt>
      <trkpt lat="48.83566" lon="2.42212">
        <ele>49</ele>
        <time>2014-05-15T10:32:45Z</time>
      </trkpt>
      <trkpt lat="48.83566" lon="2.42211">
        <ele>49</ele>
        <time>2014-05-15T10:32:46Z</time>
      </trkpt>
      <trkpt lat="48.83566" lon="2.42211">
        <ele>49</ele>
        <time>2014-05-15T10:32:47Z</time>
      </trkpt>
      <trkpt lat="48.83566" lon="2.42211">
        <ele>49</ele>
        <time>2014-05-15T10:32:48Z</time>
      </trkpt>
      <trkpt lat="48.83566" lon="2.42211">
        <ele>49</ele>
        <time>2014-05-15T10:32:49Z</time>
      </trkpt>
      <trkpt lat="48.83567" lon="2.42211">
        <ele>49</ele>
        <time>2014-05-15T10:32:50Z</time>
      </trkpt>
      <trkpt lat="48.83568" lon="2.42211">
        <ele>49</ele>
        <time>2014-05-15T10:32:51Z</time>
      </trkpt>
      <trkpt lat="48.83569" lon="2.42211">
        <ele>49</ele>
        <time>2014-05-15T10:32:52Z</time>
      </trkpt>
      <trkpt lat="48.83569" lon="2.42212">
        <ele>47</ele>
        <time>2014-05-15T10:32:53Z</time>
      </trkpt>
      <trkpt lat="48.8357" lon="2.42213">
        <ele>51</ele>
        <time>2014-05-15T10:32:54Z</time>
      </trkpt>
      <trkpt lat="48.8357" lon="2.42214">
        <ele>50</ele>
        <time>2014-05-15T10:32:55Z</time>
      </trkpt>
      <trkpt lat="48.8357" lon="2.42215">
        <ele>51</ele>
        <time>2014-05-15T10:32:56Z</time>
      </trkpt>
      <trkpt lat="48.8357" lon="2.42216">
        <ele>49</ele>
        <time>2014-05-15T10:32:57Z</time>
      </trkpt>
      <trkpt lat="48.8357" lon="2.42217">
        <ele>52</ele>
        <time>2014-05-15T10:32:58Z</time>
      </trkpt>
      <trkpt lat="48.8357" lon="2.42219">
        <ele>51</ele>
        <time>2014-05-15T10:32:59Z</time>
      </trkpt>
      <trkpt lat="48.83569" lon="2.4222">
        <ele>51</ele>
        <time>2014-05-15T10:33:00Z</time>
      </trkpt>
      <trkpt lat="48.83569" lon="2.42222">
        <ele>51</ele>
        <time>2014-05-15T10:33:01Z</time>
      </trkpt>
      <trkpt lat="48.83569" lon="2.42223">
        <ele>50</ele>
        <time>2014-05-15T10:33:02Z</time>
      </trkpt>
      <trkpt lat="48.83568" lon="2.42224">
        <ele>49</ele>
        <time>2014-05-15T10:33:03Z</time>
      </trkpt>
      <trkpt lat="48.83568" lon="2.42226">
        <ele>47</ele>
        <time>2014-05-15T10:33:04Z</time>
      </trkpt>
      <trkpt lat="48.83567" lon="2.42228">
        <ele>46</ele>
        <time>2014-05-15T10:33:05Z</time>
      </trkpt>
      <trkpt lat="48.83566" lon="2.4223">
        <ele>45</ele>
        <time>2014-05-15T10:33:06Z</time>
      </trkpt>
      <trkpt lat="48.83565" lon="2.42231">
        <ele>44</ele>
        <time>2014-05-15T10:33:07Z</time>
      </trkpt>
      <trkpt lat="48.83564" lon="2.42233">
        <ele>45</ele>
        <time>2014-05-15T10:33:08Z</time>
      </trkpt>
      <trkpt lat="48.83563" lon="2.42235">
        <ele>45</ele>
        <time>2014-05-15T10:33:09Z</time>
      </trkpt>
      <trkpt lat="48.83561" lon="2.42236">
        <ele>44</ele>
        <time>2014-05-15T10:33:10Z</time>
      </trkpt>
      <trkpt lat="48.8356" lon="2.42239">
        <ele>45</ele>
        <time>2014-05-15T10:33:11Z</time>
      </trkpt>
      <trkpt lat="48.83558" lon="2.42241">
        <ele>46</ele>
        <time>2014-05-15T10:33:12Z</time>
      </trkpt>
      <trkpt lat="48.83557" lon="2.42243">
        <ele>45</ele>
        <time>2014-05-15T10:33:13Z</time>
      </trkpt>
      <trkpt lat="48.83555" lon="2.42245">
        <ele>45</ele>
        <time>2014-05-15T10:33:14Z</time>
      </trkpt>
      <trkpt lat="48.83554" lon="2.42247">
        <ele>45</ele>
        <time>2014-05-15T10:33:15Z</time>
      </trkpt>
      <trkpt lat="48.83553" lon="2.42249">
        <ele>45</ele>
        <time>2014-05-15T10:33:16Z</time>
      </trkpt>
      <trkpt lat="48.83551" lon="2.4225">
        <ele>44</ele>
        <time>2014-05-15T10:33:17Z</time>
      </trkpt>
      <trkpt lat="48.8355" lon="2.42251">
        <ele>42</ele>
        <time>2014-05-15T10:33:18Z</time>
      </trkpt>
      <trkpt lat="48.8355" lon="2.42251">
        <ele>40</ele>
        <time>2014-05-15T10:33:19Z</time>
      </trkpt>
      <trkpt lat="48.83549" lon="2.4225">
        <ele>40</ele>
        <time>2014-05-15T10:33:20Z</time>
      </trkpt>
      <trkpt lat="48.83548" lon="2.4225">
        <ele>40</ele>
        <time>2014-05-15T10:33:21Z</time>
      </trkpt>
      <trkpt lat="48.83547" lon="2.42251">
        <ele>41</ele>
        <time>2014-05-15T10:33:22Z</time>
      </trkpt>
      <trkpt lat="48.83546" lon="2.42251">
        <ele>40</ele>
        <time>2014-05-15T10:33:23Z</time>
      </trkpt>
      <trkpt lat="48.83544" lon="2.42252">
        <ele>41</ele>
        <time>2014-05-15T10:33:24Z</time>
      </trkpt>
      <trkpt lat="48.83543" lon="2.42253">
        <ele>42</ele>
        <time>2014-05-15T10:33:25Z</time>
      </trkpt>
      <trkpt lat="48.83542" lon="2.42254">
        <ele>43</ele>
        <time>2014-05-15T10:33:26Z</time>
      </trkpt>
      <trkpt lat="48.83541" lon="2.42256">
        <ele>44</ele>
        <time>2014-05-15T10:33:27Z</time>
      </trkpt>
      <trkpt lat="48.8354" lon="2.42258">
        <ele>45</ele>
        <time>2014-05-15T10:33:28Z</time>
      </trkpt>
      <trkpt lat="48.8354" lon="2.4226">
        <ele>42</ele>
        <time>2014-05-15T10:33:29Z</time>
      </trkpt>
      <trkpt lat="48.83539" lon="2.42261">
        <ele>42</ele>
        <time>2014-05-15T10:33:30Z</time>
      </trkpt>
      <trkpt lat="48.83539" lon="2.42263">
        <ele>41</ele>
        <time>2014-05-15T10:33:31Z</time>
      </trkpt>
      <trkpt lat="48.83538" lon="2.42265">
        <ele>41</ele>
        <time>2014-05-15T10:33:32Z</time>
      </trkpt>
      <trkpt lat="48.83537" lon="2.42266">
        <ele>42</ele>
        <time>2014-05-15T10:33:33Z</time>
      </trkpt>
      <trkpt lat="48.83536" lon="2.42267">
        <ele>42</ele>
        <time>2014-05-15T10:33:34Z</time>
      </trkpt>
      <trkpt lat="48.83535" lon="2.42268">
        <ele>42</ele>
        <time>2014-05-15T10:33:35Z</time>
      </trkpt>
      <trkpt lat="48.83534" lon="2.42268">
        <ele>41</ele>
        <time>2014-05-15T10:33:36Z</time>
      </trkpt>
      <trkpt lat="48.83533" lon="2.42269">
        <ele>43</ele>
        <time>2014-05-15T10:33:37Z</time>
      </trkpt>
      <trkpt lat="48.83532" lon="2.42269">
        <ele>44</ele>
        <time>2014-05-15T10:33:38Z</time>
      </trkpt>
      <trkpt lat="48.83531" lon="2.42268">
        <ele>43</ele>
        <time>2014-05-15T10:33:39Z</time>
      </trkpt>
      <trkpt lat="48.8353" lon="2.42268">
        <ele>45</ele>
        <time>2014-05-15T10:33:40Z</time>
      </trkpt>
      <trkpt lat="48.83529" lon="2.42268">
        <ele>45</ele>
        <time>2014-05-15T10:33:41Z</time>
      </trkpt>
      <trkpt lat="48.83528" lon="2.42267">
        <ele>46</ele>
        <time>2014-05-15T10:33:42Z</time>
      </trkpt>
      <trkpt lat="48.83527" lon="2.42267">
        <ele>46</ele>
        <time>2014-05-15T10:33:43Z</time>
      </trkpt>
      <trkpt lat="48.83526" lon="2.42267">
        <ele>46</ele>
        <time>2014-05-15T10:33:44Z</time>
      </trkpt>
      <trkpt lat="48.83525" lon="2.42268">
        <ele>46</ele>
        <time>2014-05-15T10:33:45Z</time>
      </trkpt>
      <trkpt lat="48.83524" lon="2.42268">
        <ele>44</ele>
        <time>2014-05-15T10:33:46Z</time>
      </trkpt>
      <trkpt lat="48.83522" lon="2.4227">
        <ele>44</ele>
        <time>2014-05-15T10:33:47Z</time>
      </trkpt>
      <trkpt lat="48.83521" lon="2.4227">
        <ele>44</ele>
        <time>2014-05-15T10:33:48Z</time>
      </trkpt>
      <trkpt lat="48.8352" lon="2.42271">
        <ele>45</ele>
        <time>2014-05-15T10:33:49Z</time>
      </trkpt>
      <trkpt lat="48.83518" lon="2.42271">
        <ele>46</ele>
        <time>2014-05-15T10:33:50Z</time>
      </trkpt>
      <trkpt lat="48.83517" lon="2.42272">
        <ele>47</ele>
        <time>2014-05-15T10:33:51Z</time>
      </trkpt>
      <trkpt lat="48.83515" lon="2.42273">
        <ele>49</ele>
        <time>2014-05-15T10:33:52Z</time>
      </trkpt>
      <trkpt lat="48.83514" lon="2.42273">
        <ele>48</ele>
        <time>2014-05-15T10:33:53Z</time>
      </trkpt>
      <trkpt lat="48.83512" lon="2.42273">
        <ele>49</ele>
        <time>2014-05-15T10:33:54Z</time>
      </trkpt>
      <trkpt lat="48.83511" lon="2.42274">
        <ele>48</ele>
        <time>2014-05-15T10:33:55Z</time>
      </trkpt>
      <trkpt lat="48.8351" lon="2.42273">
        <ele>48</ele>
        <time>2014-05-15T10:33:56Z</time>
      </trkpt>
      <trkpt lat="48.83508" lon="2.42272">
        <ele>49</ele>
        <time>2014-05-15T10:33:57Z</time>
      </trkpt>
      <trkpt lat="48.83506" lon="2.42272">
        <ele>48</ele>
        <time>2014-05-15T10:33:58Z</time>
      </trkpt>
      <trkpt lat="48.83505" lon="2.42271">
        <ele>48</ele>
        <time>2014-05-15T10:33:59Z</time>
      </trkpt>
      <trkpt lat="48.83504" lon="2.42271">
        <ele>47</ele>
        <time>2014-05-15T10:34:00Z</time>
      </trkpt>
      <trkpt lat="48.83502" lon="2.4227">
        <ele>49</ele>
        <time>2014-05-15T10:34:01Z</time>
      </trkpt>
      <trkpt lat="48.83501" lon="2.4227">
        <ele>49</ele>
        <time>2014-05-15T10:34:02Z</time>
      </trkpt>
      <trkpt lat="48.835" lon="2.42269">
        <ele>49</ele>
        <time>2014-05-15T10:34:03Z</time>
      </trkpt>
      <trkpt lat="48.83498" lon="2.42269">
        <ele>48</ele>
        <time>2014-05-15T10:34:04Z</time>
      </trkpt>
      <trkpt lat="48.83497" lon="2.42269">
        <ele>47</ele>
        <time>2014-05-15T10:34:05Z</time>
      </trkpt>
      <trkpt lat="48.83495" lon="2.42269">
        <ele>47</ele>
        <time>2014-05-15T10:34:06Z</time>
      </trkpt>
      <trkpt lat="48.83494" lon="2.42268">
        <ele>48</ele>
        <time>2014-05-15T10:34:07Z</time>
      </trkpt>
      <trkpt lat="48.83492" lon="2.42268">
        <ele>49</ele>
        <time>2014-05-15T10:34:08Z</time>
      </trkpt>
      <trkpt lat="48.83491" lon="2.42268">
        <ele>50</ele>
        <time>2014-05-15T10:34:09Z</time>
      </trkpt>
      <trkpt lat="48.83489" lon="2.42268">
        <ele>48</ele>
        <time>2014-05-15T10:34:10Z</time>
      </trkpt>
      <trkpt lat="48.83488" lon="2.42267">
        <ele>47</ele>
        <time>2014-05-15T10:34:11Z</time>
      </trkpt>
      <trkpt lat="48.83486" lon="2.42267">
        <ele>48</ele>
        <time>2014-05-15T10:34:12Z</time>
      </trkpt>
      <trkpt lat="48.83485" lon="2.42267">
        <ele>49</ele>
        <time>2014-05-15T10:34:13Z</time>
      </trkpt>
      <trkpt lat="48.83484" lon="2.42269">
        <ele>49</ele>
        <time>2014-05-15T10:34:14Z</time>
      </trkpt>
      <trkpt lat="48.83483" lon="2.4227">
        <ele>49</ele>
        <time>2014-05-15T10:34:15Z</time>
      </trkpt>
      <trkpt lat="48.83482" lon="2.42272">
        <ele>50</ele>
        <time>2014-05-15T10:34:16Z</time>
      </trkpt>
      <trkpt lat="48.83481" lon="2.42273">
        <ele>48</ele>
        <time>2014-05-15T10:34:17Z</time>
      </trkpt>
      <trkpt lat="48.8348" lon="2.42274">
        <ele>48</ele>
        <time>2014-05-15T10:34:18Z</time>
      </trkpt>
      <trkpt lat="48.83478" lon="2.42274">
        <ele>47</ele>
        <time>2014-05-15T10:34:19Z</time>
      </trkpt>
      <trkpt lat="48.83477" lon="2.42274">
        <ele>47</ele>
        <time>2014-05-15T10:34:20Z</time>
      </trkpt>
      <trkpt lat="48.83476" lon="2.42275">
        <ele>48</ele>
        <time>2014-05-15T10:34:21Z</time>
      </trkpt>
      <trkpt lat="48.83474" lon="2.42275">
        <ele>46</ele>
        <time>2014-05-15T10:34:22Z</time>
      </trkpt>
      <trkpt lat="48.83473" lon="2.42274">
        <ele>45</ele>
        <time>2014-05-15T10:34:23Z</time>
      </trkpt>
      <trkpt lat="48.83472" lon="2.42274">
        <ele>47</ele>
        <time>2014-05-15T10:34:24Z</time>
      </trkpt>
      <trkpt lat="48.8347" lon="2.42274">
        <ele>48</ele>
        <time>2014-05-15T10:34:25Z</time>
      </trkpt>
      <trkpt lat="48.83468" lon="2.42274">
        <ele>50</ele>
        <time>2014-05-15T10:34:26Z</time>
      </trkpt>
      <trkpt lat="48.83467" lon="2.42273">
        <ele>49</ele>
        <time>2014-05-15T10:34:27Z</time>
      </trkpt>
      <trkpt lat="48.83465" lon="2.42273">
        <ele>49</ele>
        <time>2014-05-15T10:34:28Z</time>
      </trkpt>
      <trkpt lat="48.83464" lon="2.42274">
        <ele>50</ele>
        <time>2014-05-15T10:34:29Z</time>
      </trkpt>
      <trkpt lat="48.83462" lon="2.42274">
        <ele>49</ele>
        <time>2014-05-15T10:34:30Z</time>
      </trkpt>
      <trkpt lat="48.83461" lon="2.42274">
        <ele>49</ele>
        <time>2014-05-15T10:34:31Z</time>
      </trkpt>
      <trkpt lat="48.8346" lon="2.42274">
        <ele>48</ele>
        <time>2014-05-15T10:34:32Z</time>
      </trkpt>
      <trkpt lat="48.83459" lon="2.42274">
        <ele>47</ele>
        <time>2014-05-15T10:34:33Z</time>
      </trkpt>
      <trkpt lat="48.83457" lon="2.42274">
        <ele>47</ele>
        <time>2014-05-15T10:34:34Z</time>
      </trkpt>
      <trkpt lat="48.83456" lon="2.42274">
        <ele>45</ele>
        <time>2014-05-15T10:34:35Z</time>
      </trkpt>
      <trkpt lat="48.83455" lon="2.42274">
        <ele>46</ele>
        <time>2014-05-15T10:34:36Z</time>
      </trkpt>
      <trkpt lat="48.83454" lon="2.42275">
        <ele>45</ele>
        <time>2014-05-15T10:34:37Z</time>
      </trkpt>
      <trkpt lat="48.83453" lon="2.42276">
        <ele>44</ele>
        <time>2014-05-15T10:34:38Z</time>
      </trkpt>
      <trkpt lat="48.83451" lon="2.42276">
        <ele>44</ele>
        <time>2014-05-15T10:34:39Z</time>
      </trkpt>
      <trkpt lat="48.8345" lon="2.42276">
        <ele>43</ele>
        <time>2014-05-15T10:34:40Z</time>
      </trkpt>
      <trkpt lat="48.83449" lon="2.42276">
        <ele>42</ele>
        <time>2014-05-15T10:34:41Z</time>
      </trkpt>
      <trkpt lat="48.83448" lon="2.42277">
        <ele>41</ele>
        <time>2014-05-15T10:34:42Z</time>
      </trkpt>
      <trkpt lat="48.83447" lon="2.42277">
        <ele>42</ele>
        <time>2014-05-15T10:34:43Z</time>
      </trkpt>
      <trkpt lat="48.83445" lon="2.42277">
        <ele>42</ele>
        <time>2014-05-15T10:34:44Z</time>
      </trkpt>
      <trkpt lat="48.83444" lon="2.42277">
        <ele>42</ele>
        <time>2014-05-15T10:34:45Z</time>
      </trkpt>
      <trkpt lat="48.83442" lon="2.42277">
        <ele>43</ele>
        <time>2014-05-15T10:34:46Z</time>
      </trkpt>
      <trkpt lat="48.83441" lon="2.42278">
        <ele>45</ele>
        <time>2014-05-15T10:34:47Z</time>
      </trkpt>
      <trkpt lat="48.8344" lon="2.42279">
        <ele>45</ele>
        <time>2014-05-15T10:34:48Z</time>
      </trkpt>
      <trkpt lat="48.83438" lon="2.4228">
        <ele>46</ele>
        <time>2014-05-15T10:34:49Z</time>
      </trkpt>
      <trkpt lat="48.83437" lon="2.42281">
        <ele>46</ele>
        <time>2014-05-15T10:34:50Z</time>
      </trkpt>
      <trkpt lat="48.83436" lon="2.42282">
        <ele>46</ele>
        <time>2014-05-15T10:34:51Z</time>
      </trkpt>
      <trkpt lat="48.83434" lon="2.42282">
        <ele>46</ele>
        <time>2014-05-15T10:34:52Z</time>
      </trkpt>
      <trkpt lat="48.83433" lon="2.42282">
        <ele>46</ele>
        <time>2014-05-15T10:34:53Z</time>
      </trkpt>
      <trkpt lat="48.83431" lon="2.42281">
        <ele>46</ele>
        <time>2014-05-15T10:34:54Z</time>
      </trkpt>
      <trkpt lat="48.8343" lon="2.42282">
        <ele>45</ele>
        <time>2014-05-15T10:34:55Z</time>
      </trkpt>
      <trkpt lat="48.83428" lon="2.42282">
        <ele>45</ele>
        <time>2014-05-15T10:34:56Z</time>
      </trkpt>
      <trkpt lat="48.83427" lon="2.42283">
        <ele>45</ele>
        <time>2014-05-15T10:34:57Z</time>
      </trkpt>
      <trkpt lat="48.83425" lon="2.42283">
        <ele>45</ele>
        <time>2014-05-15T10:34:58Z</time>
      </trkpt>
      <trkpt lat="48.83424" lon="2.42284">
        <ele>46</ele>
        <time>2014-05-15T10:34:59Z</time>
      </trkpt>
      <trkpt lat="48.83422" lon="2.42284">
        <ele>46</ele>
        <time>2014-05-15T10:35:00Z</time>
      </trkpt>
      <trkpt lat="48.83421" lon="2.42285">
        <ele>46</ele>
        <time>2014-05-15T10:35:01Z</time>
      </trkpt>
      <trkpt lat="48.83419" lon="2.42285">
        <ele>47</ele>
        <time>2014-05-15T10:35:02Z</time>
      </trkpt>
      <trkpt lat="48.83418" lon="2.42284">
        <ele>45</ele>
        <time>2014-05-15T10:35:03Z</time>
      </trkpt>
      <trkpt lat="48.83417" lon="2.42284">
        <ele>44</ele>
        <time>2014-05-15T10:35:04Z</time>
      </trkpt>
      <trkpt lat="48.83415" lon="2.42283">
        <ele>44</ele>
        <time>2014-05-15T10:35:05Z</time>
      </trkpt>
      <trkpt lat="48.83414" lon="2.42283">
        <ele>44</ele>
        <time>2014-05-15T10:35:06Z</time>
      </trkpt>
      <trkpt lat="48.83413" lon="2.42283">
        <ele>45</ele>
        <time>2014-05-15T10:35:07Z</time>
      </trkpt>
      <trkpt lat="48.83412" lon="2.42283">
        <ele>45</ele>
        <time>2014-05-15T10:35:08Z</time>
      </trkpt>
      <trkpt lat="48.8341" lon="2.42283">
        <ele>44</ele>
        <time>2014-05-15T10:35:09Z</time>
      </trkpt>
      <trkpt lat="48.83409" lon="2.42284">
        <ele>45</ele>
        <time>2014-05-15T10:35:10Z</time>
      </trkpt>
      <trkpt lat="48.83408" lon="2.42286">
        <ele>47</ele>
        <time>2014-05-15T10:35:11Z</time>
      </trkpt>
      <trkpt lat="48.83406" lon="2.42287">
        <ele>46</ele>
        <time>2014-05-15T10:35:12Z</time>
      </trkpt>
      <trkpt lat="48.83405" lon="2.42288">
        <ele>46</ele>
        <time>2014-05-15T10:35:13Z</time>
      </trkpt>
      <trkpt lat="48.83404" lon="2.42289">
        <ele>47</ele>
        <time>2014-05-15T10:35:14Z</time>
      </trkpt>
      <trkpt lat="48.83403" lon="2.4229">
        <ele>46</ele>
        <time>2014-05-15T10:35:15Z</time>
      </trkpt>
      <trkpt lat="48.83401" lon="2.42292">
        <ele>46</ele>
        <time>2014-05-15T10:35:16Z</time>
      </trkpt>
      <trkpt lat="48.834" lon="2.42294">
        <ele>46</ele>
        <time>2014-05-15T10:35:17Z</time>
      </trkpt>
      <trkpt lat="48.83399" lon="2.42295">
        <ele>47</ele>
        <time>2014-05-15T10:35:18Z</time>
      </trkpt>
      <trkpt lat="48.83397" lon="2.42296">
        <ele>46</ele>
        <time>2014-05-15T10:35:19Z</time>
      </trkpt>
      <trkpt lat="48.83396" lon="2.42296">
        <ele>47</ele>
        <time>2014-05-15T10:35:20Z</time>
      </trkpt>
      <trkpt lat="48.83394" lon="2.42296">
        <ele>47</ele>
        <time>2014-05-15T10:35:21Z</time>
      </trkpt>
      <trkpt lat="48.83392" lon="2.42297">
        <ele>47</ele>
        <time>2014-05-15T10:35:22Z</time>
      </trkpt>
      <trkpt lat="48.83391" lon="2.42296">
        <ele>45</ele>
        <time>2014-05-15T10:35:23Z</time>
      </trkpt>
      <trkpt lat="48.8339" lon="2.42296">
        <ele>43</ele>
        <time>2014-05-15T10:35:24Z</time>
      </trkpt>
      <trkpt lat="48.83389" lon="2.42296">
        <ele>43</ele>
        <time>2014-05-15T10:35:25Z</time>
      </trkpt>
      <trkpt lat="48.83387" lon="2.42296">
        <ele>44</ele>
        <time>2014-05-15T10:35:26Z</time>
      </trkpt>
      <trkpt lat="48.83386" lon="2.42296">
        <ele>42</ele>
        <time>2014-05-15T10:35:27Z</time>
      </trkpt>
      <trkpt lat="48.83385" lon="2.42295">
        <ele>41</ele>
        <time>2014-05-15T10:35:28Z</time>
      </trkpt>
      <trkpt lat="48.83384" lon="2.42296">
        <ele>42</ele>
        <time>2014-05-15T10:35:29Z</time>
      </trkpt>
      <trkpt lat="48.83382" lon="2.42296">
        <ele>41</ele>
        <time>2014-05-15T10:35:30Z</time>
      </trkpt>
      <trkpt lat="48.83381" lon="2.42297">
        <ele>40</ele>
        <time>2014-05-15T10:35:31Z</time>
      </trkpt>
      <trkpt lat="48.8338" lon="2.42297">
        <ele>42</ele>
        <time>2014-05-15T10:35:32Z</time>
      </trkpt>
      <trkpt lat="48.83378" lon="2.42297">
        <ele>41</ele>
        <time>2014-05-15T10:35:33Z</time>
      </trkpt>
      <trkpt lat="48.83377" lon="2.42296">
        <ele>40</ele>
        <time>2014-05-15T10:35:34Z</time>
      </trkpt>
      <trkpt lat="48.83376" lon="2.42296">
        <ele>40</ele>
        <time>2014-05-15T10:35:35Z</time>
      </trkpt>
      <trkpt lat="48.83375" lon="2.42296">
        <ele>42</ele>
        <time>2014-05-15T10:35:36Z</time>
      </trkpt>
      <trkpt lat="48.83374" lon="2.42296">
        <ele>42</ele>
        <time>2014-05-15T10:35:37Z</time>
      </trkpt>
      <trkpt lat="48.83372" lon="2.42296">
        <ele>43</ele>
        <time>2014-05-15T10:35:38Z</time>
      </trkpt>
      <trkpt lat="48.83371" lon="2.42296">
        <ele>44</ele>
        <time>2014-05-15T10:35:39Z</time>
      </trkpt>
      <trkpt lat="48.83369" lon="2.42296">
        <ele>43</ele>
        <time>2014-05-15T10:35:40Z</time>
      </trkpt>
      <trkpt lat="48.83368" lon="2.42296">
        <ele>43</ele>
        <time>2014-05-15T10:35:41Z</time>
      </trkpt>
      <trkpt lat="48.83366" lon="2.42296">
        <ele>43</ele>
        <time>2014-05-15T10:35:42Z</time>
      </trkpt>
      <trkpt lat="48.83365" lon="2.42296">
        <ele>44</ele>
        <time>2014-05-15T10:35:43Z</time>
      </trkpt>
      <trkpt lat="48.83363" lon="2.42297">
        <ele>44</ele>
        <time>2014-05-15T10:35:44Z</time>
      </trkpt>
      <trkpt lat="48.83361" lon="2.42297">
        <ele>45</ele>
        <time>2014-05-15T10:35:45Z</time>
      </trkpt>
      <trkpt lat="48.8336" lon="2.42297">
        <ele>47</ele>
        <time>2014-05-15T10:35:46Z</time>
      </trkpt>
      <trkpt lat="48.83359" lon="2.42297">
        <ele>46</ele>
        <time>2014-05-15T10:35:47Z</time>
      </trkpt>
      <trkpt lat="48.83358" lon="2.42298">
        <ele>46</ele>
        <time>2014-05-15T10:35:48Z</time>
      </trkpt>
      <trkpt lat="48.83356" lon="2.42298">
        <ele>46</ele>
        <time>2014-05-15T10:35:49Z</time>
      </trkpt>
      <trkpt lat="48.83355" lon="2.42298">
        <ele>46</ele>
        <time>2014-05-15T10:35:50Z</time>
      </trkpt>
      <trkpt lat="48.83355" lon="2.42299">
        <ele>44</ele>
        <time>2014-05-15T10:35:51Z</time>
      </trkpt>
      <trkpt lat="48.83354" lon="2.423">
        <ele>44</ele>
        <time>2014-05-15T10:35:52Z</time>
      </trkpt>
      <trkpt lat="48.83352" lon="2.42301">
        <ele>43</ele>
        <time>2014-05-15T10:35:53Z</time>
      </trkpt>
      <trkpt lat="48.83351" lon="2.42301">
        <ele>43</ele>
        <time>2014-05-15T10:35:54Z</time>
      </trkpt>
      <trkpt lat="48.8335" lon="2.42301">
        <ele>43</ele>
        <time>2014-05-15T10:35:55Z</time>
      </trkpt>
      <trkpt lat="48.83348" lon="2.42301">
        <ele>41</ele>
        <time>2014-05-15T10:35:56Z</time>
      </trkpt>
      <trkpt lat="48.83347" lon="2.42301">
        <ele>40</ele>
        <time>2014-05-15T10:35:57Z</time>
      </trkpt>
      <trkpt lat="48.83345" lon="2.42302">
        <ele>40</ele>
        <time>2014-05-15T10:35:58Z</time>
      </trkpt>
      <trkpt lat="48.83344" lon="2.42302">
        <ele>41</ele>
        <time>2014-05-15T10:35:59Z</time>
      </trkpt>
      <trkpt lat="48.83342" lon="2.42303">
        <ele>41</ele>
        <time>2014-05-15T10:36:00Z</time>
      </trkpt>
      <trkpt lat="48.83341" lon="2.42303">
        <ele>42</ele>
        <time>2014-05-15T10:36:01Z</time>
      </trkpt>
      <trkpt lat="48.83339" lon="2.42303">
        <ele>43</ele>
        <time>2014-05-15T10:36:02Z</time>
      </trkpt>
      <trkpt lat="48.83337" lon="2.42303">
        <ele>43</ele>
        <time>2014-05-15T10:36:03Z</time>
      </trkpt>
      <trkpt lat="48.83336" lon="2.42303">
        <ele>42</ele>
        <time>2014-05-15T10:36:04Z</time>
      </trkpt>
      <trkpt lat="48.83334" lon="2.42304">
        <ele>42</ele>
        <time>2014-05-15T10:36:05Z</time>
      </trkpt>
      <trkpt lat="48.83333" lon="2.42305">
        <ele>43</ele>
        <time>2014-05-15T10:36:06Z</time>
      </trkpt>
      <trkpt lat="48.83332" lon="2.42305">
        <ele>42</ele>
        <time>2014-05-15T10:36:07Z</time>
      </trkpt>
      <trkpt lat="48.8333" lon="2.42305">
        <ele>42</ele>
        <time>2014-05-15T10:36:08Z</time>
      </trkpt>
      <trkpt lat="48.83329" lon="2.42306">
        <ele>43</ele>
        <time>2014-05-15T10:36:09Z</time>
      </trkpt>
      <trkpt lat="48.83328" lon="2.42307">
        <ele>44</ele>
        <time>2014-05-15T10:36:10Z</time>
      </trkpt>
      <trkpt lat="48.83326" lon="2.42307">
        <ele>44</ele>
        <time>2014-05-15T10:36:11Z</time>
      </trkpt>
      <trkpt lat="48.83325" lon="2.42309">
        <ele>45</ele>
        <time>2014-05-15T10:36:12Z</time>
      </trkpt>
      <trkpt lat="48.83323" lon="2.42309">
        <ele>45</ele>
        <time>2014-05-15T10:36:13Z</time>
      </trkpt>
      <trkpt lat="48.83322" lon="2.4231">
        <ele>45</ele>
        <time>2014-05-15T10:36:14Z</time>
      </trkpt>
      <trkpt lat="48.8332" lon="2.42311">
        <ele>46</ele>
        <time>2014-05-15T10:36:15Z</time>
      </trkpt>
      <trkpt lat="48.83318" lon="2.42311">
        <ele>46</ele>
        <time>2014-05-15T10:36:16Z</time>
      </trkpt>
      <trkpt lat="48.83317" lon="2.42311">
        <ele>47</ele>
        <time>2014-05-15T10:36:17Z</time>
      </trkpt>
      <trkpt lat="48.83315" lon="2.42311">
        <ele>47</ele>
        <time>2014-05-15T10:36:18Z</time>
      </trkpt>
      <trkpt lat="48.83314" lon="2.42312">
        <ele>47</ele>
        <time>2014-05-15T10:36:19Z</time>
      </trkpt>
      <trkpt lat="48.83312" lon="2.42312">
        <ele>48</ele>
        <time>2014-05-15T10:36:20Z</time>
      </trkpt>
      <trkpt lat="48.83311" lon="2.42313">
        <ele>47</ele>
        <time>2014-05-15T10:36:21Z</time>
      </trkpt>
      <trkpt lat="48.8331" lon="2.42313">
        <ele>46</ele>
        <time>2014-05-15T10:36:22Z</time>
      </trkpt>
      <trkpt lat="48.83309" lon="2.42314">
        <ele>47</ele>
        <time>2014-05-15T10:36:23Z</time>
      </trkpt>
      <trkpt lat="48.83308" lon="2.42314">
        <ele>46</ele>
        <time>2014-05-15T10:36:24Z</time>
      </trkpt>
      <trkpt lat="48.83306" lon="2.42313">
        <ele>46</ele>
        <time>2014-05-15T10:36:25Z</time>
      </trkpt>
      <trkpt lat="48.83305" lon="2.42312">
        <ele>45</ele>
        <time>2014-05-15T10:36:26Z</time>
      </trkpt>
      <trkpt lat="48.83304" lon="2.42311">
        <ele>44</ele>
        <time>2014-05-15T10:36:27Z</time>
      </trkpt>
      <trkpt lat="48.83302" lon="2.4231">
        <ele>44</ele>
        <time>2014-05-15T10:36:28Z</time>
      </trkpt>
      <trkpt lat="48.83301" lon="2.42309">
        <ele>44</ele>
        <time>2014-05-15T10:36:29Z</time>
      </trkpt>
      <trkpt lat="48.833" lon="2.42309">
        <ele>43</ele>
        <time>2014-05-15T10:36:30Z</time>
      </trkpt>
      <trkpt lat="48.83298" lon="2.42308">
        <ele>42</ele>
        <time>2014-05-15T10:36:31Z</time>
      </trkpt>
      <trkpt lat="48.83297" lon="2.42307">
        <ele>42</ele>
        <time>2014-05-15T10:36:32Z</time>
      </trkpt>
      <trkpt lat="48.83296" lon="2.42307">
        <ele>41</ele>
        <time>2014-05-15T10:36:33Z</time>
      </trkpt>
      <trkpt lat="48.83294" lon="2.42307">
        <ele>42</ele>
        <time>2014-05-15T10:36:34Z</time>
      </trkpt>
      <trkpt lat="48.83293" lon="2.42308">
        <ele>43</ele>
        <time>2014-05-15T10:36:35Z</time>
      </trkpt>
      <trkpt lat="48.83291" lon="2.42308">
        <ele>43</ele>
        <time>2014-05-15T10:36:36Z</time>
      </trkpt>
      <trkpt lat="48.8329" lon="2.42308">
        <ele>43</ele>
        <time>2014-05-15T10:36:37Z</time>
      </trkpt>
      <trkpt lat="48.83288" lon="2.42309">
        <ele>44</ele>
        <time>2014-05-15T10:36:38Z</time>
      </trkpt>
      <trkpt lat="48.83287" lon="2.42309">
        <ele>44</ele>
        <time>2014-05-15T10:36:39Z</time>
      </trkpt>
      <trkpt lat="48.83285" lon="2.42309">
        <ele>42</ele>
        <time>2014-05-15T10:36:40Z</time>
      </trkpt>
      <trkpt lat="48.83284" lon="2.42309">
        <ele>42</ele>
        <time>2014-05-15T10:36:41Z</time>
      </trkpt>
      <trkpt lat="48.83283" lon="2.42309">
        <ele>42</ele>
        <time>2014-05-15T10:36:42Z</time>
      </trkpt>
      <trkpt lat="48.83281" lon="2.42309">
        <ele>42</ele>
        <time>2014-05-15T10:36:43Z</time>
      </trkpt>
      <trkpt lat="48.8328" lon="2.42309">
        <ele>42</ele>
        <time>2014-05-15T10:36:44Z</time>
      </trkpt>
      <trkpt lat="48.83279" lon="2.4231">
        <ele>42</ele>
        <time>2014-05-15T10:36:45Z</time>
      </trkpt>
      <trkpt lat="48.83277" lon="2.4231">
        <ele>42</ele>
        <time>2014-05-15T10:36:46Z</time>
      </trkpt>
      <trkpt lat="48.83276" lon="2.4231">
        <ele>42</ele>
        <time>2014-05-15T10:36:47Z</time>
      </trkpt>
      <trkpt lat="48.83274" lon="2.4231">
        <ele>44</ele>
        <time>2014-05-15T10:36:48Z</time>
      </trkpt>
      <trkpt lat="48.83273" lon="2.42309">
        <ele>45</ele>
        <time>2014-05-15T10:36:49Z</time>
      </trkpt>
      <trkpt lat="48.83271" lon="2.42309">
        <ele>45</ele>
        <time>2014-05-15T10:36:50Z</time>
      </trkpt>
      <trkpt lat="48.8327" lon="2.4231">
        <ele>46</ele>
        <time>2014-05-15T10:36:51Z</time>
      </trkpt>
      <trkpt lat="48.83268" lon="2.4231">
        <ele>46</ele>
        <time>2014-05-15T10:36:52Z</time>
      </trkpt>
      <trkpt lat="48.83267" lon="2.42311">
        <ele>46</ele>
        <time>2014-05-15T10:36:53Z</time>
      </trkpt>
      <trkpt lat="48.83266" lon="2.42312">
        <ele>47</ele>
        <time>2014-05-15T10:36:54Z</time>
      </trkpt>
      <trkpt lat="48.83265" lon="2.42312">
        <ele>46</ele>
        <time>2014-05-15T10:36:55Z</time>
      </trkpt>
      <trkpt lat="48.83264" lon="2.42313">
        <ele>47</ele>
        <time>2014-05-15T10:36:56Z</time>
      </trkpt>
      <trkpt lat="48.83263" lon="2.42313">
        <ele>49</ele>
        <time>2014-05-15T10:36:57Z</time>
      </trkpt>
      <trkpt lat="48.83261" lon="2.42313">
        <ele>48</ele>
        <time>2014-05-15T10:36:58Z</time>
      </trkpt>
      <trkpt lat="48.8326" lon="2.42313">
        <ele>48</ele>
        <time>2014-05-15T10:36:59Z</time>
      </trkpt>
      <trkpt lat="48.83259" lon="2.42314">
        <ele>48</ele>
        <time>2014-05-15T10:37:00Z</time>
      </trkpt>
      <trkpt lat="48.83258" lon="2.42314">
        <ele>47</ele>
        <time>2014-05-15T10:37:01Z</time>
      </trkpt>
      <trkpt lat="48.83256" lon="2.42315">
        <ele>47</ele>
        <time>2014-05-15T10:37:02Z</time>
      </trkpt>
      <trkpt lat="48.83255" lon="2.42315">
        <ele>46</ele>
        <time>2014-05-15T10:37:03Z</time>
      </trkpt>
      <trkpt lat="48.83254" lon="2.42316">
        <ele>46</ele>
        <time>2014-05-15T10:37:04Z</time>
      </trkpt>
      <trkpt lat="48.83253" lon="2.42316">
        <ele>46</ele>
        <time>2014-05-15T10:37:05Z</time>
      </trkpt>
      <trkpt lat="48.83251" lon="2.42316">
        <ele>46</ele>
        <time>2014-05-15T10:37:06Z</time>
      </trkpt>
      <trkpt lat="48.8325" lon="2.42316">
        <ele>43</ele>
        <time>2014-05-15T10:37:07Z</time>
      </trkpt>
      <trkpt lat="48.83249" lon="2.42316">
        <ele>43</ele>
        <time>2014-05-15T10:37:08Z</time>
      </trkpt>
      <trkpt lat="48.83248" lon="2.42316">
        <ele>43</ele>
        <time>2014-05-15T10:37:09Z</time>
      </trkpt>
      <trkpt lat="48.83247" lon="2.42316">
        <ele>43</ele>
        <time>2014-05-15T10:37:10Z</time>
      </trkpt>
      <trkpt lat="48.83246" lon="2.42317">
        <ele>42</ele>
        <time>2014-05-15T10:37:11Z</time>
      </trkpt>
      <trkpt lat="48.83244" lon="2.42318">
        <ele>43</ele>
        <time>2014-05-15T10:37:12Z</time>
      </trkpt>
      <trkpt lat="48.83243" lon="2.42319">
        <ele>42</ele>
        <time>2014-05-15T10:37:13Z</time>
      </trkpt>
      <trkpt lat="48.83242" lon="2.42319">
        <ele>42</ele>
        <time>2014-05-15T10:37:14Z</time>
      </trkpt>
      <trkpt lat="48.83241" lon="2.4232">
        <ele>43</ele>
        <time>2014-05-15T10:37:15Z</time>
      </trkpt>
      <trkpt lat="48.8324" lon="2.42321">
        <ele>43</ele>
        <time>2014-05-15T10:37:16Z</time>
      </trkpt>
      <trkpt lat="48.83239" lon="2.42321">
        <ele>42</ele>
        <time>2014-05-15T10:37:17Z</time>
      </trkpt>
      <trkpt lat="48.83237" lon="2.42321">
        <ele>41</ele>
        <time>2014-05-15T10:37:18Z</time>
      </trkpt>
      <trkpt lat="48.83236" lon="2.42321">
        <ele>43</ele>
        <time>2014-05-15T10:37:19Z</time>
      </trkpt>
      <trkpt lat="48.83235" lon="2.42321">
        <ele>40</ele>
        <time>2014-05-15T10:37:20Z</time>
      </trkpt>
      <trkpt lat="48.83233" lon="2.4232">
        <ele>40</ele>
        <time>2014-05-15T10:37:21Z</time>
      </trkpt>
      <trkpt lat="48.83232" lon="2.42319">
        <ele>40</ele>
        <time>2014-05-15T10:37:22Z</time>
      </trkpt>
      <trkpt lat="48.83231" lon="2.42318">
        <ele>42</ele>
        <time>2014-05-15T10:37:23Z</time>
      </trkpt>
      <trkpt lat="48.83229" lon="2.42316">
        <ele>42</ele>
        <time>2014-05-15T10:37:24Z</time>
      </trkpt>
      <trkpt lat="48.83228" lon="2.42316">
        <ele>42</ele>
        <time>2014-05-15T10:37:25Z</time>
      </trkpt>
      <trkpt lat="48.83227" lon="2.42316">
        <ele>41</ele>
        <time>2014-05-15T10:37:26Z</time>
      </trkpt>
      <trkpt lat="48.83226" lon="2.42316">
        <ele>40</ele>
        <time>2014-05-15T10:37:27Z</time>
      </trkpt>
      <trkpt lat="48.83225" lon="2.42317">
        <ele>40</ele>
        <time>2014-05-15T10:37:28Z</time>
      </trkpt>
      <trkpt lat="48.83223" lon="2.42318">
        <ele>40</ele>
        <time>2014-05-15T10:37:29Z</time>
      </trkpt>
      <trkpt lat="48.83222" lon="2.42318">
        <ele>38</ele>
        <time>2014-05-15T10:37:30Z</time>
      </trkpt>
      <trkpt lat="48.83221" lon="2.42317">
        <ele>38</ele>
        <time>2014-05-15T10:37:31Z</time>
      </trkpt>
      <trkpt lat="48.83219" lon="2.42316">
        <ele>38</ele>
        <time>2014-05-15T10:37:32Z</time>
      </trkpt>
      <trkpt lat="48.83218" lon="2.42316">
        <ele>38</ele>
        <time>2014-05-15T10:37:33Z</time>
      </trkpt>
      <trkpt lat="48.83217" lon="2.42316">
        <ele>37</ele>
        <time>2014-05-15T10:37:34Z</time>
      </trkpt>
      <trkpt lat="48.83216" lon="2.42315">
        <ele>38</ele>
        <time>2014-05-15T10:37:35Z</time>
      </trkpt>
      <trkpt lat="48.83215" lon="2.42316">
        <ele>38</ele>
        <time>2014-05-15T10:37:36Z</time>
      </trkpt>
      <trkpt lat="48.83214" lon="2.42316">
        <ele>38</ele>
        <time>2014-05-15T10:37:37Z</time>
      </trkpt>
      <trkpt lat="48.83212" lon="2.42316">
        <ele>37</ele>
        <time>2014-05-15T10:37:38Z</time>
      </trkpt>
      <trkpt lat="48.83211" lon="2.42316">
        <ele>38</ele>
        <time>2014-05-15T10:37:39Z</time>
      </trkpt>
      <trkpt lat="48.8321" lon="2.42317">
        <ele>40</ele>
        <time>2014-05-15T10:37:40Z</time>
      </trkpt>
      <trkpt lat="48.83209" lon="2.42319">
        <ele>41</ele>
        <time>2014-05-15T10:37:41Z</time>
      </trkpt>
      <trkpt lat="48.83207" lon="2.4232">
        <ele>42</ele>
        <time>2014-05-15T10:37:42Z</time>
      </trkpt>
      <trkpt lat="48.83206" lon="2.42321">
        <ele>42</ele>
        <time>2014-05-15T10:37:43Z</time>
      </trkpt>
      <trkpt lat="48.83205" lon="2.42321">
        <ele>41</ele>
        <time>2014-05-15T10:37:44Z</time>
      </trkpt>
      <trkpt lat="48.83204" lon="2.42323">
        <ele>43</ele>
        <time>2014-05-15T10:37:45Z</time>
      </trkpt>
      <trkpt lat="48.83202" lon="2.42324">
        <ele>44</ele>
        <time>2014-05-15T10:37:46Z</time>
      </trkpt>
      <trkpt lat="48.83201" lon="2.42325">
        <ele>44</ele>
        <time>2014-05-15T10:37:47Z</time>
      </trkpt>
      <trkpt lat="48.83199" lon="2.42326">
        <ele>44</ele>
        <time>2014-05-15T10:37:48Z</time>
      </trkpt>
      <trkpt lat="48.83198" lon="2.42327">
        <ele>43</ele>
        <time>2014-05-15T10:37:49Z</time>
      </trkpt>
      <trkpt lat="48.83196" lon="2.42327">
        <ele>44</ele>
        <time>2014-05-15T10:37:50Z</time>
      </trkpt>
      <trkpt lat="48.83195" lon="2.42327">
        <ele>42</ele>
        <time>2014-05-15T10:37:51Z</time>
      </trkpt>
      <trkpt lat="48.83193" lon="2.42327">
        <ele>42</ele>
        <time>2014-05-15T10:37:52Z</time>
      </trkpt>
      <trkpt lat="48.83192" lon="2.42328">
        <ele>41</ele>
        <time>2014-05-15T10:37:53Z</time>
      </trkpt>
      <trkpt lat="48.8319" lon="2.42329">
        <ele>41</ele>
        <time>2014-05-15T10:37:54Z</time>
      </trkpt>
      <trkpt lat="48.83188" lon="2.4233">
        <ele>41</ele>
        <time>2014-05-15T10:37:55Z</time>
      </trkpt>
      <trkpt lat="48.83187" lon="2.42331">
        <ele>41</ele>
        <time>2014-05-15T10:37:56Z</time>
      </trkpt>
      <trkpt lat="48.83185" lon="2.42332">
        <ele>41</ele>
        <time>2014-05-15T10:37:57Z</time>
      </trkpt>
      <trkpt lat="48.83184" lon="2.42332">
        <ele>40</ele>
        <time>2014-05-15T10:37:58Z</time>
      </trkpt>
      <trkpt lat="48.83182" lon="2.42332">
        <ele>42</ele>
        <time>2014-05-15T10:37:59Z</time>
      </trkpt>
      <trkpt lat="48.83181" lon="2.42332">
        <ele>41</ele>
        <time>2014-05-15T10:38:00Z</time>
      </trkpt>
      <trkpt lat="48.83179" lon="2.42332">
        <ele>41</ele>
        <time>2014-05-15T10:38:01Z</time>
      </trkpt>
      <trkpt lat="48.83178" lon="2.42332">
        <ele>42</ele>
        <time>2014-05-15T10:38:02Z</time>
      </trkpt>
      <trkpt lat="48.83176" lon="2.42332">
        <ele>42</ele>
        <time>2014-05-15T10:38:03Z</time>
      </trkpt>
      <trkpt lat="48.83175" lon="2.42332">
        <ele>42</ele>
        <time>2014-05-15T10:38:04Z</time>
      </trkpt>
      <trkpt lat="48.83173" lon="2.42332">
        <ele>42</ele>
        <time>2014-05-15T10:38:05Z</time>
      </trkpt>
      <trkpt lat="48.83172" lon="2.42333">
        <ele>43</ele>
        <time>2014-05-15T10:38:06Z</time>
      </trkpt>
      <trkpt lat="48.8317" lon="2.42332">
        <ele>40</ele>
        <time>2014-05-15T10:38:07Z</time>
      </trkpt>
      <trkpt lat="48.83169" lon="2.42332">
        <ele>41</ele>
        <time>2014-05-15T10:38:08Z</time>
      </trkpt>
      <trkpt lat="48.83167" lon="2.42333">
        <ele>40</ele>
        <time>2014-05-15T10:38:09Z</time>
      </trkpt>
      <trkpt lat="48.83166" lon="2.42334">
        <ele>40</ele>
        <time>2014-05-15T10:38:10Z</time>
      </trkpt>
      <trkpt lat="48.83164" lon="2.42335">
        <ele>42</ele>
        <time>2014-05-15T10:38:11Z</time>
      </trkpt>
      <trkpt lat="48.83163" lon="2.42336">
        <ele>40</ele>
        <time>2014-05-15T10:38:12Z</time>
      </trkpt>
      <trkpt lat="48.83161" lon="2.42336">
        <ele>41</ele>
        <time>2014-05-15T10:38:13Z</time>
      </trkpt>
      <trkpt lat="48.83159" lon="2.42337">
        <ele>41</ele>
        <time>2014-05-15T10:38:14Z</time>
      </trkpt>
      <trkpt lat="48.83158" lon="2.42337">
        <ele>41</ele>
        <time>2014-05-15T10:38:15Z</time>
      </trkpt>
      <trkpt lat="48.83156" lon="2.42337">
        <ele>42</ele>
        <time>2014-05-15T10:38:16Z</time>
      </trkpt>
      <trkpt lat="48.83154" lon="2.42338">
        <ele>42</ele>
        <time>2014-05-15T10:38:17Z</time>
      </trkpt>
      <trkpt lat="48.83153" lon="2.42338">
        <ele>42</ele>
        <time>2014-05-15T10:38:18Z</time>
      </trkpt>
      <trkpt lat="48.83151" lon="2.42338">
        <ele>41</ele>
        <time>2014-05-15T10:38:19Z</time>
      </trkpt>
      <trkpt lat="48.8315" lon="2.42337">
        <ele>41</ele>
        <time>2014-05-15T10:38:20Z</time>
      </trkpt>
      <trkpt lat="48.83148" lon="2.42337">
        <ele>40</ele>
        <time>2014-05-15T10:38:21Z</time>
      </trkpt>
      <trkpt lat="48.83147" lon="2.42338">
        <ele>41</ele>
        <time>2014-05-15T10:38:22Z</time>
      </trkpt>
      <trkpt lat="48.83145" lon="2.42338">
        <ele>41</ele>
        <time>2014-05-15T10:38:23Z</time>
      </trkpt>
      <trkpt lat="48.83144" lon="2.42338">
        <ele>43</ele>
        <time>2014-05-15T10:38:24Z</time>
      </trkpt>
      <trkpt lat="48.83142" lon="2.42338">
        <ele>44</ele>
        <time>2014-05-15T10:38:25Z</time>
      </trkpt>
      <trkpt lat="48.8314" lon="2.42338">
        <ele>46</ele>
        <time>2014-05-15T10:38:26Z</time>
      </trkpt>
      <trkpt lat="48.83139" lon="2.4234">
        <ele>49</ele>
        <time>2014-05-15T10:38:27Z</time>
      </trkpt>
      <trkpt lat="48.83137" lon="2.42341">
        <ele>49</ele>
        <time>2014-05-15T10:38:28Z</time>
      </trkpt>
      <trkpt lat="48.83135" lon="2.42342">
        <ele>50</ele>
        <time>2014-05-15T10:38:29Z</time>
      </trkpt>
      <trkpt lat="48.83134" lon="2.42343">
        <ele>49</ele>
        <time>2014-05-15T10:38:30Z</time>
      </trkpt>
      <trkpt lat="48.83133" lon="2.42343">
        <ele>48</ele>
        <time>2014-05-15T10:38:31Z</time>
      </trkpt>
      <trkpt lat="48.83131" lon="2.42344">
        <ele>47</ele>
        <time>2014-05-15T10:38:32Z</time>
      </trkpt>
      <trkpt lat="48.8313" lon="2.42345">
        <ele>49</ele>
        <time>2014-05-15T10:38:33Z</time>
      </trkpt>
      <trkpt lat="48.83128" lon="2.42346">
        <ele>49</ele>
        <time>2014-05-15T10:38:34Z</time>
      </trkpt>
      <trkpt lat="48.83127" lon="2.42346">
        <ele>49</ele>
        <time>2014-05-15T10:38:35Z</time>
      </trkpt>
      <trkpt lat="48.83125" lon="2.42346">
        <ele>51</ele>
        <time>2014-05-15T10:38:36Z</time>
      </trkpt>
      <trkpt lat="48.83124" lon="2.42347">
        <ele>50</ele>
        <time>2014-05-15T10:38:37Z</time>
      </trkpt>
      <trkpt lat="48.83123" lon="2.42347">
        <ele>49</ele>
        <time>2014-05-15T10:38:38Z</time>
      </trkpt>
      <trkpt lat="48.83121" lon="2.42347">
        <ele>49</ele>
        <time>2014-05-15T10:38:39Z</time>
      </trkpt>
      <trkpt lat="48.8312" lon="2.42346">
        <ele>46</ele>
        <time>2014-05-15T10:38:40Z</time>
      </trkpt>
      <trkpt lat="48.83119" lon="2.42347">
        <ele>47</ele>
        <time>2014-05-15T10:38:41Z</time>
      </trkpt>
      <trkpt lat="48.83118" lon="2.42347">
        <ele>45</ele>
        <time>2014-05-15T10:38:42Z</time>
      </trkpt>
      <trkpt lat="48.83117" lon="2.42348">
        <ele>44</ele>
        <time>2014-05-15T10:38:43Z</time>
      </trkpt>
      <trkpt lat="48.83116" lon="2.42348">
        <ele>44</ele>
        <time>2014-05-15T10:38:44Z</time>
      </trkpt>
      <trkpt lat="48.83115" lon="2.42349">
        <ele>44</ele>
        <time>2014-05-15T10:38:45Z</time>
      </trkpt>
      <trkpt lat="48.83114" lon="2.42349">
        <ele>43</ele>
        <time>2014-05-15T10:38:46Z</time>
      </trkpt>
      <trkpt lat="48.83113" lon="2.4235">
        <ele>43</ele>
        <time>2014-05-15T10:38:47Z</time>
      </trkpt>
      <trkpt lat="48.83112" lon="2.4235">
        <ele>42</ele>
        <time>2014-05-15T10:38:48Z</time>
      </trkpt>
      <trkpt lat="48.83111" lon="2.4235">
        <ele>40</ele>
        <time>2014-05-15T10:38:49Z</time>
      </trkpt>
      <trkpt lat="48.8311" lon="2.4235">
        <ele>38</ele>
        <time>2014-05-15T10:38:50Z</time>
      </trkpt>
      <trkpt lat="48.83109" lon="2.4235">
        <ele>38</ele>
        <time>2014-05-15T10:38:51Z</time>
      </trkpt>
      <trkpt lat="48.83109" lon="2.4235">
        <ele>39</ele>
        <time>2014-05-15T10:38:52Z</time>
      </trkpt>
      <trkpt lat="48.83108" lon="2.4235">
        <ele>38</ele>
        <time>2014-05-15T10:38:53Z</time>
      </trkpt>
      <trkpt lat="48.83107" lon="2.42351">
        <ele>38</ele>
        <time>2014-05-15T10:38:54Z</time>
      </trkpt>
      <trkpt lat="48.83105" lon="2.42351">
        <ele>39</ele>
        <time>2014-05-15T10:38:55Z</time>
      </trkpt>
      <trkpt lat="48.83104" lon="2.4235">
        <ele>41</ele>
        <time>2014-05-15T10:38:56Z</time>
      </trkpt>
      <trkpt lat="48.83103" lon="2.42351">
        <ele>43</ele>
        <time>2014-05-15T10:38:57Z</time>
      </trkpt>
      <trkpt lat="48.83101" lon="2.42351">
        <ele>43</ele>
        <time>2014-05-15T10:38:58Z</time>
      </trkpt>
      <trkpt lat="48.831" lon="2.42351">
        <ele>42</ele>
        <time>2014-05-15T10:38:59Z</time>
      </trkpt>
      <trkpt lat="48.83098" lon="2.42351">
        <ele>42</ele>
        <time>2014-05-15T10:39:00Z</time>
      </trkpt>
      <trkpt lat="48.83096" lon="2.42351">
        <ele>42</ele>
        <time>2014-05-15T10:39:01Z</time>
      </trkpt>
      <trkpt lat="48.83095" lon="2.42352">
        <ele>43</ele>
        <time>2014-05-15T10:39:02Z</time>
      </trkpt>
      <trkpt lat="48.83094" lon="2.42353">
        <ele>42</ele>
        <time>2014-05-15T10:39:03Z</time>
      </trkpt>
      <trkpt lat="48.83092" lon="2.42354">
        <ele>41</ele>
        <time>2014-05-15T10:39:04Z</time>
      </trkpt>
      <trkpt lat="48.83091" lon="2.42355">
        <ele>41</ele>
        <time>2014-05-15T10:39:05Z</time>
      </trkpt>
      <trkpt lat="48.83089" lon="2.42355">
        <ele>43</ele>
        <time>2014-05-15T10:39:06Z</time>
      </trkpt>
      <trkpt lat="48.83088" lon="2.42355">
        <ele>42</ele>
        <time>2014-05-15T10:39:07Z</time>
      </trkpt>
      <trkpt lat="48.83086" lon="2.42354">
        <ele>41</ele>
        <time>2014-05-15T10:39:08Z</time>
      </trkpt>
      <trkpt lat="48.83085" lon="2.42354">
        <ele>42</ele>
        <time>2014-05-15T10:39:09Z</time>
      </trkpt>
      <trkpt lat="48.83083" lon="2.42353">
        <ele>42</ele>
        <time>2014-05-15T10:39:10Z</time>
      </trkpt>
      <trkpt lat="48.83082" lon="2.42352">
        <ele>40</ele>
        <time>2014-05-15T10:39:11Z</time>
      </trkpt>
      <trkpt lat="48.8308" lon="2.42353">
        <ele>41</ele>
        <time>2014-05-15T10:39:12Z</time>
      </trkpt>
      <trkpt lat="48.83079" lon="2.42354">
        <ele>41</ele>
        <time>2014-05-15T10:39:13Z</time>
      </trkpt>
      <trkpt lat="48.83077" lon="2.42355">
        <ele>39</ele>
        <time>2014-05-15T10:39:14Z</time>
      </trkpt>
      <trkpt lat="48.83076" lon="2.42355">
        <ele>40</ele>
        <time>2014-05-15T10:39:15Z</time>
      </trkpt>
      <trkpt lat="48.83074" lon="2.42356">
        <ele>40</ele>
        <time>2014-05-15T10:39:16Z</time>
      </trkpt>
      <trkpt lat="48.83073" lon="2.42356">
        <ele>40</ele>
        <time>2014-05-15T10:39:17Z</time>
      </trkpt>
      <trkpt lat="48.83071" lon="2.42357">
        <ele>40</ele>
        <time>2014-05-15T10:39:18Z</time>
      </trkpt>
      <trkpt lat="48.8307" lon="2.42358">
        <ele>39</ele>
        <time>2014-05-15T10:39:19Z</time>
      </trkpt>
      <trkpt lat="48.83068" lon="2.42358">
        <ele>39</ele>
        <time>2014-05-15T10:39:20Z</time>
      </trkpt>
      <trkpt lat="48.83067" lon="2.42357">
        <ele>41</ele>
        <time>2014-05-15T10:39:21Z</time>
      </trkpt>
      <trkpt lat="48.83065" lon="2.42357">
        <ele>41</ele>
        <time>2014-05-15T10:39:22Z</time>
      </trkpt>
      <trkpt lat="48.83064" lon="2.42358">
        <ele>38</ele>
        <time>2014-05-15T10:39:23Z</time>
      </trkpt>
      <trkpt lat="48.83063" lon="2.42358">
        <ele>39</ele>
        <time>2014-05-15T10:39:24Z</time>
      </trkpt>
      <trkpt lat="48.83061" lon="2.42359">
        <ele>41</ele>
        <time>2014-05-15T10:39:25Z</time>
      </trkpt>
      <trkpt lat="48.8306" lon="2.4236">
        <ele>42</ele>
        <time>2014-05-15T10:39:26Z</time>
      </trkpt>
      <trkpt lat="48.83058" lon="2.42362">
        <ele>42</ele>
        <time>2014-05-15T10:39:27Z</time>
      </trkpt>
      <trkpt lat="48.83057" lon="2.42364">
        <ele>43</ele>
        <time>2014-05-15T10:39:28Z</time>
      </trkpt>
      <trkpt lat="48.83055" lon="2.42365">
        <ele>42</ele>
        <time>2014-05-15T10:39:29Z</time>
      </trkpt>
      <trkpt lat="48.83054" lon="2.42366">
        <ele>43</ele>
        <time>2014-05-15T10:39:30Z</time>
      </trkpt>
      <trkpt lat="48.83052" lon="2.42367">
        <ele>45</ele>
        <time>2014-05-15T10:39:31Z</time>
      </trkpt>
      <trkpt lat="48.8305" lon="2.42367">
        <ele>45</ele>
        <time>2014-05-15T10:39:32Z</time>
      </trkpt>
      <trkpt lat="48.83048" lon="2.42368">
        <ele>47</ele>
        <time>2014-05-15T10:39:33Z</time>
      </trkpt>
      <trkpt lat="48.83046" lon="2.42369">
        <ele>48</ele>
        <time>2014-05-15T10:39:34Z</time>
      </trkpt>
      <trkpt lat="48.83044" lon="2.4237">
        <ele>47</ele>
        <time>2014-05-15T10:39:35Z</time>
      </trkpt>
      <trkpt lat="48.83042" lon="2.4237">
        <ele>47</ele>
        <time>2014-05-15T10:39:36Z</time>
      </trkpt>
      <trkpt lat="48.83041" lon="2.4237">
        <ele>45</ele>
        <time>2014-05-15T10:39:37Z</time>
      </trkpt>
      <trkpt lat="48.83039" lon="2.4237">
        <ele>45</ele>
        <time>2014-05-15T10:39:38Z</time>
      </trkpt>
      <trkpt lat="48.83038" lon="2.42371">
        <ele>45</ele>
        <time>2014-05-15T10:39:39Z</time>
      </trkpt>
      <trkpt lat="48.83037" lon="2.42372">
        <ele>46</ele>
        <time>2014-05-15T10:39:40Z</time>
      </trkpt>
      <trkpt lat="48.83035" lon="2.42372">
        <ele>47</ele>
        <time>2014-05-15T10:39:41Z</time>
      </trkpt>
      <trkpt lat="48.83034" lon="2.42372">
        <ele>46</ele>
        <time>2014-05-15T10:39:42Z</time>
      </trkpt>
      <trkpt lat="48.83033" lon="2.4237">
        <ele>44</ele>
        <time>2014-05-15T10:39:43Z</time>
      </trkpt>
      <trkpt lat="48.83032" lon="2.42369">
        <ele>43</ele>
        <time>2014-05-15T10:39:44Z</time>
      </trkpt>
      <trkpt lat="48.83031" lon="2.42368">
        <ele>43</ele>
        <time>2014-05-15T10:39:45Z</time>
      </trkpt>
      <trkpt lat="48.8303" lon="2.42368">
        <ele>43</ele>
        <time>2014-05-15T10:39:46Z</time>
      </trkpt>
      <trkpt lat="48.83029" lon="2.42368">
        <ele>43</ele>
        <time>2014-05-15T10:39:47Z</time>
      </trkpt>
      <trkpt lat="48.83027" lon="2.42367">
        <ele>49</ele>
        <time>2014-05-15T10:39:48Z</time>
      </trkpt>
      <trkpt lat="48.83026" lon="2.42366">
        <ele>48</ele>
        <time>2014-05-15T10:39:49Z</time>
      </trkpt>
      <trkpt lat="48.83025" lon="2.42365">
        <ele>47</ele>
        <time>2014-05-15T10:39:50Z</time>
      </trkpt>
      <trkpt lat="48.83024" lon="2.42365">
        <ele>47</ele>
        <time>2014-05-15T10:39:51Z</time>
      </trkpt>
      <trkpt lat="48.83022" lon="2.42366">
        <ele>47</ele>
        <time>2014-05-15T10:39:52Z</time>
      </trkpt>
      <trkpt lat="48.83022" lon="2.42365">
        <ele>47</ele>
        <time>2014-05-15T10:39:53Z</time>
      </trkpt>
      <trkpt lat="48.83022" lon="2.42365">
        <ele>48</ele>
        <time>2014-05-15T10:39:54Z</time>
      </trkpt>
      <trkpt lat="48.83022" lon="2.42364">
        <ele>47</ele>
        <time>2014-05-15T10:39:55Z</time>
      </trkpt>
      <trkpt lat="48.83023" lon="2.42364">
        <ele>47</ele>
        <time>2014-05-15T10:39:56Z</time>
      </trkpt>
      <trkpt lat="48.83023" lon="2.42363">
        <ele>47</ele>
        <time>2014-05-15T10:39:57Z</time>
      </trkpt>
      <trkpt lat="48.83023" lon="2.42363">
        <ele>48</ele>
        <time>2014-05-15T10:39:58Z</time>
      </trkpt>
      <trkpt lat="48.83023" lon="2.42363">
        <ele>48</ele>
        <time>2014-05-15T10:39:59Z</time>
      </trkpt>
      <trkpt lat="48.83023" lon="2.42363">
        <ele>48</ele>
        <time>2014-05-15T10:40:00Z</time>
      </trkpt>
      <trkpt lat="48.83023" lon="2.42363">
        <ele>47</ele>
        <time>2014-05-15T10:40:01Z</time>
      </trkpt>
      <trkpt lat="48.83023" lon="2.42363">
        <ele>47</ele>
        <time>2014-05-15T10:40:02Z</time>
      </trkpt>
      <trkpt lat="48.83023" lon="2.42362">
        <ele>47</ele>
        <time>2014-05-15T10:40:03Z</time>
      </trkpt>
      <trkpt lat="48.83023" lon="2.42362">
        <ele>48</ele>
        <time>2014-05-15T10:40:04Z</time>
      </trkpt>
      <trkpt lat="48.83024" lon="2.42362">
        <ele>48</ele>
        <time>2014-05-15T10:40:05Z</time>
      </trkpt>
      <trkpt lat="48.83024" lon="2.42362">
        <ele>48</ele>
        <time>2014-05-15T10:40:06Z</time>
      </trkpt>
      <trkpt lat="48.83024" lon="2.42362">
        <ele>48</ele>
        <time>2014-05-15T10:40:07Z</time>
      </trkpt>
      <trkpt lat="48.83024" lon="2.42361">
        <ele>48</ele>
        <time>2014-05-15T10:40:08Z</time>
      </trkpt>
      <trkpt lat="48.83024" lon="2.42361">
        <ele>48</ele>
        <time>2014-05-15T10:40:09Z</time>
      </trkpt>
      <trkpt lat="48.83024" lon="2.42361">
        <ele>48</ele>
        <time>2014-05-15T10:40:10Z</time>
      </trkpt>
      <trkpt lat="48.83025" lon="2.4236">
        <ele>48</ele>
        <time>2014-05-15T10:40:11Z</time>
      </trkpt>
      <trkpt lat="48.83026" lon="2.42359">
        <ele>50</ele>
        <time>2014-05-15T10:40:12Z</time>
      </trkpt>
      <trkpt lat="48.83027" lon="2.42358">
        <ele>50</ele>
        <time>2014-05-15T10:40:13Z</time>
      </trkpt>
      <trkpt lat="48.83028" lon="2.42356">
        <ele>52</ele>
        <time>2014-05-15T10:40:14Z</time>
      </trkpt>
      <trkpt lat="48.83029" lon="2.42354">
        <ele>49</ele>
        <time>2014-05-15T10:40:15Z</time>
      </trkpt>
      <trkpt lat="48.83029" lon="2.42351">
        <ele>48</ele>
        <time>2014-05-15T10:40:16Z</time>
      </trkpt>
      <trkpt lat="48.8303" lon="2.42349">
        <ele>49</ele>
        <time>2014-05-15T10:40:17Z</time>
      </trkpt>
      <trkpt lat="48.8303" lon="2.42346">
        <ele>49</ele>
        <time>2014-05-15T10:40:18Z</time>
      </trkpt>
      <trkpt lat="48.83031" lon="2.42344">
        <ele>50</ele>
        <time>2014-05-15T10:40:19Z</time>
      </trkpt>
      <trkpt lat="48.83032" lon="2.42342">
        <ele>49</ele>
        <time>2014-05-15T10:40:20Z</time>
      </trkpt>
      <trkpt lat="48.83032" lon="2.42339">
        <ele>50</ele>
        <time>2014-05-15T10:40:21Z</time>
      </trkpt>
      <trkpt lat="48.83032" lon="2.42337">
        <ele>51</ele>
        <time>2014-05-15T10:40:22Z</time>
      </trkpt>
      <trkpt lat="48.83032" lon="2.42335">
        <ele>49</ele>
        <time>2014-05-15T10:40:23Z</time>
      </trkpt>
      <trkpt lat="48.83032" lon="2.42333">
        <ele>49</ele>
        <time>2014-05-15T10:40:24Z</time>
      </trkpt>
      <trkpt lat="48.83032" lon="2.42331">
        <ele>50</ele>
        <time>2014-05-15T10:40:25Z</time>
      </trkpt>
      <trkpt lat="48.83032" lon="2.42328">
        <ele>50</ele>
        <time>2014-05-15T10:40:26Z</time>
      </trkpt>
      <trkpt lat="48.83032" lon="2.42327">
        <ele>50</ele>
        <time>2014-05-15T10:40:27Z</time>
      </trkpt>
      <trkpt lat="48.83033" lon="2.42325">
        <ele>50</ele>
        <time>2014-05-15T10:40:28Z</time>
      </trkpt>
      <trkpt lat="48.83034" lon="2.42324">
        <ele>50</ele>
        <time>2014-05-15T10:40:29Z</time>
      </trkpt>
      <trkpt lat="48.83035" lon="2.42324">
        <ele>51</ele>
        <time>2014-05-15T10:40:30Z</time>
      </trkpt>
      <trkpt lat="48.83035" lon="2.42323">
        <ele>52</ele>
        <time>2014-05-15T10:40:31Z</time>
      </trkpt>
      <trkpt lat="48.83036" lon="2.42321">
        <ele>52</ele>
        <time>2014-05-15T10:40:32Z</time>
      </trkpt>
      <trkpt lat="48.83035" lon="2.42319">
        <ele>51</ele>
        <time>2014-05-15T10:40:33Z</time>
      </trkpt>
      <trkpt lat="48.83035" lon="2.42318">
        <ele>51</ele>
        <time>2014-05-15T10:40:34Z</time>
      </trkpt>
      <trkpt lat="48.83035" lon="2.42316">
        <ele>50</ele>
        <time>2014-05-15T10:40:35Z</time>
      </trkpt>
      <trkpt lat="48.83035" lon="2.42314">
        <ele>50</ele>
        <time>2014-05-15T10:40:36Z</time>
      </trkpt>
      <trkpt lat="48.83034" lon="2.42312">
        <ele>51</ele>
        <time>2014-05-15T10:40:37Z</time>
      </trkpt>
      <trkpt lat="48.83034" lon="2.42311">
        <ele>51</ele>
        <time>2014-05-15T10:40:38Z</time>
      </trkpt>
      <trkpt lat="48.83033" lon="2.42308">
        <ele>52</ele>
        <time>2014-05-15T10:40:39Z</time>
      </trkpt>
      <trkpt lat="48.83033" lon="2.42306">
        <ele>52</ele>
        <time>2014-05-15T10:40:40Z</time>
      </trkpt>
      <trkpt lat="48.83032" lon="2.42304">
        <ele>51</ele>
        <time>2014-05-15T10:40:41Z</time>
      </trkpt>
      <trkpt lat="48.83032" lon="2.42303">
        <ele>52</ele>
        <time>2014-05-15T10:40:42Z</time>
      </trkpt>
      <trkpt lat="48.83032" lon="2.42301">
        <ele>52</ele>
        <time>2014-05-15T10:40:43Z</time>
      </trkpt>
      <trkpt lat="48.83032" lon="2.423">
        <ele>51</ele>
        <time>2014-05-15T10:40:44Z</time>
      </trkpt>
      <trkpt lat="48.83033" lon="2.42298">
        <ele>51</ele>
        <time>2014-05-15T10:40:45Z</time>
      </trkpt>
      <trkpt lat="48.83033" lon="2.42297">
        <ele>51</ele>
        <time>2014-05-15T10:40:46Z</time>
      </trkpt>
      <trkpt lat="48.83033" lon="2.42297">
        <ele>51</ele>
        <time>2014-05-15T10:40:47Z</time>
      </trkpt>
      <trkpt lat="48.83033" lon="2.42297">
        <ele>51</ele>
        <time>2014-05-15T10:40:48Z</time>
      </trkpt>
      <trkpt lat="48.83033" lon="2.42295">
        <ele>52</ele>
        <time>2014-05-15T10:40:49Z</time>
      </trkpt>
      <trkpt lat="48.83033" lon="2.42294">
        <ele>51</ele>
        <time>2014-05-15T10:40:50Z</time>
      </trkpt>
      <trkpt lat="48.83032" lon="2.42293">
        <ele>50</ele>
        <time>2014-05-15T10:40:51Z</time>
      </trkpt>
      <trkpt lat="48.83031" lon="2.42291">
        <ele>50</ele>
        <time>2014-05-15T10:40:52Z</time>
      </trkpt>
      <trkpt lat="48.83031" lon="2.42288">
        <ele>48</ele>
        <time>2014-05-15T10:40:53Z</time>
      </trkpt>
      <trkpt lat="48.8303" lon="2.42287">
        <ele>49</ele>
        <time>2014-05-15T10:40:54Z</time>
      </trkpt>
      <trkpt lat="48.83031" lon="2.42285">
        <ele>49</ele>
        <time>2014-05-15T10:40:55Z</time>
      </trkpt>
      <trkpt lat="48.8303" lon="2.42283">
        <ele>49</ele>
        <time>2014-05-15T10:40:56Z</time>
      </trkpt>
      <trkpt lat="48.83031" lon="2.42281">
        <ele>47</ele>
        <time>2014-05-15T10:40:57Z</time>
      </trkpt>
      <trkpt lat="48.8303" lon="2.4228">
        <ele>50</ele>
        <time>2014-05-15T10:40:58Z</time>
      </trkpt>
      <trkpt lat="48.8303" lon="2.42278">
        <ele>51</ele>
        <time>2014-05-15T10:40:59Z</time>
      </trkpt>
      <trkpt lat="48.83029" lon="2.42276">
        <ele>51</ele>
        <time>2014-05-15T10:41:00Z</time>
      </trkpt>
      <trkpt lat="48.83028" lon="2.42274">
        <ele>52</ele>
        <time>2014-05-15T10:41:01Z</time>
      </trkpt>
      <trkpt lat="48.83028" lon="2.42272">
        <ele>51</ele>
        <time>2014-05-15T10:41:02Z</time>
      </trkpt>
      <trkpt lat="48.83027" lon="2.4227">
        <ele>51</ele>
        <time>2014-05-15T10:41:03Z</time>
      </trkpt>
      <trkpt lat="48.83027" lon="2.42268">
        <ele>50</ele>
        <time>2014-05-15T10:41:04Z</time>
      </trkpt>
      <trkpt lat="48.83027" lon="2.42267">
        <ele>49</ele>
        <time>2014-05-15T10:41:05Z</time>
      </trkpt>
      <trkpt lat="48.83027" lon="2.42267">
        <ele>49</ele>
        <time>2014-05-15T10:41:06Z</time>
      </trkpt>
      <trkpt lat="48.83026" lon="2.42266">
        <ele>50</ele>
        <time>2014-05-15T10:41:07Z</time>
      </trkpt>
      <trkpt lat="48.83026" lon="2.42265">
        <ele>50</ele>
        <time>2014-05-15T10:41:08Z</time>
      </trkpt>
      <trkpt lat="48.83027" lon="2.42264">
        <ele>50</ele>
        <time>2014-05-15T10:41:09Z</time>
      </trkpt>
      <trkpt lat="48.83026" lon="2.42262">
        <ele>49</ele>
        <time>2014-05-15T10:41:10Z</time>
      </trkpt>
      <trkpt lat="48.83026" lon="2.4226">
        <ele>50</ele>
        <time>2014-05-15T10:41:11Z</time>
      </trkpt>
      <trkpt lat="48.83026" lon="2.42258">
        <ele>50</ele>
        <time>2014-05-15T10:41:12Z</time>
      </trkpt>
      <trkpt lat="48.83026" lon="2.42255">
        <ele>50</ele>
        <time>2014-05-15T10:41:13Z</time>
      </trkpt>
      <trkpt lat="48.83026" lon="2.42253">
        <ele>51</ele>
        <time>2014-05-15T10:41:14Z</time>
      </trkpt>
      <trkpt lat="48.83025" lon="2.42251">
        <ele>51</ele>
        <time>2014-05-15T10:41:15Z</time>
      </trkpt>
      <trkpt lat="48.83025" lon="2.42248">
        <ele>50</ele>
        <time>2014-05-15T10:41:16Z</time>
      </trkpt>
      <trkpt lat="48.83025" lon="2.42246">
        <ele>51</ele>
        <time>2014-05-15T10:41:17Z</time>
      </trkpt>
      <trkpt lat="48.83025" lon="2.42244">
        <ele>49</ele>
        <time>2014-05-15T10:41:18Z</time>
      </trkpt>
      <trkpt lat="48.83025" lon="2.42242">
        <ele>50</ele>
        <time>2014-05-15T10:41:19Z</time>
      </trkpt>
      <trkpt lat="48.83025" lon="2.4224">
        <ele>49</ele>
        <time>2014-05-15T10:41:20Z</time>
      </trkpt>
      <trkpt lat="48.83024" lon="2.42238">
        <ele>50</ele>
        <time>2014-05-15T10:41:21Z</time>
      </trkpt>
      <trkpt lat="48.83024" lon="2.42236">
        <ele>50</ele>
        <time>2014-05-15T10:41:22Z</time>
      </trkpt>
      <trkpt lat="48.83024" lon="2.42234">
        <ele>49</ele>
        <time>2014-05-15T10:41:23Z</time>
      </trkpt>
      <trkpt lat="48.83024" lon="2.42231">
        <ele>49</ele>
        <time>2014-05-15T10:41:24Z</time>
      </trkpt>
      <trkpt lat="48.83024" lon="2.42229">
        <ele>49</ele>
        <time>2014-05-15T10:41:25Z</time>
      </trkpt>
      <trkpt lat="48.83024" lon="2.42227">
        <ele>50</ele>
        <time>2014-05-15T10:41:26Z</time>
      </trkpt>
      <trkpt lat="48.83024" lon="2.42224">
        <ele>50</ele>
        <time>2014-05-15T10:41:27Z</time>
      </trkpt>
      <trkpt lat="48.83023" lon="2.42222">
        <ele>49</ele>
        <time>2014-05-15T10:41:28Z</time>
      </trkpt>
      <trkpt lat="48.83023" lon="2.42219">
        <ele>51</ele>
        <time>2014-05-15T10:41:29Z</time>
      </trkpt>
      <trkpt lat="48.83023" lon="2.42217">
        <ele>50</ele>
        <time>2014-05-15T10:41:30Z</time>
      </trkpt>
      <trkpt lat="48.83023" lon="2.42215">
        <ele>51</ele>
        <time>2014-05-15T10:41:31Z</time>
      </trkpt>
      <trkpt lat="48.83022" lon="2.42212">
        <ele>51</ele>
        <time>2014-05-15T10:41:32Z</time>
      </trkpt>
      <trkpt lat="48.83021" lon="2.4221">
        <ele>50</ele>
        <time>2014-05-15T10:41:33Z</time>
      </trkpt>
      <trkpt lat="48.83021" lon="2.42207">
        <ele>52</ele>
        <time>2014-05-15T10:41:34Z</time>
      </trkpt>
      <trkpt lat="48.8302" lon="2.42205">
        <ele>51</ele>
        <time>2014-05-15T10:41:35Z</time>
      </trkpt>
      <trkpt lat="48.8302" lon="2.42203">
        <ele>52</ele>
        <time>2014-05-15T10:41:36Z</time>
      </trkpt>
      <trkpt lat="48.8302" lon="2.42202">
        <ele>51</ele>
        <time>2014-05-15T10:41:37Z</time>
      </trkpt>
      <trkpt lat="48.8302" lon="2.422">
        <ele>52</ele>
        <time>2014-05-15T10:41:38Z</time>
      </trkpt>
      <trkpt lat="48.8302" lon="2.42198">
        <ele>51</ele>
        <time>2014-05-15T10:41:39Z</time>
      </trkpt>
      <trkpt lat="48.83021" lon="2.42197">
        <ele>51</ele>
        <time>2014-05-15T10:41:40Z</time>
      </trkpt>
      <trkpt lat="48.83022" lon="2.42196">
        <ele>50</ele>
        <time>2014-05-15T10:41:41Z</time>
      </trkpt>
      <trkpt lat="48.83023" lon="2.42195">
        <ele>50</ele>
        <time>2014-05-15T10:41:42Z</time>
      </trkpt>
      <trkpt lat="48.83024" lon="2.42194">
        <ele>50</ele>
        <time>2014-05-15T10:41:43Z</time>
      </trkpt>
      <trkpt lat="48.83024" lon="2.42193">
        <ele>50</ele>
        <time>2014-05-15T10:41:44Z</time>
      </trkpt>
      <trkpt lat="48.83024" lon="2.42192">
        <ele>51</ele>
        <time>2014-05-15T10:41:45Z</time>
      </trkpt>
      <trkpt lat="48.83024" lon="2.42191">
        <ele>51</ele>
        <time>2014-05-15T10:41:46Z</time>
      </trkpt>
      <trkpt lat="48.83024" lon="2.42189">
        <ele>52</ele>
        <time>2014-05-15T10:41:47Z</time>
      </trkpt>
      <trkpt lat="48.83024" lon="2.42188">
        <ele>51</ele>
        <time>2014-05-15T10:41:48Z</time>
      </trkpt>
      <trkpt lat="48.83025" lon="2.42187">
        <ele>51</ele>
        <time>2014-05-15T10:41:49Z</time>
      </trkpt>
      <trkpt lat="48.83025" lon="2.42185">
        <ele>53</ele>
        <time>2014-05-15T10:41:50Z</time>
      </trkpt>
      <trkpt lat="48.83025" lon="2.42183">
        <ele>52</ele>
        <time>2014-05-15T10:41:51Z</time>
      </trkpt>
      <trkpt lat="48.83024" lon="2.42181">
        <ele>52</ele>
        <time>2014-05-15T10:41:52Z</time>
      </trkpt>
      <trkpt lat="48.83023" lon="2.42179">
        <ele>51</ele>
        <time>2014-05-15T10:41:53Z</time>
      </trkpt>
      <trkpt lat="48.83023" lon="2.42177">
        <ele>50</ele>
        <time>2014-05-15T10:41:54Z</time>
      </trkpt>
      <trkpt lat="48.83022" lon="2.42176">
        <ele>49</ele>
        <time>2014-05-15T10:41:55Z</time>
      </trkpt>
      <trkpt lat="48.83023" lon="2.42174">
        <ele>49</ele>
        <time>2014-05-15T10:41:56Z</time>
      </trkpt>
      <trkpt lat="48.83023" lon="2.42173">
        <ele>49</ele>
        <time>2014-05-15T10:41:57Z</time>
      </trkpt>
      <trkpt lat="48.83022" lon="2.42172">
        <ele>49</ele>
        <time>2014-05-15T10:41:58Z</time>
      </trkpt>
      <trkpt lat="48.83022" lon="2.42171">
        <ele>49</ele>
        <time>2014-05-15T10:41:59Z</time>
      </trkpt>
      <trkpt lat="48.83021" lon="2.4217">
        <ele>49</ele>
        <time>2014-05-15T10:42:00Z</time>
      </trkpt>
      <trkpt lat="48.83019" lon="2.42169">
        <ele>50</ele>
        <time>2014-05-15T10:42:01Z</time>
      </trkpt>
      <trkpt lat="48.83018" lon="2.42168">
        <ele>52</ele>
        <time>2014-05-15T10:42:02Z</time>
      </trkpt>
      <trkpt lat="48.83017" lon="2.42167">
        <ele>51</ele>
        <time>2014-05-15T10:42:03Z</time>
      </trkpt>
      <trkpt lat="48.83016" lon="2.42167">
        <ele>50</ele>
        <time>2014-05-15T10:42:04Z</time>
      </trkpt>
      <trkpt lat="48.83015" lon="2.42166">
        <ele>49</ele>
        <time>2014-05-15T10:42:05Z</time>
      </trkpt>
      <trkpt lat="48.83014" lon="2.42165">
        <ele>50</ele>
        <time>2014-05-15T10:42:06Z</time>
      </trkpt>
      <trkpt lat="48.83012" lon="2.42164">
        <ele>50</ele>
        <time>2014-05-15T10:42:07Z</time>
      </trkpt>
      <trkpt lat="48.83011" lon="2.42164">
        <ele>49</ele>
        <time>2014-05-15T10:42:08Z</time>
      </trkpt>
      <trkpt lat="48.8301" lon="2.42163">
        <ele>48</ele>
        <time>2014-05-15T10:42:09Z</time>
      </trkpt>
      <trkpt lat="48.83008" lon="2.42163">
        <ele>48</ele>
        <time>2014-05-15T10:42:10Z</time>
      </trkpt>
      <trkpt lat="48.83007" lon="2.42162">
        <ele>48</ele>
        <time>2014-05-15T10:42:11Z</time>
      </trkpt>
      <trkpt lat="48.83006" lon="2.42161">
        <ele>48</ele>
        <time>2014-05-15T10:42:12Z</time>
      </trkpt>
      <trkpt lat="48.83005" lon="2.4216">
        <ele>46</ele>
        <time>2014-05-15T10:42:13Z</time>
      </trkpt>
      <trkpt lat="48.83003" lon="2.42159">
        <ele>47</ele>
        <time>2014-05-15T10:42:14Z</time>
      </trkpt>
      <trkpt lat="48.83002" lon="2.42159">
        <ele>48</ele>
        <time>2014-05-15T10:42:15Z</time>
      </trkpt>
      <trkpt lat="48.83001" lon="2.42159">
        <ele>47</ele>
        <time>2014-05-15T10:42:16Z</time>
      </trkpt>
      <trkpt lat="48.82999" lon="2.42159">
        <ele>47</ele>
        <time>2014-05-15T10:42:17Z</time>
      </trkpt>
      <trkpt lat="48.82998" lon="2.42159">
        <ele>45</ele>
        <time>2014-05-15T10:42:18Z</time>
      </trkpt>
      <trkpt lat="48.82997" lon="2.42159">
        <ele>46</ele>
        <time>2014-05-15T10:42:19Z</time>
      </trkpt>
      <trkpt lat="48.82996" lon="2.42159">
        <ele>47</ele>
        <time>2014-05-15T10:42:20Z</time>
      </trkpt>
      <trkpt lat="48.82995" lon="2.42159">
        <ele>46</ele>
        <time>2014-05-15T10:42:21Z</time>
      </trkpt>
      <trkpt lat="48.82993" lon="2.42158">
        <ele>47</ele>
        <time>2014-05-15T10:42:22Z</time>
      </trkpt>
      <trkpt lat="48.82992" lon="2.42158">
        <ele>47</ele>
        <time>2014-05-15T10:42:23Z</time>
      </trkpt>
      <trkpt lat="48.8299" lon="2.42158">
        <ele>47</ele>
        <time>2014-05-15T10:42:24Z</time>
      </trkpt>
      <trkpt lat="48.82989" lon="2.42158">
        <ele>44</ele>
        <time>2014-05-15T10:42:25Z</time>
      </trkpt>
      <trkpt lat="48.82988" lon="2.42157">
        <ele>45</ele>
        <time>2014-05-15T10:42:26Z</time>
      </trkpt>
      <trkpt lat="48.82987" lon="2.42156">
        <ele>44</ele>
        <time>2014-05-15T10:42:27Z</time>
      </trkpt>
      <trkpt lat="48.82986" lon="2.42155">
        <ele>44</ele>
        <time>2014-05-15T10:42:28Z</time>
      </trkpt>
      <trkpt lat="48.82984" lon="2.42155">
        <ele>46</ele>
        <time>2014-05-15T10:42:29Z</time>
      </trkpt>
      <trkpt lat="48.82982" lon="2.42156">
        <ele>47</ele>
        <time>2014-05-15T10:42:30Z</time>
      </trkpt>
      <trkpt lat="48.82981" lon="2.42157">
        <ele>47</ele>
        <time>2014-05-15T10:42:31Z</time>
      </trkpt>
      <trkpt lat="48.82979" lon="2.42159">
        <ele>47</ele>
        <time>2014-05-15T10:42:32Z</time>
      </trkpt>
      <trkpt lat="48.82978" lon="2.42159">
        <ele>46</ele>
        <time>2014-05-15T10:42:33Z</time>
      </trkpt>
      <trkpt lat="48.82977" lon="2.42159">
        <ele>46</ele>
        <time>2014-05-15T10:42:34Z</time>
      </trkpt>
      <trkpt lat="48.82975" lon="2.42159">
        <ele>45</ele>
        <time>2014-05-15T10:42:35Z</time>
      </trkpt>
      <trkpt lat="48.82974" lon="2.42159">
        <ele>45</ele>
        <time>2014-05-15T10:42:36Z</time>
      </trkpt>
      <trkpt lat="48.82972" lon="2.42159">
        <ele>46</ele>
        <time>2014-05-15T10:42:37Z</time>
      </trkpt>
      <trkpt lat="48.82971" lon="2.42159">
        <ele>46</ele>
        <time>2014-05-15T10:42:38Z</time>
      </trkpt>
      <trkpt lat="48.82969" lon="2.42158">
        <ele>46</ele>
        <time>2014-05-15T10:42:39Z</time>
      </trkpt>
      <trkpt lat="48.82968" lon="2.42158">
        <ele>48</ele>
        <time>2014-05-15T10:42:40Z</time>
      </trkpt>
      <trkpt lat="48.82966" lon="2.42159">
        <ele>49</ele>
        <time>2014-05-15T10:42:41Z</time>
      </trkpt>
      <trkpt lat="48.82965" lon="2.42159">
        <ele>48</ele>
        <time>2014-05-15T10:42:42Z</time>
      </trkpt>
      <trkpt lat="48.82963" lon="2.4216">
        <ele>49</ele>
        <time>2014-05-15T10:42:43Z</time>
      </trkpt>
      <trkpt lat="48.82962" lon="2.42161">
        <ele>49</ele>
        <time>2014-05-15T10:42:44Z</time>
      </trkpt>
      <trkpt lat="48.8296" lon="2.42162">
        <ele>49</ele>
        <time>2014-05-15T10:42:45Z</time>
      </trkpt>
      <trkpt lat="48.82959" lon="2.42163">
        <ele>50</ele>
        <time>2014-05-15T10:42:46Z</time>
      </trkpt>
      <trkpt lat="48.82958" lon="2.42164">
        <ele>50</ele>
        <time>2014-05-15T10:42:47Z</time>
      </trkpt>
      <trkpt lat="48.82957" lon="2.42165">
        <ele>49</ele>
        <time>2014-05-15T10:42:48Z</time>
      </trkpt>
      <trkpt lat="48.82955" lon="2.42166">
        <ele>49</ele>
        <time>2014-05-15T10:42:49Z</time>
      </trkpt>
      <trkpt lat="48.82954" lon="2.42165">
        <ele>49</ele>
        <time>2014-05-15T10:42:50Z</time>
      </trkpt>
      <trkpt lat="48.82953" lon="2.42164">
        <ele>50</ele>
        <time>2014-05-15T10:42:51Z</time>
      </trkpt>
      <trkpt lat="48.82952" lon="2.42164">
        <ele>50</ele>
        <time>2014-05-15T10:42:52Z</time>
      </trkpt>
      <trkpt lat="48.82951" lon="2.42163">
        <ele>49</ele>
        <time>2014-05-15T10:42:53Z</time>
      </trkpt>
      <trkpt lat="48.8295" lon="2.42162">
        <ele>50</ele>
        <time>2014-05-15T10:42:54Z</time>
      </trkpt>
      <trkpt lat="48.82949" lon="2.42162">
        <ele>50</ele>
        <time>2014-05-15T10:42:55Z</time>
      </trkpt>
      <trkpt lat="48.82948" lon="2.42161">
        <ele>51</ele>
        <time>2014-05-15T10:42:56Z</time>
      </trkpt>
      <trkpt lat="48.82947" lon="2.42161">
        <ele>51</ele>
        <time>2014-05-15T10:42:57Z</time>
      </trkpt>
      <trkpt lat="48.82946" lon="2.4216">
        <ele>50</ele>
        <time>2014-05-15T10:42:58Z</time>
      </trkpt>
      <trkpt lat="48.82944" lon="2.42159">
        <ele>51</ele>
        <time>2014-05-15T10:42:59Z</time>
      </trkpt>
      <trkpt lat="48.82943" lon="2.42159">
        <ele>52</ele>
        <time>2014-05-15T10:43:00Z</time>
      </trkpt>
      <trkpt lat="48.82941" lon="2.42159">
        <ele>53</ele>
        <time>2014-05-15T10:43:01Z</time>
      </trkpt>
      <trkpt lat="48.8294" lon="2.4216">
        <ele>56</ele>
        <time>2014-05-15T10:43:02Z</time>
      </trkpt>
      <trkpt lat="48.82938" lon="2.4216">
        <ele>56</ele>
        <time>2014-05-15T10:43:03Z</time>
      </trkpt>
      <trkpt lat="48.82936" lon="2.4216">
        <ele>55</ele>
        <time>2014-05-15T10:43:04Z</time>
      </trkpt>
      <trkpt lat="48.82935" lon="2.4216">
        <ele>56</ele>
        <time>2014-05-15T10:43:05Z</time>
      </trkpt>
      <trkpt lat="48.82933" lon="2.4216">
        <ele>55</ele>
        <time>2014-05-15T10:43:06Z</time>
      </trkpt>
      <trkpt lat="48.82931" lon="2.4216">
        <ele>54</ele>
        <time>2014-05-15T10:43:07Z</time>
      </trkpt>
      <trkpt lat="48.8293" lon="2.42161">
        <ele>55</ele>
        <time>2014-05-15T10:43:08Z</time>
      </trkpt>
      <trkpt lat="48.82928" lon="2.42162">
        <ele>56</ele>
        <time>2014-05-15T10:43:09Z</time>
      </trkpt>
      <trkpt lat="48.82927" lon="2.42163">
        <ele>55</ele>
        <time>2014-05-15T10:43:10Z</time>
      </trkpt>
      <trkpt lat="48.82926" lon="2.42163">
        <ele>55</ele>
        <time>2014-05-15T10:43:11Z</time>
      </trkpt>
      <trkpt lat="48.82924" lon="2.42163">
        <ele>55</ele>
        <time>2014-05-15T10:43:12Z</time>
      </trkpt>
      <trkpt lat="48.82923" lon="2.42164">
        <ele>55</ele>
        <time>2014-05-15T10:43:13Z</time>
      </trkpt>
      <trkpt lat="48.82922" lon="2.42165">
        <ele>55</ele>
        <time>2014-05-15T10:43:14Z</time>
      </trkpt>
      <trkpt lat="48.82921" lon="2.42166">
        <ele>56</ele>
        <time>2014-05-15T10:43:15Z</time>
      </trkpt>
      <trkpt lat="48.8292" lon="2.42167">
        <ele>57</ele>
        <time>2014-05-15T10:43:16Z</time>
      </trkpt>
      <trkpt lat="48.82918" lon="2.42167">
        <ele>56</ele>
        <time>2014-05-15T10:43:17Z</time>
      </trkpt>
      <trkpt lat="48.82917" lon="2.42168">
        <ele>56</ele>
        <time>2014-05-15T10:43:18Z</time>
      </trkpt>
      <trkpt lat="48.82916" lon="2.42168">
        <ele>55</ele>
        <time>2014-05-15T10:43:19Z</time>
      </trkpt>
      <trkpt lat="48.82915" lon="2.42168">
        <ele>56</ele>
        <time>2014-05-15T10:43:20Z</time>
      </trkpt>
      <trkpt lat="48.82913" lon="2.42167">
        <ele>57</ele>
        <time>2014-05-15T10:43:21Z</time>
      </trkpt>
      <trkpt lat="48.82912" lon="2.42166">
        <ele>58</ele>
        <time>2014-05-15T10:43:22Z</time>
      </trkpt>
      <trkpt lat="48.82911" lon="2.42165">
        <ele>58</ele>
        <time>2014-05-15T10:43:23Z</time>
      </trkpt>
      <trkpt lat="48.8291" lon="2.42165">
        <ele>57</ele>
        <time>2014-05-15T10:43:24Z</time>
      </trkpt>
      <trkpt lat="48.82909" lon="2.42165">
        <ele>56</ele>
        <time>2014-05-15T10:43:25Z</time>
      </trkpt>
      <trkpt lat="48.82909" lon="2.42166">
        <ele>55</ele>
        <time>2014-05-15T10:43:26Z</time>
      </trkpt>
      <trkpt lat="48.82908" lon="2.42165">
        <ele>56</ele>
        <time>2014-05-15T10:43:27Z</time>
      </trkpt>
      <trkpt lat="48.82906" lon="2.42165">
        <ele>55</ele>
        <time>2014-05-15T10:43:28Z</time>
      </trkpt>
      <trkpt lat="48.82905" lon="2.42163">
        <ele>54</ele>
        <time>2014-05-15T10:43:29Z</time>
      </trkpt>
      <trkpt lat="48.82904" lon="2.42163">
        <ele>55</ele>
        <time>2014-05-15T10:43:30Z</time>
      </trkpt>
      <trkpt lat="48.82904" lon="2.42163">
        <ele>54</ele>
        <time>2014-05-15T10:43:31Z</time>
      </trkpt>
      <trkpt lat="48.82903" lon="2.42164">
        <ele>54</ele>
        <time>2014-05-15T10:43:32Z</time>
      </trkpt>
      <trkpt lat="48.82902" lon="2.42165">
        <ele>54</ele>
        <time>2014-05-15T10:43:33Z</time>
      </trkpt>
      <trkpt lat="48.82901" lon="2.42165">
        <ele>54</ele>
        <time>2014-05-15T10:43:34Z</time>
      </trkpt>
      <trkpt lat="48.829" lon="2.42165">
        <ele>54</ele>
        <time>2014-05-15T10:43:35Z</time>
      </trkpt>
      <trkpt lat="48.82898" lon="2.42164">
        <ele>53</ele>
        <time>2014-05-15T10:43:36Z</time>
      </trkpt>
      <trkpt lat="48.82897" lon="2.42164">
        <ele>54</ele>
        <time>2014-05-15T10:43:37Z</time>
      </trkpt>
      <trkpt lat="48.82896" lon="2.42164">
        <ele>55</ele>
        <time>2014-05-15T10:43:38Z</time>
      </trkpt>
      <trkpt lat="48.82894" lon="2.42164">
        <ele>56</ele>
        <time>2014-05-15T10:43:39Z</time>
      </trkpt>
      <trkpt lat="48.82893" lon="2.42164">
        <ele>56</ele>
        <time>2014-05-15T10:43:40Z</time>
      </trkpt>
      <trkpt lat="48.82892" lon="2.42164">
        <ele>56</ele>
        <time>2014-05-15T10:43:41Z</time>
      </trkpt>
      <trkpt lat="48.82891" lon="2.42165">
        <ele>55</ele>
        <time>2014-05-15T10:43:42Z</time>
      </trkpt>
      <trkpt lat="48.8289" lon="2.42166">
        <ele>56</ele>
        <time>2014-05-15T10:43:43Z</time>
      </trkpt>
      <trkpt lat="48.82889" lon="2.42169">
        <ele>56</ele>
        <time>2014-05-15T10:43:44Z</time>
      </trkpt>
      <trkpt lat="48.82888" lon="2.4217">
        <ele>58</ele>
        <time>2014-05-15T10:43:45Z</time>
      </trkpt>
      <trkpt lat="48.82887" lon="2.42172">
        <ele>60</ele>
        <time>2014-05-15T10:43:46Z</time>
      </trkpt>
      <trkpt lat="48.82886" lon="2.42174">
        <ele>59</ele>
        <time>2014-05-15T10:43:47Z</time>
      </trkpt>
      <trkpt lat="48.82885" lon="2.42176">
        <ele>58</ele>
        <time>2014-05-15T10:43:48Z</time>
      </trkpt>
      <trkpt lat="48.82884" lon="2.42178">
        <ele>58</ele>
        <time>2014-05-15T10:43:49Z</time>
      </trkpt>
      <trkpt lat="48.82883" lon="2.4218">
        <ele>59</ele>
        <time>2014-05-15T10:43:50Z</time>
      </trkpt>
      <trkpt lat="48.82882" lon="2.42183">
        <ele>59</ele>
        <time>2014-05-15T10:43:51Z</time>
      </trkpt>
      <trkpt lat="48.82881" lon="2.42185">
        <ele>60</ele>
        <time>2014-05-15T10:43:52Z</time>
      </trkpt>
      <trkpt lat="48.82879" lon="2.42187">
        <ele>60</ele>
        <time>2014-05-15T10:43:53Z</time>
      </trkpt>
      <trkpt lat="48.82878" lon="2.42189">
        <ele>61</ele>
        <time>2014-05-15T10:43:54Z</time>
      </trkpt>
      <trkpt lat="48.82877" lon="2.42191">
        <ele>62</ele>
        <time>2014-05-15T10:43:55Z</time>
      </trkpt>
      <trkpt lat="48.82877" lon="2.42192">
        <ele>61</ele>
        <time>2014-05-15T10:43:56Z</time>
      </trkpt>
      <trkpt lat="48.82876" lon="2.42193">
        <ele>60</ele>
        <time>2014-05-15T10:43:57Z</time>
      </trkpt>
      <trkpt lat="48.82877" lon="2.42192">
        <ele>61</ele>
        <time>2014-05-15T10:43:58Z</time>
      </trkpt>
      <trkpt lat="48.82876" lon="2.42193">
        <ele>61</ele>
        <time>2014-05-15T10:43:59Z</time>
      </trkpt>
      <trkpt lat="48.82876" lon="2.42193">
        <ele>61</ele>
        <time>2014-05-15T10:44:00Z</time>
      </trkpt>
      <trkpt lat="48.82875" lon="2.42195">
        <ele>62</ele>
        <time>2014-05-15T10:44:01Z</time>
      </trkpt>
      <trkpt lat="48.82875" lon="2.42197">
        <ele>62</ele>
        <time>2014-05-15T10:44:02Z</time>
      </trkpt>
      <trkpt lat="48.82874" lon="2.42198">
        <ele>59</ele>
        <time>2014-05-15T10:44:03Z</time>
      </trkpt>
      <trkpt lat="48.82873" lon="2.42199">
        <ele>59</ele>
        <time>2014-05-15T10:44:04Z</time>
      </trkpt>
      <trkpt lat="48.82872" lon="2.42199">
        <ele>58</ele>
        <time>2014-05-15T10:44:05Z</time>
      </trkpt>
      <trkpt lat="48.82871" lon="2.422">
        <ele>58</ele>
        <time>2014-05-15T10:44:06Z</time>
      </trkpt>
      <trkpt lat="48.8287" lon="2.422">
        <ele>57</ele>
        <time>2014-05-15T10:44:07Z</time>
      </trkpt>
      <trkpt lat="48.82869" lon="2.42201">
        <ele>57</ele>
        <time>2014-05-15T10:44:08Z</time>
      </trkpt>
      <trkpt lat="48.82868" lon="2.42202">
        <ele>57</ele>
        <time>2014-05-15T10:44:09Z</time>
      </trkpt>
      <trkpt lat="48.82867" lon="2.42202">
        <ele>54</ele>
        <time>2014-05-15T10:44:10Z</time>
      </trkpt>
      <trkpt lat="48.82866" lon="2.42202">
        <ele>53</ele>
        <time>2014-05-15T10:44:11Z</time>
      </trkpt>
      <trkpt lat="48.82865" lon="2.42202">
        <ele>51</ele>
        <time>2014-05-15T10:44:12Z</time>
      </trkpt>
      <trkpt lat="48.82864" lon="2.42202">
        <ele>51</ele>
        <time>2014-05-15T10:44:13Z</time>
      </trkpt>
      <trkpt lat="48.82863" lon="2.42201">
        <ele>50</ele>
        <time>2014-05-15T10:44:14Z</time>
      </trkpt>
      <trkpt lat="48.82862" lon="2.422">
        <ele>51</ele>
        <time>2014-05-15T10:44:15Z</time>
      </trkpt>
      <trkpt lat="48.82861" lon="2.42199">
        <ele>50</ele>
        <time>2014-05-15T10:44:16Z</time>
      </trkpt>
      <trkpt lat="48.8286" lon="2.42198">
        <ele>51</ele>
        <time>2014-05-15T10:44:17Z</time>
      </trkpt>
      <trkpt lat="48.82859" lon="2.42198">
        <ele>50</ele>
        <time>2014-05-15T10:44:18Z</time>
      </trkpt>
      <trkpt lat="48.82858" lon="2.42198">
        <ele>49</ele>
        <time>2014-05-15T10:44:19Z</time>
      </trkpt>
      <trkpt lat="48.82857" lon="2.42198">
        <ele>47</ele>
        <time>2014-05-15T10:44:20Z</time>
      </trkpt>
      <trkpt lat="48.82856" lon="2.42198">
        <ele>47</ele>
        <time>2014-05-15T10:44:21Z</time>
      </trkpt>
      <trkpt lat="48.82855" lon="2.42198">
        <ele>47</ele>
        <time>2014-05-15T10:44:22Z</time>
      </trkpt>
      <trkpt lat="48.82853" lon="2.42197">
        <ele>46</ele>
        <time>2014-05-15T10:44:23Z</time>
      </trkpt>
      <trkpt lat="48.82852" lon="2.42196">
        <ele>47</ele>
        <time>2014-05-15T10:44:24Z</time>
      </trkpt>
      <trkpt lat="48.8285" lon="2.42195">
        <ele>47</ele>
        <time>2014-05-15T10:44:25Z</time>
      </trkpt>
      <trkpt lat="48.82849" lon="2.42195">
        <ele>47</ele>
        <time>2014-05-15T10:44:26Z</time>
      </trkpt>
      <trkpt lat="48.82847" lon="2.42194">
        <ele>49</ele>
        <time>2014-05-15T10:44:27Z</time>
      </trkpt>
      <trkpt lat="48.82845" lon="2.42194">
        <ele>48</ele>
        <time>2014-05-15T10:44:28Z</time>
      </trkpt>
      <trkpt lat="48.82843" lon="2.42193">
        <ele>48</ele>
        <time>2014-05-15T10:44:29Z</time>
      </trkpt>
      <trkpt lat="48.82841" lon="2.42192">
        <ele>48</ele>
        <time>2014-05-15T10:44:30Z</time>
      </trkpt>
      <trkpt lat="48.8284" lon="2.42192">
        <ele>47</ele>
        <time>2014-05-15T10:44:31Z</time>
      </trkpt>
      <trkpt lat="48.82838" lon="2.42191">
        <ele>45</ele>
        <time>2014-05-15T10:44:32Z</time>
      </trkpt>
      <trkpt lat="48.82837" lon="2.4219">
        <ele>46</ele>
        <time>2014-05-15T10:44:33Z</time>
      </trkpt>
      <trkpt lat="48.82835" lon="2.42189">
        <ele>46</ele>
        <time>2014-05-15T10:44:34Z</time>
      </trkpt>
      <trkpt lat="48.82834" lon="2.42189">
        <ele>47</ele>
        <time>2014-05-15T10:44:35Z</time>
      </trkpt>
      <trkpt lat="48.82832" lon="2.42188">
        <ele>48</ele>
        <time>2014-05-15T10:44:36Z</time>
      </trkpt>
      <trkpt lat="48.82831" lon="2.42188">
        <ele>48</ele>
        <time>2014-05-15T10:44:37Z</time>
      </trkpt>
      <trkpt lat="48.82829" lon="2.42186">
        <ele>47</ele>
        <time>2014-05-15T10:44:38Z</time>
      </trkpt>
      <trkpt lat="48.82828" lon="2.42185">
        <ele>46</ele>
        <time>2014-05-15T10:44:39Z</time>
      </trkpt>
      <trkpt lat="48.82827" lon="2.42183">
        <ele>45</ele>
        <time>2014-05-15T10:44:40Z</time>
      </trkpt>
      <trkpt lat="48.82826" lon="2.42182">
        <ele>47</ele>
        <time>2014-05-15T10:44:41Z</time>
      </trkpt>
      <trkpt lat="48.82825" lon="2.42181">
        <ele>47</ele>
        <time>2014-05-15T10:44:42Z</time>
      </trkpt>
      <trkpt lat="48.82824" lon="2.4218">
        <ele>46</ele>
        <time>2014-05-15T10:44:43Z</time>
      </trkpt>
      <trkpt lat="48.82822" lon="2.42179">
        <ele>46</ele>
        <time>2014-05-15T10:44:44Z</time>
      </trkpt>
      <trkpt lat="48.82821" lon="2.42178">
        <ele>46</ele>
        <time>2014-05-15T10:44:45Z</time>
      </trkpt>
      <trkpt lat="48.8282" lon="2.42177">
        <ele>46</ele>
        <time>2014-05-15T10:44:46Z</time>
      </trkpt>
      <trkpt lat="48.82819" lon="2.42176">
        <ele>44</ele>
        <time>2014-05-15T10:44:47Z</time>
      </trkpt>
      <trkpt lat="48.82818" lon="2.42175">
        <ele>45</ele>
        <time>2014-05-15T10:44:48Z</time>
      </trkpt>
      <trkpt lat="48.82817" lon="2.42174">
        <ele>45</ele>
        <time>2014-05-15T10:44:49Z</time>
      </trkpt>
      <trkpt lat="48.82816" lon="2.42173">
        <ele>45</ele>
        <time>2014-05-15T10:44:50Z</time>
      </trkpt>
      <trkpt lat="48.82815" lon="2.42172">
        <ele>46</ele>
        <time>2014-05-15T10:44:51Z</time>
      </trkpt>
      <trkpt lat="48.82813" lon="2.42171">
        <ele>45</ele>
        <time>2014-05-15T10:44:52Z</time>
      </trkpt>
      <trkpt lat="48.82812" lon="2.42171">
        <ele>45</ele>
        <time>2014-05-15T10:44:53Z</time>
      </trkpt>
      <trkpt lat="48.82811" lon="2.42171">
        <ele>45</ele>
        <time>2014-05-15T10:44:54Z</time>
      </trkpt>
      <trkpt lat="48.8281" lon="2.42172">
        <ele>46</ele>
        <time>2014-05-15T10:44:55Z</time>
      </trkpt>
      <trkpt lat="48.82809" lon="2.42173">
        <ele>45</ele>
        <time>2014-05-15T10:44:56Z</time>
      </trkpt>
      <trkpt lat="48.82809" lon="2.42175">
        <ele>47</ele>
        <time>2014-05-15T10:44:57Z</time>
      </trkpt>
      <trkpt lat="48.82808" lon="2.42176">
        <ele>48</ele>
        <time>2014-05-15T10:44:58Z</time>
      </trkpt>
      <trkpt lat="48.82807" lon="2.42177">
        <ele>47</ele>
        <time>2014-05-15T10:44:59Z</time>
      </trkpt>
      <trkpt lat="48.82805" lon="2.42178">
        <ele>49</ele>
        <time>2014-05-15T10:45:00Z</time>
      </trkpt>
      <trkpt lat="48.82804" lon="2.4218">
        <ele>48</ele>
        <time>2014-05-15T10:45:01Z</time>
      </trkpt>
      <trkpt lat="48.82803" lon="2.42182">
        <ele>49</ele>
        <time>2014-05-15T10:45:02Z</time>
      </trkpt>
      <trkpt lat="48.82801" lon="2.42184">
        <ele>50</ele>
        <time>2014-05-15T10:45:03Z</time>
      </trkpt>
      <trkpt lat="48.828" lon="2.42185">
        <ele>48</ele>
        <time>2014-05-15T10:45:04Z</time>
      </trkpt>
      <trkpt lat="48.82799" lon="2.42187">
        <ele>47</ele>
        <time>2014-05-15T10:45:05Z</time>
      </trkpt>
      <trkpt lat="48.82798" lon="2.42188">
        <ele>46</ele>
        <time>2014-05-15T10:45:06Z</time>
      </trkpt>
      <trkpt lat="48.82797" lon="2.42189">
        <ele>47</ele>
        <time>2014-05-15T10:45:07Z</time>
      </trkpt>
      <trkpt lat="48.82796" lon="2.4219">
        <ele>47</ele>
        <time>2014-05-15T10:45:08Z</time>
      </trkpt>
      <trkpt lat="48.82795" lon="2.42191">
        <ele>47</ele>
        <time>2014-05-15T10:45:09Z</time>
      </trkpt>
      <trkpt lat="48.82794" lon="2.42193">
        <ele>48</ele>
        <time>2014-05-15T10:45:10Z</time>
      </trkpt>
      <trkpt lat="48.82793" lon="2.42195">
        <ele>48</ele>
        <time>2014-05-15T10:45:11Z</time>
      </trkpt>
      <trkpt lat="48.82792" lon="2.42197">
        <ele>48</ele>
        <time>2014-05-15T10:45:12Z</time>
      </trkpt>
      <trkpt lat="48.82791" lon="2.42199">
        <ele>48</ele>
        <time>2014-05-15T10:45:13Z</time>
      </trkpt>
      <trkpt lat="48.8279" lon="2.42201">
        <ele>48</ele>
        <time>2014-05-15T10:45:14Z</time>
      </trkpt>
      <trkpt lat="48.82789" lon="2.42202">
        <ele>48</ele>
        <time>2014-05-15T10:45:15Z</time>
      </trkpt>
      <trkpt lat="48.82788" lon="2.42204">
        <ele>48</ele>
        <time>2014-05-15T10:45:16Z</time>
      </trkpt>
      <trkpt lat="48.82787" lon="2.42205">
        <ele>48</ele>
        <time>2014-05-15T10:45:17Z</time>
      </trkpt>
      <trkpt lat="48.82786" lon="2.42207">
        <ele>47</ele>
        <time>2014-05-15T10:45:18Z</time>
      </trkpt>
      <trkpt lat="48.82786" lon="2.42208">
        <ele>48</ele>
        <time>2014-05-15T10:45:19Z</time>
      </trkpt>
      <trkpt lat="48.82785" lon="2.4221">
        <ele>48</ele>
        <time>2014-05-15T10:45:20Z</time>
      </trkpt>
      <trkpt lat="48.82784" lon="2.42211">
        <ele>48</ele>
        <time>2014-05-15T10:45:21Z</time>
      </trkpt>
      <trkpt lat="48.82783" lon="2.42212">
        <ele>47</ele>
        <time>2014-05-15T10:45:22Z</time>
      </trkpt>
      <trkpt lat="48.82784" lon="2.42213">
        <ele>46</ele>
        <time>2014-05-15T10:45:23Z</time>
      </trkpt>
      <trkpt lat="48.82785" lon="2.42214">
        <ele>45</ele>
        <time>2014-05-15T10:45:24Z</time>
      </trkpt>
      <trkpt lat="48.82785" lon="2.42214">
        <ele>45</ele>
        <time>2014-05-15T10:45:25Z</time>
      </trkpt>
      <trkpt lat="48.82785" lon="2.42215">
        <ele>45</ele>
        <time>2014-05-15T10:45:26Z</time>
      </trkpt>
      <trkpt lat="48.82786" lon="2.42216">
        <ele>45</ele>
        <time>2014-05-15T10:45:27Z</time>
      </trkpt>
      <trkpt lat="48.82786" lon="2.42218">
        <ele>44</ele>
        <time>2014-05-15T10:45:28Z</time>
      </trkpt>
      <trkpt lat="48.82786" lon="2.42219">
        <ele>44</ele>
        <time>2014-05-15T10:45:29Z</time>
      </trkpt>
      <trkpt lat="48.82786" lon="2.4222">
        <ele>43</ele>
        <time>2014-05-15T10:45:30Z</time>
      </trkpt>
      <trkpt lat="48.82787" lon="2.42222">
        <ele>42</ele>
        <time>2014-05-15T10:45:31Z</time>
      </trkpt>
      <trkpt lat="48.82786" lon="2.42224">
        <ele>44</ele>
        <time>2014-05-15T10:45:32Z</time>
      </trkpt>
      <trkpt lat="48.82786" lon="2.42226">
        <ele>44</ele>
        <time>2014-05-15T10:45:33Z</time>
      </trkpt>
      <trkpt lat="48.82786" lon="2.42228">
        <ele>44</ele>
        <time>2014-05-15T10:45:34Z</time>
      </trkpt>
      <trkpt lat="48.82786" lon="2.4223">
        <ele>44</ele>
        <time>2014-05-15T10:45:35Z</time>
      </trkpt>
      <trkpt lat="48.82786" lon="2.42232">
        <ele>44</ele>
        <time>2014-05-15T10:45:36Z</time>
      </trkpt>
      <trkpt lat="48.82786" lon="2.42235">
        <ele>45</ele>
        <time>2014-05-15T10:45:37Z</time>
      </trkpt>
      <trkpt lat="48.82785" lon="2.42237">
        <ele>46</ele>
        <time>2014-05-15T10:45:38Z</time>
      </trkpt>
      <trkpt lat="48.82785" lon="2.4224">
        <ele>49</ele>
        <time>2014-05-15T10:45:39Z</time>
      </trkpt>
      <trkpt lat="48.82784" lon="2.42242">
        <ele>47</ele>
        <time>2014-05-15T10:45:40Z</time>
      </trkpt>
      <trkpt lat="48.82784" lon="2.42243">
        <ele>47</ele>
        <time>2014-05-15T10:45:41Z</time>
      </trkpt>
      <trkpt lat="48.82784" lon="2.42244">
        <ele>45</ele>
        <time>2014-05-15T10:45:42Z</time>
      </trkpt>
      <trkpt lat="48.82784" lon="2.42246">
        <ele>45</ele>
        <time>2014-05-15T10:45:43Z</time>
      </trkpt>
      <trkpt lat="48.82784" lon="2.42248">
        <ele>44</ele>
        <time>2014-05-15T10:45:44Z</time>
      </trkpt>
      <trkpt lat="48.82785" lon="2.42249">
        <ele>43</ele>
        <time>2014-05-15T10:45:45Z</time>
      </trkpt>
      <trkpt lat="48.82786" lon="2.42249">
        <ele>42</ele>
        <time>2014-05-15T10:45:46Z</time>
      </trkpt>
      <trkpt lat="48.82787" lon="2.4225">
        <ele>42</ele>
        <time>2014-05-15T10:45:47Z</time>
      </trkpt>
      <trkpt lat="48.82789" lon="2.4225">
        <ele>42</ele>
        <time>2014-05-15T10:45:48Z</time>
      </trkpt>
      <trkpt lat="48.8279" lon="2.42251">
        <ele>42</ele>
        <time>2014-05-15T10:45:49Z</time>
      </trkpt>
      <trkpt lat="48.82789" lon="2.42253">
        <ele>43</ele>
        <time>2014-05-15T10:45:50Z</time>
      </trkpt>
      <trkpt lat="48.82789" lon="2.42254">
        <ele>44</ele>
        <time>2014-05-15T10:45:51Z</time>
      </trkpt>
      <trkpt lat="48.82789" lon="2.42256">
        <ele>45</ele>
        <time>2014-05-15T10:45:52Z</time>
      </trkpt>
      <trkpt lat="48.82789" lon="2.42258">
        <ele>46</ele>
        <time>2014-05-15T10:45:53Z</time>
      </trkpt>
      <trkpt lat="48.82788" lon="2.4226">
        <ele>47</ele>
        <time>2014-05-15T10:45:54Z</time>
      </trkpt>
      <trkpt lat="48.82788" lon="2.42263">
        <ele>47</ele>
        <time>2014-05-15T10:45:55Z</time>
      </trkpt>
      <trkpt lat="48.82788" lon="2.42265">
        <ele>46</ele>
        <time>2014-05-15T10:45:56Z</time>
      </trkpt>
      <trkpt lat="48.82789" lon="2.42267">
        <ele>45</ele>
        <time>2014-05-15T10:45:57Z</time>
      </trkpt>
      <trkpt lat="48.82789" lon="2.42268">
        <ele>44</ele>
        <time>2014-05-15T10:45:58Z</time>
      </trkpt>
      <trkpt lat="48.82788" lon="2.4227">
        <ele>46</ele>
        <time>2014-05-15T10:45:59Z</time>
      </trkpt>
      <trkpt lat="48.82788" lon="2.42272">
        <ele>45</ele>
        <time>2014-05-15T10:46:00Z</time>
      </trkpt>
      <trkpt lat="48.82788" lon="2.42275">
        <ele>45</ele>
        <time>2014-05-15T10:46:01Z</time>
      </trkpt>
      <trkpt lat="48.82788" lon="2.42276">
        <ele>46</ele>
        <time>2014-05-15T10:46:02Z</time>
      </trkpt>
      <trkpt lat="48.82788" lon="2.42278">
        <ele>46</ele>
        <time>2014-05-15T10:46:03Z</time>
      </trkpt>
      <trkpt lat="48.82788" lon="2.4228">
        <ele>47</ele>
        <time>2014-05-15T10:46:04Z</time>
      </trkpt>
      <trkpt lat="48.82787" lon="2.42282">
        <ele>47</ele>
        <time>2014-05-15T10:46:05Z</time>
      </trkpt>
      <trkpt lat="48.82786" lon="2.42282">
        <ele>47</ele>
        <time>2014-05-15T10:46:06Z</time>
      </trkpt>
      <trkpt lat="48.82785" lon="2.42283">
        <ele>48</ele>
        <time>2014-05-15T10:46:07Z</time>
      </trkpt>
      <trkpt lat="48.82785" lon="2.42284">
        <ele>48</ele>
        <time>2014-05-15T10:46:08Z</time>
      </trkpt>
      <trkpt lat="48.82785" lon="2.42284">
        <ele>48</ele>
        <time>2014-05-15T10:46:09Z</time>
      </trkpt>
      <trkpt lat="48.82785" lon="2.42285">
        <ele>48</ele>
        <time>2014-05-15T10:46:10Z</time>
      </trkpt>
      <trkpt lat="48.82785" lon="2.42285">
        <ele>48</ele>
        <time>2014-05-15T10:46:11Z</time>
      </trkpt>
      <trkpt lat="48.82785" lon="2.42286">
        <ele>48</ele>
        <time>2014-05-15T10:46:12Z</time>
      </trkpt>
      <trkpt lat="48.82785" lon="2.42287">
        <ele>48</ele>
        <time>2014-05-15T10:46:13Z</time>
      </trkpt>
      <trkpt lat="48.82784" lon="2.42287">
        <ele>48</ele>
        <time>2014-05-15T10:46:14Z</time>
      </trkpt>
      <trkpt lat="48.82784" lon="2.42288">
        <ele>48</ele>
        <time>2014-05-15T10:46:15Z</time>
      </trkpt>
      <trkpt lat="48.82784" lon="2.42288">
        <ele>48</ele>
        <time>2014-05-15T10:46:16Z</time>
      </trkpt>
      <trkpt lat="48.82784" lon="2.42288">
        <ele>48</ele>
        <time>2014-05-15T10:46:17Z</time>
      </trkpt>
      <trkpt lat="48.82784" lon="2.42289">
        <ele>48</ele>
        <time>2014-05-15T10:46:18Z</time>
      </trkpt>
      <trkpt lat="48.82784" lon="2.42289">
        <ele>48</ele>
        <time>2014-05-15T10:46:19Z</time>
      </trkpt>
      <trkpt lat="48.82784" lon="2.42291">
        <ele>48</ele>
        <time>2014-05-15T10:46:20Z</time>
      </trkpt>
      <trkpt lat="48.82784" lon="2.42293">
        <ele>49</ele>
        <time>2014-05-15T10:46:21Z</time>
      </trkpt>
      <trkpt lat="48.82784" lon="2.42295">
        <ele>48</ele>
        <time>2014-05-15T10:46:22Z</time>
      </trkpt>
      <trkpt lat="48.82785" lon="2.42297">
        <ele>49</ele>
        <time>2014-05-15T10:46:23Z</time>
      </trkpt>
      <trkpt lat="48.82785" lon="2.423">
        <ele>47</ele>
        <time>2014-05-15T10:46:24Z</time>
      </trkpt>
      <trkpt lat="48.82786" lon="2.42302">
        <ele>48</ele>
        <time>2014-05-15T10:46:25Z</time>
      </trkpt>
      <trkpt lat="48.82786" lon="2.42304">
        <ele>47</ele>
        <time>2014-05-15T10:46:26Z</time>
      </trkpt>
      <trkpt lat="48.82786" lon="2.42307">
        <ele>47</ele>
        <time>2014-05-15T10:46:27Z</time>
      </trkpt>
      <trkpt lat="48.82787" lon="2.42309">
        <ele>45</ele>
        <time>2014-05-15T10:46:28Z</time>
      </trkpt>
      <trkpt lat="48.82787" lon="2.42312">
        <ele>45</ele>
        <time>2014-05-15T10:46:29Z</time>
      </trkpt>
      <trkpt lat="48.82787" lon="2.42314">
        <ele>45</ele>
        <time>2014-05-15T10:46:30Z</time>
      </trkpt>
      <trkpt lat="48.82787" lon="2.42317">
        <ele>45</ele>
        <time>2014-05-15T10:46:31Z</time>
      </trkpt>
      <trkpt lat="48.82787" lon="2.42319">
        <ele>46</ele>
        <time>2014-05-15T10:46:32Z</time>
      </trkpt>
      <trkpt lat="48.82789" lon="2.42321">
        <ele>47</ele>
        <time>2014-05-15T10:46:33Z</time>
      </trkpt>
      <trkpt lat="48.82789" lon="2.42324">
        <ele>47</ele>
        <time>2014-05-15T10:46:34Z</time>
      </trkpt>
      <trkpt lat="48.82789" lon="2.42326">
        <ele>46</ele>
        <time>2014-05-15T10:46:35Z</time>
      </trkpt>
      <trkpt lat="48.8279" lon="2.42328">
        <ele>48</ele>
        <time>2014-05-15T10:46:36Z</time>
      </trkpt>
      <trkpt lat="48.82791" lon="2.4233">
        <ele>46</ele>
        <time>2014-05-15T10:46:37Z</time>
      </trkpt>
      <trkpt lat="48.82791" lon="2.42332">
        <ele>46</ele>
        <time>2014-05-15T10:46:38Z</time>
      </trkpt>
      <trkpt lat="48.82792" lon="2.42334">
        <ele>47</ele>
        <time>2014-05-15T10:46:39Z</time>
      </trkpt>
      <trkpt lat="48.82793" lon="2.42336">
        <ele>46</ele>
        <time>2014-05-15T10:46:40Z</time>
      </trkpt>
      <trkpt lat="48.82794" lon="2.42338">
        <ele>46</ele>
        <time>2014-05-15T10:46:41Z</time>
      </trkpt>
      <trkpt lat="48.82794" lon="2.4234">
        <ele>46</ele>
        <time>2014-05-15T10:46:42Z</time>
      </trkpt>
      <trkpt lat="48.82794" lon="2.42342">
        <ele>46</ele>
        <time>2014-05-15T10:46:43Z</time>
      </trkpt>
      <trkpt lat="48.82795" lon="2.42344">
        <ele>48</ele>
        <time>2014-05-15T10:46:44Z</time>
      </trkpt>
      <trkpt lat="48.82796" lon="2.42346">
        <ele>49</ele>
        <time>2014-05-15T10:46:45Z</time>
      </trkpt>
      <trkpt lat="48.82796" lon="2.42348">
        <ele>49</ele>
        <time>2014-05-15T10:46:46Z</time>
      </trkpt>
      <trkpt lat="48.82797" lon="2.42351">
        <ele>50</ele>
        <time>2014-05-15T10:46:47Z</time>
      </trkpt>
      <trkpt lat="48.82797" lon="2.42353">
        <ele>50</ele>
        <time>2014-05-15T10:46:48Z</time>
      </trkpt>
      <trkpt lat="48.82797" lon="2.42356">
        <ele>49</ele>
        <time>2014-05-15T10:46:49Z</time>
      </trkpt>
      <trkpt lat="48.82797" lon="2.42358">
        <ele>48</ele>
        <time>2014-05-15T10:46:50Z</time>
      </trkpt>
      <trkpt lat="48.82796" lon="2.42361">
        <ele>47</ele>
        <time>2014-05-15T10:46:51Z</time>
      </trkpt>
      <trkpt lat="48.82796" lon="2.42363">
        <ele>48</ele>
        <time>2014-05-15T10:46:52Z</time>
      </trkpt>
      <trkpt lat="48.82795" lon="2.42366">
        <ele>48</ele>
        <time>2014-05-15T10:46:53Z</time>
      </trkpt>
      <trkpt lat="48.82795" lon="2.42368">
        <ele>47</ele>
        <time>2014-05-15T10:46:54Z</time>
      </trkpt>
      <trkpt lat="48.82793" lon="2.4237">
        <ele>47</ele>
        <time>2014-05-15T10:46:55Z</time>
      </trkpt>
      <trkpt lat="48.82792" lon="2.42372">
        <ele>47</ele>
        <time>2014-05-15T10:46:56Z</time>
      </trkpt>
      <trkpt lat="48.82791" lon="2.42373">
        <ele>46</ele>
        <time>2014-05-15T10:46:57Z</time>
      </trkpt>
      <trkpt lat="48.8279" lon="2.42375">
        <ele>47</ele>
        <time>2014-05-15T10:46:58Z</time>
      </trkpt>
      <trkpt lat="48.82789" lon="2.42376">
        <ele>47</ele>
        <time>2014-05-15T10:46:59Z</time>
      </trkpt>
      <trkpt lat="48.82788" lon="2.42378">
        <ele>45</ele>
        <time>2014-05-15T10:47:00Z</time>
      </trkpt>
      <trkpt lat="48.82787" lon="2.42379">
        <ele>44</ele>
        <time>2014-05-15T10:47:01Z</time>
      </trkpt>
      <trkpt lat="48.82787" lon="2.4238">
        <ele>43</ele>
        <time>2014-05-15T10:47:02Z</time>
      </trkpt>
      <trkpt lat="48.82786" lon="2.42381">
        <ele>43</ele>
        <time>2014-05-15T10:47:03Z</time>
      </trkpt>
      <trkpt lat="48.82785" lon="2.42383">
        <ele>44</ele>
        <time>2014-05-15T10:47:04Z</time>
      </trkpt>
      <trkpt lat="48.82784" lon="2.42384">
        <ele>44</ele>
        <time>2014-05-15T10:47:05Z</time>
      </trkpt>
      <trkpt lat="48.82783" lon="2.42385">
        <ele>44</ele>
        <time>2014-05-15T10:47:06Z</time>
      </trkpt>
      <trkpt lat="48.82782" lon="2.42386">
        <ele>43</ele>
        <time>2014-05-15T10:47:07Z</time>
      </trkpt>
      <trkpt lat="48.82781" lon="2.42387">
        <ele>42</ele>
        <time>2014-05-15T10:47:08Z</time>
      </trkpt>
      <trkpt lat="48.8278" lon="2.42389">
        <ele>45</ele>
        <time>2014-05-15T10:47:09Z</time>
      </trkpt>
      <trkpt lat="48.82779" lon="2.4239">
        <ele>44</ele>
        <time>2014-05-15T10:47:10Z</time>
      </trkpt>
      <trkpt lat="48.82778" lon="2.42391">
        <ele>44</ele>
        <time>2014-05-15T10:47:11Z</time>
      </trkpt>
      <trkpt lat="48.82777" lon="2.42393">
        <ele>44</ele>
        <time>2014-05-15T10:47:12Z</time>
      </trkpt>
      <trkpt lat="48.82776" lon="2.42394">
        <ele>44</ele>
        <time>2014-05-15T10:47:13Z</time>
      </trkpt>
      <trkpt lat="48.82775" lon="2.42395">
        <ele>45</ele>
        <time>2014-05-15T10:47:14Z</time>
      </trkpt>
      <trkpt lat="48.82774" lon="2.42397">
        <ele>45</ele>
        <time>2014-05-15T10:47:15Z</time>
      </trkpt>
      <trkpt lat="48.82774" lon="2.42399">
        <ele>45</ele>
        <time>2014-05-15T10:47:16Z</time>
      </trkpt>
      <trkpt lat="48.82773" lon="2.42401">
        <ele>46</ele>
        <time>2014-05-15T10:47:17Z</time>
      </trkpt>
      <trkpt lat="48.82772" lon="2.42402">
        <ele>45</ele>
        <time>2014-05-15T10:47:18Z</time>
      </trkpt>
      <trkpt lat="48.82771" lon="2.42404">
        <ele>45</ele>
        <time>2014-05-15T10:47:19Z</time>
      </trkpt>
      <trkpt lat="48.8277" lon="2.42407">
        <ele>45</ele>
        <time>2014-05-15T10:47:20Z</time>
      </trkpt>
      <trkpt lat="48.82769" lon="2.42409">
        <ele>46</ele>
        <time>2014-05-15T10:47:21Z</time>
      </trkpt>
      <trkpt lat="48.82769" lon="2.42412">
        <ele>45</ele>
        <time>2014-05-15T10:47:22Z</time>
      </trkpt>
      <trkpt lat="48.82768" lon="2.42416">
        <ele>45</ele>
        <time>2014-05-15T10:47:23Z</time>
      </trkpt>
      <trkpt lat="48.82766" lon="2.42418">
        <ele>45</ele>
        <time>2014-05-15T10:47:24Z</time>
      </trkpt>
      <trkpt lat="48.82765" lon="2.4242">
        <ele>44</ele>
        <time>2014-05-15T10:47:25Z</time>
      </trkpt>
      <trkpt lat="48.82764" lon="2.42422">
        <ele>43</ele>
        <time>2014-05-15T10:47:26Z</time>
      </trkpt>
      <trkpt lat="48.82763" lon="2.42423">
        <ele>42</ele>
        <time>2014-05-15T10:47:27Z</time>
      </trkpt>
      <trkpt lat="48.82762" lon="2.42424">
        <ele>43</ele>
        <time>2014-05-15T10:47:28Z</time>
      </trkpt>
      <trkpt lat="48.82761" lon="2.42425">
        <ele>44</ele>
        <time>2014-05-15T10:47:29Z</time>
      </trkpt>
      <trkpt lat="48.8276" lon="2.42426">
        <ele>42</ele>
        <time>2014-05-15T10:47:30Z</time>
      </trkpt>
      <trkpt lat="48.82759" lon="2.42428">
        <ele>44</ele>
        <time>2014-05-15T10:47:31Z</time>
      </trkpt>
      <trkpt lat="48.82758" lon="2.42429">
        <ele>45</ele>
        <time>2014-05-15T10:47:32Z</time>
      </trkpt>
      <trkpt lat="48.82757" lon="2.4243">
        <ele>44</ele>
        <time>2014-05-15T10:47:33Z</time>
      </trkpt>
      <trkpt lat="48.82757" lon="2.42432">
        <ele>46</ele>
        <time>2014-05-15T10:47:34Z</time>
      </trkpt>
      <trkpt lat="48.82756" lon="2.42433">
        <ele>46</ele>
        <time>2014-05-15T10:47:35Z</time>
      </trkpt>
      <trkpt lat="48.82755" lon="2.42435">
        <ele>47</ele>
        <time>2014-05-15T10:47:36Z</time>
      </trkpt>
      <trkpt lat="48.82754" lon="2.42437">
        <ele>46</ele>
        <time>2014-05-15T10:47:37Z</time>
      </trkpt>
      <trkpt lat="48.82753" lon="2.42438">
        <ele>46</ele>
        <time>2014-05-15T10:47:38Z</time>
      </trkpt>
      <trkpt lat="48.82753" lon="2.4244">
        <ele>47</ele>
        <time>2014-05-15T10:47:39Z</time>
      </trkpt>
      <trkpt lat="48.82752" lon="2.42441">
        <ele>48</ele>
        <time>2014-05-15T10:47:40Z</time>
      </trkpt>
      <trkpt lat="48.82751" lon="2.42443">
        <ele>46</ele>
        <time>2014-05-15T10:47:41Z</time>
      </trkpt>
      <trkpt lat="48.8275" lon="2.42444">
        <ele>47</ele>
        <time>2014-05-15T10:47:42Z</time>
      </trkpt>
      <trkpt lat="48.8275" lon="2.42446">
        <ele>48</ele>
        <time>2014-05-15T10:47:43Z</time>
      </trkpt>
      <trkpt lat="48.82749" lon="2.42447">
        <ele>47</ele>
        <time>2014-05-15T10:47:44Z</time>
      </trkpt>
      <trkpt lat="48.82748" lon="2.42448">
        <ele>48</ele>
        <time>2014-05-15T10:47:45Z</time>
      </trkpt>
      <trkpt lat="48.82748" lon="2.4245">
        <ele>49</ele>
        <time>2014-05-15T10:47:46Z</time>
      </trkpt>
      <trkpt lat="48.82747" lon="2.42452">
        <ele>49</ele>
        <time>2014-05-15T10:47:47Z</time>
      </trkpt>
      <trkpt lat="48.82747" lon="2.42454">
        <ele>49</ele>
        <time>2014-05-15T10:47:48Z</time>
      </trkpt>
      <trkpt lat="48.82746" lon="2.42456">
        <ele>50</ele>
        <time>2014-05-15T10:47:49Z</time>
      </trkpt>
      <trkpt lat="48.82746" lon="2.42458">
        <ele>49</ele>
        <time>2014-05-15T10:47:50Z</time>
      </trkpt>
      <trkpt lat="48.82746" lon="2.42461">
        <ele>51</ele>
        <time>2014-05-15T10:47:51Z</time>
      </trkpt>
      <trkpt lat="48.82746" lon="2.42463">
        <ele>51</ele>
        <time>2014-05-15T10:47:52Z</time>
      </trkpt>
      <trkpt lat="48.82746" lon="2.42466">
        <ele>51</ele>
        <time>2014-05-15T10:47:53Z</time>
      </trkpt>
      <trkpt lat="48.82746" lon="2.42468">
        <ele>52</ele>
        <time>2014-05-15T10:47:54Z</time>
      </trkpt>
      <trkpt lat="48.82747" lon="2.4247">
        <ele>51</ele>
        <time>2014-05-15T10:47:55Z</time>
      </trkpt>
      <trkpt lat="48.82747" lon="2.42471">
        <ele>49</ele>
        <time>2014-05-15T10:47:56Z</time>
      </trkpt>
      <trkpt lat="48.82748" lon="2.42472">
        <ele>50</ele>
        <time>2014-05-15T10:47:57Z</time>
      </trkpt>
      <trkpt lat="48.82749" lon="2.42473">
        <ele>51</ele>
        <time>2014-05-15T10:47:58Z</time>
      </trkpt>
      <trkpt lat="48.82751" lon="2.42474">
        <ele>52</ele>
        <time>2014-05-15T10:47:59Z</time>
      </trkpt>
      <trkpt lat="48.82752" lon="2.42475">
        <ele>52</ele>
        <time>2014-05-15T10:48:00Z</time>
      </trkpt>
      <trkpt lat="48.82753" lon="2.42476">
        <ele>51</ele>
        <time>2014-05-15T10:48:01Z</time>
      </trkpt>
      <trkpt lat="48.82754" lon="2.42478">
        <ele>52</ele>
        <time>2014-05-15T10:48:02Z</time>
      </trkpt>
      <trkpt lat="48.82755" lon="2.42479">
        <ele>51</ele>
        <time>2014-05-15T10:48:03Z</time>
      </trkpt>
      <trkpt lat="48.82756" lon="2.42481">
        <ele>52</ele>
        <time>2014-05-15T10:48:04Z</time>
      </trkpt>
      <trkpt lat="48.82757" lon="2.42482">
        <ele>52</ele>
        <time>2014-05-15T10:48:05Z</time>
      </trkpt>
      <trkpt lat="48.82758" lon="2.42483">
        <ele>52</ele>
        <time>2014-05-15T10:48:06Z</time>
      </trkpt>
      <trkpt lat="48.82759" lon="2.42483">
        <ele>52</ele>
        <time>2014-05-15T10:48:07Z</time>
      </trkpt>
      <trkpt lat="48.8276" lon="2.42483">
        <ele>52</ele>
        <time>2014-05-15T10:48:08Z</time>
      </trkpt>
      <trkpt lat="48.82761" lon="2.42483">
        <ele>53</ele>
        <time>2014-05-15T10:48:09Z</time>
      </trkpt>
      <trkpt lat="48.82763" lon="2.42484">
        <ele>53</ele>
        <time>2014-05-15T10:48:10Z</time>
      </trkpt>
      <trkpt lat="48.82764" lon="2.42484">
        <ele>54</ele>
        <time>2014-05-15T10:48:11Z</time>
      </trkpt>
      <trkpt lat="48.82765" lon="2.42484">
        <ele>56</ele>
        <time>2014-05-15T10:48:12Z</time>
      </trkpt>
      <trkpt lat="48.82766" lon="2.42484">
        <ele>54</ele>
        <time>2014-05-15T10:48:13Z</time>
      </trkpt>
      <trkpt lat="48.82767" lon="2.42485">
        <ele>54</ele>
        <time>2014-05-15T10:48:14Z</time>
      </trkpt>
      <trkpt lat="48.82769" lon="2.42486">
        <ele>55</ele>
        <time>2014-05-15T10:48:15Z</time>
      </trkpt>
      <trkpt lat="48.82771" lon="2.42486">
        <ele>56</ele>
        <time>2014-05-15T10:48:16Z</time>
      </trkpt>
      <trkpt lat="48.82772" lon="2.42487">
        <ele>54</ele>
        <time>2014-05-15T10:48:17Z</time>
      </trkpt>
      <trkpt lat="48.82773" lon="2.42487">
        <ele>55</ele>
        <time>2014-05-15T10:48:18Z</time>
      </trkpt>
      <trkpt lat="48.82774" lon="2.42488">
        <ele>55</ele>
        <time>2014-05-15T10:48:19Z</time>
      </trkpt>
      <trkpt lat="48.82775" lon="2.42489">
        <ele>54</ele>
        <time>2014-05-15T10:48:20Z</time>
      </trkpt>
      <trkpt lat="48.82776" lon="2.4249">
        <ele>54</ele>
        <time>2014-05-15T10:48:21Z</time>
      </trkpt>
      <trkpt lat="48.82777" lon="2.42491">
        <ele>53</ele>
        <time>2014-05-15T10:48:22Z</time>
      </trkpt>
      <trkpt lat="48.82778" lon="2.42491">
        <ele>54</ele>
        <time>2014-05-15T10:48:23Z</time>
      </trkpt>
      <trkpt lat="48.82778" lon="2.42492">
        <ele>54</ele>
        <time>2014-05-15T10:48:24Z</time>
      </trkpt>
      <trkpt lat="48.82779" lon="2.42493">
        <ele>54</ele>
        <time>2014-05-15T10:48:25Z</time>
      </trkpt>
      <trkpt lat="48.82779" lon="2.42494">
        <ele>55</ele>
        <time>2014-05-15T10:48:26Z</time>
      </trkpt>
      <trkpt lat="48.8278" lon="2.42495">
        <ele>55</ele>
        <time>2014-05-15T10:48:27Z</time>
      </trkpt>
      <trkpt lat="48.82782" lon="2.42496">
        <ele>55</ele>
        <time>2014-05-15T10:48:28Z</time>
      </trkpt>
      <trkpt lat="48.82783" lon="2.42496">
        <ele>55</ele>
        <time>2014-05-15T10:48:29Z</time>
      </trkpt>
      <trkpt lat="48.82784" lon="2.42497">
        <ele>55</ele>
        <time>2014-05-15T10:48:30Z</time>
      </trkpt>
      <trkpt lat="48.82786" lon="2.42497">
        <ele>55</ele>
        <time>2014-05-15T10:48:31Z</time>
      </trkpt>
      <trkpt lat="48.82787" lon="2.42497">
        <ele>55</ele>
        <time>2014-05-15T10:48:32Z</time>
      </trkpt>
      <trkpt lat="48.82788" lon="2.42498">
        <ele>56</ele>
        <time>2014-05-15T10:48:33Z</time>
      </trkpt>
      <trkpt lat="48.82789" lon="2.42498">
        <ele>56</ele>
        <time>2014-05-15T10:48:34Z</time>
      </trkpt>
      <trkpt lat="48.8279" lon="2.42498">
        <ele>56</ele>
        <time>2014-05-15T10:48:35Z</time>
      </trkpt>
      <trkpt lat="48.8279" lon="2.42499">
        <ele>56</ele>
        <time>2014-05-15T10:48:36Z</time>
      </trkpt>
      <trkpt lat="48.82791" lon="2.42499">
        <ele>56</ele>
        <time>2014-05-15T10:48:37Z</time>
      </trkpt>
      <trkpt lat="48.82791" lon="2.42499">
        <ele>58</ele>
        <time>2014-05-15T10:48:38Z</time>
      </trkpt>
      <trkpt lat="48.82791" lon="2.42499">
        <ele>57</ele>
        <time>2014-05-15T10:48:39Z</time>
      </trkpt>
      <trkpt lat="48.8279" lon="2.42499">
        <ele>57</ele>
        <time>2014-05-15T10:48:40Z</time>
      </trkpt>
      <trkpt lat="48.8279" lon="2.42499">
        <ele>57</ele>
        <time>2014-05-15T10:48:41Z</time>
      </trkpt>
      <trkpt lat="48.8279" lon="2.42499">
        <ele>57</ele>
        <time>2014-05-15T10:48:42Z</time>
      </trkpt>
      <trkpt lat="48.8279" lon="2.42499">
        <ele>57</ele>
        <time>2014-05-15T10:48:43Z</time>
      </trkpt>
      <trkpt lat="48.82791" lon="2.42499">
        <ele>57</ele>
        <time>2014-05-15T10:48:44Z</time>
      </trkpt>
      <trkpt lat="48.82791" lon="2.42499">
        <ele>55</ele>
        <time>2014-05-15T10:48:45Z</time>
      </trkpt>
      <trkpt lat="48.82791" lon="2.425">
        <ele>55</ele>
        <time>2014-05-15T10:48:46Z</time>
      </trkpt>
      <trkpt lat="48.82792" lon="2.425">
        <ele>55</ele>
        <time>2014-05-15T10:48:47Z</time>
      </trkpt>
      <trkpt lat="48.82792" lon="2.425">
        <ele>57</ele>
        <time>2014-05-15T10:48:48Z</time>
      </trkpt>
      <trkpt lat="48.82793" lon="2.425">
        <ele>56</ele>
        <time>2014-05-15T10:48:49Z</time>
      </trkpt>
      <trkpt lat="48.82794" lon="2.42501">
        <ele>57</ele>
        <time>2014-05-15T10:48:50Z</time>
      </trkpt>
      <trkpt lat="48.82794" lon="2.42501">
        <ele>57</ele>
        <time>2014-05-15T10:48:51Z</time>
      </trkpt>
      <trkpt lat="48.82795" lon="2.42501">
        <ele>56</ele>
        <time>2014-05-15T10:48:52Z</time>
      </trkpt>
      <trkpt lat="48.82795" lon="2.42502">
        <ele>57</ele>
        <time>2014-05-15T10:48:53Z</time>
      </trkpt>
      <trkpt lat="48.82795" lon="2.42502">
        <ele>57</ele>
        <time>2014-05-15T10:48:54Z</time>
      </trkpt>
      <trkpt lat="48.82796" lon="2.42502">
        <ele>57</ele>
        <time>2014-05-15T10:48:55Z</time>
      </trkpt>
      <trkpt lat="48.82796" lon="2.42502">
        <ele>57</ele>
        <time>2014-05-15T10:48:56Z</time>
      </trkpt>
      <trkpt lat="48.82797" lon="2.42502">
        <ele>58</ele>
        <time>2014-05-15T10:48:57Z</time>
      </trkpt>
      <trkpt lat="48.82797" lon="2.42502">
        <ele>57</ele>
        <time>2014-05-15T10:48:58Z</time>
      </trkpt>
      <trkpt lat="48.82797" lon="2.42502">
        <ele>57</ele>
        <time>2014-05-15T10:48:59Z</time>
      </trkpt>
      <trkpt lat="48.82797" lon="2.42502">
        <ele>57</ele>
        <time>2014-05-15T10:49:00Z</time>
      </trkpt>
      <trkpt lat="48.82799" lon="2.42503">
        <ele>55</ele>
        <time>2014-05-15T10:49:01Z</time>
      </trkpt>
      <trkpt lat="48.82799" lon="2.42504">
        <ele>51</ele>
        <time>2014-05-15T10:49:02Z</time>
      </trkpt>
      <trkpt lat="48.828" lon="2.42506">
        <ele>50</ele>
        <time>2014-05-15T10:49:03Z</time>
      </trkpt>
      <trkpt lat="48.828" lon="2.42507">
        <ele>50</ele>
        <time>2014-05-15T10:49:04Z</time>
      </trkpt>
      <trkpt lat="48.82801" lon="2.42508">
        <ele>49</ele>
        <time>2014-05-15T10:49:05Z</time>
      </trkpt>
      <trkpt lat="48.82801" lon="2.42509">
        <ele>50</ele>
        <time>2014-05-15T10:49:06Z</time>
      </trkpt>
      <trkpt lat="48.82802" lon="2.4251">
        <ele>51</ele>
        <time>2014-05-15T10:49:07Z</time>
      </trkpt>
      <trkpt lat="48.82802" lon="2.42512">
        <ele>54</ele>
        <time>2014-05-15T10:49:08Z</time>
      </trkpt>
      <trkpt lat="48.82802" lon="2.42513">
        <ele>54</ele>
        <time>2014-05-15T10:49:09Z</time>
      </trkpt>
      <trkpt lat="48.82802" lon="2.42514">
        <ele>53</ele>
        <time>2014-05-15T10:49:10Z</time>
      </trkpt>
      <trkpt lat="48.82802" lon="2.42515">
        <ele>54</ele>
        <time>2014-05-15T10:49:11Z</time>
      </trkpt>
      <trkpt lat="48.82803" lon="2.42516">
        <ele>54</ele>
        <time>2014-05-15T10:49:12Z</time>
      </trkpt>
      <trkpt lat="48.82803" lon="2.42516">
        <ele>54</ele>
        <time>2014-05-15T10:49:13Z</time>
      </trkpt>
      <trkpt lat="48.82804" lon="2.42516">
        <ele>54</ele>
        <time>2014-05-15T10:49:14Z</time>
      </trkpt>
      <trkpt lat="48.82804" lon="2.42516">
        <ele>54</ele>
        <time>2014-05-15T10:49:15Z</time>
      </trkpt>
      <trkpt lat="48.82805" lon="2.42516">
        <ele>54</ele>
        <time>2014-05-15T10:49:16Z</time>
      </trkpt>
      <trkpt lat="48.82805" lon="2.42516">
        <ele>54</ele>
        <time>2014-05-15T10:49:17Z</time>
      </trkpt>
      <trkpt lat="48.82805" lon="2.42516">
        <ele>53</ele>
        <time>2014-05-15T10:49:18Z</time>
      </trkpt>
      <trkpt lat="48.82806" lon="2.42517">
        <ele>53</ele>
        <time>2014-05-15T10:49:19Z</time>
      </trkpt>
      <trkpt lat="48.82806" lon="2.42517">
        <ele>53</ele>
        <time>2014-05-15T10:49:20Z</time>
      </trkpt>
      <trkpt lat="48.82806" lon="2.42517">
        <ele>54</ele>
        <time>2014-05-15T10:49:21Z</time>
      </trkpt>
      <trkpt lat="48.82806" lon="2.42518">
        <ele>53</ele>
        <time>2014-05-15T10:49:22Z</time>
      </trkpt>
      <trkpt lat="48.82807" lon="2.42518">
        <ele>53</ele>
        <time>2014-05-15T10:49:23Z</time>
      </trkpt>
      <trkpt lat="48.82807" lon="2.42518">
        <ele>53</ele>
        <time>2014-05-15T10:49:24Z</time>
      </trkpt>
      <trkpt lat="48.82807" lon="2.42518">
        <ele>53</ele>
        <time>2014-05-15T10:49:25Z</time>
      </trkpt>
      <trkpt lat="48.82807" lon="2.42519">
        <ele>53</ele>
        <time>2014-05-15T10:49:26Z</time>
      </trkpt>
      <trkpt lat="48.82807" lon="2.42521">
        <ele>54</ele>
        <time>2014-05-15T10:49:27Z</time>
      </trkpt>
      <trkpt lat="48.82808" lon="2.42523">
        <ele>56</ele>
        <time>2014-05-15T10:49:28Z</time>
      </trkpt>
      <trkpt lat="48.82809" lon="2.42526">
        <ele>57</ele>
        <time>2014-05-15T10:49:29Z</time>
      </trkpt>
      <trkpt lat="48.82811" lon="2.42529">
        <ele>59</ele>
        <time>2014-05-15T10:49:30Z</time>
      </trkpt>
      <trkpt lat="48.82812" lon="2.42531">
        <ele>59</ele>
        <time>2014-05-15T10:49:31Z</time>
      </trkpt>
      <trkpt lat="48.82815" lon="2.42533">
        <ele>60</ele>
        <time>2014-05-15T10:49:32Z</time>
      </trkpt>
      <trkpt lat="48.82816" lon="2.42535">
        <ele>59</ele>
        <time>2014-05-15T10:49:33Z</time>
      </trkpt>
      <trkpt lat="48.82818" lon="2.42538">
        <ele>59</ele>
        <time>2014-05-15T10:49:34Z</time>
      </trkpt>
      <trkpt lat="48.82819" lon="2.4254">
        <ele>60</ele>
        <time>2014-05-15T10:49:35Z</time>
      </trkpt>
      <trkpt lat="48.8282" lon="2.42543">
        <ele>61</ele>
        <time>2014-05-15T10:49:36Z</time>
      </trkpt>
      <trkpt lat="48.82822" lon="2.42545">
        <ele>62</ele>
        <time>2014-05-15T10:49:37Z</time>
      </trkpt>
      <trkpt lat="48.82823" lon="2.42547">
        <ele>63</ele>
        <time>2014-05-15T10:49:38Z</time>
      </trkpt>
      <trkpt lat="48.82825" lon="2.42549">
        <ele>65</ele>
        <time>2014-05-15T10:49:39Z</time>
      </trkpt>
      <trkpt lat="48.82827" lon="2.42551">
        <ele>65</ele>
        <time>2014-05-15T10:49:40Z</time>
      </trkpt>
      <trkpt lat="48.82828" lon="2.42552">
        <ele>65</ele>
        <time>2014-05-15T10:49:41Z</time>
      </trkpt>
      <trkpt lat="48.8283" lon="2.42553">
        <ele>64</ele>
        <time>2014-05-15T10:49:42Z</time>
      </trkpt>
      <trkpt lat="48.82831" lon="2.42554">
        <ele>65</ele>
        <time>2014-05-15T10:49:43Z</time>
      </trkpt>
      <trkpt lat="48.82833" lon="2.42555">
        <ele>65</ele>
        <time>2014-05-15T10:49:44Z</time>
      </trkpt>
      <trkpt lat="48.82834" lon="2.42556">
        <ele>65</ele>
        <time>2014-05-15T10:49:45Z</time>
      </trkpt>
      <trkpt lat="48.82836" lon="2.42557">
        <ele>67</ele>
        <time>2014-05-15T10:49:46Z</time>
      </trkpt>
      <trkpt lat="48.82838" lon="2.42557">
        <ele>67</ele>
        <time>2014-05-15T10:49:47Z</time>
      </trkpt>
      <trkpt lat="48.82839" lon="2.42558">
        <ele>67</ele>
        <time>2014-05-15T10:49:48Z</time>
      </trkpt>
      <trkpt lat="48.82841" lon="2.42558">
        <ele>66</ele>
        <time>2014-05-15T10:49:49Z</time>
      </trkpt>
      <trkpt lat="48.82842" lon="2.42559">
        <ele>66</ele>
        <time>2014-05-15T10:49:50Z</time>
      </trkpt>
      <trkpt lat="48.82843" lon="2.42561">
        <ele>65</ele>
        <time>2014-05-15T10:49:51Z</time>
      </trkpt>
      <trkpt lat="48.82844" lon="2.42562">
        <ele>65</ele>
        <time>2014-05-15T10:49:52Z</time>
      </trkpt>
      <trkpt lat="48.82845" lon="2.42564">
        <ele>65</ele>
        <time>2014-05-15T10:49:53Z</time>
      </trkpt>
      <trkpt lat="48.82846" lon="2.42566">
        <ele>64</ele>
        <time>2014-05-15T10:49:54Z</time>
      </trkpt>
      <trkpt lat="48.82846" lon="2.42567">
        <ele>65</ele>
        <time>2014-05-15T10:49:55Z</time>
      </trkpt>
      <trkpt lat="48.82848" lon="2.42568">
        <ele>64</ele>
        <time>2014-05-15T10:49:56Z</time>
      </trkpt>
      <trkpt lat="48.82848" lon="2.42569">
        <ele>65</ele>
        <time>2014-05-15T10:49:57Z</time>
      </trkpt>
      <trkpt lat="48.82849" lon="2.42571">
        <ele>66</ele>
        <time>2014-05-15T10:49:58Z</time>
      </trkpt>
      <trkpt lat="48.82849" lon="2.42572">
        <ele>66</ele>
        <time>2014-05-15T10:49:59Z</time>
      </trkpt>
      <trkpt lat="48.82849" lon="2.42573">
        <ele>66</ele>
        <time>2014-05-15T10:50:00Z</time>
      </trkpt>
      <trkpt lat="48.8285" lon="2.42573">
        <ele>65</ele>
        <time>2014-05-15T10:50:01Z</time>
      </trkpt>
      <trkpt lat="48.8285" lon="2.42575">
        <ele>63</ele>
        <time>2014-05-15T10:50:02Z</time>
      </trkpt>
      <trkpt lat="48.82851" lon="2.42576">
        <ele>62</ele>
        <time>2014-05-15T10:50:03Z</time>
      </trkpt>
      <trkpt lat="48.82852" lon="2.42577">
        <ele>61</ele>
        <time>2014-05-15T10:50:04Z</time>
      </trkpt>
      <trkpt lat="48.82853" lon="2.42578">
        <ele>60</ele>
        <time>2014-05-15T10:50:05Z</time>
      </trkpt>
      <trkpt lat="48.82855" lon="2.4258">
        <ele>59</ele>
        <time>2014-05-15T10:50:06Z</time>
      </trkpt>
      <trkpt lat="48.82856" lon="2.42581">
        <ele>57</ele>
        <time>2014-05-15T10:50:07Z</time>
      </trkpt>
      <trkpt lat="48.82857" lon="2.42582">
        <ele>57</ele>
        <time>2014-05-15T10:50:08Z</time>
      </trkpt>
      <trkpt lat="48.82858" lon="2.42583">
        <ele>57</ele>
        <time>2014-05-15T10:50:09Z</time>
      </trkpt>
      <trkpt lat="48.82859" lon="2.42584">
        <ele>55</ele>
        <time>2014-05-15T10:50:10Z</time>
      </trkpt>
      <trkpt lat="48.82859" lon="2.42586">
        <ele>56</ele>
        <time>2014-05-15T10:50:11Z</time>
      </trkpt>
      <trkpt lat="48.8286" lon="2.42587">
        <ele>54</ele>
        <time>2014-05-15T10:50:12Z</time>
      </trkpt>
      <trkpt lat="48.82861" lon="2.42588">
        <ele>55</ele>
        <time>2014-05-15T10:50:13Z</time>
      </trkpt>
      <trkpt lat="48.82861" lon="2.42589">
        <ele>55</ele>
        <time>2014-05-15T10:50:14Z</time>
      </trkpt>
      <trkpt lat="48.82862" lon="2.4259">
        <ele>54</ele>
        <time>2014-05-15T10:50:15Z</time>
      </trkpt>
      <trkpt lat="48.82864" lon="2.42591">
        <ele>54</ele>
        <time>2014-05-15T10:50:16Z</time>
      </trkpt>
      <trkpt lat="48.82865" lon="2.42592">
        <ele>54</ele>
        <time>2014-05-15T10:50:17Z</time>
      </trkpt>
      <trkpt lat="48.82866" lon="2.42593">
        <ele>55</ele>
        <time>2014-05-15T10:50:18Z</time>
      </trkpt>
      <trkpt lat="48.82867" lon="2.42594">
        <ele>54</ele>
        <time>2014-05-15T10:50:19Z</time>
      </trkpt>
      <trkpt lat="48.82868" lon="2.42595">
        <ele>55</ele>
        <time>2014-05-15T10:50:20Z</time>
      </trkpt>
      <trkpt lat="48.82869" lon="2.42595">
        <ele>54</ele>
        <time>2014-05-15T10:50:21Z</time>
      </trkpt>
      <trkpt lat="48.8287" lon="2.42596">
        <ele>56</ele>
        <time>2014-05-15T10:50:22Z</time>
      </trkpt>
      <trkpt lat="48.82872" lon="2.42597">
        <ele>55</ele>
        <time>2014-05-15T10:50:23Z</time>
      </trkpt>
      <trkpt lat="48.82873" lon="2.42598">
        <ele>55</ele>
        <time>2014-05-15T10:50:24Z</time>
      </trkpt>
      <trkpt lat="48.82873" lon="2.42599">
        <ele>55</ele>
        <time>2014-05-15T10:50:25Z</time>
      </trkpt>
      <trkpt lat="48.82874" lon="2.426">
        <ele>56</ele>
        <time>2014-05-15T10:50:26Z</time>
      </trkpt>
      <trkpt lat="48.82875" lon="2.42601">
        <ele>57</ele>
        <time>2014-05-15T10:50:27Z</time>
      </trkpt>
      <trkpt lat="48.82876" lon="2.42602">
        <ele>58</ele>
        <time>2014-05-15T10:50:28Z</time>
      </trkpt>
      <trkpt lat="48.82877" lon="2.42603">
        <ele>58</ele>
        <time>2014-05-15T10:50:29Z</time>
      </trkpt>
      <trkpt lat="48.82878" lon="2.42604">
        <ele>58</ele>
        <time>2014-05-15T10:50:30Z</time>
      </trkpt>
      <trkpt lat="48.82878" lon="2.42605">
        <ele>58</ele>
        <time>2014-05-15T10:50:31Z</time>
      </trkpt>
      <trkpt lat="48.82879" lon="2.42605">
        <ele>59</ele>
        <time>2014-05-15T10:50:32Z</time>
      </trkpt>
      <trkpt lat="48.8288" lon="2.42606">
        <ele>60</ele>
        <time>2014-05-15T10:50:33Z</time>
      </trkpt>
      <trkpt lat="48.82881" lon="2.42607">
        <ele>59</ele>
        <time>2014-05-15T10:50:34Z</time>
      </trkpt>
      <trkpt lat="48.82882" lon="2.42608">
        <ele>59</ele>
        <time>2014-05-15T10:50:35Z</time>
      </trkpt>
      <trkpt lat="48.82883" lon="2.42609">
        <ele>58</ele>
        <time>2014-05-15T10:50:36Z</time>
      </trkpt>
      <trkpt lat="48.82885" lon="2.4261">
        <ele>59</ele>
        <time>2014-05-15T10:50:37Z</time>
      </trkpt>
      <trkpt lat="48.82886" lon="2.4261">
        <ele>58</ele>
        <time>2014-05-15T10:50:38Z</time>
      </trkpt>
      <trkpt lat="48.82887" lon="2.42611">
        <ele>59</ele>
        <time>2014-05-15T10:50:39Z</time>
      </trkpt>
      <trkpt lat="48.82888" lon="2.42612">
        <ele>58</ele>
        <time>2014-05-15T10:50:40Z</time>
      </trkpt>
      <trkpt lat="48.82889" lon="2.42614">
        <ele>59</ele>
        <time>2014-05-15T10:50:41Z</time>
      </trkpt>
      <trkpt lat="48.82889" lon="2.42616">
        <ele>59</ele>
        <time>2014-05-15T10:50:42Z</time>
      </trkpt>
      <trkpt lat="48.82889" lon="2.42618">
        <ele>61</ele>
        <time>2014-05-15T10:50:43Z</time>
      </trkpt>
      <trkpt lat="48.82888" lon="2.4262">
        <ele>60</ele>
        <time>2014-05-15T10:50:44Z</time>
      </trkpt>
      <trkpt lat="48.82887" lon="2.42623">
        <ele>59</ele>
        <time>2014-05-15T10:50:45Z</time>
      </trkpt>
      <trkpt lat="48.82887" lon="2.42626">
        <ele>61</ele>
        <time>2014-05-15T10:50:46Z</time>
      </trkpt>
      <trkpt lat="48.82887" lon="2.42629">
        <ele>61</ele>
        <time>2014-05-15T10:50:47Z</time>
      </trkpt>
      <trkpt lat="48.82886" lon="2.42632">
        <ele>62</ele>
        <time>2014-05-15T10:50:48Z</time>
      </trkpt>
      <trkpt lat="48.82885" lon="2.42635">
        <ele>61</ele>
        <time>2014-05-15T10:50:49Z</time>
      </trkpt>
      <trkpt lat="48.82885" lon="2.42638">
        <ele>61</ele>
        <time>2014-05-15T10:50:50Z</time>
      </trkpt>
      <trkpt lat="48.82884" lon="2.42641">
        <ele>60</ele>
        <time>2014-05-15T10:50:51Z</time>
      </trkpt>
      <trkpt lat="48.82883" lon="2.42644">
        <ele>61</ele>
        <time>2014-05-15T10:50:52Z</time>
      </trkpt>
      <trkpt lat="48.82883" lon="2.42646">
        <ele>60</ele>
        <time>2014-05-15T10:50:53Z</time>
      </trkpt>
      <trkpt lat="48.82882" lon="2.42647">
        <ele>58</ele>
        <time>2014-05-15T10:50:54Z</time>
      </trkpt>
      <trkpt lat="48.82881" lon="2.42649">
        <ele>59</ele>
        <time>2014-05-15T10:50:55Z</time>
      </trkpt>
      <trkpt lat="48.8288" lon="2.42651">
        <ele>55</ele>
        <time>2014-05-15T10:50:56Z</time>
      </trkpt>
      <trkpt lat="48.8288" lon="2.42652">
        <ele>53</ele>
        <time>2014-05-15T10:50:57Z</time>
      </trkpt>
      <trkpt lat="48.8288" lon="2.42654">
        <ele>53</ele>
        <time>2014-05-15T10:50:58Z</time>
      </trkpt>
      <trkpt lat="48.8288" lon="2.42656">
        <ele>53</ele>
        <time>2014-05-15T10:50:59Z</time>
      </trkpt>
      <trkpt lat="48.8288" lon="2.42657">
        <ele>54</ele>
        <time>2014-05-15T10:51:00Z</time>
      </trkpt>
      <trkpt lat="48.82879" lon="2.4266">
        <ele>54</ele>
        <time>2014-05-15T10:51:01Z</time>
      </trkpt>
      <trkpt lat="48.82879" lon="2.42662">
        <ele>55</ele>
        <time>2014-05-15T10:51:02Z</time>
      </trkpt>
      <trkpt lat="48.82879" lon="2.42664">
        <ele>54</ele>
        <time>2014-05-15T10:51:03Z</time>
      </trkpt>
      <trkpt lat="48.82878" lon="2.42666">
        <ele>54</ele>
        <time>2014-05-15T10:51:04Z</time>
      </trkpt>
      <trkpt lat="48.82878" lon="2.42667">
        <ele>53</ele>
        <time>2014-05-15T10:51:05Z</time>
      </trkpt>
      <trkpt lat="48.82877" lon="2.42669">
        <ele>52</ele>
        <time>2014-05-15T10:51:06Z</time>
      </trkpt>
      <trkpt lat="48.82877" lon="2.4267">
        <ele>52</ele>
        <time>2014-05-15T10:51:07Z</time>
      </trkpt>
      <trkpt lat="48.82876" lon="2.42672">
        <ele>53</ele>
        <time>2014-05-15T10:51:08Z</time>
      </trkpt>
      <trkpt lat="48.82876" lon="2.42674">
        <ele>53</ele>
        <time>2014-05-15T10:51:09Z</time>
      </trkpt>
      <trkpt lat="48.82875" lon="2.42676">
        <ele>53</ele>
        <time>2014-05-15T10:51:10Z</time>
      </trkpt>
      <trkpt lat="48.82874" lon="2.42678">
        <ele>53</ele>
        <time>2014-05-15T10:51:11Z</time>
      </trkpt>
      <trkpt lat="48.82874" lon="2.4268">
        <ele>53</ele>
        <time>2014-05-15T10:51:12Z</time>
      </trkpt>
      <trkpt lat="48.82873" lon="2.42681">
        <ele>54</ele>
        <time>2014-05-15T10:51:13Z</time>
      </trkpt>
      <trkpt lat="48.82872" lon="2.42683">
        <ele>53</ele>
        <time>2014-05-15T10:51:14Z</time>
      </trkpt>
      <trkpt lat="48.82871" lon="2.42684">
        <ele>54</ele>
        <time>2014-05-15T10:51:15Z</time>
      </trkpt>
      <trkpt lat="48.8287" lon="2.42683">
        <ele>53</ele>
        <time>2014-05-15T10:51:16Z</time>
      </trkpt>
      <trkpt lat="48.82869" lon="2.42682">
        <ele>52</ele>
        <time>2014-05-15T10:51:17Z</time>
      </trkpt>
      <trkpt lat="48.82868" lon="2.42681">
        <ele>51</ele>
        <time>2014-05-15T10:51:18Z</time>
      </trkpt>
      <trkpt lat="48.82866" lon="2.42681">
        <ele>51</ele>
        <time>2014-05-15T10:51:19Z</time>
      </trkpt>
      <trkpt lat="48.82865" lon="2.4268">
        <ele>49</ele>
        <time>2014-05-15T10:51:20Z</time>
      </trkpt>
      <trkpt lat="48.82864" lon="2.42678">
        <ele>49</ele>
        <time>2014-05-15T10:51:21Z</time>
      </trkpt>
      <trkpt lat="48.82863" lon="2.42678">
        <ele>49</ele>
        <time>2014-05-15T10:51:22Z</time>
      </trkpt>
      <trkpt lat="48.82862" lon="2.42677">
        <ele>48</ele>
        <time>2014-05-15T10:51:23Z</time>
      </trkpt>
      <trkpt lat="48.8286" lon="2.42676">
        <ele>50</ele>
        <time>2014-05-15T10:51:24Z</time>
      </trkpt>
      <trkpt lat="48.82859" lon="2.42676">
        <ele>51</ele>
        <time>2014-05-15T10:51:25Z</time>
      </trkpt>
      <trkpt lat="48.82858" lon="2.42675">
        <ele>50</ele>
        <time>2014-05-15T10:51:26Z</time>
      </trkpt>
      <trkpt lat="48.82856" lon="2.42675">
        <ele>50</ele>
        <time>2014-05-15T10:51:27Z</time>
      </trkpt>
      <trkpt lat="48.82855" lon="2.42674">
        <ele>50</ele>
        <time>2014-05-15T10:51:28Z</time>
      </trkpt>
      <trkpt lat="48.82854" lon="2.42673">
        <ele>50</ele>
        <time>2014-05-15T10:51:29Z</time>
      </trkpt>
      <trkpt lat="48.82852" lon="2.42672">
        <ele>50</ele>
        <time>2014-05-15T10:51:30Z</time>
      </trkpt>
      <trkpt lat="48.82851" lon="2.42671">
        <ele>50</ele>
        <time>2014-05-15T10:51:31Z</time>
      </trkpt>
      <trkpt lat="48.8285" lon="2.4267">
        <ele>50</ele>
        <time>2014-05-15T10:51:32Z</time>
      </trkpt>
      <trkpt lat="48.82848" lon="2.42668">
        <ele>49</ele>
        <time>2014-05-15T10:51:33Z</time>
      </trkpt>
      <trkpt lat="48.82846" lon="2.42666">
        <ele>50</ele>
        <time>2014-05-15T10:51:34Z</time>
      </trkpt>
      <trkpt lat="48.82845" lon="2.42665">
        <ele>50</ele>
        <time>2014-05-15T10:51:35Z</time>
      </trkpt>
      <trkpt lat="48.82843" lon="2.42665">
        <ele>50</ele>
        <time>2014-05-15T10:51:36Z</time>
      </trkpt>
      <trkpt lat="48.82842" lon="2.42665">
        <ele>51</ele>
        <time>2014-05-15T10:51:37Z</time>
      </trkpt>
      <trkpt lat="48.82841" lon="2.42665">
        <ele>52</ele>
        <time>2014-05-15T10:51:38Z</time>
      </trkpt>
      <trkpt lat="48.8284" lon="2.42664">
        <ele>51</ele>
        <time>2014-05-15T10:51:39Z</time>
      </trkpt>
      <trkpt lat="48.82839" lon="2.42664">
        <ele>53</ele>
        <time>2014-05-15T10:51:40Z</time>
      </trkpt>
      <trkpt lat="48.82838" lon="2.42663">
        <ele>54</ele>
        <time>2014-05-15T10:51:41Z</time>
      </trkpt>
      <trkpt lat="48.82836" lon="2.42663">
        <ele>54</ele>
        <time>2014-05-15T10:51:42Z</time>
      </trkpt>
      <trkpt lat="48.82836" lon="2.42662">
        <ele>51</ele>
        <time>2014-05-15T10:51:43Z</time>
      </trkpt>
      <trkpt lat="48.82835" lon="2.42661">
        <ele>51</ele>
        <time>2014-05-15T10:51:44Z</time>
      </trkpt>
      <trkpt lat="48.82834" lon="2.4266">
        <ele>52</ele>
        <time>2014-05-15T10:51:45Z</time>
      </trkpt>
      <trkpt lat="48.82832" lon="2.42659">
        <ele>52</ele>
        <time>2014-05-15T10:51:46Z</time>
      </trkpt>
      <trkpt lat="48.82831" lon="2.42657">
        <ele>53</ele>
        <time>2014-05-15T10:51:47Z</time>
      </trkpt>
      <trkpt lat="48.82829" lon="2.42655">
        <ele>53</ele>
        <time>2014-05-15T10:51:48Z</time>
      </trkpt>
      <trkpt lat="48.82828" lon="2.42654">
        <ele>52</ele>
        <time>2014-05-15T10:51:49Z</time>
      </trkpt>
      <trkpt lat="48.82826" lon="2.42652">
        <ele>51</ele>
        <time>2014-05-15T10:51:50Z</time>
      </trkpt>
      <trkpt lat="48.82825" lon="2.42651">
        <ele>51</ele>
        <time>2014-05-15T10:51:51Z</time>
      </trkpt>
      <trkpt lat="48.82824" lon="2.4265">
        <ele>53</ele>
        <time>2014-05-15T10:51:52Z</time>
      </trkpt>
      <trkpt lat="48.82822" lon="2.42649">
        <ele>54</ele>
        <time>2014-05-15T10:51:53Z</time>
      </trkpt>
      <trkpt lat="48.82821" lon="2.42647">
        <ele>52</ele>
        <time>2014-05-15T10:51:54Z</time>
      </trkpt>
      <trkpt lat="48.8282" lon="2.42646">
        <ele>51</ele>
        <time>2014-05-15T10:51:55Z</time>
      </trkpt>
      <trkpt lat="48.82819" lon="2.42645">
        <ele>51</ele>
        <time>2014-05-15T10:51:56Z</time>
      </trkpt>
      <trkpt lat="48.82818" lon="2.42644">
        <ele>52</ele>
        <time>2014-05-15T10:51:57Z</time>
      </trkpt>
      <trkpt lat="48.82817" lon="2.42643">
        <ele>51</ele>
        <time>2014-05-15T10:51:58Z</time>
      </trkpt>
      <trkpt lat="48.82816" lon="2.42643">
        <ele>52</ele>
        <time>2014-05-15T10:51:59Z</time>
      </trkpt>
      <trkpt lat="48.82815" lon="2.42642">
        <ele>52</ele>
        <time>2014-05-15T10:52:00Z</time>
      </trkpt>
      <trkpt lat="48.82814" lon="2.42642">
        <ele>52</ele>
        <time>2014-05-15T10:52:01Z</time>
      </trkpt>
      <trkpt lat="48.82813" lon="2.42641">
        <ele>52</ele>
        <time>2014-05-15T10:52:02Z</time>
      </trkpt>
      <trkpt lat="48.82812" lon="2.4264">
        <ele>51</ele>
        <time>2014-05-15T10:52:03Z</time>
      </trkpt>
      <trkpt lat="48.82811" lon="2.42639">
        <ele>51</ele>
        <time>2014-05-15T10:52:04Z</time>
      </trkpt>
      <trkpt lat="48.8281" lon="2.42638">
        <ele>49</ele>
        <time>2014-05-15T10:52:05Z</time>
      </trkpt>
      <trkpt lat="48.82809" lon="2.42637">
        <ele>48</ele>
        <time>2014-05-15T10:52:06Z</time>
      </trkpt>
      <trkpt lat="48.82808" lon="2.42636">
        <ele>49</ele>
        <time>2014-05-15T10:52:07Z</time>
      </trkpt>
      <trkpt lat="48.82807" lon="2.42635">
        <ele>48</ele>
        <time>2014-05-15T10:52:08Z</time>
      </trkpt>
      <trkpt lat="48.82806" lon="2.42634">
        <ele>47</ele>
        <time>2014-05-15T10:52:09Z</time>
      </trkpt>
      <trkpt lat="48.82804" lon="2.42634">
        <ele>48</ele>
        <time>2014-05-15T10:52:10Z</time>
      </trkpt>
      <trkpt lat="48.82803" lon="2.42633">
        <ele>49</ele>
        <time>2014-05-15T10:52:11Z</time>
      </trkpt>
      <trkpt lat="48.82801" lon="2.42632">
        <ele>50</ele>
        <time>2014-05-15T10:52:12Z</time>
      </trkpt>
      <trkpt lat="48.828" lon="2.42631">
        <ele>51</ele>
        <time>2014-05-15T10:52:13Z</time>
      </trkpt>
      <trkpt lat="48.82799" lon="2.4263">
        <ele>51</ele>
        <time>2014-05-15T10:52:14Z</time>
      </trkpt>
      <trkpt lat="48.82797" lon="2.42629">
        <ele>50</ele>
        <time>2014-05-15T10:52:15Z</time>
      </trkpt>
      <trkpt lat="48.82796" lon="2.42627">
        <ele>51</ele>
        <time>2014-05-15T10:52:16Z</time>
      </trkpt>
      <trkpt lat="48.82794" lon="2.42627">
        <ele>50</ele>
        <time>2014-05-15T10:52:17Z</time>
      </trkpt>
      <trkpt lat="48.82793" lon="2.42626">
        <ele>51</ele>
        <time>2014-05-15T10:52:18Z</time>
      </trkpt>
      <trkpt lat="48.82792" lon="2.42625">
        <ele>51</ele>
        <time>2014-05-15T10:52:19Z</time>
      </trkpt>
      <trkpt lat="48.8279" lon="2.42623">
        <ele>52</ele>
        <time>2014-05-15T10:52:20Z</time>
      </trkpt>
      <trkpt lat="48.82788" lon="2.42622">
        <ele>52</ele>
        <time>2014-05-15T10:52:21Z</time>
      </trkpt>
      <trkpt lat="48.82787" lon="2.42621">
        <ele>54</ele>
        <time>2014-05-15T10:52:22Z</time>
      </trkpt>
      <trkpt lat="48.82785" lon="2.42621">
        <ele>53</ele>
        <time>2014-05-15T10:52:23Z</time>
      </trkpt>
      <trkpt lat="48.82784" lon="2.4262">
        <ele>52</ele>
        <time>2014-05-15T10:52:24Z</time>
      </trkpt>
      <trkpt lat="48.82782" lon="2.42618">
        <ele>52</ele>
        <time>2014-05-15T10:52:25Z</time>
      </trkpt>
      <trkpt lat="48.82781" lon="2.42616">
        <ele>53</ele>
        <time>2014-05-15T10:52:26Z</time>
      </trkpt>
      <trkpt lat="48.8278" lon="2.42615">
        <ele>53</ele>
        <time>2014-05-15T10:52:27Z</time>
      </trkpt>
      <trkpt lat="48.82779" lon="2.42613">
        <ele>52</ele>
        <time>2014-05-15T10:52:28Z</time>
      </trkpt>
      <trkpt lat="48.82778" lon="2.42613">
        <ele>52</ele>
        <time>2014-05-15T10:52:29Z</time>
      </trkpt>
      <trkpt lat="48.82776" lon="2.42612">
        <ele>51</ele>
        <time>2014-05-15T10:52:30Z</time>
      </trkpt>
      <trkpt lat="48.82775" lon="2.42611">
        <ele>53</ele>
        <time>2014-05-15T10:52:31Z</time>
      </trkpt>
      <trkpt lat="48.82774" lon="2.4261">
        <ele>52</ele>
        <time>2014-05-15T10:52:32Z</time>
      </trkpt>
      <trkpt lat="48.82772" lon="2.42609">
        <ele>51</ele>
        <time>2014-05-15T10:52:33Z</time>
      </trkpt>
      <trkpt lat="48.82771" lon="2.42608">
        <ele>51</ele>
        <time>2014-05-15T10:52:34Z</time>
      </trkpt>
      <trkpt lat="48.8277" lon="2.42608">
        <ele>51</ele>
        <time>2014-05-15T10:52:35Z</time>
      </trkpt>
      <trkpt lat="48.82769" lon="2.42607">
        <ele>50</ele>
        <time>2014-05-15T10:52:36Z</time>
      </trkpt>
      <trkpt lat="48.82768" lon="2.42606">
        <ele>50</ele>
        <time>2014-05-15T10:52:37Z</time>
      </trkpt>
      <trkpt lat="48.82767" lon="2.42605">
        <ele>50</ele>
        <time>2014-05-15T10:52:38Z</time>
      </trkpt>
      <trkpt lat="48.82766" lon="2.42605">
        <ele>52</ele>
        <time>2014-05-15T10:52:39Z</time>
      </trkpt>
      <trkpt lat="48.82765" lon="2.42604">
        <ele>51</ele>
        <time>2014-05-15T10:52:40Z</time>
      </trkpt>
      <trkpt lat="48.82763" lon="2.42602">
        <ele>52</ele>
        <time>2014-05-15T10:52:41Z</time>
      </trkpt>
      <trkpt lat="48.82762" lon="2.42602">
        <ele>53</ele>
        <time>2014-05-15T10:52:42Z</time>
      </trkpt>
      <trkpt lat="48.8276" lon="2.42601">
        <ele>52</ele>
        <time>2014-05-15T10:52:43Z</time>
      </trkpt>
      <trkpt lat="48.82759" lon="2.42599">
        <ele>51</ele>
        <time>2014-05-15T10:52:44Z</time>
      </trkpt>
      <trkpt lat="48.82758" lon="2.42598">
        <ele>50</ele>
        <time>2014-05-15T10:52:45Z</time>
      </trkpt>
      <trkpt lat="48.82756" lon="2.42597">
        <ele>49</ele>
        <time>2014-05-15T10:52:46Z</time>
      </trkpt>
      <trkpt lat="48.82755" lon="2.42596">
        <ele>49</ele>
        <time>2014-05-15T10:52:47Z</time>
      </trkpt>
      <trkpt lat="48.82754" lon="2.42596">
        <ele>49</ele>
        <time>2014-05-15T10:52:48Z</time>
      </trkpt>
      <trkpt lat="48.82752" lon="2.42595">
        <ele>49</ele>
        <time>2014-05-15T10:52:49Z</time>
      </trkpt>
      <trkpt lat="48.82751" lon="2.42594">
        <ele>46</ele>
        <time>2014-05-15T10:52:50Z</time>
      </trkpt>
      <trkpt lat="48.8275" lon="2.42593">
        <ele>47</ele>
        <time>2014-05-15T10:52:51Z</time>
      </trkpt>
      <trkpt lat="48.82749" lon="2.42592">
        <ele>47</ele>
        <time>2014-05-15T10:52:52Z</time>
      </trkpt>
      <trkpt lat="48.82747" lon="2.42591">
        <ele>47</ele>
        <time>2014-05-15T10:52:53Z</time>
      </trkpt>
      <trkpt lat="48.82746" lon="2.4259">
        <ele>48</ele>
        <time>2014-05-15T10:52:54Z</time>
      </trkpt>
      <trkpt lat="48.82745" lon="2.42589">
        <ele>48</ele>
        <time>2014-05-15T10:52:55Z</time>
      </trkpt>
      <trkpt lat="48.82743" lon="2.42588">
        <ele>49</ele>
        <time>2014-05-15T10:52:56Z</time>
      </trkpt>
      <trkpt lat="48.82741" lon="2.42587">
        <ele>51</ele>
        <time>2014-05-15T10:52:57Z</time>
      </trkpt>
      <trkpt lat="48.8274" lon="2.42587">
        <ele>50</ele>
        <time>2014-05-15T10:52:58Z</time>
      </trkpt>
      <trkpt lat="48.82738" lon="2.42586">
        <ele>50</ele>
        <time>2014-05-15T10:52:59Z</time>
      </trkpt>
      <trkpt lat="48.82737" lon="2.42585">
        <ele>52</ele>
        <time>2014-05-15T10:53:00Z</time>
      </trkpt>
      <trkpt lat="48.82736" lon="2.42585">
        <ele>51</ele>
        <time>2014-05-15T10:53:01Z</time>
      </trkpt>
      <trkpt lat="48.82735" lon="2.42585">
        <ele>49</ele>
        <time>2014-05-15T10:53:02Z</time>
      </trkpt>
      <trkpt lat="48.82734" lon="2.42584">
        <ele>49</ele>
        <time>2014-05-15T10:53:03Z</time>
      </trkpt>
      <trkpt lat="48.82732" lon="2.42583">
        <ele>51</ele>
        <time>2014-05-15T10:53:04Z</time>
      </trkpt>
      <trkpt lat="48.82731" lon="2.42583">
        <ele>53</ele>
        <time>2014-05-15T10:53:05Z</time>
      </trkpt>
      <trkpt lat="48.82729" lon="2.42583">
        <ele>54</ele>
        <time>2014-05-15T10:53:06Z</time>
      </trkpt>
      <trkpt lat="48.82728" lon="2.42583">
        <ele>55</ele>
        <time>2014-05-15T10:53:07Z</time>
      </trkpt>
      <trkpt lat="48.82727" lon="2.42582">
        <ele>53</ele>
        <time>2014-05-15T10:53:08Z</time>
      </trkpt>
      <trkpt lat="48.82726" lon="2.42582">
        <ele>51</ele>
        <time>2014-05-15T10:53:09Z</time>
      </trkpt>
      <trkpt lat="48.82725" lon="2.42581">
        <ele>50</ele>
        <time>2014-05-15T10:53:10Z</time>
      </trkpt>
      <trkpt lat="48.82725" lon="2.42581">
        <ele>50</ele>
        <time>2014-05-15T10:53:11Z</time>
      </trkpt>
      <trkpt lat="48.82724" lon="2.4258">
        <ele>51</ele>
        <time>2014-05-15T10:53:12Z</time>
      </trkpt>
      <trkpt lat="48.82724" lon="2.42579">
        <ele>52</ele>
        <time>2014-05-15T10:53:13Z</time>
      </trkpt>
      <trkpt lat="48.82723" lon="2.42579">
        <ele>52</ele>
        <time>2014-05-15T10:53:14Z</time>
      </trkpt>
      <trkpt lat="48.82722" lon="2.42578">
        <ele>52</ele>
        <time>2014-05-15T10:53:15Z</time>
      </trkpt>
      <trkpt lat="48.8272" lon="2.42577">
        <ele>52</ele>
        <time>2014-05-15T10:53:16Z</time>
      </trkpt>
      <trkpt lat="48.82719" lon="2.42576">
        <ele>51</ele>
        <time>2014-05-15T10:53:17Z</time>
      </trkpt>
      <trkpt lat="48.82718" lon="2.42575">
        <ele>50</ele>
        <time>2014-05-15T10:53:18Z</time>
      </trkpt>
      <trkpt lat="48.82717" lon="2.42574">
        <ele>49</ele>
        <time>2014-05-15T10:53:19Z</time>
      </trkpt>
      <trkpt lat="48.82716" lon="2.42574">
        <ele>49</ele>
        <time>2014-05-15T10:53:20Z</time>
      </trkpt>
      <trkpt lat="48.82714" lon="2.42574">
        <ele>48</ele>
        <time>2014-05-15T10:53:21Z</time>
      </trkpt>
      <trkpt lat="48.82713" lon="2.42574">
        <ele>49</ele>
        <time>2014-05-15T10:53:22Z</time>
      </trkpt>
      <trkpt lat="48.82712" lon="2.42574">
        <ele>49</ele>
        <time>2014-05-15T10:53:23Z</time>
      </trkpt>
      <trkpt lat="48.82711" lon="2.42575">
        <ele>50</ele>
        <time>2014-05-15T10:53:24Z</time>
      </trkpt>
      <trkpt lat="48.82709" lon="2.42577">
        <ele>51</ele>
        <time>2014-05-15T10:53:25Z</time>
      </trkpt>
      <trkpt lat="48.82708" lon="2.42578">
        <ele>52</ele>
        <time>2014-05-15T10:53:26Z</time>
      </trkpt>
      <trkpt lat="48.82707" lon="2.4258">
        <ele>51</ele>
        <time>2014-05-15T10:53:27Z</time>
      </trkpt>
      <trkpt lat="48.82705" lon="2.42581">
        <ele>51</ele>
        <time>2014-05-15T10:53:28Z</time>
      </trkpt>
      <trkpt lat="48.82704" lon="2.42582">
        <ele>50</ele>
        <time>2014-05-15T10:53:29Z</time>
      </trkpt>
      <trkpt lat="48.82703" lon="2.42584">
        <ele>50</ele>
        <time>2014-05-15T10:53:30Z</time>
      </trkpt>
      <trkpt lat="48.82703" lon="2.42586">
        <ele>52</ele>
        <time>2014-05-15T10:53:31Z</time>
      </trkpt>
      <trkpt lat="48.82702" lon="2.42588">
        <ele>51</ele>
        <time>2014-05-15T10:53:32Z</time>
      </trkpt>
      <trkpt lat="48.82701" lon="2.42591">
        <ele>51</ele>
        <time>2014-05-15T10:53:33Z</time>
      </trkpt>
      <trkpt lat="48.827" lon="2.42594">
        <ele>52</ele>
        <time>2014-05-15T10:53:34Z</time>
      </trkpt>
      <trkpt lat="48.82699" lon="2.42597">
        <ele>53</ele>
        <time>2014-05-15T10:53:35Z</time>
      </trkpt>
      <trkpt lat="48.82697" lon="2.42599">
        <ele>52</ele>
        <time>2014-05-15T10:53:36Z</time>
      </trkpt>
      <trkpt lat="48.82696" lon="2.42602">
        <ele>52</ele>
        <time>2014-05-15T10:53:37Z</time>
      </trkpt>
      <trkpt lat="48.82695" lon="2.42603">
        <ele>50</ele>
        <time>2014-05-15T10:53:38Z</time>
      </trkpt>
      <trkpt lat="48.82695" lon="2.42605">
        <ele>51</ele>
        <time>2014-05-15T10:53:39Z</time>
      </trkpt>
      <trkpt lat="48.82695" lon="2.42607">
        <ele>48</ele>
        <time>2014-05-15T10:53:40Z</time>
      </trkpt>
      <trkpt lat="48.82694" lon="2.42609">
        <ele>48</ele>
        <time>2014-05-15T10:53:41Z</time>
      </trkpt>
      <trkpt lat="48.82693" lon="2.4261">
        <ele>49</ele>
        <time>2014-05-15T10:53:42Z</time>
      </trkpt>
      <trkpt lat="48.82693" lon="2.42611">
        <ele>48</ele>
        <time>2014-05-15T10:53:43Z</time>
      </trkpt>
      <trkpt lat="48.82692" lon="2.42613">
        <ele>49</ele>
        <time>2014-05-15T10:53:44Z</time>
      </trkpt>
      <trkpt lat="48.82691" lon="2.42615">
        <ele>50</ele>
        <time>2014-05-15T10:53:45Z</time>
      </trkpt>
      <trkpt lat="48.8269" lon="2.42617">
        <ele>50</ele>
        <time>2014-05-15T10:53:46Z</time>
      </trkpt>
      <trkpt lat="48.82688" lon="2.42618">
        <ele>49</ele>
        <time>2014-05-15T10:53:47Z</time>
      </trkpt>
      <trkpt lat="48.82687" lon="2.42618">
        <ele>48</ele>
        <time>2014-05-15T10:53:48Z</time>
      </trkpt>
      <trkpt lat="48.82686" lon="2.42619">
        <ele>48</ele>
        <time>2014-05-15T10:53:49Z</time>
      </trkpt>
      <trkpt lat="48.82686" lon="2.42621">
        <ele>48</ele>
        <time>2014-05-15T10:53:50Z</time>
      </trkpt>
      <trkpt lat="48.82685" lon="2.42622">
        <ele>49</ele>
        <time>2014-05-15T10:53:51Z</time>
      </trkpt>
      <trkpt lat="48.82684" lon="2.42624">
        <ele>48</ele>
        <time>2014-05-15T10:53:52Z</time>
      </trkpt>
      <trkpt lat="48.82683" lon="2.42625">
        <ele>50</ele>
        <time>2014-05-15T10:53:53Z</time>
      </trkpt>
      <trkpt lat="48.82682" lon="2.42627">
        <ele>50</ele>
        <time>2014-05-15T10:53:54Z</time>
      </trkpt>
      <trkpt lat="48.82681" lon="2.42629">
        <ele>52</ele>
        <time>2014-05-15T10:53:55Z</time>
      </trkpt>
      <trkpt lat="48.8268" lon="2.42631">
        <ele>50</ele>
        <time>2014-05-15T10:53:56Z</time>
      </trkpt>
      <trkpt lat="48.82679" lon="2.42633">
        <ele>50</ele>
        <time>2014-05-15T10:53:57Z</time>
      </trkpt>
      <trkpt lat="48.82679" lon="2.42635">
        <ele>49</ele>
        <time>2014-05-15T10:53:58Z</time>
      </trkpt>
      <trkpt lat="48.82678" lon="2.42637">
        <ele>50</ele>
        <time>2014-05-15T10:53:59Z</time>
      </trkpt>
      <trkpt lat="48.82677" lon="2.42639">
        <ele>50</ele>
        <time>2014-05-15T10:54:00Z</time>
      </trkpt>
      <trkpt lat="48.82677" lon="2.42641">
        <ele>51</ele>
        <time>2014-05-15T10:54:01Z</time>
      </trkpt>
      <trkpt lat="48.82677" lon="2.42642">
        <ele>51</ele>
        <time>2014-05-15T10:54:02Z</time>
      </trkpt>
      <trkpt lat="48.82676" lon="2.42644">
        <ele>51</ele>
        <time>2014-05-15T10:54:03Z</time>
      </trkpt>
      <trkpt lat="48.82676" lon="2.42644">
        <ele>51</ele>
        <time>2014-05-15T10:54:04Z</time>
      </trkpt>
      <trkpt lat="48.82676" lon="2.42645">
        <ele>51</ele>
        <time>2014-05-15T10:54:05Z</time>
      </trkpt>
      <trkpt lat="48.82676" lon="2.42646">
        <ele>51</ele>
        <time>2014-05-15T10:54:06Z</time>
      </trkpt>
      <trkpt lat="48.82675" lon="2.42647">
        <ele>51</ele>
        <time>2014-05-15T10:54:07Z</time>
      </trkpt>
      <trkpt lat="48.82675" lon="2.42649">
        <ele>51</ele>
        <time>2014-05-15T10:54:08Z</time>
      </trkpt>
      <trkpt lat="48.82674" lon="2.42651">
        <ele>52</ele>
        <time>2014-05-15T10:54:09Z</time>
      </trkpt>
      <trkpt lat="48.82674" lon="2.42654">
        <ele>52</ele>
        <time>2014-05-15T10:54:10Z</time>
      </trkpt>
      <trkpt lat="48.82673" lon="2.42656">
        <ele>51</ele>
        <time>2014-05-15T10:54:11Z</time>
      </trkpt>
      <trkpt lat="48.82673" lon="2.42659">
        <ele>50</ele>
        <time>2014-05-15T10:54:12Z</time>
      </trkpt>
      <trkpt lat="48.82672" lon="2.42662">
        <ele>50</ele>
        <time>2014-05-15T10:54:13Z</time>
      </trkpt>
      <trkpt lat="48.82672" lon="2.42664">
        <ele>49</ele>
        <time>2014-05-15T10:54:14Z</time>
      </trkpt>
      <trkpt lat="48.82671" lon="2.42666">
        <ele>48</ele>
        <time>2014-05-15T10:54:15Z</time>
      </trkpt>
      <trkpt lat="48.8267" lon="2.42669">
        <ele>49</ele>
        <time>2014-05-15T10:54:16Z</time>
      </trkpt>
      <trkpt lat="48.8267" lon="2.42671">
        <ele>50</ele>
        <time>2014-05-15T10:54:17Z</time>
      </trkpt>
      <trkpt lat="48.82669" lon="2.42673">
        <ele>49</ele>
        <time>2014-05-15T10:54:18Z</time>
      </trkpt>
      <trkpt lat="48.82669" lon="2.42675">
        <ele>50</ele>
        <time>2014-05-15T10:54:19Z</time>
      </trkpt>
      <trkpt lat="48.82668" lon="2.42677">
        <ele>50</ele>
        <time>2014-05-15T10:54:20Z</time>
      </trkpt>
      <trkpt lat="48.82667" lon="2.42679">
        <ele>50</ele>
        <time>2014-05-15T10:54:21Z</time>
      </trkpt>
      <trkpt lat="48.82667" lon="2.42681">
        <ele>51</ele>
        <time>2014-05-15T10:54:22Z</time>
      </trkpt>
      <trkpt lat="48.82666" lon="2.42682">
        <ele>51</ele>
        <time>2014-05-15T10:54:23Z</time>
      </trkpt>
      <trkpt lat="48.82666" lon="2.42684">
        <ele>50</ele>
        <time>2014-05-15T10:54:24Z</time>
      </trkpt>
      <trkpt lat="48.82665" lon="2.42686">
        <ele>51</ele>
        <time>2014-05-15T10:54:25Z</time>
      </trkpt>
      <trkpt lat="48.82664" lon="2.42688">
        <ele>51</ele>
        <time>2014-05-15T10:54:26Z</time>
      </trkpt>
      <trkpt lat="48.82661" lon="2.42698">
        <ele>47</ele>
        <time>2014-05-15T10:54:32Z</time>
      </trkpt>
      <trkpt lat="48.8266" lon="2.427">
        <ele>48</ele>
        <time>2014-05-15T10:54:34Z</time>
      </trkpt>
      <trkpt lat="48.8266" lon="2.42701">
        <ele>48</ele>
        <time>2014-05-15T10:54:35Z</time>
      </trkpt>
      <trkpt lat="48.82659" lon="2.42703">
        <ele>49</ele>
        <time>2014-05-15T10:54:36Z</time>
      </trkpt>
      <trkpt lat="48.82659" lon="2.42702">
        <ele>49</ele>
        <time>2014-05-15T10:54:37Z</time>
      </trkpt>
      <trkpt lat="48.82659" lon="2.42702">
        <ele>49</ele>
        <time>2014-05-15T10:54:38Z</time>
      </trkpt>
      <trkpt lat="48.82659" lon="2.42701">
        <ele>49</ele>
        <time>2014-05-15T10:54:39Z</time>
      </trkpt>
      <trkpt lat="48.82659" lon="2.42702">
        <ele>49</ele>
        <time>2014-05-15T10:54:40Z</time>
      </trkpt>
      <trkpt lat="48.82659" lon="2.42703">
        <ele>49</ele>
        <time>2014-05-15T10:54:41Z</time>
      </trkpt>
      <trkpt lat="48.82658" lon="2.42703">
        <ele>49</ele>
        <time>2014-05-15T10:54:42Z</time>
      </trkpt>
      <trkpt lat="48.82658" lon="2.42703">
        <ele>49</ele>
        <time>2014-05-15T10:54:43Z</time>
      </trkpt>
      <trkpt lat="48.82657" lon="2.42703">
        <ele>49</ele>
        <time>2014-05-15T10:54:44Z</time>
      </trkpt>
      <trkpt lat="48.82657" lon="2.42703">
        <ele>47</ele>
        <time>2014-05-15T10:54:45Z</time>
      </trkpt>
      <trkpt lat="48.82656" lon="2.42702">
        <ele>48</ele>
        <time>2014-05-15T10:54:46Z</time>
      </trkpt>
      <trkpt lat="48.82655" lon="2.42702">
        <ele>50</ele>
        <time>2014-05-15T10:54:47Z</time>
      </trkpt>
      <trkpt lat="48.82655" lon="2.42702">
        <ele>52</ele>
        <time>2014-05-15T10:54:48Z</time>
      </trkpt>
      <trkpt lat="48.82654" lon="2.42702">
        <ele>50</ele>
        <time>2014-05-15T10:54:49Z</time>
      </trkpt>
      <trkpt lat="48.82653" lon="2.42703">
        <ele>51</ele>
        <time>2014-05-15T10:54:50Z</time>
      </trkpt>
      <trkpt lat="48.82653" lon="2.42702">
        <ele>52</ele>
        <time>2014-05-15T10:54:51Z</time>
      </trkpt>
      <trkpt lat="48.82653" lon="2.42702">
        <ele>52</ele>
        <time>2014-05-15T10:54:52Z</time>
      </trkpt>
      <trkpt lat="48.82652" lon="2.42702">
        <ele>51</ele>
        <time>2014-05-15T10:54:53Z</time>
      </trkpt>
      <trkpt lat="48.82652" lon="2.42702">
        <ele>51</ele>
        <time>2014-05-15T10:54:54Z</time>
      </trkpt>
      <trkpt lat="48.82652" lon="2.42702">
        <ele>52</ele>
        <time>2014-05-15T10:54:55Z</time>
      </trkpt>
      <trkpt lat="48.82652" lon="2.42703">
        <ele>52</ele>
        <time>2014-05-15T10:54:56Z</time>
      </trkpt>
      <trkpt lat="48.82651" lon="2.42703">
        <ele>51</ele>
        <time>2014-05-15T10:54:57Z</time>
      </trkpt>
      <trkpt lat="48.82651" lon="2.42703">
        <ele>52</ele>
        <time>2014-05-15T10:54:58Z</time>
      </trkpt>
      <trkpt lat="48.82652" lon="2.42703">
        <ele>50</ele>
        <time>2014-05-15T10:54:59Z</time>
      </trkpt>
      <trkpt lat="48.82652" lon="2.42703">
        <ele>50</ele>
        <time>2014-05-15T10:55:00Z</time>
      </trkpt>
      <trkpt lat="48.82653" lon="2.42703">
        <ele>49</ele>
        <time>2014-05-15T10:55:01Z</time>
      </trkpt>
      <trkpt lat="48.82653" lon="2.42703">
        <ele>48</ele>
        <time>2014-05-15T10:55:02Z</time>
      </trkpt>
      <trkpt lat="48.82653" lon="2.42704">
        <ele>49</ele>
        <time>2014-05-15T10:55:03Z</time>
      </trkpt>
      <trkpt lat="48.82653" lon="2.42704">
        <ele>49</ele>
        <time>2014-05-15T10:55:04Z</time>
      </trkpt>
      <trkpt lat="48.82653" lon="2.42705">
        <ele>49</ele>
        <time>2014-05-15T10:55:05Z</time>
      </trkpt>
      <trkpt lat="48.82653" lon="2.42705">
        <ele>49</ele>
        <time>2014-05-15T10:55:06Z</time>
      </trkpt>
      <trkpt lat="48.82653" lon="2.42706">
        <ele>49</ele>
        <time>2014-05-15T10:55:07Z</time>
      </trkpt>
      <trkpt lat="48.82652" lon="2.42706">
        <ele>49</ele>
        <time>2014-05-15T10:55:08Z</time>
      </trkpt>
      <trkpt lat="48.82652" lon="2.42706">
        <ele>49</ele>
        <time>2014-05-15T10:55:09Z</time>
      </trkpt>
      <trkpt lat="48.82653" lon="2.42706">
        <ele>49</ele>
        <time>2014-05-15T10:55:10Z</time>
      </trkpt>
      <trkpt lat="48.82653" lon="2.42705">
        <ele>50</ele>
        <time>2014-05-15T10:55:11Z</time>
      </trkpt>
      <trkpt lat="48.82652" lon="2.42705">
        <ele>50</ele>
        <time>2014-05-15T10:55:12Z</time>
      </trkpt>
      <trkpt lat="48.82652" lon="2.42705">
        <ele>50</ele>
        <time>2014-05-15T10:55:13Z</time>
      </trkpt>
      <trkpt lat="48.82652" lon="2.42704">
        <ele>50</ele>
        <time>2014-05-15T10:55:14Z</time>
      </trkpt>
      <trkpt lat="48.82649" lon="2.42703">
        <ele>51</ele>
        <time>2014-05-15T10:55:15Z</time>
      </trkpt>
      <trkpt lat="48.82649" lon="2.42702">
        <ele>51</ele>
        <time>2014-05-15T10:55:16Z</time>
      </trkpt>
      <trkpt lat="48.82648" lon="2.42702">
        <ele>51</ele>
        <time>2014-05-15T10:55:17Z</time>
      </trkpt>
      <trkpt lat="48.82649" lon="2.42702">
        <ele>52</ele>
        <time>2014-05-15T10:55:18Z</time>
      </trkpt>
      <trkpt lat="48.82649" lon="2.42702">
        <ele>51</ele>
        <time>2014-05-15T10:55:19Z</time>
      </trkpt>
      <trkpt lat="48.8265" lon="2.42702">
        <ele>51</ele>
        <time>2014-05-15T10:55:20Z</time>
      </trkpt>
      <trkpt lat="48.8265" lon="2.42703">
        <ele>51</ele>
        <time>2014-05-15T10:55:21Z</time>
      </trkpt>
      <trkpt lat="48.82651" lon="2.42703">
        <ele>52</ele>
        <time>2014-05-15T10:55:22Z</time>
      </trkpt>
      <trkpt lat="48.82651" lon="2.42703">
        <ele>52</ele>
        <time>2014-05-15T10:55:23Z</time>
      </trkpt>
      <trkpt lat="48.82652" lon="2.42704">
        <ele>52</ele>
        <time>2014-05-15T10:55:24Z</time>
      </trkpt>
      <trkpt lat="48.82652" lon="2.42704">
        <ele>53</ele>
        <time>2014-05-15T10:55:25Z</time>
      </trkpt>
      <trkpt lat="48.82652" lon="2.42704">
        <ele>53</ele>
        <time>2014-05-15T10:55:26Z</time>
      </trkpt>
      <trkpt lat="48.82653" lon="2.42704">
        <ele>53</ele>
        <time>2014-05-15T10:55:27Z</time>
      </trkpt>
      <trkpt lat="48.82653" lon="2.42704">
        <ele>53</ele>
        <time>2014-05-15T10:55:28Z</time>
      </trkpt>
      <trkpt lat="48.82652" lon="2.42704">
        <ele>53</ele>
        <time>2014-05-15T10:55:29Z</time>
      </trkpt>
      <trkpt lat="48.82653" lon="2.42704">
        <ele>52</ele>
        <time>2014-05-15T10:55:30Z</time>
      </trkpt>
      <trkpt lat="48.82656" lon="2.42705">
        <ele>51</ele>
        <time>2014-05-15T10:55:31Z</time>
      </trkpt>
      <trkpt lat="48.82658" lon="2.42705">
        <ele>51</ele>
        <time>2014-05-15T10:55:32Z</time>
      </trkpt>
      <trkpt lat="48.82658" lon="2.42706">
        <ele>50</ele>
        <time>2014-05-15T10:55:33Z</time>
      </trkpt>
      <trkpt lat="48.82657" lon="2.42706">
        <ele>50</ele>
        <time>2014-05-15T10:55:34Z</time>
      </trkpt>
      <trkpt lat="48.82656" lon="2.42706">
        <ele>50</ele>
        <time>2014-05-15T10:55:35Z</time>
      </trkpt>
      <trkpt lat="48.82655" lon="2.42706">
        <ele>49</ele>
        <time>2014-05-15T10:55:36Z</time>
      </trkpt>
      <trkpt lat="48.82655" lon="2.42706">
        <ele>49</ele>
        <time>2014-05-15T10:55:37Z</time>
      </trkpt>
      <trkpt lat="48.82654" lon="2.42707">
        <ele>49</ele>
        <time>2014-05-15T10:55:38Z</time>
      </trkpt>
      <trkpt lat="48.82654" lon="2.42707">
        <ele>49</ele>
        <time>2014-05-15T10:55:39Z</time>
      </trkpt>
      <trkpt lat="48.82655" lon="2.42706">
        <ele>49</ele>
        <time>2014-05-15T10:55:40Z</time>
      </trkpt>
      <trkpt lat="48.82655" lon="2.42706">
        <ele>49</ele>
        <time>2014-05-15T10:55:41Z</time>
      </trkpt>
      <trkpt lat="48.82655" lon="2.42706">
        <ele>49</ele>
        <time>2014-05-15T10:55:42Z</time>
      </trkpt>
      <trkpt lat="48.82655" lon="2.42707">
        <ele>49</ele>
        <time>2014-05-15T10:55:43Z</time>
      </trkpt>
      <trkpt lat="48.82655" lon="2.42709">
        <ele>48</ele>
        <time>2014-05-15T10:55:44Z</time>
      </trkpt>
      <trkpt lat="48.82655" lon="2.42711">
        <ele>50</ele>
        <time>2014-05-15T10:55:45Z</time>
      </trkpt>
      <trkpt lat="48.82655" lon="2.42712">
        <ele>51</ele>
        <time>2014-05-15T10:55:46Z</time>
      </trkpt>
      <trkpt lat="48.82655" lon="2.42712">
        <ele>51</ele>
        <time>2014-05-15T10:55:47Z</time>
      </trkpt>
      <trkpt lat="48.82655" lon="2.42713">
        <ele>51</ele>
        <time>2014-05-15T10:55:48Z</time>
      </trkpt>
      <trkpt lat="48.82655" lon="2.42715">
        <ele>50</ele>
        <time>2014-05-15T10:55:49Z</time>
      </trkpt>
      <trkpt lat="48.82655" lon="2.42716">
        <ele>50</ele>
        <time>2014-05-15T10:55:50Z</time>
      </trkpt>
      <trkpt lat="48.82655" lon="2.42719">
        <ele>51</ele>
        <time>2014-05-15T10:55:51Z</time>
      </trkpt>
      <trkpt lat="48.82654" lon="2.42721">
        <ele>51</ele>
        <time>2014-05-15T10:55:52Z</time>
      </trkpt>
      <trkpt lat="48.82654" lon="2.42723">
        <ele>51</ele>
        <time>2014-05-15T10:55:53Z</time>
      </trkpt>
      <trkpt lat="48.82653" lon="2.42725">
        <ele>50</ele>
        <time>2014-05-15T10:55:54Z</time>
      </trkpt>
      <trkpt lat="48.82653" lon="2.42727">
        <ele>49</ele>
        <time>2014-05-15T10:55:55Z</time>
      </trkpt>
      <trkpt lat="48.82652" lon="2.42729">
        <ele>50</ele>
        <time>2014-05-15T10:55:56Z</time>
      </trkpt>
      <trkpt lat="48.82652" lon="2.42731">
        <ele>49</ele>
        <time>2014-05-15T10:55:57Z</time>
      </trkpt>
      <trkpt lat="48.82652" lon="2.42733">
        <ele>49</ele>
        <time>2014-05-15T10:55:58Z</time>
      </trkpt>
      <trkpt lat="48.82651" lon="2.42735">
        <ele>50</ele>
        <time>2014-05-15T10:55:59Z</time>
      </trkpt>
      <trkpt lat="48.82651" lon="2.42738">
        <ele>50</ele>
        <time>2014-05-15T10:56:00Z</time>
      </trkpt>
      <trkpt lat="48.82652" lon="2.4274">
        <ele>50</ele>
        <time>2014-05-15T10:56:01Z</time>
      </trkpt>
      <trkpt lat="48.82652" lon="2.42742">
        <ele>50</ele>
        <time>2014-05-15T10:56:02Z</time>
      </trkpt>
      <trkpt lat="48.82652" lon="2.42744">
        <ele>50</ele>
        <time>2014-05-15T10:56:03Z</time>
      </trkpt>
      <trkpt lat="48.82652" lon="2.42746">
        <ele>51</ele>
        <time>2014-05-15T10:56:04Z</time>
      </trkpt>
      <trkpt lat="48.82653" lon="2.42748">
        <ele>53</ele>
        <time>2014-05-15T10:56:05Z</time>
      </trkpt>
      <trkpt lat="48.82653" lon="2.4275">
        <ele>53</ele>
        <time>2014-05-15T10:56:06Z</time>
      </trkpt>
      <trkpt lat="48.82653" lon="2.42752">
        <ele>55</ele>
        <time>2014-05-15T10:56:07Z</time>
      </trkpt>
      <trkpt lat="48.82653" lon="2.42754">
        <ele>55</ele>
        <time>2014-05-15T10:56:08Z</time>
      </trkpt>
      <trkpt lat="48.82653" lon="2.42755">
        <ele>55</ele>
        <time>2014-05-15T10:56:09Z</time>
      </trkpt>
      <trkpt lat="48.82653" lon="2.42757">
        <ele>54</ele>
        <time>2014-05-15T10:56:10Z</time>
      </trkpt>
      <trkpt lat="48.82654" lon="2.42759">
        <ele>55</ele>
        <time>2014-05-15T10:56:11Z</time>
      </trkpt>
      <trkpt lat="48.82654" lon="2.4276">
        <ele>56</ele>
        <time>2014-05-15T10:56:12Z</time>
      </trkpt>
      <trkpt lat="48.82654" lon="2.42762">
        <ele>56</ele>
        <time>2014-05-15T10:56:13Z</time>
      </trkpt>
      <trkpt lat="48.82654" lon="2.42764">
        <ele>55</ele>
        <time>2014-05-15T10:56:14Z</time>
      </trkpt>
      <trkpt lat="48.82654" lon="2.42766">
        <ele>56</ele>
        <time>2014-05-15T10:56:15Z</time>
      </trkpt>
      <trkpt lat="48.82653" lon="2.42768">
        <ele>56</ele>
        <time>2014-05-15T10:56:16Z</time>
      </trkpt>
      <trkpt lat="48.82653" lon="2.42769">
        <ele>55</ele>
        <time>2014-05-15T10:56:17Z</time>
      </trkpt>
      <trkpt lat="48.82653" lon="2.42771">
        <ele>57</ele>
        <time>2014-05-15T10:56:18Z</time>
      </trkpt>
      <trkpt lat="48.82654" lon="2.42773">
        <ele>57</ele>
        <time>2014-05-15T10:56:19Z</time>
      </trkpt>
      <trkpt lat="48.82655" lon="2.42776">
        <ele>57</ele>
        <time>2014-05-15T10:56:20Z</time>
      </trkpt>
      <trkpt lat="48.82655" lon="2.42778">
        <ele>56</ele>
        <time>2014-05-15T10:56:21Z</time>
      </trkpt>
      <trkpt lat="48.82655" lon="2.4278">
        <ele>56</ele>
        <time>2014-05-15T10:56:22Z</time>
      </trkpt>
      <trkpt lat="48.82655" lon="2.42782">
        <ele>56</ele>
        <time>2014-05-15T10:56:23Z</time>
      </trkpt>
      <trkpt lat="48.82655" lon="2.42784">
        <ele>56</ele>
        <time>2014-05-15T10:56:24Z</time>
      </trkpt>
      <trkpt lat="48.82655" lon="2.42786">
        <ele>56</ele>
        <time>2014-05-15T10:56:25Z</time>
      </trkpt>
      <trkpt lat="48.82655" lon="2.42787">
        <ele>55</ele>
        <time>2014-05-15T10:56:26Z</time>
      </trkpt>
      <trkpt lat="48.82655" lon="2.42789">
        <ele>55</ele>
        <time>2014-05-15T10:56:27Z</time>
      </trkpt>
      <trkpt lat="48.82655" lon="2.4279">
        <ele>55</ele>
        <time>2014-05-15T10:56:28Z</time>
      </trkpt>
      <trkpt lat="48.82655" lon="2.42792">
        <ele>55</ele>
        <time>2014-05-15T10:56:29Z</time>
      </trkpt>
      <trkpt lat="48.82655" lon="2.42794">
        <ele>54</ele>
        <time>2014-05-15T10:56:30Z</time>
      </trkpt>
      <trkpt lat="48.82655" lon="2.42795">
        <ele>55</ele>
        <time>2014-05-15T10:56:31Z</time>
      </trkpt>
      <trkpt lat="48.82654" lon="2.42796">
        <ele>54</ele>
        <time>2014-05-15T10:56:32Z</time>
      </trkpt>
      <trkpt lat="48.82654" lon="2.42798">
        <ele>54</ele>
        <time>2014-05-15T10:56:33Z</time>
      </trkpt>
      <trkpt lat="48.82653" lon="2.428">
        <ele>54</ele>
        <time>2014-05-15T10:56:34Z</time>
      </trkpt>
      <trkpt lat="48.82653" lon="2.42801">
        <ele>54</ele>
        <time>2014-05-15T10:56:35Z</time>
      </trkpt>
      <trkpt lat="48.82652" lon="2.42803">
        <ele>54</ele>
        <time>2014-05-15T10:56:36Z</time>
      </trkpt>
      <trkpt lat="48.82651" lon="2.42805">
        <ele>55</ele>
        <time>2014-05-15T10:56:37Z</time>
      </trkpt>
      <trkpt lat="48.8265" lon="2.42806">
        <ele>55</ele>
        <time>2014-05-15T10:56:38Z</time>
      </trkpt>
      <trkpt lat="48.82649" lon="2.42808">
        <ele>57</ele>
        <time>2014-05-15T10:56:39Z</time>
      </trkpt>
      <trkpt lat="48.82648" lon="2.4281">
        <ele>57</ele>
        <time>2014-05-15T10:56:40Z</time>
      </trkpt>
      <trkpt lat="48.82648" lon="2.42811">
        <ele>56</ele>
        <time>2014-05-15T10:56:41Z</time>
      </trkpt>
      <trkpt lat="48.82647" lon="2.42813">
        <ele>57</ele>
        <time>2014-05-15T10:56:42Z</time>
      </trkpt>
      <trkpt lat="48.82647" lon="2.42815">
        <ele>57</ele>
        <time>2014-05-15T10:56:43Z</time>
      </trkpt>
      <trkpt lat="48.82647" lon="2.42817">
        <ele>58</ele>
        <time>2014-05-15T10:56:44Z</time>
      </trkpt>
      <trkpt lat="48.82647" lon="2.42819">
        <ele>58</ele>
        <time>2014-05-15T10:56:45Z</time>
      </trkpt>
      <trkpt lat="48.82646" lon="2.42821">
        <ele>60</ele>
        <time>2014-05-15T10:56:46Z</time>
      </trkpt>
      <trkpt lat="48.82646" lon="2.42823">
        <ele>59</ele>
        <time>2014-05-15T10:56:47Z</time>
      </trkpt>
      <trkpt lat="48.82645" lon="2.42825">
        <ele>58</ele>
        <time>2014-05-15T10:56:48Z</time>
      </trkpt>
      <trkpt lat="48.82644" lon="2.42827">
        <ele>58</ele>
        <time>2014-05-15T10:56:49Z</time>
      </trkpt>
      <trkpt lat="48.82643" lon="2.42829">
        <ele>59</ele>
        <time>2014-05-15T10:56:50Z</time>
      </trkpt>
      <trkpt lat="48.82643" lon="2.4283">
        <ele>58</ele>
        <time>2014-05-15T10:56:51Z</time>
      </trkpt>
      <trkpt lat="48.82642" lon="2.42832">
        <ele>55</ele>
        <time>2014-05-15T10:56:52Z</time>
      </trkpt>
      <trkpt lat="48.82642" lon="2.42833">
        <ele>57</ele>
        <time>2014-05-15T10:56:53Z</time>
      </trkpt>
      <trkpt lat="48.82642" lon="2.42834">
        <ele>56</ele>
        <time>2014-05-15T10:56:54Z</time>
      </trkpt>
      <trkpt lat="48.82641" lon="2.42836">
        <ele>56</ele>
        <time>2014-05-15T10:56:55Z</time>
      </trkpt>
      <trkpt lat="48.8264" lon="2.42836">
        <ele>55</ele>
        <time>2014-05-15T10:56:56Z</time>
      </trkpt>
      <trkpt lat="48.82639" lon="2.42837">
        <ele>54</ele>
        <time>2014-05-15T10:56:57Z</time>
      </trkpt>
      <trkpt lat="48.82639" lon="2.42839">
        <ele>56</ele>
        <time>2014-05-15T10:56:58Z</time>
      </trkpt>
      <trkpt lat="48.82638" lon="2.42841">
        <ele>56</ele>
        <time>2014-05-15T10:56:59Z</time>
      </trkpt>
      <trkpt lat="48.82638" lon="2.42842">
        <ele>56</ele>
        <time>2014-05-15T10:57:00Z</time>
      </trkpt>
      <trkpt lat="48.82637" lon="2.42844">
        <ele>57</ele>
        <time>2014-05-15T10:57:01Z</time>
      </trkpt>
      <trkpt lat="48.82636" lon="2.42845">
        <ele>57</ele>
        <time>2014-05-15T10:57:02Z</time>
      </trkpt>
      <trkpt lat="48.82635" lon="2.42846">
        <ele>56</ele>
        <time>2014-05-15T10:57:03Z</time>
      </trkpt>
      <trkpt lat="48.82634" lon="2.42848">
        <ele>57</ele>
        <time>2014-05-15T10:57:04Z</time>
      </trkpt>
      <trkpt lat="48.82633" lon="2.42849">
        <ele>57</ele>
        <time>2014-05-15T10:57:05Z</time>
      </trkpt>
      <trkpt lat="48.82632" lon="2.42851">
        <ele>57</ele>
        <time>2014-05-15T10:57:06Z</time>
      </trkpt>
      <trkpt lat="48.82631" lon="2.42852">
        <ele>56</ele>
        <time>2014-05-15T10:57:07Z</time>
      </trkpt>
      <trkpt lat="48.8263" lon="2.42854">
        <ele>57</ele>
        <time>2014-05-15T10:57:08Z</time>
      </trkpt>
      <trkpt lat="48.82629" lon="2.42856">
        <ele>56</ele>
        <time>2014-05-15T10:57:09Z</time>
      </trkpt>
      <trkpt lat="48.82628" lon="2.42858">
        <ele>58</ele>
        <time>2014-05-15T10:57:10Z</time>
      </trkpt>
      <trkpt lat="48.82627" lon="2.4286">
        <ele>58</ele>
        <time>2014-05-15T10:57:11Z</time>
      </trkpt>
      <trkpt lat="48.82626" lon="2.42862">
        <ele>59</ele>
        <time>2014-05-15T10:57:12Z</time>
      </trkpt>
      <trkpt lat="48.82625" lon="2.42864">
        <ele>56</ele>
        <time>2014-05-15T10:57:13Z</time>
      </trkpt>
      <trkpt lat="48.82624" lon="2.42866">
        <ele>57</ele>
        <time>2014-05-15T10:57:14Z</time>
      </trkpt>
      <trkpt lat="48.82624" lon="2.42867">
        <ele>57</ele>
        <time>2014-05-15T10:57:15Z</time>
      </trkpt>
      <trkpt lat="48.82623" lon="2.42869">
        <ele>56</ele>
        <time>2014-05-15T10:57:16Z</time>
      </trkpt>
      <trkpt lat="48.82622" lon="2.4287">
        <ele>57</ele>
        <time>2014-05-15T10:57:17Z</time>
      </trkpt>
      <trkpt lat="48.82621" lon="2.42872">
        <ele>55</ele>
        <time>2014-05-15T10:57:18Z</time>
      </trkpt>
      <trkpt lat="48.8262" lon="2.42873">
        <ele>55</ele>
        <time>2014-05-15T10:57:19Z</time>
      </trkpt>
      <trkpt lat="48.82619" lon="2.42875">
        <ele>56</ele>
        <time>2014-05-15T10:57:20Z</time>
      </trkpt>
      <trkpt lat="48.82618" lon="2.42876">
        <ele>55</ele>
        <time>2014-05-15T10:57:21Z</time>
      </trkpt>
      <trkpt lat="48.82617" lon="2.42878">
        <ele>55</ele>
        <time>2014-05-15T10:57:22Z</time>
      </trkpt>
      <trkpt lat="48.82616" lon="2.42879">
        <ele>56</ele>
        <time>2014-05-15T10:57:23Z</time>
      </trkpt>
      <trkpt lat="48.82615" lon="2.4288">
        <ele>56</ele>
        <time>2014-05-15T10:57:24Z</time>
      </trkpt>
      <trkpt lat="48.82614" lon="2.42882">
        <ele>55</ele>
        <time>2014-05-15T10:57:25Z</time>
      </trkpt>
      <trkpt lat="48.82613" lon="2.42883">
        <ele>56</ele>
        <time>2014-05-15T10:57:26Z</time>
      </trkpt>
      <trkpt lat="48.82612" lon="2.42884">
        <ele>55</ele>
        <time>2014-05-15T10:57:27Z</time>
      </trkpt>
      <trkpt lat="48.82611" lon="2.42885">
        <ele>56</ele>
        <time>2014-05-15T10:57:28Z</time>
      </trkpt>
      <trkpt lat="48.8261" lon="2.42887">
        <ele>56</ele>
        <time>2014-05-15T10:57:29Z</time>
      </trkpt>
      <trkpt lat="48.82609" lon="2.42888">
        <ele>55</ele>
        <time>2014-05-15T10:57:30Z</time>
      </trkpt>
      <trkpt lat="48.82608" lon="2.42889">
        <ele>55</ele>
        <time>2014-05-15T10:57:31Z</time>
      </trkpt>
      <trkpt lat="48.82606" lon="2.4289">
        <ele>54</ele>
        <time>2014-05-15T10:57:32Z</time>
      </trkpt>
      <trkpt lat="48.82605" lon="2.42891">
        <ele>53</ele>
        <time>2014-05-15T10:57:33Z</time>
      </trkpt>
      <trkpt lat="48.82604" lon="2.42891">
        <ele>53</ele>
        <time>2014-05-15T10:57:34Z</time>
      </trkpt>
      <trkpt lat="48.82603" lon="2.42891">
        <ele>53</ele>
        <time>2014-05-15T10:57:35Z</time>
      </trkpt>
      <trkpt lat="48.82601" lon="2.42892">
        <ele>53</ele>
        <time>2014-05-15T10:57:36Z</time>
      </trkpt>
      <trkpt lat="48.826" lon="2.42893">
        <ele>54</ele>
        <time>2014-05-15T10:57:37Z</time>
      </trkpt>
      <trkpt lat="48.82599" lon="2.42894">
        <ele>54</ele>
        <time>2014-05-15T10:57:38Z</time>
      </trkpt>
      <trkpt lat="48.82598" lon="2.42895">
        <ele>54</ele>
        <time>2014-05-15T10:57:39Z</time>
      </trkpt>
      <trkpt lat="48.82597" lon="2.42895">
        <ele>50</ele>
        <time>2014-05-15T10:57:40Z</time>
      </trkpt>
      <trkpt lat="48.82596" lon="2.42896">
        <ele>52</ele>
        <time>2014-05-15T10:57:41Z</time>
      </trkpt>
      <trkpt lat="48.82595" lon="2.42897">
        <ele>52</ele>
        <time>2014-05-15T10:57:42Z</time>
      </trkpt>
      <trkpt lat="48.82594" lon="2.42897">
        <ele>53</ele>
        <time>2014-05-15T10:57:43Z</time>
      </trkpt>
      <trkpt lat="48.82593" lon="2.42897">
        <ele>51</ele>
        <time>2014-05-15T10:57:44Z</time>
      </trkpt>
      <trkpt lat="48.82592" lon="2.42897">
        <ele>51</ele>
        <time>2014-05-15T10:57:45Z</time>
      </trkpt>
      <trkpt lat="48.82591" lon="2.42896">
        <ele>50</ele>
        <time>2014-05-15T10:57:46Z</time>
      </trkpt>
      <trkpt lat="48.82589" lon="2.42896">
        <ele>51</ele>
        <time>2014-05-15T10:57:47Z</time>
      </trkpt>
      <trkpt lat="48.82588" lon="2.42896">
        <ele>50</ele>
        <time>2014-05-15T10:57:48Z</time>
      </trkpt>
      <trkpt lat="48.82587" lon="2.42896">
        <ele>51</ele>
        <time>2014-05-15T10:57:49Z</time>
      </trkpt>
      <trkpt lat="48.82585" lon="2.42897">
        <ele>52</ele>
        <time>2014-05-15T10:57:50Z</time>
      </trkpt>
      <trkpt lat="48.82584" lon="2.42898">
        <ele>54</ele>
        <time>2014-05-15T10:57:51Z</time>
      </trkpt>
      <trkpt lat="48.82582" lon="2.429">
        <ele>54</ele>
        <time>2014-05-15T10:57:52Z</time>
      </trkpt>
      <trkpt lat="48.82581" lon="2.42901">
        <ele>52</ele>
        <time>2014-05-15T10:57:53Z</time>
      </trkpt>
      <trkpt lat="48.8258" lon="2.42902">
        <ele>53</ele>
        <time>2014-05-15T10:57:54Z</time>
      </trkpt>
      <trkpt lat="48.82579" lon="2.42903">
        <ele>53</ele>
        <time>2014-05-15T10:57:55Z</time>
      </trkpt>
      <trkpt lat="48.82577" lon="2.42904">
        <ele>53</ele>
        <time>2014-05-15T10:57:56Z</time>
      </trkpt>
      <trkpt lat="48.82576" lon="2.42905">
        <ele>53</ele>
        <time>2014-05-15T10:57:57Z</time>
      </trkpt>
      <trkpt lat="48.82575" lon="2.42906">
        <ele>53</ele>
        <time>2014-05-15T10:57:58Z</time>
      </trkpt>
      <trkpt lat="48.82574" lon="2.42907">
        <ele>54</ele>
        <time>2014-05-15T10:57:59Z</time>
      </trkpt>
      <trkpt lat="48.82572" lon="2.42908">
        <ele>55</ele>
        <time>2014-05-15T10:58:00Z</time>
      </trkpt>
      <trkpt lat="48.82571" lon="2.42909">
        <ele>54</ele>
        <time>2014-05-15T10:58:01Z</time>
      </trkpt>
      <trkpt lat="48.8257" lon="2.4291">
        <ele>53</ele>
        <time>2014-05-15T10:58:02Z</time>
      </trkpt>
      <trkpt lat="48.82569" lon="2.42911">
        <ele>53</ele>
        <time>2014-05-15T10:58:03Z</time>
      </trkpt>
      <trkpt lat="48.82568" lon="2.42912">
        <ele>53</ele>
        <time>2014-05-15T10:58:04Z</time>
      </trkpt>
      <trkpt lat="48.82567" lon="2.42912">
        <ele>53</ele>
        <time>2014-05-15T10:58:05Z</time>
      </trkpt>
      <trkpt lat="48.82565" lon="2.42913">
        <ele>53</ele>
        <time>2014-05-15T10:58:06Z</time>
      </trkpt>
      <trkpt lat="48.82564" lon="2.42914">
        <ele>53</ele>
        <time>2014-05-15T10:58:07Z</time>
      </trkpt>
      <trkpt lat="48.82563" lon="2.42914">
        <ele>55</ele>
        <time>2014-05-15T10:58:08Z</time>
      </trkpt>
      <trkpt lat="48.82561" lon="2.42915">
        <ele>54</ele>
        <time>2014-05-15T10:58:09Z</time>
      </trkpt>
      <trkpt lat="48.8256" lon="2.42916">
        <ele>55</ele>
        <time>2014-05-15T10:58:10Z</time>
      </trkpt>
      <trkpt lat="48.82559" lon="2.42918">
        <ele>58</ele>
        <time>2014-05-15T10:58:11Z</time>
      </trkpt>
      <trkpt lat="48.82557" lon="2.42919">
        <ele>60</ele>
        <time>2014-05-15T10:58:12Z</time>
      </trkpt>
      <trkpt lat="48.82555" lon="2.42921">
        <ele>60</ele>
        <time>2014-05-15T10:58:13Z</time>
      </trkpt>
      <trkpt lat="48.82554" lon="2.42923">
        <ele>60</ele>
        <time>2014-05-15T10:58:14Z</time>
      </trkpt>
      <trkpt lat="48.82553" lon="2.42924">
        <ele>63</ele>
        <time>2014-05-15T10:58:15Z</time>
      </trkpt>
      <trkpt lat="48.82552" lon="2.42926">
        <ele>62</ele>
        <time>2014-05-15T10:58:16Z</time>
      </trkpt>
      <trkpt lat="48.82551" lon="2.42928">
        <ele>62</ele>
        <time>2014-05-15T10:58:17Z</time>
      </trkpt>
      <trkpt lat="48.8255" lon="2.42929">
        <ele>61</ele>
        <time>2014-05-15T10:58:18Z</time>
      </trkpt>
      <trkpt lat="48.8255" lon="2.4293">
        <ele>62</ele>
        <time>2014-05-15T10:58:19Z</time>
      </trkpt>
      <trkpt lat="48.8255" lon="2.4293">
        <ele>63</ele>
        <time>2014-05-15T10:58:20Z</time>
      </trkpt>
      <trkpt lat="48.82549" lon="2.4293">
        <ele>63</ele>
        <time>2014-05-15T10:58:21Z</time>
      </trkpt>
      <trkpt lat="48.82549" lon="2.42931">
        <ele>63</ele>
        <time>2014-05-15T10:58:22Z</time>
      </trkpt>
      <trkpt lat="48.82549" lon="2.42931">
        <ele>63</ele>
        <time>2014-05-15T10:58:23Z</time>
      </trkpt>
      <trkpt lat="48.8255" lon="2.42931">
        <ele>63</ele>
        <time>2014-05-15T10:58:24Z</time>
      </trkpt>
      <trkpt lat="48.82549" lon="2.42932">
        <ele>62</ele>
        <time>2014-05-15T10:58:25Z</time>
      </trkpt>
      <trkpt lat="48.82549" lon="2.42932">
        <ele>62</ele>
        <time>2014-05-15T10:58:26Z</time>
      </trkpt>
      <trkpt lat="48.82549" lon="2.42932">
        <ele>60</ele>
        <time>2014-05-15T10:58:27Z</time>
      </trkpt>
      <trkpt lat="48.82549" lon="2.42932">
        <ele>58</ele>
        <time>2014-05-15T10:58:28Z</time>
      </trkpt>
      <trkpt lat="48.82549" lon="2.42932">
        <ele>58</ele>
        <time>2014-05-15T10:58:29Z</time>
      </trkpt>
      <trkpt lat="48.82548" lon="2.42933">
        <ele>57</ele>
        <time>2014-05-15T10:58:30Z</time>
      </trkpt>
      <trkpt lat="48.82548" lon="2.42933">
        <ele>57</ele>
        <time>2014-05-15T10:58:31Z</time>
      </trkpt>
      <trkpt lat="48.82547" lon="2.42933">
        <ele>58</ele>
        <time>2014-05-15T10:58:32Z</time>
      </trkpt>
      <trkpt lat="48.82546" lon="2.42933">
        <ele>59</ele>
        <time>2014-05-15T10:58:33Z</time>
      </trkpt>
      <trkpt lat="48.82545" lon="2.42934">
        <ele>60</ele>
        <time>2014-05-15T10:58:34Z</time>
      </trkpt>
      <trkpt lat="48.82544" lon="2.42935">
        <ele>59</ele>
        <time>2014-05-15T10:58:35Z</time>
      </trkpt>
      <trkpt lat="48.82543" lon="2.42936">
        <ele>59</ele>
        <time>2014-05-15T10:58:36Z</time>
      </trkpt>
      <trkpt lat="48.82542" lon="2.42937">
        <ele>60</ele>
        <time>2014-05-15T10:58:37Z</time>
      </trkpt>
      <trkpt lat="48.82541" lon="2.42938">
        <ele>59</ele>
        <time>2014-05-15T10:58:38Z</time>
      </trkpt>
      <trkpt lat="48.8254" lon="2.42939">
        <ele>59</ele>
        <time>2014-05-15T10:58:39Z</time>
      </trkpt>
      <trkpt lat="48.82539" lon="2.4294">
        <ele>59</ele>
        <time>2014-05-15T10:58:40Z</time>
      </trkpt>
      <trkpt lat="48.82537" lon="2.42941">
        <ele>59</ele>
        <time>2014-05-15T10:58:41Z</time>
      </trkpt>
      <trkpt lat="48.82536" lon="2.42941">
        <ele>60</ele>
        <time>2014-05-15T10:58:42Z</time>
      </trkpt>
      <trkpt lat="48.82536" lon="2.42943">
        <ele>60</ele>
        <time>2014-05-15T10:58:43Z</time>
      </trkpt>
      <trkpt lat="48.82535" lon="2.42944">
        <ele>61</ele>
        <time>2014-05-15T10:58:44Z</time>
      </trkpt>
      <trkpt lat="48.82533" lon="2.42945">
        <ele>59</ele>
        <time>2014-05-15T10:58:45Z</time>
      </trkpt>
      <trkpt lat="48.82532" lon="2.42946">
        <ele>59</ele>
        <time>2014-05-15T10:58:46Z</time>
      </trkpt>
      <trkpt lat="48.82532" lon="2.42948">
        <ele>59</ele>
        <time>2014-05-15T10:58:47Z</time>
      </trkpt>
      <trkpt lat="48.82531" lon="2.4295">
        <ele>59</ele>
        <time>2014-05-15T10:58:48Z</time>
      </trkpt>
      <trkpt lat="48.8253" lon="2.42952">
        <ele>59</ele>
        <time>2014-05-15T10:58:49Z</time>
      </trkpt>
      <trkpt lat="48.8253" lon="2.42954">
        <ele>60</ele>
        <time>2014-05-15T10:58:50Z</time>
      </trkpt>
      <trkpt lat="48.82529" lon="2.42956">
        <ele>60</ele>
        <time>2014-05-15T10:58:51Z</time>
      </trkpt>
      <trkpt lat="48.82528" lon="2.42958">
        <ele>60</ele>
        <time>2014-05-15T10:58:52Z</time>
      </trkpt>
      <trkpt lat="48.82527" lon="2.42959">
        <ele>60</ele>
        <time>2014-05-15T10:58:53Z</time>
      </trkpt>
      <trkpt lat="48.82525" lon="2.4296">
        <ele>62</ele>
        <time>2014-05-15T10:58:54Z</time>
      </trkpt>
      <trkpt lat="48.82524" lon="2.42961">
        <ele>62</ele>
        <time>2014-05-15T10:58:55Z</time>
      </trkpt>
      <trkpt lat="48.82522" lon="2.42962">
        <ele>63</ele>
        <time>2014-05-15T10:58:56Z</time>
      </trkpt>
      <trkpt lat="48.82521" lon="2.42963">
        <ele>62</ele>
        <time>2014-05-15T10:58:57Z</time>
      </trkpt>
      <trkpt lat="48.82519" lon="2.42965">
        <ele>63</ele>
        <time>2014-05-15T10:58:58Z</time>
      </trkpt>
      <trkpt lat="48.82518" lon="2.42966">
        <ele>63</ele>
        <time>2014-05-15T10:58:59Z</time>
      </trkpt>
      <trkpt lat="48.82517" lon="2.42968">
        <ele>63</ele>
        <time>2014-05-15T10:59:00Z</time>
      </trkpt>
      <trkpt lat="48.82516" lon="2.42969">
        <ele>63</ele>
        <time>2014-05-15T10:59:01Z</time>
      </trkpt>
      <trkpt lat="48.82515" lon="2.42971">
        <ele>64</ele>
        <time>2014-05-15T10:59:02Z</time>
      </trkpt>
      <trkpt lat="48.82514" lon="2.42973">
        <ele>64</ele>
        <time>2014-05-15T10:59:03Z</time>
      </trkpt>
      <trkpt lat="48.82513" lon="2.42974">
        <ele>65</ele>
        <time>2014-05-15T10:59:04Z</time>
      </trkpt>
      <trkpt lat="48.82512" lon="2.42977">
        <ele>64</ele>
        <time>2014-05-15T10:59:05Z</time>
      </trkpt>
      <trkpt lat="48.82511" lon="2.42979">
        <ele>65</ele>
        <time>2014-05-15T10:59:06Z</time>
      </trkpt>
      <trkpt lat="48.8251" lon="2.42981">
        <ele>66</ele>
        <time>2014-05-15T10:59:07Z</time>
      </trkpt>
      <trkpt lat="48.82509" lon="2.42982">
        <ele>66</ele>
        <time>2014-05-15T10:59:08Z</time>
      </trkpt>
      <trkpt lat="48.82507" lon="2.42983">
        <ele>66</ele>
        <time>2014-05-15T10:59:09Z</time>
      </trkpt>
      <trkpt lat="48.82506" lon="2.42984">
        <ele>63</ele>
        <time>2014-05-15T10:59:10Z</time>
      </trkpt>
      <trkpt lat="48.82504" lon="2.42984">
        <ele>65</ele>
        <time>2014-05-15T10:59:11Z</time>
      </trkpt>
      <trkpt lat="48.82503" lon="2.42985">
        <ele>65</ele>
        <time>2014-05-15T10:59:12Z</time>
      </trkpt>
      <trkpt lat="48.82501" lon="2.42987">
        <ele>66</ele>
        <time>2014-05-15T10:59:13Z</time>
      </trkpt>
      <trkpt lat="48.825" lon="2.42987">
        <ele>66</ele>
        <time>2014-05-15T10:59:14Z</time>
      </trkpt>
      <trkpt lat="48.82499" lon="2.42987">
        <ele>64</ele>
        <time>2014-05-15T10:59:15Z</time>
      </trkpt>
      <trkpt lat="48.82497" lon="2.42988">
        <ele>66</ele>
        <time>2014-05-15T10:59:16Z</time>
      </trkpt>
      <trkpt lat="48.82496" lon="2.42987">
        <ele>64</ele>
        <time>2014-05-15T10:59:17Z</time>
      </trkpt>
      <trkpt lat="48.82494" lon="2.42987">
        <ele>65</ele>
        <time>2014-05-15T10:59:18Z</time>
      </trkpt>
      <trkpt lat="48.82492" lon="2.42988">
        <ele>66</ele>
        <time>2014-05-15T10:59:19Z</time>
      </trkpt>
      <trkpt lat="48.82491" lon="2.42988">
        <ele>66</ele>
        <time>2014-05-15T10:59:20Z</time>
      </trkpt>
      <trkpt lat="48.82489" lon="2.42988">
        <ele>67</ele>
        <time>2014-05-15T10:59:21Z</time>
      </trkpt>
      <trkpt lat="48.82488" lon="2.42988">
        <ele>68</ele>
        <time>2014-05-15T10:59:22Z</time>
      </trkpt>
      <trkpt lat="48.82486" lon="2.42988">
        <ele>67</ele>
        <time>2014-05-15T10:59:23Z</time>
      </trkpt>
      <trkpt lat="48.82485" lon="2.42989">
        <ele>67</ele>
        <time>2014-05-15T10:59:24Z</time>
      </trkpt>
      <trkpt lat="48.82484" lon="2.42991">
        <ele>69</ele>
        <time>2014-05-15T10:59:25Z</time>
      </trkpt>
      <trkpt lat="48.82483" lon="2.42992">
        <ele>68</ele>
        <time>2014-05-15T10:59:26Z</time>
      </trkpt>
      <trkpt lat="48.82482" lon="2.42993">
        <ele>65</ele>
        <time>2014-05-15T10:59:27Z</time>
      </trkpt>
      <trkpt lat="48.82481" lon="2.42993">
        <ele>66</ele>
        <time>2014-05-15T10:59:28Z</time>
      </trkpt>
      <trkpt lat="48.8248" lon="2.42994">
        <ele>66</ele>
        <time>2014-05-15T10:59:29Z</time>
      </trkpt>
      <trkpt lat="48.82479" lon="2.42995">
        <ele>65</ele>
        <time>2014-05-15T10:59:30Z</time>
      </trkpt>
      <trkpt lat="48.82478" lon="2.42995">
        <ele>65</ele>
        <time>2014-05-15T10:59:31Z</time>
      </trkpt>
      <trkpt lat="48.82477" lon="2.42996">
        <ele>64</ele>
        <time>2014-05-15T10:59:32Z</time>
      </trkpt>
      <trkpt lat="48.82475" lon="2.42997">
        <ele>63</ele>
        <time>2014-05-15T10:59:33Z</time>
      </trkpt>
      <trkpt lat="48.82474" lon="2.42998">
        <ele>61</ele>
        <time>2014-05-15T10:59:34Z</time>
      </trkpt>
      <trkpt lat="48.82473" lon="2.42999">
        <ele>62</ele>
        <time>2014-05-15T10:59:35Z</time>
      </trkpt>
      <trkpt lat="48.82471" lon="2.43">
        <ele>62</ele>
        <time>2014-05-15T10:59:36Z</time>
      </trkpt>
      <trkpt lat="48.8247" lon="2.43001">
        <ele>63</ele>
        <time>2014-05-15T10:59:37Z</time>
      </trkpt>
      <trkpt lat="48.82469" lon="2.43002">
        <ele>60</ele>
        <time>2014-05-15T10:59:38Z</time>
      </trkpt>
      <trkpt lat="48.82468" lon="2.43003">
        <ele>60</ele>
        <time>2014-05-15T10:59:39Z</time>
      </trkpt>
      <trkpt lat="48.82467" lon="2.43004">
        <ele>60</ele>
        <time>2014-05-15T10:59:40Z</time>
      </trkpt>
      <trkpt lat="48.82466" lon="2.43005">
        <ele>59</ele>
        <time>2014-05-15T10:59:41Z</time>
      </trkpt>
      <trkpt lat="48.82465" lon="2.43005">
        <ele>59</ele>
        <time>2014-05-15T10:59:42Z</time>
      </trkpt>
      <trkpt lat="48.82464" lon="2.43005">
        <ele>59</ele>
        <time>2014-05-15T10:59:43Z</time>
      </trkpt>
      <trkpt lat="48.82463" lon="2.43006">
        <ele>60</ele>
        <time>2014-05-15T10:59:44Z</time>
      </trkpt>
      <trkpt lat="48.82463" lon="2.43007">
        <ele>57</ele>
        <time>2014-05-15T10:59:45Z</time>
      </trkpt>
      <trkpt lat="48.82462" lon="2.43008">
        <ele>57</ele>
        <time>2014-05-15T10:59:46Z</time>
      </trkpt>
      <trkpt lat="48.82462" lon="2.4301">
        <ele>58</ele>
        <time>2014-05-15T10:59:47Z</time>
      </trkpt>
      <trkpt lat="48.82461" lon="2.43012">
        <ele>58</ele>
        <time>2014-05-15T10:59:48Z</time>
      </trkpt>
      <trkpt lat="48.8246" lon="2.43014">
        <ele>57</ele>
        <time>2014-05-15T10:59:49Z</time>
      </trkpt>
      <trkpt lat="48.82459" lon="2.43016">
        <ele>59</ele>
        <time>2014-05-15T10:59:50Z</time>
      </trkpt>
      <trkpt lat="48.82458" lon="2.43018">
        <ele>60</ele>
        <time>2014-05-15T10:59:51Z</time>
      </trkpt>
      <trkpt lat="48.82457" lon="2.4302">
        <ele>60</ele>
        <time>2014-05-15T10:59:52Z</time>
      </trkpt>
      <trkpt lat="48.82456" lon="2.43021">
        <ele>60</ele>
        <time>2014-05-15T10:59:53Z</time>
      </trkpt>
      <trkpt lat="48.82455" lon="2.43023">
        <ele>61</ele>
        <time>2014-05-15T10:59:54Z</time>
      </trkpt>
      <trkpt lat="48.82453" lon="2.43025">
        <ele>59</ele>
        <time>2014-05-15T10:59:55Z</time>
      </trkpt>
      <trkpt lat="48.82452" lon="2.43028">
        <ele>60</ele>
        <time>2014-05-15T10:59:56Z</time>
      </trkpt>
      <trkpt lat="48.82452" lon="2.43031">
        <ele>60</ele>
        <time>2014-05-15T10:59:57Z</time>
      </trkpt>
      <trkpt lat="48.82451" lon="2.43034">
        <ele>61</ele>
        <time>2014-05-15T10:59:58Z</time>
      </trkpt>
      <trkpt lat="48.8245" lon="2.43037">
        <ele>60</ele>
        <time>2014-05-15T10:59:59Z</time>
      </trkpt>
      <trkpt lat="48.82449" lon="2.43038">
        <ele>59</ele>
        <time>2014-05-15T11:00:00Z</time>
      </trkpt>
      <trkpt lat="48.82448" lon="2.43039">
        <ele>59</ele>
        <time>2014-05-15T11:00:01Z</time>
      </trkpt>
      <trkpt lat="48.82447" lon="2.43041">
        <ele>59</ele>
        <time>2014-05-15T11:00:02Z</time>
      </trkpt>
      <trkpt lat="48.82447" lon="2.43042">
        <ele>60</ele>
        <time>2014-05-15T11:00:03Z</time>
      </trkpt>
      <trkpt lat="48.82446" lon="2.43044">
        <ele>60</ele>
        <time>2014-05-15T11:00:04Z</time>
      </trkpt>
      <trkpt lat="48.82445" lon="2.43045">
        <ele>56</ele>
        <time>2014-05-15T11:00:05Z</time>
      </trkpt>
      <trkpt lat="48.82444" lon="2.43046">
        <ele>55</ele>
        <time>2014-05-15T11:00:06Z</time>
      </trkpt>
      <trkpt lat="48.82443" lon="2.43048">
        <ele>56</ele>
        <time>2014-05-15T11:00:07Z</time>
      </trkpt>
      <trkpt lat="48.82443" lon="2.4305">
        <ele>57</ele>
        <time>2014-05-15T11:00:08Z</time>
      </trkpt>
      <trkpt lat="48.82442" lon="2.43051">
        <ele>57</ele>
        <time>2014-05-15T11:00:09Z</time>
      </trkpt>
      <trkpt lat="48.82442" lon="2.43053">
        <ele>56</ele>
        <time>2014-05-15T11:00:10Z</time>
      </trkpt>
      <trkpt lat="48.82441" lon="2.43054">
        <ele>57</ele>
        <time>2014-05-15T11:00:11Z</time>
      </trkpt>
      <trkpt lat="48.8244" lon="2.43056">
        <ele>58</ele>
        <time>2014-05-15T11:00:12Z</time>
      </trkpt>
      <trkpt lat="48.8244" lon="2.43058">
        <ele>56</ele>
        <time>2014-05-15T11:00:13Z</time>
      </trkpt>
      <trkpt lat="48.82439" lon="2.43059">
        <ele>56</ele>
        <time>2014-05-15T11:00:14Z</time>
      </trkpt>
      <trkpt lat="48.82438" lon="2.4306">
        <ele>57</ele>
        <time>2014-05-15T11:00:15Z</time>
      </trkpt>
      <trkpt lat="48.82437" lon="2.43061">
        <ele>57</ele>
        <time>2014-05-15T11:00:16Z</time>
      </trkpt>
      <trkpt lat="48.82436" lon="2.43062">
        <ele>58</ele>
        <time>2014-05-15T11:00:17Z</time>
      </trkpt>
      <trkpt lat="48.82435" lon="2.43064">
        <ele>57</ele>
        <time>2014-05-15T11:00:18Z</time>
      </trkpt>
      <trkpt lat="48.82435" lon="2.43065">
        <ele>58</ele>
        <time>2014-05-15T11:00:19Z</time>
      </trkpt>
      <trkpt lat="48.82434" lon="2.43066">
        <ele>59</ele>
        <time>2014-05-15T11:00:20Z</time>
      </trkpt>
      <trkpt lat="48.82433" lon="2.43067">
        <ele>59</ele>
        <time>2014-05-15T11:00:21Z</time>
      </trkpt>
      <trkpt lat="48.82432" lon="2.43069">
        <ele>59</ele>
        <time>2014-05-15T11:00:22Z</time>
      </trkpt>
      <trkpt lat="48.82431" lon="2.4307">
        <ele>59</ele>
        <time>2014-05-15T11:00:23Z</time>
      </trkpt>
      <trkpt lat="48.82431" lon="2.43072">
        <ele>60</ele>
        <time>2014-05-15T11:00:24Z</time>
      </trkpt>
      <trkpt lat="48.8243" lon="2.43074">
        <ele>60</ele>
        <time>2014-05-15T11:00:25Z</time>
      </trkpt>
      <trkpt lat="48.82429" lon="2.43077">
        <ele>60</ele>
        <time>2014-05-15T11:00:26Z</time>
      </trkpt>
      <trkpt lat="48.82429" lon="2.43079">
        <ele>60</ele>
        <time>2014-05-15T11:00:27Z</time>
      </trkpt>
      <trkpt lat="48.82428" lon="2.43081">
        <ele>60</ele>
        <time>2014-05-15T11:00:28Z</time>
      </trkpt>
      <trkpt lat="48.82427" lon="2.43083">
        <ele>59</ele>
        <time>2014-05-15T11:00:29Z</time>
      </trkpt>
      <trkpt lat="48.82426" lon="2.43084">
        <ele>59</ele>
        <time>2014-05-15T11:00:30Z</time>
      </trkpt>
      <trkpt lat="48.82425" lon="2.43086">
        <ele>59</ele>
        <time>2014-05-15T11:00:31Z</time>
      </trkpt>
      <trkpt lat="48.82425" lon="2.43088">
        <ele>59</ele>
        <time>2014-05-15T11:00:32Z</time>
      </trkpt>
      <trkpt lat="48.82424" lon="2.43091">
        <ele>60</ele>
        <time>2014-05-15T11:00:33Z</time>
      </trkpt>
      <trkpt lat="48.82424" lon="2.43093">
        <ele>60</ele>
        <time>2014-05-15T11:00:34Z</time>
      </trkpt>
      <trkpt lat="48.82424" lon="2.43095">
        <ele>60</ele>
        <time>2014-05-15T11:00:35Z</time>
      </trkpt>
      <trkpt lat="48.82424" lon="2.43097">
        <ele>60</ele>
        <time>2014-05-15T11:00:36Z</time>
      </trkpt>
      <trkpt lat="48.82424" lon="2.43099">
        <ele>61</ele>
        <time>2014-05-15T11:00:37Z</time>
      </trkpt>
      <trkpt lat="48.82424" lon="2.431">
        <ele>60</ele>
        <time>2014-05-15T11:00:38Z</time>
      </trkpt>
      <trkpt lat="48.82424" lon="2.43102">
        <ele>60</ele>
        <time>2014-05-15T11:00:39Z</time>
      </trkpt>
      <trkpt lat="48.82424" lon="2.43104">
        <ele>60</ele>
        <time>2014-05-15T11:00:40Z</time>
      </trkpt>
      <trkpt lat="48.82424" lon="2.43106">
        <ele>60</ele>
        <time>2014-05-15T11:00:41Z</time>
      </trkpt>
      <trkpt lat="48.82424" lon="2.43108">
        <ele>60</ele>
        <time>2014-05-15T11:00:42Z</time>
      </trkpt>
      <trkpt lat="48.82424" lon="2.4311">
        <ele>59</ele>
        <time>2014-05-15T11:00:43Z</time>
      </trkpt>
      <trkpt lat="48.82424" lon="2.43112">
        <ele>60</ele>
        <time>2014-05-15T11:00:44Z</time>
      </trkpt>
      <trkpt lat="48.82425" lon="2.43114">
        <ele>60</ele>
        <time>2014-05-15T11:00:45Z</time>
      </trkpt>
      <trkpt lat="48.82425" lon="2.43116">
        <ele>60</ele>
        <time>2014-05-15T11:00:46Z</time>
      </trkpt>
      <trkpt lat="48.82425" lon="2.43118">
        <ele>60</ele>
        <time>2014-05-15T11:00:47Z</time>
      </trkpt>
      <trkpt lat="48.82426" lon="2.4312">
        <ele>60</ele>
        <time>2014-05-15T11:00:48Z</time>
      </trkpt>
      <trkpt lat="48.82426" lon="2.43122">
        <ele>60</ele>
        <time>2014-05-15T11:00:49Z</time>
      </trkpt>
      <trkpt lat="48.82427" lon="2.43124">
        <ele>60</ele>
        <time>2014-05-15T11:00:50Z</time>
      </trkpt>
      <trkpt lat="48.82427" lon="2.43126">
        <ele>60</ele>
        <time>2014-05-15T11:00:51Z</time>
      </trkpt>
      <trkpt lat="48.82428" lon="2.43127">
        <ele>59</ele>
        <time>2014-05-15T11:00:52Z</time>
      </trkpt>
      <trkpt lat="48.82428" lon="2.43129">
        <ele>60</ele>
        <time>2014-05-15T11:00:53Z</time>
      </trkpt>
      <trkpt lat="48.82428" lon="2.43131">
        <ele>59</ele>
        <time>2014-05-15T11:00:54Z</time>
      </trkpt>
      <trkpt lat="48.82428" lon="2.43134">
        <ele>59</ele>
        <time>2014-05-15T11:00:55Z</time>
      </trkpt>
      <trkpt lat="48.82428" lon="2.43136">
        <ele>59</ele>
        <time>2014-05-15T11:00:56Z</time>
      </trkpt>
      <trkpt lat="48.82428" lon="2.43138">
        <ele>55</ele>
        <time>2014-05-15T11:00:57Z</time>
      </trkpt>
      <trkpt lat="48.82429" lon="2.4314">
        <ele>55</ele>
        <time>2014-05-15T11:00:58Z</time>
      </trkpt>
      <trkpt lat="48.8243" lon="2.43142">
        <ele>56</ele>
        <time>2014-05-15T11:00:59Z</time>
      </trkpt>
      <trkpt lat="48.8243" lon="2.43144">
        <ele>56</ele>
        <time>2014-05-15T11:01:00Z</time>
      </trkpt>
      <trkpt lat="48.8243" lon="2.43146">
        <ele>56</ele>
        <time>2014-05-15T11:01:01Z</time>
      </trkpt>
      <trkpt lat="48.8243" lon="2.43148">
        <ele>56</ele>
        <time>2014-05-15T11:01:02Z</time>
      </trkpt>
      <trkpt lat="48.8243" lon="2.4315">
        <ele>56</ele>
        <time>2014-05-15T11:01:03Z</time>
      </trkpt>
      <trkpt lat="48.82429" lon="2.43152">
        <ele>57</ele>
        <time>2014-05-15T11:01:04Z</time>
      </trkpt>
      <trkpt lat="48.82429" lon="2.43154">
        <ele>57</ele>
        <time>2014-05-15T11:01:05Z</time>
      </trkpt>
      <trkpt lat="48.82429" lon="2.43156">
        <ele>57</ele>
        <time>2014-05-15T11:01:06Z</time>
      </trkpt>
      <trkpt lat="48.82429" lon="2.43158">
        <ele>57</ele>
        <time>2014-05-15T11:01:07Z</time>
      </trkpt>
      <trkpt lat="48.82429" lon="2.4316">
        <ele>57</ele>
        <time>2014-05-15T11:01:08Z</time>
      </trkpt>
      <trkpt lat="48.82429" lon="2.43162">
        <ele>57</ele>
        <time>2014-05-15T11:01:09Z</time>
      </trkpt>
      <trkpt lat="48.82429" lon="2.43163">
        <ele>56</ele>
        <time>2014-05-15T11:01:10Z</time>
      </trkpt>
      <trkpt lat="48.82428" lon="2.43164">
        <ele>57</ele>
        <time>2014-05-15T11:01:11Z</time>
      </trkpt>
      <trkpt lat="48.82429" lon="2.43164">
        <ele>57</ele>
        <time>2014-05-15T11:01:12Z</time>
      </trkpt>
      <trkpt lat="48.82429" lon="2.43165">
        <ele>57</ele>
        <time>2014-05-15T11:01:13Z</time>
      </trkpt>
      <trkpt lat="48.82428" lon="2.43165">
        <ele>56</ele>
        <time>2014-05-15T11:01:14Z</time>
      </trkpt>
      <trkpt lat="48.82428" lon="2.43166">
        <ele>56</ele>
        <time>2014-05-15T11:01:15Z</time>
      </trkpt>
      <trkpt lat="48.82427" lon="2.43167">
        <ele>56</ele>
        <time>2014-05-15T11:01:16Z</time>
      </trkpt>
      <trkpt lat="48.82427" lon="2.43168">
        <ele>56</ele>
        <time>2014-05-15T11:01:17Z</time>
      </trkpt>
      <trkpt lat="48.82426" lon="2.43169">
        <ele>55</ele>
        <time>2014-05-15T11:01:18Z</time>
      </trkpt>
      <trkpt lat="48.82425" lon="2.4317">
        <ele>55</ele>
        <time>2014-05-15T11:01:19Z</time>
      </trkpt>
      <trkpt lat="48.82424" lon="2.43171">
        <ele>55</ele>
        <time>2014-05-15T11:01:20Z</time>
      </trkpt>
      <trkpt lat="48.82423" lon="2.43171">
        <ele>55</ele>
        <time>2014-05-15T11:01:21Z</time>
      </trkpt>
      <trkpt lat="48.82422" lon="2.43171">
        <ele>55</ele>
        <time>2014-05-15T11:01:22Z</time>
      </trkpt>
      <trkpt lat="48.82421" lon="2.43172">
        <ele>55</ele>
        <time>2014-05-15T11:01:23Z</time>
      </trkpt>
      <trkpt lat="48.8242" lon="2.43173">
        <ele>54</ele>
        <time>2014-05-15T11:01:24Z</time>
      </trkpt>
      <trkpt lat="48.82419" lon="2.43173">
        <ele>53</ele>
        <time>2014-05-15T11:01:25Z</time>
      </trkpt>
      <trkpt lat="48.82418" lon="2.43174">
        <ele>53</ele>
        <time>2014-05-15T11:01:26Z</time>
      </trkpt>
      <trkpt lat="48.82418" lon="2.43176">
        <ele>53</ele>
        <time>2014-05-15T11:01:27Z</time>
      </trkpt>
      <trkpt lat="48.82417" lon="2.43177">
        <ele>53</ele>
        <time>2014-05-15T11:01:28Z</time>
      </trkpt>
      <trkpt lat="48.82417" lon="2.43178">
        <ele>53</ele>
        <time>2014-05-15T11:01:29Z</time>
      </trkpt>
      <trkpt lat="48.82417" lon="2.43179">
        <ele>53</ele>
        <time>2014-05-15T11:01:30Z</time>
      </trkpt>
      <trkpt lat="48.82417" lon="2.43181">
        <ele>52</ele>
        <time>2014-05-15T11:01:31Z</time>
      </trkpt>
      <trkpt lat="48.82417" lon="2.43182">
        <ele>53</ele>
        <time>2014-05-15T11:01:32Z</time>
      </trkpt>
      <trkpt lat="48.82417" lon="2.43184">
        <ele>54</ele>
        <time>2014-05-15T11:01:33Z</time>
      </trkpt>
      <trkpt lat="48.82417" lon="2.43185">
        <ele>54</ele>
        <time>2014-05-15T11:01:34Z</time>
      </trkpt>
      <trkpt lat="48.82416" lon="2.43187">
        <ele>53</ele>
        <time>2014-05-15T11:01:35Z</time>
      </trkpt>
      <trkpt lat="48.82416" lon="2.4319">
        <ele>52</ele>
        <time>2014-05-15T11:01:36Z</time>
      </trkpt>
      <trkpt lat="48.82416" lon="2.43192">
        <ele>52</ele>
        <time>2014-05-15T11:01:37Z</time>
      </trkpt>
      <trkpt lat="48.82416" lon="2.43194">
        <ele>53</ele>
        <time>2014-05-15T11:01:38Z</time>
      </trkpt>
      <trkpt lat="48.82416" lon="2.43196">
        <ele>52</ele>
        <time>2014-05-15T11:01:39Z</time>
      </trkpt>
      <trkpt lat="48.82416" lon="2.43198">
        <ele>52</ele>
        <time>2014-05-15T11:01:40Z</time>
      </trkpt>
      <trkpt lat="48.82415" lon="2.432">
        <ele>53</ele>
        <time>2014-05-15T11:01:41Z</time>
      </trkpt>
      <trkpt lat="48.82415" lon="2.43202">
        <ele>52</ele>
        <time>2014-05-15T11:01:42Z</time>
      </trkpt>
      <trkpt lat="48.82415" lon="2.43204">
        <ele>52</ele>
        <time>2014-05-15T11:01:43Z</time>
      </trkpt>
      <trkpt lat="48.82414" lon="2.43206">
        <ele>52</ele>
        <time>2014-05-15T11:01:44Z</time>
      </trkpt>
      <trkpt lat="48.82414" lon="2.43208">
        <ele>52</ele>
        <time>2014-05-15T11:01:45Z</time>
      </trkpt>
      <trkpt lat="48.82414" lon="2.43208">
        <ele>52</ele>
        <time>2014-05-15T11:01:46Z</time>
      </trkpt>
      <trkpt lat="48.82414" lon="2.43209">
        <ele>52</ele>
        <time>2014-05-15T11:01:47Z</time>
      </trkpt>
      <trkpt lat="48.82414" lon="2.43208">
        <ele>48</ele>
        <time>2014-05-15T11:01:48Z</time>
      </trkpt>
      <trkpt lat="48.82414" lon="2.43208">
        <ele>48</ele>
        <time>2014-05-15T11:01:49Z</time>
      </trkpt>
      <trkpt lat="48.82413" lon="2.43209">
        <ele>48</ele>
        <time>2014-05-15T11:01:50Z</time>
      </trkpt>
      <trkpt lat="48.82413" lon="2.4321">
        <ele>47</ele>
        <time>2014-05-15T11:01:51Z</time>
      </trkpt>
      <trkpt lat="48.82412" lon="2.4321">
        <ele>47</ele>
        <time>2014-05-15T11:01:52Z</time>
      </trkpt>
      <trkpt lat="48.82412" lon="2.43212">
        <ele>48</ele>
        <time>2014-05-15T11:01:53Z</time>
      </trkpt>
      <trkpt lat="48.82411" lon="2.43215">
        <ele>49</ele>
        <time>2014-05-15T11:01:54Z</time>
      </trkpt>
      <trkpt lat="48.8241" lon="2.43217">
        <ele>50</ele>
        <time>2014-05-15T11:01:55Z</time>
      </trkpt>
      <trkpt lat="48.8241" lon="2.43219">
        <ele>50</ele>
        <time>2014-05-15T11:01:56Z</time>
      </trkpt>
      <trkpt lat="48.82409" lon="2.43222">
        <ele>50</ele>
        <time>2014-05-15T11:01:57Z</time>
      </trkpt>
      <trkpt lat="48.82409" lon="2.43224">
        <ele>51</ele>
        <time>2014-05-15T11:01:58Z</time>
      </trkpt>
      <trkpt lat="48.82409" lon="2.43226">
        <ele>53</ele>
        <time>2014-05-15T11:01:59Z</time>
      </trkpt>
      <trkpt lat="48.82409" lon="2.43227">
        <ele>54</ele>
        <time>2014-05-15T11:02:00Z</time>
      </trkpt>
      <trkpt lat="48.82409" lon="2.43228">
        <ele>54</ele>
        <time>2014-05-15T11:02:01Z</time>
      </trkpt>
      <trkpt lat="48.82409" lon="2.43229">
        <ele>55</ele>
        <time>2014-05-15T11:02:02Z</time>
      </trkpt>
      <trkpt lat="48.82409" lon="2.43229">
        <ele>54</ele>
        <time>2014-05-15T11:02:03Z</time>
      </trkpt>
      <trkpt lat="48.8241" lon="2.43231">
        <ele>54</ele>
        <time>2014-05-15T11:02:04Z</time>
      </trkpt>
      <trkpt lat="48.8241" lon="2.43232">
        <ele>54</ele>
        <time>2014-05-15T11:02:05Z</time>
      </trkpt>
      <trkpt lat="48.82411" lon="2.43233">
        <ele>54</ele>
        <time>2014-05-15T11:02:06Z</time>
      </trkpt>
      <trkpt lat="48.82411" lon="2.43235">
        <ele>55</ele>
        <time>2014-05-15T11:02:07Z</time>
      </trkpt>
      <trkpt lat="48.82411" lon="2.43237">
        <ele>55</ele>
        <time>2014-05-15T11:02:08Z</time>
      </trkpt>
      <trkpt lat="48.82412" lon="2.43239">
        <ele>56</ele>
        <time>2014-05-15T11:02:09Z</time>
      </trkpt>
      <trkpt lat="48.82412" lon="2.43241">
        <ele>56</ele>
        <time>2014-05-15T11:02:10Z</time>
      </trkpt>
      <trkpt lat="48.82412" lon="2.43244">
        <ele>56</ele>
        <time>2014-05-15T11:02:11Z</time>
      </trkpt>
      <trkpt lat="48.82413" lon="2.43246">
        <ele>56</ele>
        <time>2014-05-15T11:02:12Z</time>
      </trkpt>
      <trkpt lat="48.82413" lon="2.43248">
        <ele>56</ele>
        <time>2014-05-15T11:02:13Z</time>
      </trkpt>
      <trkpt lat="48.82413" lon="2.43251">
        <ele>56</ele>
        <time>2014-05-15T11:02:14Z</time>
      </trkpt>
      <trkpt lat="48.82414" lon="2.43253">
        <ele>56</ele>
        <time>2014-05-15T11:02:15Z</time>
      </trkpt>
      <trkpt lat="48.82414" lon="2.43255">
        <ele>56</ele>
        <time>2014-05-15T11:02:16Z</time>
      </trkpt>
      <trkpt lat="48.82414" lon="2.43257">
        <ele>56</ele>
        <time>2014-05-15T11:02:17Z</time>
      </trkpt>
      <trkpt lat="48.82414" lon="2.4326">
        <ele>56</ele>
        <time>2014-05-15T11:02:18Z</time>
      </trkpt>
      <trkpt lat="48.82414" lon="2.43262">
        <ele>54</ele>
        <time>2014-05-15T11:02:19Z</time>
      </trkpt>
      <trkpt lat="48.82413" lon="2.43265">
        <ele>55</ele>
        <time>2014-05-15T11:02:20Z</time>
      </trkpt>
      <trkpt lat="48.82413" lon="2.43267">
        <ele>55</ele>
        <time>2014-05-15T11:02:21Z</time>
      </trkpt>
      <trkpt lat="48.82413" lon="2.43268">
        <ele>55</ele>
        <time>2014-05-15T11:02:22Z</time>
      </trkpt>
      <trkpt lat="48.82413" lon="2.43269">
        <ele>55</ele>
        <time>2014-05-15T11:02:23Z</time>
      </trkpt>
      <trkpt lat="48.82413" lon="2.4327">
        <ele>55</ele>
        <time>2014-05-15T11:02:24Z</time>
      </trkpt>
      <trkpt lat="48.82412" lon="2.43272">
        <ele>54</ele>
        <time>2014-05-15T11:02:25Z</time>
      </trkpt>
      <trkpt lat="48.82412" lon="2.43273">
        <ele>54</ele>
        <time>2014-05-15T11:02:26Z</time>
      </trkpt>
      <trkpt lat="48.82412" lon="2.43274">
        <ele>53</ele>
        <time>2014-05-15T11:02:27Z</time>
      </trkpt>
      <trkpt lat="48.82411" lon="2.43274">
        <ele>53</ele>
        <time>2014-05-15T11:02:28Z</time>
      </trkpt>
      <trkpt lat="48.82411" lon="2.43274">
        <ele>53</ele>
        <time>2014-05-15T11:02:29Z</time>
      </trkpt>
      <trkpt lat="48.82411" lon="2.43274">
        <ele>53</ele>
        <time>2014-05-15T11:02:30Z</time>
      </trkpt>
      <trkpt lat="48.82411" lon="2.43274">
        <ele>53</ele>
        <time>2014-05-15T11:02:31Z</time>
      </trkpt>
      <trkpt lat="48.82411" lon="2.43275">
        <ele>53</ele>
        <time>2014-05-15T11:02:32Z</time>
      </trkpt>
      <trkpt lat="48.82411" lon="2.43275">
        <ele>53</ele>
        <time>2014-05-15T11:02:33Z</time>
      </trkpt>
      <trkpt lat="48.82411" lon="2.43276">
        <ele>52</ele>
        <time>2014-05-15T11:02:34Z</time>
      </trkpt>
      <trkpt lat="48.82411" lon="2.43277">
        <ele>53</ele>
        <time>2014-05-15T11:02:35Z</time>
      </trkpt>
      <trkpt lat="48.82411" lon="2.43279">
        <ele>54</ele>
        <time>2014-05-15T11:02:36Z</time>
      </trkpt>
      <trkpt lat="48.82411" lon="2.43282">
        <ele>56</ele>
        <time>2014-05-15T11:02:37Z</time>
      </trkpt>
      <trkpt lat="48.82411" lon="2.43284">
        <ele>56</ele>
        <time>2014-05-15T11:02:38Z</time>
      </trkpt>
      <trkpt lat="48.82411" lon="2.43286">
        <ele>56</ele>
        <time>2014-05-15T11:02:39Z</time>
      </trkpt>
      <trkpt lat="48.82411" lon="2.43288">
        <ele>55</ele>
        <time>2014-05-15T11:02:40Z</time>
      </trkpt>
      <trkpt lat="48.82411" lon="2.4329">
        <ele>56</ele>
        <time>2014-05-15T11:02:41Z</time>
      </trkpt>
      <trkpt lat="48.82411" lon="2.43292">
        <ele>56</ele>
        <time>2014-05-15T11:02:42Z</time>
      </trkpt>
      <trkpt lat="48.82411" lon="2.43295">
        <ele>57</ele>
        <time>2014-05-15T11:02:43Z</time>
      </trkpt>
      <trkpt lat="48.82411" lon="2.43298">
        <ele>56</ele>
        <time>2014-05-15T11:02:44Z</time>
      </trkpt>
      <trkpt lat="48.82411" lon="2.433">
        <ele>55</ele>
        <time>2014-05-15T11:02:45Z</time>
      </trkpt>
      <trkpt lat="48.82411" lon="2.43303">
        <ele>56</ele>
        <time>2014-05-15T11:02:46Z</time>
      </trkpt>
      <trkpt lat="48.8241" lon="2.43305">
        <ele>57</ele>
        <time>2014-05-15T11:02:47Z</time>
      </trkpt>
      <trkpt lat="48.8241" lon="2.43308">
        <ele>56</ele>
        <time>2014-05-15T11:02:48Z</time>
      </trkpt>
      <trkpt lat="48.8241" lon="2.4331">
        <ele>56</ele>
        <time>2014-05-15T11:02:49Z</time>
      </trkpt>
      <trkpt lat="48.8241" lon="2.43313">
        <ele>56</ele>
        <time>2014-05-15T11:02:50Z</time>
      </trkpt>
      <trkpt lat="48.82411" lon="2.43315">
        <ele>55</ele>
        <time>2014-05-15T11:02:51Z</time>
      </trkpt>
      <trkpt lat="48.82411" lon="2.43318">
        <ele>56</ele>
        <time>2014-05-15T11:02:52Z</time>
      </trkpt>
      <trkpt lat="48.82412" lon="2.4332">
        <ele>58</ele>
        <time>2014-05-15T11:02:53Z</time>
      </trkpt>
      <trkpt lat="48.82412" lon="2.43323">
        <ele>59</ele>
        <time>2014-05-15T11:02:54Z</time>
      </trkpt>
      <trkpt lat="48.82412" lon="2.43325">
        <ele>61</ele>
        <time>2014-05-15T11:02:55Z</time>
      </trkpt>
      <trkpt lat="48.82412" lon="2.43328">
        <ele>61</ele>
        <time>2014-05-15T11:02:56Z</time>
      </trkpt>
      <trkpt lat="48.82412" lon="2.4333">
        <ele>60</ele>
        <time>2014-05-15T11:02:57Z</time>
      </trkpt>
      <trkpt lat="48.82412" lon="2.43333">
        <ele>59</ele>
        <time>2014-05-15T11:02:58Z</time>
      </trkpt>
      <trkpt lat="48.82411" lon="2.43335">
        <ele>60</ele>
        <time>2014-05-15T11:02:59Z</time>
      </trkpt>
      <trkpt lat="48.82411" lon="2.43338">
        <ele>60</ele>
        <time>2014-05-15T11:03:00Z</time>
      </trkpt>
      <trkpt lat="48.82411" lon="2.4334">
        <ele>59</ele>
        <time>2014-05-15T11:03:01Z</time>
      </trkpt>
      <trkpt lat="48.82411" lon="2.43342">
        <ele>58</ele>
        <time>2014-05-15T11:03:02Z</time>
      </trkpt>
      <trkpt lat="48.8241" lon="2.43344">
        <ele>58</ele>
        <time>2014-05-15T11:03:03Z</time>
      </trkpt>
      <trkpt lat="48.82409" lon="2.43345">
        <ele>59</ele>
        <time>2014-05-15T11:03:04Z</time>
      </trkpt>
      <trkpt lat="48.82409" lon="2.43345">
        <ele>59</ele>
        <time>2014-05-15T11:03:05Z</time>
      </trkpt>
      <trkpt lat="48.82408" lon="2.43346">
        <ele>59</ele>
        <time>2014-05-15T11:03:06Z</time>
      </trkpt>
      <trkpt lat="48.82408" lon="2.43348">
        <ele>59</ele>
        <time>2014-05-15T11:03:07Z</time>
      </trkpt>
      <trkpt lat="48.82408" lon="2.4335">
        <ele>58</ele>
        <time>2014-05-15T11:03:08Z</time>
      </trkpt>
      <trkpt lat="48.82407" lon="2.43352">
        <ele>58</ele>
        <time>2014-05-15T11:03:09Z</time>
      </trkpt>
      <trkpt lat="48.82406" lon="2.43354">
        <ele>59</ele>
        <time>2014-05-15T11:03:10Z</time>
      </trkpt>
      <trkpt lat="48.82406" lon="2.43356">
        <ele>59</ele>
        <time>2014-05-15T11:03:11Z</time>
      </trkpt>
      <trkpt lat="48.82406" lon="2.43359">
        <ele>59</ele>
        <time>2014-05-15T11:03:12Z</time>
      </trkpt>
      <trkpt lat="48.82407" lon="2.43361">
        <ele>62</ele>
        <time>2014-05-15T11:03:13Z</time>
      </trkpt>
      <trkpt lat="48.82407" lon="2.43363">
        <ele>62</ele>
        <time>2014-05-15T11:03:14Z</time>
      </trkpt>
      <trkpt lat="48.82407" lon="2.43365">
        <ele>61</ele>
        <time>2014-05-15T11:03:15Z</time>
      </trkpt>
      <trkpt lat="48.82408" lon="2.43367">
        <ele>62</ele>
        <time>2014-05-15T11:03:16Z</time>
      </trkpt>
      <trkpt lat="48.82408" lon="2.4337">
        <ele>62</ele>
        <time>2014-05-15T11:03:17Z</time>
      </trkpt>
      <trkpt lat="48.82408" lon="2.43372">
        <ele>60</ele>
        <time>2014-05-15T11:03:18Z</time>
      </trkpt>
      <trkpt lat="48.82408" lon="2.43374">
        <ele>59</ele>
        <time>2014-05-15T11:03:19Z</time>
      </trkpt>
      <trkpt lat="48.82408" lon="2.43377">
        <ele>59</ele>
        <time>2014-05-15T11:03:20Z</time>
      </trkpt>
      <trkpt lat="48.82408" lon="2.43379">
        <ele>58</ele>
        <time>2014-05-15T11:03:21Z</time>
      </trkpt>
      <trkpt lat="48.82409" lon="2.43381">
        <ele>59</ele>
        <time>2014-05-15T11:03:22Z</time>
      </trkpt>
      <trkpt lat="48.8241" lon="2.43382">
        <ele>56</ele>
        <time>2014-05-15T11:03:23Z</time>
      </trkpt>
      <trkpt lat="48.82411" lon="2.43384">
        <ele>56</ele>
        <time>2014-05-15T11:03:24Z</time>
      </trkpt>
      <trkpt lat="48.82412" lon="2.43386">
        <ele>55</ele>
        <time>2014-05-15T11:03:25Z</time>
      </trkpt>
      <trkpt lat="48.82412" lon="2.43388">
        <ele>56</ele>
        <time>2014-05-15T11:03:26Z</time>
      </trkpt>
      <trkpt lat="48.82413" lon="2.4339">
        <ele>57</ele>
        <time>2014-05-15T11:03:27Z</time>
      </trkpt>
      <trkpt lat="48.82414" lon="2.43392">
        <ele>56</ele>
        <time>2014-05-15T11:03:28Z</time>
      </trkpt>
      <trkpt lat="48.82414" lon="2.43394">
        <ele>56</ele>
        <time>2014-05-15T11:03:29Z</time>
      </trkpt>
      <trkpt lat="48.82413" lon="2.43396">
        <ele>56</ele>
        <time>2014-05-15T11:03:30Z</time>
      </trkpt>
      <trkpt lat="48.82413" lon="2.43398">
        <ele>56</ele>
        <time>2014-05-15T11:03:31Z</time>
      </trkpt>
      <trkpt lat="48.82414" lon="2.43399">
        <ele>57</ele>
        <time>2014-05-15T11:03:32Z</time>
      </trkpt>
      <trkpt lat="48.82414" lon="2.43401">
        <ele>57</ele>
        <time>2014-05-15T11:03:33Z</time>
      </trkpt>
      <trkpt lat="48.82413" lon="2.43403">
        <ele>58</ele>
        <time>2014-05-15T11:03:34Z</time>
      </trkpt>
      <trkpt lat="48.82413" lon="2.43405">
        <ele>58</ele>
        <time>2014-05-15T11:03:35Z</time>
      </trkpt>
      <trkpt lat="48.82413" lon="2.43406">
        <ele>58</ele>
        <time>2014-05-15T11:03:36Z</time>
      </trkpt>
      <trkpt lat="48.82413" lon="2.43408">
        <ele>58</ele>
        <time>2014-05-15T11:03:37Z</time>
      </trkpt>
      <trkpt lat="48.82413" lon="2.4341">
        <ele>58</ele>
        <time>2014-05-15T11:03:38Z</time>
      </trkpt>
      <trkpt lat="48.82413" lon="2.43411">
        <ele>56</ele>
        <time>2014-05-15T11:03:39Z</time>
      </trkpt>
      <trkpt lat="48.82414" lon="2.43413">
        <ele>58</ele>
        <time>2014-05-15T11:03:40Z</time>
      </trkpt>
      <trkpt lat="48.82415" lon="2.43414">
        <ele>57</ele>
        <time>2014-05-15T11:03:41Z</time>
      </trkpt>
      <trkpt lat="48.82416" lon="2.43416">
        <ele>57</ele>
        <time>2014-05-15T11:03:42Z</time>
      </trkpt>
      <trkpt lat="48.82418" lon="2.43417">
        <ele>58</ele>
        <time>2014-05-15T11:03:43Z</time>
      </trkpt>
      <trkpt lat="48.8242" lon="2.43419">
        <ele>57</ele>
        <time>2014-05-15T11:03:44Z</time>
      </trkpt>
      <trkpt lat="48.82422" lon="2.4342">
        <ele>56</ele>
        <time>2014-05-15T11:03:45Z</time>
      </trkpt>
      <trkpt lat="48.82424" lon="2.43422">
        <ele>56</ele>
        <time>2014-05-15T11:03:46Z</time>
      </trkpt>
      <trkpt lat="48.82425" lon="2.43424">
        <ele>56</ele>
        <time>2014-05-15T11:03:47Z</time>
      </trkpt>
      <trkpt lat="48.82426" lon="2.43427">
        <ele>58</ele>
        <time>2014-05-15T11:03:48Z</time>
      </trkpt>
      <trkpt lat="48.82427" lon="2.43429">
        <ele>59</ele>
        <time>2014-05-15T11:03:49Z</time>
      </trkpt>
      <trkpt lat="48.82428" lon="2.43431">
        <ele>59</ele>
        <time>2014-05-15T11:03:50Z</time>
      </trkpt>
      <trkpt lat="48.82428" lon="2.43433">
        <ele>59</ele>
        <time>2014-05-15T11:03:51Z</time>
      </trkpt>
      <trkpt lat="48.82429" lon="2.43435">
        <ele>58</ele>
        <time>2014-05-15T11:03:52Z</time>
      </trkpt>
      <trkpt lat="48.8243" lon="2.43437">
        <ele>60</ele>
        <time>2014-05-15T11:03:53Z</time>
      </trkpt>
      <trkpt lat="48.82431" lon="2.43439">
        <ele>60</ele>
        <time>2014-05-15T11:03:54Z</time>
      </trkpt>
      <trkpt lat="48.82432" lon="2.43441">
        <ele>59</ele>
        <time>2014-05-15T11:03:55Z</time>
      </trkpt>
      <trkpt lat="48.82433" lon="2.43443">
        <ele>58</ele>
        <time>2014-05-15T11:03:56Z</time>
      </trkpt>
      <trkpt lat="48.82433" lon="2.43444">
        <ele>57</ele>
        <time>2014-05-15T11:03:57Z</time>
      </trkpt>
      <trkpt lat="48.82434" lon="2.43446">
        <ele>57</ele>
        <time>2014-05-15T11:03:58Z</time>
      </trkpt>
      <trkpt lat="48.82435" lon="2.43448">
        <ele>57</ele>
        <time>2014-05-15T11:03:59Z</time>
      </trkpt>
      <trkpt lat="48.82435" lon="2.4345">
        <ele>56</ele>
        <time>2014-05-15T11:04:00Z</time>
      </trkpt>
      <trkpt lat="48.82436" lon="2.43451">
        <ele>56</ele>
        <time>2014-05-15T11:04:01Z</time>
      </trkpt>
      <trkpt lat="48.82436" lon="2.43453">
        <ele>56</ele>
        <time>2014-05-15T11:04:02Z</time>
      </trkpt>
      <trkpt lat="48.82437" lon="2.43455">
        <ele>56</ele>
        <time>2014-05-15T11:04:03Z</time>
      </trkpt>
      <trkpt lat="48.82438" lon="2.43457">
        <ele>55</ele>
        <time>2014-05-15T11:04:04Z</time>
      </trkpt>
      <trkpt lat="48.82439" lon="2.43458">
        <ele>55</ele>
        <time>2014-05-15T11:04:05Z</time>
      </trkpt>
      <trkpt lat="48.8244" lon="2.43459">
        <ele>55</ele>
        <time>2014-05-15T11:04:06Z</time>
      </trkpt>
      <trkpt lat="48.82441" lon="2.43461">
        <ele>54</ele>
        <time>2014-05-15T11:04:07Z</time>
      </trkpt>
      <trkpt lat="48.82441" lon="2.43463">
        <ele>54</ele>
        <time>2014-05-15T11:04:08Z</time>
      </trkpt>
      <trkpt lat="48.82442" lon="2.43464">
        <ele>53</ele>
        <time>2014-05-15T11:04:09Z</time>
      </trkpt>
      <trkpt lat="48.82443" lon="2.43466">
        <ele>54</ele>
        <time>2014-05-15T11:04:10Z</time>
      </trkpt>
      <trkpt lat="48.82443" lon="2.43468">
        <ele>52</ele>
        <time>2014-05-15T11:04:11Z</time>
      </trkpt>
      <trkpt lat="48.82444" lon="2.4347">
        <ele>53</ele>
        <time>2014-05-15T11:04:12Z</time>
      </trkpt>
      <trkpt lat="48.82445" lon="2.43472">
        <ele>54</ele>
        <time>2014-05-15T11:04:13Z</time>
      </trkpt>
      <trkpt lat="48.82445" lon="2.43473">
        <ele>54</ele>
        <time>2014-05-15T11:04:14Z</time>
      </trkpt>
      <trkpt lat="48.82446" lon="2.43475">
        <ele>54</ele>
        <time>2014-05-15T11:04:15Z</time>
      </trkpt>
      <trkpt lat="48.82446" lon="2.43477">
        <ele>54</ele>
        <time>2014-05-15T11:04:16Z</time>
      </trkpt>
      <trkpt lat="48.82447" lon="2.43479">
        <ele>55</ele>
        <time>2014-05-15T11:04:17Z</time>
      </trkpt>
      <trkpt lat="48.82447" lon="2.43481">
        <ele>56</ele>
        <time>2014-05-15T11:04:18Z</time>
      </trkpt>
      <trkpt lat="48.82448" lon="2.43483">
        <ele>55</ele>
        <time>2014-05-15T11:04:19Z</time>
      </trkpt>
      <trkpt lat="48.82448" lon="2.43485">
        <ele>54</ele>
        <time>2014-05-15T11:04:20Z</time>
      </trkpt>
      <trkpt lat="48.82449" lon="2.43486">
        <ele>54</ele>
        <time>2014-05-15T11:04:21Z</time>
      </trkpt>
      <trkpt lat="48.8245" lon="2.43487">
        <ele>54</ele>
        <time>2014-05-15T11:04:22Z</time>
      </trkpt>
      <trkpt lat="48.82451" lon="2.43488">
        <ele>55</ele>
        <time>2014-05-15T11:04:23Z</time>
      </trkpt>
      <trkpt lat="48.82452" lon="2.43489">
        <ele>56</ele>
        <time>2014-05-15T11:04:24Z</time>
      </trkpt>
      <trkpt lat="48.82453" lon="2.4349">
        <ele>56</ele>
        <time>2014-05-15T11:04:25Z</time>
      </trkpt>
      <trkpt lat="48.82454" lon="2.43491">
        <ele>57</ele>
        <time>2014-05-15T11:04:26Z</time>
      </trkpt>
      <trkpt lat="48.82455" lon="2.43492">
        <ele>57</ele>
        <time>2014-05-15T11:04:27Z</time>
      </trkpt>
      <trkpt lat="48.82456" lon="2.43493">
        <ele>56</ele>
        <time>2014-05-15T11:04:28Z</time>
      </trkpt>
      <trkpt lat="48.82457" lon="2.43495">
        <ele>55</ele>
        <time>2014-05-15T11:04:29Z</time>
      </trkpt>
      <trkpt lat="48.82457" lon="2.43497">
        <ele>54</ele>
        <time>2014-05-15T11:04:30Z</time>
      </trkpt>
      <trkpt lat="48.82458" lon="2.43498">
        <ele>55</ele>
        <time>2014-05-15T11:04:31Z</time>
      </trkpt>
      <trkpt lat="48.82458" lon="2.43501">
        <ele>56</ele>
        <time>2014-05-15T11:04:32Z</time>
      </trkpt>
      <trkpt lat="48.82459" lon="2.43503">
        <ele>57</ele>
        <time>2014-05-15T11:04:33Z</time>
      </trkpt>
      <trkpt lat="48.82459" lon="2.43505">
        <ele>57</ele>
        <time>2014-05-15T11:04:34Z</time>
      </trkpt>
      <trkpt lat="48.8246" lon="2.43507">
        <ele>58</ele>
        <time>2014-05-15T11:04:35Z</time>
      </trkpt>
      <trkpt lat="48.82462" lon="2.43508">
        <ele>57</ele>
        <time>2014-05-15T11:04:36Z</time>
      </trkpt>
      <trkpt lat="48.82462" lon="2.43511">
        <ele>56</ele>
        <time>2014-05-15T11:04:37Z</time>
      </trkpt>
      <trkpt lat="48.82463" lon="2.43513">
        <ele>55</ele>
        <time>2014-05-15T11:04:38Z</time>
      </trkpt>
      <trkpt lat="48.82463" lon="2.43515">
        <ele>56</ele>
        <time>2014-05-15T11:04:39Z</time>
      </trkpt>
      <trkpt lat="48.82463" lon="2.43517">
        <ele>56</ele>
        <time>2014-05-15T11:04:40Z</time>
      </trkpt>
      <trkpt lat="48.82464" lon="2.43519">
        <ele>54</ele>
        <time>2014-05-15T11:04:41Z</time>
      </trkpt>
      <trkpt lat="48.82464" lon="2.43521">
        <ele>54</ele>
        <time>2014-05-15T11:04:42Z</time>
      </trkpt>
      <trkpt lat="48.82464" lon="2.43522">
        <ele>56</ele>
        <time>2014-05-15T11:04:43Z</time>
      </trkpt>
      <trkpt lat="48.82465" lon="2.43524">
        <ele>57</ele>
        <time>2014-05-15T11:04:44Z</time>
      </trkpt>
      <trkpt lat="48.82466" lon="2.43525">
        <ele>57</ele>
        <time>2014-05-15T11:04:45Z</time>
      </trkpt>
      <trkpt lat="48.82467" lon="2.43526">
        <ele>57</ele>
        <time>2014-05-15T11:04:46Z</time>
      </trkpt>
      <trkpt lat="48.82468" lon="2.43528">
        <ele>57</ele>
        <time>2014-05-15T11:04:47Z</time>
      </trkpt>
      <trkpt lat="48.82468" lon="2.4353">
        <ele>57</ele>
        <time>2014-05-15T11:04:48Z</time>
      </trkpt>
      <trkpt lat="48.82468" lon="2.43532">
        <ele>57</ele>
        <time>2014-05-15T11:04:49Z</time>
      </trkpt>
      <trkpt lat="48.82469" lon="2.43534">
        <ele>57</ele>
        <time>2014-05-15T11:04:50Z</time>
      </trkpt>
      <trkpt lat="48.82469" lon="2.43536">
        <ele>57</ele>
        <time>2014-05-15T11:04:51Z</time>
      </trkpt>
      <trkpt lat="48.8247" lon="2.43538">
        <ele>57</ele>
        <time>2014-05-15T11:04:52Z</time>
      </trkpt>
      <trkpt lat="48.8247" lon="2.4354">
        <ele>58</ele>
        <time>2014-05-15T11:04:53Z</time>
      </trkpt>
      <trkpt lat="48.82471" lon="2.43542">
        <ele>58</ele>
        <time>2014-05-15T11:04:54Z</time>
      </trkpt>
      <trkpt lat="48.82472" lon="2.43543">
        <ele>58</ele>
        <time>2014-05-15T11:04:55Z</time>
      </trkpt>
      <trkpt lat="48.82473" lon="2.43545">
        <ele>58</ele>
        <time>2014-05-15T11:04:56Z</time>
      </trkpt>
      <trkpt lat="48.82474" lon="2.43547">
        <ele>59</ele>
        <time>2014-05-15T11:04:57Z</time>
      </trkpt>
      <trkpt lat="48.82474" lon="2.43549">
        <ele>59</ele>
        <time>2014-05-15T11:04:58Z</time>
      </trkpt>
      <trkpt lat="48.82475" lon="2.43551">
        <ele>60</ele>
        <time>2014-05-15T11:04:59Z</time>
      </trkpt>
      <trkpt lat="48.82476" lon="2.43553">
        <ele>59</ele>
        <time>2014-05-15T11:05:00Z</time>
      </trkpt>
      <trkpt lat="48.82476" lon="2.43554">
        <ele>58</ele>
        <time>2014-05-15T11:05:01Z</time>
      </trkpt>
      <trkpt lat="48.82476" lon="2.43557">
        <ele>58</ele>
        <time>2014-05-15T11:05:02Z</time>
      </trkpt>
      <trkpt lat="48.82476" lon="2.43559">
        <ele>57</ele>
        <time>2014-05-15T11:05:03Z</time>
      </trkpt>
      <trkpt lat="48.82476" lon="2.43561">
        <ele>58</ele>
        <time>2014-05-15T11:05:04Z</time>
      </trkpt>
      <trkpt lat="48.82476" lon="2.43563">
        <ele>58</ele>
        <time>2014-05-15T11:05:05Z</time>
      </trkpt>
      <trkpt lat="48.82476" lon="2.43565">
        <ele>58</ele>
        <time>2014-05-15T11:05:06Z</time>
      </trkpt>
      <trkpt lat="48.82477" lon="2.43567">
        <ele>58</ele>
        <time>2014-05-15T11:05:07Z</time>
      </trkpt>
      <trkpt lat="48.82478" lon="2.43569">
        <ele>59</ele>
        <time>2014-05-15T11:05:08Z</time>
      </trkpt>
      <trkpt lat="48.82478" lon="2.43571">
        <ele>59</ele>
        <time>2014-05-15T11:05:09Z</time>
      </trkpt>
      <trkpt lat="48.82478" lon="2.43572">
        <ele>60</ele>
        <time>2014-05-15T11:05:10Z</time>
      </trkpt>
      <trkpt lat="48.82478" lon="2.43574">
        <ele>60</ele>
        <time>2014-05-15T11:05:11Z</time>
      </trkpt>
      <trkpt lat="48.82477" lon="2.43575">
        <ele>59</ele>
        <time>2014-05-15T11:05:12Z</time>
      </trkpt>
      <trkpt lat="48.82478" lon="2.43577">
        <ele>60</ele>
        <time>2014-05-15T11:05:13Z</time>
      </trkpt>
      <trkpt lat="48.82478" lon="2.43579">
        <ele>60</ele>
        <time>2014-05-15T11:05:14Z</time>
      </trkpt>
      <trkpt lat="48.8248" lon="2.4358">
        <ele>62</ele>
        <time>2014-05-15T11:05:15Z</time>
      </trkpt>
      <trkpt lat="48.82481" lon="2.43582">
        <ele>61</ele>
        <time>2014-05-15T11:05:16Z</time>
      </trkpt>
      <trkpt lat="48.82482" lon="2.43583">
        <ele>61</ele>
        <time>2014-05-15T11:05:17Z</time>
      </trkpt>
      <trkpt lat="48.82482" lon="2.43585">
        <ele>61</ele>
        <time>2014-05-15T11:05:18Z</time>
      </trkpt>
      <trkpt lat="48.82483" lon="2.43586">
        <ele>61</ele>
        <time>2014-05-15T11:05:19Z</time>
      </trkpt>
      <trkpt lat="48.82484" lon="2.43587">
        <ele>62</ele>
        <time>2014-05-15T11:05:20Z</time>
      </trkpt>
      <trkpt lat="48.82486" lon="2.43588">
        <ele>61</ele>
        <time>2014-05-15T11:05:21Z</time>
      </trkpt>
      <trkpt lat="48.82487" lon="2.43589">
        <ele>62</ele>
        <time>2014-05-15T11:05:22Z</time>
      </trkpt>
      <trkpt lat="48.82488" lon="2.4359">
        <ele>62</ele>
        <time>2014-05-15T11:05:23Z</time>
      </trkpt>
      <trkpt lat="48.8249" lon="2.43592">
        <ele>63</ele>
        <time>2014-05-15T11:05:24Z</time>
      </trkpt>
      <trkpt lat="48.82491" lon="2.43593">
        <ele>63</ele>
        <time>2014-05-15T11:05:25Z</time>
      </trkpt>
      <trkpt lat="48.82492" lon="2.43595">
        <ele>62</ele>
        <time>2014-05-15T11:05:26Z</time>
      </trkpt>
      <trkpt lat="48.82492" lon="2.43597">
        <ele>63</ele>
        <time>2014-05-15T11:05:27Z</time>
      </trkpt>
      <trkpt lat="48.82493" lon="2.43599">
        <ele>63</ele>
        <time>2014-05-15T11:05:28Z</time>
      </trkpt>
      <trkpt lat="48.82494" lon="2.43601">
        <ele>63</ele>
        <time>2014-05-15T11:05:29Z</time>
      </trkpt>
      <trkpt lat="48.82494" lon="2.43603">
        <ele>62</ele>
        <time>2014-05-15T11:05:30Z</time>
      </trkpt>
      <trkpt lat="48.82494" lon="2.43605">
        <ele>63</ele>
        <time>2014-05-15T11:05:31Z</time>
      </trkpt>
      <trkpt lat="48.82495" lon="2.43607">
        <ele>64</ele>
        <time>2014-05-15T11:05:32Z</time>
      </trkpt>
      <trkpt lat="48.82495" lon="2.43609">
        <ele>63</ele>
        <time>2014-05-15T11:05:33Z</time>
      </trkpt>
      <trkpt lat="48.82495" lon="2.43611">
        <ele>61</ele>
        <time>2014-05-15T11:05:34Z</time>
      </trkpt>
      <trkpt lat="48.82495" lon="2.43612">
        <ele>61</ele>
        <time>2014-05-15T11:05:35Z</time>
      </trkpt>
      <trkpt lat="48.82495" lon="2.43614">
        <ele>60</ele>
        <time>2014-05-15T11:05:36Z</time>
      </trkpt>
      <trkpt lat="48.82496" lon="2.43615">
        <ele>61</ele>
        <time>2014-05-15T11:05:37Z</time>
      </trkpt>
      <trkpt lat="48.82497" lon="2.43617">
        <ele>63</ele>
        <time>2014-05-15T11:05:38Z</time>
      </trkpt>
      <trkpt lat="48.82498" lon="2.43618">
        <ele>65</ele>
        <time>2014-05-15T11:05:39Z</time>
      </trkpt>
      <trkpt lat="48.825" lon="2.43619">
        <ele>65</ele>
        <time>2014-05-15T11:05:40Z</time>
      </trkpt>
      <trkpt lat="48.82501" lon="2.43621">
        <ele>65</ele>
        <time>2014-05-15T11:05:41Z</time>
      </trkpt>
      <trkpt lat="48.82502" lon="2.43622">
        <ele>65</ele>
        <time>2014-05-15T11:05:42Z</time>
      </trkpt>
      <trkpt lat="48.82503" lon="2.43623">
        <ele>63</ele>
        <time>2014-05-15T11:05:43Z</time>
      </trkpt>
      <trkpt lat="48.82504" lon="2.43622">
        <ele>61</ele>
        <time>2014-05-15T11:05:44Z</time>
      </trkpt>
      <trkpt lat="48.82504" lon="2.43622">
        <ele>60</ele>
        <time>2014-05-15T11:05:45Z</time>
      </trkpt>
      <trkpt lat="48.82505" lon="2.43621">
        <ele>61</ele>
        <time>2014-05-15T11:05:46Z</time>
      </trkpt>
      <trkpt lat="48.82505" lon="2.43621">
        <ele>61</ele>
        <time>2014-05-15T11:05:47Z</time>
      </trkpt>
      <trkpt lat="48.82505" lon="2.4362">
        <ele>59</ele>
        <time>2014-05-15T11:05:48Z</time>
      </trkpt>
      <trkpt lat="48.82506" lon="2.43619">
        <ele>59</ele>
        <time>2014-05-15T11:05:49Z</time>
      </trkpt>
      <trkpt lat="48.82506" lon="2.43618">
        <ele>59</ele>
        <time>2014-05-15T11:05:50Z</time>
      </trkpt>
      <trkpt lat="48.82506" lon="2.43618">
        <ele>59</ele>
        <time>2014-05-15T11:05:51Z</time>
      </trkpt>
      <trkpt lat="48.82507" lon="2.43617">
        <ele>59</ele>
        <time>2014-05-15T11:05:52Z</time>
      </trkpt>
      <trkpt lat="48.82507" lon="2.43616">
        <ele>59</ele>
        <time>2014-05-15T11:05:53Z</time>
      </trkpt>
      <trkpt lat="48.82508" lon="2.43616">
        <ele>58</ele>
        <time>2014-05-15T11:05:54Z</time>
      </trkpt>
      <trkpt lat="48.82508" lon="2.43615">
        <ele>58</ele>
        <time>2014-05-15T11:05:55Z</time>
      </trkpt>
      <trkpt lat="48.82508" lon="2.43613">
        <ele>59</ele>
        <time>2014-05-15T11:05:56Z</time>
      </trkpt>
      <trkpt lat="48.82508" lon="2.43612">
        <ele>59</ele>
        <time>2014-05-15T11:05:57Z</time>
      </trkpt>
      <trkpt lat="48.82508" lon="2.4361">
        <ele>60</ele>
        <time>2014-05-15T11:05:58Z</time>
      </trkpt>
      <trkpt lat="48.82508" lon="2.43609">
        <ele>59</ele>
        <time>2014-05-15T11:05:59Z</time>
      </trkpt>
      <trkpt lat="48.82508" lon="2.43607">
        <ele>58</ele>
        <time>2014-05-15T11:06:00Z</time>
      </trkpt>
      <trkpt lat="48.82508" lon="2.43606">
        <ele>60</ele>
        <time>2014-05-15T11:06:01Z</time>
      </trkpt>
      <trkpt lat="48.82508" lon="2.43604">
        <ele>57</ele>
        <time>2014-05-15T11:06:02Z</time>
      </trkpt>
      <trkpt lat="48.82508" lon="2.43602">
        <ele>58</ele>
        <time>2014-05-15T11:06:03Z</time>
      </trkpt>
      <trkpt lat="48.82509" lon="2.43601">
        <ele>59</ele>
        <time>2014-05-15T11:06:04Z</time>
      </trkpt>
      <trkpt lat="48.8251" lon="2.436">
        <ele>59</ele>
        <time>2014-05-15T11:06:05Z</time>
      </trkpt>
      <trkpt lat="48.82511" lon="2.43599">
        <ele>59</ele>
        <time>2014-05-15T11:06:06Z</time>
      </trkpt>
      <trkpt lat="48.82512" lon="2.43598">
        <ele>59</ele>
        <time>2014-05-15T11:06:07Z</time>
      </trkpt>
      <trkpt lat="48.82513" lon="2.43598">
        <ele>59</ele>
        <time>2014-05-15T11:06:08Z</time>
      </trkpt>
      <trkpt lat="48.82514" lon="2.43597">
        <ele>59</ele>
        <time>2014-05-15T11:06:09Z</time>
      </trkpt>
      <trkpt lat="48.82515" lon="2.43596">
        <ele>60</ele>
        <time>2014-05-15T11:06:10Z</time>
      </trkpt>
      <trkpt lat="48.82515" lon="2.43595">
        <ele>60</ele>
        <time>2014-05-15T11:06:11Z</time>
      </trkpt>
      <trkpt lat="48.82516" lon="2.43594">
        <ele>60</ele>
        <time>2014-05-15T11:06:12Z</time>
      </trkpt>
      <trkpt lat="48.82517" lon="2.43593">
        <ele>59</ele>
        <time>2014-05-15T11:06:13Z</time>
      </trkpt>
      <trkpt lat="48.82518" lon="2.43592">
        <ele>61</ele>
        <time>2014-05-15T11:06:14Z</time>
      </trkpt>
      <trkpt lat="48.82519" lon="2.4359">
        <ele>59</ele>
        <time>2014-05-15T11:06:15Z</time>
      </trkpt>
      <trkpt lat="48.8252" lon="2.43589">
        <ele>58</ele>
        <time>2014-05-15T11:06:16Z</time>
      </trkpt>
      <trkpt lat="48.82521" lon="2.43587">
        <ele>60</ele>
        <time>2014-05-15T11:06:17Z</time>
      </trkpt>
      <trkpt lat="48.82521" lon="2.43585">
        <ele>57</ele>
        <time>2014-05-15T11:06:18Z</time>
      </trkpt>
      <trkpt lat="48.82521" lon="2.43583">
        <ele>57</ele>
        <time>2014-05-15T11:06:19Z</time>
      </trkpt>
      <trkpt lat="48.82522" lon="2.43582">
        <ele>58</ele>
        <time>2014-05-15T11:06:20Z</time>
      </trkpt>
      <trkpt lat="48.82523" lon="2.43581">
        <ele>58</ele>
        <time>2014-05-15T11:06:21Z</time>
      </trkpt>
      <trkpt lat="48.82523" lon="2.4358">
        <ele>58</ele>
        <time>2014-05-15T11:06:22Z</time>
      </trkpt>
      <trkpt lat="48.82524" lon="2.43578">
        <ele>59</ele>
        <time>2014-05-15T11:06:23Z</time>
      </trkpt>
      <trkpt lat="48.82524" lon="2.43577">
        <ele>58</ele>
        <time>2014-05-15T11:06:24Z</time>
      </trkpt>
      <trkpt lat="48.82525" lon="2.43576">
        <ele>60</ele>
        <time>2014-05-15T11:06:25Z</time>
      </trkpt>
      <trkpt lat="48.82525" lon="2.43574">
        <ele>62</ele>
        <time>2014-05-15T11:06:26Z</time>
      </trkpt>
      <trkpt lat="48.82525" lon="2.43572">
        <ele>62</ele>
        <time>2014-05-15T11:06:27Z</time>
      </trkpt>
      <trkpt lat="48.82526" lon="2.43571">
        <ele>63</ele>
        <time>2014-05-15T11:06:28Z</time>
      </trkpt>
      <trkpt lat="48.82526" lon="2.43569">
        <ele>64</ele>
        <time>2014-05-15T11:06:29Z</time>
      </trkpt>
      <trkpt lat="48.82527" lon="2.43567">
        <ele>64</ele>
        <time>2014-05-15T11:06:30Z</time>
      </trkpt>
      <trkpt lat="48.82527" lon="2.43564">
        <ele>64</ele>
        <time>2014-05-15T11:06:31Z</time>
      </trkpt>
      <trkpt lat="48.82528" lon="2.43562">
        <ele>64</ele>
        <time>2014-05-15T11:06:32Z</time>
      </trkpt>
      <trkpt lat="48.82528" lon="2.43559">
        <ele>65</ele>
        <time>2014-05-15T11:06:33Z</time>
      </trkpt>
      <trkpt lat="48.82529" lon="2.43557">
        <ele>67</ele>
        <time>2014-05-15T11:06:34Z</time>
      </trkpt>
      <trkpt lat="48.82529" lon="2.43554">
        <ele>67</ele>
        <time>2014-05-15T11:06:35Z</time>
      </trkpt>
      <trkpt lat="48.82529" lon="2.43552">
        <ele>66</ele>
        <time>2014-05-15T11:06:36Z</time>
      </trkpt>
      <trkpt lat="48.8253" lon="2.43551">
        <ele>65</ele>
        <time>2014-05-15T11:06:37Z</time>
      </trkpt>
      <trkpt lat="48.82531" lon="2.4355">
        <ele>64</ele>
        <time>2014-05-15T11:06:38Z</time>
      </trkpt>
      <trkpt lat="48.82531" lon="2.43548">
        <ele>64</ele>
        <time>2014-05-15T11:06:39Z</time>
      </trkpt>
      <trkpt lat="48.82532" lon="2.43547">
        <ele>64</ele>
        <time>2014-05-15T11:06:40Z</time>
      </trkpt>
      <trkpt lat="48.82532" lon="2.43544">
        <ele>64</ele>
        <time>2014-05-15T11:06:41Z</time>
      </trkpt>
      <trkpt lat="48.82531" lon="2.43542">
        <ele>63</ele>
        <time>2014-05-15T11:06:42Z</time>
      </trkpt>
      <trkpt lat="48.82531" lon="2.4354">
        <ele>62</ele>
        <time>2014-05-15T11:06:43Z</time>
      </trkpt>
      <trkpt lat="48.82531" lon="2.43538">
        <ele>62</ele>
        <time>2014-05-15T11:06:44Z</time>
      </trkpt>
      <trkpt lat="48.82531" lon="2.43536">
        <ele>61</ele>
        <time>2014-05-15T11:06:45Z</time>
      </trkpt>
      <trkpt lat="48.82531" lon="2.43535">
        <ele>61</ele>
        <time>2014-05-15T11:06:46Z</time>
      </trkpt>
      <trkpt lat="48.82532" lon="2.43533">
        <ele>63</ele>
        <time>2014-05-15T11:06:47Z</time>
      </trkpt>
      <trkpt lat="48.82532" lon="2.43531">
        <ele>62</ele>
        <time>2014-05-15T11:06:48Z</time>
      </trkpt>
      <trkpt lat="48.82533" lon="2.43529">
        <ele>63</ele>
        <time>2014-05-15T11:06:49Z</time>
      </trkpt>
      <trkpt lat="48.82533" lon="2.43528">
        <ele>63</ele>
        <time>2014-05-15T11:06:50Z</time>
      </trkpt>
      <trkpt lat="48.82533" lon="2.43526">
        <ele>63</ele>
        <time>2014-05-15T11:06:51Z</time>
      </trkpt>
      <trkpt lat="48.82534" lon="2.43525">
        <ele>65</ele>
        <time>2014-05-15T11:06:52Z</time>
      </trkpt>
      <trkpt lat="48.82534" lon="2.43524">
        <ele>64</ele>
        <time>2014-05-15T11:06:53Z</time>
      </trkpt>
      <trkpt lat="48.82535" lon="2.43523">
        <ele>65</ele>
        <time>2014-05-15T11:06:54Z</time>
      </trkpt>
      <trkpt lat="48.82536" lon="2.43522">
        <ele>65</ele>
        <time>2014-05-15T11:06:55Z</time>
      </trkpt>
      <trkpt lat="48.82537" lon="2.43521">
        <ele>65</ele>
        <time>2014-05-15T11:06:56Z</time>
      </trkpt>
      <trkpt lat="48.82538" lon="2.43521">
        <ele>63</ele>
        <time>2014-05-15T11:06:57Z</time>
      </trkpt>
      <trkpt lat="48.82539" lon="2.43521">
        <ele>65</ele>
        <time>2014-05-15T11:06:58Z</time>
      </trkpt>
      <trkpt lat="48.8254" lon="2.4352">
        <ele>64</ele>
        <time>2014-05-15T11:06:59Z</time>
      </trkpt>
      <trkpt lat="48.82541" lon="2.43518">
        <ele>64</ele>
        <time>2014-05-15T11:07:00Z</time>
      </trkpt>
      <trkpt lat="48.82541" lon="2.43517">
        <ele>62</ele>
        <time>2014-05-15T11:07:01Z</time>
      </trkpt>
      <trkpt lat="48.82542" lon="2.43515">
        <ele>64</ele>
        <time>2014-05-15T11:07:02Z</time>
      </trkpt>
      <trkpt lat="48.82543" lon="2.43514">
        <ele>63</ele>
        <time>2014-05-15T11:07:03Z</time>
      </trkpt>
      <trkpt lat="48.82544" lon="2.43514">
        <ele>63</ele>
        <time>2014-05-15T11:07:04Z</time>
      </trkpt>
      <trkpt lat="48.82545" lon="2.43513">
        <ele>62</ele>
        <time>2014-05-15T11:07:05Z</time>
      </trkpt>
      <trkpt lat="48.82544" lon="2.43512">
        <ele>62</ele>
        <time>2014-05-15T11:07:06Z</time>
      </trkpt>
      <trkpt lat="48.82544" lon="2.43511">
        <ele>63</ele>
        <time>2014-05-15T11:07:07Z</time>
      </trkpt>
      <trkpt lat="48.82544" lon="2.43511">
        <ele>63</ele>
        <time>2014-05-15T11:07:08Z</time>
      </trkpt>
      <trkpt lat="48.82544" lon="2.43511">
        <ele>63</ele>
        <time>2014-05-15T11:07:09Z</time>
      </trkpt>
      <trkpt lat="48.82544" lon="2.43511">
        <ele>63</ele>
        <time>2014-05-15T11:07:10Z</time>
      </trkpt>
      <trkpt lat="48.82545" lon="2.43512">
        <ele>63</ele>
        <time>2014-05-15T11:07:11Z</time>
      </trkpt>
      <trkpt lat="48.82545" lon="2.43512">
        <ele>63</ele>
        <time>2014-05-15T11:07:12Z</time>
      </trkpt>
      <trkpt lat="48.82545" lon="2.43511">
        <ele>62</ele>
        <time>2014-05-15T11:07:13Z</time>
      </trkpt>
      <trkpt lat="48.82545" lon="2.4351">
        <ele>64</ele>
        <time>2014-05-15T11:07:14Z</time>
      </trkpt>
      <trkpt lat="48.82545" lon="2.4351">
        <ele>64</ele>
        <time>2014-05-15T11:07:15Z</time>
      </trkpt>
      <trkpt lat="48.82545" lon="2.43509">
        <ele>64</ele>
        <time>2014-05-15T11:07:16Z</time>
      </trkpt>
      <trkpt lat="48.82545" lon="2.43509">
        <ele>64</ele>
        <time>2014-05-15T11:07:17Z</time>
      </trkpt>
      <trkpt lat="48.82545" lon="2.43509">
        <ele>64</ele>
        <time>2014-05-15T11:07:18Z</time>
      </trkpt>
      <trkpt lat="48.82545" lon="2.43509">
        <ele>64</ele>
        <time>2014-05-15T11:07:19Z</time>
      </trkpt>
      <trkpt lat="48.82545" lon="2.43509">
        <ele>64</ele>
        <time>2014-05-15T11:07:20Z</time>
      </trkpt>
      <trkpt lat="48.82545" lon="2.43509">
        <ele>64</ele>
        <time>2014-05-15T11:07:21Z</time>
      </trkpt>
      <trkpt lat="48.82545" lon="2.43509">
        <ele>64</ele>
        <time>2014-05-15T11:07:22Z</time>
      </trkpt>
      <trkpt lat="48.82545" lon="2.43509">
        <ele>64</ele>
        <time>2014-05-15T11:07:23Z</time>
      </trkpt>
      <trkpt lat="48.82545" lon="2.43509">
        <ele>64</ele>
        <time>2014-05-15T11:07:24Z</time>
      </trkpt>
      <trkpt lat="48.82545" lon="2.43509">
        <ele>64</ele>
        <time>2014-05-15T11:07:25Z</time>
      </trkpt>
      <trkpt lat="48.82545" lon="2.43509">
        <ele>64</ele>
        <time>2014-05-15T11:07:26Z</time>
      </trkpt>
      <trkpt lat="48.82545" lon="2.43509">
        <ele>64</ele>
        <time>2014-05-15T11:07:27Z</time>
      </trkpt>
      <trkpt lat="48.82545" lon="2.43509">
        <ele>64</ele>
        <time>2014-05-15T11:07:28Z</time>
      </trkpt>
      <trkpt lat="48.82545" lon="2.43509">
        <ele>64</ele>
        <time>2014-05-15T11:07:29Z</time>
      </trkpt>
      <trkpt lat="48.82545" lon="2.43509">
        <ele>64</ele>
        <time>2014-05-15T11:07:30Z</time>
      </trkpt>
      <trkpt lat="48.82545" lon="2.43509">
        <ele>64</ele>
        <time>2014-05-15T11:07:31Z</time>
      </trkpt>
      <trkpt lat="48.82545" lon="2.43509">
        <ele>64</ele>
        <time>2014-05-15T11:07:32Z</time>
      </trkpt>
      <trkpt lat="48.82545" lon="2.43509">
        <ele>64</ele>
        <time>2014-05-15T11:07:33Z</time>
      </trkpt>
      <trkpt lat="48.82545" lon="2.43509">
        <ele>64</ele>
        <time>2014-05-15T11:07:34Z</time>
      </trkpt>
      <trkpt lat="48.82545" lon="2.43509">
        <ele>64</ele>
        <time>2014-05-15T11:07:35Z</time>
      </trkpt>
      <trkpt lat="48.82545" lon="2.43509">
        <ele>64</ele>
        <time>2014-05-15T11:07:36Z</time>
      </trkpt>
      <trkpt lat="48.82545" lon="2.43509">
        <ele>64</ele>
        <time>2014-05-15T11:07:37Z</time>
      </trkpt>
      <trkpt lat="48.82545" lon="2.43509">
        <ele>64</ele>
        <time>2014-05-15T11:07:38Z</time>
      </trkpt>
      <trkpt lat="48.82545" lon="2.43509">
        <ele>64</ele>
        <time>2014-05-15T11:07:39Z</time>
      </trkpt>
      <trkpt lat="48.82545" lon="2.43509">
        <ele>64</ele>
        <time>2014-05-15T11:07:40Z</time>
      </trkpt>
      <trkpt lat="48.82545" lon="2.43509">
        <ele>64</ele>
        <time>2014-05-15T11:07:41Z</time>
      </trkpt>
      <trkpt lat="48.82545" lon="2.43509">
        <ele>64</ele>
        <time>2014-05-15T11:07:42Z</time>
      </trkpt>
      <trkpt lat="48.82545" lon="2.43509">
        <ele>64</ele>
        <time>2014-05-15T11:07:43Z</time>
      </trkpt>
      <trkpt lat="48.82545" lon="2.43509">
        <ele>64</ele>
        <time>2014-05-15T11:07:44Z</time>
      </trkpt>
      <trkpt lat="48.82545" lon="2.43509">
        <ele>64</ele>
        <time>2014-05-15T11:07:45Z</time>
      </trkpt>
      <trkpt lat="48.82545" lon="2.43509">
        <ele>64</ele>
        <time>2014-05-15T11:07:46Z</time>
      </trkpt>
      <trkpt lat="48.82545" lon="2.43509">
        <ele>64</ele>
        <time>2014-05-15T11:07:47Z</time>
      </trkpt>
      <trkpt lat="48.82545" lon="2.43509">
        <ele>64</ele>
        <time>2014-05-15T11:07:48Z</time>
      </trkpt>
      <trkpt lat="48.82545" lon="2.43509">
        <ele>64</ele>
        <time>2014-05-15T11:07:49Z</time>
      </trkpt>
      <trkpt lat="48.82545" lon="2.43509">
        <ele>64</ele>
        <time>2014-05-15T11:07:50Z</time>
      </trkpt>
      <trkpt lat="48.82545" lon="2.43509">
        <ele>64</ele>
        <time>2014-05-15T11:07:51Z</time>
      </trkpt>
      <trkpt lat="48.82545" lon="2.4351">
        <ele>64</ele>
        <time>2014-05-15T11:07:52Z</time>
      </trkpt>
      <trkpt lat="48.82546" lon="2.4351">
        <ele>64</ele>
        <time>2014-05-15T11:07:53Z</time>
      </trkpt>
      <trkpt lat="48.82546" lon="2.4351">
        <ele>64</ele>
        <time>2014-05-15T11:07:54Z</time>
      </trkpt>
      <trkpt lat="48.82546" lon="2.4351">
        <ele>64</ele>
        <time>2014-05-15T11:07:55Z</time>
      </trkpt>
      <trkpt lat="48.82546" lon="2.4351">
        <ele>64</ele>
        <time>2014-05-15T11:07:56Z</time>
      </trkpt>
      <trkpt lat="48.82546" lon="2.4351">
        <ele>64</ele>
        <time>2014-05-15T11:07:57Z</time>
      </trkpt>
      <trkpt lat="48.82546" lon="2.4351">
        <ele>64</ele>
        <time>2014-05-15T11:07:58Z</time>
      </trkpt>
      <trkpt lat="48.82546" lon="2.4351">
        <ele>64</ele>
        <time>2014-05-15T11:07:59Z</time>
      </trkpt>
      <trkpt lat="48.82546" lon="2.4351">
        <ele>64</ele>
        <time>2014-05-15T11:08:00Z</time>
      </trkpt>
      <trkpt lat="48.82546" lon="2.4351">
        <ele>64</ele>
        <time>2014-05-15T11:08:01Z</time>
      </trkpt>
      <trkpt lat="48.82546" lon="2.4351">
        <ele>64</ele>
        <time>2014-05-15T11:08:02Z</time>
      </trkpt>
      <trkpt lat="48.82546" lon="2.4351">
        <ele>64</ele>
        <time>2014-05-15T11:08:03Z</time>
      </trkpt>
      <trkpt lat="48.82546" lon="2.4351">
        <ele>64</ele>
        <time>2014-05-15T11:08:04Z</time>
      </trkpt>
      <trkpt lat="48.82546" lon="2.4351">
        <ele>64</ele>
        <time>2014-05-15T11:08:05Z</time>
      </trkpt>
      <trkpt lat="48.82546" lon="2.4351">
        <ele>64</ele>
        <time>2014-05-15T11:08:06Z</time>
      </trkpt>
      <trkpt lat="48.82546" lon="2.4351">
        <ele>64</ele>
        <time>2014-05-15T11:08:07Z</time>
      </trkpt>
      <trkpt lat="48.82546" lon="2.4351">
        <ele>64</ele>
        <time>2014-05-15T11:08:08Z</time>
      </trkpt>
      <trkpt lat="48.82546" lon="2.4351">
        <ele>64</ele>
        <time>2014-05-15T11:08:09Z</time>
      </trkpt>
      <trkpt lat="48.82546" lon="2.4351">
        <ele>64</ele>
        <time>2014-05-15T11:08:10Z</time>
      </trkpt>
      <trkpt lat="48.82546" lon="2.4351">
        <ele>64</ele>
        <time>2014-05-15T11:08:11Z</time>
      </trkpt>
      <trkpt lat="48.82546" lon="2.4351">
        <ele>64</ele>
        <time>2014-05-15T11:08:12Z</time>
      </trkpt>
      <trkpt lat="48.82546" lon="2.4351">
        <ele>64</ele>
        <time>2014-05-15T11:08:13Z</time>
      </trkpt>
      <trkpt lat="48.82546" lon="2.4351">
        <ele>64</ele>
        <time>2014-05-15T11:08:14Z</time>
      </trkpt>
      <trkpt lat="48.82546" lon="2.4351">
        <ele>64</ele>
        <time>2014-05-15T11:08:15Z</time>
      </trkpt>
      <trkpt lat="48.82546" lon="2.4351">
        <ele>64</ele>
        <time>2014-05-15T11:08:16Z</time>
      </trkpt>
      <trkpt lat="48.82546" lon="2.4351">
        <ele>64</ele>
        <time>2014-05-15T11:08:17Z</time>
      </trkpt>
      <trkpt lat="48.82546" lon="2.4351">
        <ele>64</ele>
        <time>2014-05-15T11:08:18Z</time>
      </trkpt>
      <trkpt lat="48.82546" lon="2.4351">
        <ele>64</ele>
        <time>2014-05-15T11:08:19Z</time>
      </trkpt>
      <trkpt lat="48.82546" lon="2.4351">
        <ele>64</ele>
        <time>2014-05-15T11:08:20Z</time>
      </trkpt>
      <trkpt lat="48.82546" lon="2.4351">
        <ele>64</ele>
        <time>2014-05-15T11:08:21Z</time>
      </trkpt>
      <trkpt lat="48.82546" lon="2.4351">
        <ele>64</ele>
        <time>2014-05-15T11:08:22Z</time>
      </trkpt>
      <trkpt lat="48.82546" lon="2.4351">
        <ele>64</ele>
        <time>2014-05-15T11:08:23Z</time>
      </trkpt>
      <trkpt lat="48.82546" lon="2.4351">
        <ele>64</ele>
        <time>2014-05-15T11:08:24Z</time>
      </trkpt>
      <trkpt lat="48.82546" lon="2.4351">
        <ele>64</ele>
        <time>2014-05-15T11:08:25Z</time>
      </trkpt>
      <trkpt lat="48.82546" lon="2.4351">
        <ele>64</ele>
        <time>2014-05-15T11:08:26Z</time>
      </trkpt>
      <trkpt lat="48.82546" lon="2.4351">
        <ele>64</ele>
        <time>2014-05-15T11:08:27Z</time>
      </trkpt>
      <trkpt lat="48.82546" lon="2.4351">
        <ele>64</ele>
        <time>2014-05-15T11:08:28Z</time>
      </trkpt>
      <trkpt lat="48.82546" lon="2.4351">
        <ele>64</ele>
        <time>2014-05-15T11:08:29Z</time>
      </trkpt>
      <trkpt lat="48.82546" lon="2.4351">
        <ele>64</ele>
        <time>2014-05-15T11:08:30Z</time>
      </trkpt>
      <trkpt lat="48.82546" lon="2.4351">
        <ele>64</ele>
        <time>2014-05-15T11:08:31Z</time>
      </trkpt>
      <trkpt lat="48.82546" lon="2.4351">
        <ele>64</ele>
        <time>2014-05-15T11:08:32Z</time>
      </trkpt>
      <trkpt lat="48.82546" lon="2.4351">
        <ele>64</ele>
        <time>2014-05-15T11:08:33Z</time>
      </trkpt>
      <trkpt lat="48.82546" lon="2.4351">
        <ele>64</ele>
        <time>2014-05-15T11:08:34Z</time>
      </trkpt>
      <trkpt lat="48.82546" lon="2.4351">
        <ele>64</ele>
        <time>2014-05-15T11:08:35Z</time>
      </trkpt>
      <trkpt lat="48.82546" lon="2.4351">
        <ele>64</ele>
        <time>2014-05-15T11:08:36Z</time>
      </trkpt>
      <trkpt lat="48.82546" lon="2.4351">
        <ele>64</ele>
        <time>2014-05-15T11:08:37Z</time>
      </trkpt>
      <trkpt lat="48.82546" lon="2.4351">
        <ele>64</ele>
        <time>2014-05-15T11:08:38Z</time>
      </trkpt>
      <trkpt lat="48.82546" lon="2.4351">
        <ele>64</ele>
        <time>2014-05-15T11:08:39Z</time>
      </trkpt>
      <trkpt lat="48.82546" lon="2.4351">
        <ele>64</ele>
        <time>2014-05-15T11:08:40Z</time>
      </trkpt>
      <trkpt lat="48.82546" lon="2.4351">
        <ele>64</ele>
        <time>2014-05-15T11:08:41Z</time>
      </trkpt>
      <trkpt lat="48.82546" lon="2.4351">
        <ele>64</ele>
        <time>2014-05-15T11:08:42Z</time>
      </trkpt>
      <trkpt lat="48.82546" lon="2.4351">
        <ele>64</ele>
        <time>2014-05-15T11:08:43Z</time>
      </trkpt>
      <trkpt lat="48.82546" lon="2.4351">
        <ele>64</ele>
        <time>2014-05-15T11:08:44Z</time>
      </trkpt>
      <trkpt lat="48.82546" lon="2.4351">
        <ele>64</ele>
        <time>2014-05-15T11:08:45Z</time>
      </trkpt>
      <trkpt lat="48.82546" lon="2.4351">
        <ele>64</ele>
        <time>2014-05-15T11:08:46Z</time>
      </trkpt>
      <trkpt lat="48.82546" lon="2.4351">
        <ele>64</ele>
        <time>2014-05-15T11:08:47Z</time>
      </trkpt>
      <trkpt lat="48.82546" lon="2.4351">
        <ele>64</ele>
        <time>2014-05-15T11:08:48Z</time>
      </trkpt>
      <trkpt lat="48.82546" lon="2.4351">
        <ele>64</ele>
        <time>2014-05-15T11:08:49Z</time>
      </trkpt>
      <trkpt lat="48.82546" lon="2.4351">
        <ele>64</ele>
        <time>2014-05-15T11:08:50Z</time>
      </trkpt>
      <trkpt lat="48.82546" lon="2.4351">
        <ele>64</ele>
        <time>2014-05-15T11:08:51Z</time>
      </trkpt>
      <trkpt lat="48.82546" lon="2.43509">
        <ele>64</ele>
        <time>2014-05-15T11:08:52Z</time>
      </trkpt>
      <trkpt lat="48.82546" lon="2.43509">
        <ele>64</ele>
        <time>2014-05-15T11:08:53Z</time>
      </trkpt>
      <trkpt lat="48.82546" lon="2.43509">
        <ele>64</ele>
        <time>2014-05-15T11:08:54Z</time>
      </trkpt>
      <trkpt lat="48.82546" lon="2.43509">
        <ele>64</ele>
        <time>2014-05-15T11:08:55Z</time>
      </trkpt>
      <trkpt lat="48.82547" lon="2.43509">
        <ele>64</ele>
        <time>2014-05-15T11:08:56Z</time>
      </trkpt>
      <trkpt lat="48.82547" lon="2.43509">
        <ele>65</ele>
        <time>2014-05-15T11:08:57Z</time>
      </trkpt>
      <trkpt lat="48.82547" lon="2.43508">
        <ele>65</ele>
        <time>2014-05-15T11:08:58Z</time>
      </trkpt>
      <trkpt lat="48.82547" lon="2.43508">
        <ele>66</ele>
        <time>2014-05-15T11:08:59Z</time>
      </trkpt>
      <trkpt lat="48.82547" lon="2.43508">
        <ele>66</ele>
        <time>2014-05-15T11:09:00Z</time>
      </trkpt>
      <trkpt lat="48.82547" lon="2.43508">
        <ele>66</ele>
        <time>2014-05-15T11:09:01Z</time>
      </trkpt>
      <trkpt lat="48.82547" lon="2.43508">
        <ele>66</ele>
        <time>2014-05-15T11:09:02Z</time>
      </trkpt>
      <trkpt lat="48.82547" lon="2.43507">
        <ele>66</ele>
        <time>2014-05-15T11:09:03Z</time>
      </trkpt>
      <trkpt lat="48.82547" lon="2.43507">
        <ele>67</ele>
        <time>2014-05-15T11:09:04Z</time>
      </trkpt>
      <trkpt lat="48.82547" lon="2.43507">
        <ele>67</ele>
        <time>2014-05-15T11:09:05Z</time>
      </trkpt>
      <trkpt lat="48.82547" lon="2.43507">
        <ele>67</ele>
        <time>2014-05-15T11:09:06Z</time>
      </trkpt>
      <trkpt lat="48.82547" lon="2.43507">
        <ele>67</ele>
        <time>2014-05-15T11:09:07Z</time>
      </trkpt>
      <trkpt lat="48.82547" lon="2.43507">
        <ele>67</ele>
        <time>2014-05-15T11:09:08Z</time>
      </trkpt>
      <trkpt lat="48.82547" lon="2.43507">
        <ele>67</ele>
        <time>2014-05-15T11:09:09Z</time>
      </trkpt>
      <trkpt lat="48.82547" lon="2.43507">
        <ele>67</ele>
        <time>2014-05-15T11:09:10Z</time>
      </trkpt>
      <trkpt lat="48.82547" lon="2.43507">
        <ele>67</ele>
        <time>2014-05-15T11:09:11Z</time>
      </trkpt>
      <trkpt lat="48.82547" lon="2.43507">
        <ele>67</ele>
        <time>2014-05-15T11:09:12Z</time>
      </trkpt>
      <trkpt lat="48.82547" lon="2.43507">
        <ele>67</ele>
        <time>2014-05-15T11:09:13Z</time>
      </trkpt>
      <trkpt lat="48.82547" lon="2.43507">
        <ele>67</ele>
        <time>2014-05-15T11:09:14Z</time>
      </trkpt>
      <trkpt lat="48.82547" lon="2.43507">
        <ele>67</ele>
        <time>2014-05-15T11:09:15Z</time>
      </trkpt>
      <trkpt lat="48.82547" lon="2.43507">
        <ele>67</ele>
        <time>2014-05-15T11:09:16Z</time>
      </trkpt>
      <trkpt lat="48.82547" lon="2.43507">
        <ele>67</ele>
        <time>2014-05-15T11:09:17Z</time>
      </trkpt>
      <trkpt lat="48.82547" lon="2.43507">
        <ele>67</ele>
        <time>2014-05-15T11:09:18Z</time>
      </trkpt>
      <trkpt lat="48.82547" lon="2.43507">
        <ele>67</ele>
        <time>2014-05-15T11:09:19Z</time>
      </trkpt>
      <trkpt lat="48.82547" lon="2.43507">
        <ele>67</ele>
        <time>2014-05-15T11:09:20Z</time>
      </trkpt>
      <trkpt lat="48.82547" lon="2.43507">
        <ele>67</ele>
        <time>2014-05-15T11:09:21Z</time>
      </trkpt>
      <trkpt lat="48.82547" lon="2.43507">
        <ele>67</ele>
        <time>2014-05-15T11:09:22Z</time>
      </trkpt>
      <trkpt lat="48.82547" lon="2.43507">
        <ele>67</ele>
        <time>2014-05-15T11:09:23Z</time>
      </trkpt>
      <trkpt lat="48.82547" lon="2.43507">
        <ele>67</ele>
        <time>2014-05-15T11:09:24Z</time>
      </trkpt>
      <trkpt lat="48.82547" lon="2.43507">
        <ele>67</ele>
        <time>2014-05-15T11:09:25Z</time>
      </trkpt>
      <trkpt lat="48.82547" lon="2.43507">
        <ele>67</ele>
        <time>2014-05-15T11:09:26Z</time>
      </trkpt>
      <trkpt lat="48.82547" lon="2.43507">
        <ele>67</ele>
        <time>2014-05-15T11:09:27Z</time>
      </trkpt>
      <trkpt lat="48.82547" lon="2.43507">
        <ele>67</ele>
        <time>2014-05-15T11:09:28Z</time>
      </trkpt>
      <trkpt lat="48.82547" lon="2.43507">
        <ele>67</ele>
        <time>2014-05-15T11:09:29Z</time>
      </trkpt>
      <trkpt lat="48.82547" lon="2.43507">
        <ele>67</ele>
        <time>2014-05-15T11:09:30Z</time>
      </trkpt>
      <trkpt lat="48.82547" lon="2.43507">
        <ele>67</ele>
        <time>2014-05-15T11:09:31Z</time>
      </trkpt>
      <trkpt lat="48.82547" lon="2.43507">
        <ele>67</ele>
        <time>2014-05-15T11:09:32Z</time>
      </trkpt>
      <trkpt lat="48.82547" lon="2.43507">
        <ele>67</ele>
        <time>2014-05-15T11:09:33Z</time>
      </trkpt>
      <trkpt lat="48.82547" lon="2.43507">
        <ele>67</ele>
        <time>2014-05-15T11:09:34Z</time>
      </trkpt>
      <trkpt lat="48.82547" lon="2.43507">
        <ele>67</ele>
        <time>2014-05-15T11:09:35Z</time>
      </trkpt>
      <trkpt lat="48.82547" lon="2.43507">
        <ele>67</ele>
        <time>2014-05-15T11:09:36Z</time>
      </trkpt>
      <trkpt lat="48.82547" lon="2.43507">
        <ele>67</ele>
        <time>2014-05-15T11:09:37Z</time>
      </trkpt>
      <trkpt lat="48.82547" lon="2.43507">
        <ele>67</ele>
        <time>2014-05-15T11:09:38Z</time>
      </trkpt>
      <trkpt lat="48.82547" lon="2.43507">
        <ele>67</ele>
        <time>2014-05-15T11:09:39Z</time>
      </trkpt>
      <trkpt lat="48.82547" lon="2.43507">
        <ele>67</ele>
        <time>2014-05-15T11:09:40Z</time>
      </trkpt>
      <trkpt lat="48.82547" lon="2.43507">
        <ele>67</ele>
        <time>2014-05-15T11:09:41Z</time>
      </trkpt>
      <trkpt lat="48.82547" lon="2.43507">
        <ele>67</ele>
        <time>2014-05-15T11:09:42Z</time>
      </trkpt>
      <trkpt lat="48.82547" lon="2.43507">
        <ele>66</ele>
        <time>2014-05-15T11:09:43Z</time>
      </trkpt>
      <trkpt lat="48.82547" lon="2.43507">
        <ele>66</ele>
        <time>2014-05-15T11:09:44Z</time>
      </trkpt>
      <trkpt lat="48.82547" lon="2.43507">
        <ele>66</ele>
        <time>2014-05-15T11:09:45Z</time>
      </trkpt>
      <trkpt lat="48.82547" lon="2.43507">
        <ele>66</ele>
        <time>2014-05-15T11:09:46Z</time>
      </trkpt>
      <trkpt lat="48.82547" lon="2.43508">
        <ele>66</ele>
        <time>2014-05-15T11:09:47Z</time>
      </trkpt>
      <trkpt lat="48.82547" lon="2.43508">
        <ele>66</ele>
        <time>2014-05-15T11:09:48Z</time>
      </trkpt>
      <trkpt lat="48.82547" lon="2.43508">
        <ele>66</ele>
        <time>2014-05-15T11:09:49Z</time>
      </trkpt>
      <trkpt lat="48.82547" lon="2.43508">
        <ele>66</ele>
        <time>2014-05-15T11:09:50Z</time>
      </trkpt>
      <trkpt lat="48.82547" lon="2.43508">
        <ele>66</ele>
        <time>2014-05-15T11:09:51Z</time>
      </trkpt>
      <trkpt lat="48.82547" lon="2.43508">
        <ele>66</ele>
        <time>2014-05-15T11:09:52Z</time>
      </trkpt>
      <trkpt lat="48.82547" lon="2.43508">
        <ele>66</ele>
        <time>2014-05-15T11:09:53Z</time>
      </trkpt>
      <trkpt lat="48.82547" lon="2.43508">
        <ele>66</ele>
        <time>2014-05-15T11:09:54Z</time>
      </trkpt>
      <trkpt lat="48.82547" lon="2.43508">
        <ele>66</ele>
        <time>2014-05-15T11:09:55Z</time>
      </trkpt>
      <trkpt lat="48.82547" lon="2.43508">
        <ele>66</ele>
        <time>2014-05-15T11:09:56Z</time>
      </trkpt>
      <trkpt lat="48.82547" lon="2.43508">
        <ele>66</ele>
        <time>2014-05-15T11:09:57Z</time>
      </trkpt>
      <trkpt lat="48.82547" lon="2.43508">
        <ele>66</ele>
        <time>2014-05-15T11:09:58Z</time>
      </trkpt>
      <trkpt lat="48.82547" lon="2.43508">
        <ele>66</ele>
        <time>2014-05-15T11:09:59Z</time>
      </trkpt>
      <trkpt lat="48.82547" lon="2.43508">
        <ele>66</ele>
        <time>2014-05-15T11:10:00Z</time>
      </trkpt>
      <trkpt lat="48.82547" lon="2.43508">
        <ele>66</ele>
        <time>2014-05-15T11:10:01Z</time>
      </trkpt>
      <trkpt lat="48.82547" lon="2.43508">
        <ele>66</ele>
        <time>2014-05-15T11:10:02Z</time>
      </trkpt>
      <trkpt lat="48.82547" lon="2.43508">
        <ele>66</ele>
        <time>2014-05-15T11:10:03Z</time>
      </trkpt>
      <trkpt lat="48.82547" lon="2.43508">
        <ele>66</ele>
        <time>2014-05-15T11:10:04Z</time>
      </trkpt>
      <trkpt lat="48.82547" lon="2.43508">
        <ele>66</ele>
        <time>2014-05-15T11:10:05Z</time>
      </trkpt>
      <trkpt lat="48.82547" lon="2.43508">
        <ele>66</ele>
        <time>2014-05-15T11:10:06Z</time>
      </trkpt>
      <trkpt lat="48.82547" lon="2.43508">
        <ele>66</ele>
        <time>2014-05-15T11:10:07Z</time>
      </trkpt>
      <trkpt lat="48.82547" lon="2.43508">
        <ele>66</ele>
        <time>2014-05-15T11:10:08Z</time>
      </trkpt>
      <trkpt lat="48.82547" lon="2.43508">
        <ele>66</ele>
        <time>2014-05-15T11:10:09Z</time>
      </trkpt>
      <trkpt lat="48.82547" lon="2.43508">
        <ele>66</ele>
        <time>2014-05-15T11:10:10Z</time>
      </trkpt>
      <trkpt lat="48.82547" lon="2.43508">
        <ele>66</ele>
        <time>2014-05-15T11:10:11Z</time>
      </trkpt>
      <trkpt lat="48.82547" lon="2.43508">
        <ele>66</ele>
        <time>2014-05-15T11:10:12Z</time>
      </trkpt>
      <trkpt lat="48.82547" lon="2.43508">
        <ele>66</ele>
        <time>2014-05-15T11:10:13Z</time>
      </trkpt>
      <trkpt lat="48.82547" lon="2.43508">
        <ele>66</ele>
        <time>2014-05-15T11:10:14Z</time>
      </trkpt>
      <trkpt lat="48.82547" lon="2.43508">
        <ele>66</ele>
        <time>2014-05-15T11:10:15Z</time>
      </trkpt>
      <trkpt lat="48.82547" lon="2.43508">
        <ele>66</ele>
        <time>2014-05-15T11:10:16Z</time>
      </trkpt>
      <trkpt lat="48.82547" lon="2.43508">
        <ele>66</ele>
        <time>2014-05-15T11:10:17Z</time>
      </trkpt>
      <trkpt lat="48.82547" lon="2.43508">
        <ele>66</ele>
        <time>2014-05-15T11:10:18Z</time>
      </trkpt>
      <trkpt lat="48.82547" lon="2.43508">
        <ele>66</ele>
        <time>2014-05-15T11:10:19Z</time>
      </trkpt>
      <trkpt lat="48.82547" lon="2.43508">
        <ele>66</ele>
        <time>2014-05-15T11:10:20Z</time>
      </trkpt>
      <trkpt lat="48.82547" lon="2.43508">
        <ele>66</ele>
        <time>2014-05-15T11:10:21Z</time>
      </trkpt>
      <trkpt lat="48.82547" lon="2.43508">
        <ele>66</ele>
        <time>2014-05-15T11:10:22Z</time>
      </trkpt>
      <trkpt lat="48.82547" lon="2.43508">
        <ele>66</ele>
        <time>2014-05-15T11:10:23Z</time>
      </trkpt>
      <trkpt lat="48.82547" lon="2.43508">
        <ele>66</ele>
        <time>2014-05-15T11:10:24Z</time>
      </trkpt>
      <trkpt lat="48.82547" lon="2.43508">
        <ele>66</ele>
        <time>2014-05-15T11:10:25Z</time>
      </trkpt>
      <trkpt lat="48.82547" lon="2.43508">
        <ele>66</ele>
        <time>2014-05-15T11:10:26Z</time>
      </trkpt>
      <trkpt lat="48.82547" lon="2.43508">
        <ele>66</ele>
        <time>2014-05-15T11:10:27Z</time>
      </trkpt>
      <trkpt lat="48.82547" lon="2.43508">
        <ele>66</ele>
        <time>2014-05-15T11:10:28Z</time>
      </trkpt>
      <trkpt lat="48.82547" lon="2.43508">
        <ele>66</ele>
        <time>2014-05-15T11:10:29Z</time>
      </trkpt>
      <trkpt lat="48.82547" lon="2.43508">
        <ele>66</ele>
        <time>2014-05-15T11:10:33Z</time>
      </trkpt>
      <trkpt lat="48.82547" lon="2.43508">
        <ele>66</ele>
        <time>2014-05-15T11:10:34Z</time>
      </trkpt>
      <trkpt lat="48.82547" lon="2.43508">
        <ele>66</ele>
        <time>2014-05-15T11:10:35Z</time>
      </trkpt>
      <trkpt lat="48.82547" lon="2.43508">
        <ele>66</ele>
        <time>2014-05-15T11:10:36Z</time>
      </trkpt>
      <trkpt lat="48.82547" lon="2.43508">
        <ele>66</ele>
        <time>2014-05-15T11:10:37Z</time>
      </trkpt>
      <trkpt lat="48.82547" lon="2.43508">
        <ele>66</ele>
        <time>2014-05-15T11:10:38Z</time>
      </trkpt>
      <trkpt lat="48.82547" lon="2.43508">
        <ele>66</ele>
        <time>2014-05-15T11:10:39Z</time>
      </trkpt>
      <trkpt lat="48.82547" lon="2.43508">
        <ele>66</ele>
        <time>2014-05-15T11:10:40Z</time>
      </trkpt>
      <trkpt lat="48.82547" lon="2.43508">
        <ele>66</ele>
        <time>2014-05-15T11:10:41Z</time>
      </trkpt>
      <trkpt lat="48.82547" lon="2.43507">
        <ele>66</ele>
        <time>2014-05-15T11:10:42Z</time>
      </trkpt>
      <trkpt lat="48.82547" lon="2.43507">
        <ele>66</ele>
        <time>2014-05-15T11:10:43Z</time>
      </trkpt>
      <trkpt lat="48.82547" lon="2.43507">
        <ele>66</ele>
        <time>2014-05-15T11:10:44Z</time>
      </trkpt>
      <trkpt lat="48.82547" lon="2.43507">
        <ele>66</ele>
        <time>2014-05-15T11:10:45Z</time>
      </trkpt>
      <trkpt lat="48.82547" lon="2.43507">
        <ele>66</ele>
        <time>2014-05-15T11:10:46Z</time>
      </trkpt>
      <trkpt lat="48.82547" lon="2.43507">
        <ele>66</ele>
        <time>2014-05-15T11:10:47Z</time>
      </trkpt>
      <trkpt lat="48.82547" lon="2.43507">
        <ele>66</ele>
        <time>2014-05-15T11:10:48Z</time>
      </trkpt>
      <trkpt lat="48.82547" lon="2.43507">
        <ele>66</ele>
        <time>2014-05-15T11:10:49Z</time>
      </trkpt>
      <trkpt lat="48.82546" lon="2.43507">
        <ele>67</ele>
        <time>2014-05-15T11:10:50Z</time>
      </trkpt>
      <trkpt lat="48.82546" lon="2.43507">
        <ele>67</ele>
        <time>2014-05-15T11:10:51Z</time>
      </trkpt>
      <trkpt lat="48.82546" lon="2.43508">
        <ele>67</ele>
        <time>2014-05-15T11:10:52Z</time>
      </trkpt>
      <trkpt lat="48.82546" lon="2.43508">
        <ele>66</ele>
        <time>2014-05-15T11:10:53Z</time>
      </trkpt>
      <trkpt lat="48.82546" lon="2.43509">
        <ele>66</ele>
        <time>2014-05-15T11:10:54Z</time>
      </trkpt>
      <trkpt lat="48.82546" lon="2.43509">
        <ele>66</ele>
        <time>2014-05-15T11:10:55Z</time>
      </trkpt>
      <trkpt lat="48.82547" lon="2.43509">
        <ele>67</ele>
        <time>2014-05-15T11:10:56Z</time>
      </trkpt>
      <trkpt lat="48.82547" lon="2.4351">
        <ele>65</ele>
        <time>2014-05-15T11:10:57Z</time>
      </trkpt>
      <trkpt lat="48.82547" lon="2.43509">
        <ele>65</ele>
        <time>2014-05-15T11:10:58Z</time>
      </trkpt>
      <trkpt lat="48.82547" lon="2.43509">
        <ele>64</ele>
        <time>2014-05-15T11:10:59Z</time>
      </trkpt>
      <trkpt lat="48.82546" lon="2.43509">
        <ele>65</ele>
        <time>2014-05-15T11:11:00Z</time>
      </trkpt>
      <trkpt lat="48.82546" lon="2.4351">
        <ele>65</ele>
        <time>2014-05-15T11:11:01Z</time>
      </trkpt>
      <trkpt lat="48.82546" lon="2.4351">
        <ele>66</ele>
        <time>2014-05-15T11:11:02Z</time>
      </trkpt>
      <trkpt lat="48.82546" lon="2.4351">
        <ele>66</ele>
        <time>2014-05-15T11:11:03Z</time>
      </trkpt>
      <trkpt lat="48.82546" lon="2.4351">
        <ele>66</ele>
        <time>2014-05-15T11:11:04Z</time>
      </trkpt>
      <trkpt lat="48.82546" lon="2.4351">
        <ele>66</ele>
        <time>2014-05-15T11:11:05Z</time>
      </trkpt>
      <trkpt lat="48.82546" lon="2.4351">
        <ele>66</ele>
        <time>2014-05-15T11:11:06Z</time>
      </trkpt>
      <trkpt lat="48.82546" lon="2.4351">
        <ele>66</ele>
        <time>2014-05-15T11:11:07Z</time>
      </trkpt>
      <trkpt lat="48.82546" lon="2.4351">
        <ele>66</ele>
        <time>2014-05-15T11:11:08Z</time>
      </trkpt>
      <trkpt lat="48.82546" lon="2.4351">
        <ele>66</ele>
        <time>2014-05-15T11:11:09Z</time>
      </trkpt>
      <trkpt lat="48.82546" lon="2.4351">
        <ele>66</ele>
        <time>2014-05-15T11:11:10Z</time>
      </trkpt>
      <trkpt lat="48.82546" lon="2.4351">
        <ele>66</ele>
        <time>2014-05-15T11:11:11Z</time>
      </trkpt>
      <trkpt lat="48.82546" lon="2.4351">
        <ele>66</ele>
        <time>2014-05-15T11:11:12Z</time>
      </trkpt>
      <trkpt lat="48.82546" lon="2.4351">
        <ele>66</ele>
        <time>2014-05-15T11:11:13Z</time>
      </trkpt>
      <trkpt lat="48.82546" lon="2.4351">
        <ele>66</ele>
        <time>2014-05-15T11:11:14Z</time>
      </trkpt>
      <trkpt lat="48.82546" lon="2.4351">
        <ele>66</ele>
        <time>2014-05-15T11:11:15Z</time>
      </trkpt>
      <trkpt lat="48.82546" lon="2.4351">
        <ele>66</ele>
        <time>2014-05-15T11:11:16Z</time>
      </trkpt>
      <trkpt lat="48.82546" lon="2.4351">
        <ele>66</ele>
        <time>2014-05-15T11:11:17Z</time>
      </trkpt>
      <trkpt lat="48.82546" lon="2.4351">
        <ele>66</ele>
        <time>2014-05-15T11:11:18Z</time>
      </trkpt>
      <trkpt lat="48.82546" lon="2.4351">
        <ele>66</ele>
        <time>2014-05-15T11:11:19Z</time>
      </trkpt>
      <trkpt lat="48.82546" lon="2.4351">
        <ele>66</ele>
        <time>2014-05-15T11:11:20Z</time>
      </trkpt>
      <trkpt lat="48.82546" lon="2.4351">
        <ele>66</ele>
        <time>2014-05-15T11:11:21Z</time>
      </trkpt>
      <trkpt lat="48.82546" lon="2.4351">
        <ele>66</ele>
        <time>2014-05-15T11:11:22Z</time>
      </trkpt>
      <trkpt lat="48.82546" lon="2.4351">
        <ele>66</ele>
        <time>2014-05-15T11:11:23Z</time>
      </trkpt>
      <trkpt lat="48.82546" lon="2.4351">
        <ele>66</ele>
        <time>2014-05-15T11:11:24Z</time>
      </trkpt>
      <trkpt lat="48.82546" lon="2.4351">
        <ele>66</ele>
        <time>2014-05-15T11:11:25Z</time>
      </trkpt>
      <trkpt lat="48.82546" lon="2.4351">
        <ele>66</ele>
        <time>2014-05-15T11:11:26Z</time>
      </trkpt>
      <trkpt lat="48.82546" lon="2.4351">
        <ele>66</ele>
        <time>2014-05-15T11:11:27Z</time>
      </trkpt>
      <trkpt lat="48.82546" lon="2.4351">
        <ele>66</ele>
        <time>2014-05-15T11:11:28Z</time>
      </trkpt>
      <trkpt lat="48.82546" lon="2.4351">
        <ele>66</ele>
        <time>2014-05-15T11:11:29Z</time>
      </trkpt>
      <trkpt lat="48.82546" lon="2.4351">
        <ele>66</ele>
        <time>2014-05-15T11:11:30Z</time>
      </trkpt>
      <trkpt lat="48.82546" lon="2.4351">
        <ele>66</ele>
        <time>2014-05-15T11:11:31Z</time>
      </trkpt>
      <trkpt lat="48.82546" lon="2.4351">
        <ele>66</ele>
        <time>2014-05-15T11:11:32Z</time>
      </trkpt>
      <trkpt lat="48.82546" lon="2.4351">
        <ele>66</ele>
        <time>2014-05-15T11:11:33Z</time>
      </trkpt>
      <trkpt lat="48.82546" lon="2.4351">
        <ele>66</ele>
        <time>2014-05-15T11:11:34Z</time>
      </trkpt>
      <trkpt lat="48.82546" lon="2.4351">
        <ele>66</ele>
        <time>2014-05-15T11:11:35Z</time>
      </trkpt>
      <trkpt lat="48.82546" lon="2.4351">
        <ele>66</ele>
        <time>2014-05-15T11:11:36Z</time>
      </trkpt>
      <trkpt lat="48.82546" lon="2.4351">
        <ele>66</ele>
        <time>2014-05-15T11:11:37Z</time>
      </trkpt>
      <trkpt lat="48.82545" lon="2.4351">
        <ele>66</ele>
        <time>2014-05-15T11:11:38Z</time>
      </trkpt>
      <trkpt lat="48.82545" lon="2.4351">
        <ele>66</ele>
        <time>2014-05-15T11:11:39Z</time>
      </trkpt>
      <trkpt lat="48.82545" lon="2.4351">
        <ele>66</ele>
        <time>2014-05-15T11:11:40Z</time>
      </trkpt>
      <trkpt lat="48.82545" lon="2.4351">
        <ele>66</ele>
        <time>2014-05-15T11:11:41Z</time>
      </trkpt>
      <trkpt lat="48.82545" lon="2.4351">
        <ele>66</ele>
        <time>2014-05-15T11:11:42Z</time>
      </trkpt>
      <trkpt lat="48.82545" lon="2.4351">
        <ele>66</ele>
        <time>2014-05-15T11:11:43Z</time>
      </trkpt>
      <trkpt lat="48.82545" lon="2.4351">
        <ele>66</ele>
        <time>2014-05-15T11:11:44Z</time>
      </trkpt>
      <trkpt lat="48.82545" lon="2.4351">
        <ele>66</ele>
        <time>2014-05-15T11:11:45Z</time>
      </trkpt>
      <trkpt lat="48.82545" lon="2.4351">
        <ele>66</ele>
        <time>2014-05-15T11:11:46Z</time>
      </trkpt>
      <trkpt lat="48.82545" lon="2.4351">
        <ele>66</ele>
        <time>2014-05-15T11:11:47Z</time>
      </trkpt>
      <trkpt lat="48.82545" lon="2.4351">
        <ele>66</ele>
        <time>2014-05-15T11:11:48Z</time>
      </trkpt>
      <trkpt lat="48.82545" lon="2.4351">
        <ele>66</ele>
        <time>2014-05-15T11:11:49Z</time>
      </trkpt>
      <trkpt lat="48.82545" lon="2.4351">
        <ele>66</ele>
        <time>2014-05-15T11:11:50Z</time>
      </trkpt>
      <trkpt lat="48.82545" lon="2.4351">
        <ele>66</ele>
        <time>2014-05-15T11:11:51Z</time>
      </trkpt>
      <trkpt lat="48.82545" lon="2.4351">
        <ele>66</ele>
        <time>2014-05-15T11:11:52Z</time>
      </trkpt>
      <trkpt lat="48.82545" lon="2.4351">
        <ele>66</ele>
        <time>2014-05-15T11:11:53Z</time>
      </trkpt>
      <trkpt lat="48.82545" lon="2.4351">
        <ele>66</ele>
        <time>2014-05-15T11:11:54Z</time>
      </trkpt>
      <trkpt lat="48.82545" lon="2.4351">
        <ele>66</ele>
        <time>2014-05-15T11:11:55Z</time>
      </trkpt>
      <trkpt lat="48.82545" lon="2.4351">
        <ele>66</ele>
        <time>2014-05-15T11:11:56Z</time>
      </trkpt>
      <trkpt lat="48.82545" lon="2.4351">
        <ele>66</ele>
        <time>2014-05-15T11:11:57Z</time>
      </trkpt>
      <trkpt lat="48.82545" lon="2.4351">
        <ele>66</ele>
        <time>2014-05-15T11:11:58Z</time>
      </trkpt>
      <trkpt lat="48.82545" lon="2.4351">
        <ele>66</ele>
        <time>2014-05-15T11:11:59Z</time>
      </trkpt>
      <trkpt lat="48.82545" lon="2.4351">
        <ele>66</ele>
        <time>2014-05-15T11:12:00Z</time>
      </trkpt>
      <trkpt lat="48.82545" lon="2.4351">
        <ele>66</ele>
        <time>2014-05-15T11:12:01Z</time>
      </trkpt>
      <trkpt lat="48.82545" lon="2.4351">
        <ele>66</ele>
        <time>2014-05-15T11:12:02Z</time>
      </trkpt>
      <trkpt lat="48.82545" lon="2.4351">
        <ele>66</ele>
        <time>2014-05-15T11:12:03Z</time>
      </trkpt>
      <trkpt lat="48.82545" lon="2.4351">
        <ele>66</ele>
        <time>2014-05-15T11:12:04Z</time>
      </trkpt>
      <trkpt lat="48.82545" lon="2.4351">
        <ele>66</ele>
        <time>2014-05-15T11:12:05Z</time>
      </trkpt>
      <trkpt lat="48.82545" lon="2.4351">
        <ele>66</ele>
        <time>2014-05-15T11:12:06Z</time>
      </trkpt>
      <trkpt lat="48.82545" lon="2.4351">
        <ele>66</ele>
        <time>2014-05-15T11:12:07Z</time>
      </trkpt>
      <trkpt lat="48.82545" lon="2.4351">
        <ele>66</ele>
        <time>2014-05-15T11:12:08Z</time>
      </trkpt>
      <trkpt lat="48.82545" lon="2.4351">
        <ele>66</ele>
        <time>2014-05-15T11:12:09Z</time>
      </trkpt>
      <trkpt lat="48.82545" lon="2.4351">
        <ele>66</ele>
        <time>2014-05-15T11:12:10Z</time>
      </trkpt>
      <trkpt lat="48.82545" lon="2.4351">
        <ele>66</ele>
        <time>2014-05-15T11:12:11Z</time>
      </trkpt>
      <trkpt lat="48.82545" lon="2.4351">
        <ele>66</ele>
        <time>2014-05-15T11:12:12Z</time>
      </trkpt>
      <trkpt lat="48.82545" lon="2.4351">
        <ele>66</ele>
        <time>2014-05-15T11:12:13Z</time>
      </trkpt>
      <trkpt lat="48.82545" lon="2.4351">
        <ele>66</ele>
        <time>2014-05-15T11:12:14Z</time>
      </trkpt>
      <trkpt lat="48.82545" lon="2.4351">
        <ele>66</ele>
        <time>2014-05-15T11:12:15Z</time>
      </trkpt>
      <trkpt lat="48.82545" lon="2.4351">
        <ele>66</ele>
        <time>2014-05-15T11:12:16Z</time>
      </trkpt>
      <trkpt lat="48.82545" lon="2.4351">
        <ele>66</ele>
        <time>2014-05-15T11:12:17Z</time>
      </trkpt>
      <trkpt lat="48.82545" lon="2.4351">
        <ele>66</ele>
        <time>2014-05-15T11:12:18Z</time>
      </trkpt>
      <trkpt lat="48.82545" lon="2.4351">
        <ele>66</ele>
        <time>2014-05-15T11:12:19Z</time>
      </trkpt>
      <trkpt lat="48.82545" lon="2.4351">
        <ele>66</ele>
        <time>2014-05-15T11:12:20Z</time>
      </trkpt>
      <trkpt lat="48.82545" lon="2.4351">
        <ele>66</ele>
        <time>2014-05-15T11:12:21Z</time>
      </trkpt>
      <trkpt lat="48.82545" lon="2.4351">
        <ele>66</ele>
        <time>2014-05-15T11:12:22Z</time>
      </trkpt>
      <trkpt lat="48.82545" lon="2.4351">
        <ele>66</ele>
        <time>2014-05-15T11:12:23Z</time>
      </trkpt>
      <trkpt lat="48.82545" lon="2.4351">
        <ele>66</ele>
        <time>2014-05-15T11:12:24Z</time>
      </trkpt>
      <trkpt lat="48.82545" lon="2.4351">
        <ele>66</ele>
        <time>2014-05-15T11:12:25Z</time>
      </trkpt>
      <trkpt lat="48.82545" lon="2.4351">
        <ele>66</ele>
        <time>2014-05-15T11:12:26Z</time>
      </trkpt>
      <trkpt lat="48.82545" lon="2.4351">
        <ele>66</ele>
        <time>2014-05-15T11:12:27Z</time>
      </trkpt>
      <trkpt lat="48.82545" lon="2.4351">
        <ele>66</ele>
        <time>2014-05-15T11:12:28Z</time>
      </trkpt>
      <trkpt lat="48.82545" lon="2.4351">
        <ele>66</ele>
        <time>2014-05-15T11:12:29Z</time>
      </trkpt>
      <trkpt lat="48.82545" lon="2.4351">
        <ele>66</ele>
        <time>2014-05-15T11:12:30Z</time>
      </trkpt>
      <trkpt lat="48.82545" lon="2.4351">
        <ele>66</ele>
        <time>2014-05-15T11:12:31Z</time>
      </trkpt>
      <trkpt lat="48.82545" lon="2.4351">
        <ele>66</ele>
        <time>2014-05-15T11:12:32Z</time>
      </trkpt>
      <trkpt lat="48.82545" lon="2.4351">
        <ele>66</ele>
        <time>2014-05-15T11:12:33Z</time>
      </trkpt>
      <trkpt lat="48.82545" lon="2.4351">
        <ele>66</ele>
        <time>2014-05-15T11:12:34Z</time>
      </trkpt>
      <trkpt lat="48.82545" lon="2.4351">
        <ele>66</ele>
        <time>2014-05-15T11:12:35Z</time>
      </trkpt>
      <trkpt lat="48.82545" lon="2.4351">
        <ele>66</ele>
        <time>2014-05-15T11:12:36Z</time>
      </trkpt>
      <trkpt lat="48.82545" lon="2.4351">
        <ele>66</ele>
        <time>2014-05-15T11:12:37Z</time>
      </trkpt>
      <trkpt lat="48.82545" lon="2.4351">
        <ele>66</ele>
        <time>2014-05-15T11:12:38Z</time>
      </trkpt>
      <trkpt lat="48.82545" lon="2.4351">
        <ele>66</ele>
        <time>2014-05-15T11:12:39Z</time>
      </trkpt>
      <trkpt lat="48.82545" lon="2.4351">
        <ele>66</ele>
        <time>2014-05-15T11:12:40Z</time>
      </trkpt>
      <trkpt lat="48.82545" lon="2.4351">
        <ele>66</ele>
        <time>2014-05-15T11:12:41Z</time>
      </trkpt>
      <trkpt lat="48.82545" lon="2.4351">
        <ele>66</ele>
        <time>2014-05-15T11:12:42Z</time>
      </trkpt>
      <trkpt lat="48.82545" lon="2.4351">
        <ele>66</ele>
        <time>2014-05-15T11:12:43Z</time>
      </trkpt>
      <trkpt lat="48.82545" lon="2.4351">
        <ele>66</ele>
        <time>2014-05-15T11:12:44Z</time>
      </trkpt>
      <trkpt lat="48.82545" lon="2.4351">
        <ele>66</ele>
        <time>2014-05-15T11:12:45Z</time>
      </trkpt>
      <trkpt lat="48.82545" lon="2.4351">
        <ele>66</ele>
        <time>2014-05-15T11:12:46Z</time>
      </trkpt>
      <trkpt lat="48.82545" lon="2.4351">
        <ele>66</ele>
        <time>2014-05-15T11:12:47Z</time>
      </trkpt>
      <trkpt lat="48.82545" lon="2.4351">
        <ele>66</ele>
        <time>2014-05-15T11:12:48Z</time>
      </trkpt>
      <trkpt lat="48.82545" lon="2.4351">
        <ele>66</ele>
        <time>2014-05-15T11:12:49Z</time>
      </trkpt>
      <trkpt lat="48.82545" lon="2.4351">
        <ele>66</ele>
        <time>2014-05-15T11:12:50Z</time>
      </trkpt>
      <trkpt lat="48.82545" lon="2.4351">
        <ele>66</ele>
        <time>2014-05-15T11:12:51Z</time>
      </trkpt>
      <trkpt lat="48.82545" lon="2.4351">
        <ele>66</ele>
        <time>2014-05-15T11:12:52Z</time>
      </trkpt>
      <trkpt lat="48.82545" lon="2.4351">
        <ele>66</ele>
        <time>2014-05-15T11:12:53Z</time>
      </trkpt>
      <trkpt lat="48.82545" lon="2.4351">
        <ele>66</ele>
        <time>2014-05-15T11:12:54Z</time>
      </trkpt>
      <trkpt lat="48.82545" lon="2.4351">
        <ele>66</ele>
        <time>2014-05-15T11:12:55Z</time>
      </trkpt>
      <trkpt lat="48.82545" lon="2.4351">
        <ele>66</ele>
        <time>2014-05-15T11:12:56Z</time>
      </trkpt>
      <trkpt lat="48.82545" lon="2.4351">
        <ele>66</ele>
        <time>2014-05-15T11:12:57Z</time>
      </trkpt>
      <trkpt lat="48.82545" lon="2.4351">
        <ele>66</ele>
        <time>2014-05-15T11:12:58Z</time>
      </trkpt>
      <trkpt lat="48.82545" lon="2.4351">
        <ele>66</ele>
        <time>2014-05-15T11:12:59Z</time>
      </trkpt>
      <trkpt lat="48.82545" lon="2.4351">
        <ele>66</ele>
        <time>2014-05-15T11:13:00Z</time>
      </trkpt>
      <trkpt lat="48.82545" lon="2.4351">
        <ele>66</ele>
        <time>2014-05-15T11:13:01Z</time>
      </trkpt>
      <trkpt lat="48.82545" lon="2.4351">
        <ele>66</ele>
        <time>2014-05-15T11:13:02Z</time>
      </trkpt>
      <trkpt lat="48.82545" lon="2.4351">
        <ele>66</ele>
        <time>2014-05-15T11:13:03Z</time>
      </trkpt>
      <trkpt lat="48.82545" lon="2.4351">
        <ele>66</ele>
        <time>2014-05-15T11:13:04Z</time>
      </trkpt>
      <trkpt lat="48.82545" lon="2.4351">
        <ele>66</ele>
        <time>2014-05-15T11:13:05Z</time>
      </trkpt>
      <trkpt lat="48.82545" lon="2.4351">
        <ele>66</ele>
        <time>2014-05-15T11:13:06Z</time>
      </trkpt>
      <trkpt lat="48.82545" lon="2.4351">
        <ele>66</ele>
        <time>2014-05-15T11:13:07Z</time>
      </trkpt>
      <trkpt lat="48.82545" lon="2.4351">
        <ele>66</ele>
        <time>2014-05-15T11:13:08Z</time>
      </trkpt>
      <trkpt lat="48.82545" lon="2.4351">
        <ele>66</ele>
        <time>2014-05-15T11:13:09Z</time>
      </trkpt>
      <trkpt lat="48.82545" lon="2.4351">
        <ele>66</ele>
        <time>2014-05-15T11:13:10Z</time>
      </trkpt>
      <trkpt lat="48.82545" lon="2.4351">
        <ele>66</ele>
        <time>2014-05-15T11:13:11Z</time>
      </trkpt>
      <trkpt lat="48.82545" lon="2.4351">
        <ele>66</ele>
        <time>2014-05-15T11:13:12Z</time>
      </trkpt>
      <trkpt lat="48.82545" lon="2.4351">
        <ele>66</ele>
        <time>2014-05-15T11:13:13Z</time>
      </trkpt>
      <trkpt lat="48.82545" lon="2.4351">
        <ele>66</ele>
        <time>2014-05-15T11:13:14Z</time>
      </trkpt>
      <trkpt lat="48.82545" lon="2.4351">
        <ele>66</ele>
        <time>2014-05-15T11:13:15Z</time>
      </trkpt>
      <trkpt lat="48.82545" lon="2.4351">
        <ele>66</ele>
        <time>2014-05-15T11:13:16Z</time>
      </trkpt>
      <trkpt lat="48.82545" lon="2.4351">
        <ele>66</ele>
        <time>2014-05-15T11:13:17Z</time>
      </trkpt>
      <trkpt lat="48.82545" lon="2.4351">
        <ele>66</ele>
        <time>2014-05-15T11:13:18Z</time>
      </trkpt>
      <trkpt lat="48.82545" lon="2.4351">
        <ele>66</ele>
        <time>2014-05-15T11:13:19Z</time>
      </trkpt>
      <trkpt lat="48.82545" lon="2.4351">
        <ele>66</ele>
        <time>2014-05-15T11:13:20Z</time>
      </trkpt>
      <trkpt lat="48.82545" lon="2.4351">
        <ele>66</ele>
        <time>2014-05-15T11:13:21Z</time>
      </trkpt>
      <trkpt lat="48.82545" lon="2.4351">
        <ele>66</ele>
        <time>2014-05-15T11:13:22Z</time>
      </trkpt>
      <trkpt lat="48.82545" lon="2.4351">
        <ele>66</ele>
        <time>2014-05-15T11:13:23Z</time>
      </trkpt>
      <trkpt lat="48.82545" lon="2.4351">
        <ele>66</ele>
        <time>2014-05-15T11:13:24Z</time>
      </trkpt>
      <trkpt lat="48.82545" lon="2.4351">
        <ele>66</ele>
        <time>2014-05-15T11:13:25Z</time>
      </trkpt>
      <trkpt lat="48.82545" lon="2.4351">
        <ele>66</ele>
        <time>2014-05-15T11:13:26Z</time>
      </trkpt>
      <trkpt lat="48.82545" lon="2.4351">
        <ele>66</ele>
        <time>2014-05-15T11:13:27Z</time>
      </trkpt>
      <trkpt lat="48.82545" lon="2.4351">
        <ele>66</ele>
        <time>2014-05-15T11:13:28Z</time>
      </trkpt>
      <trkpt lat="48.82545" lon="2.4351">
        <ele>66</ele>
        <time>2014-05-15T11:13:29Z</time>
      </trkpt>
      <trkpt lat="48.82545" lon="2.4351">
        <ele>66</ele>
        <time>2014-05-15T11:13:30Z</time>
      </trkpt>
      <trkpt lat="48.82545" lon="2.4351">
        <ele>66</ele>
        <time>2014-05-15T11:13:31Z</time>
      </trkpt>
      <trkpt lat="48.82545" lon="2.4351">
        <ele>66</ele>
        <time>2014-05-15T11:13:32Z</time>
      </trkpt>
      <trkpt lat="48.82545" lon="2.4351">
        <ele>66</ele>
        <time>2014-05-15T11:13:33Z</time>
      </trkpt>
      <trkpt lat="48.82545" lon="2.4351">
        <ele>66</ele>
        <time>2014-05-15T11:13:34Z</time>
      </trkpt>
      <trkpt lat="48.82545" lon="2.4351">
        <ele>66</ele>
        <time>2014-05-15T11:13:35Z</time>
      </trkpt>
      <trkpt lat="48.82545" lon="2.4351">
        <ele>66</ele>
        <time>2014-05-15T11:13:36Z</time>
      </trkpt>
      <trkpt lat="48.82545" lon="2.4351">
        <ele>66</ele>
        <time>2014-05-15T11:13:37Z</time>
      </trkpt>
      <trkpt lat="48.82545" lon="2.4351">
        <ele>66</ele>
        <time>2014-05-15T11:13:38Z</time>
      </trkpt>
      <trkpt lat="48.82545" lon="2.4351">
        <ele>66</ele>
        <time>2014-05-15T11:13:39Z</time>
      </trkpt>
      <trkpt lat="48.82545" lon="2.4351">
        <ele>66</ele>
        <time>2014-05-15T11:13:40Z</time>
      </trkpt>
      <trkpt lat="48.82545" lon="2.4351">
        <ele>66</ele>
        <time>2014-05-15T11:13:41Z</time>
      </trkpt>
      <trkpt lat="48.82545" lon="2.4351">
        <ele>66</ele>
        <time>2014-05-15T11:13:42Z</time>
      </trkpt>
      <trkpt lat="48.82545" lon="2.4351">
        <ele>66</ele>
        <time>2014-05-15T11:13:43Z</time>
      </trkpt>
      <trkpt lat="48.82545" lon="2.4351">
        <ele>66</ele>
        <time>2014-05-15T11:13:44Z</time>
      </trkpt>
      <trkpt lat="48.82545" lon="2.4351">
        <ele>66</ele>
        <time>2014-05-15T11:13:45Z</time>
      </trkpt>
      <trkpt lat="48.82545" lon="2.4351">
        <ele>66</ele>
        <time>2014-05-15T11:13:46Z</time>
      </trkpt>
      <trkpt lat="48.82545" lon="2.4351">
        <ele>66</ele>
        <time>2014-05-15T11:13:47Z</time>
      </trkpt>
      <trkpt lat="48.82545" lon="2.4351">
        <ele>66</ele>
        <time>2014-05-15T11:13:48Z</time>
      </trkpt>
      <trkpt lat="48.82545" lon="2.4351">
        <ele>66</ele>
        <time>2014-05-15T11:13:49Z</time>
      </trkpt>
      <trkpt lat="48.82545" lon="2.4351">
        <ele>66</ele>
        <time>2014-05-15T11:13:50Z</time>
      </trkpt>
      <trkpt lat="48.82545" lon="2.4351">
        <ele>66</ele>
        <time>2014-05-15T11:13:51Z</time>
      </trkpt>
      <trkpt lat="48.82545" lon="2.4351">
        <ele>66</ele>
        <time>2014-05-15T11:13:52Z</time>
      </trkpt>
      <trkpt lat="48.82545" lon="2.4351">
        <ele>66</ele>
        <time>2014-05-15T11:13:53Z</time>
      </trkpt>
      <trkpt lat="48.82545" lon="2.4351">
        <ele>66</ele>
        <time>2014-05-15T11:13:54Z</time>
      </trkpt>
      <trkpt lat="48.82545" lon="2.4351">
        <ele>66</ele>
        <time>2014-05-15T11:13:55Z</time>
      </trkpt>
      <trkpt lat="48.82545" lon="2.4351">
        <ele>66</ele>
        <time>2014-05-15T11:13:56Z</time>
      </trkpt>
      <trkpt lat="48.82545" lon="2.4351">
        <ele>66</ele>
        <time>2014-05-15T11:13:57Z</time>
      </trkpt>
      <trkpt lat="48.82545" lon="2.4351">
        <ele>66</ele>
        <time>2014-05-15T11:13:58Z</time>
      </trkpt>
      <trkpt lat="48.82545" lon="2.4351">
        <ele>66</ele>
        <time>2014-05-15T11:13:59Z</time>
      </trkpt>
      <trkpt lat="48.82545" lon="2.4351">
        <ele>66</ele>
        <time>2014-05-15T11:14:00Z</time>
      </trkpt>
      <trkpt lat="48.82545" lon="2.4351">
        <ele>66</ele>
        <time>2014-05-15T11:14:01Z</time>
      </trkpt>
      <trkpt lat="48.82545" lon="2.4351">
        <ele>66</ele>
        <time>2014-05-15T11:14:02Z</time>
      </trkpt>
      <trkpt lat="48.82545" lon="2.4351">
        <ele>66</ele>
        <time>2014-05-15T11:14:03Z</time>
      </trkpt>
      <trkpt lat="48.82545" lon="2.4351">
        <ele>66</ele>
        <time>2014-05-15T11:14:04Z</time>
      </trkpt>
      <trkpt lat="48.82545" lon="2.4351">
        <ele>66</ele>
        <time>2014-05-15T11:14:05Z</time>
      </trkpt>
      <trkpt lat="48.82545" lon="2.4351">
        <ele>66</ele>
        <time>2014-05-15T11:14:06Z</time>
      </trkpt>
      <trkpt lat="48.82545" lon="2.4351">
        <ele>66</ele>
        <time>2014-05-15T11:14:07Z</time>
      </trkpt>
      <trkpt lat="48.82545" lon="2.4351">
        <ele>66</ele>
        <time>2014-05-15T11:14:08Z</time>
      </trkpt>
      <trkpt lat="48.82545" lon="2.4351">
        <ele>66</ele>
        <time>2014-05-15T11:14:09Z</time>
      </trkpt>
      <trkpt lat="48.82545" lon="2.4351">
        <ele>66</ele>
        <time>2014-05-15T11:14:10Z</time>
      </trkpt>
      <trkpt lat="48.82545" lon="2.4351">
        <ele>66</ele>
        <time>2014-05-15T11:14:11Z</time>
      </trkpt>
      <trkpt lat="48.82545" lon="2.4351">
        <ele>66</ele>
        <time>2014-05-15T11:14:12Z</time>
      </trkpt>
      <trkpt lat="48.82545" lon="2.4351">
        <ele>66</ele>
        <time>2014-05-15T11:14:13Z</time>
      </trkpt>
      <trkpt lat="48.82545" lon="2.4351">
        <ele>66</ele>
        <time>2014-05-15T11:14:14Z</time>
      </trkpt>
      <trkpt lat="48.82545" lon="2.4351">
        <ele>66</ele>
        <time>2014-05-15T11:14:15Z</time>
      </trkpt>
      <trkpt lat="48.82545" lon="2.4351">
        <ele>66</ele>
        <time>2014-05-15T11:14:16Z</time>
      </trkpt>
      <trkpt lat="48.82545" lon="2.4351">
        <ele>66</ele>
        <time>2014-05-15T11:14:17Z</time>
      </trkpt>
      <trkpt lat="48.82545" lon="2.4351">
        <ele>66</ele>
        <time>2014-05-15T11:14:18Z</time>
      </trkpt>
      <trkpt lat="48.82545" lon="2.4351">
        <ele>66</ele>
        <time>2014-05-15T11:14:19Z</time>
      </trkpt>
      <trkpt lat="48.82546" lon="2.43509">
        <ele>63</ele>
        <time>2014-05-15T11:14:20Z</time>
      </trkpt>
      <trkpt lat="48.82546" lon="2.43508">
        <ele>64</ele>
        <time>2014-05-15T11:14:21Z</time>
      </trkpt>
      <trkpt lat="48.82546" lon="2.43506">
        <ele>62</ele>
        <time>2014-05-15T11:14:22Z</time>
      </trkpt>
      <trkpt lat="48.82547" lon="2.43505">
        <ele>64</ele>
        <time>2014-05-15T11:14:23Z</time>
      </trkpt>
      <trkpt lat="48.82547" lon="2.43504">
        <ele>64</ele>
        <time>2014-05-15T11:14:24Z</time>
      </trkpt>
      <trkpt lat="48.82548" lon="2.43502">
        <ele>63</ele>
        <time>2014-05-15T11:14:25Z</time>
      </trkpt>
      <trkpt lat="48.82549" lon="2.43501">
        <ele>61</ele>
        <time>2014-05-15T11:14:26Z</time>
      </trkpt>
      <trkpt lat="48.8255" lon="2.43499">
        <ele>60</ele>
        <time>2014-05-15T11:14:27Z</time>
      </trkpt>
      <trkpt lat="48.8255" lon="2.43498">
        <ele>59</ele>
        <time>2014-05-15T11:14:28Z</time>
      </trkpt>
      <trkpt lat="48.82551" lon="2.43496">
        <ele>58</ele>
        <time>2014-05-15T11:14:29Z</time>
      </trkpt>
      <trkpt lat="48.82551" lon="2.43494">
        <ele>58</ele>
        <time>2014-05-15T11:14:30Z</time>
      </trkpt>
      <trkpt lat="48.82552" lon="2.43493">
        <ele>58</ele>
        <time>2014-05-15T11:14:31Z</time>
      </trkpt>
      <trkpt lat="48.82552" lon="2.43492">
        <ele>57</ele>
        <time>2014-05-15T11:14:32Z</time>
      </trkpt>
      <trkpt lat="48.82553" lon="2.43491">
        <ele>57</ele>
        <time>2014-05-15T11:14:33Z</time>
      </trkpt>
      <trkpt lat="48.82553" lon="2.4349">
        <ele>56</ele>
        <time>2014-05-15T11:14:34Z</time>
      </trkpt>
      <trkpt lat="48.82554" lon="2.43489">
        <ele>55</ele>
        <time>2014-05-15T11:14:35Z</time>
      </trkpt>
      <trkpt lat="48.82554" lon="2.43488">
        <ele>55</ele>
        <time>2014-05-15T11:14:36Z</time>
      </trkpt>
      <trkpt lat="48.82555" lon="2.43488">
        <ele>54</ele>
        <time>2014-05-15T11:14:37Z</time>
      </trkpt>
      <trkpt lat="48.82556" lon="2.43487">
        <ele>54</ele>
        <time>2014-05-15T11:14:38Z</time>
      </trkpt>
      <trkpt lat="48.82556" lon="2.43486">
        <ele>55</ele>
        <time>2014-05-15T11:14:39Z</time>
      </trkpt>
      <trkpt lat="48.82557" lon="2.43485">
        <ele>55</ele>
        <time>2014-05-15T11:14:40Z</time>
      </trkpt>
      <trkpt lat="48.82558" lon="2.43485">
        <ele>56</ele>
        <time>2014-05-15T11:14:41Z</time>
      </trkpt>
      <trkpt lat="48.82559" lon="2.43484">
        <ele>57</ele>
        <time>2014-05-15T11:14:42Z</time>
      </trkpt>
      <trkpt lat="48.8256" lon="2.43482">
        <ele>58</ele>
        <time>2014-05-15T11:14:43Z</time>
      </trkpt>
      <trkpt lat="48.82561" lon="2.43481">
        <ele>59</ele>
        <time>2014-05-15T11:14:44Z</time>
      </trkpt>
      <trkpt lat="48.82562" lon="2.43479">
        <ele>61</ele>
        <time>2014-05-15T11:14:45Z</time>
      </trkpt>
      <trkpt lat="48.82563" lon="2.43477">
        <ele>61</ele>
        <time>2014-05-15T11:14:46Z</time>
      </trkpt>
      <trkpt lat="48.82564" lon="2.43475">
        <ele>61</ele>
        <time>2014-05-15T11:14:47Z</time>
      </trkpt>
      <trkpt lat="48.82565" lon="2.43473">
        <ele>61</ele>
        <time>2014-05-15T11:14:48Z</time>
      </trkpt>
      <trkpt lat="48.82566" lon="2.43472">
        <ele>61</ele>
        <time>2014-05-15T11:14:49Z</time>
      </trkpt>
      <trkpt lat="48.82566" lon="2.43471">
        <ele>62</ele>
        <time>2014-05-15T11:14:50Z</time>
      </trkpt>
      <trkpt lat="48.82568" lon="2.43472">
        <ele>58</ele>
        <time>2014-05-15T11:14:51Z</time>
      </trkpt>
      <trkpt lat="48.82569" lon="2.43472">
        <ele>60</ele>
        <time>2014-05-15T11:14:52Z</time>
      </trkpt>
      <trkpt lat="48.8257" lon="2.43471">
        <ele>61</ele>
        <time>2014-05-15T11:14:53Z</time>
      </trkpt>
      <trkpt lat="48.82571" lon="2.43471">
        <ele>61</ele>
        <time>2014-05-15T11:14:54Z</time>
      </trkpt>
      <trkpt lat="48.82572" lon="2.4347">
        <ele>60</ele>
        <time>2014-05-15T11:14:55Z</time>
      </trkpt>
      <trkpt lat="48.82573" lon="2.4347">
        <ele>61</ele>
        <time>2014-05-15T11:14:56Z</time>
      </trkpt>
      <trkpt lat="48.82574" lon="2.43469">
        <ele>61</ele>
        <time>2014-05-15T11:14:57Z</time>
      </trkpt>
      <trkpt lat="48.82575" lon="2.43469">
        <ele>62</ele>
        <time>2014-05-15T11:14:58Z</time>
      </trkpt>
      <trkpt lat="48.82576" lon="2.43469">
        <ele>62</ele>
        <time>2014-05-15T11:14:59Z</time>
      </trkpt>
      <trkpt lat="48.82577" lon="2.43469">
        <ele>62</ele>
        <time>2014-05-15T11:15:00Z</time>
      </trkpt>
      <trkpt lat="48.82579" lon="2.43469">
        <ele>61</ele>
        <time>2014-05-15T11:15:01Z</time>
      </trkpt>
      <trkpt lat="48.82581" lon="2.43468">
        <ele>59</ele>
        <time>2014-05-15T11:15:02Z</time>
      </trkpt>
      <trkpt lat="48.82582" lon="2.43468">
        <ele>58</ele>
        <time>2014-05-15T11:15:03Z</time>
      </trkpt>
      <trkpt lat="48.82582" lon="2.43468">
        <ele>58</ele>
        <time>2014-05-15T11:15:04Z</time>
      </trkpt>
      <trkpt lat="48.82583" lon="2.43468">
        <ele>58</ele>
        <time>2014-05-15T11:15:05Z</time>
      </trkpt>
      <trkpt lat="48.82584" lon="2.43468">
        <ele>59</ele>
        <time>2014-05-15T11:15:06Z</time>
      </trkpt>
      <trkpt lat="48.82585" lon="2.43469">
        <ele>59</ele>
        <time>2014-05-15T11:15:07Z</time>
      </trkpt>
      <trkpt lat="48.82587" lon="2.43469">
        <ele>58</ele>
        <time>2014-05-15T11:15:08Z</time>
      </trkpt>
      <trkpt lat="48.82588" lon="2.4347">
        <ele>56</ele>
        <time>2014-05-15T11:15:09Z</time>
      </trkpt>
      <trkpt lat="48.82589" lon="2.4347">
        <ele>56</ele>
        <time>2014-05-15T11:15:10Z</time>
      </trkpt>
      <trkpt lat="48.8259" lon="2.43471">
        <ele>56</ele>
        <time>2014-05-15T11:15:11Z</time>
      </trkpt>
      <trkpt lat="48.82591" lon="2.43471">
        <ele>56</ele>
        <time>2014-05-15T11:15:12Z</time>
      </trkpt>
      <trkpt lat="48.82592" lon="2.43471">
        <ele>57</ele>
        <time>2014-05-15T11:15:13Z</time>
      </trkpt>
      <trkpt lat="48.82593" lon="2.43471">
        <ele>57</ele>
        <time>2014-05-15T11:15:14Z</time>
      </trkpt>
      <trkpt lat="48.82594" lon="2.4347">
        <ele>58</ele>
        <time>2014-05-15T11:15:15Z</time>
      </trkpt>
      <trkpt lat="48.82595" lon="2.43469">
        <ele>59</ele>
        <time>2014-05-15T11:15:16Z</time>
      </trkpt>
      <trkpt lat="48.82595" lon="2.43468">
        <ele>59</ele>
        <time>2014-05-15T11:15:17Z</time>
      </trkpt>
      <trkpt lat="48.82596" lon="2.43467">
        <ele>59</ele>
        <time>2014-05-15T11:15:18Z</time>
      </trkpt>
      <trkpt lat="48.82597" lon="2.43466">
        <ele>57</ele>
        <time>2014-05-15T11:15:19Z</time>
      </trkpt>
      <trkpt lat="48.82597" lon="2.43464">
        <ele>57</ele>
        <time>2014-05-15T11:15:20Z</time>
      </trkpt>
      <trkpt lat="48.82598" lon="2.43463">
        <ele>57</ele>
        <time>2014-05-15T11:15:21Z</time>
      </trkpt>
      <trkpt lat="48.82598" lon="2.43461">
        <ele>57</ele>
        <time>2014-05-15T11:15:22Z</time>
      </trkpt>
      <trkpt lat="48.82598" lon="2.4346">
        <ele>57</ele>
        <time>2014-05-15T11:15:23Z</time>
      </trkpt>
      <trkpt lat="48.82599" lon="2.43458">
        <ele>57</ele>
        <time>2014-05-15T11:15:24Z</time>
      </trkpt>
      <trkpt lat="48.826" lon="2.43457">
        <ele>57</ele>
        <time>2014-05-15T11:15:25Z</time>
      </trkpt>
      <trkpt lat="48.826" lon="2.43455">
        <ele>58</ele>
        <time>2014-05-15T11:15:26Z</time>
      </trkpt>
      <trkpt lat="48.82601" lon="2.43453">
        <ele>58</ele>
        <time>2014-05-15T11:15:27Z</time>
      </trkpt>
      <trkpt lat="48.82601" lon="2.43451">
        <ele>58</ele>
        <time>2014-05-15T11:15:28Z</time>
      </trkpt>
      <trkpt lat="48.82601" lon="2.43449">
        <ele>59</ele>
        <time>2014-05-15T11:15:29Z</time>
      </trkpt>
      <trkpt lat="48.82601" lon="2.43446">
        <ele>60</ele>
        <time>2014-05-15T11:15:30Z</time>
      </trkpt>
      <trkpt lat="48.82601" lon="2.43445">
        <ele>59</ele>
        <time>2014-05-15T11:15:31Z</time>
      </trkpt>
      <trkpt lat="48.82601" lon="2.43442">
        <ele>59</ele>
        <time>2014-05-15T11:15:32Z</time>
      </trkpt>
      <trkpt lat="48.82602" lon="2.43441">
        <ele>60</ele>
        <time>2014-05-15T11:15:33Z</time>
      </trkpt>
      <trkpt lat="48.82601" lon="2.4344">
        <ele>58</ele>
        <time>2014-05-15T11:15:34Z</time>
      </trkpt>
      <trkpt lat="48.82602" lon="2.4344">
        <ele>58</ele>
        <time>2014-05-15T11:15:35Z</time>
      </trkpt>
      <trkpt lat="48.82602" lon="2.43442">
        <ele>58</ele>
        <time>2014-05-15T11:15:36Z</time>
      </trkpt>
      <trkpt lat="48.82603" lon="2.43443">
        <ele>56</ele>
        <time>2014-05-15T11:15:37Z</time>
      </trkpt>
      <trkpt lat="48.82604" lon="2.43446">
        <ele>58</ele>
        <time>2014-05-15T11:15:38Z</time>
      </trkpt>
      <trkpt lat="48.82604" lon="2.43447">
        <ele>58</ele>
        <time>2014-05-15T11:15:39Z</time>
      </trkpt>
      <trkpt lat="48.82605" lon="2.43449">
        <ele>57</ele>
        <time>2014-05-15T11:15:40Z</time>
      </trkpt>
      <trkpt lat="48.82607" lon="2.4345">
        <ele>58</ele>
        <time>2014-05-15T11:15:41Z</time>
      </trkpt>
      <trkpt lat="48.82608" lon="2.43452">
        <ele>58</ele>
        <time>2014-05-15T11:15:42Z</time>
      </trkpt>
      <trkpt lat="48.82609" lon="2.43454">
        <ele>59</ele>
        <time>2014-05-15T11:15:43Z</time>
      </trkpt>
      <trkpt lat="48.8261" lon="2.43457">
        <ele>58</ele>
        <time>2014-05-15T11:15:44Z</time>
      </trkpt>
      <trkpt lat="48.82611" lon="2.43459">
        <ele>57</ele>
        <time>2014-05-15T11:15:45Z</time>
      </trkpt>
      <trkpt lat="48.82612" lon="2.43461">
        <ele>59</ele>
        <time>2014-05-15T11:15:46Z</time>
      </trkpt>
      <trkpt lat="48.82613" lon="2.43463">
        <ele>60</ele>
        <time>2014-05-15T11:15:47Z</time>
      </trkpt>
      <trkpt lat="48.82614" lon="2.43465">
        <ele>60</ele>
        <time>2014-05-15T11:15:48Z</time>
      </trkpt>
      <trkpt lat="48.82614" lon="2.43467">
        <ele>60</ele>
        <time>2014-05-15T11:15:49Z</time>
      </trkpt>
      <trkpt lat="48.82615" lon="2.43468">
        <ele>61</ele>
        <time>2014-05-15T11:15:50Z</time>
      </trkpt>
      <trkpt lat="48.82616" lon="2.4347">
        <ele>59</ele>
        <time>2014-05-15T11:15:51Z</time>
      </trkpt>
      <trkpt lat="48.82617" lon="2.43471">
        <ele>59</ele>
        <time>2014-05-15T11:15:52Z</time>
      </trkpt>
      <trkpt lat="48.82618" lon="2.43473">
        <ele>57</ele>
        <time>2014-05-15T11:15:53Z</time>
      </trkpt>
      <trkpt lat="48.82618" lon="2.43474">
        <ele>57</ele>
        <time>2014-05-15T11:15:54Z</time>
      </trkpt>
      <trkpt lat="48.82619" lon="2.43476">
        <ele>57</ele>
        <time>2014-05-15T11:15:55Z</time>
      </trkpt>
      <trkpt lat="48.8262" lon="2.43478">
        <ele>57</ele>
        <time>2014-05-15T11:15:56Z</time>
      </trkpt>
      <trkpt lat="48.8262" lon="2.4348">
        <ele>58</ele>
        <time>2014-05-15T11:15:57Z</time>
      </trkpt>
      <trkpt lat="48.82621" lon="2.43482">
        <ele>58</ele>
        <time>2014-05-15T11:15:58Z</time>
      </trkpt>
      <trkpt lat="48.82621" lon="2.43484">
        <ele>56</ele>
        <time>2014-05-15T11:15:59Z</time>
      </trkpt>
      <trkpt lat="48.82622" lon="2.43486">
        <ele>57</ele>
        <time>2014-05-15T11:16:00Z</time>
      </trkpt>
      <trkpt lat="48.82623" lon="2.43488">
        <ele>57</ele>
        <time>2014-05-15T11:16:01Z</time>
      </trkpt>
      <trkpt lat="48.82623" lon="2.43491">
        <ele>56</ele>
        <time>2014-05-15T11:16:02Z</time>
      </trkpt>
      <trkpt lat="48.82624" lon="2.43493">
        <ele>56</ele>
        <time>2014-05-15T11:16:03Z</time>
      </trkpt>
      <trkpt lat="48.82625" lon="2.43495">
        <ele>57</ele>
        <time>2014-05-15T11:16:04Z</time>
      </trkpt>
      <trkpt lat="48.82626" lon="2.43497">
        <ele>57</ele>
        <time>2014-05-15T11:16:05Z</time>
      </trkpt>
      <trkpt lat="48.82627" lon="2.43499">
        <ele>57</ele>
        <time>2014-05-15T11:16:06Z</time>
      </trkpt>
      <trkpt lat="48.82627" lon="2.43501">
        <ele>56</ele>
        <time>2014-05-15T11:16:07Z</time>
      </trkpt>
      <trkpt lat="48.82628" lon="2.43504">
        <ele>56</ele>
        <time>2014-05-15T11:16:08Z</time>
      </trkpt>
      <trkpt lat="48.82628" lon="2.43506">
        <ele>54</ele>
        <time>2014-05-15T11:16:09Z</time>
      </trkpt>
      <trkpt lat="48.82629" lon="2.43508">
        <ele>54</ele>
        <time>2014-05-15T11:16:10Z</time>
      </trkpt>
      <trkpt lat="48.8263" lon="2.4351">
        <ele>56</ele>
        <time>2014-05-15T11:16:11Z</time>
      </trkpt>
      <trkpt lat="48.82631" lon="2.43512">
        <ele>58</ele>
        <time>2014-05-15T11:16:12Z</time>
      </trkpt>
      <trkpt lat="48.82632" lon="2.43514">
        <ele>59</ele>
        <time>2014-05-15T11:16:13Z</time>
      </trkpt>
      <trkpt lat="48.82632" lon="2.43516">
        <ele>60</ele>
        <time>2014-05-15T11:16:14Z</time>
      </trkpt>
      <trkpt lat="48.82633" lon="2.43518">
        <ele>58</ele>
        <time>2014-05-15T11:16:15Z</time>
      </trkpt>
      <trkpt lat="48.82633" lon="2.4352">
        <ele>58</ele>
        <time>2014-05-15T11:16:16Z</time>
      </trkpt>
      <trkpt lat="48.82634" lon="2.43521">
        <ele>58</ele>
        <time>2014-05-15T11:16:17Z</time>
      </trkpt>
      <trkpt lat="48.82635" lon="2.43523">
        <ele>59</ele>
        <time>2014-05-15T11:16:18Z</time>
      </trkpt>
      <trkpt lat="48.82635" lon="2.43524">
        <ele>61</ele>
        <time>2014-05-15T11:16:19Z</time>
      </trkpt>
      <trkpt lat="48.82636" lon="2.43526">
        <ele>60</ele>
        <time>2014-05-15T11:16:20Z</time>
      </trkpt>
      <trkpt lat="48.82637" lon="2.43527">
        <ele>61</ele>
        <time>2014-05-15T11:16:21Z</time>
      </trkpt>
      <trkpt lat="48.82637" lon="2.43529">
        <ele>61</ele>
        <time>2014-05-15T11:16:22Z</time>
      </trkpt>
      <trkpt lat="48.82637" lon="2.43531">
        <ele>60</ele>
        <time>2014-05-15T11:16:23Z</time>
      </trkpt>
      <trkpt lat="48.82637" lon="2.43532">
        <ele>60</ele>
        <time>2014-05-15T11:16:24Z</time>
      </trkpt>
      <trkpt lat="48.82638" lon="2.43534">
        <ele>59</ele>
        <time>2014-05-15T11:16:25Z</time>
      </trkpt>
      <trkpt lat="48.82639" lon="2.43535">
        <ele>59</ele>
        <time>2014-05-15T11:16:26Z</time>
      </trkpt>
      <trkpt lat="48.8264" lon="2.43536">
        <ele>57</ele>
        <time>2014-05-15T11:16:27Z</time>
      </trkpt>
      <trkpt lat="48.8264" lon="2.43538">
        <ele>57</ele>
        <time>2014-05-15T11:16:28Z</time>
      </trkpt>
      <trkpt lat="48.82641" lon="2.43539">
        <ele>57</ele>
        <time>2014-05-15T11:16:29Z</time>
      </trkpt>
      <trkpt lat="48.82641" lon="2.43541">
        <ele>59</ele>
        <time>2014-05-15T11:16:30Z</time>
      </trkpt>
      <trkpt lat="48.82642" lon="2.43542">
        <ele>57</ele>
        <time>2014-05-15T11:16:31Z</time>
      </trkpt>
      <trkpt lat="48.82643" lon="2.43544">
        <ele>57</ele>
        <time>2014-05-15T11:16:32Z</time>
      </trkpt>
      <trkpt lat="48.82643" lon="2.43546">
        <ele>56</ele>
        <time>2014-05-15T11:16:33Z</time>
      </trkpt>
      <trkpt lat="48.82644" lon="2.43548">
        <ele>56</ele>
        <time>2014-05-15T11:16:34Z</time>
      </trkpt>
      <trkpt lat="48.82644" lon="2.4355">
        <ele>55</ele>
        <time>2014-05-15T11:16:35Z</time>
      </trkpt>
      <trkpt lat="48.82645" lon="2.43552">
        <ele>56</ele>
        <time>2014-05-15T11:16:36Z</time>
      </trkpt>
      <trkpt lat="48.82645" lon="2.43554">
        <ele>55</ele>
        <time>2014-05-15T11:16:37Z</time>
      </trkpt>
      <trkpt lat="48.82646" lon="2.43557">
        <ele>56</ele>
        <time>2014-05-15T11:16:38Z</time>
      </trkpt>
      <trkpt lat="48.82646" lon="2.43559">
        <ele>56</ele>
        <time>2014-05-15T11:16:39Z</time>
      </trkpt>
      <trkpt lat="48.82647" lon="2.43562">
        <ele>56</ele>
        <time>2014-05-15T11:16:40Z</time>
      </trkpt>
      <trkpt lat="48.82647" lon="2.43564">
        <ele>56</ele>
        <time>2014-05-15T11:16:41Z</time>
      </trkpt>
      <trkpt lat="48.82648" lon="2.43567">
        <ele>57</ele>
        <time>2014-05-15T11:16:42Z</time>
      </trkpt>
      <trkpt lat="48.82649" lon="2.4357">
        <ele>57</ele>
        <time>2014-05-15T11:16:43Z</time>
      </trkpt>
      <trkpt lat="48.8265" lon="2.43573">
        <ele>58</ele>
        <time>2014-05-15T11:16:44Z</time>
      </trkpt>
      <trkpt lat="48.82651" lon="2.43575">
        <ele>60</ele>
        <time>2014-05-15T11:16:45Z</time>
      </trkpt>
      <trkpt lat="48.82652" lon="2.43577">
        <ele>60</ele>
        <time>2014-05-15T11:16:46Z</time>
      </trkpt>
      <trkpt lat="48.82652" lon="2.4358">
        <ele>60</ele>
        <time>2014-05-15T11:16:47Z</time>
      </trkpt>
      <trkpt lat="48.82653" lon="2.43582">
        <ele>59</ele>
        <time>2014-05-15T11:16:48Z</time>
      </trkpt>
      <trkpt lat="48.82653" lon="2.43584">
        <ele>59</ele>
        <time>2014-05-15T11:16:49Z</time>
      </trkpt>
      <trkpt lat="48.82654" lon="2.43587">
        <ele>59</ele>
        <time>2014-05-15T11:16:50Z</time>
      </trkpt>
      <trkpt lat="48.82654" lon="2.43589">
        <ele>58</ele>
        <time>2014-05-15T11:16:51Z</time>
      </trkpt>
      <trkpt lat="48.82654" lon="2.43591">
        <ele>59</ele>
        <time>2014-05-15T11:16:52Z</time>
      </trkpt>
      <trkpt lat="48.82654" lon="2.43593">
        <ele>59</ele>
        <time>2014-05-15T11:16:53Z</time>
      </trkpt>
      <trkpt lat="48.82654" lon="2.43595">
        <ele>59</ele>
        <time>2014-05-15T11:16:54Z</time>
      </trkpt>
      <trkpt lat="48.82655" lon="2.43596">
        <ele>59</ele>
        <time>2014-05-15T11:16:55Z</time>
      </trkpt>
      <trkpt lat="48.82655" lon="2.43599">
        <ele>59</ele>
        <time>2014-05-15T11:16:56Z</time>
      </trkpt>
      <trkpt lat="48.82655" lon="2.43601">
        <ele>59</ele>
        <time>2014-05-15T11:16:57Z</time>
      </trkpt>
      <trkpt lat="48.82655" lon="2.43602">
        <ele>59</ele>
        <time>2014-05-15T11:16:58Z</time>
      </trkpt>
      <trkpt lat="48.82656" lon="2.43604">
        <ele>58</ele>
        <time>2014-05-15T11:16:59Z</time>
      </trkpt>
      <trkpt lat="48.82657" lon="2.43606">
        <ele>58</ele>
        <time>2014-05-15T11:17:00Z</time>
      </trkpt>
      <trkpt lat="48.82657" lon="2.43608">
        <ele>58</ele>
        <time>2014-05-15T11:17:01Z</time>
      </trkpt>
      <trkpt lat="48.82658" lon="2.43609">
        <ele>58</ele>
        <time>2014-05-15T11:17:02Z</time>
      </trkpt>
      <trkpt lat="48.82659" lon="2.43611">
        <ele>58</ele>
        <time>2014-05-15T11:17:03Z</time>
      </trkpt>
      <trkpt lat="48.8266" lon="2.43613">
        <ele>57</ele>
        <time>2014-05-15T11:17:04Z</time>
      </trkpt>
      <trkpt lat="48.82661" lon="2.43615">
        <ele>57</ele>
        <time>2014-05-15T11:17:05Z</time>
      </trkpt>
      <trkpt lat="48.82661" lon="2.43617">
        <ele>57</ele>
        <time>2014-05-15T11:17:06Z</time>
      </trkpt>
      <trkpt lat="48.82662" lon="2.43619">
        <ele>59</ele>
        <time>2014-05-15T11:17:07Z</time>
      </trkpt>
      <trkpt lat="48.82663" lon="2.43621">
        <ele>59</ele>
        <time>2014-05-15T11:17:08Z</time>
      </trkpt>
      <trkpt lat="48.82664" lon="2.43623">
        <ele>59</ele>
        <time>2014-05-15T11:17:09Z</time>
      </trkpt>
      <trkpt lat="48.82665" lon="2.43625">
        <ele>59</ele>
        <time>2014-05-15T11:17:10Z</time>
      </trkpt>
      <trkpt lat="48.82665" lon="2.43627">
        <ele>59</ele>
        <time>2014-05-15T11:17:11Z</time>
      </trkpt>
      <trkpt lat="48.82667" lon="2.43628">
        <ele>58</ele>
        <time>2014-05-15T11:17:12Z</time>
      </trkpt>
      <trkpt lat="48.82667" lon="2.43629">
        <ele>58</ele>
        <time>2014-05-15T11:17:13Z</time>
      </trkpt>
      <trkpt lat="48.82668" lon="2.4363">
        <ele>58</ele>
        <time>2014-05-15T11:17:14Z</time>
      </trkpt>
      <trkpt lat="48.82669" lon="2.43632">
        <ele>58</ele>
        <time>2014-05-15T11:17:15Z</time>
      </trkpt>
      <trkpt lat="48.82669" lon="2.43633">
        <ele>57</ele>
        <time>2014-05-15T11:17:16Z</time>
      </trkpt>
      <trkpt lat="48.8267" lon="2.43635">
        <ele>59</ele>
        <time>2014-05-15T11:17:17Z</time>
      </trkpt>
      <trkpt lat="48.8267" lon="2.43637">
        <ele>59</ele>
        <time>2014-05-15T11:17:18Z</time>
      </trkpt>
      <trkpt lat="48.8267" lon="2.43639">
        <ele>60</ele>
        <time>2014-05-15T11:17:19Z</time>
      </trkpt>
      <trkpt lat="48.8267" lon="2.43641">
        <ele>59</ele>
        <time>2014-05-15T11:17:20Z</time>
      </trkpt>
      <trkpt lat="48.8267" lon="2.43643">
        <ele>59</ele>
        <time>2014-05-15T11:17:21Z</time>
      </trkpt>
      <trkpt lat="48.82669" lon="2.43645">
        <ele>59</ele>
        <time>2014-05-15T11:17:22Z</time>
      </trkpt>
      <trkpt lat="48.8267" lon="2.43647">
        <ele>59</ele>
        <time>2014-05-15T11:17:23Z</time>
      </trkpt>
      <trkpt lat="48.8267" lon="2.43649">
        <ele>58</ele>
        <time>2014-05-15T11:17:24Z</time>
      </trkpt>
      <trkpt lat="48.8267" lon="2.43651">
        <ele>59</ele>
        <time>2014-05-15T11:17:25Z</time>
      </trkpt>
      <trkpt lat="48.82671" lon="2.43653">
        <ele>60</ele>
        <time>2014-05-15T11:17:26Z</time>
      </trkpt>
      <trkpt lat="48.82672" lon="2.43654">
        <ele>60</ele>
        <time>2014-05-15T11:17:27Z</time>
      </trkpt>
      <trkpt lat="48.82674" lon="2.43655">
        <ele>60</ele>
        <time>2014-05-15T11:17:28Z</time>
      </trkpt>
      <trkpt lat="48.82674" lon="2.43657">
        <ele>61</ele>
        <time>2014-05-15T11:17:29Z</time>
      </trkpt>
      <trkpt lat="48.82674" lon="2.43659">
        <ele>61</ele>
        <time>2014-05-15T11:17:30Z</time>
      </trkpt>
      <trkpt lat="48.82674" lon="2.43661">
        <ele>61</ele>
        <time>2014-05-15T11:17:31Z</time>
      </trkpt>
      <trkpt lat="48.82674" lon="2.43663">
        <ele>61</ele>
        <time>2014-05-15T11:17:32Z</time>
      </trkpt>
      <trkpt lat="48.82674" lon="2.43665">
        <ele>62</ele>
        <time>2014-05-15T11:17:33Z</time>
      </trkpt>
      <trkpt lat="48.82674" lon="2.43667">
        <ele>61</ele>
        <time>2014-05-15T11:17:34Z</time>
      </trkpt>
      <trkpt lat="48.82675" lon="2.43669">
        <ele>60</ele>
        <time>2014-05-15T11:17:35Z</time>
      </trkpt>
      <trkpt lat="48.82675" lon="2.43671">
        <ele>60</ele>
        <time>2014-05-15T11:17:36Z</time>
      </trkpt>
      <trkpt lat="48.82676" lon="2.43673">
        <ele>61</ele>
        <time>2014-05-15T11:17:37Z</time>
      </trkpt>
      <trkpt lat="48.82677" lon="2.43675">
        <ele>60</ele>
        <time>2014-05-15T11:17:38Z</time>
      </trkpt>
      <trkpt lat="48.82678" lon="2.43677">
        <ele>61</ele>
        <time>2014-05-15T11:17:39Z</time>
      </trkpt>
      <trkpt lat="48.82679" lon="2.43679">
        <ele>61</ele>
        <time>2014-05-15T11:17:40Z</time>
      </trkpt>
      <trkpt lat="48.8268" lon="2.43681">
        <ele>61</ele>
        <time>2014-05-15T11:17:41Z</time>
      </trkpt>
      <trkpt lat="48.82681" lon="2.43683">
        <ele>62</ele>
        <time>2014-05-15T11:17:42Z</time>
      </trkpt>
      <trkpt lat="48.82681" lon="2.43685">
        <ele>61</ele>
        <time>2014-05-15T11:17:43Z</time>
      </trkpt>
      <trkpt lat="48.82682" lon="2.43688">
        <ele>61</ele>
        <time>2014-05-15T11:17:44Z</time>
      </trkpt>
      <trkpt lat="48.82682" lon="2.4369">
        <ele>61</ele>
        <time>2014-05-15T11:17:45Z</time>
      </trkpt>
      <trkpt lat="48.82683" lon="2.43692">
        <ele>61</ele>
        <time>2014-05-15T11:17:46Z</time>
      </trkpt>
      <trkpt lat="48.82683" lon="2.43694">
        <ele>62</ele>
        <time>2014-05-15T11:17:47Z</time>
      </trkpt>
      <trkpt lat="48.82684" lon="2.43696">
        <ele>63</ele>
        <time>2014-05-15T11:17:48Z</time>
      </trkpt>
      <trkpt lat="48.82684" lon="2.43698">
        <ele>63</ele>
        <time>2014-05-15T11:17:49Z</time>
      </trkpt>
      <trkpt lat="48.82685" lon="2.437">
        <ele>63</ele>
        <time>2014-05-15T11:17:50Z</time>
      </trkpt>
      <trkpt lat="48.82685" lon="2.43701">
        <ele>61</ele>
        <time>2014-05-15T11:17:51Z</time>
      </trkpt>
      <trkpt lat="48.82686" lon="2.43703">
        <ele>61</ele>
        <time>2014-05-15T11:17:52Z</time>
      </trkpt>
      <trkpt lat="48.82686" lon="2.43704">
        <ele>60</ele>
        <time>2014-05-15T11:17:53Z</time>
      </trkpt>
      <trkpt lat="48.82686" lon="2.43706">
        <ele>60</ele>
        <time>2014-05-15T11:17:54Z</time>
      </trkpt>
      <trkpt lat="48.82687" lon="2.43708">
        <ele>60</ele>
        <time>2014-05-15T11:17:55Z</time>
      </trkpt>
      <trkpt lat="48.82688" lon="2.4371">
        <ele>60</ele>
        <time>2014-05-15T11:17:56Z</time>
      </trkpt>
      <trkpt lat="48.82689" lon="2.43711">
        <ele>59</ele>
        <time>2014-05-15T11:17:57Z</time>
      </trkpt>
      <trkpt lat="48.82689" lon="2.43713">
        <ele>59</ele>
        <time>2014-05-15T11:17:58Z</time>
      </trkpt>
      <trkpt lat="48.8269" lon="2.43715">
        <ele>58</ele>
        <time>2014-05-15T11:17:59Z</time>
      </trkpt>
      <trkpt lat="48.82691" lon="2.43717">
        <ele>57</ele>
        <time>2014-05-15T11:18:00Z</time>
      </trkpt>
      <trkpt lat="48.82692" lon="2.43719">
        <ele>56</ele>
        <time>2014-05-15T11:18:01Z</time>
      </trkpt>
      <trkpt lat="48.82693" lon="2.4372">
        <ele>56</ele>
        <time>2014-05-15T11:18:02Z</time>
      </trkpt>
      <trkpt lat="48.82694" lon="2.43721">
        <ele>56</ele>
        <time>2014-05-15T11:18:03Z</time>
      </trkpt>
      <trkpt lat="48.82695" lon="2.43723">
        <ele>56</ele>
        <time>2014-05-15T11:18:04Z</time>
      </trkpt>
      <trkpt lat="48.82695" lon="2.43725">
        <ele>56</ele>
        <time>2014-05-15T11:18:05Z</time>
      </trkpt>
      <trkpt lat="48.82696" lon="2.43727">
        <ele>56</ele>
        <time>2014-05-15T11:18:06Z</time>
      </trkpt>
      <trkpt lat="48.82696" lon="2.43729">
        <ele>56</ele>
        <time>2014-05-15T11:18:07Z</time>
      </trkpt>
      <trkpt lat="48.82696" lon="2.43731">
        <ele>57</ele>
        <time>2014-05-15T11:18:08Z</time>
      </trkpt>
      <trkpt lat="48.82697" lon="2.43733">
        <ele>57</ele>
        <time>2014-05-15T11:18:09Z</time>
      </trkpt>
      <trkpt lat="48.82697" lon="2.43736">
        <ele>58</ele>
        <time>2014-05-15T11:18:10Z</time>
      </trkpt>
      <trkpt lat="48.82697" lon="2.43739">
        <ele>59</ele>
        <time>2014-05-15T11:18:11Z</time>
      </trkpt>
      <trkpt lat="48.82697" lon="2.43742">
        <ele>57</ele>
        <time>2014-05-15T11:18:12Z</time>
      </trkpt>
      <trkpt lat="48.82697" lon="2.43744">
        <ele>57</ele>
        <time>2014-05-15T11:18:13Z</time>
      </trkpt>
      <trkpt lat="48.82697" lon="2.43746">
        <ele>58</ele>
        <time>2014-05-15T11:18:14Z</time>
      </trkpt>
      <trkpt lat="48.82697" lon="2.43748">
        <ele>58</ele>
        <time>2014-05-15T11:18:15Z</time>
      </trkpt>
      <trkpt lat="48.82698" lon="2.4375">
        <ele>58</ele>
        <time>2014-05-15T11:18:16Z</time>
      </trkpt>
      <trkpt lat="48.82699" lon="2.43752">
        <ele>57</ele>
        <time>2014-05-15T11:18:17Z</time>
      </trkpt>
      <trkpt lat="48.827" lon="2.43753">
        <ele>59</ele>
        <time>2014-05-15T11:18:18Z</time>
      </trkpt>
      <trkpt lat="48.827" lon="2.43755">
        <ele>59</ele>
        <time>2014-05-15T11:18:19Z</time>
      </trkpt>
      <trkpt lat="48.82701" lon="2.43757">
        <ele>59</ele>
        <time>2014-05-15T11:18:20Z</time>
      </trkpt>
      <trkpt lat="48.82701" lon="2.43759">
        <ele>59</ele>
        <time>2014-05-15T11:18:21Z</time>
      </trkpt>
      <trkpt lat="48.82701" lon="2.43761">
        <ele>59</ele>
        <time>2014-05-15T11:18:22Z</time>
      </trkpt>
      <trkpt lat="48.82702" lon="2.43764">
        <ele>59</ele>
        <time>2014-05-15T11:18:23Z</time>
      </trkpt>
      <trkpt lat="48.82702" lon="2.43766">
        <ele>60</ele>
        <time>2014-05-15T11:18:24Z</time>
      </trkpt>
      <trkpt lat="48.82703" lon="2.43768">
        <ele>60</ele>
        <time>2014-05-15T11:18:25Z</time>
      </trkpt>
      <trkpt lat="48.82704" lon="2.43771">
        <ele>61</ele>
        <time>2014-05-15T11:18:26Z</time>
      </trkpt>
      <trkpt lat="48.82704" lon="2.43773">
        <ele>61</ele>
        <time>2014-05-15T11:18:27Z</time>
      </trkpt>
      <trkpt lat="48.82705" lon="2.43776">
        <ele>61</ele>
        <time>2014-05-15T11:18:28Z</time>
      </trkpt>
      <trkpt lat="48.82705" lon="2.43778">
        <ele>62</ele>
        <time>2014-05-15T11:18:29Z</time>
      </trkpt>
      <trkpt lat="48.82706" lon="2.4378">
        <ele>61</ele>
        <time>2014-05-15T11:18:30Z</time>
      </trkpt>
      <trkpt lat="48.82707" lon="2.43782">
        <ele>61</ele>
        <time>2014-05-15T11:18:31Z</time>
      </trkpt>
      <trkpt lat="48.82707" lon="2.43784">
        <ele>62</ele>
        <time>2014-05-15T11:18:32Z</time>
      </trkpt>
      <trkpt lat="48.82708" lon="2.43786">
        <ele>62</ele>
        <time>2014-05-15T11:18:33Z</time>
      </trkpt>
      <trkpt lat="48.82708" lon="2.43788">
        <ele>61</ele>
        <time>2014-05-15T11:18:34Z</time>
      </trkpt>
      <trkpt lat="48.82708" lon="2.43789">
        <ele>60</ele>
        <time>2014-05-15T11:18:35Z</time>
      </trkpt>
      <trkpt lat="48.82709" lon="2.43791">
        <ele>58</ele>
        <time>2014-05-15T11:18:36Z</time>
      </trkpt>
      <trkpt lat="48.82709" lon="2.43792">
        <ele>58</ele>
        <time>2014-05-15T11:18:37Z</time>
      </trkpt>
      <trkpt lat="48.8271" lon="2.43794">
        <ele>58</ele>
        <time>2014-05-15T11:18:38Z</time>
      </trkpt>
      <trkpt lat="48.82711" lon="2.43795">
        <ele>58</ele>
        <time>2014-05-15T11:18:39Z</time>
      </trkpt>
      <trkpt lat="48.82712" lon="2.43797">
        <ele>60</ele>
        <time>2014-05-15T11:18:40Z</time>
      </trkpt>
      <trkpt lat="48.82713" lon="2.43798">
        <ele>58</ele>
        <time>2014-05-15T11:18:41Z</time>
      </trkpt>
      <trkpt lat="48.82714" lon="2.43799">
        <ele>58</ele>
        <time>2014-05-15T11:18:42Z</time>
      </trkpt>
      <trkpt lat="48.82714" lon="2.43801">
        <ele>57</ele>
        <time>2014-05-15T11:18:43Z</time>
      </trkpt>
      <trkpt lat="48.82714" lon="2.43802">
        <ele>56</ele>
        <time>2014-05-15T11:18:44Z</time>
      </trkpt>
      <trkpt lat="48.82715" lon="2.43804">
        <ele>56</ele>
        <time>2014-05-15T11:18:45Z</time>
      </trkpt>
      <trkpt lat="48.82715" lon="2.43805">
        <ele>56</ele>
        <time>2014-05-15T11:18:46Z</time>
      </trkpt>
      <trkpt lat="48.82716" lon="2.43807">
        <ele>57</ele>
        <time>2014-05-15T11:18:47Z</time>
      </trkpt>
      <trkpt lat="48.82717" lon="2.43808">
        <ele>56</ele>
        <time>2014-05-15T11:18:48Z</time>
      </trkpt>
      <trkpt lat="48.82717" lon="2.4381">
        <ele>56</ele>
        <time>2014-05-15T11:18:49Z</time>
      </trkpt>
      <trkpt lat="48.82718" lon="2.43811">
        <ele>57</ele>
        <time>2014-05-15T11:18:50Z</time>
      </trkpt>
      <trkpt lat="48.82718" lon="2.43813">
        <ele>56</ele>
        <time>2014-05-15T11:18:51Z</time>
      </trkpt>
      <trkpt lat="48.82719" lon="2.43815">
        <ele>56</ele>
        <time>2014-05-15T11:18:52Z</time>
      </trkpt>
      <trkpt lat="48.82719" lon="2.43816">
        <ele>54</ele>
        <time>2014-05-15T11:18:53Z</time>
      </trkpt>
      <trkpt lat="48.8272" lon="2.43818">
        <ele>53</ele>
        <time>2014-05-15T11:18:54Z</time>
      </trkpt>
      <trkpt lat="48.8272" lon="2.4382">
        <ele>53</ele>
        <time>2014-05-15T11:18:55Z</time>
      </trkpt>
      <trkpt lat="48.82721" lon="2.43821">
        <ele>54</ele>
        <time>2014-05-15T11:18:56Z</time>
      </trkpt>
      <trkpt lat="48.82722" lon="2.43823">
        <ele>55</ele>
        <time>2014-05-15T11:18:57Z</time>
      </trkpt>
      <trkpt lat="48.82723" lon="2.43825">
        <ele>54</ele>
        <time>2014-05-15T11:18:58Z</time>
      </trkpt>
      <trkpt lat="48.82723" lon="2.43827">
        <ele>54</ele>
        <time>2014-05-15T11:18:59Z</time>
      </trkpt>
      <trkpt lat="48.82724" lon="2.43829">
        <ele>54</ele>
        <time>2014-05-15T11:19:00Z</time>
      </trkpt>
      <trkpt lat="48.82725" lon="2.4383">
        <ele>55</ele>
        <time>2014-05-15T11:19:01Z</time>
      </trkpt>
      <trkpt lat="48.82726" lon="2.43832">
        <ele>55</ele>
        <time>2014-05-15T11:19:02Z</time>
      </trkpt>
      <trkpt lat="48.82726" lon="2.43833">
        <ele>54</ele>
        <time>2014-05-15T11:19:03Z</time>
      </trkpt>
      <trkpt lat="48.82727" lon="2.43835">
        <ele>54</ele>
        <time>2014-05-15T11:19:04Z</time>
      </trkpt>
      <trkpt lat="48.82728" lon="2.43837">
        <ele>53</ele>
        <time>2014-05-15T11:19:05Z</time>
      </trkpt>
      <trkpt lat="48.82728" lon="2.43839">
        <ele>53</ele>
        <time>2014-05-15T11:19:06Z</time>
      </trkpt>
      <trkpt lat="48.82728" lon="2.43841">
        <ele>52</ele>
        <time>2014-05-15T11:19:07Z</time>
      </trkpt>
      <trkpt lat="48.82728" lon="2.43843">
        <ele>52</ele>
        <time>2014-05-15T11:19:08Z</time>
      </trkpt>
      <trkpt lat="48.82728" lon="2.43845">
        <ele>52</ele>
        <time>2014-05-15T11:19:09Z</time>
      </trkpt>
      <trkpt lat="48.82729" lon="2.43847">
        <ele>53</ele>
        <time>2014-05-15T11:19:10Z</time>
      </trkpt>
      <trkpt lat="48.82729" lon="2.43848">
        <ele>52</ele>
        <time>2014-05-15T11:19:11Z</time>
      </trkpt>
      <trkpt lat="48.8273" lon="2.4385">
        <ele>53</ele>
        <time>2014-05-15T11:19:12Z</time>
      </trkpt>
      <trkpt lat="48.8273" lon="2.43852">
        <ele>53</ele>
        <time>2014-05-15T11:19:13Z</time>
      </trkpt>
      <trkpt lat="48.82731" lon="2.43854">
        <ele>53</ele>
        <time>2014-05-15T11:19:14Z</time>
      </trkpt>
      <trkpt lat="48.82731" lon="2.43855">
        <ele>53</ele>
        <time>2014-05-15T11:19:15Z</time>
      </trkpt>
      <trkpt lat="48.82732" lon="2.43857">
        <ele>54</ele>
        <time>2014-05-15T11:19:16Z</time>
      </trkpt>
      <trkpt lat="48.82732" lon="2.43859">
        <ele>54</ele>
        <time>2014-05-15T11:19:17Z</time>
      </trkpt>
      <trkpt lat="48.82733" lon="2.43861">
        <ele>56</ele>
        <time>2014-05-15T11:19:18Z</time>
      </trkpt>
      <trkpt lat="48.82734" lon="2.43863">
        <ele>54</ele>
        <time>2014-05-15T11:19:19Z</time>
      </trkpt>
      <trkpt lat="48.82735" lon="2.43864">
        <ele>54</ele>
        <time>2014-05-15T11:19:20Z</time>
      </trkpt>
      <trkpt lat="48.82736" lon="2.43866">
        <ele>53</ele>
        <time>2014-05-15T11:19:21Z</time>
      </trkpt>
      <trkpt lat="48.82737" lon="2.43867">
        <ele>52</ele>
        <time>2014-05-15T11:19:22Z</time>
      </trkpt>
      <trkpt lat="48.82737" lon="2.43869">
        <ele>53</ele>
        <time>2014-05-15T11:19:23Z</time>
      </trkpt>
      <trkpt lat="48.82737" lon="2.43871">
        <ele>53</ele>
        <time>2014-05-15T11:19:24Z</time>
      </trkpt>
      <trkpt lat="48.82736" lon="2.43874">
        <ele>52</ele>
        <time>2014-05-15T11:19:25Z</time>
      </trkpt>
      <trkpt lat="48.82737" lon="2.43876">
        <ele>52</ele>
        <time>2014-05-15T11:19:26Z</time>
      </trkpt>
      <trkpt lat="48.82737" lon="2.43878">
        <ele>52</ele>
        <time>2014-05-15T11:19:27Z</time>
      </trkpt>
      <trkpt lat="48.82738" lon="2.43879">
        <ele>53</ele>
        <time>2014-05-15T11:19:28Z</time>
      </trkpt>
      <trkpt lat="48.82738" lon="2.43881">
        <ele>53</ele>
        <time>2014-05-15T11:19:29Z</time>
      </trkpt>
      <trkpt lat="48.82739" lon="2.43883">
        <ele>54</ele>
        <time>2014-05-15T11:19:30Z</time>
      </trkpt>
      <trkpt lat="48.8274" lon="2.43885">
        <ele>53</ele>
        <time>2014-05-15T11:19:31Z</time>
      </trkpt>
      <trkpt lat="48.8274" lon="2.43887">
        <ele>53</ele>
        <time>2014-05-15T11:19:32Z</time>
      </trkpt>
      <trkpt lat="48.82741" lon="2.43889">
        <ele>53</ele>
        <time>2014-05-15T11:19:33Z</time>
      </trkpt>
      <trkpt lat="48.82741" lon="2.4389">
        <ele>54</ele>
        <time>2014-05-15T11:19:34Z</time>
      </trkpt>
      <trkpt lat="48.82742" lon="2.43892">
        <ele>55</ele>
        <time>2014-05-15T11:19:35Z</time>
      </trkpt>
      <trkpt lat="48.82743" lon="2.43894">
        <ele>55</ele>
        <time>2014-05-15T11:19:36Z</time>
      </trkpt>
      <trkpt lat="48.82744" lon="2.43895">
        <ele>55</ele>
        <time>2014-05-15T11:19:37Z</time>
      </trkpt>
      <trkpt lat="48.82745" lon="2.43897">
        <ele>55</ele>
        <time>2014-05-15T11:19:38Z</time>
      </trkpt>
      <trkpt lat="48.82746" lon="2.43899">
        <ele>55</ele>
        <time>2014-05-15T11:19:39Z</time>
      </trkpt>
      <trkpt lat="48.82747" lon="2.439">
        <ele>55</ele>
        <time>2014-05-15T11:19:40Z</time>
      </trkpt>
      <trkpt lat="48.82747" lon="2.43902">
        <ele>55</ele>
        <time>2014-05-15T11:19:41Z</time>
      </trkpt>
      <trkpt lat="48.82747" lon="2.43904">
        <ele>55</ele>
        <time>2014-05-15T11:19:42Z</time>
      </trkpt>
      <trkpt lat="48.82747" lon="2.43906">
        <ele>56</ele>
        <time>2014-05-15T11:19:43Z</time>
      </trkpt>
      <trkpt lat="48.82747" lon="2.43908">
        <ele>56</ele>
        <time>2014-05-15T11:19:44Z</time>
      </trkpt>
      <trkpt lat="48.82747" lon="2.4391">
        <ele>56</ele>
        <time>2014-05-15T11:19:45Z</time>
      </trkpt>
      <trkpt lat="48.82748" lon="2.43912">
        <ele>56</ele>
        <time>2014-05-15T11:19:46Z</time>
      </trkpt>
      <trkpt lat="48.82749" lon="2.43913">
        <ele>57</ele>
        <time>2014-05-15T11:19:47Z</time>
      </trkpt>
      <trkpt lat="48.8275" lon="2.43915">
        <ele>58</ele>
        <time>2014-05-15T11:19:48Z</time>
      </trkpt>
      <trkpt lat="48.82751" lon="2.43916">
        <ele>58</ele>
        <time>2014-05-15T11:19:49Z</time>
      </trkpt>
      <trkpt lat="48.82752" lon="2.43918">
        <ele>58</ele>
        <time>2014-05-15T11:19:50Z</time>
      </trkpt>
      <trkpt lat="48.82754" lon="2.4392">
        <ele>57</ele>
        <time>2014-05-15T11:19:51Z</time>
      </trkpt>
      <trkpt lat="48.82755" lon="2.43921">
        <ele>57</ele>
        <time>2014-05-15T11:19:52Z</time>
      </trkpt>
      <trkpt lat="48.82756" lon="2.43923">
        <ele>55</ele>
        <time>2014-05-15T11:19:53Z</time>
      </trkpt>
      <trkpt lat="48.82757" lon="2.43924">
        <ele>55</ele>
        <time>2014-05-15T11:19:54Z</time>
      </trkpt>
      <trkpt lat="48.82758" lon="2.43926">
        <ele>56</ele>
        <time>2014-05-15T11:19:55Z</time>
      </trkpt>
      <trkpt lat="48.82758" lon="2.43928">
        <ele>57</ele>
        <time>2014-05-15T11:19:56Z</time>
      </trkpt>
      <trkpt lat="48.82758" lon="2.43929">
        <ele>57</ele>
        <time>2014-05-15T11:19:57Z</time>
      </trkpt>
      <trkpt lat="48.82759" lon="2.43931">
        <ele>56</ele>
        <time>2014-05-15T11:19:58Z</time>
      </trkpt>
      <trkpt lat="48.82759" lon="2.43933">
        <ele>56</ele>
        <time>2014-05-15T11:19:59Z</time>
      </trkpt>
      <trkpt lat="48.8276" lon="2.43935">
        <ele>56</ele>
        <time>2014-05-15T11:20:00Z</time>
      </trkpt>
      <trkpt lat="48.8276" lon="2.43937">
        <ele>56</ele>
        <time>2014-05-15T11:20:01Z</time>
      </trkpt>
      <trkpt lat="48.82761" lon="2.43939">
        <ele>53</ele>
        <time>2014-05-15T11:20:02Z</time>
      </trkpt>
      <trkpt lat="48.82761" lon="2.43941">
        <ele>50</ele>
        <time>2014-05-15T11:20:03Z</time>
      </trkpt>
      <trkpt lat="48.82761" lon="2.43943">
        <ele>50</ele>
        <time>2014-05-15T11:20:04Z</time>
      </trkpt>
      <trkpt lat="48.82762" lon="2.43945">
        <ele>51</ele>
        <time>2014-05-15T11:20:05Z</time>
      </trkpt>
      <trkpt lat="48.82762" lon="2.43946">
        <ele>50</ele>
        <time>2014-05-15T11:20:06Z</time>
      </trkpt>
      <trkpt lat="48.82763" lon="2.43948">
        <ele>50</ele>
        <time>2014-05-15T11:20:07Z</time>
      </trkpt>
      <trkpt lat="48.82763" lon="2.43949">
        <ele>51</ele>
        <time>2014-05-15T11:20:08Z</time>
      </trkpt>
      <trkpt lat="48.82763" lon="2.43951">
        <ele>51</ele>
        <time>2014-05-15T11:20:09Z</time>
      </trkpt>
      <trkpt lat="48.82763" lon="2.43953">
        <ele>51</ele>
        <time>2014-05-15T11:20:10Z</time>
      </trkpt>
      <trkpt lat="48.82763" lon="2.43955">
        <ele>51</ele>
        <time>2014-05-15T11:20:11Z</time>
      </trkpt>
      <trkpt lat="48.82764" lon="2.43957">
        <ele>51</ele>
        <time>2014-05-15T11:20:12Z</time>
      </trkpt>
      <trkpt lat="48.82764" lon="2.43958">
        <ele>52</ele>
        <time>2014-05-15T11:20:13Z</time>
      </trkpt>
      <trkpt lat="48.82765" lon="2.4396">
        <ele>52</ele>
        <time>2014-05-15T11:20:14Z</time>
      </trkpt>
      <trkpt lat="48.82765" lon="2.43961">
        <ele>52</ele>
        <time>2014-05-15T11:20:15Z</time>
      </trkpt>
      <trkpt lat="48.82766" lon="2.43963">
        <ele>51</ele>
        <time>2014-05-15T11:20:16Z</time>
      </trkpt>
      <trkpt lat="48.82767" lon="2.43964">
        <ele>51</ele>
        <time>2014-05-15T11:20:17Z</time>
      </trkpt>
      <trkpt lat="48.82768" lon="2.43966">
        <ele>51</ele>
        <time>2014-05-15T11:20:18Z</time>
      </trkpt>
      <trkpt lat="48.82769" lon="2.43968">
        <ele>51</ele>
        <time>2014-05-15T11:20:19Z</time>
      </trkpt>
      <trkpt lat="48.8277" lon="2.4397">
        <ele>51</ele>
        <time>2014-05-15T11:20:20Z</time>
      </trkpt>
      <trkpt lat="48.82771" lon="2.43971">
        <ele>50</ele>
        <time>2014-05-15T11:20:21Z</time>
      </trkpt>
      <trkpt lat="48.82772" lon="2.43973">
        <ele>51</ele>
        <time>2014-05-15T11:20:22Z</time>
      </trkpt>
      <trkpt lat="48.82773" lon="2.43975">
        <ele>51</ele>
        <time>2014-05-15T11:20:23Z</time>
      </trkpt>
      <trkpt lat="48.82774" lon="2.43977">
        <ele>47</ele>
        <time>2014-05-15T11:20:24Z</time>
      </trkpt>
      <trkpt lat="48.82773" lon="2.43979">
        <ele>46</ele>
        <time>2014-05-15T11:20:25Z</time>
      </trkpt>
      <trkpt lat="48.82773" lon="2.43982">
        <ele>45</ele>
        <time>2014-05-15T11:20:26Z</time>
      </trkpt>
      <trkpt lat="48.82772" lon="2.43984">
        <ele>45</ele>
        <time>2014-05-15T11:20:27Z</time>
      </trkpt>
      <trkpt lat="48.82771" lon="2.43986">
        <ele>46</ele>
        <time>2014-05-15T11:20:28Z</time>
      </trkpt>
      <trkpt lat="48.82771" lon="2.43988">
        <ele>47</ele>
        <time>2014-05-15T11:20:29Z</time>
      </trkpt>
      <trkpt lat="48.82771" lon="2.4399">
        <ele>47</ele>
        <time>2014-05-15T11:20:30Z</time>
      </trkpt>
      <trkpt lat="48.82772" lon="2.43992">
        <ele>48</ele>
        <time>2014-05-15T11:20:31Z</time>
      </trkpt>
      <trkpt lat="48.82773" lon="2.43993">
        <ele>48</ele>
        <time>2014-05-15T11:20:32Z</time>
      </trkpt>
      <trkpt lat="48.82774" lon="2.43995">
        <ele>47</ele>
        <time>2014-05-15T11:20:33Z</time>
      </trkpt>
      <trkpt lat="48.82775" lon="2.43996">
        <ele>47</ele>
        <time>2014-05-15T11:20:34Z</time>
      </trkpt>
      <trkpt lat="48.82775" lon="2.43998">
        <ele>47</ele>
        <time>2014-05-15T11:20:35Z</time>
      </trkpt>
      <trkpt lat="48.82776" lon="2.43999">
        <ele>50</ele>
        <time>2014-05-15T11:20:36Z</time>
      </trkpt>
      <trkpt lat="48.82777" lon="2.44">
        <ele>49</ele>
        <time>2014-05-15T11:20:37Z</time>
      </trkpt>
      <trkpt lat="48.82778" lon="2.44001">
        <ele>49</ele>
        <time>2014-05-15T11:20:38Z</time>
      </trkpt>
      <trkpt lat="48.82778" lon="2.44001">
        <ele>47</ele>
        <time>2014-05-15T11:20:39Z</time>
      </trkpt>
      <trkpt lat="48.82779" lon="2.44">
        <ele>46</ele>
        <time>2014-05-15T11:20:40Z</time>
      </trkpt>
      <trkpt lat="48.82779" lon="2.43999">
        <ele>48</ele>
        <time>2014-05-15T11:20:41Z</time>
      </trkpt>
      <trkpt lat="48.8278" lon="2.43997">
        <ele>49</ele>
        <time>2014-05-15T11:20:42Z</time>
      </trkpt>
      <trkpt lat="48.82781" lon="2.43996">
        <ele>50</ele>
        <time>2014-05-15T11:20:43Z</time>
      </trkpt>
      <trkpt lat="48.82783" lon="2.43995">
        <ele>50</ele>
        <time>2014-05-15T11:20:44Z</time>
      </trkpt>
      <trkpt lat="48.82784" lon="2.43994">
        <ele>49</ele>
        <time>2014-05-15T11:20:45Z</time>
      </trkpt>
      <trkpt lat="48.82786" lon="2.43993">
        <ele>50</ele>
        <time>2014-05-15T11:20:46Z</time>
      </trkpt>
      <trkpt lat="48.82787" lon="2.43992">
        <ele>49</ele>
        <time>2014-05-15T11:20:47Z</time>
      </trkpt>
      <trkpt lat="48.82789" lon="2.43992">
        <ele>50</ele>
        <time>2014-05-15T11:20:48Z</time>
      </trkpt>
      <trkpt lat="48.8279" lon="2.43991">
        <ele>50</ele>
        <time>2014-05-15T11:20:49Z</time>
      </trkpt>
      <trkpt lat="48.82791" lon="2.4399">
        <ele>51</ele>
        <time>2014-05-15T11:20:50Z</time>
      </trkpt>
      <trkpt lat="48.82792" lon="2.43988">
        <ele>52</ele>
        <time>2014-05-15T11:20:51Z</time>
      </trkpt>
      <trkpt lat="48.82793" lon="2.43987">
        <ele>52</ele>
        <time>2014-05-15T11:20:52Z</time>
      </trkpt>
      <trkpt lat="48.82795" lon="2.43986">
        <ele>52</ele>
        <time>2014-05-15T11:20:53Z</time>
      </trkpt>
      <trkpt lat="48.82796" lon="2.43985">
        <ele>52</ele>
        <time>2014-05-15T11:20:54Z</time>
      </trkpt>
      <trkpt lat="48.82797" lon="2.43984">
        <ele>53</ele>
        <time>2014-05-15T11:20:55Z</time>
      </trkpt>
      <trkpt lat="48.82798" lon="2.43982">
        <ele>54</ele>
        <time>2014-05-15T11:20:56Z</time>
      </trkpt>
      <trkpt lat="48.82799" lon="2.43981">
        <ele>54</ele>
        <time>2014-05-15T11:20:57Z</time>
      </trkpt>
      <trkpt lat="48.82799" lon="2.43979">
        <ele>54</ele>
        <time>2014-05-15T11:20:58Z</time>
      </trkpt>
      <trkpt lat="48.828" lon="2.43977">
        <ele>55</ele>
        <time>2014-05-15T11:20:59Z</time>
      </trkpt>
      <trkpt lat="48.82799" lon="2.43975">
        <ele>53</ele>
        <time>2014-05-15T11:21:00Z</time>
      </trkpt>
      <trkpt lat="48.82799" lon="2.43973">
        <ele>53</ele>
        <time>2014-05-15T11:21:01Z</time>
      </trkpt>
      <trkpt lat="48.82799" lon="2.4397">
        <ele>54</ele>
        <time>2014-05-15T11:21:02Z</time>
      </trkpt>
      <trkpt lat="48.82798" lon="2.43968">
        <ele>52</ele>
        <time>2014-05-15T11:21:03Z</time>
      </trkpt>
      <trkpt lat="48.82798" lon="2.43966">
        <ele>52</ele>
        <time>2014-05-15T11:21:04Z</time>
      </trkpt>
      <trkpt lat="48.82798" lon="2.43964">
        <ele>53</ele>
        <time>2014-05-15T11:21:05Z</time>
      </trkpt>
      <trkpt lat="48.82798" lon="2.43962">
        <ele>53</ele>
        <time>2014-05-15T11:21:06Z</time>
      </trkpt>
      <trkpt lat="48.82797" lon="2.4396">
        <ele>53</ele>
        <time>2014-05-15T11:21:07Z</time>
      </trkpt>
      <trkpt lat="48.82797" lon="2.43958">
        <ele>53</ele>
        <time>2014-05-15T11:21:08Z</time>
      </trkpt>
      <trkpt lat="48.82797" lon="2.43956">
        <ele>54</ele>
        <time>2014-05-15T11:21:09Z</time>
      </trkpt>
      <trkpt lat="48.82796" lon="2.43953">
        <ele>52</ele>
        <time>2014-05-15T11:21:10Z</time>
      </trkpt>
      <trkpt lat="48.82796" lon="2.43951">
        <ele>50</ele>
        <time>2014-05-15T11:21:11Z</time>
      </trkpt>
      <trkpt lat="48.82796" lon="2.43949">
        <ele>51</ele>
        <time>2014-05-15T11:21:12Z</time>
      </trkpt>
      <trkpt lat="48.82796" lon="2.43947">
        <ele>51</ele>
        <time>2014-05-15T11:21:13Z</time>
      </trkpt>
      <trkpt lat="48.82796" lon="2.43945">
        <ele>51</ele>
        <time>2014-05-15T11:21:14Z</time>
      </trkpt>
      <trkpt lat="48.82796" lon="2.43943">
        <ele>50</ele>
        <time>2014-05-15T11:21:15Z</time>
      </trkpt>
      <trkpt lat="48.82796" lon="2.43941">
        <ele>50</ele>
        <time>2014-05-15T11:21:16Z</time>
      </trkpt>
      <trkpt lat="48.82796" lon="2.4394">
        <ele>49</ele>
        <time>2014-05-15T11:21:17Z</time>
      </trkpt>
      <trkpt lat="48.82797" lon="2.43938">
        <ele>49</ele>
        <time>2014-05-15T11:21:18Z</time>
      </trkpt>
      <trkpt lat="48.82797" lon="2.43936">
        <ele>49</ele>
        <time>2014-05-15T11:21:19Z</time>
      </trkpt>
      <trkpt lat="48.82797" lon="2.43934">
        <ele>47</ele>
        <time>2014-05-15T11:21:20Z</time>
      </trkpt>
      <trkpt lat="48.82798" lon="2.43933">
        <ele>48</ele>
        <time>2014-05-15T11:21:21Z</time>
      </trkpt>
      <trkpt lat="48.82799" lon="2.43931">
        <ele>47</ele>
        <time>2014-05-15T11:21:22Z</time>
      </trkpt>
      <trkpt lat="48.828" lon="2.4393">
        <ele>46</ele>
        <time>2014-05-15T11:21:23Z</time>
      </trkpt>
      <trkpt lat="48.82801" lon="2.43929">
        <ele>47</ele>
        <time>2014-05-15T11:21:24Z</time>
      </trkpt>
      <trkpt lat="48.82802" lon="2.43929">
        <ele>48</ele>
        <time>2014-05-15T11:21:25Z</time>
      </trkpt>
      <trkpt lat="48.82802" lon="2.43929">
        <ele>46</ele>
        <time>2014-05-15T11:21:26Z</time>
      </trkpt>
      <trkpt lat="48.82803" lon="2.43929">
        <ele>46</ele>
        <time>2014-05-15T11:21:27Z</time>
      </trkpt>
      <trkpt lat="48.82803" lon="2.43928">
        <ele>47</ele>
        <time>2014-05-15T11:21:28Z</time>
      </trkpt>
      <trkpt lat="48.82804" lon="2.43927">
        <ele>48</ele>
        <time>2014-05-15T11:21:29Z</time>
      </trkpt>
      <trkpt lat="48.82804" lon="2.43927">
        <ele>47</ele>
        <time>2014-05-15T11:21:30Z</time>
      </trkpt>
      <trkpt lat="48.82805" lon="2.43926">
        <ele>48</ele>
        <time>2014-05-15T11:21:31Z</time>
      </trkpt>
      <trkpt lat="48.82805" lon="2.43926">
        <ele>46</ele>
        <time>2014-05-15T11:21:32Z</time>
      </trkpt>
      <trkpt lat="48.82806" lon="2.43925">
        <ele>45</ele>
        <time>2014-05-15T11:21:33Z</time>
      </trkpt>
      <trkpt lat="48.82806" lon="2.43925">
        <ele>44</ele>
        <time>2014-05-15T11:21:34Z</time>
      </trkpt>
      <trkpt lat="48.82807" lon="2.43924">
        <ele>45</ele>
        <time>2014-05-15T11:21:35Z</time>
      </trkpt>
      <trkpt lat="48.82808" lon="2.43923">
        <ele>43</ele>
        <time>2014-05-15T11:21:36Z</time>
      </trkpt>
      <trkpt lat="48.82808" lon="2.43923">
        <ele>43</ele>
        <time>2014-05-15T11:21:37Z</time>
      </trkpt>
      <trkpt lat="48.82809" lon="2.43922">
        <ele>42</ele>
        <time>2014-05-15T11:21:38Z</time>
      </trkpt>
      <trkpt lat="48.8281" lon="2.43922">
        <ele>41</ele>
        <time>2014-05-15T11:21:39Z</time>
      </trkpt>
      <trkpt lat="48.82811" lon="2.43921">
        <ele>41</ele>
        <time>2014-05-15T11:21:40Z</time>
      </trkpt>
      <trkpt lat="48.82812" lon="2.43922">
        <ele>41</ele>
        <time>2014-05-15T11:21:41Z</time>
      </trkpt>
      <trkpt lat="48.82814" lon="2.43922">
        <ele>42</ele>
        <time>2014-05-15T11:21:42Z</time>
      </trkpt>
      <trkpt lat="48.82815" lon="2.43923">
        <ele>44</ele>
        <time>2014-05-15T11:21:43Z</time>
      </trkpt>
      <trkpt lat="48.82817" lon="2.43923">
        <ele>46</ele>
        <time>2014-05-15T11:21:44Z</time>
      </trkpt>
      <trkpt lat="48.82817" lon="2.43924">
        <ele>47</ele>
        <time>2014-05-15T11:21:45Z</time>
      </trkpt>
      <trkpt lat="48.82818" lon="2.43924">
        <ele>47</ele>
        <time>2014-05-15T11:21:46Z</time>
      </trkpt>
      <trkpt lat="48.82819" lon="2.43924">
        <ele>49</ele>
        <time>2014-05-15T11:21:47Z</time>
      </trkpt>
      <trkpt lat="48.8282" lon="2.43923">
        <ele>48</ele>
        <time>2014-05-15T11:21:48Z</time>
      </trkpt>
      <trkpt lat="48.8282" lon="2.43923">
        <ele>47</ele>
        <time>2014-05-15T11:21:49Z</time>
      </trkpt>
      <trkpt lat="48.82821" lon="2.43922">
        <ele>48</ele>
        <time>2014-05-15T11:21:50Z</time>
      </trkpt>
      <trkpt lat="48.82823" lon="2.43922">
        <ele>48</ele>
        <time>2014-05-15T11:21:51Z</time>
      </trkpt>
      <trkpt lat="48.82824" lon="2.43922">
        <ele>48</ele>
        <time>2014-05-15T11:21:52Z</time>
      </trkpt>
      <trkpt lat="48.82826" lon="2.43922">
        <ele>48</ele>
        <time>2014-05-15T11:21:53Z</time>
      </trkpt>
      <trkpt lat="48.82827" lon="2.43921">
        <ele>49</ele>
        <time>2014-05-15T11:21:54Z</time>
      </trkpt>
      <trkpt lat="48.82828" lon="2.43921">
        <ele>48</ele>
        <time>2014-05-15T11:21:55Z</time>
      </trkpt>
      <trkpt lat="48.82829" lon="2.43919">
        <ele>49</ele>
        <time>2014-05-15T11:21:56Z</time>
      </trkpt>
      <trkpt lat="48.8283" lon="2.43918">
        <ele>50</ele>
        <time>2014-05-15T11:21:57Z</time>
      </trkpt>
      <trkpt lat="48.82832" lon="2.43917">
        <ele>51</ele>
        <time>2014-05-15T11:21:58Z</time>
      </trkpt>
      <trkpt lat="48.82833" lon="2.43915">
        <ele>49</ele>
        <time>2014-05-15T11:21:59Z</time>
      </trkpt>
      <trkpt lat="48.82834" lon="2.43914">
        <ele>52</ele>
        <time>2014-05-15T11:22:00Z</time>
      </trkpt>
      <trkpt lat="48.82836" lon="2.43912">
        <ele>50</ele>
        <time>2014-05-15T11:22:01Z</time>
      </trkpt>
      <trkpt lat="48.82837" lon="2.43911">
        <ele>49</ele>
        <time>2014-05-15T11:22:02Z</time>
      </trkpt>
      <trkpt lat="48.82838" lon="2.43909">
        <ele>48</ele>
        <time>2014-05-15T11:22:03Z</time>
      </trkpt>
      <trkpt lat="48.82839" lon="2.43908">
        <ele>47</ele>
        <time>2014-05-15T11:22:04Z</time>
      </trkpt>
      <trkpt lat="48.82841" lon="2.43906">
        <ele>49</ele>
        <time>2014-05-15T11:22:05Z</time>
      </trkpt>
      <trkpt lat="48.82842" lon="2.43904">
        <ele>48</ele>
        <time>2014-05-15T11:22:06Z</time>
      </trkpt>
      <trkpt lat="48.82843" lon="2.43902">
        <ele>47</ele>
        <time>2014-05-15T11:22:07Z</time>
      </trkpt>
      <trkpt lat="48.82844" lon="2.439">
        <ele>48</ele>
        <time>2014-05-15T11:22:08Z</time>
      </trkpt>
      <trkpt lat="48.82845" lon="2.43898">
        <ele>51</ele>
        <time>2014-05-15T11:22:09Z</time>
      </trkpt>
      <trkpt lat="48.82845" lon="2.43897">
        <ele>52</ele>
        <time>2014-05-15T11:22:10Z</time>
      </trkpt>
      <trkpt lat="48.82846" lon="2.43895">
        <ele>52</ele>
        <time>2014-05-15T11:22:11Z</time>
      </trkpt>
      <trkpt lat="48.82847" lon="2.43894">
        <ele>52</ele>
        <time>2014-05-15T11:22:12Z</time>
      </trkpt>
      <trkpt lat="48.82848" lon="2.43893">
        <ele>53</ele>
        <time>2014-05-15T11:22:13Z</time>
      </trkpt>
      <trkpt lat="48.8285" lon="2.43893">
        <ele>51</ele>
        <time>2014-05-15T11:22:14Z</time>
      </trkpt>
      <trkpt lat="48.82851" lon="2.43893">
        <ele>51</ele>
        <time>2014-05-15T11:22:15Z</time>
      </trkpt>
      <trkpt lat="48.82853" lon="2.43893">
        <ele>52</ele>
        <time>2014-05-15T11:22:16Z</time>
      </trkpt>
      <trkpt lat="48.82854" lon="2.43893">
        <ele>54</ele>
        <time>2014-05-15T11:22:17Z</time>
      </trkpt>
      <trkpt lat="48.82855" lon="2.43892">
        <ele>54</ele>
        <time>2014-05-15T11:22:18Z</time>
      </trkpt>
      <trkpt lat="48.82856" lon="2.43892">
        <ele>55</ele>
        <time>2014-05-15T11:22:19Z</time>
      </trkpt>
      <trkpt lat="48.82857" lon="2.43891">
        <ele>55</ele>
        <time>2014-05-15T11:22:20Z</time>
      </trkpt>
      <trkpt lat="48.82858" lon="2.4389">
        <ele>56</ele>
        <time>2014-05-15T11:22:21Z</time>
      </trkpt>
      <trkpt lat="48.82859" lon="2.43888">
        <ele>53</ele>
        <time>2014-05-15T11:22:22Z</time>
      </trkpt>
      <trkpt lat="48.8286" lon="2.43887">
        <ele>54</ele>
        <time>2014-05-15T11:22:23Z</time>
      </trkpt>
      <trkpt lat="48.82861" lon="2.43886">
        <ele>52</ele>
        <time>2014-05-15T11:22:24Z</time>
      </trkpt>
      <trkpt lat="48.82861" lon="2.43885">
        <ele>52</ele>
        <time>2014-05-15T11:22:25Z</time>
      </trkpt>
      <trkpt lat="48.82861" lon="2.43883">
        <ele>50</ele>
        <time>2014-05-15T11:22:26Z</time>
      </trkpt>
      <trkpt lat="48.82862" lon="2.43881">
        <ele>50</ele>
        <time>2014-05-15T11:22:27Z</time>
      </trkpt>
      <trkpt lat="48.82862" lon="2.4388">
        <ele>53</ele>
        <time>2014-05-15T11:22:28Z</time>
      </trkpt>
      <trkpt lat="48.82863" lon="2.43878">
        <ele>54</ele>
        <time>2014-05-15T11:22:29Z</time>
      </trkpt>
      <trkpt lat="48.82864" lon="2.43876">
        <ele>55</ele>
        <time>2014-05-15T11:22:30Z</time>
      </trkpt>
      <trkpt lat="48.82865" lon="2.43875">
        <ele>53</ele>
        <time>2014-05-15T11:22:31Z</time>
      </trkpt>
      <trkpt lat="48.82866" lon="2.43873">
        <ele>52</ele>
        <time>2014-05-15T11:22:32Z</time>
      </trkpt>
      <trkpt lat="48.82867" lon="2.43871">
        <ele>53</ele>
        <time>2014-05-15T11:22:33Z</time>
      </trkpt>
      <trkpt lat="48.82868" lon="2.43869">
        <ele>54</ele>
        <time>2014-05-15T11:22:34Z</time>
      </trkpt>
      <trkpt lat="48.82869" lon="2.43867">
        <ele>54</ele>
        <time>2014-05-15T11:22:35Z</time>
      </trkpt>
      <trkpt lat="48.8287" lon="2.43865">
        <ele>54</ele>
        <time>2014-05-15T11:22:36Z</time>
      </trkpt>
      <trkpt lat="48.82871" lon="2.43863">
        <ele>55</ele>
        <time>2014-05-15T11:22:37Z</time>
      </trkpt>
      <trkpt lat="48.82872" lon="2.43861">
        <ele>55</ele>
        <time>2014-05-15T11:22:38Z</time>
      </trkpt>
      <trkpt lat="48.82873" lon="2.43861">
        <ele>54</ele>
        <time>2014-05-15T11:22:39Z</time>
      </trkpt>
      <trkpt lat="48.82874" lon="2.4386">
        <ele>54</ele>
        <time>2014-05-15T11:22:40Z</time>
      </trkpt>
      <trkpt lat="48.82876" lon="2.4386">
        <ele>55</ele>
        <time>2014-05-15T11:22:41Z</time>
      </trkpt>
      <trkpt lat="48.82877" lon="2.43859">
        <ele>54</ele>
        <time>2014-05-15T11:22:42Z</time>
      </trkpt>
      <trkpt lat="48.82878" lon="2.43859">
        <ele>53</ele>
        <time>2014-05-15T11:22:43Z</time>
      </trkpt>
      <trkpt lat="48.82878" lon="2.43859">
        <ele>52</ele>
        <time>2014-05-15T11:22:44Z</time>
      </trkpt>
      <trkpt lat="48.82879" lon="2.43859">
        <ele>51</ele>
        <time>2014-05-15T11:22:45Z</time>
      </trkpt>
      <trkpt lat="48.8288" lon="2.43858">
        <ele>52</ele>
        <time>2014-05-15T11:22:46Z</time>
      </trkpt>
      <trkpt lat="48.8288" lon="2.43858">
        <ele>53</ele>
        <time>2014-05-15T11:22:47Z</time>
      </trkpt>
      <trkpt lat="48.82881" lon="2.43857">
        <ele>54</ele>
        <time>2014-05-15T11:22:48Z</time>
      </trkpt>
      <trkpt lat="48.82882" lon="2.43856">
        <ele>53</ele>
        <time>2014-05-15T11:22:49Z</time>
      </trkpt>
      <trkpt lat="48.82883" lon="2.43855">
        <ele>53</ele>
        <time>2014-05-15T11:22:50Z</time>
      </trkpt>
      <trkpt lat="48.82884" lon="2.43854">
        <ele>52</ele>
        <time>2014-05-15T11:22:51Z</time>
      </trkpt>
      <trkpt lat="48.82885" lon="2.43853">
        <ele>53</ele>
        <time>2014-05-15T11:22:52Z</time>
      </trkpt>
      <trkpt lat="48.82886" lon="2.43852">
        <ele>53</ele>
        <time>2014-05-15T11:22:53Z</time>
      </trkpt>
      <trkpt lat="48.82888" lon="2.43851">
        <ele>54</ele>
        <time>2014-05-15T11:22:54Z</time>
      </trkpt>
      <trkpt lat="48.82889" lon="2.4385">
        <ele>54</ele>
        <time>2014-05-15T11:22:55Z</time>
      </trkpt>
      <trkpt lat="48.8289" lon="2.43849">
        <ele>54</ele>
        <time>2014-05-15T11:22:56Z</time>
      </trkpt>
      <trkpt lat="48.82892" lon="2.43848">
        <ele>56</ele>
        <time>2014-05-15T11:22:57Z</time>
      </trkpt>
      <trkpt lat="48.82893" lon="2.43847">
        <ele>57</ele>
        <time>2014-05-15T11:22:58Z</time>
      </trkpt>
      <trkpt lat="48.82894" lon="2.43846">
        <ele>57</ele>
        <time>2014-05-15T11:22:59Z</time>
      </trkpt>
      <trkpt lat="48.82895" lon="2.43846">
        <ele>57</ele>
        <time>2014-05-15T11:23:00Z</time>
      </trkpt>
      <trkpt lat="48.82897" lon="2.43846">
        <ele>57</ele>
        <time>2014-05-15T11:23:01Z</time>
      </trkpt>
      <trkpt lat="48.82898" lon="2.43845">
        <ele>56</ele>
        <time>2014-05-15T11:23:02Z</time>
      </trkpt>
      <trkpt lat="48.829" lon="2.43844">
        <ele>56</ele>
        <time>2014-05-15T11:23:03Z</time>
      </trkpt>
      <trkpt lat="48.829" lon="2.43843">
        <ele>55</ele>
        <time>2014-05-15T11:23:04Z</time>
      </trkpt>
      <trkpt lat="48.82901" lon="2.43841">
        <ele>55</ele>
        <time>2014-05-15T11:23:05Z</time>
      </trkpt>
      <trkpt lat="48.82901" lon="2.4384">
        <ele>55</ele>
        <time>2014-05-15T11:23:06Z</time>
      </trkpt>
      <trkpt lat="48.829" lon="2.43839">
        <ele>55</ele>
        <time>2014-05-15T11:23:07Z</time>
      </trkpt>
      <trkpt lat="48.829" lon="2.43839">
        <ele>55</ele>
        <time>2014-05-15T11:23:08Z</time>
      </trkpt>
      <trkpt lat="48.82899" lon="2.43838">
        <ele>56</ele>
        <time>2014-05-15T11:23:09Z</time>
      </trkpt>
      <trkpt lat="48.82899" lon="2.43837">
        <ele>55</ele>
        <time>2014-05-15T11:23:10Z</time>
      </trkpt>
      <trkpt lat="48.82899" lon="2.43837">
        <ele>55</ele>
        <time>2014-05-15T11:23:11Z</time>
      </trkpt>
      <trkpt lat="48.82899" lon="2.43836">
        <ele>56</ele>
        <time>2014-05-15T11:23:12Z</time>
      </trkpt>
      <trkpt lat="48.82899" lon="2.43836">
        <ele>56</ele>
        <time>2014-05-15T11:23:13Z</time>
      </trkpt>
      <trkpt lat="48.82899" lon="2.43835">
        <ele>56</ele>
        <time>2014-05-15T11:23:14Z</time>
      </trkpt>
      <trkpt lat="48.82898" lon="2.43835">
        <ele>57</ele>
        <time>2014-05-15T11:23:15Z</time>
      </trkpt>
      <trkpt lat="48.82898" lon="2.43834">
        <ele>56</ele>
        <time>2014-05-15T11:23:16Z</time>
      </trkpt>
      <trkpt lat="48.82899" lon="2.43833">
        <ele>56</ele>
        <time>2014-05-15T11:23:17Z</time>
      </trkpt>
      <trkpt lat="48.82899" lon="2.43831">
        <ele>57</ele>
        <time>2014-05-15T11:23:18Z</time>
      </trkpt>
      <trkpt lat="48.829" lon="2.4383">
        <ele>57</ele>
        <time>2014-05-15T11:23:19Z</time>
      </trkpt>
      <trkpt lat="48.829" lon="2.43828">
        <ele>58</ele>
        <time>2014-05-15T11:23:20Z</time>
      </trkpt>
      <trkpt lat="48.82901" lon="2.43825">
        <ele>59</ele>
        <time>2014-05-15T11:23:21Z</time>
      </trkpt>
      <trkpt lat="48.82901" lon="2.43822">
        <ele>59</ele>
        <time>2014-05-15T11:23:22Z</time>
      </trkpt>
      <trkpt lat="48.82901" lon="2.43819">
        <ele>58</ele>
        <time>2014-05-15T11:23:23Z</time>
      </trkpt>
      <trkpt lat="48.82901" lon="2.43816">
        <ele>57</ele>
        <time>2014-05-15T11:23:24Z</time>
      </trkpt>
      <trkpt lat="48.82901" lon="2.43813">
        <ele>58</ele>
        <time>2014-05-15T11:23:25Z</time>
      </trkpt>
      <trkpt lat="48.82901" lon="2.43811">
        <ele>59</ele>
        <time>2014-05-15T11:23:26Z</time>
      </trkpt>
      <trkpt lat="48.829" lon="2.43809">
        <ele>59</ele>
        <time>2014-05-15T11:23:27Z</time>
      </trkpt>
      <trkpt lat="48.829" lon="2.43808">
        <ele>58</ele>
        <time>2014-05-15T11:23:28Z</time>
      </trkpt>
      <trkpt lat="48.82899" lon="2.43808">
        <ele>58</ele>
        <time>2014-05-15T11:23:29Z</time>
      </trkpt>
      <trkpt lat="48.82899" lon="2.43807">
        <ele>58</ele>
        <time>2014-05-15T11:23:30Z</time>
      </trkpt>
      <trkpt lat="48.82899" lon="2.43806">
        <ele>56</ele>
        <time>2014-05-15T11:23:31Z</time>
      </trkpt>
      <trkpt lat="48.82898" lon="2.43805">
        <ele>55</ele>
        <time>2014-05-15T11:23:32Z</time>
      </trkpt>
      <trkpt lat="48.82899" lon="2.43804">
        <ele>56</ele>
        <time>2014-05-15T11:23:33Z</time>
      </trkpt>
      <trkpt lat="48.82899" lon="2.43803">
        <ele>54</ele>
        <time>2014-05-15T11:23:34Z</time>
      </trkpt>
      <trkpt lat="48.829" lon="2.43803">
        <ele>53</ele>
        <time>2014-05-15T11:23:35Z</time>
      </trkpt>
      <trkpt lat="48.82901" lon="2.43802">
        <ele>52</ele>
        <time>2014-05-15T11:23:36Z</time>
      </trkpt>
      <trkpt lat="48.82901" lon="2.43801">
        <ele>54</ele>
        <time>2014-05-15T11:23:37Z</time>
      </trkpt>
      <trkpt lat="48.82901" lon="2.43799">
        <ele>54</ele>
        <time>2014-05-15T11:23:38Z</time>
      </trkpt>
      <trkpt lat="48.82902" lon="2.43798">
        <ele>54</ele>
        <time>2014-05-15T11:23:39Z</time>
      </trkpt>
      <trkpt lat="48.82902" lon="2.43798">
        <ele>52</ele>
        <time>2014-05-15T11:23:40Z</time>
      </trkpt>
      <trkpt lat="48.82903" lon="2.43798">
        <ele>52</ele>
        <time>2014-05-15T11:23:41Z</time>
      </trkpt>
      <trkpt lat="48.82904" lon="2.43798">
        <ele>52</ele>
        <time>2014-05-15T11:23:42Z</time>
      </trkpt>
      <trkpt lat="48.82904" lon="2.43797">
        <ele>52</ele>
        <time>2014-05-15T11:23:43Z</time>
      </trkpt>
      <trkpt lat="48.82905" lon="2.43797">
        <ele>54</ele>
        <time>2014-05-15T11:23:44Z</time>
      </trkpt>
      <trkpt lat="48.82906" lon="2.43796">
        <ele>55</ele>
        <time>2014-05-15T11:23:45Z</time>
      </trkpt>
      <trkpt lat="48.82907" lon="2.43795">
        <ele>54</ele>
        <time>2014-05-15T11:23:46Z</time>
      </trkpt>
      <trkpt lat="48.82908" lon="2.43795">
        <ele>53</ele>
        <time>2014-05-15T11:23:47Z</time>
      </trkpt>
      <trkpt lat="48.82908" lon="2.43796">
        <ele>52</ele>
        <time>2014-05-15T11:23:48Z</time>
      </trkpt>
      <trkpt lat="48.82908" lon="2.43795">
        <ele>53</ele>
        <time>2014-05-15T11:23:49Z</time>
      </trkpt>
      <trkpt lat="48.82908" lon="2.43794">
        <ele>54</ele>
        <time>2014-05-15T11:23:50Z</time>
      </trkpt>
      <trkpt lat="48.82908" lon="2.43793">
        <ele>55</ele>
        <time>2014-05-15T11:23:51Z</time>
      </trkpt>
      <trkpt lat="48.82908" lon="2.43792">
        <ele>56</ele>
        <time>2014-05-15T11:23:52Z</time>
      </trkpt>
      <trkpt lat="48.82908" lon="2.4379">
        <ele>56</ele>
        <time>2014-05-15T11:23:53Z</time>
      </trkpt>
      <trkpt lat="48.82908" lon="2.43789">
        <ele>54</ele>
        <time>2014-05-15T11:23:54Z</time>
      </trkpt>
      <trkpt lat="48.82908" lon="2.43787">
        <ele>57</ele>
        <time>2014-05-15T11:23:55Z</time>
      </trkpt>
      <trkpt lat="48.82908" lon="2.43785">
        <ele>59</ele>
        <time>2014-05-15T11:23:56Z</time>
      </trkpt>
      <trkpt lat="48.82907" lon="2.43784">
        <ele>59</ele>
        <time>2014-05-15T11:23:57Z</time>
      </trkpt>
      <trkpt lat="48.82907" lon="2.43782">
        <ele>60</ele>
        <time>2014-05-15T11:23:58Z</time>
      </trkpt>
      <trkpt lat="48.82906" lon="2.43781">
        <ele>61</ele>
        <time>2014-05-15T11:23:59Z</time>
      </trkpt>
      <trkpt lat="48.82905" lon="2.4378">
        <ele>61</ele>
        <time>2014-05-15T11:24:00Z</time>
      </trkpt>
      <trkpt lat="48.82905" lon="2.43779">
        <ele>63</ele>
        <time>2014-05-15T11:24:01Z</time>
      </trkpt>
      <trkpt lat="48.82904" lon="2.43778">
        <ele>63</ele>
        <time>2014-05-15T11:24:02Z</time>
      </trkpt>
      <trkpt lat="48.82905" lon="2.43777">
        <ele>62</ele>
        <time>2014-05-15T11:24:03Z</time>
      </trkpt>
      <trkpt lat="48.82905" lon="2.43775">
        <ele>62</ele>
        <time>2014-05-15T11:24:04Z</time>
      </trkpt>
      <trkpt lat="48.82905" lon="2.43774">
        <ele>61</ele>
        <time>2014-05-15T11:24:05Z</time>
      </trkpt>
      <trkpt lat="48.82905" lon="2.43773">
        <ele>60</ele>
        <time>2014-05-15T11:24:06Z</time>
      </trkpt>
      <trkpt lat="48.82904" lon="2.43771">
        <ele>58</ele>
        <time>2014-05-15T11:24:07Z</time>
      </trkpt>
      <trkpt lat="48.82904" lon="2.4377">
        <ele>58</ele>
        <time>2014-05-15T11:24:08Z</time>
      </trkpt>
      <trkpt lat="48.82905" lon="2.43769">
        <ele>56</ele>
        <time>2014-05-15T11:24:09Z</time>
      </trkpt>
      <trkpt lat="48.82905" lon="2.43768">
        <ele>56</ele>
        <time>2014-05-15T11:24:10Z</time>
      </trkpt>
      <trkpt lat="48.82905" lon="2.43768">
        <ele>56</ele>
        <time>2014-05-15T11:24:11Z</time>
      </trkpt>
      <trkpt lat="48.82905" lon="2.43768">
        <ele>57</ele>
        <time>2014-05-15T11:24:12Z</time>
      </trkpt>
      <trkpt lat="48.82905" lon="2.43768">
        <ele>59</ele>
        <time>2014-05-15T11:24:13Z</time>
      </trkpt>
      <trkpt lat="48.82905" lon="2.43768">
        <ele>59</ele>
        <time>2014-05-15T11:24:14Z</time>
      </trkpt>
      <trkpt lat="48.82905" lon="2.43768">
        <ele>59</ele>
        <time>2014-05-15T11:24:15Z</time>
      </trkpt>
      <trkpt lat="48.82905" lon="2.43767">
        <ele>59</ele>
        <time>2014-05-15T11:24:16Z</time>
      </trkpt>
      <trkpt lat="48.82905" lon="2.43767">
        <ele>57</ele>
        <time>2014-05-15T11:24:17Z</time>
      </trkpt>
      <trkpt lat="48.82905" lon="2.43766">
        <ele>57</ele>
        <time>2014-05-15T11:24:18Z</time>
      </trkpt>
      <trkpt lat="48.82905" lon="2.43765">
        <ele>58</ele>
        <time>2014-05-15T11:24:19Z</time>
      </trkpt>
      <trkpt lat="48.82905" lon="2.43765">
        <ele>58</ele>
        <time>2014-05-15T11:24:20Z</time>
      </trkpt>
      <trkpt lat="48.82905" lon="2.43764">
        <ele>58</ele>
        <time>2014-05-15T11:24:21Z</time>
      </trkpt>
      <trkpt lat="48.82906" lon="2.43763">
        <ele>59</ele>
        <time>2014-05-15T11:24:22Z</time>
      </trkpt>
      <trkpt lat="48.82907" lon="2.43762">
        <ele>58</ele>
        <time>2014-05-15T11:24:23Z</time>
      </trkpt>
      <trkpt lat="48.82909" lon="2.43761">
        <ele>57</ele>
        <time>2014-05-15T11:24:24Z</time>
      </trkpt>
      <trkpt lat="48.8291" lon="2.43759">
        <ele>57</ele>
        <time>2014-05-15T11:24:25Z</time>
      </trkpt>
      <trkpt lat="48.82911" lon="2.43758">
        <ele>60</ele>
        <time>2014-05-15T11:24:26Z</time>
      </trkpt>
      <trkpt lat="48.82912" lon="2.43756">
        <ele>60</ele>
        <time>2014-05-15T11:24:27Z</time>
      </trkpt>
      <trkpt lat="48.82913" lon="2.43754">
        <ele>61</ele>
        <time>2014-05-15T11:24:28Z</time>
      </trkpt>
      <trkpt lat="48.82913" lon="2.43752">
        <ele>60</ele>
        <time>2014-05-15T11:24:29Z</time>
      </trkpt>
      <trkpt lat="48.82913" lon="2.4375">
        <ele>61</ele>
        <time>2014-05-15T11:24:30Z</time>
      </trkpt>
      <trkpt lat="48.82912" lon="2.43748">
        <ele>62</ele>
        <time>2014-05-15T11:24:31Z</time>
      </trkpt>
      <trkpt lat="48.82911" lon="2.43747">
        <ele>61</ele>
        <time>2014-05-15T11:24:32Z</time>
      </trkpt>
      <trkpt lat="48.82911" lon="2.43746">
        <ele>60</ele>
        <time>2014-05-15T11:24:33Z</time>
      </trkpt>
      <trkpt lat="48.8291" lon="2.43745">
        <ele>59</ele>
        <time>2014-05-15T11:24:34Z</time>
      </trkpt>
      <trkpt lat="48.82909" lon="2.43744">
        <ele>55</ele>
        <time>2014-05-15T11:24:35Z</time>
      </trkpt>
      <trkpt lat="48.82909" lon="2.43743">
        <ele>56</ele>
        <time>2014-05-15T11:24:36Z</time>
      </trkpt>
      <trkpt lat="48.82909" lon="2.43742">
        <ele>56</ele>
        <time>2014-05-15T11:24:37Z</time>
      </trkpt>
      <trkpt lat="48.82909" lon="2.4374">
        <ele>55</ele>
        <time>2014-05-15T11:24:38Z</time>
      </trkpt>
      <trkpt lat="48.82908" lon="2.43739">
        <ele>53</ele>
        <time>2014-05-15T11:24:39Z</time>
      </trkpt>
      <trkpt lat="48.82908" lon="2.43738">
        <ele>54</ele>
        <time>2014-05-15T11:24:40Z</time>
      </trkpt>
      <trkpt lat="48.82907" lon="2.43736">
        <ele>54</ele>
        <time>2014-05-15T11:24:41Z</time>
      </trkpt>
      <trkpt lat="48.82907" lon="2.43735">
        <ele>52</ele>
        <time>2014-05-15T11:24:42Z</time>
      </trkpt>
      <trkpt lat="48.82906" lon="2.43733">
        <ele>54</ele>
        <time>2014-05-15T11:24:43Z</time>
      </trkpt>
      <trkpt lat="48.82906" lon="2.43732">
        <ele>54</ele>
        <time>2014-05-15T11:24:44Z</time>
      </trkpt>
      <trkpt lat="48.82906" lon="2.43729">
        <ele>51</ele>
        <time>2014-05-15T11:24:45Z</time>
      </trkpt>
      <trkpt lat="48.82907" lon="2.43727">
        <ele>52</ele>
        <time>2014-05-15T11:24:46Z</time>
      </trkpt>
      <trkpt lat="48.82907" lon="2.43725">
        <ele>52</ele>
        <time>2014-05-15T11:24:47Z</time>
      </trkpt>
      <trkpt lat="48.82907" lon="2.43722">
        <ele>52</ele>
        <time>2014-05-15T11:24:48Z</time>
      </trkpt>
      <trkpt lat="48.82906" lon="2.43721">
        <ele>51</ele>
        <time>2014-05-15T11:24:49Z</time>
      </trkpt>
      <trkpt lat="48.82905" lon="2.43719">
        <ele>49</ele>
        <time>2014-05-15T11:24:50Z</time>
      </trkpt>
      <trkpt lat="48.82904" lon="2.43718">
        <ele>51</ele>
        <time>2014-05-15T11:24:51Z</time>
      </trkpt>
      <trkpt lat="48.82903" lon="2.43716">
        <ele>51</ele>
        <time>2014-05-15T11:24:52Z</time>
      </trkpt>
      <trkpt lat="48.82902" lon="2.43715">
        <ele>51</ele>
        <time>2014-05-15T11:24:53Z</time>
      </trkpt>
      <trkpt lat="48.82901" lon="2.43714">
        <ele>53</ele>
        <time>2014-05-15T11:24:54Z</time>
      </trkpt>
      <trkpt lat="48.829" lon="2.43714">
        <ele>52</ele>
        <time>2014-05-15T11:24:55Z</time>
      </trkpt>
      <trkpt lat="48.82899" lon="2.43713">
        <ele>53</ele>
        <time>2014-05-15T11:24:56Z</time>
      </trkpt>
      <trkpt lat="48.82898" lon="2.43712">
        <ele>54</ele>
        <time>2014-05-15T11:24:57Z</time>
      </trkpt>
      <trkpt lat="48.82898" lon="2.4371">
        <ele>52</ele>
        <time>2014-05-15T11:24:58Z</time>
      </trkpt>
      <trkpt lat="48.82897" lon="2.43708">
        <ele>50</ele>
        <time>2014-05-15T11:24:59Z</time>
      </trkpt>
      <trkpt lat="48.82897" lon="2.43707">
        <ele>52</ele>
        <time>2014-05-15T11:25:00Z</time>
      </trkpt>
      <trkpt lat="48.82896" lon="2.43706">
        <ele>51</ele>
        <time>2014-05-15T11:25:01Z</time>
      </trkpt>
      <trkpt lat="48.82895" lon="2.43704">
        <ele>51</ele>
        <time>2014-05-15T11:25:02Z</time>
      </trkpt>
      <trkpt lat="48.82895" lon="2.43703">
        <ele>52</ele>
        <time>2014-05-15T11:25:03Z</time>
      </trkpt>
      <trkpt lat="48.82894" lon="2.43702">
        <ele>52</ele>
        <time>2014-05-15T11:25:04Z</time>
      </trkpt>
      <trkpt lat="48.82893" lon="2.43701">
        <ele>54</ele>
        <time>2014-05-15T11:25:05Z</time>
      </trkpt>
      <trkpt lat="48.82893" lon="2.437">
        <ele>53</ele>
        <time>2014-05-15T11:25:06Z</time>
      </trkpt>
      <trkpt lat="48.82892" lon="2.43699">
        <ele>54</ele>
        <time>2014-05-15T11:25:07Z</time>
      </trkpt>
      <trkpt lat="48.8289" lon="2.43698">
        <ele>56</ele>
        <time>2014-05-15T11:25:08Z</time>
      </trkpt>
      <trkpt lat="48.82889" lon="2.43698">
        <ele>56</ele>
        <time>2014-05-15T11:25:09Z</time>
      </trkpt>
      <trkpt lat="48.82888" lon="2.43697">
        <ele>58</ele>
        <time>2014-05-15T11:25:10Z</time>
      </trkpt>
      <trkpt lat="48.82888" lon="2.43696">
        <ele>57</ele>
        <time>2014-05-15T11:25:11Z</time>
      </trkpt>
      <trkpt lat="48.82887" lon="2.43694">
        <ele>56</ele>
        <time>2014-05-15T11:25:12Z</time>
      </trkpt>
      <trkpt lat="48.82887" lon="2.43692">
        <ele>55</ele>
        <time>2014-05-15T11:25:13Z</time>
      </trkpt>
      <trkpt lat="48.82887" lon="2.43691">
        <ele>56</ele>
        <time>2014-05-15T11:25:14Z</time>
      </trkpt>
      <trkpt lat="48.82886" lon="2.43689">
        <ele>53</ele>
        <time>2014-05-15T11:25:15Z</time>
      </trkpt>
      <trkpt lat="48.82885" lon="2.43687">
        <ele>54</ele>
        <time>2014-05-15T11:25:16Z</time>
      </trkpt>
      <trkpt lat="48.82885" lon="2.43686">
        <ele>54</ele>
        <time>2014-05-15T11:25:17Z</time>
      </trkpt>
      <trkpt lat="48.82884" lon="2.43685">
        <ele>54</ele>
        <time>2014-05-15T11:25:18Z</time>
      </trkpt>
      <trkpt lat="48.82883" lon="2.43684">
        <ele>49</ele>
        <time>2014-05-15T11:25:19Z</time>
      </trkpt>
      <trkpt lat="48.82882" lon="2.43683">
        <ele>52</ele>
        <time>2014-05-15T11:25:20Z</time>
      </trkpt>
      <trkpt lat="48.82881" lon="2.43682">
        <ele>50</ele>
        <time>2014-05-15T11:25:21Z</time>
      </trkpt>
      <trkpt lat="48.82881" lon="2.4368">
        <ele>48</ele>
        <time>2014-05-15T11:25:22Z</time>
      </trkpt>
      <trkpt lat="48.82881" lon="2.43678">
        <ele>48</ele>
        <time>2014-05-15T11:25:23Z</time>
      </trkpt>
      <trkpt lat="48.82881" lon="2.43676">
        <ele>48</ele>
        <time>2014-05-15T11:25:24Z</time>
      </trkpt>
      <trkpt lat="48.82881" lon="2.43674">
        <ele>49</ele>
        <time>2014-05-15T11:25:25Z</time>
      </trkpt>
      <trkpt lat="48.8288" lon="2.43672">
        <ele>49</ele>
        <time>2014-05-15T11:25:26Z</time>
      </trkpt>
      <trkpt lat="48.8288" lon="2.43671">
        <ele>51</ele>
        <time>2014-05-15T11:25:27Z</time>
      </trkpt>
      <trkpt lat="48.8288" lon="2.43669">
        <ele>51</ele>
        <time>2014-05-15T11:25:28Z</time>
      </trkpt>
      <trkpt lat="48.8288" lon="2.43667">
        <ele>51</ele>
        <time>2014-05-15T11:25:29Z</time>
      </trkpt>
      <trkpt lat="48.8288" lon="2.43666">
        <ele>51</ele>
        <time>2014-05-15T11:25:30Z</time>
      </trkpt>
      <trkpt lat="48.82879" lon="2.43664">
        <ele>51</ele>
        <time>2014-05-15T11:25:31Z</time>
      </trkpt>
      <trkpt lat="48.82879" lon="2.43663">
        <ele>51</ele>
        <time>2014-05-15T11:25:32Z</time>
      </trkpt>
      <trkpt lat="48.82878" lon="2.43661">
        <ele>52</ele>
        <time>2014-05-15T11:25:33Z</time>
      </trkpt>
      <trkpt lat="48.82877" lon="2.4366">
        <ele>51</ele>
        <time>2014-05-15T11:25:34Z</time>
      </trkpt>
      <trkpt lat="48.82876" lon="2.43659">
        <ele>52</ele>
        <time>2014-05-15T11:25:35Z</time>
      </trkpt>
      <trkpt lat="48.82875" lon="2.43657">
        <ele>52</ele>
        <time>2014-05-15T11:25:36Z</time>
      </trkpt>
      <trkpt lat="48.82874" lon="2.43655">
        <ele>53</ele>
        <time>2014-05-15T11:25:37Z</time>
      </trkpt>
      <trkpt lat="48.82873" lon="2.43653">
        <ele>54</ele>
        <time>2014-05-15T11:25:38Z</time>
      </trkpt>
      <trkpt lat="48.82873" lon="2.43651">
        <ele>54</ele>
        <time>2014-05-15T11:25:39Z</time>
      </trkpt>
      <trkpt lat="48.82873" lon="2.43649">
        <ele>55</ele>
        <time>2014-05-15T11:25:40Z</time>
      </trkpt>
      <trkpt lat="48.82872" lon="2.43647">
        <ele>56</ele>
        <time>2014-05-15T11:25:41Z</time>
      </trkpt>
      <trkpt lat="48.82871" lon="2.43645">
        <ele>56</ele>
        <time>2014-05-15T11:25:42Z</time>
      </trkpt>
      <trkpt lat="48.8287" lon="2.43645">
        <ele>57</ele>
        <time>2014-05-15T11:25:43Z</time>
      </trkpt>
      <trkpt lat="48.82869" lon="2.43644">
        <ele>57</ele>
        <time>2014-05-15T11:25:44Z</time>
      </trkpt>
      <trkpt lat="48.82868" lon="2.43644">
        <ele>58</ele>
        <time>2014-05-15T11:25:45Z</time>
      </trkpt>
      <trkpt lat="48.82868" lon="2.43642">
        <ele>58</ele>
        <time>2014-05-15T11:25:46Z</time>
      </trkpt>
      <trkpt lat="48.82868" lon="2.43641">
        <ele>57</ele>
        <time>2014-05-15T11:25:47Z</time>
      </trkpt>
      <trkpt lat="48.82868" lon="2.43639">
        <ele>59</ele>
        <time>2014-05-15T11:25:48Z</time>
      </trkpt>
      <trkpt lat="48.82867" lon="2.43638">
        <ele>57</ele>
        <time>2014-05-15T11:25:49Z</time>
      </trkpt>
      <trkpt lat="48.82867" lon="2.43636">
        <ele>55</ele>
        <time>2014-05-15T11:25:50Z</time>
      </trkpt>
      <trkpt lat="48.82866" lon="2.43635">
        <ele>55</ele>
        <time>2014-05-15T11:25:51Z</time>
      </trkpt>
      <trkpt lat="48.82866" lon="2.43634">
        <ele>54</ele>
        <time>2014-05-15T11:25:52Z</time>
      </trkpt>
      <trkpt lat="48.82865" lon="2.43633">
        <ele>55</ele>
        <time>2014-05-15T11:25:53Z</time>
      </trkpt>
      <trkpt lat="48.82864" lon="2.43632">
        <ele>55</ele>
        <time>2014-05-15T11:25:54Z</time>
      </trkpt>
      <trkpt lat="48.82864" lon="2.43631">
        <ele>55</ele>
        <time>2014-05-15T11:25:55Z</time>
      </trkpt>
      <trkpt lat="48.82863" lon="2.4363">
        <ele>57</ele>
        <time>2014-05-15T11:25:56Z</time>
      </trkpt>
      <trkpt lat="48.82863" lon="2.43628">
        <ele>58</ele>
        <time>2014-05-15T11:25:57Z</time>
      </trkpt>
      <trkpt lat="48.82862" lon="2.43626">
        <ele>59</ele>
        <time>2014-05-15T11:25:58Z</time>
      </trkpt>
      <trkpt lat="48.82862" lon="2.43624">
        <ele>58</ele>
        <time>2014-05-15T11:25:59Z</time>
      </trkpt>
      <trkpt lat="48.82861" lon="2.43623">
        <ele>58</ele>
        <time>2014-05-15T11:26:00Z</time>
      </trkpt>
      <trkpt lat="48.82861" lon="2.43622">
        <ele>59</ele>
        <time>2014-05-15T11:26:01Z</time>
      </trkpt>
      <trkpt lat="48.82861" lon="2.4362">
        <ele>60</ele>
        <time>2014-05-15T11:26:02Z</time>
      </trkpt>
      <trkpt lat="48.8286" lon="2.43618">
        <ele>58</ele>
        <time>2014-05-15T11:26:03Z</time>
      </trkpt>
      <trkpt lat="48.82859" lon="2.43617">
        <ele>59</ele>
        <time>2014-05-15T11:26:04Z</time>
      </trkpt>
      <trkpt lat="48.82857" lon="2.43617">
        <ele>58</ele>
        <time>2014-05-15T11:26:05Z</time>
      </trkpt>
      <trkpt lat="48.82855" lon="2.43617">
        <ele>59</ele>
        <time>2014-05-15T11:26:06Z</time>
      </trkpt>
      <trkpt lat="48.82854" lon="2.43618">
        <ele>56</ele>
        <time>2014-05-15T11:26:07Z</time>
      </trkpt>
      <trkpt lat="48.82853" lon="2.43619">
        <ele>56</ele>
        <time>2014-05-15T11:26:08Z</time>
      </trkpt>
      <trkpt lat="48.82852" lon="2.4362">
        <ele>57</ele>
        <time>2014-05-15T11:26:09Z</time>
      </trkpt>
      <trkpt lat="48.82851" lon="2.43621">
        <ele>56</ele>
        <time>2014-05-15T11:26:10Z</time>
      </trkpt>
      <trkpt lat="48.8285" lon="2.43621">
        <ele>55</ele>
        <time>2014-05-15T11:26:11Z</time>
      </trkpt>
      <trkpt lat="48.82848" lon="2.43621">
        <ele>56</ele>
        <time>2014-05-15T11:26:12Z</time>
      </trkpt>
      <trkpt lat="48.82847" lon="2.43621">
        <ele>57</ele>
        <time>2014-05-15T11:26:13Z</time>
      </trkpt>
      <trkpt lat="48.82846" lon="2.4362">
        <ele>55</ele>
        <time>2014-05-15T11:26:14Z</time>
      </trkpt>
      <trkpt lat="48.82845" lon="2.4362">
        <ele>55</ele>
        <time>2014-05-15T11:26:15Z</time>
      </trkpt>
      <trkpt lat="48.82844" lon="2.43619">
        <ele>55</ele>
        <time>2014-05-15T11:26:16Z</time>
      </trkpt>
      <trkpt lat="48.82843" lon="2.43619">
        <ele>62</ele>
        <time>2014-05-15T11:26:17Z</time>
      </trkpt>
      <trkpt lat="48.82842" lon="2.43618">
        <ele>62</ele>
        <time>2014-05-15T11:26:18Z</time>
      </trkpt>
      <trkpt lat="48.8284" lon="2.43618">
        <ele>61</ele>
        <time>2014-05-15T11:26:19Z</time>
      </trkpt>
      <trkpt lat="48.82839" lon="2.43618">
        <ele>61</ele>
        <time>2014-05-15T11:26:20Z</time>
      </trkpt>
      <trkpt lat="48.82837" lon="2.43617">
        <ele>59</ele>
        <time>2014-05-15T11:26:21Z</time>
      </trkpt>
      <trkpt lat="48.82836" lon="2.43616">
        <ele>56</ele>
        <time>2014-05-15T11:26:22Z</time>
      </trkpt>
      <trkpt lat="48.82835" lon="2.43615">
        <ele>53</ele>
        <time>2014-05-15T11:26:23Z</time>
      </trkpt>
      <trkpt lat="48.82835" lon="2.43613">
        <ele>51</ele>
        <time>2014-05-15T11:26:24Z</time>
      </trkpt>
      <trkpt lat="48.82834" lon="2.43611">
        <ele>52</ele>
        <time>2014-05-15T11:26:25Z</time>
      </trkpt>
      <trkpt lat="48.82833" lon="2.43609">
        <ele>52</ele>
        <time>2014-05-15T11:26:26Z</time>
      </trkpt>
      <trkpt lat="48.82831" lon="2.43609">
        <ele>53</ele>
        <time>2014-05-15T11:26:27Z</time>
      </trkpt>
      <trkpt lat="48.8283" lon="2.43608">
        <ele>52</ele>
        <time>2014-05-15T11:26:28Z</time>
      </trkpt>
      <trkpt lat="48.82828" lon="2.43607">
        <ele>49</ele>
        <time>2014-05-15T11:26:29Z</time>
      </trkpt>
      <trkpt lat="48.82827" lon="2.43606">
        <ele>51</ele>
        <time>2014-05-15T11:26:30Z</time>
      </trkpt>
      <trkpt lat="48.82826" lon="2.43605">
        <ele>50</ele>
        <time>2014-05-15T11:26:31Z</time>
      </trkpt>
      <trkpt lat="48.82824" lon="2.43604">
        <ele>50</ele>
        <time>2014-05-15T11:26:32Z</time>
      </trkpt>
      <trkpt lat="48.82823" lon="2.43603">
        <ele>50</ele>
        <time>2014-05-15T11:26:33Z</time>
      </trkpt>
      <trkpt lat="48.82822" lon="2.43602">
        <ele>50</ele>
        <time>2014-05-15T11:26:34Z</time>
      </trkpt>
      <trkpt lat="48.82821" lon="2.436">
        <ele>51</ele>
        <time>2014-05-15T11:26:35Z</time>
      </trkpt>
      <trkpt lat="48.82821" lon="2.43598">
        <ele>59</ele>
        <time>2014-05-15T11:26:36Z</time>
      </trkpt>
      <trkpt lat="48.8282" lon="2.43597">
        <ele>58</ele>
        <time>2014-05-15T11:26:37Z</time>
      </trkpt>
      <trkpt lat="48.8282" lon="2.43595">
        <ele>56</ele>
        <time>2014-05-15T11:26:38Z</time>
      </trkpt>
      <trkpt lat="48.8282" lon="2.43593">
        <ele>55</ele>
        <time>2014-05-15T11:26:39Z</time>
      </trkpt>
      <trkpt lat="48.8282" lon="2.43591">
        <ele>53</ele>
        <time>2014-05-15T11:26:40Z</time>
      </trkpt>
      <trkpt lat="48.8282" lon="2.43589">
        <ele>54</ele>
        <time>2014-05-15T11:26:41Z</time>
      </trkpt>
      <trkpt lat="48.8282" lon="2.43586">
        <ele>54</ele>
        <time>2014-05-15T11:26:42Z</time>
      </trkpt>
      <trkpt lat="48.8282" lon="2.43584">
        <ele>56</ele>
        <time>2014-05-15T11:26:43Z</time>
      </trkpt>
      <trkpt lat="48.8282" lon="2.43582">
        <ele>55</ele>
        <time>2014-05-15T11:26:44Z</time>
      </trkpt>
      <trkpt lat="48.8282" lon="2.43579">
        <ele>56</ele>
        <time>2014-05-15T11:26:45Z</time>
      </trkpt>
      <trkpt lat="48.8282" lon="2.43576">
        <ele>56</ele>
        <time>2014-05-15T11:26:46Z</time>
      </trkpt>
      <trkpt lat="48.8282" lon="2.43573">
        <ele>54</ele>
        <time>2014-05-15T11:26:47Z</time>
      </trkpt>
      <trkpt lat="48.8282" lon="2.43571">
        <ele>53</ele>
        <time>2014-05-15T11:26:48Z</time>
      </trkpt>
      <trkpt lat="48.8282" lon="2.43568">
        <ele>53</ele>
        <time>2014-05-15T11:26:49Z</time>
      </trkpt>
      <trkpt lat="48.8282" lon="2.43566">
        <ele>54</ele>
        <time>2014-05-15T11:26:50Z</time>
      </trkpt>
      <trkpt lat="48.8282" lon="2.43564">
        <ele>55</ele>
        <time>2014-05-15T11:26:51Z</time>
      </trkpt>
      <trkpt lat="48.8282" lon="2.43562">
        <ele>55</ele>
        <time>2014-05-15T11:26:52Z</time>
      </trkpt>
      <trkpt lat="48.8282" lon="2.43559">
        <ele>56</ele>
        <time>2014-05-15T11:26:53Z</time>
      </trkpt>
      <trkpt lat="48.8282" lon="2.43557">
        <ele>56</ele>
        <time>2014-05-15T11:26:54Z</time>
      </trkpt>
      <trkpt lat="48.8282" lon="2.43554">
        <ele>56</ele>
        <time>2014-05-15T11:26:55Z</time>
      </trkpt>
      <trkpt lat="48.8282" lon="2.43552">
        <ele>58</ele>
        <time>2014-05-15T11:26:56Z</time>
      </trkpt>
      <trkpt lat="48.8282" lon="2.4355">
        <ele>58</ele>
        <time>2014-05-15T11:26:57Z</time>
      </trkpt>
      <trkpt lat="48.8282" lon="2.43547">
        <ele>57</ele>
        <time>2014-05-15T11:26:58Z</time>
      </trkpt>
      <trkpt lat="48.82821" lon="2.43545">
        <ele>57</ele>
        <time>2014-05-15T11:26:59Z</time>
      </trkpt>
      <trkpt lat="48.82821" lon="2.43543">
        <ele>58</ele>
        <time>2014-05-15T11:27:00Z</time>
      </trkpt>
      <trkpt lat="48.82821" lon="2.43541">
        <ele>59</ele>
        <time>2014-05-15T11:27:01Z</time>
      </trkpt>
      <trkpt lat="48.82821" lon="2.43539">
        <ele>60</ele>
        <time>2014-05-15T11:27:02Z</time>
      </trkpt>
      <trkpt lat="48.82821" lon="2.43536">
        <ele>59</ele>
        <time>2014-05-15T11:27:03Z</time>
      </trkpt>
      <trkpt lat="48.82821" lon="2.43534">
        <ele>61</ele>
        <time>2014-05-15T11:27:04Z</time>
      </trkpt>
      <trkpt lat="48.82821" lon="2.43532">
        <ele>62</ele>
        <time>2014-05-15T11:27:05Z</time>
      </trkpt>
      <trkpt lat="48.82821" lon="2.4353">
        <ele>62</ele>
        <time>2014-05-15T11:27:06Z</time>
      </trkpt>
      <trkpt lat="48.82821" lon="2.43527">
        <ele>60</ele>
        <time>2014-05-15T11:27:07Z</time>
      </trkpt>
      <trkpt lat="48.82821" lon="2.43525">
        <ele>60</ele>
        <time>2014-05-15T11:27:08Z</time>
      </trkpt>
      <trkpt lat="48.82821" lon="2.43523">
        <ele>61</ele>
        <time>2014-05-15T11:27:09Z</time>
      </trkpt>
      <trkpt lat="48.82821" lon="2.43521">
        <ele>56</ele>
        <time>2014-05-15T11:27:10Z</time>
      </trkpt>
      <trkpt lat="48.82821" lon="2.43518">
        <ele>55</ele>
        <time>2014-05-15T11:27:11Z</time>
      </trkpt>
      <trkpt lat="48.82821" lon="2.43516">
        <ele>53</ele>
        <time>2014-05-15T11:27:12Z</time>
      </trkpt>
      <trkpt lat="48.82821" lon="2.43513">
        <ele>52</ele>
        <time>2014-05-15T11:27:13Z</time>
      </trkpt>
      <trkpt lat="48.8282" lon="2.43511">
        <ele>53</ele>
        <time>2014-05-15T11:27:14Z</time>
      </trkpt>
      <trkpt lat="48.8282" lon="2.43508">
        <ele>55</ele>
        <time>2014-05-15T11:27:15Z</time>
      </trkpt>
      <trkpt lat="48.8282" lon="2.43506">
        <ele>55</ele>
        <time>2014-05-15T11:27:16Z</time>
      </trkpt>
      <trkpt lat="48.8282" lon="2.43503">
        <ele>55</ele>
        <time>2014-05-15T11:27:17Z</time>
      </trkpt>
      <trkpt lat="48.82821" lon="2.43501">
        <ele>54</ele>
        <time>2014-05-15T11:27:18Z</time>
      </trkpt>
      <trkpt lat="48.82821" lon="2.43498">
        <ele>55</ele>
        <time>2014-05-15T11:27:19Z</time>
      </trkpt>
      <trkpt lat="48.82821" lon="2.43495">
        <ele>53</ele>
        <time>2014-05-15T11:27:20Z</time>
      </trkpt>
      <trkpt lat="48.82821" lon="2.43493">
        <ele>54</ele>
        <time>2014-05-15T11:27:21Z</time>
      </trkpt>
      <trkpt lat="48.82821" lon="2.4349">
        <ele>54</ele>
        <time>2014-05-15T11:27:22Z</time>
      </trkpt>
      <trkpt lat="48.82821" lon="2.43488">
        <ele>55</ele>
        <time>2014-05-15T11:27:23Z</time>
      </trkpt>
      <trkpt lat="48.82821" lon="2.43485">
        <ele>55</ele>
        <time>2014-05-15T11:27:24Z</time>
      </trkpt>
      <trkpt lat="48.82822" lon="2.43483">
        <ele>54</ele>
        <time>2014-05-15T11:27:25Z</time>
      </trkpt>
      <trkpt lat="48.82822" lon="2.43481">
        <ele>55</ele>
        <time>2014-05-15T11:27:26Z</time>
      </trkpt>
      <trkpt lat="48.82822" lon="2.43478">
        <ele>54</ele>
        <time>2014-05-15T11:27:27Z</time>
      </trkpt>
      <trkpt lat="48.82822" lon="2.43476">
        <ele>54</ele>
        <time>2014-05-15T11:27:28Z</time>
      </trkpt>
      <trkpt lat="48.82823" lon="2.43473">
        <ele>55</ele>
        <time>2014-05-15T11:27:29Z</time>
      </trkpt>
      <trkpt lat="48.82823" lon="2.43471">
        <ele>55</ele>
        <time>2014-05-15T11:27:30Z</time>
      </trkpt>
      <trkpt lat="48.82823" lon="2.43469">
        <ele>55</ele>
        <time>2014-05-15T11:27:31Z</time>
      </trkpt>
      <trkpt lat="48.82823" lon="2.43466">
        <ele>55</ele>
        <time>2014-05-15T11:27:32Z</time>
      </trkpt>
      <trkpt lat="48.82823" lon="2.43464">
        <ele>55</ele>
        <time>2014-05-15T11:27:33Z</time>
      </trkpt>
      <trkpt lat="48.82823" lon="2.43461">
        <ele>54</ele>
        <time>2014-05-15T11:27:34Z</time>
      </trkpt>
      <trkpt lat="48.82823" lon="2.43459">
        <ele>54</ele>
        <time>2014-05-15T11:27:35Z</time>
      </trkpt>
      <trkpt lat="48.82823" lon="2.43456">
        <ele>55</ele>
        <time>2014-05-15T11:27:36Z</time>
      </trkpt>
      <trkpt lat="48.82823" lon="2.43454">
        <ele>54</ele>
        <time>2014-05-15T11:27:37Z</time>
      </trkpt>
      <trkpt lat="48.82823" lon="2.43451">
        <ele>54</ele>
        <time>2014-05-15T11:27:38Z</time>
      </trkpt>
      <trkpt lat="48.82823" lon="2.43449">
        <ele>55</ele>
        <time>2014-05-15T11:27:39Z</time>
      </trkpt>
      <trkpt lat="48.82823" lon="2.43446">
        <ele>56</ele>
        <time>2014-05-15T11:27:40Z</time>
      </trkpt>
      <trkpt lat="48.82824" lon="2.43444">
        <ele>58</ele>
        <time>2014-05-15T11:27:41Z</time>
      </trkpt>
      <trkpt lat="48.82824" lon="2.43442">
        <ele>59</ele>
        <time>2014-05-15T11:27:42Z</time>
      </trkpt>
      <trkpt lat="48.82825" lon="2.4344">
        <ele>58</ele>
        <time>2014-05-15T11:27:43Z</time>
      </trkpt>
      <trkpt lat="48.82825" lon="2.43438">
        <ele>58</ele>
        <time>2014-05-15T11:27:44Z</time>
      </trkpt>
      <trkpt lat="48.82825" lon="2.43436">
        <ele>58</ele>
        <time>2014-05-15T11:27:45Z</time>
      </trkpt>
      <trkpt lat="48.82826" lon="2.43435">
        <ele>58</ele>
        <time>2014-05-15T11:27:46Z</time>
      </trkpt>
      <trkpt lat="48.82826" lon="2.43433">
        <ele>58</ele>
        <time>2014-05-15T11:27:47Z</time>
      </trkpt>
      <trkpt lat="48.82826" lon="2.43431">
        <ele>59</ele>
        <time>2014-05-15T11:27:48Z</time>
      </trkpt>
      <trkpt lat="48.82826" lon="2.43429">
        <ele>59</ele>
        <time>2014-05-15T11:27:49Z</time>
      </trkpt>
      <trkpt lat="48.82826" lon="2.43427">
        <ele>57</ele>
        <time>2014-05-15T11:27:50Z</time>
      </trkpt>
      <trkpt lat="48.82826" lon="2.43425">
        <ele>60</ele>
        <time>2014-05-15T11:27:51Z</time>
      </trkpt>
      <trkpt lat="48.82826" lon="2.43423">
        <ele>60</ele>
        <time>2014-05-15T11:27:52Z</time>
      </trkpt>
      <trkpt lat="48.82826" lon="2.43421">
        <ele>60</ele>
        <time>2014-05-15T11:27:53Z</time>
      </trkpt>
      <trkpt lat="48.82826" lon="2.43419">
        <ele>60</ele>
        <time>2014-05-15T11:27:54Z</time>
      </trkpt>
      <trkpt lat="48.82826" lon="2.43416">
        <ele>58</ele>
        <time>2014-05-15T11:27:55Z</time>
      </trkpt>
      <trkpt lat="48.82826" lon="2.43414">
        <ele>57</ele>
        <time>2014-05-15T11:27:56Z</time>
      </trkpt>
      <trkpt lat="48.82827" lon="2.43412">
        <ele>56</ele>
        <time>2014-05-15T11:27:57Z</time>
      </trkpt>
      <trkpt lat="48.82827" lon="2.4341">
        <ele>56</ele>
        <time>2014-05-15T11:27:58Z</time>
      </trkpt>
      <trkpt lat="48.82828" lon="2.43409">
        <ele>57</ele>
        <time>2014-05-15T11:27:59Z</time>
      </trkpt>
      <trkpt lat="48.82828" lon="2.43407">
        <ele>58</ele>
        <time>2014-05-15T11:28:00Z</time>
      </trkpt>
      <trkpt lat="48.82828" lon="2.43404">
        <ele>59</ele>
        <time>2014-05-15T11:28:01Z</time>
      </trkpt>
      <trkpt lat="48.82828" lon="2.43402">
        <ele>61</ele>
        <time>2014-05-15T11:28:02Z</time>
      </trkpt>
      <trkpt lat="48.82828" lon="2.434">
        <ele>61</ele>
        <time>2014-05-15T11:28:03Z</time>
      </trkpt>
      <trkpt lat="48.82828" lon="2.43398">
        <ele>61</ele>
        <time>2014-05-15T11:28:04Z</time>
      </trkpt>
      <trkpt lat="48.82828" lon="2.43396">
        <ele>62</ele>
        <time>2014-05-15T11:28:05Z</time>
      </trkpt>
      <trkpt lat="48.82827" lon="2.43394">
        <ele>61</ele>
        <time>2014-05-15T11:28:06Z</time>
      </trkpt>
      <trkpt lat="48.82827" lon="2.43391">
        <ele>61</ele>
        <time>2014-05-15T11:28:07Z</time>
      </trkpt>
      <trkpt lat="48.82826" lon="2.43389">
        <ele>62</ele>
        <time>2014-05-15T11:28:08Z</time>
      </trkpt>
      <trkpt lat="48.82826" lon="2.43386">
        <ele>61</ele>
        <time>2014-05-15T11:28:09Z</time>
      </trkpt>
      <trkpt lat="48.82826" lon="2.43383">
        <ele>62</ele>
        <time>2014-05-15T11:28:10Z</time>
      </trkpt>
      <trkpt lat="48.82826" lon="2.43381">
        <ele>61</ele>
        <time>2014-05-15T11:28:11Z</time>
      </trkpt>
      <trkpt lat="48.82825" lon="2.43378">
        <ele>59</ele>
        <time>2014-05-15T11:28:12Z</time>
      </trkpt>
      <trkpt lat="48.82825" lon="2.43376">
        <ele>59</ele>
        <time>2014-05-15T11:28:13Z</time>
      </trkpt>
      <trkpt lat="48.82825" lon="2.43373">
        <ele>58</ele>
        <time>2014-05-15T11:28:14Z</time>
      </trkpt>
      <trkpt lat="48.82824" lon="2.43371">
        <ele>60</ele>
        <time>2014-05-15T11:28:15Z</time>
      </trkpt>
      <trkpt lat="48.82824" lon="2.43369">
        <ele>60</ele>
        <time>2014-05-15T11:28:16Z</time>
      </trkpt>
      <trkpt lat="48.82824" lon="2.43367">
        <ele>58</ele>
        <time>2014-05-15T11:28:17Z</time>
      </trkpt>
      <trkpt lat="48.82824" lon="2.43365">
        <ele>59</ele>
        <time>2014-05-15T11:28:18Z</time>
      </trkpt>
      <trkpt lat="48.82824" lon="2.43363">
        <ele>58</ele>
        <time>2014-05-15T11:28:19Z</time>
      </trkpt>
      <trkpt lat="48.82824" lon="2.43361">
        <ele>58</ele>
        <time>2014-05-15T11:28:20Z</time>
      </trkpt>
      <trkpt lat="48.82825" lon="2.43359">
        <ele>57</ele>
        <time>2014-05-15T11:28:21Z</time>
      </trkpt>
      <trkpt lat="48.82825" lon="2.43357">
        <ele>55</ele>
        <time>2014-05-15T11:28:22Z</time>
      </trkpt>
      <trkpt lat="48.82825" lon="2.43355">
        <ele>54</ele>
        <time>2014-05-15T11:28:23Z</time>
      </trkpt>
      <trkpt lat="48.82826" lon="2.43353">
        <ele>54</ele>
        <time>2014-05-15T11:28:24Z</time>
      </trkpt>
      <trkpt lat="48.82826" lon="2.43351">
        <ele>54</ele>
        <time>2014-05-15T11:28:25Z</time>
      </trkpt>
      <trkpt lat="48.82826" lon="2.43349">
        <ele>54</ele>
        <time>2014-05-15T11:28:26Z</time>
      </trkpt>
      <trkpt lat="48.82826" lon="2.43347">
        <ele>55</ele>
        <time>2014-05-15T11:28:27Z</time>
      </trkpt>
      <trkpt lat="48.82827" lon="2.43344">
        <ele>54</ele>
        <time>2014-05-15T11:28:28Z</time>
      </trkpt>
      <trkpt lat="48.82827" lon="2.43342">
        <ele>54</ele>
        <time>2014-05-15T11:28:29Z</time>
      </trkpt>
      <trkpt lat="48.82827" lon="2.4334">
        <ele>54</ele>
        <time>2014-05-15T11:28:30Z</time>
      </trkpt>
      <trkpt lat="48.82828" lon="2.43338">
        <ele>54</ele>
        <time>2014-05-15T11:28:31Z</time>
      </trkpt>
      <trkpt lat="48.82828" lon="2.43336">
        <ele>53</ele>
        <time>2014-05-15T11:28:32Z</time>
      </trkpt>
      <trkpt lat="48.82828" lon="2.43334">
        <ele>53</ele>
        <time>2014-05-15T11:28:33Z</time>
      </trkpt>
      <trkpt lat="48.82829" lon="2.43332">
        <ele>53</ele>
        <time>2014-05-15T11:28:34Z</time>
      </trkpt>
      <trkpt lat="48.82829" lon="2.4333">
        <ele>52</ele>
        <time>2014-05-15T11:28:35Z</time>
      </trkpt>
      <trkpt lat="48.8283" lon="2.43328">
        <ele>53</ele>
        <time>2014-05-15T11:28:36Z</time>
      </trkpt>
      <trkpt lat="48.82831" lon="2.43327">
        <ele>54</ele>
        <time>2014-05-15T11:28:37Z</time>
      </trkpt>
      <trkpt lat="48.82831" lon="2.43325">
        <ele>53</ele>
        <time>2014-05-15T11:28:38Z</time>
      </trkpt>
      <trkpt lat="48.82831" lon="2.43323">
        <ele>54</ele>
        <time>2014-05-15T11:28:39Z</time>
      </trkpt>
      <trkpt lat="48.82832" lon="2.43322">
        <ele>54</ele>
        <time>2014-05-15T11:28:40Z</time>
      </trkpt>
      <trkpt lat="48.82832" lon="2.4332">
        <ele>54</ele>
        <time>2014-05-15T11:28:41Z</time>
      </trkpt>
      <trkpt lat="48.82832" lon="2.43318">
        <ele>53</ele>
        <time>2014-05-15T11:28:42Z</time>
      </trkpt>
      <trkpt lat="48.82832" lon="2.43316">
        <ele>54</ele>
        <time>2014-05-15T11:28:43Z</time>
      </trkpt>
      <trkpt lat="48.82832" lon="2.43314">
        <ele>54</ele>
        <time>2014-05-15T11:28:44Z</time>
      </trkpt>
      <trkpt lat="48.82832" lon="2.43312">
        <ele>54</ele>
        <time>2014-05-15T11:28:45Z</time>
      </trkpt>
      <trkpt lat="48.82833" lon="2.4331">
        <ele>54</ele>
        <time>2014-05-15T11:28:46Z</time>
      </trkpt>
      <trkpt lat="48.82833" lon="2.43308">
        <ele>54</ele>
        <time>2014-05-15T11:28:47Z</time>
      </trkpt>
      <trkpt lat="48.82834" lon="2.43306">
        <ele>54</ele>
        <time>2014-05-15T11:28:48Z</time>
      </trkpt>
      <trkpt lat="48.82835" lon="2.43304">
        <ele>53</ele>
        <time>2014-05-15T11:28:49Z</time>
      </trkpt>
      <trkpt lat="48.82835" lon="2.43302">
        <ele>52</ele>
        <time>2014-05-15T11:28:50Z</time>
      </trkpt>
      <trkpt lat="48.82836" lon="2.433">
        <ele>51</ele>
        <time>2014-05-15T11:28:51Z</time>
      </trkpt>
      <trkpt lat="48.82837" lon="2.43298">
        <ele>52</ele>
        <time>2014-05-15T11:28:52Z</time>
      </trkpt>
      <trkpt lat="48.82838" lon="2.43297">
        <ele>52</ele>
        <time>2014-05-15T11:28:53Z</time>
      </trkpt>
      <trkpt lat="48.82839" lon="2.43296">
        <ele>51</ele>
        <time>2014-05-15T11:28:54Z</time>
      </trkpt>
      <trkpt lat="48.8284" lon="2.43295">
        <ele>51</ele>
        <time>2014-05-15T11:28:55Z</time>
      </trkpt>
      <trkpt lat="48.82842" lon="2.43293">
        <ele>51</ele>
        <time>2014-05-15T11:28:56Z</time>
      </trkpt>
      <trkpt lat="48.82843" lon="2.43293">
        <ele>51</ele>
        <time>2014-05-15T11:28:57Z</time>
      </trkpt>
      <trkpt lat="48.82844" lon="2.43292">
        <ele>51</ele>
        <time>2014-05-15T11:28:58Z</time>
      </trkpt>
      <trkpt lat="48.82846" lon="2.43291">
        <ele>51</ele>
        <time>2014-05-15T11:28:59Z</time>
      </trkpt>
      <trkpt lat="48.82847" lon="2.4329">
        <ele>52</ele>
        <time>2014-05-15T11:29:00Z</time>
      </trkpt>
      <trkpt lat="48.82848" lon="2.43289">
        <ele>51</ele>
        <time>2014-05-15T11:29:01Z</time>
      </trkpt>
      <trkpt lat="48.82849" lon="2.43288">
        <ele>52</ele>
        <time>2014-05-15T11:29:02Z</time>
      </trkpt>
      <trkpt lat="48.8285" lon="2.43287">
        <ele>51</ele>
        <time>2014-05-15T11:29:03Z</time>
      </trkpt>
      <trkpt lat="48.82851" lon="2.43286">
        <ele>51</ele>
        <time>2014-05-15T11:29:04Z</time>
      </trkpt>
      <trkpt lat="48.82852" lon="2.43285">
        <ele>53</ele>
        <time>2014-05-15T11:29:05Z</time>
      </trkpt>
      <trkpt lat="48.82853" lon="2.43283">
        <ele>52</ele>
        <time>2014-05-15T11:29:06Z</time>
      </trkpt>
      <trkpt lat="48.82854" lon="2.43282">
        <ele>52</ele>
        <time>2014-05-15T11:29:07Z</time>
      </trkpt>
      <trkpt lat="48.82855" lon="2.43281">
        <ele>52</ele>
        <time>2014-05-15T11:29:08Z</time>
      </trkpt>
      <trkpt lat="48.82856" lon="2.4328">
        <ele>51</ele>
        <time>2014-05-15T11:29:09Z</time>
      </trkpt>
      <trkpt lat="48.82857" lon="2.43279">
        <ele>51</ele>
        <time>2014-05-15T11:29:10Z</time>
      </trkpt>
      <trkpt lat="48.82858" lon="2.43278">
        <ele>52</ele>
        <time>2014-05-15T11:29:11Z</time>
      </trkpt>
      <trkpt lat="48.82859" lon="2.43276">
        <ele>52</ele>
        <time>2014-05-15T11:29:12Z</time>
      </trkpt>
      <trkpt lat="48.8286" lon="2.43274">
        <ele>53</ele>
        <time>2014-05-15T11:29:13Z</time>
      </trkpt>
      <trkpt lat="48.82861" lon="2.43272">
        <ele>53</ele>
        <time>2014-05-15T11:29:14Z</time>
      </trkpt>
      <trkpt lat="48.82862" lon="2.43271">
        <ele>53</ele>
        <time>2014-05-15T11:29:15Z</time>
      </trkpt>
      <trkpt lat="48.82863" lon="2.43269">
        <ele>53</ele>
        <time>2014-05-15T11:29:16Z</time>
      </trkpt>
      <trkpt lat="48.82864" lon="2.43267">
        <ele>53</ele>
        <time>2014-05-15T11:29:17Z</time>
      </trkpt>
      <trkpt lat="48.82865" lon="2.43266">
        <ele>53</ele>
        <time>2014-05-15T11:29:18Z</time>
      </trkpt>
      <trkpt lat="48.82866" lon="2.43264">
        <ele>51</ele>
        <time>2014-05-15T11:29:19Z</time>
      </trkpt>
      <trkpt lat="48.82866" lon="2.43262">
        <ele>51</ele>
        <time>2014-05-15T11:29:20Z</time>
      </trkpt>
      <trkpt lat="48.82867" lon="2.43261">
        <ele>52</ele>
        <time>2014-05-15T11:29:21Z</time>
      </trkpt>
      <trkpt lat="48.82868" lon="2.43259">
        <ele>52</ele>
        <time>2014-05-15T11:29:22Z</time>
      </trkpt>
      <trkpt lat="48.82869" lon="2.43258">
        <ele>52</ele>
        <time>2014-05-15T11:29:23Z</time>
      </trkpt>
      <trkpt lat="48.8287" lon="2.43257">
        <ele>52</ele>
        <time>2014-05-15T11:29:24Z</time>
      </trkpt>
      <trkpt lat="48.82872" lon="2.43257">
        <ele>52</ele>
        <time>2014-05-15T11:29:25Z</time>
      </trkpt>
      <trkpt lat="48.82873" lon="2.43256">
        <ele>53</ele>
        <time>2014-05-15T11:29:26Z</time>
      </trkpt>
      <trkpt lat="48.82874" lon="2.43254">
        <ele>53</ele>
        <time>2014-05-15T11:29:27Z</time>
      </trkpt>
      <trkpt lat="48.82876" lon="2.43253">
        <ele>53</ele>
        <time>2014-05-15T11:29:28Z</time>
      </trkpt>
      <trkpt lat="48.82877" lon="2.43252">
        <ele>53</ele>
        <time>2014-05-15T11:29:29Z</time>
      </trkpt>
      <trkpt lat="48.82878" lon="2.43251">
        <ele>54</ele>
        <time>2014-05-15T11:29:30Z</time>
      </trkpt>
      <trkpt lat="48.82879" lon="2.4325">
        <ele>54</ele>
        <time>2014-05-15T11:29:31Z</time>
      </trkpt>
      <trkpt lat="48.82881" lon="2.43249">
        <ele>55</ele>
        <time>2014-05-15T11:29:32Z</time>
      </trkpt>
      <trkpt lat="48.82882" lon="2.43248">
        <ele>54</ele>
        <time>2014-05-15T11:29:33Z</time>
      </trkpt>
      <trkpt lat="48.82883" lon="2.43247">
        <ele>54</ele>
        <time>2014-05-15T11:29:34Z</time>
      </trkpt>
      <trkpt lat="48.82884" lon="2.43246">
        <ele>54</ele>
        <time>2014-05-15T11:29:35Z</time>
      </trkpt>
      <trkpt lat="48.82886" lon="2.43246">
        <ele>54</ele>
        <time>2014-05-15T11:29:36Z</time>
      </trkpt>
      <trkpt lat="48.82887" lon="2.43245">
        <ele>54</ele>
        <time>2014-05-15T11:29:37Z</time>
      </trkpt>
      <trkpt lat="48.82888" lon="2.43244">
        <ele>54</ele>
        <time>2014-05-15T11:29:38Z</time>
      </trkpt>
      <trkpt lat="48.82889" lon="2.43243">
        <ele>54</ele>
        <time>2014-05-15T11:29:39Z</time>
      </trkpt>
      <trkpt lat="48.82889" lon="2.43241">
        <ele>54</ele>
        <time>2014-05-15T11:29:40Z</time>
      </trkpt>
      <trkpt lat="48.82891" lon="2.4324">
        <ele>54</ele>
        <time>2014-05-15T11:29:41Z</time>
      </trkpt>
      <trkpt lat="48.82892" lon="2.43241">
        <ele>54</ele>
        <time>2014-05-15T11:29:42Z</time>
      </trkpt>
      <trkpt lat="48.82893" lon="2.43242">
        <ele>54</ele>
        <time>2014-05-15T11:29:43Z</time>
      </trkpt>
      <trkpt lat="48.82894" lon="2.43244">
        <ele>54</ele>
        <time>2014-05-15T11:29:44Z</time>
      </trkpt>
      <trkpt lat="48.82896" lon="2.43245">
        <ele>55</ele>
        <time>2014-05-15T11:29:45Z</time>
      </trkpt>
      <trkpt lat="48.82897" lon="2.43247">
        <ele>54</ele>
        <time>2014-05-15T11:29:46Z</time>
      </trkpt>
      <trkpt lat="48.82897" lon="2.43249">
        <ele>54</ele>
        <time>2014-05-15T11:29:47Z</time>
      </trkpt>
      <trkpt lat="48.82898" lon="2.43251">
        <ele>54</ele>
        <time>2014-05-15T11:29:48Z</time>
      </trkpt>
      <trkpt lat="48.829" lon="2.43253">
        <ele>55</ele>
        <time>2014-05-15T11:29:49Z</time>
      </trkpt>
      <trkpt lat="48.82901" lon="2.43254">
        <ele>55</ele>
        <time>2014-05-15T11:29:50Z</time>
      </trkpt>
      <trkpt lat="48.82903" lon="2.43256">
        <ele>55</ele>
        <time>2014-05-15T11:29:51Z</time>
      </trkpt>
      <trkpt lat="48.82904" lon="2.43257">
        <ele>55</ele>
        <time>2014-05-15T11:29:52Z</time>
      </trkpt>
      <trkpt lat="48.82905" lon="2.43259">
        <ele>55</ele>
        <time>2014-05-15T11:29:53Z</time>
      </trkpt>
      <trkpt lat="48.82906" lon="2.4326">
        <ele>55</ele>
        <time>2014-05-15T11:29:54Z</time>
      </trkpt>
      <trkpt lat="48.82908" lon="2.43261">
        <ele>55</ele>
        <time>2014-05-15T11:29:55Z</time>
      </trkpt>
      <trkpt lat="48.82909" lon="2.43262">
        <ele>52</ele>
        <time>2014-05-15T11:29:56Z</time>
      </trkpt>
      <trkpt lat="48.8291" lon="2.43262">
        <ele>52</ele>
        <time>2014-05-15T11:29:57Z</time>
      </trkpt>
      <trkpt lat="48.82912" lon="2.43263">
        <ele>50</ele>
        <time>2014-05-15T11:29:58Z</time>
      </trkpt>
      <trkpt lat="48.82913" lon="2.43264">
        <ele>50</ele>
        <time>2014-05-15T11:29:59Z</time>
      </trkpt>
      <trkpt lat="48.82914" lon="2.43264">
        <ele>50</ele>
        <time>2014-05-15T11:30:00Z</time>
      </trkpt>
      <trkpt lat="48.82915" lon="2.43265">
        <ele>50</ele>
        <time>2014-05-15T11:30:01Z</time>
      </trkpt>
      <trkpt lat="48.82917" lon="2.43265">
        <ele>51</ele>
        <time>2014-05-15T11:30:02Z</time>
      </trkpt>
      <trkpt lat="48.82918" lon="2.43265">
        <ele>50</ele>
        <time>2014-05-15T11:30:03Z</time>
      </trkpt>
      <trkpt lat="48.82919" lon="2.43265">
        <ele>51</ele>
        <time>2014-05-15T11:30:04Z</time>
      </trkpt>
      <trkpt lat="48.82919" lon="2.43264">
        <ele>50</ele>
        <time>2014-05-15T11:30:05Z</time>
      </trkpt>
      <trkpt lat="48.8292" lon="2.43264">
        <ele>50</ele>
        <time>2014-05-15T11:30:06Z</time>
      </trkpt>
      <trkpt lat="48.82922" lon="2.43264">
        <ele>49</ele>
        <time>2014-05-15T11:30:07Z</time>
      </trkpt>
      <trkpt lat="48.82923" lon="2.43264">
        <ele>50</ele>
        <time>2014-05-15T11:30:08Z</time>
      </trkpt>
      <trkpt lat="48.82925" lon="2.43264">
        <ele>50</ele>
        <time>2014-05-15T11:30:09Z</time>
      </trkpt>
      <trkpt lat="48.82926" lon="2.43264">
        <ele>51</ele>
        <time>2014-05-15T11:30:10Z</time>
      </trkpt>
      <trkpt lat="48.82928" lon="2.43265">
        <ele>49</ele>
        <time>2014-05-15T11:30:11Z</time>
      </trkpt>
      <trkpt lat="48.8293" lon="2.43265">
        <ele>49</ele>
        <time>2014-05-15T11:30:12Z</time>
      </trkpt>
      <trkpt lat="48.82931" lon="2.43265">
        <ele>47</ele>
        <time>2014-05-15T11:30:13Z</time>
      </trkpt>
      <trkpt lat="48.82932" lon="2.43264">
        <ele>46</ele>
        <time>2014-05-15T11:30:14Z</time>
      </trkpt>
      <trkpt lat="48.82933" lon="2.43265">
        <ele>47</ele>
        <time>2014-05-15T11:30:15Z</time>
      </trkpt>
      <trkpt lat="48.82934" lon="2.43265">
        <ele>46</ele>
        <time>2014-05-15T11:30:16Z</time>
      </trkpt>
      <trkpt lat="48.82934" lon="2.43265">
        <ele>48</ele>
        <time>2014-05-15T11:30:17Z</time>
      </trkpt>
      <trkpt lat="48.82934" lon="2.43265">
        <ele>47</ele>
        <time>2014-05-15T11:30:18Z</time>
      </trkpt>
      <trkpt lat="48.82935" lon="2.43266">
        <ele>47</ele>
        <time>2014-05-15T11:30:19Z</time>
      </trkpt>
      <trkpt lat="48.82936" lon="2.43267">
        <ele>46</ele>
        <time>2014-05-15T11:30:20Z</time>
      </trkpt>
      <trkpt lat="48.82938" lon="2.43267">
        <ele>47</ele>
        <time>2014-05-15T11:30:21Z</time>
      </trkpt>
      <trkpt lat="48.8294" lon="2.43268">
        <ele>47</ele>
        <time>2014-05-15T11:30:22Z</time>
      </trkpt>
      <trkpt lat="48.82943" lon="2.43268">
        <ele>48</ele>
        <time>2014-05-15T11:30:23Z</time>
      </trkpt>
      <trkpt lat="48.82945" lon="2.43268">
        <ele>46</ele>
        <time>2014-05-15T11:30:24Z</time>
      </trkpt>
      <trkpt lat="48.82946" lon="2.43269">
        <ele>47</ele>
        <time>2014-05-15T11:30:25Z</time>
      </trkpt>
      <trkpt lat="48.82948" lon="2.43269">
        <ele>46</ele>
        <time>2014-05-15T11:30:26Z</time>
      </trkpt>
      <trkpt lat="48.8295" lon="2.4327">
        <ele>45</ele>
        <time>2014-05-15T11:30:27Z</time>
      </trkpt>
      <trkpt lat="48.82952" lon="2.4327">
        <ele>45</ele>
        <time>2014-05-15T11:30:28Z</time>
      </trkpt>
      <trkpt lat="48.82953" lon="2.43271">
        <ele>45</ele>
        <time>2014-05-15T11:30:29Z</time>
      </trkpt>
      <trkpt lat="48.82955" lon="2.43271">
        <ele>44</ele>
        <time>2014-05-15T11:30:30Z</time>
      </trkpt>
      <trkpt lat="48.82956" lon="2.43272">
        <ele>50</ele>
        <time>2014-05-15T11:30:31Z</time>
      </trkpt>
      <trkpt lat="48.82958" lon="2.43272">
        <ele>48</ele>
        <time>2014-05-15T11:30:32Z</time>
      </trkpt>
      <trkpt lat="48.82959" lon="2.43272">
        <ele>46</ele>
        <time>2014-05-15T11:30:33Z</time>
      </trkpt>
      <trkpt lat="48.8296" lon="2.43272">
        <ele>45</ele>
        <time>2014-05-15T11:30:34Z</time>
      </trkpt>
      <trkpt lat="48.82962" lon="2.43273">
        <ele>45</ele>
        <time>2014-05-15T11:30:35Z</time>
      </trkpt>
      <trkpt lat="48.82963" lon="2.43273">
        <ele>45</ele>
        <time>2014-05-15T11:30:36Z</time>
      </trkpt>
      <trkpt lat="48.82964" lon="2.43273">
        <ele>44</ele>
        <time>2014-05-15T11:30:37Z</time>
      </trkpt>
      <trkpt lat="48.82966" lon="2.43273">
        <ele>45</ele>
        <time>2014-05-15T11:30:38Z</time>
      </trkpt>
      <trkpt lat="48.82968" lon="2.43274">
        <ele>45</ele>
        <time>2014-05-15T11:30:39Z</time>
      </trkpt>
      <trkpt lat="48.82969" lon="2.43274">
        <ele>45</ele>
        <time>2014-05-15T11:30:40Z</time>
      </trkpt>
      <trkpt lat="48.82971" lon="2.43274">
        <ele>45</ele>
        <time>2014-05-15T11:30:41Z</time>
      </trkpt>
      <trkpt lat="48.82972" lon="2.43274">
        <ele>45</ele>
        <time>2014-05-15T11:30:42Z</time>
      </trkpt>
      <trkpt lat="48.82973" lon="2.43274">
        <ele>44</ele>
        <time>2014-05-15T11:30:43Z</time>
      </trkpt>
      <trkpt lat="48.82974" lon="2.43275">
        <ele>44</ele>
        <time>2014-05-15T11:30:44Z</time>
      </trkpt>
      <trkpt lat="48.82976" lon="2.43276">
        <ele>46</ele>
        <time>2014-05-15T11:30:45Z</time>
      </trkpt>
      <trkpt lat="48.82977" lon="2.43276">
        <ele>46</ele>
        <time>2014-05-15T11:30:46Z</time>
      </trkpt>
      <trkpt lat="48.82979" lon="2.43276">
        <ele>46</ele>
        <time>2014-05-15T11:30:47Z</time>
      </trkpt>
      <trkpt lat="48.8298" lon="2.43277">
        <ele>47</ele>
        <time>2014-05-15T11:30:48Z</time>
      </trkpt>
      <trkpt lat="48.82982" lon="2.43277">
        <ele>46</ele>
        <time>2014-05-15T11:30:49Z</time>
      </trkpt>
      <trkpt lat="48.82983" lon="2.43277">
        <ele>46</ele>
        <time>2014-05-15T11:30:50Z</time>
      </trkpt>
      <trkpt lat="48.82984" lon="2.43279">
        <ele>47</ele>
        <time>2014-05-15T11:30:51Z</time>
      </trkpt>
      <trkpt lat="48.82985" lon="2.4328">
        <ele>48</ele>
        <time>2014-05-15T11:30:52Z</time>
      </trkpt>
      <trkpt lat="48.82986" lon="2.4328">
        <ele>48</ele>
        <time>2014-05-15T11:30:53Z</time>
      </trkpt>
      <trkpt lat="48.82987" lon="2.43281">
        <ele>48</ele>
        <time>2014-05-15T11:30:54Z</time>
      </trkpt>
      <trkpt lat="48.82988" lon="2.43281">
        <ele>49</ele>
        <time>2014-05-15T11:30:55Z</time>
      </trkpt>
      <trkpt lat="48.8299" lon="2.43281">
        <ele>49</ele>
        <time>2014-05-15T11:30:56Z</time>
      </trkpt>
      <trkpt lat="48.82991" lon="2.43281">
        <ele>50</ele>
        <time>2014-05-15T11:30:57Z</time>
      </trkpt>
      <trkpt lat="48.82992" lon="2.43281">
        <ele>50</ele>
        <time>2014-05-15T11:30:58Z</time>
      </trkpt>
      <trkpt lat="48.82993" lon="2.43281">
        <ele>51</ele>
        <time>2014-05-15T11:30:59Z</time>
      </trkpt>
      <trkpt lat="48.82995" lon="2.43282">
        <ele>50</ele>
        <time>2014-05-15T11:31:00Z</time>
      </trkpt>
      <trkpt lat="48.82996" lon="2.43283">
        <ele>47</ele>
        <time>2014-05-15T11:31:01Z</time>
      </trkpt>
      <trkpt lat="48.82998" lon="2.43283">
        <ele>48</ele>
        <time>2014-05-15T11:31:02Z</time>
      </trkpt>
      <trkpt lat="48.82999" lon="2.43284">
        <ele>49</ele>
        <time>2014-05-15T11:31:03Z</time>
      </trkpt>
      <trkpt lat="48.83001" lon="2.43284">
        <ele>49</ele>
        <time>2014-05-15T11:31:04Z</time>
      </trkpt>
      <trkpt lat="48.83003" lon="2.43284">
        <ele>47</ele>
        <time>2014-05-15T11:31:05Z</time>
      </trkpt>
      <trkpt lat="48.83004" lon="2.43284">
        <ele>47</ele>
        <time>2014-05-15T11:31:06Z</time>
      </trkpt>
      <trkpt lat="48.83006" lon="2.43284">
        <ele>48</ele>
        <time>2014-05-15T11:31:07Z</time>
      </trkpt>
      <trkpt lat="48.83007" lon="2.43285">
        <ele>49</ele>
        <time>2014-05-15T11:31:08Z</time>
      </trkpt>
      <trkpt lat="48.83008" lon="2.43285">
        <ele>48</ele>
        <time>2014-05-15T11:31:09Z</time>
      </trkpt>
      <trkpt lat="48.8301" lon="2.43286">
        <ele>48</ele>
        <time>2014-05-15T11:31:10Z</time>
      </trkpt>
      <trkpt lat="48.83011" lon="2.43286">
        <ele>47</ele>
        <time>2014-05-15T11:31:11Z</time>
      </trkpt>
      <trkpt lat="48.83012" lon="2.43287">
        <ele>48</ele>
        <time>2014-05-15T11:31:12Z</time>
      </trkpt>
      <trkpt lat="48.83014" lon="2.43287">
        <ele>48</ele>
        <time>2014-05-15T11:31:13Z</time>
      </trkpt>
      <trkpt lat="48.83015" lon="2.43288">
        <ele>48</ele>
        <time>2014-05-15T11:31:14Z</time>
      </trkpt>
      <trkpt lat="48.83016" lon="2.43288">
        <ele>48</ele>
        <time>2014-05-15T11:31:15Z</time>
      </trkpt>
      <trkpt lat="48.83018" lon="2.43288">
        <ele>48</ele>
        <time>2014-05-15T11:31:16Z</time>
      </trkpt>
      <trkpt lat="48.83019" lon="2.43289">
        <ele>50</ele>
        <time>2014-05-15T11:31:17Z</time>
      </trkpt>
      <trkpt lat="48.8302" lon="2.43289">
        <ele>49</ele>
        <time>2014-05-15T11:31:18Z</time>
      </trkpt>
      <trkpt lat="48.83022" lon="2.4329">
        <ele>51</ele>
        <time>2014-05-15T11:31:19Z</time>
      </trkpt>
      <trkpt lat="48.83023" lon="2.4329">
        <ele>51</ele>
        <time>2014-05-15T11:31:20Z</time>
      </trkpt>
      <trkpt lat="48.83025" lon="2.43291">
        <ele>50</ele>
        <time>2014-05-15T11:31:21Z</time>
      </trkpt>
      <trkpt lat="48.83026" lon="2.43291">
        <ele>50</ele>
        <time>2014-05-15T11:31:22Z</time>
      </trkpt>
      <trkpt lat="48.83028" lon="2.43291">
        <ele>50</ele>
        <time>2014-05-15T11:31:23Z</time>
      </trkpt>
      <trkpt lat="48.83029" lon="2.43291">
        <ele>49</ele>
        <time>2014-05-15T11:31:24Z</time>
      </trkpt>
      <trkpt lat="48.83031" lon="2.43291">
        <ele>49</ele>
        <time>2014-05-15T11:31:25Z</time>
      </trkpt>
      <trkpt lat="48.83032" lon="2.43291">
        <ele>50</ele>
        <time>2014-05-15T11:31:26Z</time>
      </trkpt>
      <trkpt lat="48.83033" lon="2.43291">
        <ele>50</ele>
        <time>2014-05-15T11:31:27Z</time>
      </trkpt>
      <trkpt lat="48.83035" lon="2.43292">
        <ele>50</ele>
        <time>2014-05-15T11:31:28Z</time>
      </trkpt>
      <trkpt lat="48.83036" lon="2.43292">
        <ele>49</ele>
        <time>2014-05-15T11:31:29Z</time>
      </trkpt>
      <trkpt lat="48.83038" lon="2.43292">
        <ele>48</ele>
        <time>2014-05-15T11:31:30Z</time>
      </trkpt>
      <trkpt lat="48.83039" lon="2.43292">
        <ele>47</ele>
        <time>2014-05-15T11:31:31Z</time>
      </trkpt>
      <trkpt lat="48.83039" lon="2.43292">
        <ele>48</ele>
        <time>2014-05-15T11:31:32Z</time>
      </trkpt>
      <trkpt lat="48.8304" lon="2.43292">
        <ele>47</ele>
        <time>2014-05-15T11:31:33Z</time>
      </trkpt>
      <trkpt lat="48.83041" lon="2.43293">
        <ele>47</ele>
        <time>2014-05-15T11:31:34Z</time>
      </trkpt>
      <trkpt lat="48.83042" lon="2.43293">
        <ele>47</ele>
        <time>2014-05-15T11:31:35Z</time>
      </trkpt>
      <trkpt lat="48.83042" lon="2.43293">
        <ele>47</ele>
        <time>2014-05-15T11:31:36Z</time>
      </trkpt>
      <trkpt lat="48.83042" lon="2.43293">
        <ele>47</ele>
        <time>2014-05-15T11:31:37Z</time>
      </trkpt>
      <trkpt lat="48.83043" lon="2.43293">
        <ele>47</ele>
        <time>2014-05-15T11:31:38Z</time>
      </trkpt>
      <trkpt lat="48.83043" lon="2.43294">
        <ele>46</ele>
        <time>2014-05-15T11:31:39Z</time>
      </trkpt>
      <trkpt lat="48.83044" lon="2.43294">
        <ele>46</ele>
        <time>2014-05-15T11:31:40Z</time>
      </trkpt>
      <trkpt lat="48.83045" lon="2.43295">
        <ele>45</ele>
        <time>2014-05-15T11:31:41Z</time>
      </trkpt>
      <trkpt lat="48.83046" lon="2.43297">
        <ele>46</ele>
        <time>2014-05-15T11:31:42Z</time>
      </trkpt>
      <trkpt lat="48.83047" lon="2.43298">
        <ele>47</ele>
        <time>2014-05-15T11:31:43Z</time>
      </trkpt>
      <trkpt lat="48.83048" lon="2.43301">
        <ele>47</ele>
        <time>2014-05-15T11:31:44Z</time>
      </trkpt>
      <trkpt lat="48.83049" lon="2.43304">
        <ele>47</ele>
        <time>2014-05-15T11:31:45Z</time>
      </trkpt>
      <trkpt lat="48.8305" lon="2.43306">
        <ele>47</ele>
        <time>2014-05-15T11:31:46Z</time>
      </trkpt>
      <trkpt lat="48.83051" lon="2.43308">
        <ele>47</ele>
        <time>2014-05-15T11:31:47Z</time>
      </trkpt>
      <trkpt lat="48.83053" lon="2.43309">
        <ele>47</ele>
        <time>2014-05-15T11:31:48Z</time>
      </trkpt>
      <trkpt lat="48.83055" lon="2.43309">
        <ele>47</ele>
        <time>2014-05-15T11:31:49Z</time>
      </trkpt>
      <trkpt lat="48.83057" lon="2.4331">
        <ele>47</ele>
        <time>2014-05-15T11:31:50Z</time>
      </trkpt>
      <trkpt lat="48.83058" lon="2.4331">
        <ele>47</ele>
        <time>2014-05-15T11:31:51Z</time>
      </trkpt>
      <trkpt lat="48.83059" lon="2.4331">
        <ele>48</ele>
        <time>2014-05-15T11:31:52Z</time>
      </trkpt>
      <trkpt lat="48.8306" lon="2.4331">
        <ele>48</ele>
        <time>2014-05-15T11:31:53Z</time>
      </trkpt>
      <trkpt lat="48.83062" lon="2.4331">
        <ele>49</ele>
        <time>2014-05-15T11:31:54Z</time>
      </trkpt>
      <trkpt lat="48.83063" lon="2.4331">
        <ele>49</ele>
        <time>2014-05-15T11:31:55Z</time>
      </trkpt>
      <trkpt lat="48.83065" lon="2.43311">
        <ele>50</ele>
        <time>2014-05-15T11:31:56Z</time>
      </trkpt>
      <trkpt lat="48.83067" lon="2.43311">
        <ele>49</ele>
        <time>2014-05-15T11:31:57Z</time>
      </trkpt>
      <trkpt lat="48.83068" lon="2.43312">
        <ele>50</ele>
        <time>2014-05-15T11:31:58Z</time>
      </trkpt>
      <trkpt lat="48.83069" lon="2.43312">
        <ele>49</ele>
        <time>2014-05-15T11:31:59Z</time>
      </trkpt>
      <trkpt lat="48.83071" lon="2.43313">
        <ele>48</ele>
        <time>2014-05-15T11:32:00Z</time>
      </trkpt>
      <trkpt lat="48.83072" lon="2.43313">
        <ele>48</ele>
        <time>2014-05-15T11:32:01Z</time>
      </trkpt>
      <trkpt lat="48.83073" lon="2.43314">
        <ele>47</ele>
        <time>2014-05-15T11:32:02Z</time>
      </trkpt>
      <trkpt lat="48.83075" lon="2.43314">
        <ele>48</ele>
        <time>2014-05-15T11:32:03Z</time>
      </trkpt>
      <trkpt lat="48.83076" lon="2.43314">
        <ele>47</ele>
        <time>2014-05-15T11:32:04Z</time>
      </trkpt>
      <trkpt lat="48.83078" lon="2.43314">
        <ele>46</ele>
        <time>2014-05-15T11:32:05Z</time>
      </trkpt>
      <trkpt lat="48.83079" lon="2.43315">
        <ele>47</ele>
        <time>2014-05-15T11:32:06Z</time>
      </trkpt>
      <trkpt lat="48.83081" lon="2.43315">
        <ele>46</ele>
        <time>2014-05-15T11:32:07Z</time>
      </trkpt>
      <trkpt lat="48.83082" lon="2.43315">
        <ele>45</ele>
        <time>2014-05-15T11:32:08Z</time>
      </trkpt>
      <trkpt lat="48.83084" lon="2.43316">
        <ele>46</ele>
        <time>2014-05-15T11:32:09Z</time>
      </trkpt>
      <trkpt lat="48.83085" lon="2.43317">
        <ele>46</ele>
        <time>2014-05-15T11:32:10Z</time>
      </trkpt>
      <trkpt lat="48.83086" lon="2.43317">
        <ele>46</ele>
        <time>2014-05-15T11:32:11Z</time>
      </trkpt>
      <trkpt lat="48.83088" lon="2.43317">
        <ele>47</ele>
        <time>2014-05-15T11:32:12Z</time>
      </trkpt>
      <trkpt lat="48.83089" lon="2.43317">
        <ele>46</ele>
        <time>2014-05-15T11:32:13Z</time>
      </trkpt>
      <trkpt lat="48.83091" lon="2.43317">
        <ele>47</ele>
        <time>2014-05-15T11:32:14Z</time>
      </trkpt>
      <trkpt lat="48.83093" lon="2.43318">
        <ele>47</ele>
        <time>2014-05-15T11:32:15Z</time>
      </trkpt>
      <trkpt lat="48.83094" lon="2.43318">
        <ele>47</ele>
        <time>2014-05-15T11:32:16Z</time>
      </trkpt>
      <trkpt lat="48.83096" lon="2.43319">
        <ele>47</ele>
        <time>2014-05-15T11:32:17Z</time>
      </trkpt>
      <trkpt lat="48.83097" lon="2.43319">
        <ele>47</ele>
        <time>2014-05-15T11:32:18Z</time>
      </trkpt>
      <trkpt lat="48.83099" lon="2.43319">
        <ele>48</ele>
        <time>2014-05-15T11:32:19Z</time>
      </trkpt>
      <trkpt lat="48.831" lon="2.4332">
        <ele>47</ele>
        <time>2014-05-15T11:32:20Z</time>
      </trkpt>
      <trkpt lat="48.83102" lon="2.4332">
        <ele>48</ele>
        <time>2014-05-15T11:32:21Z</time>
      </trkpt>
      <trkpt lat="48.83103" lon="2.4332">
        <ele>49</ele>
        <time>2014-05-15T11:32:22Z</time>
      </trkpt>
      <trkpt lat="48.83104" lon="2.43321">
        <ele>49</ele>
        <time>2014-05-15T11:32:23Z</time>
      </trkpt>
      <trkpt lat="48.83106" lon="2.43321">
        <ele>50</ele>
        <time>2014-05-15T11:32:24Z</time>
      </trkpt>
      <trkpt lat="48.83107" lon="2.43322">
        <ele>50</ele>
        <time>2014-05-15T11:32:25Z</time>
      </trkpt>
      <trkpt lat="48.83108" lon="2.43322">
        <ele>50</ele>
        <time>2014-05-15T11:32:26Z</time>
      </trkpt>
      <trkpt lat="48.83109" lon="2.43322">
        <ele>49</ele>
        <time>2014-05-15T11:32:27Z</time>
      </trkpt>
      <trkpt lat="48.83111" lon="2.43323">
        <ele>48</ele>
        <time>2014-05-15T11:32:28Z</time>
      </trkpt>
      <trkpt lat="48.83113" lon="2.43323">
        <ele>48</ele>
        <time>2014-05-15T11:32:29Z</time>
      </trkpt>
      <trkpt lat="48.83114" lon="2.43323">
        <ele>47</ele>
        <time>2014-05-15T11:32:30Z</time>
      </trkpt>
      <trkpt lat="48.83116" lon="2.43323">
        <ele>47</ele>
        <time>2014-05-15T11:32:31Z</time>
      </trkpt>
      <trkpt lat="48.83117" lon="2.43324">
        <ele>47</ele>
        <time>2014-05-15T11:32:32Z</time>
      </trkpt>
      <trkpt lat="48.83119" lon="2.43324">
        <ele>48</ele>
        <time>2014-05-15T11:32:33Z</time>
      </trkpt>
      <trkpt lat="48.83121" lon="2.43324">
        <ele>47</ele>
        <time>2014-05-15T11:32:34Z</time>
      </trkpt>
      <trkpt lat="48.83123" lon="2.43324">
        <ele>48</ele>
        <time>2014-05-15T11:32:35Z</time>
      </trkpt>
      <trkpt lat="48.83124" lon="2.43325">
        <ele>48</ele>
        <time>2014-05-15T11:32:36Z</time>
      </trkpt>
      <trkpt lat="48.83126" lon="2.43324">
        <ele>46</ele>
        <time>2014-05-15T11:32:37Z</time>
      </trkpt>
      <trkpt lat="48.83128" lon="2.43324">
        <ele>46</ele>
        <time>2014-05-15T11:32:38Z</time>
      </trkpt>
      <trkpt lat="48.8313" lon="2.43324">
        <ele>45</ele>
        <time>2014-05-15T11:32:39Z</time>
      </trkpt>
      <trkpt lat="48.83132" lon="2.43324">
        <ele>46</ele>
        <time>2014-05-15T11:32:40Z</time>
      </trkpt>
      <trkpt lat="48.83133" lon="2.43324">
        <ele>46</ele>
        <time>2014-05-15T11:32:41Z</time>
      </trkpt>
      <trkpt lat="48.83135" lon="2.43325">
        <ele>48</ele>
        <time>2014-05-15T11:32:42Z</time>
      </trkpt>
      <trkpt lat="48.83136" lon="2.43325">
        <ele>48</ele>
        <time>2014-05-15T11:32:43Z</time>
      </trkpt>
      <trkpt lat="48.83138" lon="2.43325">
        <ele>46</ele>
        <time>2014-05-15T11:32:44Z</time>
      </trkpt>
      <trkpt lat="48.8314" lon="2.43325">
        <ele>46</ele>
        <time>2014-05-15T11:32:45Z</time>
      </trkpt>
      <trkpt lat="48.83141" lon="2.43325">
        <ele>45</ele>
        <time>2014-05-15T11:32:46Z</time>
      </trkpt>
      <trkpt lat="48.83142" lon="2.43325">
        <ele>43</ele>
        <time>2014-05-15T11:32:47Z</time>
      </trkpt>
      <trkpt lat="48.83143" lon="2.43326">
        <ele>43</ele>
        <time>2014-05-15T11:32:48Z</time>
      </trkpt>
      <trkpt lat="48.83144" lon="2.43326">
        <ele>42</ele>
        <time>2014-05-15T11:32:49Z</time>
      </trkpt>
      <trkpt lat="48.83145" lon="2.43326">
        <ele>42</ele>
        <time>2014-05-15T11:32:50Z</time>
      </trkpt>
      <trkpt lat="48.83147" lon="2.43326">
        <ele>43</ele>
        <time>2014-05-15T11:32:51Z</time>
      </trkpt>
      <trkpt lat="48.83148" lon="2.43327">
        <ele>43</ele>
        <time>2014-05-15T11:32:52Z</time>
      </trkpt>
      <trkpt lat="48.83149" lon="2.43327">
        <ele>43</ele>
        <time>2014-05-15T11:32:53Z</time>
      </trkpt>
      <trkpt lat="48.83151" lon="2.43327">
        <ele>42</ele>
        <time>2014-05-15T11:32:54Z</time>
      </trkpt>
      <trkpt lat="48.83152" lon="2.43328">
        <ele>43</ele>
        <time>2014-05-15T11:32:55Z</time>
      </trkpt>
      <trkpt lat="48.83153" lon="2.43328">
        <ele>43</ele>
        <time>2014-05-15T11:32:56Z</time>
      </trkpt>
      <trkpt lat="48.83155" lon="2.43329">
        <ele>44</ele>
        <time>2014-05-15T11:32:57Z</time>
      </trkpt>
      <trkpt lat="48.83156" lon="2.4333">
        <ele>43</ele>
        <time>2014-05-15T11:32:58Z</time>
      </trkpt>
      <trkpt lat="48.83157" lon="2.4333">
        <ele>42</ele>
        <time>2014-05-15T11:32:59Z</time>
      </trkpt>
      <trkpt lat="48.83159" lon="2.4333">
        <ele>43</ele>
        <time>2014-05-15T11:33:00Z</time>
      </trkpt>
      <trkpt lat="48.8316" lon="2.4333">
        <ele>43</ele>
        <time>2014-05-15T11:33:01Z</time>
      </trkpt>
      <trkpt lat="48.83162" lon="2.4333">
        <ele>44</ele>
        <time>2014-05-15T11:33:02Z</time>
      </trkpt>
      <trkpt lat="48.83163" lon="2.4333">
        <ele>44</ele>
        <time>2014-05-15T11:33:03Z</time>
      </trkpt>
      <trkpt lat="48.83164" lon="2.43331">
        <ele>44</ele>
        <time>2014-05-15T11:33:04Z</time>
      </trkpt>
      <trkpt lat="48.83166" lon="2.43331">
        <ele>44</ele>
        <time>2014-05-15T11:33:05Z</time>
      </trkpt>
      <trkpt lat="48.83167" lon="2.4333">
        <ele>43</ele>
        <time>2014-05-15T11:33:06Z</time>
      </trkpt>
      <trkpt lat="48.83168" lon="2.4333">
        <ele>44</ele>
        <time>2014-05-15T11:33:07Z</time>
      </trkpt>
      <trkpt lat="48.8317" lon="2.4333">
        <ele>44</ele>
        <time>2014-05-15T11:33:08Z</time>
      </trkpt>
      <trkpt lat="48.83171" lon="2.4333">
        <ele>44</ele>
        <time>2014-05-15T11:33:09Z</time>
      </trkpt>
      <trkpt lat="48.83173" lon="2.43331">
        <ele>44</ele>
        <time>2014-05-15T11:33:10Z</time>
      </trkpt>
      <trkpt lat="48.83174" lon="2.43331">
        <ele>44</ele>
        <time>2014-05-15T11:33:11Z</time>
      </trkpt>
      <trkpt lat="48.83176" lon="2.43332">
        <ele>44</ele>
        <time>2014-05-15T11:33:12Z</time>
      </trkpt>
      <trkpt lat="48.83177" lon="2.43333">
        <ele>45</ele>
        <time>2014-05-15T11:33:13Z</time>
      </trkpt>
      <trkpt lat="48.83178" lon="2.43333">
        <ele>45</ele>
        <time>2014-05-15T11:33:14Z</time>
      </trkpt>
      <trkpt lat="48.83178" lon="2.43334">
        <ele>46</ele>
        <time>2014-05-15T11:33:15Z</time>
      </trkpt>
      <trkpt lat="48.83179" lon="2.43334">
        <ele>45</ele>
        <time>2014-05-15T11:33:16Z</time>
      </trkpt>
      <trkpt lat="48.8318" lon="2.43334">
        <ele>46</ele>
        <time>2014-05-15T11:33:17Z</time>
      </trkpt>
      <trkpt lat="48.83181" lon="2.43334">
        <ele>46</ele>
        <time>2014-05-15T11:33:18Z</time>
      </trkpt>
      <trkpt lat="48.83182" lon="2.43334">
        <ele>47</ele>
        <time>2014-05-15T11:33:19Z</time>
      </trkpt>
      <trkpt lat="48.83184" lon="2.43335">
        <ele>47</ele>
        <time>2014-05-15T11:33:20Z</time>
      </trkpt>
      <trkpt lat="48.83185" lon="2.43335">
        <ele>46</ele>
        <time>2014-05-15T11:33:21Z</time>
      </trkpt>
      <trkpt lat="48.83186" lon="2.43335">
        <ele>46</ele>
        <time>2014-05-15T11:33:22Z</time>
      </trkpt>
      <trkpt lat="48.83188" lon="2.43336">
        <ele>47</ele>
        <time>2014-05-15T11:33:23Z</time>
      </trkpt>
      <trkpt lat="48.83189" lon="2.43336">
        <ele>47</ele>
        <time>2014-05-15T11:33:24Z</time>
      </trkpt>
      <trkpt lat="48.83191" lon="2.43337">
        <ele>46</ele>
        <time>2014-05-15T11:33:25Z</time>
      </trkpt>
      <trkpt lat="48.83193" lon="2.43337">
        <ele>45</ele>
        <time>2014-05-15T11:33:26Z</time>
      </trkpt>
      <trkpt lat="48.83195" lon="2.43338">
        <ele>45</ele>
        <time>2014-05-15T11:33:27Z</time>
      </trkpt>
      <trkpt lat="48.83197" lon="2.43338">
        <ele>45</ele>
        <time>2014-05-15T11:33:28Z</time>
      </trkpt>
      <trkpt lat="48.83199" lon="2.43338">
        <ele>45</ele>
        <time>2014-05-15T11:33:29Z</time>
      </trkpt>
      <trkpt lat="48.832" lon="2.43338">
        <ele>46</ele>
        <time>2014-05-15T11:33:30Z</time>
      </trkpt>
      <trkpt lat="48.832" lon="2.43339">
        <ele>46</ele>
        <time>2014-05-15T11:33:31Z</time>
      </trkpt>
      <trkpt lat="48.83201" lon="2.43339">
        <ele>46</ele>
        <time>2014-05-15T11:33:32Z</time>
      </trkpt>
      <trkpt lat="48.83202" lon="2.43339">
        <ele>46</ele>
        <time>2014-05-15T11:33:33Z</time>
      </trkpt>
      <trkpt lat="48.83202" lon="2.43339">
        <ele>47</ele>
        <time>2014-05-15T11:33:34Z</time>
      </trkpt>
      <trkpt lat="48.83204" lon="2.4334">
        <ele>46</ele>
        <time>2014-05-15T11:33:35Z</time>
      </trkpt>
      <trkpt lat="48.83205" lon="2.43341">
        <ele>45</ele>
        <time>2014-05-15T11:33:36Z</time>
      </trkpt>
      <trkpt lat="48.83207" lon="2.43341">
        <ele>46</ele>
        <time>2014-05-15T11:33:37Z</time>
      </trkpt>
      <trkpt lat="48.83209" lon="2.43341">
        <ele>46</ele>
        <time>2014-05-15T11:33:38Z</time>
      </trkpt>
      <trkpt lat="48.8321" lon="2.43342">
        <ele>46</ele>
        <time>2014-05-15T11:33:39Z</time>
      </trkpt>
      <trkpt lat="48.83212" lon="2.43342">
        <ele>46</ele>
        <time>2014-05-15T11:33:40Z</time>
      </trkpt>
      <trkpt lat="48.83214" lon="2.43342">
        <ele>47</ele>
        <time>2014-05-15T11:33:41Z</time>
      </trkpt>
      <trkpt lat="48.83216" lon="2.43343">
        <ele>47</ele>
        <time>2014-05-15T11:33:42Z</time>
      </trkpt>
      <trkpt lat="48.83217" lon="2.43343">
        <ele>45</ele>
        <time>2014-05-15T11:33:43Z</time>
      </trkpt>
      <trkpt lat="48.83219" lon="2.43344">
        <ele>44</ele>
        <time>2014-05-15T11:33:44Z</time>
      </trkpt>
      <trkpt lat="48.83221" lon="2.43344">
        <ele>44</ele>
        <time>2014-05-15T11:33:45Z</time>
      </trkpt>
      <trkpt lat="48.83223" lon="2.43345">
        <ele>44</ele>
        <time>2014-05-15T11:33:46Z</time>
      </trkpt>
      <trkpt lat="48.83225" lon="2.43345">
        <ele>45</ele>
        <time>2014-05-15T11:33:47Z</time>
      </trkpt>
      <trkpt lat="48.83227" lon="2.43345">
        <ele>46</ele>
        <time>2014-05-15T11:33:48Z</time>
      </trkpt>
      <trkpt lat="48.83229" lon="2.43346">
        <ele>46</ele>
        <time>2014-05-15T11:33:49Z</time>
      </trkpt>
      <trkpt lat="48.8323" lon="2.43346">
        <ele>46</ele>
        <time>2014-05-15T11:33:50Z</time>
      </trkpt>
      <trkpt lat="48.83232" lon="2.43347">
        <ele>46</ele>
        <time>2014-05-15T11:33:51Z</time>
      </trkpt>
      <trkpt lat="48.83233" lon="2.43348">
        <ele>46</ele>
        <time>2014-05-15T11:33:52Z</time>
      </trkpt>
      <trkpt lat="48.83235" lon="2.43348">
        <ele>46</ele>
        <time>2014-05-15T11:33:53Z</time>
      </trkpt>
      <trkpt lat="48.83236" lon="2.43349">
        <ele>46</ele>
        <time>2014-05-15T11:33:54Z</time>
      </trkpt>
      <trkpt lat="48.83236" lon="2.43349">
        <ele>46</ele>
        <time>2014-05-15T11:33:55Z</time>
      </trkpt>
      <trkpt lat="48.83237" lon="2.43349">
        <ele>46</ele>
        <time>2014-05-15T11:33:56Z</time>
      </trkpt>
      <trkpt lat="48.83237" lon="2.43349">
        <ele>46</ele>
        <time>2014-05-15T11:33:57Z</time>
      </trkpt>
      <trkpt lat="48.83239" lon="2.4335">
        <ele>47</ele>
        <time>2014-05-15T11:33:58Z</time>
      </trkpt>
      <trkpt lat="48.8324" lon="2.4335">
        <ele>47</ele>
        <time>2014-05-15T11:33:59Z</time>
      </trkpt>
      <trkpt lat="48.83242" lon="2.4335">
        <ele>46</ele>
        <time>2014-05-15T11:34:00Z</time>
      </trkpt>
      <trkpt lat="48.83244" lon="2.4335">
        <ele>46</ele>
        <time>2014-05-15T11:34:01Z</time>
      </trkpt>
      <trkpt lat="48.83245" lon="2.4335">
        <ele>46</ele>
        <time>2014-05-15T11:34:02Z</time>
      </trkpt>
      <trkpt lat="48.83247" lon="2.4335">
        <ele>47</ele>
        <time>2014-05-15T11:34:03Z</time>
      </trkpt>
      <trkpt lat="48.83249" lon="2.4335">
        <ele>46</ele>
        <time>2014-05-15T11:34:04Z</time>
      </trkpt>
      <trkpt lat="48.83251" lon="2.4335">
        <ele>46</ele>
        <time>2014-05-15T11:34:05Z</time>
      </trkpt>
      <trkpt lat="48.83253" lon="2.4335">
        <ele>45</ele>
        <time>2014-05-15T11:34:06Z</time>
      </trkpt>
      <trkpt lat="48.83254" lon="2.4335">
        <ele>45</ele>
        <time>2014-05-15T11:34:07Z</time>
      </trkpt>
      <trkpt lat="48.83256" lon="2.4335">
        <ele>46</ele>
        <time>2014-05-15T11:34:08Z</time>
      </trkpt>
      <trkpt lat="48.83257" lon="2.43351">
        <ele>47</ele>
        <time>2014-05-15T11:34:09Z</time>
      </trkpt>
      <trkpt lat="48.83259" lon="2.4335">
        <ele>46</ele>
        <time>2014-05-15T11:34:10Z</time>
      </trkpt>
      <trkpt lat="48.83261" lon="2.4335">
        <ele>47</ele>
        <time>2014-05-15T11:34:11Z</time>
      </trkpt>
      <trkpt lat="48.83263" lon="2.4335">
        <ele>46</ele>
        <time>2014-05-15T11:34:12Z</time>
      </trkpt>
      <trkpt lat="48.83264" lon="2.43351">
        <ele>47</ele>
        <time>2014-05-15T11:34:13Z</time>
      </trkpt>
      <trkpt lat="48.83266" lon="2.43351">
        <ele>47</ele>
        <time>2014-05-15T11:34:14Z</time>
      </trkpt>
      <trkpt lat="48.83267" lon="2.43352">
        <ele>47</ele>
        <time>2014-05-15T11:34:15Z</time>
      </trkpt>
      <trkpt lat="48.83269" lon="2.43352">
        <ele>48</ele>
        <time>2014-05-15T11:34:16Z</time>
      </trkpt>
      <trkpt lat="48.8327" lon="2.43353">
        <ele>49</ele>
        <time>2014-05-15T11:34:17Z</time>
      </trkpt>
      <trkpt lat="48.83272" lon="2.43353">
        <ele>50</ele>
        <time>2014-05-15T11:34:18Z</time>
      </trkpt>
      <trkpt lat="48.83273" lon="2.43354">
        <ele>49</ele>
        <time>2014-05-15T11:34:19Z</time>
      </trkpt>
      <trkpt lat="48.83275" lon="2.43354">
        <ele>49</ele>
        <time>2014-05-15T11:34:20Z</time>
      </trkpt>
      <trkpt lat="48.83276" lon="2.43354">
        <ele>49</ele>
        <time>2014-05-15T11:34:21Z</time>
      </trkpt>
      <trkpt lat="48.83277" lon="2.43355">
        <ele>48</ele>
        <time>2014-05-15T11:34:22Z</time>
      </trkpt>
      <trkpt lat="48.83279" lon="2.43356">
        <ele>47</ele>
        <time>2014-05-15T11:34:23Z</time>
      </trkpt>
      <trkpt lat="48.8328" lon="2.43356">
        <ele>47</ele>
        <time>2014-05-15T11:34:24Z</time>
      </trkpt>
      <trkpt lat="48.83281" lon="2.43357">
        <ele>47</ele>
        <time>2014-05-15T11:34:25Z</time>
      </trkpt>
      <trkpt lat="48.83282" lon="2.43358">
        <ele>47</ele>
        <time>2014-05-15T11:34:26Z</time>
      </trkpt>
      <trkpt lat="48.83283" lon="2.43359">
        <ele>47</ele>
        <time>2014-05-15T11:34:27Z</time>
      </trkpt>
      <trkpt lat="48.83285" lon="2.43359">
        <ele>48</ele>
        <time>2014-05-15T11:34:28Z</time>
      </trkpt>
      <trkpt lat="48.83286" lon="2.43359">
        <ele>47</ele>
        <time>2014-05-15T11:34:29Z</time>
      </trkpt>
      <trkpt lat="48.83287" lon="2.4336">
        <ele>46</ele>
        <time>2014-05-15T11:34:30Z</time>
      </trkpt>
      <trkpt lat="48.83288" lon="2.4336">
        <ele>46</ele>
        <time>2014-05-15T11:34:31Z</time>
      </trkpt>
      <trkpt lat="48.8329" lon="2.43361">
        <ele>46</ele>
        <time>2014-05-15T11:34:32Z</time>
      </trkpt>
      <trkpt lat="48.83291" lon="2.43361">
        <ele>46</ele>
        <time>2014-05-15T11:34:33Z</time>
      </trkpt>
      <trkpt lat="48.83293" lon="2.43361">
        <ele>46</ele>
        <time>2014-05-15T11:34:34Z</time>
      </trkpt>
      <trkpt lat="48.83294" lon="2.43361">
        <ele>46</ele>
        <time>2014-05-15T11:34:35Z</time>
      </trkpt>
      <trkpt lat="48.83296" lon="2.43361">
        <ele>46</ele>
        <time>2014-05-15T11:34:36Z</time>
      </trkpt>
      <trkpt lat="48.83297" lon="2.43361">
        <ele>46</ele>
        <time>2014-05-15T11:34:37Z</time>
      </trkpt>
      <trkpt lat="48.83299" lon="2.43361">
        <ele>46</ele>
        <time>2014-05-15T11:34:38Z</time>
      </trkpt>
      <trkpt lat="48.83301" lon="2.43362">
        <ele>45</ele>
        <time>2014-05-15T11:34:39Z</time>
      </trkpt>
      <trkpt lat="48.83302" lon="2.43361">
        <ele>45</ele>
        <time>2014-05-15T11:34:40Z</time>
      </trkpt>
      <trkpt lat="48.83302" lon="2.43361">
        <ele>45</ele>
        <time>2014-05-15T11:34:41Z</time>
      </trkpt>
      <trkpt lat="48.83303" lon="2.43361">
        <ele>45</ele>
        <time>2014-05-15T11:34:42Z</time>
      </trkpt>
      <trkpt lat="48.83304" lon="2.43362">
        <ele>45</ele>
        <time>2014-05-15T11:34:43Z</time>
      </trkpt>
      <trkpt lat="48.83305" lon="2.43362">
        <ele>46</ele>
        <time>2014-05-15T11:34:44Z</time>
      </trkpt>
      <trkpt lat="48.83306" lon="2.43362">
        <ele>45</ele>
        <time>2014-05-15T11:34:45Z</time>
      </trkpt>
      <trkpt lat="48.83306" lon="2.43363">
        <ele>45</ele>
        <time>2014-05-15T11:34:46Z</time>
      </trkpt>
      <trkpt lat="48.83307" lon="2.43363">
        <ele>45</ele>
        <time>2014-05-15T11:34:47Z</time>
      </trkpt>
      <trkpt lat="48.83309" lon="2.43364">
        <ele>45</ele>
        <time>2014-05-15T11:34:48Z</time>
      </trkpt>
      <trkpt lat="48.8331" lon="2.43364">
        <ele>45</ele>
        <time>2014-05-15T11:34:49Z</time>
      </trkpt>
      <trkpt lat="48.83312" lon="2.43365">
        <ele>45</ele>
        <time>2014-05-15T11:34:50Z</time>
      </trkpt>
      <trkpt lat="48.83314" lon="2.43365">
        <ele>45</ele>
        <time>2014-05-15T11:34:51Z</time>
      </trkpt>
      <trkpt lat="48.83315" lon="2.43365">
        <ele>45</ele>
        <time>2014-05-15T11:34:52Z</time>
      </trkpt>
      <trkpt lat="48.83317" lon="2.43366">
        <ele>47</ele>
        <time>2014-05-15T11:34:53Z</time>
      </trkpt>
      <trkpt lat="48.83317" lon="2.43366">
        <ele>47</ele>
        <time>2014-05-15T11:34:54Z</time>
      </trkpt>
      <trkpt lat="48.83318" lon="2.43367">
        <ele>48</ele>
        <time>2014-05-15T11:34:55Z</time>
      </trkpt>
      <trkpt lat="48.83319" lon="2.43367">
        <ele>46</ele>
        <time>2014-05-15T11:34:56Z</time>
      </trkpt>
      <trkpt lat="48.8332" lon="2.43367">
        <ele>46</ele>
        <time>2014-05-15T11:34:57Z</time>
      </trkpt>
      <trkpt lat="48.83321" lon="2.43367">
        <ele>47</ele>
        <time>2014-05-15T11:34:58Z</time>
      </trkpt>
      <trkpt lat="48.83322" lon="2.43367">
        <ele>47</ele>
        <time>2014-05-15T11:34:59Z</time>
      </trkpt>
      <trkpt lat="48.83323" lon="2.43367">
        <ele>47</ele>
        <time>2014-05-15T11:35:00Z</time>
      </trkpt>
      <trkpt lat="48.83324" lon="2.43367">
        <ele>46</ele>
        <time>2014-05-15T11:35:01Z</time>
      </trkpt>
      <trkpt lat="48.83325" lon="2.43368">
        <ele>46</ele>
        <time>2014-05-15T11:35:02Z</time>
      </trkpt>
      <trkpt lat="48.83327" lon="2.43368">
        <ele>47</ele>
        <time>2014-05-15T11:35:03Z</time>
      </trkpt>
      <trkpt lat="48.83329" lon="2.43368">
        <ele>48</ele>
        <time>2014-05-15T11:35:04Z</time>
      </trkpt>
      <trkpt lat="48.83331" lon="2.43368">
        <ele>48</ele>
        <time>2014-05-15T11:35:05Z</time>
      </trkpt>
      <trkpt lat="48.83333" lon="2.43369">
        <ele>48</ele>
        <time>2014-05-15T11:35:06Z</time>
      </trkpt>
      <trkpt lat="48.83335" lon="2.43369">
        <ele>47</ele>
        <time>2014-05-15T11:35:07Z</time>
      </trkpt>
      <trkpt lat="48.83337" lon="2.43369">
        <ele>48</ele>
        <time>2014-05-15T11:35:08Z</time>
      </trkpt>
      <trkpt lat="48.83338" lon="2.4337">
        <ele>47</ele>
        <time>2014-05-15T11:35:09Z</time>
      </trkpt>
      <trkpt lat="48.83339" lon="2.4337">
        <ele>47</ele>
        <time>2014-05-15T11:35:10Z</time>
      </trkpt>
      <trkpt lat="48.8334" lon="2.4337">
        <ele>47</ele>
        <time>2014-05-15T11:35:11Z</time>
      </trkpt>
      <trkpt lat="48.8334" lon="2.4337">
        <ele>46</ele>
        <time>2014-05-15T11:35:12Z</time>
      </trkpt>
      <trkpt lat="48.83341" lon="2.4337">
        <ele>46</ele>
        <time>2014-05-15T11:35:13Z</time>
      </trkpt>
      <trkpt lat="48.83342" lon="2.4337">
        <ele>46</ele>
        <time>2014-05-15T11:35:14Z</time>
      </trkpt>
      <trkpt lat="48.83343" lon="2.43371">
        <ele>47</ele>
        <time>2014-05-15T11:35:15Z</time>
      </trkpt>
      <trkpt lat="48.83345" lon="2.43371">
        <ele>47</ele>
        <time>2014-05-15T11:35:16Z</time>
      </trkpt>
      <trkpt lat="48.83347" lon="2.43371">
        <ele>46</ele>
        <time>2014-05-15T11:35:17Z</time>
      </trkpt>
      <trkpt lat="48.83348" lon="2.43371">
        <ele>47</ele>
        <time>2014-05-15T11:35:18Z</time>
      </trkpt>
      <trkpt lat="48.8335" lon="2.43371">
        <ele>46</ele>
        <time>2014-05-15T11:35:19Z</time>
      </trkpt>
      <trkpt lat="48.83352" lon="2.4337">
        <ele>44</ele>
        <time>2014-05-15T11:35:20Z</time>
      </trkpt>
      <trkpt lat="48.83354" lon="2.4337">
        <ele>44</ele>
        <time>2014-05-15T11:35:21Z</time>
      </trkpt>
      <trkpt lat="48.83357" lon="2.43371">
        <ele>45</ele>
        <time>2014-05-15T11:35:22Z</time>
      </trkpt>
      <trkpt lat="48.83359" lon="2.43371">
        <ele>46</ele>
        <time>2014-05-15T11:35:23Z</time>
      </trkpt>
      <trkpt lat="48.83361" lon="2.43371">
        <ele>45</ele>
        <time>2014-05-15T11:35:24Z</time>
      </trkpt>
      <trkpt lat="48.83363" lon="2.43371">
        <ele>45</ele>
        <time>2014-05-15T11:35:25Z</time>
      </trkpt>
      <trkpt lat="48.83365" lon="2.43372">
        <ele>45</ele>
        <time>2014-05-15T11:35:26Z</time>
      </trkpt>
      <trkpt lat="48.83367" lon="2.43372">
        <ele>44</ele>
        <time>2014-05-15T11:35:27Z</time>
      </trkpt>
      <trkpt lat="48.83369" lon="2.43372">
        <ele>44</ele>
        <time>2014-05-15T11:35:28Z</time>
      </trkpt>
      <trkpt lat="48.83371" lon="2.43373">
        <ele>43</ele>
        <time>2014-05-15T11:35:29Z</time>
      </trkpt>
      <trkpt lat="48.83373" lon="2.43373">
        <ele>43</ele>
        <time>2014-05-15T11:35:30Z</time>
      </trkpt>
      <trkpt lat="48.83375" lon="2.43374">
        <ele>41</ele>
        <time>2014-05-15T11:35:31Z</time>
      </trkpt>
      <trkpt lat="48.83376" lon="2.43375">
        <ele>41</ele>
        <time>2014-05-15T11:35:32Z</time>
      </trkpt>
      <trkpt lat="48.83378" lon="2.43375">
        <ele>42</ele>
        <time>2014-05-15T11:35:33Z</time>
      </trkpt>
      <trkpt lat="48.83379" lon="2.43376">
        <ele>41</ele>
        <time>2014-05-15T11:35:34Z</time>
      </trkpt>
      <trkpt lat="48.83379" lon="2.43376">
        <ele>42</ele>
        <time>2014-05-15T11:35:35Z</time>
      </trkpt>
      <trkpt lat="48.8338" lon="2.43376">
        <ele>43</ele>
        <time>2014-05-15T11:35:36Z</time>
      </trkpt>
      <trkpt lat="48.83382" lon="2.43377">
        <ele>43</ele>
        <time>2014-05-15T11:35:37Z</time>
      </trkpt>
      <trkpt lat="48.83383" lon="2.43377">
        <ele>42</ele>
        <time>2014-05-15T11:35:38Z</time>
      </trkpt>
      <trkpt lat="48.83385" lon="2.43377">
        <ele>43</ele>
        <time>2014-05-15T11:35:39Z</time>
      </trkpt>
      <trkpt lat="48.83386" lon="2.43378">
        <ele>43</ele>
        <time>2014-05-15T11:35:40Z</time>
      </trkpt>
      <trkpt lat="48.83388" lon="2.43378">
        <ele>43</ele>
        <time>2014-05-15T11:35:41Z</time>
      </trkpt>
      <trkpt lat="48.8339" lon="2.43378">
        <ele>43</ele>
        <time>2014-05-15T11:35:42Z</time>
      </trkpt>
      <trkpt lat="48.83391" lon="2.43378">
        <ele>43</ele>
        <time>2014-05-15T11:35:43Z</time>
      </trkpt>
      <trkpt lat="48.83392" lon="2.43379">
        <ele>43</ele>
        <time>2014-05-15T11:35:44Z</time>
      </trkpt>
      <trkpt lat="48.83394" lon="2.43379">
        <ele>44</ele>
        <time>2014-05-15T11:35:45Z</time>
      </trkpt>
      <trkpt lat="48.83395" lon="2.4338">
        <ele>44</ele>
        <time>2014-05-15T11:35:46Z</time>
      </trkpt>
      <trkpt lat="48.83397" lon="2.4338">
        <ele>44</ele>
        <time>2014-05-15T11:35:47Z</time>
      </trkpt>
      <trkpt lat="48.83398" lon="2.4338">
        <ele>44</ele>
        <time>2014-05-15T11:35:48Z</time>
      </trkpt>
      <trkpt lat="48.83399" lon="2.43381">
        <ele>44</ele>
        <time>2014-05-15T11:35:49Z</time>
      </trkpt>
      <trkpt lat="48.83401" lon="2.43381">
        <ele>44</ele>
        <time>2014-05-15T11:35:50Z</time>
      </trkpt>
      <trkpt lat="48.83402" lon="2.43381">
        <ele>45</ele>
        <time>2014-05-15T11:35:51Z</time>
      </trkpt>
      <trkpt lat="48.83402" lon="2.43381">
        <ele>45</ele>
        <time>2014-05-15T11:35:52Z</time>
      </trkpt>
      <trkpt lat="48.83403" lon="2.43381">
        <ele>46</ele>
        <time>2014-05-15T11:35:53Z</time>
      </trkpt>
      <trkpt lat="48.83403" lon="2.43381">
        <ele>46</ele>
        <time>2014-05-15T11:35:54Z</time>
      </trkpt>
      <trkpt lat="48.83404" lon="2.43381">
        <ele>46</ele>
        <time>2014-05-15T11:35:55Z</time>
      </trkpt>
      <trkpt lat="48.83405" lon="2.43381">
        <ele>46</ele>
        <time>2014-05-15T11:35:56Z</time>
      </trkpt>
      <trkpt lat="48.83406" lon="2.43381">
        <ele>45</ele>
        <time>2014-05-15T11:35:57Z</time>
      </trkpt>
      <trkpt lat="48.83407" lon="2.43382">
        <ele>45</ele>
        <time>2014-05-15T11:35:58Z</time>
      </trkpt>
      <trkpt lat="48.83408" lon="2.43383">
        <ele>46</ele>
        <time>2014-05-15T11:35:59Z</time>
      </trkpt>
      <trkpt lat="48.83409" lon="2.43383">
        <ele>46</ele>
        <time>2014-05-15T11:36:00Z</time>
      </trkpt>
      <trkpt lat="48.8341" lon="2.43383">
        <ele>46</ele>
        <time>2014-05-15T11:36:01Z</time>
      </trkpt>
      <trkpt lat="48.83413" lon="2.43384">
        <ele>48</ele>
        <time>2014-05-15T11:36:02Z</time>
      </trkpt>
      <trkpt lat="48.83415" lon="2.43385">
        <ele>47</ele>
        <time>2014-05-15T11:36:03Z</time>
      </trkpt>
      <trkpt lat="48.83418" lon="2.43385">
        <ele>46</ele>
        <time>2014-05-15T11:36:04Z</time>
      </trkpt>
      <trkpt lat="48.83421" lon="2.43385">
        <ele>46</ele>
        <time>2014-05-15T11:36:05Z</time>
      </trkpt>
      <trkpt lat="48.83423" lon="2.43386">
        <ele>46</ele>
        <time>2014-05-15T11:36:06Z</time>
      </trkpt>
      <trkpt lat="48.83426" lon="2.43386">
        <ele>46</ele>
        <time>2014-05-15T11:36:07Z</time>
      </trkpt>
      <trkpt lat="48.83428" lon="2.43386">
        <ele>47</ele>
        <time>2014-05-15T11:36:08Z</time>
      </trkpt>
      <trkpt lat="48.8343" lon="2.43386">
        <ele>47</ele>
        <time>2014-05-15T11:36:09Z</time>
      </trkpt>
      <trkpt lat="48.83432" lon="2.43387">
        <ele>47</ele>
        <time>2014-05-15T11:36:10Z</time>
      </trkpt>
      <trkpt lat="48.83433" lon="2.43387">
        <ele>46</ele>
        <time>2014-05-15T11:36:11Z</time>
      </trkpt>
      <trkpt lat="48.83435" lon="2.43387">
        <ele>45</ele>
        <time>2014-05-15T11:36:12Z</time>
      </trkpt>
      <trkpt lat="48.83436" lon="2.43388">
        <ele>45</ele>
        <time>2014-05-15T11:36:13Z</time>
      </trkpt>
      <trkpt lat="48.83438" lon="2.43388">
        <ele>45</ele>
        <time>2014-05-15T11:36:14Z</time>
      </trkpt>
      <trkpt lat="48.83439" lon="2.43388">
        <ele>46</ele>
        <time>2014-05-15T11:36:15Z</time>
      </trkpt>
      <trkpt lat="48.83441" lon="2.43388">
        <ele>44</ele>
        <time>2014-05-15T11:36:16Z</time>
      </trkpt>
      <trkpt lat="48.83443" lon="2.43388">
        <ele>44</ele>
        <time>2014-05-15T11:36:17Z</time>
      </trkpt>
      <trkpt lat="48.83444" lon="2.43389">
        <ele>44</ele>
        <time>2014-05-15T11:36:18Z</time>
      </trkpt>
      <trkpt lat="48.83447" lon="2.43389">
        <ele>44</ele>
        <time>2014-05-15T11:36:19Z</time>
      </trkpt>
      <trkpt lat="48.83448" lon="2.4339">
        <ele>43</ele>
        <time>2014-05-15T11:36:20Z</time>
      </trkpt>
      <trkpt lat="48.8345" lon="2.4339">
        <ele>44</ele>
        <time>2014-05-15T11:36:21Z</time>
      </trkpt>
      <trkpt lat="48.83452" lon="2.4339">
        <ele>44</ele>
        <time>2014-05-15T11:36:22Z</time>
      </trkpt>
      <trkpt lat="48.83454" lon="2.4339">
        <ele>44</ele>
        <time>2014-05-15T11:36:23Z</time>
      </trkpt>
      <trkpt lat="48.83456" lon="2.4339">
        <ele>45</ele>
        <time>2014-05-15T11:36:24Z</time>
      </trkpt>
      <trkpt lat="48.83457" lon="2.43391">
        <ele>46</ele>
        <time>2014-05-15T11:36:25Z</time>
      </trkpt>
      <trkpt lat="48.83459" lon="2.43391">
        <ele>45</ele>
        <time>2014-05-15T11:36:26Z</time>
      </trkpt>
      <trkpt lat="48.83461" lon="2.43391">
        <ele>45</ele>
        <time>2014-05-15T11:36:27Z</time>
      </trkpt>
      <trkpt lat="48.83462" lon="2.43392">
        <ele>44</ele>
        <time>2014-05-15T11:36:28Z</time>
      </trkpt>
      <trkpt lat="48.83463" lon="2.43392">
        <ele>44</ele>
        <time>2014-05-15T11:36:29Z</time>
      </trkpt>
      <trkpt lat="48.83465" lon="2.43392">
        <ele>44</ele>
        <time>2014-05-15T11:36:30Z</time>
      </trkpt>
      <trkpt lat="48.83466" lon="2.43392">
        <ele>45</ele>
        <time>2014-05-15T11:36:31Z</time>
      </trkpt>
      <trkpt lat="48.83468" lon="2.43392">
        <ele>43</ele>
        <time>2014-05-15T11:36:32Z</time>
      </trkpt>
      <trkpt lat="48.83468" lon="2.43392">
        <ele>44</ele>
        <time>2014-05-15T11:36:33Z</time>
      </trkpt>
      <trkpt lat="48.83469" lon="2.43391">
        <ele>44</ele>
        <time>2014-05-15T11:36:34Z</time>
      </trkpt>
      <trkpt lat="48.8347" lon="2.43392">
        <ele>43</ele>
        <time>2014-05-15T11:36:35Z</time>
      </trkpt>
      <trkpt lat="48.83471" lon="2.43392">
        <ele>44</ele>
        <time>2014-05-15T11:36:36Z</time>
      </trkpt>
      <trkpt lat="48.83472" lon="2.43392">
        <ele>44</ele>
        <time>2014-05-15T11:36:37Z</time>
      </trkpt>
      <trkpt lat="48.83473" lon="2.43392">
        <ele>44</ele>
        <time>2014-05-15T11:36:38Z</time>
      </trkpt>
      <trkpt lat="48.83474" lon="2.43391">
        <ele>44</ele>
        <time>2014-05-15T11:36:39Z</time>
      </trkpt>
      <trkpt lat="48.83475" lon="2.43391">
        <ele>44</ele>
        <time>2014-05-15T11:36:40Z</time>
      </trkpt>
      <trkpt lat="48.83475" lon="2.43391">
        <ele>44</ele>
        <time>2014-05-15T11:36:41Z</time>
      </trkpt>
      <trkpt lat="48.83476" lon="2.43392">
        <ele>44</ele>
        <time>2014-05-15T11:36:42Z</time>
      </trkpt>
      <trkpt lat="48.83477" lon="2.43392">
        <ele>45</ele>
        <time>2014-05-15T11:36:43Z</time>
      </trkpt>
      <trkpt lat="48.83478" lon="2.43392">
        <ele>45</ele>
        <time>2014-05-15T11:36:44Z</time>
      </trkpt>
      <trkpt lat="48.83479" lon="2.43392">
        <ele>45</ele>
        <time>2014-05-15T11:36:45Z</time>
      </trkpt>
      <trkpt lat="48.8348" lon="2.43392">
        <ele>45</ele>
        <time>2014-05-15T11:36:46Z</time>
      </trkpt>
      <trkpt lat="48.83481" lon="2.43392">
        <ele>45</ele>
        <time>2014-05-15T11:36:47Z</time>
      </trkpt>
      <trkpt lat="48.83482" lon="2.43392">
        <ele>45</ele>
        <time>2014-05-15T11:36:48Z</time>
      </trkpt>
      <trkpt lat="48.83482" lon="2.43392">
        <ele>45</ele>
        <time>2014-05-15T11:36:49Z</time>
      </trkpt>
      <trkpt lat="48.83483" lon="2.43392">
        <ele>45</ele>
        <time>2014-05-15T11:36:50Z</time>
      </trkpt>
      <trkpt lat="48.83484" lon="2.43392">
        <ele>45</ele>
        <time>2014-05-15T11:36:51Z</time>
      </trkpt>
      <trkpt lat="48.83486" lon="2.43392">
        <ele>45</ele>
        <time>2014-05-15T11:36:52Z</time>
      </trkpt>
      <trkpt lat="48.83487" lon="2.43392">
        <ele>47</ele>
        <time>2014-05-15T11:36:53Z</time>
      </trkpt>
      <trkpt lat="48.83489" lon="2.43392">
        <ele>44</ele>
        <time>2014-05-15T11:36:54Z</time>
      </trkpt>
      <trkpt lat="48.83491" lon="2.43392">
        <ele>45</ele>
        <time>2014-05-15T11:36:55Z</time>
      </trkpt>
      <trkpt lat="48.83493" lon="2.43392">
        <ele>45</ele>
        <time>2014-05-15T11:36:56Z</time>
      </trkpt>
      <trkpt lat="48.83495" lon="2.43392">
        <ele>46</ele>
        <time>2014-05-15T11:36:57Z</time>
      </trkpt>
      <trkpt lat="48.83497" lon="2.43392">
        <ele>47</ele>
        <time>2014-05-15T11:36:58Z</time>
      </trkpt>
      <trkpt lat="48.83499" lon="2.43393">
        <ele>47</ele>
        <time>2014-05-15T11:36:59Z</time>
      </trkpt>
      <trkpt lat="48.83501" lon="2.43394">
        <ele>47</ele>
        <time>2014-05-15T11:37:00Z</time>
      </trkpt>
      <trkpt lat="48.83504" lon="2.43395">
        <ele>47</ele>
        <time>2014-05-15T11:37:01Z</time>
      </trkpt>
      <trkpt lat="48.83506" lon="2.43396">
        <ele>46</ele>
        <time>2014-05-15T11:37:02Z</time>
      </trkpt>
      <trkpt lat="48.83508" lon="2.43398">
        <ele>45</ele>
        <time>2014-05-15T11:37:03Z</time>
      </trkpt>
      <trkpt lat="48.83509" lon="2.434">
        <ele>45</ele>
        <time>2014-05-15T11:37:04Z</time>
      </trkpt>
      <trkpt lat="48.83511" lon="2.43402">
        <ele>45</ele>
        <time>2014-05-15T11:37:05Z</time>
      </trkpt>
      <trkpt lat="48.83512" lon="2.43404">
        <ele>45</ele>
        <time>2014-05-15T11:37:06Z</time>
      </trkpt>
      <trkpt lat="48.83514" lon="2.43406">
        <ele>44</ele>
        <time>2014-05-15T11:37:07Z</time>
      </trkpt>
      <trkpt lat="48.83515" lon="2.43409">
        <ele>44</ele>
        <time>2014-05-15T11:37:08Z</time>
      </trkpt>
      <trkpt lat="48.83516" lon="2.4341">
        <ele>44</ele>
        <time>2014-05-15T11:37:09Z</time>
      </trkpt>
      <trkpt lat="48.83517" lon="2.43412">
        <ele>45</ele>
        <time>2014-05-15T11:37:10Z</time>
      </trkpt>
      <trkpt lat="48.83518" lon="2.43413">
        <ele>45</ele>
        <time>2014-05-15T11:37:11Z</time>
      </trkpt>
      <trkpt lat="48.83519" lon="2.43415">
        <ele>45</ele>
        <time>2014-05-15T11:37:12Z</time>
      </trkpt>
      <trkpt lat="48.8352" lon="2.43416">
        <ele>45</ele>
        <time>2014-05-15T11:37:13Z</time>
      </trkpt>
      <trkpt lat="48.83521" lon="2.43418">
        <ele>46</ele>
        <time>2014-05-15T11:37:14Z</time>
      </trkpt>
      <trkpt lat="48.83522" lon="2.4342">
        <ele>46</ele>
        <time>2014-05-15T11:37:15Z</time>
      </trkpt>
      <trkpt lat="48.83523" lon="2.43422">
        <ele>45</ele>
        <time>2014-05-15T11:37:16Z</time>
      </trkpt>
      <trkpt lat="48.83523" lon="2.43424">
        <ele>45</ele>
        <time>2014-05-15T11:37:17Z</time>
      </trkpt>
      <trkpt lat="48.83524" lon="2.43426">
        <ele>45</ele>
        <time>2014-05-15T11:37:18Z</time>
      </trkpt>
      <trkpt lat="48.83524" lon="2.43428">
        <ele>45</ele>
        <time>2014-05-15T11:37:19Z</time>
      </trkpt>
      <trkpt lat="48.83524" lon="2.43431">
        <ele>45</ele>
        <time>2014-05-15T11:37:20Z</time>
      </trkpt>
      <trkpt lat="48.83524" lon="2.43433">
        <ele>46</ele>
        <time>2014-05-15T11:37:21Z</time>
      </trkpt>
      <trkpt lat="48.83524" lon="2.43435">
        <ele>46</ele>
        <time>2014-05-15T11:37:22Z</time>
      </trkpt>
      <trkpt lat="48.83523" lon="2.43438">
        <ele>45</ele>
        <time>2014-05-15T11:37:23Z</time>
      </trkpt>
      <trkpt lat="48.83523" lon="2.4344">
        <ele>46</ele>
        <time>2014-05-15T11:37:24Z</time>
      </trkpt>
      <trkpt lat="48.83522" lon="2.43442">
        <ele>45</ele>
        <time>2014-05-15T11:37:25Z</time>
      </trkpt>
      <trkpt lat="48.83522" lon="2.43444">
        <ele>45</ele>
        <time>2014-05-15T11:37:26Z</time>
      </trkpt>
      <trkpt lat="48.83521" lon="2.43446">
        <ele>45</ele>
        <time>2014-05-15T11:37:27Z</time>
      </trkpt>
      <trkpt lat="48.8352" lon="2.43448">
        <ele>45</ele>
        <time>2014-05-15T11:37:28Z</time>
      </trkpt>
      <trkpt lat="48.83519" lon="2.4345">
        <ele>45</ele>
        <time>2014-05-15T11:37:29Z</time>
      </trkpt>
      <trkpt lat="48.83519" lon="2.43452">
        <ele>45</ele>
        <time>2014-05-15T11:37:30Z</time>
      </trkpt>
      <trkpt lat="48.83518" lon="2.43454">
        <ele>45</ele>
        <time>2014-05-15T11:37:31Z</time>
      </trkpt>
      <trkpt lat="48.83518" lon="2.43456">
        <ele>44</ele>
        <time>2014-05-15T11:37:32Z</time>
      </trkpt>
      <trkpt lat="48.83518" lon="2.43458">
        <ele>44</ele>
        <time>2014-05-15T11:37:33Z</time>
      </trkpt>
      <trkpt lat="48.83517" lon="2.43459">
        <ele>43</ele>
        <time>2014-05-15T11:37:34Z</time>
      </trkpt>
      <trkpt lat="48.83517" lon="2.43461">
        <ele>43</ele>
        <time>2014-05-15T11:37:35Z</time>
      </trkpt>
      <trkpt lat="48.83516" lon="2.43463">
        <ele>43</ele>
        <time>2014-05-15T11:37:36Z</time>
      </trkpt>
      <trkpt lat="48.83516" lon="2.43465">
        <ele>43</ele>
        <time>2014-05-15T11:37:37Z</time>
      </trkpt>
      <trkpt lat="48.83516" lon="2.43467">
        <ele>43</ele>
        <time>2014-05-15T11:37:38Z</time>
      </trkpt>
      <trkpt lat="48.83515" lon="2.43469">
        <ele>43</ele>
        <time>2014-05-15T11:37:39Z</time>
      </trkpt>
      <trkpt lat="48.83515" lon="2.43471">
        <ele>43</ele>
        <time>2014-05-15T11:37:40Z</time>
      </trkpt>
      <trkpt lat="48.83515" lon="2.43473">
        <ele>43</ele>
        <time>2014-05-15T11:37:41Z</time>
      </trkpt>
      <trkpt lat="48.83514" lon="2.43475">
        <ele>45</ele>
        <time>2014-05-15T11:37:42Z</time>
      </trkpt>
      <trkpt lat="48.83514" lon="2.43478">
        <ele>44</ele>
        <time>2014-05-15T11:37:43Z</time>
      </trkpt>
      <trkpt lat="48.83514" lon="2.4348">
        <ele>44</ele>
        <time>2014-05-15T11:37:44Z</time>
      </trkpt>
      <trkpt lat="48.83513" lon="2.43482">
        <ele>43</ele>
        <time>2014-05-15T11:37:45Z</time>
      </trkpt>
      <trkpt lat="48.83513" lon="2.43485">
        <ele>43</ele>
        <time>2014-05-15T11:37:46Z</time>
      </trkpt>
      <trkpt lat="48.83513" lon="2.43487">
        <ele>44</ele>
        <time>2014-05-15T11:37:47Z</time>
      </trkpt>
      <trkpt lat="48.83513" lon="2.43489">
        <ele>45</ele>
        <time>2014-05-15T11:37:48Z</time>
      </trkpt>
      <trkpt lat="48.83512" lon="2.43492">
        <ele>45</ele>
        <time>2014-05-15T11:37:49Z</time>
      </trkpt>
      <trkpt lat="48.83512" lon="2.43495">
        <ele>47</ele>
        <time>2014-05-15T11:37:50Z</time>
      </trkpt>
      <trkpt lat="48.83512" lon="2.43498">
        <ele>47</ele>
        <time>2014-05-15T11:37:51Z</time>
      </trkpt>
      <trkpt lat="48.83512" lon="2.43501">
        <ele>47</ele>
        <time>2014-05-15T11:37:52Z</time>
      </trkpt>
      <trkpt lat="48.83513" lon="2.43503">
        <ele>47</ele>
        <time>2014-05-15T11:37:53Z</time>
      </trkpt>
      <trkpt lat="48.83515" lon="2.43505">
        <ele>48</ele>
        <time>2014-05-15T11:37:54Z</time>
      </trkpt>
      <trkpt lat="48.83516" lon="2.43507">
        <ele>48</ele>
        <time>2014-05-15T11:37:55Z</time>
      </trkpt>
      <trkpt lat="48.83516" lon="2.43508">
        <ele>48</ele>
        <time>2014-05-15T11:37:56Z</time>
      </trkpt>
      <trkpt lat="48.83517" lon="2.4351">
        <ele>48</ele>
        <time>2014-05-15T11:37:57Z</time>
      </trkpt>
      <trkpt lat="48.83518" lon="2.43511">
        <ele>48</ele>
        <time>2014-05-15T11:37:58Z</time>
      </trkpt>
      <trkpt lat="48.83519" lon="2.43513">
        <ele>47</ele>
        <time>2014-05-15T11:37:59Z</time>
      </trkpt>
      <trkpt lat="48.8352" lon="2.43514">
        <ele>47</ele>
        <time>2014-05-15T11:38:00Z</time>
      </trkpt>
      <trkpt lat="48.83521" lon="2.43515">
        <ele>48</ele>
        <time>2014-05-15T11:38:01Z</time>
      </trkpt>
      <trkpt lat="48.83522" lon="2.43516">
        <ele>49</ele>
        <time>2014-05-15T11:38:02Z</time>
      </trkpt>
      <trkpt lat="48.83524" lon="2.43516">
        <ele>49</ele>
        <time>2014-05-15T11:38:03Z</time>
      </trkpt>
      <trkpt lat="48.83525" lon="2.43517">
        <ele>49</ele>
        <time>2014-05-15T11:38:04Z</time>
      </trkpt>
      <trkpt lat="48.83526" lon="2.43518">
        <ele>48</ele>
        <time>2014-05-15T11:38:05Z</time>
      </trkpt>
      <trkpt lat="48.83527" lon="2.43519">
        <ele>48</ele>
        <time>2014-05-15T11:38:06Z</time>
      </trkpt>
      <trkpt lat="48.83528" lon="2.4352">
        <ele>49</ele>
        <time>2014-05-15T11:38:07Z</time>
      </trkpt>
      <trkpt lat="48.83529" lon="2.43521">
        <ele>49</ele>
        <time>2014-05-15T11:38:08Z</time>
      </trkpt>
      <trkpt lat="48.8353" lon="2.43522">
        <ele>49</ele>
        <time>2014-05-15T11:38:09Z</time>
      </trkpt>
      <trkpt lat="48.83532" lon="2.43522">
        <ele>49</ele>
        <time>2014-05-15T11:38:10Z</time>
      </trkpt>
      <trkpt lat="48.83533" lon="2.43523">
        <ele>50</ele>
        <time>2014-05-15T11:38:11Z</time>
      </trkpt>
      <trkpt lat="48.83534" lon="2.43524">
        <ele>50</ele>
        <time>2014-05-15T11:38:12Z</time>
      </trkpt>
      <trkpt lat="48.83536" lon="2.43524">
        <ele>50</ele>
        <time>2014-05-15T11:38:13Z</time>
      </trkpt>
      <trkpt lat="48.83537" lon="2.43524">
        <ele>49</ele>
        <time>2014-05-15T11:38:14Z</time>
      </trkpt>
      <trkpt lat="48.83538" lon="2.43524">
        <ele>49</ele>
        <time>2014-05-15T11:38:15Z</time>
      </trkpt>
      <trkpt lat="48.83539" lon="2.43525">
        <ele>49</ele>
        <time>2014-05-15T11:38:16Z</time>
      </trkpt>
      <trkpt lat="48.8354" lon="2.43525">
        <ele>50</ele>
        <time>2014-05-15T11:38:17Z</time>
      </trkpt>
      <trkpt lat="48.83541" lon="2.43526">
        <ele>49</ele>
        <time>2014-05-15T11:38:18Z</time>
      </trkpt>
      <trkpt lat="48.83542" lon="2.43526">
        <ele>50</ele>
        <time>2014-05-15T11:38:19Z</time>
      </trkpt>
      <trkpt lat="48.83544" lon="2.43526">
        <ele>51</ele>
        <time>2014-05-15T11:38:20Z</time>
      </trkpt>
      <trkpt lat="48.83545" lon="2.43526">
        <ele>51</ele>
        <time>2014-05-15T11:38:21Z</time>
      </trkpt>
      <trkpt lat="48.83546" lon="2.43526">
        <ele>51</ele>
        <time>2014-05-15T11:38:22Z</time>
      </trkpt>
      <trkpt lat="48.83548" lon="2.43526">
        <ele>51</ele>
        <time>2014-05-15T11:38:23Z</time>
      </trkpt>
      <trkpt lat="48.83549" lon="2.43526">
        <ele>52</ele>
        <time>2014-05-15T11:38:24Z</time>
      </trkpt>
      <trkpt lat="48.83551" lon="2.43526">
        <ele>52</ele>
        <time>2014-05-15T11:38:25Z</time>
      </trkpt>
      <trkpt lat="48.83552" lon="2.43526">
        <ele>52</ele>
        <time>2014-05-15T11:38:26Z</time>
      </trkpt>
      <trkpt lat="48.83554" lon="2.43526">
        <ele>51</ele>
        <time>2014-05-15T11:38:27Z</time>
      </trkpt>
      <trkpt lat="48.83555" lon="2.43525">
        <ele>51</ele>
        <time>2014-05-15T11:38:28Z</time>
      </trkpt>
      <trkpt lat="48.83557" lon="2.43525">
        <ele>51</ele>
        <time>2014-05-15T11:38:29Z</time>
      </trkpt>
      <trkpt lat="48.83558" lon="2.43526">
        <ele>51</ele>
        <time>2014-05-15T11:38:30Z</time>
      </trkpt>
      <trkpt lat="48.8356" lon="2.43526">
        <ele>51</ele>
        <time>2014-05-15T11:38:31Z</time>
      </trkpt>
      <trkpt lat="48.83561" lon="2.43526">
        <ele>50</ele>
        <time>2014-05-15T11:38:32Z</time>
      </trkpt>
      <trkpt lat="48.83563" lon="2.43526">
        <ele>50</ele>
        <time>2014-05-15T11:38:33Z</time>
      </trkpt>
      <trkpt lat="48.83565" lon="2.43527">
        <ele>51</ele>
        <time>2014-05-15T11:38:34Z</time>
      </trkpt>
      <trkpt lat="48.83566" lon="2.43527">
        <ele>51</ele>
        <time>2014-05-15T11:38:35Z</time>
      </trkpt>
      <trkpt lat="48.83568" lon="2.43528">
        <ele>51</ele>
        <time>2014-05-15T11:38:36Z</time>
      </trkpt>
      <trkpt lat="48.83569" lon="2.43528">
        <ele>45</ele>
        <time>2014-05-15T11:38:37Z</time>
      </trkpt>
      <trkpt lat="48.8357" lon="2.43528">
        <ele>47</ele>
        <time>2014-05-15T11:38:38Z</time>
      </trkpt>
      <trkpt lat="48.83571" lon="2.43528">
        <ele>50</ele>
        <time>2014-05-15T11:38:39Z</time>
      </trkpt>
      <trkpt lat="48.83573" lon="2.43527">
        <ele>48</ele>
        <time>2014-05-15T11:38:40Z</time>
      </trkpt>
      <trkpt lat="48.83574" lon="2.43527">
        <ele>49</ele>
        <time>2014-05-15T11:38:41Z</time>
      </trkpt>
      <trkpt lat="48.83575" lon="2.43527">
        <ele>48</ele>
        <time>2014-05-15T11:38:42Z</time>
      </trkpt>
      <trkpt lat="48.83577" lon="2.43527">
        <ele>48</ele>
        <time>2014-05-15T11:38:43Z</time>
      </trkpt>
      <trkpt lat="48.83578" lon="2.43527">
        <ele>48</ele>
        <time>2014-05-15T11:38:44Z</time>
      </trkpt>
      <trkpt lat="48.8358" lon="2.43527">
        <ele>49</ele>
        <time>2014-05-15T11:38:45Z</time>
      </trkpt>
      <trkpt lat="48.83581" lon="2.43527">
        <ele>48</ele>
        <time>2014-05-15T11:38:46Z</time>
      </trkpt>
      <trkpt lat="48.83583" lon="2.43528">
        <ele>49</ele>
        <time>2014-05-15T11:38:47Z</time>
      </trkpt>
      <trkpt lat="48.83584" lon="2.43528">
        <ele>49</ele>
        <time>2014-05-15T11:38:48Z</time>
      </trkpt>
      <trkpt lat="48.83585" lon="2.43529">
        <ele>49</ele>
        <time>2014-05-15T11:38:49Z</time>
      </trkpt>
      <trkpt lat="48.83586" lon="2.43529">
        <ele>49</ele>
        <time>2014-05-15T11:38:50Z</time>
      </trkpt>
      <trkpt lat="48.83588" lon="2.43529">
        <ele>49</ele>
        <time>2014-05-15T11:38:51Z</time>
      </trkpt>
      <trkpt lat="48.83589" lon="2.4353">
        <ele>48</ele>
        <time>2014-05-15T11:38:52Z</time>
      </trkpt>
      <trkpt lat="48.83591" lon="2.4353">
        <ele>46</ele>
        <time>2014-05-15T11:38:53Z</time>
      </trkpt>
      <trkpt lat="48.83592" lon="2.43531">
        <ele>45</ele>
        <time>2014-05-15T11:38:54Z</time>
      </trkpt>
      <trkpt lat="48.83594" lon="2.43532">
        <ele>45</ele>
        <time>2014-05-15T11:38:55Z</time>
      </trkpt>
      <trkpt lat="48.83596" lon="2.43532">
        <ele>45</ele>
        <time>2014-05-15T11:38:56Z</time>
      </trkpt>
      <trkpt lat="48.83597" lon="2.43533">
        <ele>46</ele>
        <time>2014-05-15T11:38:57Z</time>
      </trkpt>
      <trkpt lat="48.83599" lon="2.43533">
        <ele>46</ele>
        <time>2014-05-15T11:38:58Z</time>
      </trkpt>
      <trkpt lat="48.83601" lon="2.43533">
        <ele>47</ele>
        <time>2014-05-15T11:38:59Z</time>
      </trkpt>
      <trkpt lat="48.83603" lon="2.43534">
        <ele>46</ele>
        <time>2014-05-15T11:39:00Z</time>
      </trkpt>
      <trkpt lat="48.83605" lon="2.43535">
        <ele>46</ele>
        <time>2014-05-15T11:39:01Z</time>
      </trkpt>
      <trkpt lat="48.83606" lon="2.43536">
        <ele>47</ele>
        <time>2014-05-15T11:39:02Z</time>
      </trkpt>
      <trkpt lat="48.83608" lon="2.43537">
        <ele>46</ele>
        <time>2014-05-15T11:39:03Z</time>
      </trkpt>
      <trkpt lat="48.8361" lon="2.43538">
        <ele>46</ele>
        <time>2014-05-15T11:39:04Z</time>
      </trkpt>
      <trkpt lat="48.83611" lon="2.43539">
        <ele>46</ele>
        <time>2014-05-15T11:39:05Z</time>
      </trkpt>
      <trkpt lat="48.83613" lon="2.4354">
        <ele>47</ele>
        <time>2014-05-15T11:39:06Z</time>
      </trkpt>
      <trkpt lat="48.83614" lon="2.43541">
        <ele>46</ele>
        <time>2014-05-15T11:39:07Z</time>
      </trkpt>
      <trkpt lat="48.83615" lon="2.43541">
        <ele>45</ele>
        <time>2014-05-15T11:39:08Z</time>
      </trkpt>
      <trkpt lat="48.83617" lon="2.43542">
        <ele>47</ele>
        <time>2014-05-15T11:39:09Z</time>
      </trkpt>
      <trkpt lat="48.83618" lon="2.43541">
        <ele>47</ele>
        <time>2014-05-15T11:39:10Z</time>
      </trkpt>
      <trkpt lat="48.8362" lon="2.43541">
        <ele>47</ele>
        <time>2014-05-15T11:39:11Z</time>
      </trkpt>
      <trkpt lat="48.83621" lon="2.43541">
        <ele>46</ele>
        <time>2014-05-15T11:39:12Z</time>
      </trkpt>
      <trkpt lat="48.83622" lon="2.43542">
        <ele>44</ele>
        <time>2014-05-15T11:39:13Z</time>
      </trkpt>
      <trkpt lat="48.83623" lon="2.43543">
        <ele>45</ele>
        <time>2014-05-15T11:39:14Z</time>
      </trkpt>
      <trkpt lat="48.83624" lon="2.43544">
        <ele>44</ele>
        <time>2014-05-15T11:39:15Z</time>
      </trkpt>
      <trkpt lat="48.83625" lon="2.43544">
        <ele>43</ele>
        <time>2014-05-15T11:39:16Z</time>
      </trkpt>
      <trkpt lat="48.83626" lon="2.43545">
        <ele>42</ele>
        <time>2014-05-15T11:39:17Z</time>
      </trkpt>
      <trkpt lat="48.83627" lon="2.43546">
        <ele>44</ele>
        <time>2014-05-15T11:39:18Z</time>
      </trkpt>
      <trkpt lat="48.83628" lon="2.43546">
        <ele>44</ele>
        <time>2014-05-15T11:39:19Z</time>
      </trkpt>
      <trkpt lat="48.83629" lon="2.43545">
        <ele>45</ele>
        <time>2014-05-15T11:39:20Z</time>
      </trkpt>
      <trkpt lat="48.8363" lon="2.43545">
        <ele>45</ele>
        <time>2014-05-15T11:39:21Z</time>
      </trkpt>
      <trkpt lat="48.83631" lon="2.43545">
        <ele>45</ele>
        <time>2014-05-15T11:39:22Z</time>
      </trkpt>
      <trkpt lat="48.83632" lon="2.43545">
        <ele>45</ele>
        <time>2014-05-15T11:39:23Z</time>
      </trkpt>
      <trkpt lat="48.83632" lon="2.43545">
        <ele>46</ele>
        <time>2014-05-15T11:39:24Z</time>
      </trkpt>
      <trkpt lat="48.83633" lon="2.43545">
        <ele>46</ele>
        <time>2014-05-15T11:39:25Z</time>
      </trkpt>
      <trkpt lat="48.83633" lon="2.43545">
        <ele>46</ele>
        <time>2014-05-15T11:39:26Z</time>
      </trkpt>
      <trkpt lat="48.83633" lon="2.43545">
        <ele>47</ele>
        <time>2014-05-15T11:39:27Z</time>
      </trkpt>
      <trkpt lat="48.83634" lon="2.43545">
        <ele>47</ele>
        <time>2014-05-15T11:39:28Z</time>
      </trkpt>
      <trkpt lat="48.83634" lon="2.43545">
        <ele>48</ele>
        <time>2014-05-15T11:39:29Z</time>
      </trkpt>
      <trkpt lat="48.83635" lon="2.43545">
        <ele>48</ele>
        <time>2014-05-15T11:39:30Z</time>
      </trkpt>
      <trkpt lat="48.83636" lon="2.43545">
        <ele>47</ele>
        <time>2014-05-15T11:39:31Z</time>
      </trkpt>
      <trkpt lat="48.83638" lon="2.43545">
        <ele>46</ele>
        <time>2014-05-15T11:39:32Z</time>
      </trkpt>
      <trkpt lat="48.8364" lon="2.43546">
        <ele>44</ele>
        <time>2014-05-15T11:39:33Z</time>
      </trkpt>
      <trkpt lat="48.83641" lon="2.43547">
        <ele>43</ele>
        <time>2014-05-15T11:39:34Z</time>
      </trkpt>
      <trkpt lat="48.83643" lon="2.43548">
        <ele>45</ele>
        <time>2014-05-15T11:39:35Z</time>
      </trkpt>
      <trkpt lat="48.83646" lon="2.43548">
        <ele>46</ele>
        <time>2014-05-15T11:39:36Z</time>
      </trkpt>
      <trkpt lat="48.83648" lon="2.43549">
        <ele>48</ele>
        <time>2014-05-15T11:39:37Z</time>
      </trkpt>
      <trkpt lat="48.8365" lon="2.43549">
        <ele>47</ele>
        <time>2014-05-15T11:39:38Z</time>
      </trkpt>
      <trkpt lat="48.83653" lon="2.4355">
        <ele>49</ele>
        <time>2014-05-15T11:39:39Z</time>
      </trkpt>
      <trkpt lat="48.83655" lon="2.4355">
        <ele>49</ele>
        <time>2014-05-15T11:39:40Z</time>
      </trkpt>
      <trkpt lat="48.83657" lon="2.4355">
        <ele>48</ele>
        <time>2014-05-15T11:39:41Z</time>
      </trkpt>
      <trkpt lat="48.83659" lon="2.4355">
        <ele>50</ele>
        <time>2014-05-15T11:39:42Z</time>
      </trkpt>
      <trkpt lat="48.83661" lon="2.43551">
        <ele>50</ele>
        <time>2014-05-15T11:39:43Z</time>
      </trkpt>
      <trkpt lat="48.83663" lon="2.43551">
        <ele>50</ele>
        <time>2014-05-15T11:39:44Z</time>
      </trkpt>
      <trkpt lat="48.83665" lon="2.43551">
        <ele>49</ele>
        <time>2014-05-15T11:39:45Z</time>
      </trkpt>
      <trkpt lat="48.83666" lon="2.43552">
        <ele>50</ele>
        <time>2014-05-15T11:39:46Z</time>
      </trkpt>
      <trkpt lat="48.83668" lon="2.43553">
        <ele>51</ele>
        <time>2014-05-15T11:39:47Z</time>
      </trkpt>
      <trkpt lat="48.8367" lon="2.43553">
        <ele>51</ele>
        <time>2014-05-15T11:39:48Z</time>
      </trkpt>
      <trkpt lat="48.83672" lon="2.43554">
        <ele>52</ele>
        <time>2014-05-15T11:39:49Z</time>
      </trkpt>
      <trkpt lat="48.83674" lon="2.43554">
        <ele>52</ele>
        <time>2014-05-15T11:39:50Z</time>
      </trkpt>
      <trkpt lat="48.83675" lon="2.43554">
        <ele>52</ele>
        <time>2014-05-15T11:39:51Z</time>
      </trkpt>
      <trkpt lat="48.83677" lon="2.43555">
        <ele>51</ele>
        <time>2014-05-15T11:39:52Z</time>
      </trkpt>
      <trkpt lat="48.83678" lon="2.43555">
        <ele>50</ele>
        <time>2014-05-15T11:39:53Z</time>
      </trkpt>
      <trkpt lat="48.83679" lon="2.43555">
        <ele>49</ele>
        <time>2014-05-15T11:39:54Z</time>
      </trkpt>
      <trkpt lat="48.83681" lon="2.43555">
        <ele>50</ele>
        <time>2014-05-15T11:39:55Z</time>
      </trkpt>
      <trkpt lat="48.83682" lon="2.43556">
        <ele>51</ele>
        <time>2014-05-15T11:39:56Z</time>
      </trkpt>
      <trkpt lat="48.83684" lon="2.43555">
        <ele>50</ele>
        <time>2014-05-15T11:39:57Z</time>
      </trkpt>
      <trkpt lat="48.83685" lon="2.43556">
        <ele>50</ele>
        <time>2014-05-15T11:39:58Z</time>
      </trkpt>
      <trkpt lat="48.83687" lon="2.43556">
        <ele>51</ele>
        <time>2014-05-15T11:39:59Z</time>
      </trkpt>
      <trkpt lat="48.83689" lon="2.43556">
        <ele>50</ele>
        <time>2014-05-15T11:40:00Z</time>
      </trkpt>
      <trkpt lat="48.8369" lon="2.43556">
        <ele>50</ele>
        <time>2014-05-15T11:40:01Z</time>
      </trkpt>
      <trkpt lat="48.83692" lon="2.43556">
        <ele>50</ele>
        <time>2014-05-15T11:40:02Z</time>
      </trkpt>
      <trkpt lat="48.83693" lon="2.43556">
        <ele>48</ele>
        <time>2014-05-15T11:40:03Z</time>
      </trkpt>
      <trkpt lat="48.83694" lon="2.43557">
        <ele>48</ele>
        <time>2014-05-15T11:40:04Z</time>
      </trkpt>
      <trkpt lat="48.83695" lon="2.43557">
        <ele>46</ele>
        <time>2014-05-15T11:40:05Z</time>
      </trkpt>
      <trkpt lat="48.83696" lon="2.43558">
        <ele>46</ele>
        <time>2014-05-15T11:40:06Z</time>
      </trkpt>
      <trkpt lat="48.83697" lon="2.4356">
        <ele>45</ele>
        <time>2014-05-15T11:40:07Z</time>
      </trkpt>
      <trkpt lat="48.83698" lon="2.43561">
        <ele>44</ele>
        <time>2014-05-15T11:40:08Z</time>
      </trkpt>
      <trkpt lat="48.83699" lon="2.43562">
        <ele>41</ele>
        <time>2014-05-15T11:40:09Z</time>
      </trkpt>
      <trkpt lat="48.837" lon="2.43563">
        <ele>43</ele>
        <time>2014-05-15T11:40:10Z</time>
      </trkpt>
      <trkpt lat="48.83701" lon="2.43564">
        <ele>43</ele>
        <time>2014-05-15T11:40:11Z</time>
      </trkpt>
      <trkpt lat="48.83702" lon="2.43566">
        <ele>43</ele>
        <time>2014-05-15T11:40:12Z</time>
      </trkpt>
      <trkpt lat="48.83703" lon="2.43567">
        <ele>43</ele>
        <time>2014-05-15T11:40:13Z</time>
      </trkpt>
      <trkpt lat="48.83704" lon="2.43569">
        <ele>42</ele>
        <time>2014-05-15T11:40:14Z</time>
      </trkpt>
      <trkpt lat="48.83705" lon="2.4357">
        <ele>41</ele>
        <time>2014-05-15T11:40:15Z</time>
      </trkpt>
      <trkpt lat="48.83706" lon="2.43572">
        <ele>40</ele>
        <time>2014-05-15T11:40:16Z</time>
      </trkpt>
      <trkpt lat="48.83707" lon="2.43573">
        <ele>40</ele>
        <time>2014-05-15T11:40:17Z</time>
      </trkpt>
      <trkpt lat="48.83708" lon="2.43574">
        <ele>39</ele>
        <time>2014-05-15T11:40:18Z</time>
      </trkpt>
      <trkpt lat="48.83709" lon="2.43575">
        <ele>40</ele>
        <time>2014-05-15T11:40:19Z</time>
      </trkpt>
      <trkpt lat="48.8371" lon="2.43576">
        <ele>41</ele>
        <time>2014-05-15T11:40:20Z</time>
      </trkpt>
      <trkpt lat="48.83711" lon="2.43578">
        <ele>42</ele>
        <time>2014-05-15T11:40:21Z</time>
      </trkpt>
      <trkpt lat="48.83713" lon="2.43579">
        <ele>43</ele>
        <time>2014-05-15T11:40:22Z</time>
      </trkpt>
      <trkpt lat="48.83716" lon="2.4358">
        <ele>44</ele>
        <time>2014-05-15T11:40:23Z</time>
      </trkpt>
      <trkpt lat="48.83719" lon="2.43581">
        <ele>43</ele>
        <time>2014-05-15T11:40:24Z</time>
      </trkpt>
      <trkpt lat="48.83721" lon="2.43581">
        <ele>43</ele>
        <time>2014-05-15T11:40:25Z</time>
      </trkpt>
      <trkpt lat="48.83722" lon="2.43582">
        <ele>41</ele>
        <time>2014-05-15T11:40:26Z</time>
      </trkpt>
      <trkpt lat="48.83723" lon="2.43584">
        <ele>42</ele>
        <time>2014-05-15T11:40:27Z</time>
      </trkpt>
      <trkpt lat="48.83724" lon="2.43585">
        <ele>41</ele>
        <time>2014-05-15T11:40:28Z</time>
      </trkpt>
      <trkpt lat="48.83726" lon="2.43586">
        <ele>41</ele>
        <time>2014-05-15T11:40:29Z</time>
      </trkpt>
      <trkpt lat="48.83727" lon="2.43587">
        <ele>43</ele>
        <time>2014-05-15T11:40:30Z</time>
      </trkpt>
      <trkpt lat="48.83728" lon="2.43588">
        <ele>42</ele>
        <time>2014-05-15T11:40:31Z</time>
      </trkpt>
      <trkpt lat="48.83729" lon="2.43589">
        <ele>42</ele>
        <time>2014-05-15T11:40:32Z</time>
      </trkpt>
      <trkpt lat="48.8373" lon="2.43591">
        <ele>40</ele>
        <time>2014-05-15T11:40:33Z</time>
      </trkpt>
      <trkpt lat="48.83731" lon="2.43592">
        <ele>39</ele>
        <time>2014-05-15T11:40:34Z</time>
      </trkpt>
      <trkpt lat="48.83732" lon="2.43594">
        <ele>40</ele>
        <time>2014-05-15T11:40:35Z</time>
      </trkpt>
      <trkpt lat="48.83733" lon="2.43596">
        <ele>41</ele>
        <time>2014-05-15T11:40:36Z</time>
      </trkpt>
      <trkpt lat="48.83733" lon="2.43598">
        <ele>42</ele>
        <time>2014-05-15T11:40:37Z</time>
      </trkpt>
      <trkpt lat="48.83734" lon="2.436">
        <ele>40</ele>
        <time>2014-05-15T11:40:38Z</time>
      </trkpt>
      <trkpt lat="48.83735" lon="2.43601">
        <ele>39</ele>
        <time>2014-05-15T11:40:39Z</time>
      </trkpt>
      <trkpt lat="48.83735" lon="2.43603">
        <ele>39</ele>
        <time>2014-05-15T11:40:40Z</time>
      </trkpt>
      <trkpt lat="48.83735" lon="2.43605">
        <ele>40</ele>
        <time>2014-05-15T11:40:41Z</time>
      </trkpt>
      <trkpt lat="48.83736" lon="2.43607">
        <ele>40</ele>
        <time>2014-05-15T11:40:42Z</time>
      </trkpt>
      <trkpt lat="48.83737" lon="2.43608">
        <ele>40</ele>
        <time>2014-05-15T11:40:43Z</time>
      </trkpt>
      <trkpt lat="48.83738" lon="2.43609">
        <ele>41</ele>
        <time>2014-05-15T11:40:44Z</time>
      </trkpt>
      <trkpt lat="48.83739" lon="2.4361">
        <ele>40</ele>
        <time>2014-05-15T11:40:45Z</time>
      </trkpt>
      <trkpt lat="48.83741" lon="2.43611">
        <ele>43</ele>
        <time>2014-05-15T11:40:46Z</time>
      </trkpt>
      <trkpt lat="48.83742" lon="2.43612">
        <ele>43</ele>
        <time>2014-05-15T11:40:47Z</time>
      </trkpt>
      <trkpt lat="48.83743" lon="2.43613">
        <ele>46</ele>
        <time>2014-05-15T11:40:48Z</time>
      </trkpt>
      <trkpt lat="48.83745" lon="2.43613">
        <ele>47</ele>
        <time>2014-05-15T11:40:49Z</time>
      </trkpt>
      <trkpt lat="48.83746" lon="2.43614">
        <ele>45</ele>
        <time>2014-05-15T11:40:50Z</time>
      </trkpt>
      <trkpt lat="48.83747" lon="2.43615">
        <ele>48</ele>
        <time>2014-05-15T11:40:51Z</time>
      </trkpt>
      <trkpt lat="48.83748" lon="2.43616">
        <ele>47</ele>
        <time>2014-05-15T11:40:52Z</time>
      </trkpt>
      <trkpt lat="48.83749" lon="2.43617">
        <ele>45</ele>
        <time>2014-05-15T11:40:53Z</time>
      </trkpt>
      <trkpt lat="48.8375" lon="2.43619">
        <ele>44</ele>
        <time>2014-05-15T11:40:54Z</time>
      </trkpt>
      <trkpt lat="48.83751" lon="2.4362">
        <ele>42</ele>
        <time>2014-05-15T11:40:55Z</time>
      </trkpt>
      <trkpt lat="48.83751" lon="2.43622">
        <ele>41</ele>
        <time>2014-05-15T11:40:56Z</time>
      </trkpt>
      <trkpt lat="48.83752" lon="2.43623">
        <ele>41</ele>
        <time>2014-05-15T11:40:57Z</time>
      </trkpt>
      <trkpt lat="48.83753" lon="2.43625">
        <ele>42</ele>
        <time>2014-05-15T11:40:58Z</time>
      </trkpt>
      <trkpt lat="48.83754" lon="2.43626">
        <ele>43</ele>
        <time>2014-05-15T11:40:59Z</time>
      </trkpt>
      <trkpt lat="48.83756" lon="2.43628">
        <ele>42</ele>
        <time>2014-05-15T11:41:00Z</time>
      </trkpt>
      <trkpt lat="48.83757" lon="2.43629">
        <ele>42</ele>
        <time>2014-05-15T11:41:01Z</time>
      </trkpt>
      <trkpt lat="48.83759" lon="2.4363">
        <ele>44</ele>
        <time>2014-05-15T11:41:02Z</time>
      </trkpt>
      <trkpt lat="48.8376" lon="2.43632">
        <ele>42</ele>
        <time>2014-05-15T11:41:03Z</time>
      </trkpt>
      <trkpt lat="48.83761" lon="2.43633">
        <ele>43</ele>
        <time>2014-05-15T11:41:04Z</time>
      </trkpt>
      <trkpt lat="48.83762" lon="2.43634">
        <ele>44</ele>
        <time>2014-05-15T11:41:05Z</time>
      </trkpt>
      <trkpt lat="48.83763" lon="2.43635">
        <ele>44</ele>
        <time>2014-05-15T11:41:06Z</time>
      </trkpt>
      <trkpt lat="48.83765" lon="2.43637">
        <ele>42</ele>
        <time>2014-05-15T11:41:07Z</time>
      </trkpt>
      <trkpt lat="48.83766" lon="2.43638">
        <ele>42</ele>
        <time>2014-05-15T11:41:08Z</time>
      </trkpt>
      <trkpt lat="48.83767" lon="2.43639">
        <ele>42</ele>
        <time>2014-05-15T11:41:09Z</time>
      </trkpt>
      <trkpt lat="48.83768" lon="2.43641">
        <ele>41</ele>
        <time>2014-05-15T11:41:10Z</time>
      </trkpt>
      <trkpt lat="48.83769" lon="2.43642">
        <ele>41</ele>
        <time>2014-05-15T11:41:11Z</time>
      </trkpt>
      <trkpt lat="48.8377" lon="2.43643">
        <ele>42</ele>
        <time>2014-05-15T11:41:12Z</time>
      </trkpt>
      <trkpt lat="48.83771" lon="2.43645">
        <ele>43</ele>
        <time>2014-05-15T11:41:13Z</time>
      </trkpt>
      <trkpt lat="48.83771" lon="2.43645">
        <ele>43</ele>
        <time>2014-05-15T11:41:14Z</time>
      </trkpt>
      <trkpt lat="48.83771" lon="2.43646">
        <ele>42</ele>
        <time>2014-05-15T11:41:15Z</time>
      </trkpt>
      <trkpt lat="48.83772" lon="2.43646">
        <ele>43</ele>
        <time>2014-05-15T11:41:16Z</time>
      </trkpt>
      <trkpt lat="48.83773" lon="2.43647">
        <ele>44</ele>
        <time>2014-05-15T11:41:17Z</time>
      </trkpt>
      <trkpt lat="48.83774" lon="2.43648">
        <ele>42</ele>
        <time>2014-05-15T11:41:18Z</time>
      </trkpt>
      <trkpt lat="48.83775" lon="2.43648">
        <ele>41</ele>
        <time>2014-05-15T11:41:19Z</time>
      </trkpt>
      <trkpt lat="48.83775" lon="2.43649">
        <ele>41</ele>
        <time>2014-05-15T11:41:20Z</time>
      </trkpt>
      <trkpt lat="48.83776" lon="2.4365">
        <ele>41</ele>
        <time>2014-05-15T11:41:21Z</time>
      </trkpt>
      <trkpt lat="48.83777" lon="2.43651">
        <ele>41</ele>
        <time>2014-05-15T11:41:22Z</time>
      </trkpt>
      <trkpt lat="48.83779" lon="2.43652">
        <ele>43</ele>
        <time>2014-05-15T11:41:23Z</time>
      </trkpt>
      <trkpt lat="48.8378" lon="2.43653">
        <ele>42</ele>
        <time>2014-05-15T11:41:24Z</time>
      </trkpt>
      <trkpt lat="48.83781" lon="2.43654">
        <ele>42</ele>
        <time>2014-05-15T11:41:25Z</time>
      </trkpt>
      <trkpt lat="48.83782" lon="2.43655">
        <ele>43</ele>
        <time>2014-05-15T11:41:26Z</time>
      </trkpt>
      <trkpt lat="48.83783" lon="2.43657">
        <ele>41</ele>
        <time>2014-05-15T11:41:27Z</time>
      </trkpt>
      <trkpt lat="48.83784" lon="2.43658">
        <ele>43</ele>
        <time>2014-05-15T11:41:28Z</time>
      </trkpt>
      <trkpt lat="48.83786" lon="2.4366">
        <ele>43</ele>
        <time>2014-05-15T11:41:29Z</time>
      </trkpt>
      <trkpt lat="48.83788" lon="2.43661">
        <ele>44</ele>
        <time>2014-05-15T11:41:30Z</time>
      </trkpt>
      <trkpt lat="48.83789" lon="2.43663">
        <ele>43</ele>
        <time>2014-05-15T11:41:31Z</time>
      </trkpt>
      <trkpt lat="48.8379" lon="2.43664">
        <ele>41</ele>
        <time>2014-05-15T11:41:32Z</time>
      </trkpt>
      <trkpt lat="48.83791" lon="2.43665">
        <ele>42</ele>
        <time>2014-05-15T11:41:33Z</time>
      </trkpt>
      <trkpt lat="48.83792" lon="2.43667">
        <ele>41</ele>
        <time>2014-05-15T11:41:34Z</time>
      </trkpt>
      <trkpt lat="48.83793" lon="2.43667">
        <ele>41</ele>
        <time>2014-05-15T11:41:35Z</time>
      </trkpt>
      <trkpt lat="48.83794" lon="2.43668">
        <ele>41</ele>
        <time>2014-05-15T11:41:36Z</time>
      </trkpt>
      <trkpt lat="48.83796" lon="2.43669">
        <ele>41</ele>
        <time>2014-05-15T11:41:37Z</time>
      </trkpt>
      <trkpt lat="48.83798" lon="2.4367">
        <ele>41</ele>
        <time>2014-05-15T11:41:38Z</time>
      </trkpt>
      <trkpt lat="48.83799" lon="2.4367">
        <ele>42</ele>
        <time>2014-05-15T11:41:39Z</time>
      </trkpt>
      <trkpt lat="48.83801" lon="2.4367">
        <ele>41</ele>
        <time>2014-05-15T11:41:40Z</time>
      </trkpt>
      <trkpt lat="48.83802" lon="2.43669">
        <ele>41</ele>
        <time>2014-05-15T11:41:41Z</time>
      </trkpt>
      <trkpt lat="48.83803" lon="2.43668">
        <ele>42</ele>
        <time>2014-05-15T11:41:42Z</time>
      </trkpt>
      <trkpt lat="48.83804" lon="2.43668">
        <ele>41</ele>
        <time>2014-05-15T11:41:43Z</time>
      </trkpt>
      <trkpt lat="48.83805" lon="2.43668">
        <ele>40</ele>
        <time>2014-05-15T11:41:44Z</time>
      </trkpt>
      <trkpt lat="48.83807" lon="2.43668">
        <ele>39</ele>
        <time>2014-05-15T11:41:45Z</time>
      </trkpt>
      <trkpt lat="48.83808" lon="2.43668">
        <ele>39</ele>
        <time>2014-05-15T11:41:46Z</time>
      </trkpt>
      <trkpt lat="48.83809" lon="2.43668">
        <ele>39</ele>
        <time>2014-05-15T11:41:47Z</time>
      </trkpt>
      <trkpt lat="48.8381" lon="2.43668">
        <ele>39</ele>
        <time>2014-05-15T11:41:48Z</time>
      </trkpt>
      <trkpt lat="48.83812" lon="2.43668">
        <ele>38</ele>
        <time>2014-05-15T11:41:49Z</time>
      </trkpt>
      <trkpt lat="48.83813" lon="2.43667">
        <ele>39</ele>
        <time>2014-05-15T11:41:50Z</time>
      </trkpt>
      <trkpt lat="48.83815" lon="2.43667">
        <ele>39</ele>
        <time>2014-05-15T11:41:51Z</time>
      </trkpt>
      <trkpt lat="48.83817" lon="2.43667">
        <ele>38</ele>
        <time>2014-05-15T11:41:52Z</time>
      </trkpt>
      <trkpt lat="48.83818" lon="2.43667">
        <ele>38</ele>
        <time>2014-05-15T11:41:53Z</time>
      </trkpt>
      <trkpt lat="48.83819" lon="2.43666">
        <ele>36</ele>
        <time>2014-05-15T11:41:54Z</time>
      </trkpt>
      <trkpt lat="48.83821" lon="2.43665">
        <ele>37</ele>
        <time>2014-05-15T11:41:55Z</time>
      </trkpt>
      <trkpt lat="48.83822" lon="2.43664">
        <ele>38</ele>
        <time>2014-05-15T11:41:56Z</time>
      </trkpt>
      <trkpt lat="48.83823" lon="2.43663">
        <ele>38</ele>
        <time>2014-05-15T11:41:57Z</time>
      </trkpt>
      <trkpt lat="48.83824" lon="2.43662">
        <ele>40</ele>
        <time>2014-05-15T11:41:58Z</time>
      </trkpt>
      <trkpt lat="48.83825" lon="2.4366">
        <ele>41</ele>
        <time>2014-05-15T11:41:59Z</time>
      </trkpt>
      <trkpt lat="48.83826" lon="2.43659">
        <ele>41</ele>
        <time>2014-05-15T11:42:00Z</time>
      </trkpt>
      <trkpt lat="48.83827" lon="2.43657">
        <ele>43</ele>
        <time>2014-05-15T11:42:01Z</time>
      </trkpt>
      <trkpt lat="48.83828" lon="2.43656">
        <ele>43</ele>
        <time>2014-05-15T11:42:02Z</time>
      </trkpt>
      <trkpt lat="48.83829" lon="2.43655">
        <ele>43</ele>
        <time>2014-05-15T11:42:03Z</time>
      </trkpt>
      <trkpt lat="48.8383" lon="2.43654">
        <ele>41</ele>
        <time>2014-05-15T11:42:04Z</time>
      </trkpt>
      <trkpt lat="48.83831" lon="2.43653">
        <ele>41</ele>
        <time>2014-05-15T11:42:05Z</time>
      </trkpt>
      <trkpt lat="48.83833" lon="2.43653">
        <ele>40</ele>
        <time>2014-05-15T11:42:06Z</time>
      </trkpt>
      <trkpt lat="48.83834" lon="2.43652">
        <ele>41</ele>
        <time>2014-05-15T11:42:07Z</time>
      </trkpt>
      <trkpt lat="48.83835" lon="2.43651">
        <ele>40</ele>
        <time>2014-05-15T11:42:08Z</time>
      </trkpt>
      <trkpt lat="48.83836" lon="2.43651">
        <ele>40</ele>
        <time>2014-05-15T11:42:09Z</time>
      </trkpt>
      <trkpt lat="48.83837" lon="2.43651">
        <ele>40</ele>
        <time>2014-05-15T11:42:10Z</time>
      </trkpt>
      <trkpt lat="48.83838" lon="2.43651">
        <ele>41</ele>
        <time>2014-05-15T11:42:11Z</time>
      </trkpt>
      <trkpt lat="48.83839" lon="2.43651">
        <ele>41</ele>
        <time>2014-05-15T11:42:12Z</time>
      </trkpt>
      <trkpt lat="48.83841" lon="2.43652">
        <ele>40</ele>
        <time>2014-05-15T11:42:13Z</time>
      </trkpt>
      <trkpt lat="48.83842" lon="2.43652">
        <ele>40</ele>
        <time>2014-05-15T11:42:14Z</time>
      </trkpt>
      <trkpt lat="48.83843" lon="2.43652">
        <ele>41</ele>
        <time>2014-05-15T11:42:15Z</time>
      </trkpt>
      <trkpt lat="48.83844" lon="2.43652">
        <ele>44</ele>
        <time>2014-05-15T11:42:16Z</time>
      </trkpt>
      <trkpt lat="48.83845" lon="2.43653">
        <ele>43</ele>
        <time>2014-05-15T11:42:17Z</time>
      </trkpt>
      <trkpt lat="48.83846" lon="2.43652">
        <ele>43</ele>
        <time>2014-05-15T11:42:18Z</time>
      </trkpt>
      <trkpt lat="48.83847" lon="2.43651">
        <ele>42</ele>
        <time>2014-05-15T11:42:19Z</time>
      </trkpt>
      <trkpt lat="48.83848" lon="2.4365">
        <ele>41</ele>
        <time>2014-05-15T11:42:20Z</time>
      </trkpt>
      <trkpt lat="48.83849" lon="2.43649">
        <ele>42</ele>
        <time>2014-05-15T11:42:21Z</time>
      </trkpt>
      <trkpt lat="48.83849" lon="2.43648">
        <ele>44</ele>
        <time>2014-05-15T11:42:22Z</time>
      </trkpt>
      <trkpt lat="48.8385" lon="2.43648">
        <ele>42</ele>
        <time>2014-05-15T11:42:23Z</time>
      </trkpt>
      <trkpt lat="48.83852" lon="2.43648">
        <ele>43</ele>
        <time>2014-05-15T11:42:24Z</time>
      </trkpt>
      <trkpt lat="48.83853" lon="2.43649">
        <ele>45</ele>
        <time>2014-05-15T11:42:25Z</time>
      </trkpt>
      <trkpt lat="48.83854" lon="2.4365">
        <ele>46</ele>
        <time>2014-05-15T11:42:26Z</time>
      </trkpt>
      <trkpt lat="48.83856" lon="2.43651">
        <ele>45</ele>
        <time>2014-05-15T11:42:27Z</time>
      </trkpt>
      <trkpt lat="48.83858" lon="2.43652">
        <ele>45</ele>
        <time>2014-05-15T11:42:28Z</time>
      </trkpt>
      <trkpt lat="48.83859" lon="2.43652">
        <ele>43</ele>
        <time>2014-05-15T11:42:29Z</time>
      </trkpt>
      <trkpt lat="48.8386" lon="2.43653">
        <ele>42</ele>
        <time>2014-05-15T11:42:30Z</time>
      </trkpt>
      <trkpt lat="48.83861" lon="2.43653">
        <ele>43</ele>
        <time>2014-05-15T11:42:31Z</time>
      </trkpt>
      <trkpt lat="48.83862" lon="2.43653">
        <ele>43</ele>
        <time>2014-05-15T11:42:32Z</time>
      </trkpt>
      <trkpt lat="48.83863" lon="2.43653">
        <ele>43</ele>
        <time>2014-05-15T11:42:33Z</time>
      </trkpt>
      <trkpt lat="48.83864" lon="2.43652">
        <ele>42</ele>
        <time>2014-05-15T11:42:34Z</time>
      </trkpt>
      <trkpt lat="48.83864" lon="2.43652">
        <ele>42</ele>
        <time>2014-05-15T11:42:35Z</time>
      </trkpt>
      <trkpt lat="48.83865" lon="2.43651">
        <ele>41</ele>
        <time>2014-05-15T11:42:36Z</time>
      </trkpt>
      <trkpt lat="48.83865" lon="2.43651">
        <ele>41</ele>
        <time>2014-05-15T11:42:37Z</time>
      </trkpt>
      <trkpt lat="48.83866" lon="2.4365">
        <ele>41</ele>
        <time>2014-05-15T11:42:38Z</time>
      </trkpt>
      <trkpt lat="48.83866" lon="2.4365">
        <ele>42</ele>
        <time>2014-05-15T11:42:39Z</time>
      </trkpt>
      <trkpt lat="48.83867" lon="2.43649">
        <ele>42</ele>
        <time>2014-05-15T11:42:40Z</time>
      </trkpt>
      <trkpt lat="48.83868" lon="2.43649">
        <ele>43</ele>
        <time>2014-05-15T11:42:41Z</time>
      </trkpt>
      <trkpt lat="48.83868" lon="2.43648">
        <ele>45</ele>
        <time>2014-05-15T11:42:42Z</time>
      </trkpt>
      <trkpt lat="48.83869" lon="2.43648">
        <ele>44</ele>
        <time>2014-05-15T11:42:43Z</time>
      </trkpt>
      <trkpt lat="48.8387" lon="2.43648">
        <ele>44</ele>
        <time>2014-05-15T11:42:44Z</time>
      </trkpt>
      <trkpt lat="48.83871" lon="2.43647">
        <ele>44</ele>
        <time>2014-05-15T11:42:45Z</time>
      </trkpt>
      <trkpt lat="48.83872" lon="2.43647">
        <ele>45</ele>
        <time>2014-05-15T11:42:46Z</time>
      </trkpt>
      <trkpt lat="48.83873" lon="2.43647">
        <ele>45</ele>
        <time>2014-05-15T11:42:47Z</time>
      </trkpt>
      <trkpt lat="48.83874" lon="2.43646">
        <ele>45</ele>
        <time>2014-05-15T11:42:48Z</time>
      </trkpt>
      <trkpt lat="48.83875" lon="2.43646">
        <ele>45</ele>
        <time>2014-05-15T11:42:49Z</time>
      </trkpt>
      <trkpt lat="48.83876" lon="2.43647">
        <ele>45</ele>
        <time>2014-05-15T11:42:50Z</time>
      </trkpt>
      <trkpt lat="48.83876" lon="2.43647">
        <ele>43</ele>
        <time>2014-05-15T11:42:51Z</time>
      </trkpt>
      <trkpt lat="48.83876" lon="2.43648">
        <ele>44</ele>
        <time>2014-05-15T11:42:52Z</time>
      </trkpt>
      <trkpt lat="48.83877" lon="2.43648">
        <ele>43</ele>
        <time>2014-05-15T11:42:53Z</time>
      </trkpt>
      <trkpt lat="48.83877" lon="2.43648">
        <ele>44</ele>
        <time>2014-05-15T11:42:54Z</time>
      </trkpt>
      <trkpt lat="48.83877" lon="2.43648">
        <ele>44</ele>
        <time>2014-05-15T11:42:55Z</time>
      </trkpt>
      <trkpt lat="48.83877" lon="2.43648">
        <ele>44</ele>
        <time>2014-05-15T11:42:56Z</time>
      </trkpt>
      <trkpt lat="48.83878" lon="2.43648">
        <ele>44</ele>
        <time>2014-05-15T11:42:57Z</time>
      </trkpt>
      <trkpt lat="48.83878" lon="2.43647">
        <ele>44</ele>
        <time>2014-05-15T11:42:58Z</time>
      </trkpt>
      <trkpt lat="48.83878" lon="2.43648">
        <ele>43</ele>
        <time>2014-05-15T11:42:59Z</time>
      </trkpt>
      <trkpt lat="48.83879" lon="2.43648">
        <ele>43</ele>
        <time>2014-05-15T11:43:00Z</time>
      </trkpt>
      <trkpt lat="48.83879" lon="2.43648">
        <ele>43</ele>
        <time>2014-05-15T11:43:01Z</time>
      </trkpt>
      <trkpt lat="48.8388" lon="2.43648">
        <ele>43</ele>
        <time>2014-05-15T11:43:02Z</time>
      </trkpt>
      <trkpt lat="48.83881" lon="2.43648">
        <ele>42</ele>
        <time>2014-05-15T11:43:03Z</time>
      </trkpt>
      <trkpt lat="48.83881" lon="2.43647">
        <ele>43</ele>
        <time>2014-05-15T11:43:04Z</time>
      </trkpt>
      <trkpt lat="48.83883" lon="2.43647">
        <ele>42</ele>
        <time>2014-05-15T11:43:05Z</time>
      </trkpt>
      <trkpt lat="48.83884" lon="2.43647">
        <ele>42</ele>
        <time>2014-05-15T11:43:06Z</time>
      </trkpt>
      <trkpt lat="48.83886" lon="2.43647">
        <ele>43</ele>
        <time>2014-05-15T11:43:07Z</time>
      </trkpt>
      <trkpt lat="48.83888" lon="2.43647">
        <ele>43</ele>
        <time>2014-05-15T11:43:08Z</time>
      </trkpt>
      <trkpt lat="48.83889" lon="2.43647">
        <ele>44</ele>
        <time>2014-05-15T11:43:09Z</time>
      </trkpt>
      <trkpt lat="48.83889" lon="2.43647">
        <ele>43</ele>
        <time>2014-05-15T11:43:10Z</time>
      </trkpt>
      <trkpt lat="48.8389" lon="2.43647">
        <ele>43</ele>
        <time>2014-05-15T11:43:11Z</time>
      </trkpt>
      <trkpt lat="48.8389" lon="2.43647">
        <ele>43</ele>
        <time>2014-05-15T11:43:12Z</time>
      </trkpt>
      <trkpt lat="48.83891" lon="2.43647">
        <ele>42</ele>
        <time>2014-05-15T11:43:13Z</time>
      </trkpt>
      <trkpt lat="48.83891" lon="2.43646">
        <ele>43</ele>
        <time>2014-05-15T11:43:14Z</time>
      </trkpt>
      <trkpt lat="48.83891" lon="2.43647">
        <ele>42</ele>
        <time>2014-05-15T11:43:15Z</time>
      </trkpt>
      <trkpt lat="48.83892" lon="2.43647">
        <ele>43</ele>
        <time>2014-05-15T11:43:16Z</time>
      </trkpt>
      <trkpt lat="48.83892" lon="2.43647">
        <ele>43</ele>
        <time>2014-05-15T11:43:17Z</time>
      </trkpt>
      <trkpt lat="48.83893" lon="2.43647">
        <ele>43</ele>
        <time>2014-05-15T11:43:18Z</time>
      </trkpt>
      <trkpt lat="48.83893" lon="2.43647">
        <ele>43</ele>
        <time>2014-05-15T11:43:19Z</time>
      </trkpt>
      <trkpt lat="48.83893" lon="2.43647">
        <ele>43</ele>
        <time>2014-05-15T11:43:20Z</time>
      </trkpt>
      <trkpt lat="48.83894" lon="2.43647">
        <ele>43</ele>
        <time>2014-05-15T11:43:21Z</time>
      </trkpt>
      <trkpt lat="48.83896" lon="2.43647">
        <ele>44</ele>
        <time>2014-05-15T11:43:22Z</time>
      </trkpt>
      <trkpt lat="48.83898" lon="2.43647">
        <ele>43</ele>
        <time>2014-05-15T11:43:23Z</time>
      </trkpt>
      <trkpt lat="48.839" lon="2.43648">
        <ele>43</ele>
        <time>2014-05-15T11:43:24Z</time>
      </trkpt>
      <trkpt lat="48.83902" lon="2.43648">
        <ele>43</ele>
        <time>2014-05-15T11:43:25Z</time>
      </trkpt>
      <trkpt lat="48.83904" lon="2.43648">
        <ele>43</ele>
        <time>2014-05-15T11:43:26Z</time>
      </trkpt>
      <trkpt lat="48.83906" lon="2.43648">
        <ele>43</ele>
        <time>2014-05-15T11:43:27Z</time>
      </trkpt>
      <trkpt lat="48.83908" lon="2.43648">
        <ele>44</ele>
        <time>2014-05-15T11:43:28Z</time>
      </trkpt>
      <trkpt lat="48.8391" lon="2.43648">
        <ele>46</ele>
        <time>2014-05-15T11:43:29Z</time>
      </trkpt>
      <trkpt lat="48.83912" lon="2.43648">
        <ele>46</ele>
        <time>2014-05-15T11:43:30Z</time>
      </trkpt>
      <trkpt lat="48.83914" lon="2.43648">
        <ele>47</ele>
        <time>2014-05-15T11:43:31Z</time>
      </trkpt>
      <trkpt lat="48.83915" lon="2.43648">
        <ele>47</ele>
        <time>2014-05-15T11:43:32Z</time>
      </trkpt>
      <trkpt lat="48.83917" lon="2.43649">
        <ele>45</ele>
        <time>2014-05-15T11:43:33Z</time>
      </trkpt>
      <trkpt lat="48.83917" lon="2.43649">
        <ele>43</ele>
        <time>2014-05-15T11:43:34Z</time>
      </trkpt>
      <trkpt lat="48.83918" lon="2.43649">
        <ele>44</ele>
        <time>2014-05-15T11:43:35Z</time>
      </trkpt>
      <trkpt lat="48.83918" lon="2.43648">
        <ele>43</ele>
        <time>2014-05-15T11:43:36Z</time>
      </trkpt>
      <trkpt lat="48.83919" lon="2.43648">
        <ele>44</ele>
        <time>2014-05-15T11:43:37Z</time>
      </trkpt>
      <trkpt lat="48.8392" lon="2.43648">
        <ele>45</ele>
        <time>2014-05-15T11:43:38Z</time>
      </trkpt>
      <trkpt lat="48.8392" lon="2.43648">
        <ele>44</ele>
        <time>2014-05-15T11:43:39Z</time>
      </trkpt>
      <trkpt lat="48.8392" lon="2.43647">
        <ele>45</ele>
        <time>2014-05-15T11:43:40Z</time>
      </trkpt>
      <trkpt lat="48.83921" lon="2.43647">
        <ele>45</ele>
        <time>2014-05-15T11:43:41Z</time>
      </trkpt>
      <trkpt lat="48.83921" lon="2.43647">
        <ele>47</ele>
        <time>2014-05-15T11:43:42Z</time>
      </trkpt>
      <trkpt lat="48.83923" lon="2.43646">
        <ele>46</ele>
        <time>2014-05-15T11:43:43Z</time>
      </trkpt>
      <trkpt lat="48.83924" lon="2.43646">
        <ele>46</ele>
        <time>2014-05-15T11:43:44Z</time>
      </trkpt>
      <trkpt lat="48.83925" lon="2.43646">
        <ele>47</ele>
        <time>2014-05-15T11:43:45Z</time>
      </trkpt>
      <trkpt lat="48.83926" lon="2.43646">
        <ele>48</ele>
        <time>2014-05-15T11:43:46Z</time>
      </trkpt>
      <trkpt lat="48.83927" lon="2.43647">
        <ele>47</ele>
        <time>2014-05-15T11:43:47Z</time>
      </trkpt>
      <trkpt lat="48.83928" lon="2.43647">
        <ele>48</ele>
        <time>2014-05-15T11:43:48Z</time>
      </trkpt>
      <trkpt lat="48.83929" lon="2.43647">
        <ele>48</ele>
        <time>2014-05-15T11:43:49Z</time>
      </trkpt>
      <trkpt lat="48.83929" lon="2.43647">
        <ele>49</ele>
        <time>2014-05-15T11:43:50Z</time>
      </trkpt>
      <trkpt lat="48.83929" lon="2.43647">
        <ele>49</ele>
        <time>2014-05-15T11:43:51Z</time>
      </trkpt>
      <trkpt lat="48.83929" lon="2.43647">
        <ele>50</ele>
        <time>2014-05-15T11:43:52Z</time>
      </trkpt>
      <trkpt lat="48.8393" lon="2.43648">
        <ele>50</ele>
        <time>2014-05-15T11:43:53Z</time>
      </trkpt>
      <trkpt lat="48.8393" lon="2.43648">
        <ele>50</ele>
        <time>2014-05-15T11:43:54Z</time>
      </trkpt>
      <trkpt lat="48.8393" lon="2.43648">
        <ele>51</ele>
        <time>2014-05-15T11:43:55Z</time>
      </trkpt>
      <trkpt lat="48.83931" lon="2.43648">
        <ele>51</ele>
        <time>2014-05-15T11:43:56Z</time>
      </trkpt>
      <trkpt lat="48.83931" lon="2.43648">
        <ele>51</ele>
        <time>2014-05-15T11:43:57Z</time>
      </trkpt>
      <trkpt lat="48.83931" lon="2.43648">
        <ele>51</ele>
        <time>2014-05-15T11:43:58Z</time>
      </trkpt>
      <trkpt lat="48.83932" lon="2.43648">
        <ele>51</ele>
        <time>2014-05-15T11:43:59Z</time>
      </trkpt>
      <trkpt lat="48.83932" lon="2.43649">
        <ele>51</ele>
        <time>2014-05-15T11:44:00Z</time>
      </trkpt>
      <trkpt lat="48.83932" lon="2.43649">
        <ele>51</ele>
        <time>2014-05-15T11:44:01Z</time>
      </trkpt>
      <trkpt lat="48.83932" lon="2.4365">
        <ele>50</ele>
        <time>2014-05-15T11:44:02Z</time>
      </trkpt>
      <trkpt lat="48.83932" lon="2.43651">
        <ele>47</ele>
        <time>2014-05-15T11:44:03Z</time>
      </trkpt>
      <trkpt lat="48.83931" lon="2.43652">
        <ele>47</ele>
        <time>2014-05-15T11:44:04Z</time>
      </trkpt>
      <trkpt lat="48.83931" lon="2.43653">
        <ele>48</ele>
        <time>2014-05-15T11:44:05Z</time>
      </trkpt>
      <trkpt lat="48.83931" lon="2.43655">
        <ele>48</ele>
        <time>2014-05-15T11:44:06Z</time>
      </trkpt>
      <trkpt lat="48.83931" lon="2.43656">
        <ele>48</ele>
        <time>2014-05-15T11:44:07Z</time>
      </trkpt>
      <trkpt lat="48.83932" lon="2.43656">
        <ele>49</ele>
        <time>2014-05-15T11:44:08Z</time>
      </trkpt>
      <trkpt lat="48.83932" lon="2.43657">
        <ele>48</ele>
        <time>2014-05-15T11:44:09Z</time>
      </trkpt>
      <trkpt lat="48.83933" lon="2.43658">
        <ele>48</ele>
        <time>2014-05-15T11:44:10Z</time>
      </trkpt>
      <trkpt lat="48.83933" lon="2.43659">
        <ele>47</ele>
        <time>2014-05-15T11:44:11Z</time>
      </trkpt>
      <trkpt lat="48.83934" lon="2.4366">
        <ele>47</ele>
        <time>2014-05-15T11:44:12Z</time>
      </trkpt>
      <trkpt lat="48.83934" lon="2.43661">
        <ele>46</ele>
        <time>2014-05-15T11:44:13Z</time>
      </trkpt>
      <trkpt lat="48.83935" lon="2.43662">
        <ele>46</ele>
        <time>2014-05-15T11:44:14Z</time>
      </trkpt>
      <trkpt lat="48.83935" lon="2.43662">
        <ele>46</ele>
        <time>2014-05-15T11:44:15Z</time>
      </trkpt>
      <trkpt lat="48.83935" lon="2.43663">
        <ele>47</ele>
        <time>2014-05-15T11:44:16Z</time>
      </trkpt>
      <trkpt lat="48.83936" lon="2.43663">
        <ele>47</ele>
        <time>2014-05-15T11:44:17Z</time>
      </trkpt>
      <trkpt lat="48.83936" lon="2.43664">
        <ele>47</ele>
        <time>2014-05-15T11:44:18Z</time>
      </trkpt>
      <trkpt lat="48.83937" lon="2.43664">
        <ele>47</ele>
        <time>2014-05-15T11:44:19Z</time>
      </trkpt>
      <trkpt lat="48.83937" lon="2.43664">
        <ele>47</ele>
        <time>2014-05-15T11:44:20Z</time>
      </trkpt>
      <trkpt lat="48.83937" lon="2.43665">
        <ele>46</ele>
        <time>2014-05-15T11:44:21Z</time>
      </trkpt>
      <trkpt lat="48.83938" lon="2.43665">
        <ele>46</ele>
        <time>2014-05-15T11:44:22Z</time>
      </trkpt>
      <trkpt lat="48.83938" lon="2.43665">
        <ele>46</ele>
        <time>2014-05-15T11:44:23Z</time>
      </trkpt>
      <trkpt lat="48.83938" lon="2.43666">
        <ele>46</ele>
        <time>2014-05-15T11:44:24Z</time>
      </trkpt>
      <trkpt lat="48.83938" lon="2.43666">
        <ele>46</ele>
        <time>2014-05-15T11:44:25Z</time>
      </trkpt>
      <trkpt lat="48.83938" lon="2.43666">
        <ele>46</ele>
        <time>2014-05-15T11:44:26Z</time>
      </trkpt>
      <trkpt lat="48.83938" lon="2.43666">
        <ele>46</ele>
        <time>2014-05-15T11:44:27Z</time>
      </trkpt>
      <trkpt lat="48.83938" lon="2.43666">
        <ele>46</ele>
        <time>2014-05-15T11:44:28Z</time>
      </trkpt>
      <trkpt lat="48.83938" lon="2.43666">
        <ele>46</ele>
        <time>2014-05-15T11:44:29Z</time>
      </trkpt>
      <trkpt lat="48.83938" lon="2.43666">
        <ele>46</ele>
        <time>2014-05-15T11:44:30Z</time>
      </trkpt>
      <trkpt lat="48.83938" lon="2.43666">
        <ele>46</ele>
        <time>2014-05-15T11:44:31Z</time>
      </trkpt>
      <trkpt lat="48.83938" lon="2.43666">
        <ele>46</ele>
        <time>2014-05-15T11:44:32Z</time>
      </trkpt>
      <trkpt lat="48.83938" lon="2.43666">
        <ele>46</ele>
        <time>2014-05-15T11:44:33Z</time>
      </trkpt>
      <trkpt lat="48.83938" lon="2.43666">
        <ele>46</ele>
        <time>2014-05-15T11:44:34Z</time>
      </trkpt>
      <trkpt lat="48.83938" lon="2.43666">
        <ele>46</ele>
        <time>2014-05-15T11:44:35Z</time>
      </trkpt>
      <trkpt lat="48.83938" lon="2.43666">
        <ele>46</ele>
        <time>2014-05-15T11:44:36Z</time>
      </trkpt>
      <trkpt lat="48.83938" lon="2.43666">
        <ele>46</ele>
        <time>2014-05-15T11:44:37Z</time>
      </trkpt>
      <trkpt lat="48.83938" lon="2.43666">
        <ele>46</ele>
        <time>2014-05-15T11:44:38Z</time>
      </trkpt>
      <trkpt lat="48.83938" lon="2.43666">
        <ele>46</ele>
        <time>2014-05-15T11:44:39Z</time>
      </trkpt>
      <trkpt lat="48.83939" lon="2.43667">
        <ele>47</ele>
        <time>2014-05-15T11:44:40Z</time>
      </trkpt>
      <trkpt lat="48.8394" lon="2.43667">
        <ele>49</ele>
        <time>2014-05-15T11:44:41Z</time>
      </trkpt>
      <trkpt lat="48.8394" lon="2.43668">
        <ele>49</ele>
        <time>2014-05-15T11:44:42Z</time>
      </trkpt>
      <trkpt lat="48.8394" lon="2.43668">
        <ele>50</ele>
        <time>2014-05-15T11:44:43Z</time>
      </trkpt>
      <trkpt lat="48.8394" lon="2.43669">
        <ele>50</ele>
        <time>2014-05-15T11:44:44Z</time>
      </trkpt>
      <trkpt lat="48.83939" lon="2.43669">
        <ele>50</ele>
        <time>2014-05-15T11:44:45Z</time>
      </trkpt>
      <trkpt lat="48.83939" lon="2.43669">
        <ele>50</ele>
        <time>2014-05-15T11:44:46Z</time>
      </trkpt>
      <trkpt lat="48.83938" lon="2.43668">
        <ele>49</ele>
        <time>2014-05-15T11:44:47Z</time>
      </trkpt>
      <trkpt lat="48.83938" lon="2.43668">
        <ele>50</ele>
        <time>2014-05-15T11:44:48Z</time>
      </trkpt>
      <trkpt lat="48.83938" lon="2.43668">
        <ele>50</ele>
        <time>2014-05-15T11:44:49Z</time>
      </trkpt>
      <trkpt lat="48.83939" lon="2.43668">
        <ele>50</ele>
        <time>2014-05-15T11:44:50Z</time>
      </trkpt>
      <trkpt lat="48.83939" lon="2.43668">
        <ele>51</ele>
        <time>2014-05-15T11:44:51Z</time>
      </trkpt>
      <trkpt lat="48.83939" lon="2.43668">
        <ele>50</ele>
        <time>2014-05-15T11:44:52Z</time>
      </trkpt>
      <trkpt lat="48.83939" lon="2.43668">
        <ele>50</ele>
        <time>2014-05-15T11:44:53Z</time>
      </trkpt>
      <trkpt lat="48.83939" lon="2.43668">
        <ele>50</ele>
        <time>2014-05-15T11:44:54Z</time>
      </trkpt>
      <trkpt lat="48.83939" lon="2.43668">
        <ele>50</ele>
        <time>2014-05-15T11:44:55Z</time>
      </trkpt>
      <trkpt lat="48.83939" lon="2.43668">
        <ele>50</ele>
        <time>2014-05-15T11:44:56Z</time>
      </trkpt>
      <trkpt lat="48.83939" lon="2.43668">
        <ele>50</ele>
        <time>2014-05-15T11:44:57Z</time>
      </trkpt>
      <trkpt lat="48.83939" lon="2.43668">
        <ele>50</ele>
        <time>2014-05-15T11:44:58Z</time>
      </trkpt>
      <trkpt lat="48.83939" lon="2.43668">
        <ele>50</ele>
        <time>2014-05-15T11:44:59Z</time>
      </trkpt>
      <trkpt lat="48.83939" lon="2.43668">
        <ele>50</ele>
        <time>2014-05-15T11:45:00Z</time>
      </trkpt>
      <trkpt lat="48.83939" lon="2.43668">
        <ele>50</ele>
        <time>2014-05-15T11:45:01Z</time>
      </trkpt>
      <trkpt lat="48.83939" lon="2.43668">
        <ele>50</ele>
        <time>2014-05-15T11:45:02Z</time>
      </trkpt>
      <trkpt lat="48.83939" lon="2.43668">
        <ele>50</ele>
        <time>2014-05-15T11:45:03Z</time>
      </trkpt>
      <trkpt lat="48.83939" lon="2.43668">
        <ele>50</ele>
        <time>2014-05-15T11:45:04Z</time>
      </trkpt>
      <trkpt lat="48.83939" lon="2.43668">
        <ele>50</ele>
        <time>2014-05-15T11:45:05Z</time>
      </trkpt>
      <trkpt lat="48.83939" lon="2.43668">
        <ele>50</ele>
        <time>2014-05-15T11:45:06Z</time>
      </trkpt>
      <trkpt lat="48.83939" lon="2.43668">
        <ele>50</ele>
        <time>2014-05-15T11:45:07Z</time>
      </trkpt>
      <trkpt lat="48.83939" lon="2.43668">
        <ele>50</ele>
        <time>2014-05-15T11:45:08Z</time>
      </trkpt>
      <trkpt lat="48.83939" lon="2.43668">
        <ele>50</ele>
        <time>2014-05-15T11:45:09Z</time>
      </trkpt>
      <trkpt lat="48.83939" lon="2.43668">
        <ele>50</ele>
        <time>2014-05-15T11:45:10Z</time>
      </trkpt>
      <trkpt lat="48.83939" lon="2.43668">
        <ele>50</ele>
        <time>2014-05-15T11:45:11Z</time>
      </trkpt>
      <trkpt lat="48.83939" lon="2.43668">
        <ele>50</ele>
        <time>2014-05-15T11:45:12Z</time>
      </trkpt>
      <trkpt lat="48.83939" lon="2.43668">
        <ele>50</ele>
        <time>2014-05-15T11:45:13Z</time>
      </trkpt>
      <trkpt lat="48.83939" lon="2.43668">
        <ele>50</ele>
        <time>2014-05-15T11:45:14Z</time>
      </trkpt>
      <trkpt lat="48.83939" lon="2.43668">
        <ele>50</ele>
        <time>2014-05-15T11:45:15Z</time>
      </trkpt>
      <trkpt lat="48.83939" lon="2.43668">
        <ele>50</ele>
        <time>2014-05-15T11:45:16Z</time>
      </trkpt>
      <trkpt lat="48.83939" lon="2.43668">
        <ele>50</ele>
        <time>2014-05-15T11:45:17Z</time>
      </trkpt>
      <trkpt lat="48.83939" lon="2.43668">
        <ele>50</ele>
        <time>2014-05-15T11:45:18Z</time>
      </trkpt>
      <trkpt lat="48.83939" lon="2.43668">
        <ele>50</ele>
        <time>2014-05-15T11:45:19Z</time>
      </trkpt>
      <trkpt lat="48.83939" lon="2.43668">
        <ele>50</ele>
        <time>2014-05-15T11:45:20Z</time>
      </trkpt>
      <trkpt lat="48.83939" lon="2.43668">
        <ele>50</ele>
        <time>2014-05-15T11:45:21Z</time>
      </trkpt>
      <trkpt lat="48.83939" lon="2.43668">
        <ele>50</ele>
        <time>2014-05-15T11:45:22Z</time>
      </trkpt>
      <trkpt lat="48.83939" lon="2.43668">
        <ele>50</ele>
        <time>2014-05-15T11:45:23Z</time>
      </trkpt>
      <trkpt lat="48.83939" lon="2.43668">
        <ele>50</ele>
        <time>2014-05-15T11:45:24Z</time>
      </trkpt>
      <trkpt lat="48.83939" lon="2.43668">
        <ele>50</ele>
        <time>2014-05-15T11:45:25Z</time>
      </trkpt>
      <trkpt lat="48.83939" lon="2.43668">
        <ele>50</ele>
        <time>2014-05-15T11:45:26Z</time>
      </trkpt>
      <trkpt lat="48.83939" lon="2.43668">
        <ele>50</ele>
        <time>2014-05-15T11:45:27Z</time>
      </trkpt>
      <trkpt lat="48.83939" lon="2.43668">
        <ele>50</ele>
        <time>2014-05-15T11:45:28Z</time>
      </trkpt>
      <trkpt lat="48.83939" lon="2.43668">
        <ele>50</ele>
        <time>2014-05-15T11:45:29Z</time>
      </trkpt>
      <trkpt lat="48.83939" lon="2.43668">
        <ele>50</ele>
        <time>2014-05-15T11:45:30Z</time>
      </trkpt>
      <trkpt lat="48.83939" lon="2.43668">
        <ele>50</ele>
        <time>2014-05-15T11:45:31Z</time>
      </trkpt>
      <trkpt lat="48.83939" lon="2.43668">
        <ele>50</ele>
        <time>2014-05-15T11:45:32Z</time>
      </trkpt>
      <trkpt lat="48.83939" lon="2.43668">
        <ele>50</ele>
        <time>2014-05-15T11:45:33Z</time>
      </trkpt>
      <trkpt lat="48.83939" lon="2.43668">
        <ele>50</ele>
        <time>2014-05-15T11:45:34Z</time>
      </trkpt>
      <trkpt lat="48.83939" lon="2.43668">
        <ele>50</ele>
        <time>2014-05-15T11:45:35Z</time>
      </trkpt>
      <trkpt lat="48.83939" lon="2.43668">
        <ele>50</ele>
        <time>2014-05-15T11:45:36Z</time>
      </trkpt>
      <trkpt lat="48.83939" lon="2.43668">
        <ele>50</ele>
        <time>2014-05-15T11:45:37Z</time>
      </trkpt>
      <trkpt lat="48.83939" lon="2.43668">
        <ele>50</ele>
        <time>2014-05-15T11:45:38Z</time>
      </trkpt>
      <trkpt lat="48.83939" lon="2.43668">
        <ele>50</ele>
        <time>2014-05-15T11:45:39Z</time>
      </trkpt>
      <trkpt lat="48.83939" lon="2.43667">
        <ele>46</ele>
        <time>2014-05-15T11:45:40Z</time>
      </trkpt>
      <trkpt lat="48.83939" lon="2.43666">
        <ele>48</ele>
        <time>2014-05-15T11:45:41Z</time>
      </trkpt>
      <trkpt lat="48.83939" lon="2.43665">
        <ele>47</ele>
        <time>2014-05-15T11:45:42Z</time>
      </trkpt>
      <trkpt lat="48.83938" lon="2.43665">
        <ele>47</ele>
        <time>2014-05-15T11:45:43Z</time>
      </trkpt>
      <trkpt lat="48.83938" lon="2.43665">
        <ele>46</ele>
        <time>2014-05-15T11:45:44Z</time>
      </trkpt>
      <trkpt lat="48.83938" lon="2.43666">
        <ele>47</ele>
        <time>2014-05-15T11:45:45Z</time>
      </trkpt>
      <trkpt lat="48.83937" lon="2.43666">
        <ele>49</ele>
        <time>2014-05-15T11:45:46Z</time>
      </trkpt>
      <trkpt lat="48.83937" lon="2.43667">
        <ele>49</ele>
        <time>2014-05-15T11:45:47Z</time>
      </trkpt>
      <trkpt lat="48.83937" lon="2.43667">
        <ele>50</ele>
        <time>2014-05-15T11:45:48Z</time>
      </trkpt>
      <trkpt lat="48.83937" lon="2.43667">
        <ele>51</ele>
        <time>2014-05-15T11:45:49Z</time>
      </trkpt>
      <trkpt lat="48.83937" lon="2.43667">
        <ele>50</ele>
        <time>2014-05-15T11:45:50Z</time>
      </trkpt>
      <trkpt lat="48.83937" lon="2.43667">
        <ele>50</ele>
        <time>2014-05-15T11:45:51Z</time>
      </trkpt>
      <trkpt lat="48.83937" lon="2.43667">
        <ele>51</ele>
        <time>2014-05-15T11:45:52Z</time>
      </trkpt>
      <trkpt lat="48.83937" lon="2.43667">
        <ele>51</ele>
        <time>2014-05-15T11:45:53Z</time>
      </trkpt>
      <trkpt lat="48.83937" lon="2.43667">
        <ele>51</ele>
        <time>2014-05-15T11:45:54Z</time>
      </trkpt>
      <trkpt lat="48.83937" lon="2.43667">
        <ele>51</ele>
        <time>2014-05-15T11:45:55Z</time>
      </trkpt>
      <trkpt lat="48.83937" lon="2.43667">
        <ele>51</ele>
        <time>2014-05-15T11:45:56Z</time>
      </trkpt>
      <trkpt lat="48.83937" lon="2.43667">
        <ele>51</ele>
        <time>2014-05-15T11:45:57Z</time>
      </trkpt>
      <trkpt lat="48.83937" lon="2.43667">
        <ele>51</ele>
        <time>2014-05-15T11:45:58Z</time>
      </trkpt>
      <trkpt lat="48.83937" lon="2.43667">
        <ele>50</ele>
        <time>2014-05-15T11:45:59Z</time>
      </trkpt>
      <trkpt lat="48.83938" lon="2.43667">
        <ele>51</ele>
        <time>2014-05-15T11:46:00Z</time>
      </trkpt>
      <trkpt lat="48.83938" lon="2.43668">
        <ele>51</ele>
        <time>2014-05-15T11:46:01Z</time>
      </trkpt>
      <trkpt lat="48.83939" lon="2.43669">
        <ele>53</ele>
        <time>2014-05-15T11:46:02Z</time>
      </trkpt>
      <trkpt lat="48.83939" lon="2.4367">
        <ele>54</ele>
        <time>2014-05-15T11:46:03Z</time>
      </trkpt>
      <trkpt lat="48.8394" lon="2.4367">
        <ele>53</ele>
        <time>2014-05-15T11:46:04Z</time>
      </trkpt>
      <trkpt lat="48.8394" lon="2.43671">
        <ele>52</ele>
        <time>2014-05-15T11:46:05Z</time>
      </trkpt>
      <trkpt lat="48.8394" lon="2.43672">
        <ele>53</ele>
        <time>2014-05-15T11:46:06Z</time>
      </trkpt>
      <trkpt lat="48.83941" lon="2.43673">
        <ele>52</ele>
        <time>2014-05-15T11:46:07Z</time>
      </trkpt>
      <trkpt lat="48.83941" lon="2.43673">
        <ele>52</ele>
        <time>2014-05-15T11:46:08Z</time>
      </trkpt>
      <trkpt lat="48.83941" lon="2.43673">
        <ele>51</ele>
        <time>2014-05-15T11:46:09Z</time>
      </trkpt>
      <trkpt lat="48.83941" lon="2.43673">
        <ele>52</ele>
        <time>2014-05-15T11:46:10Z</time>
      </trkpt>
      <trkpt lat="48.83941" lon="2.43673">
        <ele>52</ele>
        <time>2014-05-15T11:46:11Z</time>
      </trkpt>
      <trkpt lat="48.83941" lon="2.43673">
        <ele>51</ele>
        <time>2014-05-15T11:46:12Z</time>
      </trkpt>
      <trkpt lat="48.83941" lon="2.43673">
        <ele>52</ele>
        <time>2014-05-15T11:46:13Z</time>
      </trkpt>
      <trkpt lat="48.83941" lon="2.43673">
        <ele>52</ele>
        <time>2014-05-15T11:46:14Z</time>
      </trkpt>
      <trkpt lat="48.83942" lon="2.43674">
        <ele>49</ele>
        <time>2014-05-15T11:46:15Z</time>
      </trkpt>
      <trkpt lat="48.83941" lon="2.43674">
        <ele>49</ele>
        <time>2014-05-15T11:46:16Z</time>
      </trkpt>
      <trkpt lat="48.83941" lon="2.43674">
        <ele>48</ele>
        <time>2014-05-15T11:46:17Z</time>
      </trkpt>
      <trkpt lat="48.83941" lon="2.43674">
        <ele>49</ele>
        <time>2014-05-15T11:46:18Z</time>
      </trkpt>
      <trkpt lat="48.83941" lon="2.43674">
        <ele>48</ele>
        <time>2014-05-15T11:46:19Z</time>
      </trkpt>
      <trkpt lat="48.83941" lon="2.43675">
        <ele>48</ele>
        <time>2014-05-15T11:46:20Z</time>
      </trkpt>
      <trkpt lat="48.83941" lon="2.43674">
        <ele>49</ele>
        <time>2014-05-15T11:46:21Z</time>
      </trkpt>
      <trkpt lat="48.83941" lon="2.43675">
        <ele>50</ele>
        <time>2014-05-15T11:46:22Z</time>
      </trkpt>
      <trkpt lat="48.83942" lon="2.43676">
        <ele>49</ele>
        <time>2014-05-15T11:46:23Z</time>
      </trkpt>
      <trkpt lat="48.83942" lon="2.43676">
        <ele>49</ele>
        <time>2014-05-15T11:46:24Z</time>
      </trkpt>
      <trkpt lat="48.83942" lon="2.43677">
        <ele>49</ele>
        <time>2014-05-15T11:46:25Z</time>
      </trkpt>
      <trkpt lat="48.83942" lon="2.43677">
        <ele>50</ele>
        <time>2014-05-15T11:46:26Z</time>
      </trkpt>
      <trkpt lat="48.83942" lon="2.43677">
        <ele>50</ele>
        <time>2014-05-15T11:46:27Z</time>
      </trkpt>
      <trkpt lat="48.83942" lon="2.43678">
        <ele>50</ele>
        <time>2014-05-15T11:46:28Z</time>
      </trkpt>
      <trkpt lat="48.83942" lon="2.43678">
        <ele>50</ele>
        <time>2014-05-15T11:46:29Z</time>
      </trkpt>
      <trkpt lat="48.83942" lon="2.43678">
        <ele>49</ele>
        <time>2014-05-15T11:46:30Z</time>
      </trkpt>
      <trkpt lat="48.83942" lon="2.43678">
        <ele>49</ele>
        <time>2014-05-15T11:46:31Z</time>
      </trkpt>
      <trkpt lat="48.83942" lon="2.43678">
        <ele>49</ele>
        <time>2014-05-15T11:46:32Z</time>
      </trkpt>
      <trkpt lat="48.83942" lon="2.43678">
        <ele>49</ele>
        <time>2014-05-15T11:46:33Z</time>
      </trkpt>
      <trkpt lat="48.83942" lon="2.43678">
        <ele>49</ele>
        <time>2014-05-15T11:46:34Z</time>
      </trkpt>
      <trkpt lat="48.83942" lon="2.43678">
        <ele>49</ele>
        <time>2014-05-15T11:46:35Z</time>
      </trkpt>
      <trkpt lat="48.83942" lon="2.43678">
        <ele>49</ele>
        <time>2014-05-15T11:46:36Z</time>
      </trkpt>
      <trkpt lat="48.83942" lon="2.43678">
        <ele>49</ele>
        <time>2014-05-15T11:46:37Z</time>
      </trkpt>
      <trkpt lat="48.83942" lon="2.43678">
        <ele>49</ele>
        <time>2014-05-15T11:46:38Z</time>
      </trkpt>
      <trkpt lat="48.83942" lon="2.43678">
        <ele>49</ele>
        <time>2014-05-15T11:46:39Z</time>
      </trkpt>
      <trkpt lat="48.83942" lon="2.43678">
        <ele>49</ele>
        <time>2014-05-15T11:46:40Z</time>
      </trkpt>
      <trkpt lat="48.83942" lon="2.43678">
        <ele>49</ele>
        <time>2014-05-15T11:46:41Z</time>
      </trkpt>
      <trkpt lat="48.83942" lon="2.43678">
        <ele>49</ele>
        <time>2014-05-15T11:46:42Z</time>
      </trkpt>
      <trkpt lat="48.83942" lon="2.43678">
        <ele>49</ele>
        <time>2014-05-15T11:46:43Z</time>
      </trkpt>
      <trkpt lat="48.83942" lon="2.43678">
        <ele>49</ele>
        <time>2014-05-15T11:46:44Z</time>
      </trkpt>
      <trkpt lat="48.83942" lon="2.43678">
        <ele>49</ele>
        <time>2014-05-15T11:46:45Z</time>
      </trkpt>
      <trkpt lat="48.83942" lon="2.43678">
        <ele>49</ele>
        <time>2014-05-15T11:46:46Z</time>
      </trkpt>
      <trkpt lat="48.83942" lon="2.43678">
        <ele>49</ele>
        <time>2014-05-15T11:46:47Z</time>
      </trkpt>
      <trkpt lat="48.83942" lon="2.43678">
        <ele>49</ele>
        <time>2014-05-15T11:46:48Z</time>
      </trkpt>
      <trkpt lat="48.83942" lon="2.43678">
        <ele>49</ele>
        <time>2014-05-15T11:46:49Z</time>
      </trkpt>
      <trkpt lat="48.83942" lon="2.43678">
        <ele>49</ele>
        <time>2014-05-15T11:46:50Z</time>
      </trkpt>
    </trkseg>
  </trk>
</gpx>